﻿<?xml version="1.0" encoding="utf-8"?><gpx creator="Garmin Desktop App" version="1.1" xsi:schemaLocation="http://www.topografix.com/GPX/1/1 http://www.topografix.com/GPX/1/1/gpx.xsd http://www.garmin.com/xmlschemas/WaypointExtension/v1 http://www8.garmin.com/xmlschemas/WaypointExtensionv1.xsd http://www.garmin.com/xmlschemas/TrackPointExtension/v1 http://www.garmin.com/xmlschemas/TrackPointExtensionv1.xsd http://www.garmin.com/xmlschemas/GpxExtensions/v3 http://www8.garmin.com/xmlschemas/GpxExtensionsv3.xsd http://www.garmin.com/xmlschemas/ActivityExtension/v1 http://www8.garmin.com/xmlschemas/ActivityExtensionv1.xsd http://www.garmin.com/xmlschemas/AdventuresExtensions/v1 http://www8.garmin.com/xmlschemas/AdventuresExtensionv1.xsd http://www.garmin.com/xmlschemas/PressureExtension/v1 http://www.garmin.com/xmlschemas/PressureExtensionv1.xsd http://www.garmin.com/xmlschemas/TripExtensions/v1 http://www.garmin.com/xmlschemas/TripExtensionsv1.xsd http://www.garmin.com/xmlschemas/TripMetaDataExtensions/v1 http://www.garmin.com/xmlschemas/TripMetaDataExtensionsv1.xsd http://www.garmin.com/xmlschemas/ViaPointTransportationModeExtensions/v1 http://www.garmin.com/xmlschemas/ViaPointTransportationModeExtensionsv1.xsd http://www.garmin.com/xmlschemas/CreationTimeExtension/v1 http://www.garmin.com/xmlschemas/CreationTimeExtensionsv1.xsd http://www.garmin.com/xmlschemas/AccelerationExtension/v1 http://www.garmin.com/xmlschemas/AccelerationExtensionv1.xsd http://www.garmin.com/xmlschemas/PowerExtension/v1 http://www.garmin.com/xmlschemas/PowerExtensionv1.xsd http://www.garmin.com/xmlschemas/VideoExtension/v1 http://www.garmin.com/xmlschemas/VideoExtensionv1.xsd" xmlns="http://www.topografix.com/GPX/1/1" xmlns:xsi="http://www.w3.org/2001/XMLSchema-instance" xmlns:wptx1="http://www.garmin.com/xmlschemas/WaypointExtension/v1" xmlns:gpxtrx="http://www.garmin.com/xmlschemas/GpxExtensions/v3" xmlns:gpxtpx="http://www.garmin.com/xmlschemas/TrackPointExtension/v1" xmlns:gpxx="http://www.garmin.com/xmlschemas/GpxExtensions/v3" xmlns:trp="http://www.garmin.com/xmlschemas/TripExtensions/v1" xmlns:adv="http://www.garmin.com/xmlschemas/AdventuresExtensions/v1" xmlns:prs="http://www.garmin.com/xmlschemas/PressureExtension/v1" xmlns:tmd="http://www.garmin.com/xmlschemas/TripMetaDataExtensions/v1" xmlns:vptm="http://www.garmin.com/xmlschemas/ViaPointTransportationModeExtensions/v1" xmlns:ctx="http://www.garmin.com/xmlschemas/CreationTimeExtension/v1" xmlns:gpxacc="http://www.garmin.com/xmlschemas/AccelerationExtension/v1" xmlns:gpxpx="http://www.garmin.com/xmlschemas/PowerExtension/v1" xmlns:vidx1="http://www.garmin.com/xmlschemas/VideoExtension/v1">

  <metadata>
    <link href="http://www.garmin.com">
      <text>Garmin International</text>
    </link>
    <time>2018-07-06T19:16:39Z</time>
    <bounds maxlat="48.724608980119228" maxlon="-3.544807014986873" minlat="47.868397990241647" minlon="-4.794046031311154" />
  </metadata>

  <trk>
    <name>Track vom: 2018-07-06 09:11</name>
    <extensions>
      <gpxx:TrackExtension>
        <gpxx:DisplayColor>DarkGray</gpxx:DisplayColor>
      </gpxx:TrackExtension>
    </extensions>
    <trkseg>
      <trkpt lat="48.724608980119228" lon="-3.986618975177407">
        <ele>7.35</ele>
        <time>2018-07-06T07:11:59Z</time>
      </trkpt>
      <trkpt lat="48.724608980119228" lon="-3.986618975177407">
        <ele>7.83</ele>
        <time>2018-07-06T07:12:45Z</time>
      </trkpt>
      <trkpt lat="48.724608980119228" lon="-3.986618975177407">
        <ele>7.83</ele>
        <time>2018-07-06T07:13:30Z</time>
      </trkpt>
      <trkpt lat="48.724608980119228" lon="-3.986618975177407">
        <ele>8.310000000000001</ele>
        <time>2018-07-06T07:14:26Z</time>
      </trkpt>
      <trkpt lat="48.724452992901206" lon="-3.986673960462213">
        <ele>9.75</ele>
        <time>2018-07-06T07:15:00Z</time>
      </trkpt>
      <trkpt lat="48.724156022071838" lon="-3.986780997365713">
        <ele>10.23</ele>
        <time>2018-07-06T07:15:05Z</time>
      </trkpt>
      <trkpt lat="48.72407203540206" lon="-3.986812010407448">
        <ele>10.23</ele>
        <time>2018-07-06T07:15:11Z</time>
      </trkpt>
      <trkpt lat="48.723839018493891" lon="-3.986873030662537">
        <ele>9.75</ele>
        <time>2018-07-06T07:15:21Z</time>
      </trkpt>
      <trkpt lat="48.723427969962358" lon="-3.986921980977058">
        <ele>10.23</ele>
        <time>2018-07-06T07:15:28Z</time>
      </trkpt>
      <trkpt lat="48.722709976136684" lon="-3.986973026767373">
        <ele>10.710000000000001</ele>
        <time>2018-07-06T07:15:39Z</time>
      </trkpt>
      <trkpt lat="48.722643004730344" lon="-3.986969003453851">
        <ele>10.710000000000001</ele>
        <time>2018-07-06T07:15:40Z</time>
      </trkpt>
      <trkpt lat="48.722575027495623" lon="-3.986960034817457">
        <ele>10.710000000000001</ele>
        <time>2018-07-06T07:15:41Z</time>
      </trkpt>
      <trkpt lat="48.722372017800808" lon="-3.986883005127311">
        <ele>11.67</ele>
        <time>2018-07-06T07:15:44Z</time>
      </trkpt>
      <trkpt lat="48.722305968403816" lon="-3.986857021227479">
        <ele>12.15</ele>
        <time>2018-07-06T07:15:45Z</time>
      </trkpt>
      <trkpt lat="48.722117962315679" lon="-3.986669015139341">
        <ele>13.119999999999999</ele>
        <time>2018-07-06T07:15:48Z</time>
      </trkpt>
      <trkpt lat="48.721344983205199" lon="-3.985896036028862">
        <ele>16</ele>
        <time>2018-07-06T07:15:59Z</time>
      </trkpt>
      <trkpt lat="48.721123030409217" lon="-3.985734013840556">
        <ele>15.52</ele>
        <time>2018-07-06T07:16:02Z</time>
      </trkpt>
      <trkpt lat="48.720905017107725" lon="-3.985637035220861">
        <ele>15.039999999999999</ele>
        <time>2018-07-06T07:16:05Z</time>
      </trkpt>
      <trkpt lat="48.720675017684698" lon="-3.985569979995489">
        <ele>14.08</ele>
        <time>2018-07-06T07:16:08Z</time>
      </trkpt>
      <trkpt lat="48.71999298222363" lon="-3.9855279866606">
        <ele>14.56</ele>
        <time>2018-07-06T07:16:17Z</time>
      </trkpt>
      <trkpt lat="48.719920981675386" lon="-3.985521029680967">
        <ele>14.56</ele>
        <time>2018-07-06T07:16:18Z</time>
      </trkpt>
      <trkpt lat="48.719429969787598" lon="-3.985397983342409">
        <ele>13.6</ele>
        <time>2018-07-06T07:16:24Z</time>
      </trkpt>
      <trkpt lat="48.718311991542578" lon="-3.98503202944994">
        <ele>17.920000000000002</ele>
        <time>2018-07-06T07:16:35Z</time>
      </trkpt>
      <trkpt lat="48.717587040737271" lon="-3.98501300252974">
        <ele>19.359999999999999</ele>
        <time>2018-07-06T07:16:42Z</time>
      </trkpt>
      <trkpt lat="48.717486960813403" lon="-3.984973020851612">
        <ele>19.84</ele>
        <time>2018-07-06T07:16:43Z</time>
      </trkpt>
      <trkpt lat="48.71739299967885" lon="-3.9849270042032">
        <ele>19.84</ele>
        <time>2018-07-06T07:16:44Z</time>
      </trkpt>
      <trkpt lat="48.716804003342986" lon="-3.984574964269996">
        <ele>20.809999999999999</ele>
        <time>2018-07-06T07:16:53Z</time>
      </trkpt>
      <trkpt lat="48.716277033090591" lon="-3.984295008704066">
        <ele>22.25</ele>
        <time>2018-07-06T07:17:02Z</time>
      </trkpt>
      <trkpt lat="48.716206038370728" lon="-3.98426198400557">
        <ele>22.73</ele>
        <time>2018-07-06T07:17:03Z</time>
      </trkpt>
      <trkpt lat="48.716136971488595" lon="-3.984275981783867">
        <ele>22.73</ele>
        <time>2018-07-06T07:17:04Z</time>
      </trkpt>
      <trkpt lat="48.71606295928359" lon="-3.984289979562163">
        <ele>22.73</ele>
        <time>2018-07-06T07:17:05Z</time>
      </trkpt>
      <trkpt lat="48.715981990098953" lon="-3.984305988997221">
        <ele>23.210000000000001</ele>
        <time>2018-07-06T07:17:06Z</time>
      </trkpt>
      <trkpt lat="48.715899009257555" lon="-3.984323004260659">
        <ele>23.210000000000001</ele>
        <time>2018-07-06T07:17:07Z</time>
      </trkpt>
      <trkpt lat="48.715144973248243" lon="-3.984468011185527">
        <ele>26.09</ele>
        <time>2018-07-06T07:17:16Z</time>
      </trkpt>
      <trkpt lat="48.713853992521763" lon="-3.984603965654969">
        <ele>28.5</ele>
        <time>2018-07-06T07:17:29Z</time>
      </trkpt>
      <trkpt lat="48.712188005447388" lon="-3.984747966751456">
        <ele>34.259999999999998</ele>
        <time>2018-07-06T07:17:43Z</time>
      </trkpt>
      <trkpt lat="48.710910016670823" lon="-3.984424006193876">
        <ele>37.630000000000003</ele>
        <time>2018-07-06T07:17:53Z</time>
      </trkpt>
      <trkpt lat="48.709818022325635" lon="-3.983799973502755">
        <ele>39.07</ele>
        <time>2018-07-06T07:18:04Z</time>
      </trkpt>
      <trkpt lat="48.709500012919307" lon="-3.983613979071379">
        <ele>39.07</ele>
        <time>2018-07-06T07:18:08Z</time>
      </trkpt>
      <trkpt lat="48.709431029856205" lon="-3.983573997393251">
        <ele>39.07</ele>
        <time>2018-07-06T07:18:09Z</time>
      </trkpt>
      <trkpt lat="48.709280993789434" lon="-3.983702994883061">
        <ele>39.07</ele>
        <time>2018-07-06T07:18:10Z</time>
      </trkpt>
      <trkpt lat="48.709231037646532" lon="-3.983694026246667">
        <ele>38.590000000000003</ele>
        <time>2018-07-06T07:18:11Z</time>
      </trkpt>
      <trkpt lat="48.709151996299624" lon="-3.983681034296751">
        <ele>38.590000000000003</ele>
        <time>2018-07-06T07:18:12Z</time>
      </trkpt>
      <trkpt lat="48.708960972726345" lon="-3.983540972694755">
        <ele>38.590000000000003</ele>
        <time>2018-07-06T07:18:14Z</time>
      </trkpt>
      <trkpt lat="48.708873968571424" lon="-3.983583971858025">
        <ele>38.590000000000003</ele>
        <time>2018-07-06T07:18:15Z</time>
      </trkpt>
      <trkpt lat="48.708782019093633" lon="-3.983629988506436">
        <ele>38.109999999999999</ele>
        <time>2018-07-06T07:18:16Z</time>
      </trkpt>
      <trkpt lat="48.707655994221568" lon="-3.984171962365508">
        <ele>39.07</ele>
        <time>2018-07-06T07:18:26Z</time>
      </trkpt>
      <trkpt lat="48.706350009888411" lon="-3.985129008069634">
        <ele>39.07</ele>
        <time>2018-07-06T07:18:38Z</time>
      </trkpt>
      <trkpt lat="48.705933010205626" lon="-3.985516000539064">
        <ele>39.549999999999997</ele>
        <time>2018-07-06T07:18:42Z</time>
      </trkpt>
      <trkpt lat="48.705019969493151" lon="-3.986024027690291">
        <ele>40.030000000000001</ele>
        <time>2018-07-06T07:18:50Z</time>
      </trkpt>
      <trkpt lat="48.704787036404014" lon="-3.986120000481606">
        <ele>40.030000000000001</ele>
        <time>2018-07-06T07:18:52Z</time>
      </trkpt>
      <trkpt lat="48.704551002010703" lon="-3.986252015456557">
        <ele>40.030000000000001</ele>
        <time>2018-07-06T07:18:54Z</time>
      </trkpt>
      <trkpt lat="48.703886987641454" lon="-3.987158015370369">
        <ele>40.030000000000001</ele>
        <time>2018-07-06T07:19:02Z</time>
      </trkpt>
      <trkpt lat="48.702640011906624" lon="-3.988725012168288">
        <ele>40.509999999999998</ele>
        <time>2018-07-06T07:19:15Z</time>
      </trkpt>
      <trkpt lat="48.70095600374043" lon="-3.990754019469023">
        <ele>42.920000000000002</ele>
        <time>2018-07-06T07:19:29Z</time>
      </trkpt>
      <trkpt lat="48.698848038911819" lon="-3.993185022845864">
        <ele>44.359999999999999</ele>
        <time>2018-07-06T07:19:46Z</time>
      </trkpt>
      <trkpt lat="48.697276012971997" lon="-3.995448974892497">
        <ele>43.880000000000003</ele>
        <time>2018-07-06T07:19:58Z</time>
      </trkpt>
      <trkpt lat="48.695860980078578" lon="-3.997358037158847">
        <ele>42.439999999999998</ele>
        <time>2018-07-06T07:20:08Z</time>
      </trkpt>
      <trkpt lat="48.695683032274246" lon="-3.997488040477037">
        <ele>42.439999999999998</ele>
        <time>2018-07-06T07:20:09Z</time>
      </trkpt>
      <trkpt lat="48.69550097733736" lon="-3.997616032138467">
        <ele>42.920000000000002</ele>
        <time>2018-07-06T07:20:10Z</time>
      </trkpt>
      <trkpt lat="48.693229984492064" lon="-3.998726969584823">
        <ele>45.799999999999997</ele>
        <time>2018-07-06T07:20:22Z</time>
      </trkpt>
      <trkpt lat="48.691727025434375" lon="-3.998813973739743">
        <ele>49.159999999999997</ele>
        <time>2018-07-06T07:20:30Z</time>
      </trkpt>
      <trkpt lat="48.690105965360999" lon="-3.998564025387168">
        <ele>51.57</ele>
        <time>2018-07-06T07:20:40Z</time>
      </trkpt>
      <trkpt lat="48.689601961523294" lon="-3.998622028157115">
        <ele>52.530000000000001</ele>
        <time>2018-07-06T07:20:43Z</time>
      </trkpt>
      <trkpt lat="48.689432982355356" lon="-3.998651029542089">
        <ele>52.530000000000001</ele>
        <time>2018-07-06T07:20:44Z</time>
      </trkpt>
      <trkpt lat="48.689276995137334" lon="-3.998739961534739">
        <ele>52.530000000000001</ele>
        <time>2018-07-06T07:20:45Z</time>
      </trkpt>
      <trkpt lat="48.689133999869227" lon="-3.998843980953097">
        <ele>52.530000000000001</ele>
        <time>2018-07-06T07:20:46Z</time>
      </trkpt>
      <trkpt lat="48.688997961580753" lon="-3.998943977057934">
        <ele>53.009999999999998</ele>
        <time>2018-07-06T07:20:47Z</time>
      </trkpt>
      <trkpt lat="48.688867036253214" lon="-3.999039027839899">
        <ele>53.009999999999998</ele>
        <time>2018-07-06T07:20:48Z</time>
      </trkpt>
      <trkpt lat="48.688742984086275" lon="-3.99912896566093">
        <ele>53.490000000000002</ele>
        <time>2018-07-06T07:20:49Z</time>
      </trkpt>
      <trkpt lat="48.688633013516665" lon="-3.999222004786134">
        <ele>53.490000000000002</ele>
        <time>2018-07-06T07:20:50Z</time>
      </trkpt>
      <trkpt lat="48.68828197941184" lon="-3.999625006690621">
        <ele>54.450000000000003</ele>
        <time>2018-07-06T07:20:56Z</time>
      </trkpt>
      <trkpt lat="48.688261024653912" lon="-3.999676974490285">
        <ele>54.93</ele>
        <time>2018-07-06T07:20:57Z</time>
      </trkpt>
      <trkpt lat="48.688200004398823" lon="-3.99981502443552">
        <ele>55.409999999999997</ele>
        <time>2018-07-06T07:20:59Z</time>
      </trkpt>
      <trkpt lat="48.688159016892314" lon="-3.999896999448538">
        <ele>55.409999999999997</ele>
        <time>2018-07-06T07:21:00Z</time>
      </trkpt>
      <trkpt lat="48.688070001080632" lon="-4.000004036352038">
        <ele>55.890000000000001</ele>
        <time>2018-07-06T07:21:01Z</time>
      </trkpt>
      <trkpt lat="48.687990959733725" lon="-3.999988026916981">
        <ele>55.890000000000001</ele>
        <time>2018-07-06T07:21:02Z</time>
      </trkpt>
      <trkpt lat="48.687902027741075" lon="-3.999971011653543">
        <ele>55.409999999999997</ele>
        <time>2018-07-06T07:21:03Z</time>
      </trkpt>
      <trkpt lat="48.68780798278749" lon="-3.999949973076582">
        <ele>55.409999999999997</ele>
        <time>2018-07-06T07:21:04Z</time>
      </trkpt>
      <trkpt lat="48.687694994732738" lon="-3.999924995005131">
        <ele>54.93</ele>
        <time>2018-07-06T07:21:05Z</time>
      </trkpt>
      <trkpt lat="48.687589969485998" lon="-3.999931029975414">
        <ele>54.450000000000003</ele>
        <time>2018-07-06T07:21:06Z</time>
      </trkpt>
      <trkpt lat="48.686279961839318" lon="-4.000171003863215">
        <ele>47.240000000000002</ele>
        <time>2018-07-06T07:21:16Z</time>
      </trkpt>
      <trkpt lat="48.684170991182327" lon="-4.000590015202761">
        <ele>36.670000000000002</ele>
        <time>2018-07-06T07:21:31Z</time>
      </trkpt>
      <trkpt lat="48.683153009042144" lon="-4.001241037622094">
        <ele>33.780000000000001</ele>
        <time>2018-07-06T07:21:39Z</time>
      </trkpt>
      <trkpt lat="48.682165034115314" lon="-4.002326996996999">
        <ele>32.340000000000003</ele>
        <time>2018-07-06T07:21:49Z</time>
      </trkpt>
      <trkpt lat="48.681075973436236" lon="-4.003331987187266">
        <ele>30.899999999999999</ele>
        <time>2018-07-06T07:21:59Z</time>
      </trkpt>
      <trkpt lat="48.679348966106772" lon="-4.004697985947132">
        <ele>32.340000000000003</ele>
        <time>2018-07-06T07:22:14Z</time>
      </trkpt>
      <trkpt lat="48.678399967029691" lon="-4.005501978099346">
        <ele>32.82</ele>
        <time>2018-07-06T07:22:24Z</time>
      </trkpt>
      <trkpt lat="48.678282033652067" lon="-4.005602980032563">
        <ele>32.82</ele>
        <time>2018-07-06T07:22:26Z</time>
      </trkpt>
      <trkpt lat="48.678253032267094" lon="-4.005631981417537">
        <ele>32.82</ele>
        <time>2018-07-06T07:22:27Z</time>
      </trkpt>
      <trkpt lat="48.678152030333877" lon="-4.005784029141069">
        <ele>32.340000000000003</ele>
        <time>2018-07-06T07:22:28Z</time>
      </trkpt>
      <trkpt lat="48.678045999258757" lon="-4.006287027150393">
        <ele>33.299999999999997</ele>
        <time>2018-07-06T07:22:32Z</time>
      </trkpt>
      <trkpt lat="48.678059997037053" lon="-4.00643203407526">
        <ele>33.299999999999997</ele>
        <time>2018-07-06T07:22:33Z</time>
      </trkpt>
      <trkpt lat="48.67807500064373" lon="-4.006591038778424">
        <ele>33.780000000000001</ele>
        <time>2018-07-06T07:22:34Z</time>
      </trkpt>
      <trkpt lat="48.678096039220691" lon="-4.008488031104207">
        <ele>34.259999999999998</ele>
        <time>2018-07-06T07:22:44Z</time>
      </trkpt>
      <trkpt lat="48.67764400318265" lon="-4.01023699901998">
        <ele>33.299999999999997</ele>
        <time>2018-07-06T07:22:52Z</time>
      </trkpt>
      <trkpt lat="48.676816038787365" lon="-4.012691974639893">
        <ele>30.420000000000002</ele>
        <time>2018-07-06T07:23:03Z</time>
      </trkpt>
      <trkpt lat="48.676069965586066" lon="-4.014491988345981">
        <ele>25.609999999999999</ele>
        <time>2018-07-06T07:23:11Z</time>
      </trkpt>
      <trkpt lat="48.676009029150009" lon="-4.01474797166884">
        <ele>24.170000000000002</ele>
        <time>2018-07-06T07:23:12Z</time>
      </trkpt>
      <trkpt lat="48.675966029986739" lon="-4.015014013275504">
        <ele>22.25</ele>
        <time>2018-07-06T07:23:13Z</time>
      </trkpt>
      <trkpt lat="48.675922024995089" lon="-4.015283994376659">
        <ele>21.289999999999999</ele>
        <time>2018-07-06T07:23:14Z</time>
      </trkpt>
      <trkpt lat="48.675929987803102" lon="-4.015559004619718">
        <ele>19.84</ele>
        <time>2018-07-06T07:23:15Z</time>
      </trkpt>
      <trkpt lat="48.675950020551682" lon="-4.015839966014028">
        <ele>18.399999999999999</ele>
        <time>2018-07-06T07:23:16Z</time>
      </trkpt>
      <trkpt lat="48.67596996948123" lon="-4.016126040369272">
        <ele>16.960000000000001</ele>
        <time>2018-07-06T07:23:17Z</time>
      </trkpt>
      <trkpt lat="48.676009029150009" lon="-4.016408007591963">
        <ele>16</ele>
        <time>2018-07-06T07:23:18Z</time>
      </trkpt>
      <trkpt lat="48.676066026091576" lon="-4.016688968986273">
        <ele>14.56</ele>
        <time>2018-07-06T07:23:19Z</time>
      </trkpt>
      <trkpt lat="48.676586961373687" lon="-4.019148973748088">
        <ele>9.75</ele>
        <time>2018-07-06T07:23:28Z</time>
      </trkpt>
      <trkpt lat="48.676745966076851" lon="-4.021220980212092">
        <ele>14.56</ele>
        <time>2018-07-06T07:23:36Z</time>
      </trkpt>
      <trkpt lat="48.676428962498903" lon="-4.023549975827336">
        <ele>25.129999999999999</ele>
        <time>2018-07-06T07:23:45Z</time>
      </trkpt>
      <trkpt lat="48.676408007740974" lon="-4.025743016973138">
        <ele>33.780000000000001</ele>
        <time>2018-07-06T07:23:54Z</time>
      </trkpt>
      <trkpt lat="48.676242968067527" lon="-4.028070000931621">
        <ele>38.109999999999999</ele>
        <time>2018-07-06T07:24:03Z</time>
      </trkpt>
      <trkpt lat="48.675741981714964" lon="-4.030387010425329">
        <ele>40.030000000000001</ele>
        <time>2018-07-06T07:24:13Z</time>
      </trkpt>
      <trkpt lat="48.675148040056229" lon="-4.032118963077664">
        <ele>40.509999999999998</ele>
        <time>2018-07-06T07:24:22Z</time>
      </trkpt>
      <trkpt lat="48.675120966508985" lon="-4.032328007742763">
        <ele>40.990000000000002</ele>
        <time>2018-07-06T07:24:23Z</time>
      </trkpt>
      <trkpt lat="48.675093976780772" lon="-4.03253797441721">
        <ele>40.990000000000002</ele>
        <time>2018-07-06T07:24:24Z</time>
      </trkpt>
      <trkpt lat="48.675099005922675" lon="-4.034113017842174">
        <ele>43.399999999999999</ele>
        <time>2018-07-06T07:24:31Z</time>
      </trkpt>
      <trkpt lat="48.67506799288094" lon="-4.034331031143665">
        <ele>43.399999999999999</ele>
        <time>2018-07-06T07:24:32Z</time>
      </trkpt>
      <trkpt lat="48.675033040344715" lon="-4.034563964232802">
        <ele>43.399999999999999</ele>
        <time>2018-07-06T07:24:33Z</time>
      </trkpt>
      <trkpt lat="48.674996998161077" lon="-4.034803016111255">
        <ele>43.399999999999999</ele>
        <time>2018-07-06T07:24:34Z</time>
      </trkpt>
      <trkpt lat="48.674944024533033" lon="-4.035026980563998">
        <ele>43.399999999999999</ele>
        <time>2018-07-06T07:24:35Z</time>
      </trkpt>
      <trkpt lat="48.674886021763086" lon="-4.035257985815406">
        <ele>42.920000000000002</ele>
        <time>2018-07-06T07:24:36Z</time>
      </trkpt>
      <trkpt lat="48.674822989851236" lon="-4.035475999116898">
        <ele>42.920000000000002</ele>
        <time>2018-07-06T07:24:37Z</time>
      </trkpt>
      <trkpt lat="48.674004999920726" lon="-4.037356982007623">
        <ele>43.399999999999999</ele>
        <time>2018-07-06T07:24:46Z</time>
      </trkpt>
      <trkpt lat="48.673014007508755" lon="-4.040794987231493">
        <ele>42.439999999999998</ele>
        <time>2018-07-06T07:25:02Z</time>
      </trkpt>
      <trkpt lat="48.672495000064373" lon="-4.042492993175983">
        <ele>41.469999999999999</ele>
        <time>2018-07-06T07:25:13Z</time>
      </trkpt>
      <trkpt lat="48.672186965122819" lon="-4.043471999466419">
        <ele>41.469999999999999</ele>
        <time>2018-07-06T07:25:22Z</time>
      </trkpt>
      <trkpt lat="48.671997031196952" lon="-4.044073987752199">
        <ele>42.920000000000002</ele>
        <time>2018-07-06T07:25:30Z</time>
      </trkpt>
      <trkpt lat="48.671631999313831" lon="-4.04532004147768">
        <ele>43.880000000000003</ele>
        <time>2018-07-06T07:25:39Z</time>
      </trkpt>
      <trkpt lat="48.671175017952919" lon="-4.046901036053896">
        <ele>42.439999999999998</ele>
        <time>2018-07-06T07:25:48Z</time>
      </trkpt>
      <trkpt lat="48.670436991378665" lon="-4.048901963979006">
        <ele>40.990000000000002</ele>
        <time>2018-07-06T07:25:58Z</time>
      </trkpt>
      <trkpt lat="48.669732995331287" lon="-4.050296964123845">
        <ele>30.899999999999999</ele>
        <time>2018-07-06T07:26:05Z</time>
      </trkpt>
      <trkpt lat="48.669034028425813" lon="-4.052573991939426">
        <ele>17.440000000000001</ele>
        <time>2018-07-06T07:26:14Z</time>
      </trkpt>
      <trkpt lat="48.668173039332032" lon="-4.055389976128936">
        <ele>8.789999999999999</ele>
        <time>2018-07-06T07:26:24Z</time>
      </trkpt>
      <trkpt lat="48.667150028049946" lon="-4.058820018544793">
        <ele>24.170000000000002</ele>
        <time>2018-07-06T07:26:37Z</time>
      </trkpt>
      <trkpt lat="48.666524989530444" lon="-4.060910968109965">
        <ele>37.149999999999999</ele>
        <time>2018-07-06T07:26:46Z</time>
      </trkpt>
      <trkpt lat="48.666213015094399" lon="-4.062064988538623">
        <ele>44.840000000000003</ele>
        <time>2018-07-06T07:26:53Z</time>
      </trkpt>
      <trkpt lat="48.666014028713107" lon="-4.063541041687131">
        <ele>49.159999999999997</ele>
        <time>2018-07-06T07:27:03Z</time>
      </trkpt>
      <trkpt lat="48.665982009842992" lon="-4.064244031906128">
        <ele>47.719999999999999</ele>
        <time>2018-07-06T07:27:08Z</time>
      </trkpt>
      <trkpt lat="48.665987960994244" lon="-4.064384009689093">
        <ele>46.759999999999998</ele>
        <time>2018-07-06T07:27:09Z</time>
      </trkpt>
      <trkpt lat="48.666031965985894" lon="-4.064844008535147">
        <ele>44.840000000000003</ele>
        <time>2018-07-06T07:27:12Z</time>
      </trkpt>
      <trkpt lat="48.666071025654674" lon="-4.064991027116776">
        <ele>44.359999999999999</ele>
        <time>2018-07-06T07:27:13Z</time>
      </trkpt>
      <trkpt lat="48.666155012324452" lon="-4.065480027347803">
        <ele>44.359999999999999</ele>
        <time>2018-07-06T07:27:16Z</time>
      </trkpt>
      <trkpt lat="48.66617102175951" lon="-4.065653029829264">
        <ele>44.359999999999999</ele>
        <time>2018-07-06T07:27:17Z</time>
      </trkpt>
      <trkpt lat="48.666164986789227" lon="-4.065840030089021">
        <ele>44.359999999999999</ele>
        <time>2018-07-06T07:27:18Z</time>
      </trkpt>
      <trkpt lat="48.66610798984766" lon="-4.06760198995471">
        <ele>49.159999999999997</ele>
        <time>2018-07-06T07:27:27Z</time>
      </trkpt>
      <trkpt lat="48.666130034253001" lon="-4.067756971344352">
        <ele>49.649999999999999</ele>
        <time>2018-07-06T07:27:28Z</time>
      </trkpt>
      <trkpt lat="48.666157023981214" lon="-4.067941959947348">
        <ele>50.130000000000003</ele>
        <time>2018-07-06T07:27:29Z</time>
      </trkpt>
      <trkpt lat="48.666184013709426" lon="-4.068134995177388">
        <ele>50.609999999999999</ele>
        <time>2018-07-06T07:27:30Z</time>
      </trkpt>
      <trkpt lat="48.666226007044315" lon="-4.068321995437145">
        <ele>50.609999999999999</ele>
        <time>2018-07-06T07:27:31Z</time>
      </trkpt>
      <trkpt lat="48.666274035349488" lon="-4.068505978211761">
        <ele>51.090000000000003</ele>
        <time>2018-07-06T07:27:32Z</time>
      </trkpt>
      <trkpt lat="48.666716013103724" lon="-4.070434989407659">
        <ele>48.200000000000003</ele>
        <time>2018-07-06T07:27:43Z</time>
      </trkpt>
      <trkpt lat="48.666799999773502" lon="-4.07258695922792">
        <ele>47.240000000000002</ele>
        <time>2018-07-06T07:27:53Z</time>
      </trkpt>
      <trkpt lat="48.667115997523069" lon="-4.075154000893235">
        <ele>49.649999999999999</ele>
        <time>2018-07-06T07:28:04Z</time>
      </trkpt>
      <trkpt lat="48.667752016335726" lon="-4.077789019793272">
        <ele>51.090000000000003</ele>
        <time>2018-07-06T07:28:15Z</time>
      </trkpt>
      <trkpt lat="48.66778202354908" lon="-4.08004199154675">
        <ele>48.200000000000003</ele>
        <time>2018-07-06T07:28:23Z</time>
      </trkpt>
      <trkpt lat="48.667725026607513" lon="-4.083614023402333">
        <ele>42.439999999999998</ele>
        <time>2018-07-06T07:28:37Z</time>
      </trkpt>
      <trkpt lat="48.667716979980469" lon="-4.08414501696825">
        <ele>41.469999999999999</ele>
        <time>2018-07-06T07:28:39Z</time>
      </trkpt>
      <trkpt lat="48.66765595972538" lon="-4.087096033617854">
        <ele>44.840000000000003</ele>
        <time>2018-07-06T07:28:51Z</time>
      </trkpt>
      <trkpt lat="48.667556969448924" lon="-4.089856026694179">
        <ele>47.240000000000002</ele>
        <time>2018-07-06T07:29:01Z</time>
      </trkpt>
      <trkpt lat="48.66709403693676" lon="-4.092958001419902">
        <ele>45.799999999999997</ele>
        <time>2018-07-06T07:29:12Z</time>
      </trkpt>
      <trkpt lat="48.666815003380179" lon="-4.094796990975738">
        <ele>43.880000000000003</ele>
        <time>2018-07-06T07:29:20Z</time>
      </trkpt>
      <trkpt lat="48.666263977065682" lon="-4.097178960219026">
        <ele>43.880000000000003</ele>
        <time>2018-07-06T07:29:31Z</time>
      </trkpt>
      <trkpt lat="48.665554029867053" lon="-4.098375979810953">
        <ele>46.280000000000001</ele>
        <time>2018-07-06T07:29:39Z</time>
      </trkpt>
      <trkpt lat="48.665010966360569" lon="-4.099151976406574">
        <ele>47.719999999999999</ele>
        <time>2018-07-06T07:29:47Z</time>
      </trkpt>
      <trkpt lat="48.664970984682441" lon="-4.099208973348141">
        <ele>47.719999999999999</ele>
        <time>2018-07-06T07:29:48Z</time>
      </trkpt>
      <trkpt lat="48.664987999945879" lon="-4.099422041326761">
        <ele>47.719999999999999</ele>
        <time>2018-07-06T07:29:49Z</time>
      </trkpt>
      <trkpt lat="48.664907030761242" lon="-4.099552966654301">
        <ele>47.719999999999999</ele>
        <time>2018-07-06T07:29:50Z</time>
      </trkpt>
      <trkpt lat="48.664898984134197" lon="-4.099607029929757">
        <ele>47.719999999999999</ele>
        <time>2018-07-06T07:29:51Z</time>
      </trkpt>
      <trkpt lat="48.66488004103303" lon="-4.099738039076328">
        <ele>47.719999999999999</ele>
        <time>2018-07-06T07:29:52Z</time>
      </trkpt>
      <trkpt lat="48.664841987192631" lon="-4.100011037662625">
        <ele>47.719999999999999</ele>
        <time>2018-07-06T07:29:54Z</time>
      </trkpt>
      <trkpt lat="48.664830001071095" lon="-4.100155038759112">
        <ele>47.240000000000002</ele>
        <time>2018-07-06T07:29:55Z</time>
      </trkpt>
      <trkpt lat="48.664735034108162" lon="-4.10189202055335">
        <ele>48.200000000000003</ele>
        <time>2018-07-06T07:30:07Z</time>
      </trkpt>
      <trkpt lat="48.664698991924524" lon="-4.1019999794662">
        <ele>48.200000000000003</ele>
        <time>2018-07-06T07:30:08Z</time>
      </trkpt>
      <trkpt lat="48.66466797888279" lon="-4.102086983621121">
        <ele>48.200000000000003</ele>
        <time>2018-07-06T07:30:09Z</time>
      </trkpt>
      <trkpt lat="48.664606958627701" lon="-4.102148003876209">
        <ele>48.200000000000003</ele>
        <time>2018-07-06T07:30:10Z</time>
      </trkpt>
      <trkpt lat="48.664546022191644" lon="-4.102209024131298">
        <ele>48.200000000000003</ele>
        <time>2018-07-06T07:30:11Z</time>
      </trkpt>
      <trkpt lat="48.664483996108174" lon="-4.102270966395736">
        <ele>48.200000000000003</ele>
        <time>2018-07-06T07:30:12Z</time>
      </trkpt>
      <trkpt lat="48.664356004446745" lon="-4.102399963885546">
        <ele>48.68</ele>
        <time>2018-07-06T07:30:14Z</time>
      </trkpt>
      <trkpt lat="48.664299007505178" lon="-4.102456960827112">
        <ele>49.159999999999997</ele>
        <time>2018-07-06T07:30:15Z</time>
      </trkpt>
      <trkpt lat="48.664247961714864" lon="-4.102507000789046">
        <ele>49.159999999999997</ele>
        <time>2018-07-06T07:30:16Z</time>
      </trkpt>
      <trkpt lat="48.664203034713864" lon="-4.102553017437458">
        <ele>49.159999999999997</ele>
        <time>2018-07-06T07:30:17Z</time>
      </trkpt>
      <trkpt lat="48.664176966995001" lon="-4.102577995508909">
        <ele>49.159999999999997</ele>
        <time>2018-07-06T07:30:18Z</time>
      </trkpt>
      <trkpt lat="48.664150983095169" lon="-4.102698024362326">
        <ele>49.649999999999999</ele>
        <time>2018-07-06T07:30:19Z</time>
      </trkpt>
      <trkpt lat="48.664070013910532" lon="-4.10264303907752">
        <ele>49.649999999999999</ele>
        <time>2018-07-06T07:30:20Z</time>
      </trkpt>
      <trkpt lat="48.664058027788997" lon="-4.102638009935617">
        <ele>50.130000000000003</ele>
        <time>2018-07-06T07:30:21Z</time>
      </trkpt>
      <trkpt lat="48.664002036675811" lon="-4.102617977187038">
        <ele>50.130000000000003</ele>
        <time>2018-07-06T07:30:22Z</time>
      </trkpt>
      <trkpt lat="48.663947973400354" lon="-4.102597022429109">
        <ele>50.609999999999999</ele>
        <time>2018-07-06T07:30:23Z</time>
      </trkpt>
      <trkpt lat="48.66389399394393" lon="-4.102576989680529">
        <ele>50.130000000000003</ele>
        <time>2018-07-06T07:30:24Z</time>
      </trkpt>
      <trkpt lat="48.66383196786046" lon="-4.102554023265839">
        <ele>50.130000000000003</ele>
        <time>2018-07-06T07:30:25Z</time>
      </trkpt>
      <trkpt lat="48.663706993684173" lon="-4.102507000789046">
        <ele>49.649999999999999</ele>
        <time>2018-07-06T07:30:27Z</time>
      </trkpt>
      <trkpt lat="48.663643039762974" lon="-4.102483028545976">
        <ele>49.649999999999999</ele>
        <time>2018-07-06T07:30:28Z</time>
      </trkpt>
      <trkpt lat="48.663580007851124" lon="-4.102458972483873">
        <ele>49.159999999999997</ele>
        <time>2018-07-06T07:30:29Z</time>
      </trkpt>
      <trkpt lat="48.663522005081177" lon="-4.102468024939299">
        <ele>49.159999999999997</ele>
        <time>2018-07-06T07:30:30Z</time>
      </trkpt>
      <trkpt lat="48.663470959290862" lon="-4.102496020495892">
        <ele>49.159999999999997</ele>
        <time>2018-07-06T07:30:31Z</time>
      </trkpt>
      <trkpt lat="48.663417985662818" lon="-4.102525021880865">
        <ele>49.649999999999999</ele>
        <time>2018-07-06T07:30:32Z</time>
      </trkpt>
      <trkpt lat="48.663355959579349" lon="-4.102567015215755">
        <ele>49.159999999999997</ele>
        <time>2018-07-06T07:30:33Z</time>
      </trkpt>
      <trkpt lat="48.663318995386362" lon="-4.102634992450476">
        <ele>49.159999999999997</ele>
        <time>2018-07-06T07:30:34Z</time>
      </trkpt>
      <trkpt lat="48.663285970687866" lon="-4.102697018533945">
        <ele>49.159999999999997</ele>
        <time>2018-07-06T07:30:35Z</time>
      </trkpt>
      <trkpt lat="48.663253029808402" lon="-4.102758038789034">
        <ele>49.159999999999997</ele>
        <time>2018-07-06T07:30:36Z</time>
      </trkpt>
      <trkpt lat="48.663218999281526" lon="-4.102820986881852">
        <ele>48.68</ele>
        <time>2018-07-06T07:30:37Z</time>
      </trkpt>
      <trkpt lat="48.663181029260159" lon="-4.102849988266826">
        <ele>48.68</ele>
        <time>2018-07-06T07:30:38Z</time>
      </trkpt>
      <trkpt lat="48.663125960156322" lon="-4.102873960509896">
        <ele>48.68</ele>
        <time>2018-07-06T07:30:39Z</time>
      </trkpt>
      <trkpt lat="48.663071980699897" lon="-4.102899022400379">
        <ele>48.68</ele>
        <time>2018-07-06T07:30:40Z</time>
      </trkpt>
      <trkpt lat="48.662967961281538" lon="-4.102955013513565">
        <ele>48.68</ele>
        <time>2018-07-06T07:30:42Z</time>
      </trkpt>
      <trkpt lat="48.662938959896564" lon="-4.103003041818738">
        <ele>49.159999999999997</ele>
        <time>2018-07-06T07:30:43Z</time>
      </trkpt>
      <trkpt lat="48.662910964339972" lon="-4.103049980476499">
        <ele>49.159999999999997</ele>
        <time>2018-07-06T07:30:44Z</time>
      </trkpt>
      <trkpt lat="48.662910964339972" lon="-4.103141007944942">
        <ele>49.159999999999997</ele>
        <time>2018-07-06T07:30:45Z</time>
      </trkpt>
      <trkpt lat="48.662910964339972" lon="-4.103210996836424">
        <ele>49.649999999999999</ele>
        <time>2018-07-06T07:30:46Z</time>
      </trkpt>
      <trkpt lat="48.662910964339972" lon="-4.103293977677822">
        <ele>49.649999999999999</ele>
        <time>2018-07-06T07:30:47Z</time>
      </trkpt>
      <trkpt lat="48.662910964339972" lon="-4.103382993489504">
        <ele>49.649999999999999</ele>
        <time>2018-07-06T07:30:48Z</time>
      </trkpt>
      <trkpt lat="48.662916999310255" lon="-4.103798987343907">
        <ele>50.609999999999999</ele>
        <time>2018-07-06T07:30:52Z</time>
      </trkpt>
      <trkpt lat="48.662926973775029" lon="-4.104039967060089">
        <ele>51.090000000000003</ele>
        <time>2018-07-06T07:30:54Z</time>
      </trkpt>
      <trkpt lat="48.662968967109919" lon="-4.105320973321796">
        <ele>51.57</ele>
        <time>2018-07-06T07:31:04Z</time>
      </trkpt>
      <trkpt lat="48.662987994030118" lon="-4.106071991845965">
        <ele>52.049999999999997</ele>
        <time>2018-07-06T07:31:10Z</time>
      </trkpt>
      <trkpt lat="48.66299201734364" lon="-4.106194032356143">
        <ele>52.049999999999997</ele>
        <time>2018-07-06T07:31:11Z</time>
      </trkpt>
      <trkpt lat="48.663001991808414" lon="-4.10642696544528">
        <ele>52.049999999999997</ele>
        <time>2018-07-06T07:31:13Z</time>
      </trkpt>
      <trkpt lat="48.663131995126605" lon="-4.107946017757058">
        <ele>53.969999999999999</ele>
        <time>2018-07-06T07:31:25Z</time>
      </trkpt>
      <trkpt lat="48.663277002051473" lon="-4.109702026471496">
        <ele>53.490000000000002</ele>
        <time>2018-07-06T07:31:36Z</time>
      </trkpt>
      <trkpt lat="48.663587970659137" lon="-4.111884003505111">
        <ele>51.090000000000003</ele>
        <time>2018-07-06T07:31:48Z</time>
      </trkpt>
      <trkpt lat="48.663815958425403" lon="-4.112772988155484">
        <ele>49.159999999999997</ele>
        <time>2018-07-06T07:31:53Z</time>
      </trkpt>
      <trkpt lat="48.663833979517221" lon="-4.112969962880015">
        <ele>49.159999999999997</ele>
        <time>2018-07-06T07:31:54Z</time>
      </trkpt>
      <trkpt lat="48.663833979517221" lon="-4.113170960918069">
        <ele>49.159999999999997</ele>
        <time>2018-07-06T07:31:55Z</time>
      </trkpt>
      <trkpt lat="48.663815036416054" lon="-4.113374976441264">
        <ele>49.159999999999997</ele>
        <time>2018-07-06T07:31:56Z</time>
      </trkpt>
      <trkpt lat="48.663759967312217" lon="-4.113570023328066">
        <ele>49.159999999999997</ele>
        <time>2018-07-06T07:31:57Z</time>
      </trkpt>
      <trkpt lat="48.663698025047779" lon="-4.113773033022881">
        <ele>49.649999999999999</ele>
        <time>2018-07-06T07:31:58Z</time>
      </trkpt>
      <trkpt lat="48.663612026721239" lon="-4.113959027454257">
        <ele>50.130000000000003</ele>
        <time>2018-07-06T07:31:59Z</time>
      </trkpt>
      <trkpt lat="48.663514964282513" lon="-4.114123983308673">
        <ele>50.130000000000003</ele>
        <time>2018-07-06T07:32:00Z</time>
      </trkpt>
      <trkpt lat="48.663413962349296" lon="-4.114266978576779">
        <ele>50.130000000000003</ele>
        <time>2018-07-06T07:32:01Z</time>
      </trkpt>
      <trkpt lat="48.66223999299109" lon="-4.116088030859828">
        <ele>50.130000000000003</ele>
        <time>2018-07-06T07:32:14Z</time>
      </trkpt>
      <trkpt lat="48.661663988605142" lon="-4.117889972403646">
        <ele>50.130000000000003</ele>
        <time>2018-07-06T07:32:23Z</time>
      </trkpt>
      <trkpt lat="48.661198038607836" lon="-4.120521973818541">
        <ele>49.649999999999999</ele>
        <time>2018-07-06T07:32:32Z</time>
      </trkpt>
      <trkpt lat="48.660567970946431" lon="-4.123870963230729">
        <ele>48.68</ele>
        <time>2018-07-06T07:32:44Z</time>
      </trkpt>
      <trkpt lat="48.659674962982535" lon="-4.12711501121521">
        <ele>48.68</ele>
        <time>2018-07-06T07:32:56Z</time>
      </trkpt>
      <trkpt lat="48.659066017717123" lon="-4.129863018169999">
        <ele>47.240000000000002</ele>
        <time>2018-07-06T07:33:06Z</time>
      </trkpt>
      <trkpt lat="48.659044979140162" lon="-4.13216301240027">
        <ele>50.609999999999999</ele>
        <time>2018-07-06T07:33:14Z</time>
      </trkpt>
      <trkpt lat="48.6595110129565" lon="-4.134381031617522">
        <ele>54.450000000000003</ele>
        <time>2018-07-06T07:33:22Z</time>
      </trkpt>
      <trkpt lat="48.660137979313731" lon="-4.136472987011075">
        <ele>59.259999999999998</ele>
        <time>2018-07-06T07:33:31Z</time>
      </trkpt>
      <trkpt lat="48.660578029230237" lon="-4.1379239782691">
        <ele>62.140000000000001</ele>
        <time>2018-07-06T07:33:41Z</time>
      </trkpt>
      <trkpt lat="48.660626979544759" lon="-4.138041995465756">
        <ele>62.619999999999997</ele>
        <time>2018-07-06T07:33:42Z</time>
      </trkpt>
      <trkpt lat="48.660674002021551" lon="-4.138154983520508">
        <ele>63.100000000000001</ele>
        <time>2018-07-06T07:33:43Z</time>
      </trkpt>
      <trkpt lat="48.660657992586493" lon="-4.138391017913818">
        <ele>63.579999999999998</ele>
        <time>2018-07-06T07:33:44Z</time>
      </trkpt>
      <trkpt lat="48.660680959001184" lon="-4.138645995408297">
        <ele>63.579999999999998</ele>
        <time>2018-07-06T07:33:46Z</time>
      </trkpt>
      <trkpt lat="48.660830995067954" lon="-4.140083994716406">
        <ele>65.510000000000005</ele>
        <time>2018-07-06T07:33:53Z</time>
      </trkpt>
      <trkpt lat="48.660794030874968" lon="-4.142530001699925">
        <ele>62.619999999999997</ele>
        <time>2018-07-06T07:34:02Z</time>
      </trkpt>
      <trkpt lat="48.660326991230249" lon="-4.146287022158504">
        <ele>54.93</ele>
        <time>2018-07-06T07:34:15Z</time>
      </trkpt>
      <trkpt lat="48.659357037395239" lon="-4.151455974206328">
        <ele>52.049999999999997</ele>
        <time>2018-07-06T07:34:33Z</time>
      </trkpt>
      <trkpt lat="48.658370990306139" lon="-4.155245013535023">
        <ele>52.530000000000001</ele>
        <time>2018-07-06T07:34:47Z</time>
      </trkpt>
      <trkpt lat="48.658245010301471" lon="-4.15652702562511">
        <ele>52.530000000000001</ele>
        <time>2018-07-06T07:34:54Z</time>
      </trkpt>
      <trkpt lat="48.658249033614993" lon="-4.15670296177268">
        <ele>52.530000000000001</ele>
        <time>2018-07-06T07:34:55Z</time>
      </trkpt>
      <trkpt lat="48.658404015004635" lon="-4.158109026029706">
        <ele>48.68</ele>
        <time>2018-07-06T07:35:03Z</time>
      </trkpt>
      <trkpt lat="48.658448019996285" lon="-4.159562028944492">
        <ele>42.439999999999998</ele>
        <time>2018-07-06T07:35:11Z</time>
      </trkpt>
      <trkpt lat="48.658448019996285" lon="-4.159735031425953">
        <ele>41.469999999999999</ele>
        <time>2018-07-06T07:35:12Z</time>
      </trkpt>
      <trkpt lat="48.658448019996285" lon="-4.161293981596828">
        <ele>34.259999999999998</ele>
        <time>2018-07-06T07:35:22Z</time>
      </trkpt>
      <trkpt lat="48.658422036096454" lon="-4.162733992561698">
        <ele>34.259999999999998</ele>
        <time>2018-07-06T07:35:34Z</time>
      </trkpt>
      <trkpt lat="48.658390017226338" lon="-4.164468040689826">
        <ele>34.259999999999998</ele>
        <time>2018-07-06T07:35:46Z</time>
      </trkpt>
      <trkpt lat="48.658369984477758" lon="-4.165276978164911">
        <ele>35.229999999999997</ele>
        <time>2018-07-06T07:35:55Z</time>
      </trkpt>
      <trkpt lat="48.658364033326507" lon="-4.16553296148777">
        <ele>35.710000000000001</ele>
        <time>2018-07-06T07:36:03Z</time>
      </trkpt>
      <trkpt lat="48.658399991691113" lon="-4.166826959699392">
        <ele>35.710000000000001</ele>
        <time>2018-07-06T07:36:13Z</time>
      </trkpt>
      <trkpt lat="48.658425975590944" lon="-4.167727008461952">
        <ele>36.670000000000002</ele>
        <time>2018-07-06T07:36:19Z</time>
      </trkpt>
      <trkpt lat="48.658425975590944" lon="-4.168147025629878">
        <ele>37.630000000000003</ele>
        <time>2018-07-06T07:36:23Z</time>
      </trkpt>
      <trkpt lat="48.658425975590944" lon="-4.168232018128038">
        <ele>37.630000000000003</ele>
        <time>2018-07-06T07:36:24Z</time>
      </trkpt>
      <trkpt lat="48.658425975590944" lon="-4.16830200701952">
        <ele>37.630000000000003</ele>
        <time>2018-07-06T07:36:25Z</time>
      </trkpt>
      <trkpt lat="48.658384988084435" lon="-4.168337965384126">
        <ele>37.630000000000003</ele>
        <time>2018-07-06T07:36:26Z</time>
      </trkpt>
      <trkpt lat="48.658324973657727" lon="-4.168356992304325">
        <ele>37.630000000000003</ele>
        <time>2018-07-06T07:36:27Z</time>
      </trkpt>
      <trkpt lat="48.658250039443374" lon="-4.168380964547396">
        <ele>37.630000000000003</ele>
        <time>2018-07-06T07:36:28Z</time>
      </trkpt>
      <trkpt lat="48.657519975677133" lon="-4.168595038354397">
        <ele>35.710000000000001</ele>
        <time>2018-07-06T07:36:38Z</time>
      </trkpt>
      <trkpt lat="48.656705003231764" lon="-4.168640971183777">
        <ele>34.740000000000002</ele>
        <time>2018-07-06T07:36:48Z</time>
      </trkpt>
      <trkpt lat="48.656090022996068" lon="-4.168706014752388">
        <ele>34.740000000000002</ele>
        <time>2018-07-06T07:36:54Z</time>
      </trkpt>
      <trkpt lat="48.65598700940609" lon="-4.1687330044806">
        <ele>34.740000000000002</ele>
        <time>2018-07-06T07:36:55Z</time>
      </trkpt>
      <trkpt lat="48.654491007328033" lon="-4.169147992506623">
        <ele>32.82</ele>
        <time>2018-07-06T07:37:08Z</time>
      </trkpt>
      <trkpt lat="48.653630018234253" lon="-4.169554011896253">
        <ele>33.780000000000001</ele>
        <time>2018-07-06T07:37:15Z</time>
      </trkpt>
      <trkpt lat="48.653509989380836" lon="-4.169642021879554">
        <ele>33.780000000000001</ele>
        <time>2018-07-06T07:37:16Z</time>
      </trkpt>
      <trkpt lat="48.653390966355801" lon="-4.169735983014107">
        <ele>34.259999999999998</ele>
        <time>2018-07-06T07:37:17Z</time>
      </trkpt>
      <trkpt lat="48.653285019099712" lon="-4.169864980503917">
        <ele>34.740000000000002</ele>
        <time>2018-07-06T07:37:18Z</time>
      </trkpt>
      <trkpt lat="48.653175970539451" lon="-4.169998001307249">
        <ele>34.740000000000002</ele>
        <time>2018-07-06T07:37:19Z</time>
      </trkpt>
      <trkpt lat="48.653077986091375" lon="-4.170137979090214">
        <ele>35.229999999999997</ele>
        <time>2018-07-06T07:37:20Z</time>
      </trkpt>
      <trkpt lat="48.652997016906738" lon="-4.1703010071069">
        <ele>35.229999999999997</ele>
        <time>2018-07-06T07:37:21Z</time>
      </trkpt>
      <trkpt lat="48.652915041893721" lon="-4.170464035123587">
        <ele>35.229999999999997</ele>
        <time>2018-07-06T07:37:22Z</time>
      </trkpt>
      <trkpt lat="48.652843041345477" lon="-4.170631002634764">
        <ele>35.229999999999997</ele>
        <time>2018-07-06T07:37:23Z</time>
      </trkpt>
      <trkpt lat="48.652779003605247" lon="-4.170812973752618">
        <ele>34.740000000000002</ele>
        <time>2018-07-06T07:37:24Z</time>
      </trkpt>
      <trkpt lat="48.652717983350158" lon="-4.17098798789084">
        <ele>34.740000000000002</ele>
        <time>2018-07-06T07:37:25Z</time>
      </trkpt>
      <trkpt lat="48.652681019157171" lon="-4.171182028949261">
        <ele>34.259999999999998</ele>
        <time>2018-07-06T07:37:26Z</time>
      </trkpt>
      <trkpt lat="48.652611030265689" lon="-4.171543037518859">
        <ele>33.780000000000001</ele>
        <time>2018-07-06T07:37:28Z</time>
      </trkpt>
      <trkpt lat="48.652611030265689" lon="-4.171748980879784">
        <ele>33.780000000000001</ele>
        <time>2018-07-06T07:37:29Z</time>
      </trkpt>
      <trkpt lat="48.652611030265689" lon="-4.172929991036654">
        <ele>32.82</ele>
        <time>2018-07-06T07:37:37Z</time>
      </trkpt>
      <trkpt lat="48.652611030265689" lon="-4.173224028199911">
        <ele>30.899999999999999</ele>
        <time>2018-07-06T07:37:43Z</time>
      </trkpt>
      <trkpt lat="48.652612036094069" lon="-4.173324024304748">
        <ele>30.899999999999999</ele>
        <time>2018-07-06T07:37:46Z</time>
      </trkpt>
      <trkpt lat="48.652637014165521" lon="-4.174132039770484">
        <ele>30.420000000000002</ele>
        <time>2018-07-06T07:37:53Z</time>
      </trkpt>
      <trkpt lat="48.652779003605247" lon="-4.17545797303319">
        <ele>28.98</ele>
        <time>2018-07-06T07:38:02Z</time>
      </trkpt>
      <trkpt lat="48.652814039960504" lon="-4.175618989393115">
        <ele>28.5</ele>
        <time>2018-07-06T07:38:03Z</time>
      </trkpt>
      <trkpt lat="48.652877993881702" lon="-4.175757961347699">
        <ele>28.5</ele>
        <time>2018-07-06T07:38:04Z</time>
      </trkpt>
      <trkpt lat="48.652943959459662" lon="-4.175899028778076">
        <ele>28.02</ele>
        <time>2018-07-06T07:38:05Z</time>
      </trkpt>
      <trkpt lat="48.653010008856654" lon="-4.176041018217802">
        <ele>27.530000000000001</ele>
        <time>2018-07-06T07:38:06Z</time>
      </trkpt>
      <trkpt lat="48.653083015233278" lon="-4.176199017092586">
        <ele>27.530000000000001</ele>
        <time>2018-07-06T07:38:07Z</time>
      </trkpt>
      <trkpt lat="48.653993038460612" lon="-4.177891993895173">
        <ele>23.210000000000001</ele>
        <time>2018-07-06T07:38:19Z</time>
      </trkpt>
      <trkpt lat="48.654044000431895" lon="-4.178069019690156">
        <ele>23.210000000000001</ele>
        <time>2018-07-06T07:38:20Z</time>
      </trkpt>
      <trkpt lat="48.654093034565449" lon="-4.178253002464771">
        <ele>22.73</ele>
        <time>2018-07-06T07:38:21Z</time>
      </trkpt>
      <trkpt lat="48.654104014858603" lon="-4.178448971360922">
        <ele>22.73</ele>
        <time>2018-07-06T07:38:22Z</time>
      </trkpt>
      <trkpt lat="48.654114995151758" lon="-4.178646029904485">
        <ele>22.73</ele>
        <time>2018-07-06T07:38:23Z</time>
      </trkpt>
      <trkpt lat="48.654126981273293" lon="-4.178846022114158">
        <ele>22.25</ele>
        <time>2018-07-06T07:38:24Z</time>
      </trkpt>
      <trkpt lat="48.654128992930055" lon="-4.179047020152211">
        <ele>22.25</ele>
        <time>2018-07-06T07:38:25Z</time>
      </trkpt>
      <trkpt lat="48.653811989352107" lon="-4.181310972198844">
        <ele>18.879999999999999</ele>
        <time>2018-07-06T07:38:36Z</time>
      </trkpt>
      <trkpt lat="48.653167001903057" lon="-4.183379039168358">
        <ele>13.6</ele>
        <time>2018-07-06T07:38:48Z</time>
      </trkpt>
      <trkpt lat="48.652138039469719" lon="-4.185079978778958">
        <ele>8.310000000000001</ele>
        <time>2018-07-06T07:39:00Z</time>
      </trkpt>
      <trkpt lat="48.651697989553213" lon="-4.185981033369899">
        <ele>4.94</ele>
        <time>2018-07-06T07:39:08Z</time>
      </trkpt>
      <trkpt lat="48.651686003431678" lon="-4.186111036688089">
        <ele>5.42</ele>
        <time>2018-07-06T07:39:09Z</time>
      </trkpt>
      <trkpt lat="48.651679968461394" lon="-4.186257971450687">
        <ele>5.42</ele>
        <time>2018-07-06T07:39:10Z</time>
      </trkpt>
      <trkpt lat="48.651675023138523" lon="-4.186418987810612">
        <ele>5.42</ele>
        <time>2018-07-06T07:39:11Z</time>
      </trkpt>
      <trkpt lat="48.65166898816824" lon="-4.186586039140821">
        <ele>5.42</ele>
        <time>2018-07-06T07:39:12Z</time>
      </trkpt>
      <trkpt lat="48.65168902091682" lon="-4.186750994995236">
        <ele>5.42</ele>
        <time>2018-07-06T07:39:13Z</time>
      </trkpt>
      <trkpt lat="48.651721039786935" lon="-4.186930032446981">
        <ele>4.94</ele>
        <time>2018-07-06T07:39:14Z</time>
      </trkpt>
      <trkpt lat="48.652166035026312" lon="-4.189101029187441">
        <ele>2.06</ele>
        <time>2018-07-06T07:39:25Z</time>
      </trkpt>
      <trkpt lat="48.652477003633976" lon="-4.191093994304538">
        <ele>5.42</ele>
        <time>2018-07-06T07:39:35Z</time>
      </trkpt>
      <trkpt lat="48.652538023889065" lon="-4.191386019811034">
        <ele>5.42</ele>
        <time>2018-07-06T07:39:37Z</time>
      </trkpt>
      <trkpt lat="48.652566019445658" lon="-4.191513005644083">
        <ele>5.42</ele>
        <time>2018-07-06T07:39:38Z</time>
      </trkpt>
      <trkpt lat="48.652590997517109" lon="-4.191629011183977">
        <ele>5.42</ele>
        <time>2018-07-06T07:39:39Z</time>
      </trkpt>
      <trkpt lat="48.652612958103418" lon="-4.191732024773955">
        <ele>5.42</ele>
        <time>2018-07-06T07:39:40Z</time>
      </trkpt>
      <trkpt lat="48.652761988341808" lon="-4.191821040585637">
        <ele>5.42</ele>
        <time>2018-07-06T07:39:41Z</time>
      </trkpt>
      <trkpt lat="48.65276500582695" lon="-4.191825985908508">
        <ele>5.42</ele>
        <time>2018-07-06T07:39:42Z</time>
      </trkpt>
      <trkpt lat="48.65280800499022" lon="-4.19189396314323">
        <ele>5.42</ele>
        <time>2018-07-06T07:39:43Z</time>
      </trkpt>
      <trkpt lat="48.652863996103406" lon="-4.192026983946562">
        <ele>5.91</ele>
        <time>2018-07-06T07:39:44Z</time>
      </trkpt>
      <trkpt lat="48.652852009981871" lon="-4.192126980051398">
        <ele>5.91</ele>
        <time>2018-07-06T07:39:45Z</time>
      </trkpt>
      <trkpt lat="48.652812028303742" lon="-4.19223602861166">
        <ele>5.91</ele>
        <time>2018-07-06T07:39:46Z</time>
      </trkpt>
      <trkpt lat="48.652783026918769" lon="-4.192293025553227">
        <ele>5.91</ele>
        <time>2018-07-06T07:39:47Z</time>
      </trkpt>
      <trkpt lat="48.652686970308423" lon="-4.192330995574594">
        <ele>5.42</ele>
        <time>2018-07-06T07:39:48Z</time>
      </trkpt>
      <trkpt lat="48.652675990015268" lon="-4.192336024716497">
        <ele>5.42</ele>
        <time>2018-07-06T07:39:49Z</time>
      </trkpt>
      <trkpt lat="48.65250600501895" lon="-4.192399978637695">
        <ele>5.42</ele>
        <time>2018-07-06T07:39:50Z</time>
      </trkpt>
      <trkpt lat="48.652455965057015" lon="-4.192505003884435">
        <ele>5.42</ele>
        <time>2018-07-06T07:39:51Z</time>
      </trkpt>
      <trkpt lat="48.652401985600591" lon="-4.192617991939187">
        <ele>5.42</ele>
        <time>2018-07-06T07:39:52Z</time>
      </trkpt>
      <trkpt lat="48.652343982830644" lon="-4.192738020792604">
        <ele>5.42</ele>
        <time>2018-07-06T07:39:53Z</time>
      </trkpt>
      <trkpt lat="48.652282040566206" lon="-4.192871041595936">
        <ele>5.42</ele>
        <time>2018-07-06T07:39:54Z</time>
      </trkpt>
      <trkpt lat="48.651784993708134" lon="-4.194381963461638">
        <ele>5.91</ele>
        <time>2018-07-06T07:40:03Z</time>
      </trkpt>
      <trkpt lat="48.651740988716483" lon="-4.194569969549775">
        <ele>5.91</ele>
        <time>2018-07-06T07:40:04Z</time>
      </trkpt>
      <trkpt lat="48.651747023686767" lon="-4.194787982851267">
        <ele>5.91</ele>
        <time>2018-07-06T07:40:05Z</time>
      </trkpt>
      <trkpt lat="48.651763033121824" lon="-4.194984035566449">
        <ele>5.91</ele>
        <time>2018-07-06T07:40:06Z</time>
      </trkpt>
      <trkpt lat="48.651779964566231" lon="-4.195185033604503">
        <ele>5.91</ele>
        <time>2018-07-06T07:40:07Z</time>
      </trkpt>
      <trkpt lat="48.651796979829669" lon="-4.195386031642556">
        <ele>5.42</ele>
        <time>2018-07-06T07:40:08Z</time>
      </trkpt>
      <trkpt lat="48.652157988399267" lon="-4.197631040588021">
        <ele>5.42</ele>
        <time>2018-07-06T07:40:18Z</time>
      </trkpt>
      <trkpt lat="48.652296960353851" lon="-4.198397984728217">
        <ele>5.91</ele>
        <time>2018-07-06T07:40:21Z</time>
      </trkpt>
      <trkpt lat="48.652302995324135" lon="-4.198666960000992">
        <ele>5.91</ele>
        <time>2018-07-06T07:40:22Z</time>
      </trkpt>
      <trkpt lat="48.652293020859361" lon="-4.198925960808992">
        <ele>5.91</ele>
        <time>2018-07-06T07:40:23Z</time>
      </trkpt>
      <trkpt lat="48.652247004210949" lon="-4.199170963838697">
        <ele>5.91</ele>
        <time>2018-07-06T07:40:24Z</time>
      </trkpt>
      <trkpt lat="48.652182966470718" lon="-4.19941202737391">
        <ele>5.91</ele>
        <time>2018-07-06T07:40:25Z</time>
      </trkpt>
      <trkpt lat="48.65211901254952" lon="-4.199657030403614">
        <ele>5.91</ele>
        <time>2018-07-06T07:40:26Z</time>
      </trkpt>
      <trkpt lat="48.65117303095758" lon="-4.203089000657201">
        <ele>5.91</ele>
        <time>2018-07-06T07:40:39Z</time>
      </trkpt>
      <trkpt lat="48.650429975241423" lon="-4.205552022904158">
        <ele>5.91</ele>
        <time>2018-07-06T07:40:48Z</time>
      </trkpt>
      <trkpt lat="48.650119006633759" lon="-4.20818000100553">
        <ele>5.91</ele>
        <time>2018-07-06T07:40:57Z</time>
      </trkpt>
      <trkpt lat="48.649568986147642" lon="-4.210977964103222">
        <ele>7.35</ele>
        <time>2018-07-06T07:41:07Z</time>
      </trkpt>
      <trkpt lat="48.649158021435142" lon="-4.212504979223013">
        <ele>7.83</ele>
        <time>2018-07-06T07:41:15Z</time>
      </trkpt>
      <trkpt lat="48.648482020944357" lon="-4.214053032919765">
        <ele>9.27</ele>
        <time>2018-07-06T07:41:26Z</time>
      </trkpt>
      <trkpt lat="48.647336969152093" lon="-4.216285971924663">
        <ele>13.6</ele>
        <time>2018-07-06T07:41:41Z</time>
      </trkpt>
      <trkpt lat="48.647291036322713" lon="-4.21647297218442">
        <ele>13.6</ele>
        <time>2018-07-06T07:41:42Z</time>
      </trkpt>
      <trkpt lat="48.647232027724385" lon="-4.21683699823916">
        <ele>14.56</ele>
        <time>2018-07-06T07:41:44Z</time>
      </trkpt>
      <trkpt lat="48.647204032167792" lon="-4.217031039297581">
        <ele>14.56</ele>
        <time>2018-07-06T07:41:45Z</time>
      </trkpt>
      <trkpt lat="48.647204032167792" lon="-4.217222984880209">
        <ele>14.56</ele>
        <time>2018-07-06T07:41:46Z</time>
      </trkpt>
      <trkpt lat="48.647204032167792" lon="-4.21741995960474">
        <ele>14.08</ele>
        <time>2018-07-06T07:41:47Z</time>
      </trkpt>
      <trkpt lat="48.647215012460947" lon="-4.2176119890064">
        <ele>14.56</ele>
        <time>2018-07-06T07:41:48Z</time>
      </trkpt>
      <trkpt lat="48.647236973047256" lon="-4.217793038114905">
        <ele>14.56</ele>
        <time>2018-07-06T07:41:49Z</time>
      </trkpt>
      <trkpt lat="48.647266980260611" lon="-4.217962017282844">
        <ele>14.56</ele>
        <time>2018-07-06T07:41:50Z</time>
      </trkpt>
      <trkpt lat="48.64730603992939" lon="-4.218135019764304">
        <ele>14.56</ele>
        <time>2018-07-06T07:41:51Z</time>
      </trkpt>
      <trkpt lat="48.647350966930389" lon="-4.218309028074145">
        <ele>14.56</ele>
        <time>2018-07-06T07:41:52Z</time>
      </trkpt>
      <trkpt lat="48.647413998842239" lon="-4.218486975878477">
        <ele>14.56</ele>
        <time>2018-07-06T07:41:53Z</time>
      </trkpt>
      <trkpt lat="48.647979022935033" lon="-4.220391009002924">
        <ele>12.630000000000001</ele>
        <time>2018-07-06T07:42:03Z</time>
      </trkpt>
      <trkpt lat="48.648062003776431" lon="-4.223186038434506">
        <ele>10.710000000000001</ele>
        <time>2018-07-06T07:42:15Z</time>
      </trkpt>
      <trkpt lat="48.647939963266253" lon="-4.225959023460746">
        <ele>10.710000000000001</ele>
        <time>2018-07-06T07:42:26Z</time>
      </trkpt>
      <trkpt lat="48.647776013240218" lon="-4.228484993800521">
        <ele>12.15</ele>
        <time>2018-07-06T07:42:35Z</time>
      </trkpt>
      <trkpt lat="48.6473089735955" lon="-4.231553021818399">
        <ele>12.15</ele>
        <time>2018-07-06T07:42:47Z</time>
      </trkpt>
      <trkpt lat="48.646700028330088" lon="-4.234030963853002">
        <ele>10.710000000000001</ele>
        <time>2018-07-06T07:42:57Z</time>
      </trkpt>
      <trkpt lat="48.645873991772532" lon="-4.237325973808765">
        <ele>9.75</ele>
        <time>2018-07-06T07:43:09Z</time>
      </trkpt>
      <trkpt lat="48.645387003198266" lon="-4.239223971962929">
        <ele>9.75</ele>
        <time>2018-07-06T07:43:16Z</time>
      </trkpt>
      <trkpt lat="48.644918035715818" lon="-4.241053992882371">
        <ele>8.789999999999999</ele>
        <time>2018-07-06T07:43:24Z</time>
      </trkpt>
      <trkpt lat="48.644882999360561" lon="-4.241187013685703">
        <ele>8.789999999999999</ele>
        <time>2018-07-06T07:43:25Z</time>
      </trkpt>
      <trkpt lat="48.644820973277092" lon="-4.241426987573504">
        <ele>8.789999999999999</ele>
        <time>2018-07-06T07:43:27Z</time>
      </trkpt>
      <trkpt lat="48.644792977720499" lon="-4.241531006991863">
        <ele>8.789999999999999</ele>
        <time>2018-07-06T07:43:28Z</time>
      </trkpt>
      <trkpt lat="48.644507993012667" lon="-4.242687961086631">
        <ele>8.310000000000001</ele>
        <time>2018-07-06T07:43:38Z</time>
      </trkpt>
      <trkpt lat="48.644128041341901" lon="-4.244400970637798">
        <ele>8.789999999999999</ele>
        <time>2018-07-06T07:43:46Z</time>
      </trkpt>
      <trkpt lat="48.643579026684165" lon="-4.246915960684419">
        <ele>12.630000000000001</ele>
        <time>2018-07-06T07:43:56Z</time>
      </trkpt>
      <trkpt lat="48.643144005909562" lon="-4.249208997935057">
        <ele>14.56</ele>
        <time>2018-07-06T07:44:05Z</time>
      </trkpt>
      <trkpt lat="48.642824990674853" lon="-4.251538999378681">
        <ele>14.56</ele>
        <time>2018-07-06T07:44:14Z</time>
      </trkpt>
      <trkpt lat="48.642548974603415" lon="-4.253657022491098">
        <ele>18.879999999999999</ele>
        <time>2018-07-06T07:44:22Z</time>
      </trkpt>
      <trkpt lat="48.642269019037485" lon="-4.25574503839016">
        <ele>23.210000000000001</ele>
        <time>2018-07-06T07:44:30Z</time>
      </trkpt>
      <trkpt lat="48.641840033233166" lon="-4.258639980107546">
        <ele>24.649999999999999</ele>
        <time>2018-07-06T07:44:41Z</time>
      </trkpt>
      <trkpt lat="48.64142001606524" lon="-4.261503992602229">
        <ele>24.170000000000002</ele>
        <time>2018-07-06T07:44:52Z</time>
      </trkpt>
      <trkpt lat="48.641173001378775" lon="-4.263185989111662">
        <ele>24.170000000000002</ele>
        <time>2018-07-06T07:44:59Z</time>
      </trkpt>
      <trkpt lat="48.640999998897314" lon="-4.264261974021792">
        <ele>21.77</ele>
        <time>2018-07-06T07:45:07Z</time>
      </trkpt>
      <trkpt lat="48.640917018055916" lon="-4.264820041134954">
        <ele>20.809999999999999</ele>
        <time>2018-07-06T07:45:12Z</time>
      </trkpt>
      <trkpt lat="48.640896985307336" lon="-4.264928000047803">
        <ele>20.809999999999999</ele>
        <time>2018-07-06T07:45:13Z</time>
      </trkpt>
      <trkpt lat="48.640877036377788" lon="-4.265036964789033">
        <ele>20.32</ele>
        <time>2018-07-06T07:45:14Z</time>
      </trkpt>
      <trkpt lat="48.640838982537389" lon="-4.265300994738936">
        <ele>19.84</ele>
        <time>2018-07-06T07:45:16Z</time>
      </trkpt>
      <trkpt lat="48.640578975901008" lon="-4.266994977369905">
        <ele>16</ele>
        <time>2018-07-06T07:45:26Z</time>
      </trkpt>
      <trkpt lat="48.640228025615215" lon="-4.269259013235569">
        <ele>15.039999999999999</ele>
        <time>2018-07-06T07:45:36Z</time>
      </trkpt>
      <trkpt lat="48.639787975698709" lon="-4.272644966840744">
        <ele>15.039999999999999</ele>
        <time>2018-07-06T07:45:49Z</time>
      </trkpt>
      <trkpt lat="48.639221023768187" lon="-4.275994962081313">
        <ele>13.6</ele>
        <time>2018-07-06T07:46:02Z</time>
      </trkpt>
      <trkpt lat="48.638436980545521" lon="-4.278960982337594">
        <ele>12.15</ele>
        <time>2018-07-06T07:46:14Z</time>
      </trkpt>
      <trkpt lat="48.637169972062111" lon="-4.282796960324049">
        <ele>8.310000000000001</ele>
        <time>2018-07-06T07:46:30Z</time>
      </trkpt>
      <trkpt lat="48.636356005445123" lon="-4.285231987014413">
        <ele>7.35</ele>
        <time>2018-07-06T07:46:40Z</time>
      </trkpt>
      <trkpt lat="48.634826978668571" lon="-4.289873968809843">
        <ele>7.83</ele>
        <time>2018-07-06T07:46:57Z</time>
      </trkpt>
      <trkpt lat="48.633935982361436" lon="-4.292243029922247">
        <ele>7.35</ele>
        <time>2018-07-06T07:47:06Z</time>
      </trkpt>
      <trkpt lat="48.632279969751835" lon="-4.294897997751832">
        <ele>8.310000000000001</ele>
        <time>2018-07-06T07:47:18Z</time>
      </trkpt>
      <trkpt lat="48.631333988159895" lon="-4.29598898626864">
        <ele>10.710000000000001</ele>
        <time>2018-07-06T07:47:25Z</time>
      </trkpt>
      <trkpt lat="48.630450032651424" lon="-4.297306034713984">
        <ele>11.19</ele>
        <time>2018-07-06T07:47:35Z</time>
      </trkpt>
      <trkpt lat="48.630039989948273" lon="-4.298684019595385">
        <ele>12.15</ele>
        <time>2018-07-06T07:47:45Z</time>
      </trkpt>
      <trkpt lat="48.629953991621733" lon="-4.298964980989695">
        <ele>12.15</ele>
        <time>2018-07-06T07:47:48Z</time>
      </trkpt>
      <trkpt lat="48.629929013550282" lon="-4.299044022336602">
        <ele>12.630000000000001</ele>
        <time>2018-07-06T07:47:49Z</time>
      </trkpt>
      <trkpt lat="48.629910992458463" lon="-4.299116022884846">
        <ele>12.630000000000001</ele>
        <time>2018-07-06T07:47:50Z</time>
      </trkpt>
      <trkpt lat="48.629935970529914" lon="-4.29919003508985">
        <ele>12.630000000000001</ele>
        <time>2018-07-06T07:47:51Z</time>
      </trkpt>
      <trkpt lat="48.62996899522841" lon="-4.299258012324572">
        <ele>13.119999999999999</ele>
        <time>2018-07-06T07:47:52Z</time>
      </trkpt>
      <trkpt lat="48.630021968856454" lon="-4.299320038408041">
        <ele>13.119999999999999</ele>
        <time>2018-07-06T07:47:53Z</time>
      </trkpt>
      <trkpt lat="48.630080977454782" lon="-4.299388015642762">
        <ele>13.119999999999999</ele>
        <time>2018-07-06T07:47:54Z</time>
      </trkpt>
      <trkpt lat="48.63016203045845" lon="-4.299417017027736">
        <ele>13.6</ele>
        <time>2018-07-06T07:47:55Z</time>
      </trkpt>
      <trkpt lat="48.630255991593003" lon="-4.29945096373558">
        <ele>13.6</ele>
        <time>2018-07-06T07:47:56Z</time>
      </trkpt>
      <trkpt lat="48.630357999354601" lon="-4.299487005919218">
        <ele>13.6</ele>
        <time>2018-07-06T07:47:57Z</time>
      </trkpt>
      <trkpt lat="48.631300963461399" lon="-4.299776013940573">
        <ele>13.119999999999999</ele>
        <time>2018-07-06T07:48:05Z</time>
      </trkpt>
      <trkpt lat="48.631424009799957" lon="-4.299863018095493">
        <ele>13.119999999999999</ele>
        <time>2018-07-06T07:48:06Z</time>
      </trkpt>
      <trkpt lat="48.631550995633006" lon="-4.299951028078795">
        <ele>12.630000000000001</ele>
        <time>2018-07-06T07:48:07Z</time>
      </trkpt>
      <trkpt lat="48.6316670011729" lon="-4.300080025568605">
        <ele>12.630000000000001</ele>
        <time>2018-07-06T07:48:08Z</time>
      </trkpt>
      <trkpt lat="48.631774038076401" lon="-4.300235006958246">
        <ele>12.630000000000001</ele>
        <time>2018-07-06T07:48:09Z</time>
      </trkpt>
      <trkpt lat="48.631870010867715" lon="-4.300409015268087">
        <ele>12.630000000000001</ele>
        <time>2018-07-06T07:48:10Z</time>
      </trkpt>
      <trkpt lat="48.631947040557861" lon="-4.30060900747776">
        <ele>12.15</ele>
        <time>2018-07-06T07:48:11Z</time>
      </trkpt>
      <trkpt lat="48.632025998085737" lon="-4.300814028829336">
        <ele>12.15</ele>
        <time>2018-07-06T07:48:12Z</time>
      </trkpt>
      <trkpt lat="48.632076038047671" lon="-4.30103899911046">
        <ele>12.15</ele>
        <time>2018-07-06T07:48:13Z</time>
      </trkpt>
      <trkpt lat="48.632110990583897" lon="-4.301282996311784">
        <ele>12.15</ele>
        <time>2018-07-06T07:48:14Z</time>
      </trkpt>
      <trkpt lat="48.632142003625631" lon="-4.30153101682663">
        <ele>11.67</ele>
        <time>2018-07-06T07:48:15Z</time>
      </trkpt>
      <trkpt lat="48.632151978090405" lon="-4.301788005977869">
        <ele>11.67</ele>
        <time>2018-07-06T07:48:16Z</time>
      </trkpt>
      <trkpt lat="48.63235398195684" lon="-4.30475695990026">
        <ele>10.710000000000001</ele>
        <time>2018-07-06T07:48:27Z</time>
      </trkpt>
      <trkpt lat="48.632554979994893" lon="-4.307626001536846">
        <ele>10.710000000000001</ele>
        <time>2018-07-06T07:48:37Z</time>
      </trkpt>
      <trkpt lat="48.632508963346481" lon="-4.308197982609272">
        <ele>10.23</ele>
        <time>2018-07-06T07:48:39Z</time>
      </trkpt>
      <trkpt lat="48.632469987496734" lon="-4.308477016165853">
        <ele>10.23</ele>
        <time>2018-07-06T07:48:40Z</time>
      </trkpt>
      <trkpt lat="48.63239798694849" lon="-4.308765018358827">
        <ele>10.23</ele>
        <time>2018-07-06T07:48:41Z</time>
      </trkpt>
      <trkpt lat="48.631969001144171" lon="-4.310260014608502">
        <ele>10.710000000000001</ele>
        <time>2018-07-06T07:48:48Z</time>
      </trkpt>
      <trkpt lat="48.63186196424067" lon="-4.310682965442538">
        <ele>11.19</ele>
        <time>2018-07-06T07:48:50Z</time>
      </trkpt>
      <trkpt lat="48.63186196424067" lon="-4.310898967087269">
        <ele>11.19</ele>
        <time>2018-07-06T07:48:51Z</time>
      </trkpt>
      <trkpt lat="48.63186196424067" lon="-4.311118992045522">
        <ele>11.19</ele>
        <time>2018-07-06T07:48:52Z</time>
      </trkpt>
      <trkpt lat="48.63186196424067" lon="-4.311343040317297">
        <ele>11.19</ele>
        <time>2018-07-06T07:48:53Z</time>
      </trkpt>
      <trkpt lat="48.631873028352857" lon="-4.31156599894166">
        <ele>11.67</ele>
        <time>2018-07-06T07:48:54Z</time>
      </trkpt>
      <trkpt lat="48.631906975060701" lon="-4.311784012243152">
        <ele>11.67</ele>
        <time>2018-07-06T07:48:55Z</time>
      </trkpt>
      <trkpt lat="48.632201012223959" lon="-4.313534991815686">
        <ele>14.08</ele>
        <time>2018-07-06T07:49:04Z</time>
      </trkpt>
      <trkpt lat="48.632226996123791" lon="-4.313678992912173">
        <ele>14.08</ele>
        <time>2018-07-06T07:49:05Z</time>
      </trkpt>
      <trkpt lat="48.63239798694849" lon="-4.313786029815674">
        <ele>14.08</ele>
        <time>2018-07-06T07:49:06Z</time>
      </trkpt>
      <trkpt lat="48.632403016090393" lon="-4.313788963481784">
        <ele>14.56</ele>
        <time>2018-07-06T07:49:07Z</time>
      </trkpt>
      <trkpt lat="48.632477028295398" lon="-4.313837997615337">
        <ele>14.56</ele>
        <time>2018-07-06T07:49:08Z</time>
      </trkpt>
      <trkpt lat="48.6325460113585" lon="-4.313968000933528">
        <ele>15.039999999999999</ele>
        <time>2018-07-06T07:49:09Z</time>
      </trkpt>
      <trkpt lat="48.632565038278699" lon="-4.314063973724842">
        <ele>15.039999999999999</ele>
        <time>2018-07-06T07:49:10Z</time>
      </trkpt>
      <trkpt lat="48.632551962509751" lon="-4.314190959557891">
        <ele>15.52</ele>
        <time>2018-07-06T07:49:11Z</time>
      </trkpt>
      <trkpt lat="48.63248297944665" lon="-4.314280981197953">
        <ele>15.52</ele>
        <time>2018-07-06T07:49:12Z</time>
      </trkpt>
      <trkpt lat="48.632424976676702" lon="-4.31433797813952">
        <ele>15.52</ele>
        <time>2018-07-06T07:49:13Z</time>
      </trkpt>
      <trkpt lat="48.632369991391897" lon="-4.314421964809299">
        <ele>16</ele>
        <time>2018-07-06T07:49:14Z</time>
      </trkpt>
      <trkpt lat="48.632316011935472" lon="-4.314529001712799">
        <ele>15.52</ele>
        <time>2018-07-06T07:49:15Z</time>
      </trkpt>
      <trkpt lat="48.632280975580215" lon="-4.314663028344512">
        <ele>15.52</ele>
        <time>2018-07-06T07:49:16Z</time>
      </trkpt>
      <trkpt lat="48.632262032479048" lon="-4.314824966713786">
        <ele>15.039999999999999</ele>
        <time>2018-07-06T07:49:17Z</time>
      </trkpt>
      <trkpt lat="48.632250968366861" lon="-4.314998975023627">
        <ele>15.039999999999999</ele>
        <time>2018-07-06T07:49:18Z</time>
      </trkpt>
      <trkpt lat="48.632260020822287" lon="-4.315192010253668">
        <ele>15.039999999999999</ele>
        <time>2018-07-06T07:49:19Z</time>
      </trkpt>
      <trkpt lat="48.632425982505083" lon="-4.317254964262247">
        <ele>15.52</ele>
        <time>2018-07-06T07:49:28Z</time>
      </trkpt>
      <trkpt lat="48.632620023563504" lon="-4.317996008321643">
        <ele>16</ele>
        <time>2018-07-06T07:49:31Z</time>
      </trkpt>
      <trkpt lat="48.632709039375186" lon="-4.318234976381064">
        <ele>15.52</ele>
        <time>2018-07-06T07:49:32Z</time>
      </trkpt>
      <trkpt lat="48.633885020390153" lon="-4.321001004427671">
        <ele>14.08</ele>
        <time>2018-07-06T07:49:43Z</time>
      </trkpt>
      <trkpt lat="48.635444976389408" lon="-4.324578987434506">
        <ele>12.630000000000001</ele>
        <time>2018-07-06T07:49:57Z</time>
      </trkpt>
      <trkpt lat="48.636407973244786" lon="-4.326783008873463">
        <ele>13.6</ele>
        <time>2018-07-06T07:50:07Z</time>
      </trkpt>
      <trkpt lat="48.637014990672469" lon="-4.32780995965004">
        <ele>15.039999999999999</ele>
        <time>2018-07-06T07:50:14Z</time>
      </trkpt>
      <trkpt lat="48.63723199814558" lon="-4.3282609898597">
        <ele>15.52</ele>
        <time>2018-07-06T07:50:18Z</time>
      </trkpt>
      <trkpt lat="48.637268962338567" lon="-4.328385964035988">
        <ele>15.52</ele>
        <time>2018-07-06T07:50:19Z</time>
      </trkpt>
      <trkpt lat="48.637249013409019" lon="-4.328498030081391">
        <ele>16</ele>
        <time>2018-07-06T07:50:20Z</time>
      </trkpt>
      <trkpt lat="48.637250019237399" lon="-4.328615041449666">
        <ele>15.52</ele>
        <time>2018-07-06T07:50:21Z</time>
      </trkpt>
      <trkpt lat="48.637284971773624" lon="-4.328709002584219">
        <ele>15.52</ele>
        <time>2018-07-06T07:50:22Z</time>
      </trkpt>
      <trkpt lat="48.637324031442404" lon="-4.328814027830958">
        <ele>16</ele>
        <time>2018-07-06T07:50:23Z</time>
      </trkpt>
      <trkpt lat="48.637375999242067" lon="-4.328957023099065">
        <ele>16</ele>
        <time>2018-07-06T07:50:24Z</time>
      </trkpt>
      <trkpt lat="48.637456968426704" lon="-4.328994993120432">
        <ele>15.52</ele>
        <time>2018-07-06T07:50:25Z</time>
      </trkpt>
      <trkpt lat="48.63755595870316" lon="-4.329042015597224">
        <ele>15.52</ele>
        <time>2018-07-06T07:50:26Z</time>
      </trkpt>
      <trkpt lat="48.637665007263422" lon="-4.329093983396888">
        <ele>15.52</ele>
        <time>2018-07-06T07:50:27Z</time>
      </trkpt>
      <trkpt lat="48.638787008821964" lon="-4.329629000276327">
        <ele>16.48</ele>
        <time>2018-07-06T07:50:35Z</time>
      </trkpt>
      <trkpt lat="48.640547962859273" lon="-4.330632984638214">
        <ele>20.32</ele>
        <time>2018-07-06T07:50:47Z</time>
      </trkpt>
      <trkpt lat="48.64155001938343" lon="-4.332024967297912">
        <ele>19.359999999999999</ele>
        <time>2018-07-06T07:50:55Z</time>
      </trkpt>
      <trkpt lat="48.642889028415084" lon="-4.335219981148839">
        <ele>17.920000000000002</ele>
        <time>2018-07-06T07:51:09Z</time>
      </trkpt>
      <trkpt lat="48.643852025270462" lon="-4.338371995836496">
        <ele>18.399999999999999</ele>
        <time>2018-07-06T07:51:22Z</time>
      </trkpt>
      <trkpt lat="48.644615029916167" lon="-4.342257007956505">
        <ele>19.359999999999999</ele>
        <time>2018-07-06T07:51:37Z</time>
      </trkpt>
      <trkpt lat="48.644560966640711" lon="-4.34443898499012">
        <ele>20.32</ele>
        <time>2018-07-06T07:51:45Z</time>
      </trkpt>
      <trkpt lat="48.644311018288136" lon="-4.347250023856759">
        <ele>22.73</ele>
        <time>2018-07-06T07:51:55Z</time>
      </trkpt>
      <trkpt lat="48.643904998898506" lon="-4.350800011307001">
        <ele>22.73</ele>
        <time>2018-07-06T07:52:08Z</time>
      </trkpt>
      <trkpt lat="48.643492022529244" lon="-4.352755006402731">
        <ele>23.210000000000001</ele>
        <time>2018-07-06T07:52:17Z</time>
      </trkpt>
      <trkpt lat="48.643293958157301" lon="-4.354114970192313">
        <ele>23.210000000000001</ele>
        <time>2018-07-06T07:52:25Z</time>
      </trkpt>
      <trkpt lat="48.643007967621088" lon="-4.356323014944792">
        <ele>20.32</ele>
        <time>2018-07-06T07:52:39Z</time>
      </trkpt>
      <trkpt lat="48.642893973737955" lon="-4.357721032574773">
        <ele>19.84</ele>
        <time>2018-07-06T07:52:47Z</time>
      </trkpt>
      <trkpt lat="48.642894979566336" lon="-4.357892023399472">
        <ele>19.84</ele>
        <time>2018-07-06T07:52:48Z</time>
      </trkpt>
      <trkpt lat="48.643105030059814" lon="-4.360351022332907">
        <ele>18.399999999999999</ele>
        <time>2018-07-06T07:53:03Z</time>
      </trkpt>
      <trkpt lat="48.643193040043116" lon="-4.361280994489789">
        <ele>16.960000000000001</ele>
        <time>2018-07-06T07:53:10Z</time>
      </trkpt>
      <trkpt lat="48.643212988972664" lon="-4.361486015841365">
        <ele>16.960000000000001</ele>
        <time>2018-07-06T07:53:12Z</time>
      </trkpt>
      <trkpt lat="48.643298987299204" lon="-4.361580982804298">
        <ele>16.960000000000001</ele>
        <time>2018-07-06T07:53:13Z</time>
      </trkpt>
      <trkpt lat="48.643262023106217" lon="-4.36169195920229">
        <ele>16.960000000000001</ele>
        <time>2018-07-06T07:53:14Z</time>
      </trkpt>
      <trkpt lat="48.643255988135934" lon="-4.361701011657715">
        <ele>17.440000000000001</ele>
        <time>2018-07-06T07:53:15Z</time>
      </trkpt>
      <trkpt lat="48.643152974545956" lon="-4.361803019419313">
        <ele>17.920000000000002</ele>
        <time>2018-07-06T07:53:16Z</time>
      </trkpt>
      <trkpt lat="48.643126990646124" lon="-4.361873008310795">
        <ele>17.920000000000002</ele>
        <time>2018-07-06T07:53:17Z</time>
      </trkpt>
      <trkpt lat="48.643110981211066" lon="-4.362018015235663">
        <ele>17.920000000000002</ele>
        <time>2018-07-06T07:53:18Z</time>
      </trkpt>
      <trkpt lat="48.643022971227765" lon="-4.362839022651315">
        <ele>16.48</ele>
        <time>2018-07-06T07:53:24Z</time>
      </trkpt>
      <trkpt lat="48.643039986491203" lon="-4.362979000434279">
        <ele>16</ele>
        <time>2018-07-06T07:53:25Z</time>
      </trkpt>
      <trkpt lat="48.643057001754642" lon="-4.363115960732102">
        <ele>15.52</ele>
        <time>2018-07-06T07:53:26Z</time>
      </trkpt>
      <trkpt lat="48.64307401701808" lon="-4.363255016505718">
        <ele>15.039999999999999</ele>
        <time>2018-07-06T07:53:27Z</time>
      </trkpt>
      <trkpt lat="48.643102012574673" lon="-4.363375967368484">
        <ele>15.039999999999999</ele>
        <time>2018-07-06T07:53:28Z</time>
      </trkpt>
      <trkpt lat="48.643193040043116" lon="-4.363604038953781">
        <ele>14.56</ele>
        <time>2018-07-06T07:53:30Z</time>
      </trkpt>
      <trkpt lat="48.643236039206386" lon="-4.36371099203825">
        <ele>15.039999999999999</ele>
        <time>2018-07-06T07:53:31Z</time>
      </trkpt>
      <trkpt lat="48.643281972035766" lon="-4.363793972879648">
        <ele>15.039999999999999</ele>
        <time>2018-07-06T07:53:32Z</time>
      </trkpt>
      <trkpt lat="48.643338968977332" lon="-4.363866979256272">
        <ele>15.52</ele>
        <time>2018-07-06T07:53:33Z</time>
      </trkpt>
      <trkpt lat="48.643394038081169" lon="-4.363936968147755">
        <ele>15.039999999999999</ele>
        <time>2018-07-06T07:53:34Z</time>
      </trkpt>
      <trkpt lat="48.643449023365974" lon="-4.364007040858269">
        <ele>15.039999999999999</ele>
        <time>2018-07-06T07:53:35Z</time>
      </trkpt>
      <trkpt lat="48.643506020307541" lon="-4.364074012264609">
        <ele>15.039999999999999</ele>
        <time>2018-07-06T07:53:36Z</time>
      </trkpt>
      <trkpt lat="48.64356704056263" lon="-4.364126985892654">
        <ele>15.039999999999999</ele>
        <time>2018-07-06T07:53:37Z</time>
      </trkpt>
      <trkpt lat="48.643884966149926" lon="-4.364405013620853">
        <ele>14.56</ele>
        <time>2018-07-06T07:53:42Z</time>
      </trkpt>
      <trkpt lat="48.643946992233396" lon="-4.364458993077278">
        <ele>14.56</ele>
        <time>2018-07-06T07:53:43Z</time>
      </trkpt>
      <trkpt lat="48.644208004698157" lon="-4.364794017747045">
        <ele>15.039999999999999</ele>
        <time>2018-07-06T07:53:48Z</time>
      </trkpt>
      <trkpt lat="48.644229965284467" lon="-4.364856965839863">
        <ele>15.039999999999999</ele>
        <time>2018-07-06T07:53:49Z</time>
      </trkpt>
      <trkpt lat="48.644248992204666" lon="-4.364952016621828">
        <ele>15.039999999999999</ele>
        <time>2018-07-06T07:53:50Z</time>
      </trkpt>
      <trkpt lat="48.644268019124866" lon="-4.365051006898284">
        <ele>15.039999999999999</ele>
        <time>2018-07-06T07:53:51Z</time>
      </trkpt>
      <trkpt lat="48.644286962226033" lon="-4.365147985517979">
        <ele>15.039999999999999</ele>
        <time>2018-07-06T07:53:52Z</time>
      </trkpt>
      <trkpt lat="48.644304983317852" lon="-4.365241024643183">
        <ele>15.039999999999999</ele>
        <time>2018-07-06T07:53:53Z</time>
      </trkpt>
      <trkpt lat="48.64432099275291" lon="-4.365324005484581">
        <ele>15.52</ele>
        <time>2018-07-06T07:53:54Z</time>
      </trkpt>
      <trkpt lat="48.644334990531206" lon="-4.365395000204444">
        <ele>15.52</ele>
        <time>2018-07-06T07:53:55Z</time>
      </trkpt>
      <trkpt lat="48.644465999677777" lon="-4.365936974063516">
        <ele>15.52</ele>
        <time>2018-07-06T07:54:04Z</time>
      </trkpt>
      <trkpt lat="48.644484020769596" lon="-4.365999000146985">
        <ele>15.52</ele>
        <time>2018-07-06T07:54:05Z</time>
      </trkpt>
      <trkpt lat="48.644503969699144" lon="-4.366066977381706">
        <ele>15.52</ele>
        <time>2018-07-06T07:54:06Z</time>
      </trkpt>
      <trkpt lat="48.64459902048111" lon="-4.366385992616415">
        <ele>15.039999999999999</ele>
        <time>2018-07-06T07:54:10Z</time>
      </trkpt>
      <trkpt lat="48.644626010209322" lon="-4.366474002599716">
        <ele>14.56</ele>
        <time>2018-07-06T07:54:11Z</time>
      </trkpt>
      <trkpt lat="48.644651994109154" lon="-4.366565030068159">
        <ele>14.08</ele>
        <time>2018-07-06T07:54:12Z</time>
      </trkpt>
      <trkpt lat="48.644990036264062" lon="-4.367670016363263">
        <ele>12.630000000000001</ele>
        <time>2018-07-06T07:54:23Z</time>
      </trkpt>
      <trkpt lat="48.645076034590602" lon="-4.367923988029361">
        <ele>12.630000000000001</ele>
        <time>2018-07-06T07:54:26Z</time>
      </trkpt>
      <trkpt lat="48.645195979624987" lon="-4.368345011025667">
        <ele>12.15</ele>
        <time>2018-07-06T07:54:31Z</time>
      </trkpt>
      <trkpt lat="48.645216012373567" lon="-4.368424974381924">
        <ele>12.15</ele>
        <time>2018-07-06T07:54:32Z</time>
      </trkpt>
      <trkpt lat="48.645234033465385" lon="-4.368496974930167">
        <ele>12.15</ele>
        <time>2018-07-06T07:54:33Z</time>
      </trkpt>
      <trkpt lat="48.645249037072062" lon="-4.368560006842017">
        <ele>11.67</ele>
        <time>2018-07-06T07:54:34Z</time>
      </trkpt>
      <trkpt lat="48.645263034850359" lon="-4.368611974641681">
        <ele>12.15</ele>
        <time>2018-07-06T07:54:35Z</time>
      </trkpt>
      <trkpt lat="48.645273009315133" lon="-4.36865296214819">
        <ele>12.15</ele>
        <time>2018-07-06T07:54:36Z</time>
      </trkpt>
      <trkpt lat="48.64546000957489" lon="-4.368712976574898">
        <ele>12.630000000000001</ele>
        <time>2018-07-06T07:54:44Z</time>
      </trkpt>
      <trkpt lat="48.645543996244669" lon="-4.368549026548863">
        <ele>13.119999999999999</ele>
        <time>2018-07-06T07:54:48Z</time>
      </trkpt>
      <trkpt lat="48.645562017336488" lon="-4.368508961051703">
        <ele>13.119999999999999</ele>
        <time>2018-07-06T07:54:49Z</time>
      </trkpt>
      <trkpt lat="48.645572997629642" lon="-4.368484988808632">
        <ele>13.6</ele>
        <time>2018-07-06T07:54:50Z</time>
      </trkpt>
      <trkpt lat="48.645677017048001" lon="-4.368537040427327">
        <ele>13.6</ele>
        <time>2018-07-06T07:54:52Z</time>
      </trkpt>
      <trkpt lat="48.645920008420944" lon="-4.368686992675066">
        <ele>13.6</ele>
        <time>2018-07-06T07:55:00Z</time>
      </trkpt>
      <trkpt lat="48.645913973450661" lon="-4.368796963244677">
        <ele>13.6</ele>
        <time>2018-07-06T07:55:03Z</time>
      </trkpt>
      <trkpt lat="48.645858988165855" lon="-4.368970971554518">
        <ele>12.630000000000001</ele>
        <time>2018-07-06T07:55:09Z</time>
      </trkpt>
      <trkpt lat="48.645810959860682" lon="-4.369088988751173">
        <ele>12.15</ele>
        <time>2018-07-06T07:55:13Z</time>
      </trkpt>
      <trkpt lat="48.64578296430409" lon="-4.369197031483054">
        <ele>12.630000000000001</ele>
        <time>2018-07-06T07:55:18Z</time>
      </trkpt>
      <trkpt lat="48.64578397013247" lon="-4.369251010939479">
        <ele>13.119999999999999</ele>
        <time>2018-07-06T07:55:36Z</time>
      </trkpt>
      <trkpt lat="48.645773995667696" lon="-4.369286969304085">
        <ele>42.439999999999998</ele>
        <time>2018-07-06T08:13:28Z</time>
      </trkpt>
      <trkpt lat="48.645775001496077" lon="-4.369320999830961">
        <ele>23.690000000000001</ele>
        <time>2018-07-06T08:14:20Z</time>
      </trkpt>
      <trkpt lat="48.645708030089736" lon="-4.369550999253988">
        <ele>21.77</ele>
        <time>2018-07-06T08:14:26Z</time>
      </trkpt>
      <trkpt lat="48.645542990416288" lon="-4.369423007592559">
        <ele>20.809999999999999</ele>
        <time>2018-07-06T08:14:32Z</time>
      </trkpt>
      <trkpt lat="48.645390020683408" lon="-4.368810961022973">
        <ele>18.399999999999999</ele>
        <time>2018-07-06T08:14:38Z</time>
      </trkpt>
      <trkpt lat="48.645420027896762" lon="-4.368769973516464">
        <ele>18.399999999999999</ele>
        <time>2018-07-06T08:14:39Z</time>
      </trkpt>
      <trkpt lat="48.645486999303102" lon="-4.368675006553531">
        <ele>17.920000000000002</ele>
        <time>2018-07-06T08:14:40Z</time>
      </trkpt>
      <trkpt lat="48.645486999303102" lon="-4.368675006553531">
        <ele>17.920000000000002</ele>
        <time>2018-07-06T08:14:41Z</time>
      </trkpt>
      <trkpt lat="48.645500997081399" lon="-4.368643993511796">
        <ele>17.920000000000002</ele>
        <time>2018-07-06T08:14:42Z</time>
      </trkpt>
      <trkpt lat="48.64552304148674" lon="-4.368596971035004">
        <ele>18.399999999999999</ele>
        <time>2018-07-06T08:14:43Z</time>
      </trkpt>
      <trkpt lat="48.645539972931147" lon="-4.368557995185256">
        <ele>18.399999999999999</ele>
        <time>2018-07-06T08:14:44Z</time>
      </trkpt>
      <trkpt lat="48.645555982366204" lon="-4.368522958829999">
        <ele>17.920000000000002</ele>
        <time>2018-07-06T08:14:45Z</time>
      </trkpt>
      <trkpt lat="48.64556796848774" lon="-4.368496974930167">
        <ele>17.440000000000001</ele>
        <time>2018-07-06T08:14:46Z</time>
      </trkpt>
      <trkpt lat="48.645604010671377" lon="-4.368533017113805">
        <ele>17.440000000000001</ele>
        <time>2018-07-06T08:14:48Z</time>
      </trkpt>
      <trkpt lat="48.645550031214952" lon="-4.368536034598947">
        <ele>16.48</ele>
        <time>2018-07-06T08:14:51Z</time>
      </trkpt>
      <trkpt lat="48.645535027608275" lon="-4.368569981306791">
        <ele>16.48</ele>
        <time>2018-07-06T08:14:52Z</time>
      </trkpt>
      <trkpt lat="48.645513989031315" lon="-4.368614992126823">
        <ele>16</ele>
        <time>2018-07-06T08:14:53Z</time>
      </trkpt>
      <trkpt lat="48.645486999303102" lon="-4.368675006553531">
        <ele>16</ele>
        <time>2018-07-06T08:14:54Z</time>
      </trkpt>
      <trkpt lat="48.645454980432987" lon="-4.368720017373562">
        <ele>15.52</ele>
        <time>2018-07-06T08:14:55Z</time>
      </trkpt>
      <trkpt lat="48.645379962399602" lon="-4.36882495880127">
        <ele>15.52</ele>
        <time>2018-07-06T08:14:56Z</time>
      </trkpt>
      <trkpt lat="48.64537401124835" lon="-4.368853960186243">
        <ele>15.52</ele>
        <time>2018-07-06T08:14:58Z</time>
      </trkpt>
      <trkpt lat="48.645265968516469" lon="-4.36901799403131">
        <ele>15.52</ele>
        <time>2018-07-06T08:15:02Z</time>
      </trkpt>
      <trkpt lat="48.645243002101779" lon="-4.369086977094412">
        <ele>15.52</ele>
        <time>2018-07-06T08:15:03Z</time>
      </trkpt>
      <trkpt lat="48.645221963524818" lon="-4.369169035926461">
        <ele>15.52</ele>
        <time>2018-07-06T08:15:04Z</time>
      </trkpt>
      <trkpt lat="48.645189022645354" lon="-4.369350001215935">
        <ele>16</ele>
        <time>2018-07-06T08:15:06Z</time>
      </trkpt>
      <trkpt lat="48.644939996302128" lon="-4.370669983327389">
        <ele>17.920000000000002</ele>
        <time>2018-07-06T08:15:17Z</time>
      </trkpt>
      <trkpt lat="48.64487998187542" lon="-4.370790012180805">
        <ele>17.920000000000002</ele>
        <time>2018-07-06T08:15:18Z</time>
      </trkpt>
      <trkpt lat="48.644817033782601" lon="-4.370915992185473">
        <ele>18.399999999999999</ele>
        <time>2018-07-06T08:15:19Z</time>
      </trkpt>
      <trkpt lat="48.644737992435694" lon="-4.371020011603832">
        <ele>18.399999999999999</ele>
        <time>2018-07-06T08:15:20Z</time>
      </trkpt>
      <trkpt lat="48.644649982452393" lon="-4.371117996051908">
        <ele>18.399999999999999</ele>
        <time>2018-07-06T08:15:21Z</time>
      </trkpt>
      <trkpt lat="48.644560966640711" lon="-4.371216986328363">
        <ele>18.399999999999999</ele>
        <time>2018-07-06T08:15:22Z</time>
      </trkpt>
      <trkpt lat="48.643253976479173" lon="-4.372472008690238">
        <ele>19.359999999999999</ele>
        <time>2018-07-06T08:15:34Z</time>
      </trkpt>
      <trkpt lat="48.641903987154365" lon="-4.373798025771976">
        <ele>18.879999999999999</ele>
        <time>2018-07-06T08:15:46Z</time>
      </trkpt>
      <trkpt lat="48.641815977171063" lon="-4.373928029090166">
        <ele>18.879999999999999</ele>
        <time>2018-07-06T08:15:47Z</time>
      </trkpt>
      <trkpt lat="48.641738025471568" lon="-4.374072030186653">
        <ele>18.399999999999999</ele>
        <time>2018-07-06T08:15:48Z</time>
      </trkpt>
      <trkpt lat="48.640801012516022" lon="-4.375982014462352">
        <ele>20.32</ele>
        <time>2018-07-06T08:16:00Z</time>
      </trkpt>
      <trkpt lat="48.640607977285981" lon="-4.376387028023601">
        <ele>20.809999999999999</ele>
        <time>2018-07-06T08:16:02Z</time>
      </trkpt>
      <trkpt lat="48.640518961474299" lon="-4.376605963334441">
        <ele>20.809999999999999</ele>
        <time>2018-07-06T08:16:03Z</time>
      </trkpt>
      <trkpt lat="48.640471016988158" lon="-4.376849960535765">
        <ele>20.32</ele>
        <time>2018-07-06T08:16:04Z</time>
      </trkpt>
      <trkpt lat="48.64030203782022" lon="-4.377962993457913">
        <ele>20.809999999999999</ele>
        <time>2018-07-06T08:16:09Z</time>
      </trkpt>
      <trkpt lat="48.640276975929737" lon="-4.378187041729689">
        <ele>20.809999999999999</ele>
        <time>2018-07-06T08:16:10Z</time>
      </trkpt>
      <trkpt lat="48.640303965657949" lon="-4.378401031717658">
        <ele>20.809999999999999</ele>
        <time>2018-07-06T08:16:11Z</time>
      </trkpt>
      <trkpt lat="48.640332967042923" lon="-4.378618961200118">
        <ele>20.809999999999999</ele>
        <time>2018-07-06T08:16:12Z</time>
      </trkpt>
      <trkpt lat="48.640363980084658" lon="-4.378843009471893">
        <ele>20.809999999999999</ele>
        <time>2018-07-06T08:16:13Z</time>
      </trkpt>
      <trkpt lat="48.640445033088326" lon="-4.379295967519283">
        <ele>20.32</ele>
        <time>2018-07-06T08:16:15Z</time>
      </trkpt>
      <trkpt lat="48.640445033088326" lon="-4.379505012184382">
        <ele>20.32</ele>
        <time>2018-07-06T08:16:16Z</time>
      </trkpt>
      <trkpt lat="48.640445033088326" lon="-4.379726964980364">
        <ele>19.84</ele>
        <time>2018-07-06T08:16:17Z</time>
      </trkpt>
      <trkpt lat="48.640421982854605" lon="-4.379944978281856">
        <ele>19.84</ele>
        <time>2018-07-06T08:16:18Z</time>
      </trkpt>
      <trkpt lat="48.640385018661618" lon="-4.380159974098206">
        <ele>19.359999999999999</ele>
        <time>2018-07-06T08:16:19Z</time>
      </trkpt>
      <trkpt lat="48.640019986778498" lon="-4.382222006097436">
        <ele>20.32</ele>
        <time>2018-07-06T08:16:27Z</time>
      </trkpt>
      <trkpt lat="48.639561999589205" lon="-4.383878018707037">
        <ele>21.289999999999999</ele>
        <time>2018-07-06T08:16:33Z</time>
      </trkpt>
      <trkpt lat="48.639462003484368" lon="-4.384122015908361">
        <ele>21.289999999999999</ele>
        <time>2018-07-06T08:16:34Z</time>
      </trkpt>
      <trkpt lat="48.638976020738482" lon="-4.385005971416831">
        <ele>22.73</ele>
        <time>2018-07-06T08:16:38Z</time>
      </trkpt>
      <trkpt lat="48.638242017477751" lon="-4.386990973725915">
        <ele>22.25</ele>
        <time>2018-07-06T08:16:46Z</time>
      </trkpt>
      <trkpt lat="48.637917973101139" lon="-4.389319969341159">
        <ele>21.289999999999999</ele>
        <time>2018-07-06T08:16:54Z</time>
      </trkpt>
      <trkpt lat="48.637898024171591" lon="-4.389918018132448">
        <ele>20.809999999999999</ele>
        <time>2018-07-06T08:16:56Z</time>
      </trkpt>
      <trkpt lat="48.637938005849719" lon="-4.390203002840281">
        <ele>20.809999999999999</ele>
        <time>2018-07-06T08:16:57Z</time>
      </trkpt>
      <trkpt lat="48.638189965859056" lon="-4.392662001773715">
        <ele>18.879999999999999</ele>
        <time>2018-07-06T08:17:05Z</time>
      </trkpt>
      <trkpt lat="48.638180997222662" lon="-4.392954027280211">
        <ele>18.399999999999999</ele>
        <time>2018-07-06T08:17:06Z</time>
      </trkpt>
      <trkpt lat="48.638173034414649" lon="-4.39325200393796">
        <ele>18.399999999999999</ele>
        <time>2018-07-06T08:17:07Z</time>
      </trkpt>
      <trkpt lat="48.637886038050056" lon="-4.395493995398283">
        <ele>17.440000000000001</ele>
        <time>2018-07-06T08:17:15Z</time>
      </trkpt>
      <trkpt lat="48.637729967013001" lon="-4.396286001428962">
        <ele>16.960000000000001</ele>
        <time>2018-07-06T08:17:19Z</time>
      </trkpt>
      <trkpt lat="48.637683028355241" lon="-4.396447017788887">
        <ele>16.48</ele>
        <time>2018-07-06T08:17:20Z</time>
      </trkpt>
      <trkpt lat="48.637612033635378" lon="-4.396569980308414">
        <ele>16.48</ele>
        <time>2018-07-06T08:17:21Z</time>
      </trkpt>
      <trkpt lat="48.637521006166935" lon="-4.396695960313082">
        <ele>16</ele>
        <time>2018-07-06T08:17:22Z</time>
      </trkpt>
      <trkpt lat="48.637440958991647" lon="-4.396806014701724">
        <ele>16</ele>
        <time>2018-07-06T08:17:23Z</time>
      </trkpt>
      <trkpt lat="48.637339035049081" lon="-4.396853959187865">
        <ele>15.52</ele>
        <time>2018-07-06T08:17:24Z</time>
      </trkpt>
      <trkpt lat="48.637236021459103" lon="-4.396902993321419">
        <ele>15.039999999999999</ele>
        <time>2018-07-06T08:17:25Z</time>
      </trkpt>
      <trkpt lat="48.637134013697505" lon="-4.396951021626592">
        <ele>14.08</ele>
        <time>2018-07-06T08:17:26Z</time>
      </trkpt>
      <trkpt lat="48.636520961299539" lon="-4.397195018827915">
        <ele>12.630000000000001</ele>
        <time>2018-07-06T08:17:32Z</time>
      </trkpt>
      <trkpt lat="48.636312000453472" lon="-4.397308006882668">
        <ele>12.15</ele>
        <time>2018-07-06T08:17:34Z</time>
      </trkpt>
      <trkpt lat="48.635633988305926" lon="-4.397916030138731">
        <ele>15.039999999999999</ele>
        <time>2018-07-06T08:17:41Z</time>
      </trkpt>
      <trkpt lat="48.635530974715948" lon="-4.398006973788142">
        <ele>15.52</ele>
        <time>2018-07-06T08:17:42Z</time>
      </trkpt>
      <trkpt lat="48.635460985824466" lon="-4.398124990984798">
        <ele>16</ele>
        <time>2018-07-06T08:17:43Z</time>
      </trkpt>
      <trkpt lat="48.635389991104603" lon="-4.398246025666595">
        <ele>16.48</ele>
        <time>2018-07-06T08:17:44Z</time>
      </trkpt>
      <trkpt lat="48.635321008041501" lon="-4.398363037034869">
        <ele>16.960000000000001</ele>
        <time>2018-07-06T08:17:45Z</time>
      </trkpt>
      <trkpt lat="48.635252024978399" lon="-4.398479964584112">
        <ele>16.960000000000001</ele>
        <time>2018-07-06T08:17:46Z</time>
      </trkpt>
      <trkpt lat="48.635207014158368" lon="-4.398652967065573">
        <ele>17.440000000000001</ele>
        <time>2018-07-06T08:17:47Z</time>
      </trkpt>
      <trkpt lat="48.635164014995098" lon="-4.398814989253879">
        <ele>17.920000000000002</ele>
        <time>2018-07-06T08:17:48Z</time>
      </trkpt>
      <trkpt lat="48.635123027488589" lon="-4.39898899756372">
        <ele>17.920000000000002</ele>
        <time>2018-07-06T08:17:49Z</time>
      </trkpt>
      <trkpt lat="48.635112969204783" lon="-4.399169962853193">
        <ele>18.399999999999999</ele>
        <time>2018-07-06T08:17:50Z</time>
      </trkpt>
      <trkpt lat="48.635102994740009" lon="-4.399352017790079">
        <ele>18.879999999999999</ele>
        <time>2018-07-06T08:17:51Z</time>
      </trkpt>
      <trkpt lat="48.635111041367054" lon="-4.399538012221456">
        <ele>19.359999999999999</ele>
        <time>2018-07-06T08:17:52Z</time>
      </trkpt>
      <trkpt lat="48.635121015831828" lon="-4.39972098916769">
        <ele>19.359999999999999</ele>
        <time>2018-07-06T08:17:53Z</time>
      </trkpt>
      <trkpt lat="48.635141970589757" lon="-4.399904971942306">
        <ele>19.84</ele>
        <time>2018-07-06T08:17:54Z</time>
      </trkpt>
      <trkpt lat="48.635303992778063" lon="-4.402261041104794">
        <ele>20.32</ele>
        <time>2018-07-06T08:18:08Z</time>
      </trkpt>
      <trkpt lat="48.635057983919978" lon="-4.403827032074332">
        <ele>21.77</ele>
        <time>2018-07-06T08:18:18Z</time>
      </trkpt>
      <trkpt lat="48.634915994480252" lon="-4.404578972607851">
        <ele>21.289999999999999</ele>
        <time>2018-07-06T08:18:23Z</time>
      </trkpt>
      <trkpt lat="48.634891016408801" lon="-4.404714005067945">
        <ele>21.289999999999999</ele>
        <time>2018-07-06T08:18:24Z</time>
      </trkpt>
      <trkpt lat="48.63478004001081" lon="-4.405474998056889">
        <ele>19.84</ele>
        <time>2018-07-06T08:18:32Z</time>
      </trkpt>
      <trkpt lat="48.634749026969075" lon="-4.405612964183092">
        <ele>19.84</ele>
        <time>2018-07-06T08:18:33Z</time>
      </trkpt>
      <trkpt lat="48.634722037240863" lon="-4.405712960287929">
        <ele>19.359999999999999</ele>
        <time>2018-07-06T08:18:34Z</time>
      </trkpt>
      <trkpt lat="48.634706027805805" lon="-4.405833994969726">
        <ele>19.359999999999999</ele>
        <time>2018-07-06T08:18:35Z</time>
      </trkpt>
      <trkpt lat="48.634690018370748" lon="-4.405960980802774">
        <ele>19.359999999999999</ele>
        <time>2018-07-06T08:18:36Z</time>
      </trkpt>
      <trkpt lat="48.634607959538698" lon="-4.406700013205409">
        <ele>20.809999999999999</ele>
        <time>2018-07-06T08:18:42Z</time>
      </trkpt>
      <trkpt lat="48.634449960663915" lon="-4.407365033403039">
        <ele>23.690000000000001</ele>
        <time>2018-07-06T08:18:49Z</time>
      </trkpt>
      <trkpt lat="48.634414002299309" lon="-4.407490007579327">
        <ele>24.649999999999999</ele>
        <time>2018-07-06T08:18:51Z</time>
      </trkpt>
      <trkpt lat="48.634378965944052" lon="-4.407610958442092">
        <ele>25.609999999999999</ele>
        <time>2018-07-06T08:18:53Z</time>
      </trkpt>
      <trkpt lat="48.634360022842884" lon="-4.407674996182323">
        <ele>25.609999999999999</ele>
        <time>2018-07-06T08:18:54Z</time>
      </trkpt>
      <trkpt lat="48.634340995922685" lon="-4.407742973417044">
        <ele>26.09</ele>
        <time>2018-07-06T08:18:55Z</time>
      </trkpt>
      <trkpt lat="48.634320963174105" lon="-4.407810028642416">
        <ele>26.57</ele>
        <time>2018-07-06T08:18:56Z</time>
      </trkpt>
      <trkpt lat="48.634300008416176" lon="-4.407879011705518">
        <ele>27.050000000000001</ele>
        <time>2018-07-06T08:18:57Z</time>
      </trkpt>
      <trkpt lat="48.634217027574778" lon="-4.408153016120195">
        <ele>28.02</ele>
        <time>2018-07-06T08:19:01Z</time>
      </trkpt>
      <trkpt lat="48.63415801897645" lon="-4.408353008329868">
        <ele>28.5</ele>
        <time>2018-07-06T08:19:10Z</time>
      </trkpt>
      <trkpt lat="48.634119965136051" lon="-4.408478988334537">
        <ele>28.98</ele>
        <time>2018-07-06T08:19:21Z</time>
      </trkpt>
      <trkpt lat="48.634061040356755" lon="-4.408791968598962">
        <ele>27.530000000000001</ele>
        <time>2018-07-06T08:19:36Z</time>
      </trkpt>
      <trkpt lat="48.634049976244569" lon="-4.409194970503449">
        <ele>26.57</ele>
        <time>2018-07-06T08:19:47Z</time>
      </trkpt>
      <trkpt lat="48.634049976244569" lon="-4.409328997135162">
        <ele>26.09</ele>
        <time>2018-07-06T08:19:49Z</time>
      </trkpt>
      <trkpt lat="48.634049976244569" lon="-4.409394962713122">
        <ele>26.09</ele>
        <time>2018-07-06T08:19:50Z</time>
      </trkpt>
      <trkpt lat="48.634049976244569" lon="-4.409932997077704">
        <ele>23.210000000000001</ele>
        <time>2018-07-06T08:20:01Z</time>
      </trkpt>
      <trkpt lat="48.634049976244569" lon="-4.410202978178859">
        <ele>23.690000000000001</ele>
        <time>2018-07-06T08:20:06Z</time>
      </trkpt>
      <trkpt lat="48.634049976244569" lon="-4.410270033404231">
        <ele>24.170000000000002</ele>
        <time>2018-07-06T08:20:07Z</time>
      </trkpt>
      <trkpt lat="48.634049976244569" lon="-4.410337004810572">
        <ele>24.170000000000002</ele>
        <time>2018-07-06T08:20:08Z</time>
      </trkpt>
      <trkpt lat="48.634049976244569" lon="-4.410404982045293">
        <ele>23.690000000000001</ele>
        <time>2018-07-06T08:20:09Z</time>
      </trkpt>
      <trkpt lat="48.634049976244569" lon="-4.410466002300382">
        <ele>23.690000000000001</ele>
        <time>2018-07-06T08:20:10Z</time>
      </trkpt>
      <trkpt lat="48.634049976244569" lon="-4.410513024777174">
        <ele>23.690000000000001</ele>
        <time>2018-07-06T08:20:11Z</time>
      </trkpt>
      <trkpt lat="48.634049976244569" lon="-4.41054898314178">
        <ele>23.210000000000001</ele>
        <time>2018-07-06T08:20:12Z</time>
      </trkpt>
      <trkpt lat="48.634049976244569" lon="-4.410578990355134">
        <ele>23.210000000000001</ele>
        <time>2018-07-06T08:20:13Z</time>
      </trkpt>
      <trkpt lat="48.634049976244569" lon="-4.410608997568488">
        <ele>22.73</ele>
        <time>2018-07-06T08:20:14Z</time>
      </trkpt>
      <trkpt lat="48.634026004001498" lon="-4.410725003108382">
        <ele>22.73</ele>
        <time>2018-07-06T08:20:17Z</time>
      </trkpt>
      <trkpt lat="48.634002031758428" lon="-4.410779988393188">
        <ele>23.210000000000001</ele>
        <time>2018-07-06T08:20:18Z</time>
      </trkpt>
      <trkpt lat="48.633974036201835" lon="-4.410821981728077">
        <ele>23.210000000000001</ele>
        <time>2018-07-06T08:20:19Z</time>
      </trkpt>
      <trkpt lat="48.633929025381804" lon="-4.410838996991515">
        <ele>23.210000000000001</ele>
        <time>2018-07-06T08:20:20Z</time>
      </trkpt>
      <trkpt lat="48.633887032046914" lon="-4.410856012254953">
        <ele>22.73</ele>
        <time>2018-07-06T08:20:21Z</time>
      </trkpt>
      <trkpt lat="48.633667007088661" lon="-4.410934969782829">
        <ele>21.77</ele>
        <time>2018-07-06T08:20:26Z</time>
      </trkpt>
      <trkpt lat="48.633383028209209" lon="-4.411066984757781">
        <ele>19.84</ele>
        <time>2018-07-06T08:20:34Z</time>
      </trkpt>
      <trkpt lat="48.633043980225921" lon="-4.411234958097339">
        <ele>18.399999999999999</ele>
        <time>2018-07-06T08:20:45Z</time>
      </trkpt>
      <trkpt lat="48.632983965799212" lon="-4.411264965310693">
        <ele>18.399999999999999</ele>
        <time>2018-07-06T08:20:46Z</time>
      </trkpt>
      <trkpt lat="48.632321963086724" lon="-4.411555984988809">
        <ele>15.52</ele>
        <time>2018-07-06T08:20:56Z</time>
      </trkpt>
      <trkpt lat="48.632113002240658" lon="-4.411639971658588">
        <ele>15.52</ele>
        <time>2018-07-06T08:20:59Z</time>
      </trkpt>
      <trkpt lat="48.632042007520795" lon="-4.41166796721518">
        <ele>16</ele>
        <time>2018-07-06T08:21:00Z</time>
      </trkpt>
      <trkpt lat="48.63185903057456" lon="-4.411740973591805">
        <ele>16</ele>
        <time>2018-07-06T08:21:03Z</time>
      </trkpt>
      <trkpt lat="48.631814019754529" lon="-4.411755977198482">
        <ele>16</ele>
        <time>2018-07-06T08:21:04Z</time>
      </trkpt>
      <trkpt lat="48.631780995056033" lon="-4.411767041310668">
        <ele>16.48</ele>
        <time>2018-07-06T08:21:05Z</time>
      </trkpt>
      <trkpt lat="48.631750987842679" lon="-4.411777015775442">
        <ele>16.48</ele>
        <time>2018-07-06T08:21:06Z</time>
      </trkpt>
      <trkpt lat="48.631717963144183" lon="-4.411787996068597">
        <ele>16</ele>
        <time>2018-07-06T08:21:07Z</time>
      </trkpt>
      <trkpt lat="48.631682004779577" lon="-4.411799982190132">
        <ele>16</ele>
        <time>2018-07-06T08:21:08Z</time>
      </trkpt>
      <trkpt lat="48.63164596259594" lon="-4.411814985796809">
        <ele>16</ele>
        <time>2018-07-06T08:21:09Z</time>
      </trkpt>
      <trkpt lat="48.63160396926105" lon="-4.411834012717009">
        <ele>16</ele>
        <time>2018-07-06T08:21:10Z</time>
      </trkpt>
      <trkpt lat="48.6315150372684" lon="-4.411873994395137">
        <ele>16</ele>
        <time>2018-07-06T08:21:12Z</time>
      </trkpt>
      <trkpt lat="48.631148999556899" lon="-4.412064012140036">
        <ele>16.48</ele>
        <time>2018-07-06T08:21:18Z</time>
      </trkpt>
      <trkpt lat="48.630851022899151" lon="-4.412337010726333">
        <ele>16</ele>
        <time>2018-07-06T08:21:23Z</time>
      </trkpt>
      <trkpt lat="48.63014199770987" lon="-4.412944028154016">
        <ele>15.52</ele>
        <time>2018-07-06T08:21:32Z</time>
      </trkpt>
      <trkpt lat="48.629459040239453" lon="-4.413542998954654">
        <ele>14.56</ele>
        <time>2018-07-06T08:21:38Z</time>
      </trkpt>
      <trkpt lat="48.629354014992714" lon="-4.413726981729269">
        <ele>14.08</ele>
        <time>2018-07-06T08:21:39Z</time>
      </trkpt>
      <trkpt lat="48.629252007231116" lon="-4.413906019181013">
        <ele>14.08</ele>
        <time>2018-07-06T08:21:40Z</time>
      </trkpt>
      <trkpt lat="48.62915301695466" lon="-4.414082039147615">
        <ele>13.6</ele>
        <time>2018-07-06T08:21:41Z</time>
      </trkpt>
      <trkpt lat="48.62906701862812" lon="-4.414273984730244">
        <ele>14.08</ele>
        <time>2018-07-06T08:21:42Z</time>
      </trkpt>
      <trkpt lat="48.629000969231129" lon="-4.414490992203355">
        <ele>14.08</ele>
        <time>2018-07-06T08:21:43Z</time>
      </trkpt>
      <trkpt lat="48.628325974568725" lon="-4.416415980085731">
        <ele>16.48</ele>
        <time>2018-07-06T08:21:51Z</time>
      </trkpt>
      <trkpt lat="48.627876034006476" lon="-4.417055016383529">
        <ele>16.960000000000001</ele>
        <time>2018-07-06T08:21:55Z</time>
      </trkpt>
      <trkpt lat="48.627762040123343" lon="-4.417184013873339">
        <ele>16.960000000000001</ele>
        <time>2018-07-06T08:21:56Z</time>
      </trkpt>
      <trkpt lat="48.627626001834869" lon="-4.417310999706388">
        <ele>16.960000000000001</ele>
        <time>2018-07-06T08:21:57Z</time>
      </trkpt>
      <trkpt lat="48.62651196308434" lon="-4.418075010180473">
        <ele>16</ele>
        <time>2018-07-06T08:22:03Z</time>
      </trkpt>
      <trkpt lat="48.62463902682066" lon="-4.419085029512644">
        <ele>17.440000000000001</ele>
        <time>2018-07-06T08:22:13Z</time>
      </trkpt>
      <trkpt lat="48.622427964583039" lon="-4.420338040217757">
        <ele>20.32</ele>
        <time>2018-07-06T08:22:25Z</time>
      </trkpt>
      <trkpt lat="48.620224026963115" lon="-4.421583004295826">
        <ele>32.340000000000003</ele>
        <time>2018-07-06T08:22:37Z</time>
      </trkpt>
      <trkpt lat="48.617697972804308" lon="-4.423356028273702">
        <ele>48.200000000000003</ele>
        <time>2018-07-06T08:22:51Z</time>
      </trkpt>
      <trkpt lat="48.615538962185383" lon="-4.42550296895206">
        <ele>57.340000000000003</ele>
        <time>2018-07-06T08:23:04Z</time>
      </trkpt>
      <trkpt lat="48.614215040579438" lon="-4.426838960498571">
        <ele>60.700000000000003</ele>
        <time>2018-07-06T08:23:12Z</time>
      </trkpt>
      <trkpt lat="48.613535016775131" lon="-4.428279977291822">
        <ele>62.619999999999997</ele>
        <time>2018-07-06T08:23:18Z</time>
      </trkpt>
      <trkpt lat="48.613467961549759" lon="-4.428558005020022">
        <ele>63.100000000000001</ele>
        <time>2018-07-06T08:23:19Z</time>
      </trkpt>
      <trkpt lat="48.613409958779812" lon="-4.428839972242713">
        <ele>63.579999999999998</ele>
        <time>2018-07-06T08:23:20Z</time>
      </trkpt>
      <trkpt lat="48.613355979323387" lon="-4.429124034941196">
        <ele>63.579999999999998</ele>
        <time>2018-07-06T08:23:21Z</time>
      </trkpt>
      <trkpt lat="48.613323960453272" lon="-4.429418994113803">
        <ele>64.549999999999997</ele>
        <time>2018-07-06T08:23:22Z</time>
      </trkpt>
      <trkpt lat="48.613301999866962" lon="-4.429718982428312">
        <ele>65.030000000000001</ele>
        <time>2018-07-06T08:23:23Z</time>
      </trkpt>
      <trkpt lat="48.613311974331737" lon="-4.430014025419951">
        <ele>65.989999999999995</ele>
        <time>2018-07-06T08:23:24Z</time>
      </trkpt>
      <trkpt lat="48.613322032615542" lon="-4.430309990420938">
        <ele>66.950000000000003</ele>
        <time>2018-07-06T08:23:25Z</time>
      </trkpt>
      <trkpt lat="48.613364025950432" lon="-4.430604027584195">
        <ele>67.430000000000007</ele>
        <time>2018-07-06T08:23:26Z</time>
      </trkpt>
      <trkpt lat="48.613407025113702" lon="-4.430894963443279">
        <ele>67.909999999999997</ele>
        <time>2018-07-06T08:23:27Z</time>
      </trkpt>
      <trkpt lat="48.614017982035875" lon="-4.434374962002039">
        <ele>74.159999999999997</ele>
        <time>2018-07-06T08:23:39Z</time>
      </trkpt>
      <trkpt lat="48.614299027249217" lon="-4.438256034627557">
        <ele>76.560000000000002</ele>
        <time>2018-07-06T08:23:52Z</time>
      </trkpt>
      <trkpt lat="48.614796996116638" lon="-4.442079020664096">
        <ele>78.480000000000004</ele>
        <time>2018-07-06T08:24:05Z</time>
      </trkpt>
      <trkpt lat="48.615068988874555" lon="-4.44565499201417">
        <ele>79.930000000000007</ele>
        <time>2018-07-06T08:24:17Z</time>
      </trkpt>
      <trkpt lat="48.615480037406087" lon="-4.448277018964291">
        <ele>79.930000000000007</ele>
        <time>2018-07-06T08:24:26Z</time>
      </trkpt>
      <trkpt lat="48.61596199683845" lon="-4.452413991093636">
        <ele>79.450000000000003</ele>
        <time>2018-07-06T08:24:40Z</time>
      </trkpt>
      <trkpt lat="48.615711964666843" lon="-4.45536601357162">
        <ele>79.450000000000003</ele>
        <time>2018-07-06T08:24:50Z</time>
      </trkpt>
      <trkpt lat="48.615226987749338" lon="-4.460076978430152">
        <ele>83.769999999999996</ele>
        <time>2018-07-06T08:25:06Z</time>
      </trkpt>
      <trkpt lat="48.615332012996078" lon="-4.463662002235651">
        <ele>87.620000000000005</ele>
        <time>2018-07-06T08:25:18Z</time>
      </trkpt>
      <trkpt lat="48.615147024393082" lon="-4.466957012191415">
        <ele>85.689999999999998</ele>
        <time>2018-07-06T08:25:29Z</time>
      </trkpt>
      <trkpt lat="48.614566996693611" lon="-4.471019972115755">
        <ele>84.25</ele>
        <time>2018-07-06T08:25:43Z</time>
      </trkpt>
      <trkpt lat="48.614105992019176" lon="-4.472589986398816">
        <ele>85.209999999999994</ele>
        <time>2018-07-06T08:25:50Z</time>
      </trkpt>
      <trkpt lat="48.613990992307663" lon="-4.472967004403472">
        <ele>85.209999999999994</ele>
        <time>2018-07-06T08:25:53Z</time>
      </trkpt>
      <trkpt lat="48.613970037549734" lon="-4.473034981638193">
        <ele>85.209999999999994</ele>
        <time>2018-07-06T08:25:54Z</time>
      </trkpt>
      <trkpt lat="48.613953022286296" lon="-4.473090972751379">
        <ele>85.689999999999998</ele>
        <time>2018-07-06T08:25:55Z</time>
      </trkpt>
      <trkpt lat="48.613938018679619" lon="-4.473140006884933">
        <ele>85.689999999999998</ele>
        <time>2018-07-06T08:25:56Z</time>
      </trkpt>
      <trkpt lat="48.613925026729703" lon="-4.473184011876583">
        <ele>85.689999999999998</ele>
        <time>2018-07-06T08:25:57Z</time>
      </trkpt>
      <trkpt lat="48.614013036713004" lon="-4.473332036286593">
        <ele>85.689999999999998</ele>
        <time>2018-07-06T08:25:58Z</time>
      </trkpt>
      <trkpt lat="48.614067016169429" lon="-4.473367994651198">
        <ele>85.689999999999998</ele>
        <time>2018-07-06T08:25:59Z</time>
      </trkpt>
      <trkpt lat="48.614132981747389" lon="-4.473410993814468">
        <ele>85.689999999999998</ele>
        <time>2018-07-06T08:26:00Z</time>
      </trkpt>
      <trkpt lat="48.614209005609155" lon="-4.473461033776403">
        <ele>85.689999999999998</ele>
        <time>2018-07-06T08:26:01Z</time>
      </trkpt>
      <trkpt lat="48.614588035270572" lon="-4.473709976300597">
        <ele>84.25</ele>
        <time>2018-07-06T08:26:05Z</time>
      </trkpt>
      <trkpt lat="48.614717032760382" lon="-4.473726991564035">
        <ele>83.290000000000006</ele>
        <time>2018-07-06T08:26:06Z</time>
      </trkpt>
      <trkpt lat="48.614841001108289" lon="-4.473743000999093">
        <ele>82.810000000000002</ele>
        <time>2018-07-06T08:26:07Z</time>
      </trkpt>
      <trkpt lat="48.614967986941338" lon="-4.473759010434151">
        <ele>81.849999999999994</ele>
        <time>2018-07-06T08:26:08Z</time>
      </trkpt>
      <trkpt lat="48.615081980824471" lon="-4.473774014040828">
        <ele>81.370000000000005</ele>
        <time>2018-07-06T08:26:09Z</time>
      </trkpt>
      <trkpt lat="48.615221958607435" lon="-4.473724979907274">
        <ele>80.890000000000001</ele>
        <time>2018-07-06T08:26:10Z</time>
      </trkpt>
      <trkpt lat="48.615346010774374" lon="-4.473680974915624">
        <ele>79.930000000000007</ele>
        <time>2018-07-06T08:26:11Z</time>
      </trkpt>
      <trkpt lat="48.615447012707591" lon="-4.473646022379398">
        <ele>78.480000000000004</ele>
        <time>2018-07-06T08:26:12Z</time>
      </trkpt>
      <trkpt lat="48.615567963570356" lon="-4.473532028496265">
        <ele>77.519999999999996</ele>
        <time>2018-07-06T08:26:13Z</time>
      </trkpt>
      <trkpt lat="48.615667037665844" lon="-4.473438989371061">
        <ele>76.560000000000002</ele>
        <time>2018-07-06T08:26:14Z</time>
      </trkpt>
      <trkpt lat="48.615770973265171" lon="-4.473342010751367">
        <ele>75.120000000000005</ele>
        <time>2018-07-06T08:26:15Z</time>
      </trkpt>
      <trkpt lat="48.615863006561995" lon="-4.473214019089937">
        <ele>74.159999999999997</ele>
        <time>2018-07-06T08:26:16Z</time>
      </trkpt>
      <trkpt lat="48.615949004888535" lon="-4.473083009943366">
        <ele>73.200000000000003</ele>
        <time>2018-07-06T08:26:17Z</time>
      </trkpt>
      <trkpt lat="48.616037014871836" lon="-4.472950994968414">
        <ele>72.239999999999995</ele>
        <time>2018-07-06T08:26:18Z</time>
      </trkpt>
      <trkpt lat="48.617273010313511" lon="-4.471079986542463">
        <ele>65.030000000000001</ele>
        <time>2018-07-06T08:26:31Z</time>
      </trkpt>
      <trkpt lat="48.617897965013981" lon="-4.470265014097095">
        <ele>64.549999999999997</ele>
        <time>2018-07-06T08:26:37Z</time>
      </trkpt>
      <trkpt lat="48.61802201718092" lon="-4.47014800272882">
        <ele>64.069999999999993</ele>
        <time>2018-07-06T08:26:38Z</time>
      </trkpt>
      <trkpt lat="48.618136011064053" lon="-4.470082959160209">
        <ele>64.069999999999993</ele>
        <time>2018-07-06T08:26:39Z</time>
      </trkpt>
      <trkpt lat="48.618610007688403" lon="-4.469909034669399">
        <ele>63.579999999999998</ele>
        <time>2018-07-06T08:26:44Z</time>
      </trkpt>
      <trkpt lat="48.61868703737855" lon="-4.469891013577581">
        <ele>63.579999999999998</ele>
        <time>2018-07-06T08:26:45Z</time>
      </trkpt>
      <trkpt lat="48.6187759693712" lon="-4.469901993870735">
        <ele>63.579999999999998</ele>
        <time>2018-07-06T08:26:46Z</time>
      </trkpt>
      <trkpt lat="48.619772996753454" lon="-4.470029985532165">
        <ele>62.619999999999997</ele>
        <time>2018-07-06T08:26:54Z</time>
      </trkpt>
      <trkpt lat="48.621333036571741" lon="-4.470410021021962">
        <ele>62.140000000000001</ele>
        <time>2018-07-06T08:27:04Z</time>
      </trkpt>
      <trkpt lat="48.622380020096898" lon="-4.47105199098587">
        <ele>59.259999999999998</ele>
        <time>2018-07-06T08:27:12Z</time>
      </trkpt>
      <trkpt lat="48.622478004544973" lon="-4.471149975433946">
        <ele>59.259999999999998</ele>
        <time>2018-07-06T08:27:13Z</time>
      </trkpt>
      <trkpt lat="48.622570959851146" lon="-4.47124301455915">
        <ele>58.780000000000001</ele>
        <time>2018-07-06T08:27:14Z</time>
      </trkpt>
      <trkpt lat="48.62264203839004" lon="-4.471371006220579">
        <ele>58.780000000000001</ele>
        <time>2018-07-06T08:27:15Z</time>
      </trkpt>
      <trkpt lat="48.622697023674846" lon="-4.471503021195531">
        <ele>58.780000000000001</ele>
        <time>2018-07-06T08:27:16Z</time>
      </trkpt>
      <trkpt lat="48.622734993696213" lon="-4.471641993150115">
        <ele>58.780000000000001</ele>
        <time>2018-07-06T08:27:17Z</time>
      </trkpt>
      <trkpt lat="48.62277103587985" lon="-4.471774008125067">
        <ele>58.299999999999997</ele>
        <time>2018-07-06T08:27:18Z</time>
      </trkpt>
      <trkpt lat="48.622802970930934" lon="-4.471891019493341">
        <ele>58.299999999999997</ele>
        <time>2018-07-06T08:27:19Z</time>
      </trkpt>
      <trkpt lat="48.622832978144288" lon="-4.47199696674943">
        <ele>57.82</ele>
        <time>2018-07-06T08:27:20Z</time>
      </trkpt>
      <trkpt lat="48.622845970094204" lon="-4.472116995602846">
        <ele>57.340000000000003</ele>
        <time>2018-07-06T08:27:21Z</time>
      </trkpt>
      <trkpt lat="48.622839013114572" lon="-4.472239036113024">
        <ele>57.340000000000003</ele>
        <time>2018-07-06T08:27:22Z</time>
      </trkpt>
      <trkpt lat="48.622831972315907" lon="-4.472370967268944">
        <ele>56.859999999999999</ele>
        <time>2018-07-06T08:27:23Z</time>
      </trkpt>
      <trkpt lat="48.62281403504312" lon="-4.47251002304256">
        <ele>56.369999999999997</ele>
        <time>2018-07-06T08:27:24Z</time>
      </trkpt>
      <trkpt lat="48.622786039486527" lon="-4.472645977512002">
        <ele>55.890000000000001</ele>
        <time>2018-07-06T08:27:25Z</time>
      </trkpt>
      <trkpt lat="48.622440034523606" lon="-4.47425102815032">
        <ele>47.240000000000002</ele>
        <time>2018-07-06T08:27:38Z</time>
      </trkpt>
      <trkpt lat="48.622414972633123" lon="-4.474365022033453">
        <ele>46.280000000000001</ele>
        <time>2018-07-06T08:27:39Z</time>
      </trkpt>
      <trkpt lat="48.622381025925279" lon="-4.474523020908237">
        <ele>44.840000000000003</ele>
        <time>2018-07-06T08:27:41Z</time>
      </trkpt>
      <trkpt lat="48.622366022318602" lon="-4.474594015628099">
        <ele>44.359999999999999</ele>
        <time>2018-07-06T08:27:42Z</time>
      </trkpt>
      <trkpt lat="48.622255967929959" lon="-4.475104976445437">
        <ele>41.469999999999999</ele>
        <time>2018-07-06T08:27:47Z</time>
      </trkpt>
      <trkpt lat="48.622231995686889" lon="-4.475220981985331">
        <ele>40.509999999999998</ele>
        <time>2018-07-06T08:27:48Z</time>
      </trkpt>
      <trkpt lat="48.621986992657185" lon="-4.476684965193272">
        <ele>40.030000000000001</ele>
        <time>2018-07-06T08:27:59Z</time>
      </trkpt>
      <trkpt lat="48.621936030685902" lon="-4.477896988391876">
        <ele>40.030000000000001</ele>
        <time>2018-07-06T08:28:10Z</time>
      </trkpt>
      <trkpt lat="48.62193301320076" lon="-4.477961026132107">
        <ele>40.030000000000001</ele>
        <time>2018-07-06T08:28:11Z</time>
      </trkpt>
      <trkpt lat="48.622096041217446" lon="-4.478175016120076">
        <ele>40.030000000000001</ele>
        <time>2018-07-06T08:28:20Z</time>
      </trkpt>
      <trkpt lat="48.622526032850146" lon="-4.47829001583159">
        <ele>35.229999999999997</ele>
        <time>2018-07-06T08:28:32Z</time>
      </trkpt>
      <trkpt lat="48.622570037841797" lon="-4.478302001953125">
        <ele>33.780000000000001</ele>
        <time>2018-07-06T08:28:34Z</time>
      </trkpt>
      <trkpt lat="48.622570959851146" lon="-4.478302001953125">
        <ele>33.780000000000001</ele>
        <time>2018-07-06T08:28:35Z</time>
      </trkpt>
      <trkpt lat="48.622570959851146" lon="-4.478302001953125">
        <ele>33.299999999999997</ele>
        <time>2018-07-06T08:28:36Z</time>
      </trkpt>
      <trkpt lat="48.622570959851146" lon="-4.478325974196196">
        <ele>33.299999999999997</ele>
        <time>2018-07-06T08:28:37Z</time>
      </trkpt>
      <trkpt lat="48.622571965679526" lon="-4.478357993066311">
        <ele>33.299999999999997</ele>
        <time>2018-07-06T08:28:38Z</time>
      </trkpt>
      <trkpt lat="48.622572971507907" lon="-4.478395041078329">
        <ele>33.299999999999997</ele>
        <time>2018-07-06T08:28:39Z</time>
      </trkpt>
      <trkpt lat="48.622573977336287" lon="-4.478432005271316">
        <ele>33.299999999999997</ele>
        <time>2018-07-06T08:28:40Z</time>
      </trkpt>
      <trkpt lat="48.622574983164668" lon="-4.478470981121063">
        <ele>33.299999999999997</ele>
        <time>2018-07-06T08:28:41Z</time>
      </trkpt>
      <trkpt lat="48.622586969286203" lon="-4.47895897552371">
        <ele>30.420000000000002</ele>
        <time>2018-07-06T08:28:53Z</time>
      </trkpt>
      <trkpt lat="48.622589986771345" lon="-4.479056959971786">
        <ele>27.530000000000001</ele>
        <time>2018-07-06T08:29:08Z</time>
      </trkpt>
      <trkpt lat="48.622589986771345" lon="-4.479056959971786">
        <ele>27.050000000000001</ele>
        <time>2018-07-06T08:29:11Z</time>
      </trkpt>
      <trkpt lat="48.622589986771345" lon="-4.479056959971786">
        <ele>27.050000000000001</ele>
        <time>2018-07-06T08:29:13Z</time>
      </trkpt>
      <trkpt lat="48.62262099981308" lon="-4.479080010205507">
        <ele>27.050000000000001</ele>
        <time>2018-07-06T08:29:14Z</time>
      </trkpt>
      <trkpt lat="48.622631980106235" lon="-4.479056037962437">
        <ele>27.050000000000001</ele>
        <time>2018-07-06T08:29:15Z</time>
      </trkpt>
      <trkpt lat="48.622645977884531" lon="-4.479026030749083">
        <ele>26.57</ele>
        <time>2018-07-06T08:29:16Z</time>
      </trkpt>
      <trkpt lat="48.622662993147969" lon="-4.478992000222206">
        <ele>26.57</ele>
        <time>2018-07-06T08:29:17Z</time>
      </trkpt>
      <trkpt lat="48.62268403172493" lon="-4.478947995230556">
        <ele>26.09</ele>
        <time>2018-07-06T08:29:18Z</time>
      </trkpt>
      <trkpt lat="48.622819986194372" lon="-4.478666028007865">
        <ele>25.129999999999999</ele>
        <time>2018-07-06T08:29:22Z</time>
      </trkpt>
      <trkpt lat="48.622871031984687" lon="-4.478559996932745">
        <ele>24.649999999999999</ele>
        <time>2018-07-06T08:29:23Z</time>
      </trkpt>
      <trkpt lat="48.622907996177673" lon="-4.478525966405869">
        <ele>24.649999999999999</ele>
        <time>2018-07-06T08:29:24Z</time>
      </trkpt>
      <trkpt lat="48.622958036139607" lon="-4.478479027748108">
        <ele>24.170000000000002</ele>
        <time>2018-07-06T08:29:25Z</time>
      </trkpt>
      <trkpt lat="48.62300799228251" lon="-4.478432005271316">
        <ele>23.690000000000001</ele>
        <time>2018-07-06T08:29:26Z</time>
      </trkpt>
      <trkpt lat="48.623057026416063" lon="-4.478386994451284">
        <ele>23.210000000000001</ele>
        <time>2018-07-06T08:29:27Z</time>
      </trkpt>
      <trkpt lat="48.623101031407714" lon="-4.478346006944776">
        <ele>22.73</ele>
        <time>2018-07-06T08:29:28Z</time>
      </trkpt>
      <trkpt lat="48.623145036399364" lon="-4.478306025266647">
        <ele>22.25</ele>
        <time>2018-07-06T08:29:29Z</time>
      </trkpt>
      <trkpt lat="48.623178983107209" lon="-4.478222038596869">
        <ele>22.25</ele>
        <time>2018-07-06T08:29:30Z</time>
      </trkpt>
      <trkpt lat="48.623189963400364" lon="-4.478139979764819">
        <ele>21.77</ele>
        <time>2018-07-06T08:29:31Z</time>
      </trkpt>
      <trkpt lat="48.623202033340931" lon="-4.478045012801886">
        <ele>21.77</ele>
        <time>2018-07-06T08:29:32Z</time>
      </trkpt>
      <trkpt lat="48.623215025290847" lon="-4.477945016697049">
        <ele>21.77</ele>
        <time>2018-07-06T08:29:33Z</time>
      </trkpt>
      <trkpt lat="48.623228017240763" lon="-4.477846026420593">
        <ele>21.77</ele>
        <time>2018-07-06T08:29:34Z</time>
      </trkpt>
      <trkpt lat="48.623275961726904" lon="-4.477474959567189">
        <ele>20.809999999999999</ele>
        <time>2018-07-06T08:29:38Z</time>
      </trkpt>
      <trkpt lat="48.62341501750052" lon="-4.477022001519799">
        <ele>16.960000000000001</ele>
        <time>2018-07-06T08:29:47Z</time>
      </trkpt>
      <trkpt lat="48.623447958379984" lon="-4.477029964327812">
        <ele>16.48</ele>
        <time>2018-07-06T08:29:48Z</time>
      </trkpt>
      <trkpt lat="48.62348198890686" lon="-4.477042034268379">
        <ele>16.48</ele>
        <time>2018-07-06T08:29:49Z</time>
      </trkpt>
      <trkpt lat="48.623520964756608" lon="-4.477065000683069">
        <ele>16</ele>
        <time>2018-07-06T08:29:50Z</time>
      </trkpt>
      <trkpt lat="48.623578967526555" lon="-4.477100037038326">
        <ele>16</ele>
        <time>2018-07-06T08:29:51Z</time>
      </trkpt>
      <trkpt lat="48.623581985011697" lon="-4.477105988189578">
        <ele>16</ele>
        <time>2018-07-06T08:29:52Z</time>
      </trkpt>
      <trkpt lat="48.623594976961613" lon="-4.47713297791779">
        <ele>15.52</ele>
        <time>2018-07-06T08:29:53Z</time>
      </trkpt>
      <trkpt lat="48.623607968911529" lon="-4.477158961817622">
        <ele>15.52</ele>
        <time>2018-07-06T08:29:54Z</time>
      </trkpt>
      <trkpt lat="48.623620960861444" lon="-4.477184023708105">
        <ele>15.52</ele>
        <time>2018-07-06T08:29:55Z</time>
      </trkpt>
      <trkpt lat="48.623640993610024" lon="-4.477241020649672">
        <ele>15.039999999999999</ele>
        <time>2018-07-06T08:29:56Z</time>
      </trkpt>
      <trkpt lat="48.623640993610024" lon="-4.477241020649672">
        <ele>15.039999999999999</ele>
        <time>2018-07-06T08:30:09Z</time>
      </trkpt>
      <trkpt lat="48.623641999438405" lon="-4.477235991507769">
        <ele>15.039999999999999</ele>
        <time>2018-07-06T08:30:20Z</time>
      </trkpt>
      <trkpt lat="48.623643005266786" lon="-4.477229034528136">
        <ele>14.56</ele>
        <time>2018-07-06T08:30:35Z</time>
      </trkpt>
      <trkpt lat="48.623756999149919" lon="-4.477033987641335">
        <ele>9.75</ele>
        <time>2018-07-06T09:00:39Z</time>
      </trkpt>
      <trkpt lat="48.623578967526555" lon="-4.477100037038326">
        <ele>9.27</ele>
        <time>2018-07-06T09:00:50Z</time>
      </trkpt>
      <trkpt lat="48.623472014442086" lon="-4.477035999298096">
        <ele>8.310000000000001</ele>
        <time>2018-07-06T09:00:57Z</time>
      </trkpt>
      <trkpt lat="48.623386016115546" lon="-4.477014960721135">
        <ele>8.310000000000001</ele>
        <time>2018-07-06T09:00:58Z</time>
      </trkpt>
      <trkpt lat="48.623386016115546" lon="-4.477014960721135">
        <ele>8.789999999999999</ele>
        <time>2018-07-06T09:00:59Z</time>
      </trkpt>
      <trkpt lat="48.623386016115546" lon="-4.477014960721135">
        <ele>8.789999999999999</ele>
        <time>2018-07-06T09:01:00Z</time>
      </trkpt>
      <trkpt lat="48.623350979760289" lon="-4.477072963491082">
        <ele>9.27</ele>
        <time>2018-07-06T09:01:01Z</time>
      </trkpt>
      <trkpt lat="48.623304041102529" lon="-4.47726096957922">
        <ele>10.23</ele>
        <time>2018-07-06T09:01:04Z</time>
      </trkpt>
      <trkpt lat="48.6232899595052" lon="-4.477363983169198">
        <ele>10.710000000000001</ele>
        <time>2018-07-06T09:01:05Z</time>
      </trkpt>
      <trkpt lat="48.623275039717555" lon="-4.477480994537473">
        <ele>11.19</ele>
        <time>2018-07-06T09:01:06Z</time>
      </trkpt>
      <trkpt lat="48.623171020299196" lon="-4.478280963376164">
        <ele>16</ele>
        <time>2018-07-06T09:01:12Z</time>
      </trkpt>
      <trkpt lat="48.623062977567315" lon="-4.478380959481001">
        <ele>16.48</ele>
        <time>2018-07-06T09:01:13Z</time>
      </trkpt>
      <trkpt lat="48.622997011989355" lon="-4.47844298556447">
        <ele>16.960000000000001</ele>
        <time>2018-07-06T09:01:14Z</time>
      </trkpt>
      <trkpt lat="48.622919982299209" lon="-4.478513980284333">
        <ele>17.920000000000002</ele>
        <time>2018-07-06T09:01:15Z</time>
      </trkpt>
      <trkpt lat="48.622871031984687" lon="-4.478559996932745">
        <ele>18.879999999999999</ele>
        <time>2018-07-06T09:01:16Z</time>
      </trkpt>
      <trkpt lat="48.62277296371758" lon="-4.47876300662756">
        <ele>19.359999999999999</ele>
        <time>2018-07-06T09:01:17Z</time>
      </trkpt>
      <trkpt lat="48.622708003968" lon="-4.478898039087653">
        <ele>19.84</ele>
        <time>2018-07-06T09:01:18Z</time>
      </trkpt>
      <trkpt lat="48.622642960399389" lon="-4.479031981900334">
        <ele>20.809999999999999</ele>
        <time>2018-07-06T09:01:19Z</time>
      </trkpt>
      <trkpt lat="48.622591998428106" lon="-4.479139018803835">
        <ele>21.77</ele>
        <time>2018-07-06T09:01:20Z</time>
      </trkpt>
      <trkpt lat="48.62257800064981" lon="-4.479318978264928">
        <ele>22.25</ele>
        <time>2018-07-06T09:01:21Z</time>
      </trkpt>
      <trkpt lat="48.622566014528275" lon="-4.47947102598846">
        <ele>23.210000000000001</ele>
        <time>2018-07-06T09:01:22Z</time>
      </trkpt>
      <trkpt lat="48.622554028406739" lon="-4.479631036520004">
        <ele>23.690000000000001</ele>
        <time>2018-07-06T09:01:23Z</time>
      </trkpt>
      <trkpt lat="48.622541958466172" lon="-4.47979599237442">
        <ele>24.649999999999999</ele>
        <time>2018-07-06T09:01:24Z</time>
      </trkpt>
      <trkpt lat="48.622528966516256" lon="-4.479961032047868">
        <ele>25.129999999999999</ele>
        <time>2018-07-06T09:01:25Z</time>
      </trkpt>
      <trkpt lat="48.622470963746309" lon="-4.480123976245523">
        <ele>26.09</ele>
        <time>2018-07-06T09:01:26Z</time>
      </trkpt>
      <trkpt lat="48.622414972633123" lon="-4.480273006483913">
        <ele>26.57</ele>
        <time>2018-07-06T09:01:27Z</time>
      </trkpt>
      <trkpt lat="48.622124036774039" lon="-4.481037016957998">
        <ele>30.420000000000002</ele>
        <time>2018-07-06T09:01:32Z</time>
      </trkpt>
      <trkpt lat="48.622052036225796" lon="-4.481116980314255">
        <ele>30.899999999999999</ele>
        <time>2018-07-06T09:01:33Z</time>
      </trkpt>
      <trkpt lat="48.621991015970707" lon="-4.481176994740963">
        <ele>31.379999999999999</ele>
        <time>2018-07-06T09:01:34Z</time>
      </trkpt>
      <trkpt lat="48.621991015970707" lon="-4.481176994740963">
        <ele>32.340000000000003</ele>
        <time>2018-07-06T09:01:35Z</time>
      </trkpt>
      <trkpt lat="48.62189001403749" lon="-4.481199961155653">
        <ele>33.299999999999997</ele>
        <time>2018-07-06T09:01:36Z</time>
      </trkpt>
      <trkpt lat="48.621855983510613" lon="-4.481207001954317">
        <ele>33.780000000000001</ele>
        <time>2018-07-06T09:01:37Z</time>
      </trkpt>
      <trkpt lat="48.621836034581065" lon="-4.48121203109622">
        <ele>34.740000000000002</ele>
        <time>2018-07-06T09:01:38Z</time>
      </trkpt>
      <trkpt lat="48.621836034581065" lon="-4.48121203109622">
        <ele>39.07</ele>
        <time>2018-07-06T09:01:48Z</time>
      </trkpt>
      <trkpt lat="48.62180502153933" lon="-4.481218988075852">
        <ele>40.990000000000002</ele>
        <time>2018-07-06T09:02:20Z</time>
      </trkpt>
      <trkpt lat="48.621797980740666" lon="-4.481219993904233">
        <ele>40.990000000000002</ele>
        <time>2018-07-06T09:02:21Z</time>
      </trkpt>
      <trkpt lat="48.621763028204441" lon="-4.481200966984034">
        <ele>40.990000000000002</ele>
        <time>2018-07-06T09:02:22Z</time>
      </trkpt>
      <trkpt lat="48.621693961322308" lon="-4.481164002791047">
        <ele>40.990000000000002</ele>
        <time>2018-07-06T09:02:23Z</time>
      </trkpt>
      <trkpt lat="48.621617015451193" lon="-4.481122009456158">
        <ele>40.990000000000002</ele>
        <time>2018-07-06T09:02:24Z</time>
      </trkpt>
      <trkpt lat="48.621562030166388" lon="-4.481092002242804">
        <ele>41.469999999999999</ele>
        <time>2018-07-06T09:02:25Z</time>
      </trkpt>
      <trkpt lat="48.621512996032834" lon="-4.48099996894598">
        <ele>41.950000000000003</ele>
        <time>2018-07-06T09:02:26Z</time>
      </trkpt>
      <trkpt lat="48.621449964120984" lon="-4.480881029739976">
        <ele>42.920000000000002</ele>
        <time>2018-07-06T09:02:27Z</time>
      </trkpt>
      <trkpt lat="48.621390033513308" lon="-4.480769969522953">
        <ele>42.920000000000002</ele>
        <time>2018-07-06T09:02:28Z</time>
      </trkpt>
      <trkpt lat="48.621119968593121" lon="-4.480115007609129">
        <ele>44.359999999999999</ele>
        <time>2018-07-06T09:02:33Z</time>
      </trkpt>
      <trkpt lat="48.620902961120009" lon="-4.479766990989447">
        <ele>45.32</ele>
        <time>2018-07-06T09:02:36Z</time>
      </trkpt>
      <trkpt lat="48.620816040784121" lon="-4.479680992662907">
        <ele>45.799999999999997</ele>
        <time>2018-07-06T09:02:37Z</time>
      </trkpt>
      <trkpt lat="48.620703974738717" lon="-4.47962298989296">
        <ele>46.759999999999998</ele>
        <time>2018-07-06T09:02:38Z</time>
      </trkpt>
      <trkpt lat="48.62060003913939" lon="-4.479585019871593">
        <ele>47.719999999999999</ele>
        <time>2018-07-06T09:02:39Z</time>
      </trkpt>
      <trkpt lat="48.620480010285974" lon="-4.479564987123013">
        <ele>48.200000000000003</ele>
        <time>2018-07-06T09:02:40Z</time>
      </trkpt>
      <trkpt lat="48.620360987260938" lon="-4.479559035971761">
        <ele>49.159999999999997</ele>
        <time>2018-07-06T09:02:41Z</time>
      </trkpt>
      <trkpt lat="48.619455993175507" lon="-4.47951503098011">
        <ele>55.890000000000001</ele>
        <time>2018-07-06T09:02:50Z</time>
      </trkpt>
      <trkpt lat="48.619344010949135" lon="-4.479508996009827">
        <ele>55.890000000000001</ele>
        <time>2018-07-06T09:02:51Z</time>
      </trkpt>
      <trkpt lat="48.619223982095718" lon="-4.479497009888291">
        <ele>56.369999999999997</ele>
        <time>2018-07-06T09:02:52Z</time>
      </trkpt>
      <trkpt lat="48.618161994963884" lon="-4.479057965800166">
        <ele>60.700000000000003</ele>
        <time>2018-07-06T09:03:01Z</time>
      </trkpt>
      <trkpt lat="48.617900982499123" lon="-4.478844981640577">
        <ele>62.140000000000001</ele>
        <time>2018-07-06T09:03:06Z</time>
      </trkpt>
      <trkpt lat="48.61785002052784" lon="-4.478877000510693">
        <ele>62.140000000000001</ele>
        <time>2018-07-06T09:03:07Z</time>
      </trkpt>
      <trkpt lat="48.617791011929512" lon="-4.478930979967117">
        <ele>62.619999999999997</ele>
        <time>2018-07-06T09:03:08Z</time>
      </trkpt>
      <trkpt lat="48.617023983970284" lon="-4.479455016553402">
        <ele>65.989999999999995</ele>
        <time>2018-07-06T09:03:16Z</time>
      </trkpt>
      <trkpt lat="48.61677898094058" lon="-4.479612009599805">
        <ele>66.469999999999999</ele>
        <time>2018-07-06T09:03:18Z</time>
      </trkpt>
      <trkpt lat="48.616647971794009" lon="-4.479697002097964">
        <ele>66.950000000000003</ele>
        <time>2018-07-06T09:03:19Z</time>
      </trkpt>
      <trkpt lat="48.616561973467469" lon="-4.479812001809478">
        <ele>66.950000000000003</ele>
        <time>2018-07-06T09:03:20Z</time>
      </trkpt>
      <trkpt lat="48.616469018161297" lon="-4.479935970157385">
        <ele>66.950000000000003</ele>
        <time>2018-07-06T09:03:21Z</time>
      </trkpt>
      <trkpt lat="48.616383019834757" lon="-4.480049964040518">
        <ele>67.430000000000007</ele>
        <time>2018-07-06T09:03:22Z</time>
      </trkpt>
      <trkpt lat="48.616099040955305" lon="-4.480428993701935">
        <ele>66.950000000000003</ele>
        <time>2018-07-06T09:03:26Z</time>
      </trkpt>
      <trkpt lat="48.616033997386694" lon="-4.480515997856855">
        <ele>66.469999999999999</ele>
        <time>2018-07-06T09:03:27Z</time>
      </trkpt>
      <trkpt lat="48.6159179918468" lon="-4.480527983978391">
        <ele>65.989999999999995</ele>
        <time>2018-07-06T09:03:28Z</time>
      </trkpt>
      <trkpt lat="48.615817995741963" lon="-4.480495965108275">
        <ele>65.510000000000005</ele>
        <time>2018-07-06T09:03:29Z</time>
      </trkpt>
      <trkpt lat="48.615705007687211" lon="-4.48046000674367">
        <ele>65.510000000000005</ele>
        <time>2018-07-06T09:03:30Z</time>
      </trkpt>
      <trkpt lat="48.614301960915327" lon="-4.479977041482925">
        <ele>66.950000000000003</ele>
        <time>2018-07-06T09:03:40Z</time>
      </trkpt>
      <trkpt lat="48.613166967406869" lon="-4.479469014331698">
        <ele>71.760000000000005</ele>
        <time>2018-07-06T09:03:49Z</time>
      </trkpt>
      <trkpt lat="48.61282498575747" lon="-4.479367006570101">
        <ele>72.719999999999999</ele>
        <time>2018-07-06T09:03:53Z</time>
      </trkpt>
      <trkpt lat="48.612762037664652" lon="-4.479362983256578">
        <ele>73.200000000000003</ele>
        <time>2018-07-06T09:03:54Z</time>
      </trkpt>
      <trkpt lat="48.612711997702718" lon="-4.479359965771437">
        <ele>73.200000000000003</ele>
        <time>2018-07-06T09:03:55Z</time>
      </trkpt>
      <trkpt lat="48.61267201602459" lon="-4.479357032105327">
        <ele>73.680000000000007</ele>
        <time>2018-07-06T09:03:56Z</time>
      </trkpt>
      <trkpt lat="48.61260898411274" lon="-4.479425009340048">
        <ele>73.680000000000007</ele>
        <time>2018-07-06T09:03:57Z</time>
      </trkpt>
      <trkpt lat="48.612604960799217" lon="-4.47949399240315">
        <ele>74.159999999999997</ele>
        <time>2018-07-06T09:03:58Z</time>
      </trkpt>
      <trkpt lat="48.612598003819585" lon="-4.479589965194464">
        <ele>74.640000000000001</ele>
        <time>2018-07-06T09:03:59Z</time>
      </trkpt>
      <trkpt lat="48.612590041011572" lon="-4.479707982391119">
        <ele>74.640000000000001</ele>
        <time>2018-07-06T09:04:00Z</time>
      </trkpt>
      <trkpt lat="48.612580988556147" lon="-4.479847038164735">
        <ele>74.640000000000001</ele>
        <time>2018-07-06T09:04:01Z</time>
      </trkpt>
      <trkpt lat="48.612481998279691" lon="-4.481314038857818">
        <ele>74.159999999999997</ele>
        <time>2018-07-06T09:04:08Z</time>
      </trkpt>
      <trkpt lat="48.612628011032939" lon="-4.483064012601972">
        <ele>71.760000000000005</ele>
        <time>2018-07-06T09:04:14Z</time>
      </trkpt>
      <trkpt lat="48.61267302185297" lon="-4.484287016093731">
        <ele>68.870000000000005</ele>
        <time>2018-07-06T09:04:18Z</time>
      </trkpt>
      <trkpt lat="48.612659024074674" lon="-4.484578035771847">
        <ele>68.390000000000001</ele>
        <time>2018-07-06T09:04:19Z</time>
      </trkpt>
      <trkpt lat="48.612610995769501" lon="-4.484856985509396">
        <ele>67.909999999999997</ele>
        <time>2018-07-06T09:04:20Z</time>
      </trkpt>
      <trkpt lat="48.61194396391511" lon="-4.487733989953995">
        <ele>63.579999999999998</ele>
        <time>2018-07-06T09:04:30Z</time>
      </trkpt>
      <trkpt lat="48.610984990373254" lon="-4.491730984300375">
        <ele>62.140000000000001</ele>
        <time>2018-07-06T09:04:44Z</time>
      </trkpt>
      <trkpt lat="48.610071027651429" lon="-4.494427023455501">
        <ele>64.069999999999993</ele>
        <time>2018-07-06T09:04:54Z</time>
      </trkpt>
      <trkpt lat="48.608894040808082" lon="-4.496026961132884">
        <ele>65.510000000000005</ele>
        <time>2018-07-06T09:05:02Z</time>
      </trkpt>
      <trkpt lat="48.607691992074251" lon="-4.497334035113454">
        <ele>66.469999999999999</ele>
        <time>2018-07-06T09:05:12Z</time>
      </trkpt>
      <trkpt lat="48.606131030246615" lon="-4.499073028564453">
        <ele>64.069999999999993</ele>
        <time>2018-07-06T09:05:24Z</time>
      </trkpt>
      <trkpt lat="48.604806018993258" lon="-4.500551009550691">
        <ele>57.82</ele>
        <time>2018-07-06T09:05:34Z</time>
      </trkpt>
      <trkpt lat="48.603819971904159" lon="-4.501755991950631">
        <ele>50.609999999999999</ele>
        <time>2018-07-06T09:05:44Z</time>
      </trkpt>
      <trkpt lat="48.603751994669437" lon="-4.501863028854132">
        <ele>50.130000000000003</ele>
        <time>2018-07-06T09:05:45Z</time>
      </trkpt>
      <trkpt lat="48.60371402464807" lon="-4.502008035778999">
        <ele>49.159999999999997</ele>
        <time>2018-07-06T09:05:46Z</time>
      </trkpt>
      <trkpt lat="48.603674964979291" lon="-4.502151031047106">
        <ele>48.68</ele>
        <time>2018-07-06T09:05:47Z</time>
      </trkpt>
      <trkpt lat="48.603638000786304" lon="-4.502288997173309">
        <ele>48.200000000000003</ele>
        <time>2018-07-06T09:05:48Z</time>
      </trkpt>
      <trkpt lat="48.603592989966273" lon="-4.502428974956274">
        <ele>47.719999999999999</ele>
        <time>2018-07-06T09:05:49Z</time>
      </trkpt>
      <trkpt lat="48.603516966104507" lon="-4.50250499881804">
        <ele>47.240000000000002</ele>
        <time>2018-07-06T09:05:50Z</time>
      </trkpt>
      <trkpt lat="48.603426022455096" lon="-4.50259099714458">
        <ele>46.759999999999998</ele>
        <time>2018-07-06T09:05:51Z</time>
      </trkpt>
      <trkpt lat="48.603301970288157" lon="-4.502570964396">
        <ele>46.759999999999998</ele>
        <time>2018-07-06T09:05:52Z</time>
      </trkpt>
      <trkpt lat="48.603223012760282" lon="-4.502578005194664">
        <ele>46.280000000000001</ele>
        <time>2018-07-06T09:05:53Z</time>
      </trkpt>
      <trkpt lat="48.603117987513542" lon="-4.502588985487819">
        <ele>46.280000000000001</ele>
        <time>2018-07-06T09:05:54Z</time>
      </trkpt>
      <trkpt lat="48.603014973923564" lon="-4.502652017399669">
        <ele>45.799999999999997</ele>
        <time>2018-07-06T09:05:55Z</time>
      </trkpt>
      <trkpt lat="48.602916989475489" lon="-4.50274002738297">
        <ele>45.799999999999997</ele>
        <time>2018-07-06T09:05:56Z</time>
      </trkpt>
      <trkpt lat="48.601884003728628" lon="-4.50379597954452">
        <ele>41.950000000000003</ele>
        <time>2018-07-06T09:06:05Z</time>
      </trkpt>
      <trkpt lat="48.600475005805492" lon="-4.505063993856311">
        <ele>42.920000000000002</ele>
        <time>2018-07-06T09:06:14Z</time>
      </trkpt>
      <trkpt lat="48.599132979288697" lon="-4.505782993510366">
        <ele>47.240000000000002</ele>
        <time>2018-07-06T09:06:22Z</time>
      </trkpt>
      <trkpt lat="48.597553996369243" lon="-4.506043000146747">
        <ele>51.57</ele>
        <time>2018-07-06T09:06:30Z</time>
      </trkpt>
      <trkpt lat="48.595343017950654" lon="-4.505662964656949">
        <ele>55.890000000000001</ele>
        <time>2018-07-06T09:06:41Z</time>
      </trkpt>
      <trkpt lat="48.592680003494024" lon="-4.505220986902714">
        <ele>47.240000000000002</ele>
        <time>2018-07-06T09:06:54Z</time>
      </trkpt>
      <trkpt lat="48.590834978967905" lon="-4.505124008283019">
        <ele>34.740000000000002</ele>
        <time>2018-07-06T09:07:03Z</time>
      </trkpt>
      <trkpt lat="48.58908399939537" lon="-4.505762038752437">
        <ele>20.809999999999999</ele>
        <time>2018-07-06T09:07:12Z</time>
      </trkpt>
      <trkpt lat="48.585847998037934" lon="-4.507379997521639">
        <ele>16.48</ele>
        <time>2018-07-06T09:07:29Z</time>
      </trkpt>
      <trkpt lat="48.583555966615677" lon="-4.508519014343619">
        <ele>27.050000000000001</ele>
        <time>2018-07-06T09:07:41Z</time>
      </trkpt>
      <trkpt lat="48.58033899217844" lon="-4.509856011718512">
        <ele>44.840000000000003</ele>
        <time>2018-07-06T09:07:57Z</time>
      </trkpt>
      <trkpt lat="48.57806297019124" lon="-4.510332019999623">
        <ele>51.090000000000003</ele>
        <time>2018-07-06T09:08:08Z</time>
      </trkpt>
      <trkpt lat="48.576154997572303" lon="-4.510387005284429">
        <ele>50.130000000000003</ele>
        <time>2018-07-06T09:08:18Z</time>
      </trkpt>
      <trkpt lat="48.575834976509213" lon="-4.510382981970906">
        <ele>49.159999999999997</ele>
        <time>2018-07-06T09:08:21Z</time>
      </trkpt>
      <trkpt lat="48.575750989839435" lon="-4.510381976142526">
        <ele>49.159999999999997</ele>
        <time>2018-07-06T09:08:22Z</time>
      </trkpt>
      <trkpt lat="48.575585028156638" lon="-4.510552966967225">
        <ele>49.159999999999997</ele>
        <time>2018-07-06T09:08:24Z</time>
      </trkpt>
      <trkpt lat="48.575501041486859" lon="-4.510552966967225">
        <ele>49.159999999999997</ele>
        <time>2018-07-06T09:08:25Z</time>
      </trkpt>
      <trkpt lat="48.575428035110235" lon="-4.510360015556216">
        <ele>49.159999999999997</ele>
        <time>2018-07-06T09:08:26Z</time>
      </trkpt>
      <trkpt lat="48.575234999880195" lon="-4.510324979200959">
        <ele>49.159999999999997</ele>
        <time>2018-07-06T09:08:28Z</time>
      </trkpt>
      <trkpt lat="48.575113965198398" lon="-4.51030301861465">
        <ele>49.159999999999997</ele>
        <time>2018-07-06T09:08:29Z</time>
      </trkpt>
      <trkpt lat="48.573949970304966" lon="-4.510092968121171">
        <ele>47.719999999999999</ele>
        <time>2018-07-06T09:08:36Z</time>
      </trkpt>
      <trkpt lat="48.571883998811245" lon="-4.50953003950417">
        <ele>46.280000000000001</ele>
        <time>2018-07-06T09:08:48Z</time>
      </trkpt>
      <trkpt lat="48.569892039522529" lon="-4.508875999599695">
        <ele>44.359999999999999</ele>
        <time>2018-07-06T09:09:01Z</time>
      </trkpt>
      <trkpt lat="48.568825023248792" lon="-4.508704002946615">
        <ele>43.880000000000003</ele>
        <time>2018-07-06T09:09:10Z</time>
      </trkpt>
      <trkpt lat="48.568761991336942" lon="-4.508706014603376">
        <ele>43.880000000000003</ele>
        <time>2018-07-06T09:09:11Z</time>
      </trkpt>
      <trkpt lat="48.568701976910233" lon="-4.508727975189686">
        <ele>43.880000000000003</ele>
        <time>2018-07-06T09:09:12Z</time>
      </trkpt>
      <trkpt lat="48.568699965253472" lon="-4.508820008486509">
        <ele>44.359999999999999</ele>
        <time>2018-07-06T09:09:13Z</time>
      </trkpt>
      <trkpt lat="48.568711029365659" lon="-4.508908018469811">
        <ele>44.359999999999999</ele>
        <time>2018-07-06T09:09:14Z</time>
      </trkpt>
      <trkpt lat="48.568725027143955" lon="-4.509011032059789">
        <ele>44.840000000000003</ele>
        <time>2018-07-06T09:09:15Z</time>
      </trkpt>
      <trkpt lat="48.568747993558645" lon="-4.509111028164625">
        <ele>44.840000000000003</ele>
        <time>2018-07-06T09:09:16Z</time>
      </trkpt>
      <trkpt lat="48.568789986893535" lon="-4.509220998734236">
        <ele>44.840000000000003</ele>
        <time>2018-07-06T09:09:17Z</time>
      </trkpt>
      <trkpt lat="48.568836003541946" lon="-4.509341027587652">
        <ele>44.840000000000003</ele>
        <time>2018-07-06T09:09:18Z</time>
      </trkpt>
      <trkpt lat="48.568884031847119" lon="-4.50946700759232">
        <ele>44.359999999999999</ele>
        <time>2018-07-06T09:09:19Z</time>
      </trkpt>
      <trkpt lat="48.568947985768318" lon="-4.509591981768608">
        <ele>44.359999999999999</ele>
        <time>2018-07-06T09:09:20Z</time>
      </trkpt>
      <trkpt lat="48.569477973505855" lon="-4.510448025539517">
        <ele>43.880000000000003</ele>
        <time>2018-07-06T09:09:28Z</time>
      </trkpt>
      <trkpt lat="48.569809980690479" lon="-4.511414039880037">
        <ele>45.32</ele>
        <time>2018-07-06T09:09:37Z</time>
      </trkpt>
      <trkpt lat="48.569860020652413" lon="-4.511649990454316">
        <ele>45.32</ele>
        <time>2018-07-06T09:09:40Z</time>
      </trkpt>
      <trkpt lat="48.569935038685799" lon="-4.511755015701056">
        <ele>45.32</ele>
        <time>2018-07-06T09:09:41Z</time>
      </trkpt>
      <trkpt lat="48.569964040070772" lon="-4.511783011257649">
        <ele>45.32</ele>
        <time>2018-07-06T09:09:42Z</time>
      </trkpt>
      <trkpt lat="48.570021959021688" lon="-4.511844031512737">
        <ele>45.32</ele>
        <time>2018-07-06T09:09:43Z</time>
      </trkpt>
      <trkpt lat="48.570050960406661" lon="-4.511934975162149">
        <ele>45.799999999999997</ele>
        <time>2018-07-06T09:09:44Z</time>
      </trkpt>
      <trkpt lat="48.570081973448396" lon="-4.512031031772494">
        <ele>45.799999999999997</ele>
        <time>2018-07-06T09:09:45Z</time>
      </trkpt>
      <trkpt lat="48.570113992318511" lon="-4.512133961543441">
        <ele>46.280000000000001</ele>
        <time>2018-07-06T09:09:46Z</time>
      </trkpt>
      <trkpt lat="48.57028397731483" lon="-4.512769980356097">
        <ele>46.759999999999998</ele>
        <time>2018-07-06T09:09:52Z</time>
      </trkpt>
      <trkpt lat="48.570317002013326" lon="-4.512863019481301">
        <ele>47.240000000000002</ele>
        <time>2018-07-06T09:09:53Z</time>
      </trkpt>
      <trkpt lat="48.570342985913157" lon="-4.512935020029545">
        <ele>47.240000000000002</ele>
        <time>2018-07-06T09:09:54Z</time>
      </trkpt>
      <trkpt lat="48.570342985913157" lon="-4.513034010306001">
        <ele>47.240000000000002</ele>
        <time>2018-07-06T09:09:55Z</time>
      </trkpt>
      <trkpt lat="48.570342985913157" lon="-4.513123026117683">
        <ele>47.719999999999999</ele>
        <time>2018-07-06T09:09:56Z</time>
      </trkpt>
      <trkpt lat="48.570330999791622" lon="-4.513199971988797">
        <ele>47.719999999999999</ele>
        <time>2018-07-06T09:09:57Z</time>
      </trkpt>
      <trkpt lat="48.570280037820339" lon="-4.513237020000815">
        <ele>47.240000000000002</ele>
        <time>2018-07-06T09:09:58Z</time>
      </trkpt>
      <trkpt lat="48.570256987586617" lon="-4.513493003323674">
        <ele>47.240000000000002</ele>
        <time>2018-07-06T09:09:59Z</time>
      </trkpt>
      <trkpt lat="48.57026201672852" lon="-4.513524016365409">
        <ele>47.240000000000002</ele>
        <time>2018-07-06T09:10:00Z</time>
      </trkpt>
      <trkpt lat="48.570280037820339" lon="-4.513638010248542">
        <ele>47.240000000000002</ele>
        <time>2018-07-06T09:10:01Z</time>
      </trkpt>
      <trkpt lat="48.570298980921507" lon="-4.513759966939688">
        <ele>47.240000000000002</ele>
        <time>2018-07-06T09:10:02Z</time>
      </trkpt>
      <trkpt lat="48.570321025326848" lon="-4.513989966362715">
        <ele>47.240000000000002</ele>
        <time>2018-07-06T09:10:04Z</time>
      </trkpt>
      <trkpt lat="48.570260005071759" lon="-4.515142980962992">
        <ele>47.719999999999999</ele>
        <time>2018-07-06T09:10:15Z</time>
      </trkpt>
      <trkpt lat="48.570226980373263" lon="-4.515327969565988">
        <ele>47.719999999999999</ele>
        <time>2018-07-06T09:10:17Z</time>
      </trkpt>
      <trkpt lat="48.570063030347228" lon="-4.516120981425047">
        <ele>47.719999999999999</ele>
        <time>2018-07-06T09:10:25Z</time>
      </trkpt>
      <trkpt lat="48.569902013987303" lon="-4.517234014347196">
        <ele>46.759999999999998</ele>
        <time>2018-07-06T09:10:35Z</time>
      </trkpt>
      <trkpt lat="48.569892961531878" lon="-4.517345996573567">
        <ele>47.240000000000002</ele>
        <time>2018-07-06T09:10:36Z</time>
      </trkpt>
      <trkpt lat="48.569991029798985" lon="-4.518933026120067">
        <ele>49.159999999999997</ele>
        <time>2018-07-06T09:10:50Z</time>
      </trkpt>
      <trkpt lat="48.569998992606997" lon="-4.519450021907687">
        <ele>49.649999999999999</ele>
        <time>2018-07-06T09:10:55Z</time>
      </trkpt>
      <trkpt lat="48.569998992606997" lon="-4.520129039883614">
        <ele>50.130000000000003</ele>
        <time>2018-07-06T09:11:03Z</time>
      </trkpt>
      <trkpt lat="48.569998992606997" lon="-4.52027396298945">
        <ele>50.609999999999999</ele>
        <time>2018-07-06T09:11:06Z</time>
      </trkpt>
      <trkpt lat="48.569998992606997" lon="-4.52027396298945">
        <ele>50.609999999999999</ele>
        <time>2018-07-06T09:11:07Z</time>
      </trkpt>
      <trkpt lat="48.569998992606997" lon="-4.52027396298945">
        <ele>50.609999999999999</ele>
        <time>2018-07-06T09:11:08Z</time>
      </trkpt>
      <trkpt lat="48.569998992606997" lon="-4.52027396298945">
        <ele>50.609999999999999</ele>
        <time>2018-07-06T09:11:25Z</time>
      </trkpt>
      <trkpt lat="48.569998992606997" lon="-4.52027396298945">
        <ele>50.130000000000003</ele>
        <time>2018-07-06T09:11:55Z</time>
      </trkpt>
      <trkpt lat="48.569998992606997" lon="-4.520373037084937">
        <ele>50.130000000000003</ele>
        <time>2018-07-06T09:11:56Z</time>
      </trkpt>
      <trkpt lat="48.569998992606997" lon="-4.520427016541362">
        <ele>50.130000000000003</ele>
        <time>2018-07-06T09:11:57Z</time>
      </trkpt>
      <trkpt lat="48.569998992606997" lon="-4.520490970462561">
        <ele>50.130000000000003</ele>
        <time>2018-07-06T09:11:58Z</time>
      </trkpt>
      <trkpt lat="48.569998992606997" lon="-4.520563976839185">
        <ele>50.130000000000003</ele>
        <time>2018-07-06T09:11:59Z</time>
      </trkpt>
      <trkpt lat="48.569998992606997" lon="-4.521029004827142">
        <ele>48.68</ele>
        <time>2018-07-06T09:12:05Z</time>
      </trkpt>
      <trkpt lat="48.569998992606997" lon="-4.521107962355018">
        <ele>48.200000000000003</ele>
        <time>2018-07-06T09:12:06Z</time>
      </trkpt>
      <trkpt lat="48.569998992606997" lon="-4.521182980388403">
        <ele>47.719999999999999</ele>
        <time>2018-07-06T09:12:07Z</time>
      </trkpt>
      <trkpt lat="48.569998992606997" lon="-4.521256992593408">
        <ele>46.759999999999998</ele>
        <time>2018-07-06T09:12:08Z</time>
      </trkpt>
      <trkpt lat="48.569998992606997" lon="-4.521327987313271">
        <ele>46.759999999999998</ele>
        <time>2018-07-06T09:12:09Z</time>
      </trkpt>
      <trkpt lat="48.569998992606997" lon="-4.521388001739979">
        <ele>45.799999999999997</ele>
        <time>2018-07-06T09:12:10Z</time>
      </trkpt>
      <trkpt lat="48.569998992606997" lon="-4.521439969539642">
        <ele>45.799999999999997</ele>
        <time>2018-07-06T09:12:11Z</time>
      </trkpt>
      <trkpt lat="48.569998992606997" lon="-4.521483974531293">
        <ele>45.32</ele>
        <time>2018-07-06T09:12:12Z</time>
      </trkpt>
      <trkpt lat="48.569998992606997" lon="-4.521523034200072">
        <ele>44.840000000000003</ele>
        <time>2018-07-06T09:12:13Z</time>
      </trkpt>
      <trkpt lat="48.569998992606997" lon="-4.521551029756665">
        <ele>44.359999999999999</ele>
        <time>2018-07-06T09:12:14Z</time>
      </trkpt>
      <trkpt lat="48.569998992606997" lon="-4.521551029756665">
        <ele>43.880000000000003</ele>
        <time>2018-07-06T09:12:27Z</time>
      </trkpt>
      <trkpt lat="48.569998992606997" lon="-4.521653037518263">
        <ele>41.950000000000003</ele>
        <time>2018-07-06T09:12:56Z</time>
      </trkpt>
      <trkpt lat="48.569998992606997" lon="-4.521724032238126">
        <ele>41.950000000000003</ele>
        <time>2018-07-06T09:12:57Z</time>
      </trkpt>
      <trkpt lat="48.569998992606997" lon="-4.521800978109241">
        <ele>40.990000000000002</ele>
        <time>2018-07-06T09:12:58Z</time>
      </trkpt>
      <trkpt lat="48.569998992606997" lon="-4.521867027506232">
        <ele>40.990000000000002</ele>
        <time>2018-07-06T09:12:59Z</time>
      </trkpt>
      <trkpt lat="48.569979965686798" lon="-4.521936010569334">
        <ele>41.469999999999999</ele>
        <time>2018-07-06T09:13:00Z</time>
      </trkpt>
      <trkpt lat="48.569924980401993" lon="-4.521968029439449">
        <ele>42.439999999999998</ele>
        <time>2018-07-06T09:13:01Z</time>
      </trkpt>
      <trkpt lat="48.569869995117188" lon="-4.521998958662152">
        <ele>42.439999999999998</ele>
        <time>2018-07-06T09:13:02Z</time>
      </trkpt>
      <trkpt lat="48.569849040359259" lon="-4.522011028602719">
        <ele>42.439999999999998</ele>
        <time>2018-07-06T09:13:03Z</time>
      </trkpt>
      <trkpt lat="48.569762958213687" lon="-4.522026032209396">
        <ele>41.950000000000003</ele>
        <time>2018-07-06T09:13:04Z</time>
      </trkpt>
      <trkpt lat="48.569711996242404" lon="-4.522033995017409">
        <ele>41.469999999999999</ele>
        <time>2018-07-06T09:13:05Z</time>
      </trkpt>
      <trkpt lat="48.569665979593992" lon="-4.522042041644454">
        <ele>40.990000000000002</ele>
        <time>2018-07-06T09:13:06Z</time>
      </trkpt>
      <trkpt lat="48.569619040936232" lon="-4.522050004452467">
        <ele>40.509999999999998</ele>
        <time>2018-07-06T09:13:07Z</time>
      </trkpt>
      <trkpt lat="48.569268006831408" lon="-4.521978003904223">
        <ele>38.109999999999999</ele>
        <time>2018-07-06T09:13:14Z</time>
      </trkpt>
      <trkpt lat="48.56920899823308" lon="-4.521982027217746">
        <ele>37.630000000000003</ele>
        <time>2018-07-06T09:13:15Z</time>
      </trkpt>
      <trkpt lat="48.569163987413049" lon="-4.522015973925591">
        <ele>37.630000000000003</ele>
        <time>2018-07-06T09:13:16Z</time>
      </trkpt>
      <trkpt lat="48.569135991856456" lon="-4.522085962817073">
        <ele>37.630000000000003</ele>
        <time>2018-07-06T09:13:17Z</time>
      </trkpt>
      <trkpt lat="48.569130040705204" lon="-4.522144971415401">
        <ele>37.149999999999999</ele>
        <time>2018-07-06T09:13:18Z</time>
      </trkpt>
      <trkpt lat="48.569121994078159" lon="-4.522217977792025">
        <ele>37.149999999999999</ele>
        <time>2018-07-06T09:13:19Z</time>
      </trkpt>
      <trkpt lat="48.569115037098527" lon="-4.522291989997029">
        <ele>37.149999999999999</ele>
        <time>2018-07-06T09:13:20Z</time>
      </trkpt>
      <trkpt lat="48.569109002128243" lon="-4.52235703356564">
        <ele>37.149999999999999</ele>
        <time>2018-07-06T09:13:21Z</time>
      </trkpt>
      <trkpt lat="48.569072959944606" lon="-4.522599019110203">
        <ele>36.189999999999998</ele>
        <time>2018-07-06T09:13:25Z</time>
      </trkpt>
      <trkpt lat="48.569061979651451" lon="-4.522659033536911">
        <ele>35.710000000000001</ele>
        <time>2018-07-06T09:13:26Z</time>
      </trkpt>
      <trkpt lat="48.569047981873155" lon="-4.522699015215039">
        <ele>35.710000000000001</ele>
        <time>2018-07-06T09:13:27Z</time>
      </trkpt>
      <trkpt lat="48.569003976881504" lon="-4.522704966366291">
        <ele>35.710000000000001</ele>
        <time>2018-07-06T09:13:28Z</time>
      </trkpt>
      <trkpt lat="48.568948991596699" lon="-4.522713012993336">
        <ele>35.710000000000001</ele>
        <time>2018-07-06T09:13:29Z</time>
      </trkpt>
      <trkpt lat="48.568885959684849" lon="-4.522718964144588">
        <ele>35.229999999999997</ele>
        <time>2018-07-06T09:13:30Z</time>
      </trkpt>
      <trkpt lat="48.568813037127256" lon="-4.522718964144588">
        <ele>35.229999999999997</ele>
        <time>2018-07-06T09:13:31Z</time>
      </trkpt>
      <trkpt lat="48.568732989951968" lon="-4.522718964144588">
        <ele>34.740000000000002</ele>
        <time>2018-07-06T09:13:32Z</time>
      </trkpt>
      <trkpt lat="48.56865000911057" lon="-4.522716030478478">
        <ele>34.259999999999998</ele>
        <time>2018-07-06T09:13:33Z</time>
      </trkpt>
      <trkpt lat="48.568215994164348" lon="-4.5227010268718">
        <ele>31.859999999999999</ele>
        <time>2018-07-06T09:13:39Z</time>
      </trkpt>
      <trkpt lat="48.568155979737639" lon="-4.522699015215039">
        <ele>30.899999999999999</ele>
        <time>2018-07-06T09:13:45Z</time>
      </trkpt>
      <trkpt lat="48.567675026133657" lon="-4.522898001596332">
        <ele>27.530000000000001</ele>
        <time>2018-07-06T09:13:52Z</time>
      </trkpt>
      <trkpt lat="48.566775983199477" lon="-4.52368900179863">
        <ele>23.210000000000001</ele>
        <time>2018-07-06T09:14:02Z</time>
      </trkpt>
      <trkpt lat="48.566643968224525" lon="-4.523821016773582">
        <ele>22.25</ele>
        <time>2018-07-06T09:14:07Z</time>
      </trkpt>
      <trkpt lat="48.566616978496313" lon="-4.523849012330174">
        <ele>21.77</ele>
        <time>2018-07-06T09:14:09Z</time>
      </trkpt>
      <trkpt lat="48.566592000424862" lon="-4.523872984573245">
        <ele>21.77</ele>
        <time>2018-07-06T09:14:10Z</time>
      </trkpt>
      <trkpt lat="48.56656601652503" lon="-4.523899974301457">
        <ele>21.77</ele>
        <time>2018-07-06T09:14:11Z</time>
      </trkpt>
      <trkpt lat="48.566051032394171" lon="-4.524466004222632">
        <ele>22.25</ele>
        <time>2018-07-06T09:14:19Z</time>
      </trkpt>
      <trkpt lat="48.565415013581514" lon="-4.525421960279346">
        <ele>27.050000000000001</ele>
        <time>2018-07-06T09:14:29Z</time>
      </trkpt>
      <trkpt lat="48.565261038020253" lon="-4.525636034086347">
        <ele>28.98</ele>
        <time>2018-07-06T09:14:32Z</time>
      </trkpt>
      <trkpt lat="48.565197000280023" lon="-4.525763019919395">
        <ele>29.460000000000001</ele>
        <time>2018-07-06T09:14:33Z</time>
      </trkpt>
      <trkpt lat="48.565205968916416" lon="-4.525849018245935">
        <ele>29.940000000000001</ele>
        <time>2018-07-06T09:14:34Z</time>
      </trkpt>
      <trkpt lat="48.565224995836616" lon="-4.526028977707028">
        <ele>31.379999999999999</ele>
        <time>2018-07-06T09:14:36Z</time>
      </trkpt>
      <trkpt lat="48.565232958644629" lon="-4.526135008782148">
        <ele>31.859999999999999</ele>
        <time>2018-07-06T09:14:37Z</time>
      </trkpt>
      <trkpt lat="48.5651929769665" lon="-4.526196029037237">
        <ele>32.82</ele>
        <time>2018-07-06T09:14:38Z</time>
      </trkpt>
      <trkpt lat="48.565092980861664" lon="-4.526283033192158">
        <ele>32.82</ele>
        <time>2018-07-06T09:14:39Z</time>
      </trkpt>
      <trkpt lat="48.565049981698394" lon="-4.526416976004839">
        <ele>32.82</ele>
        <time>2018-07-06T09:14:40Z</time>
      </trkpt>
      <trkpt lat="48.565002037212253" lon="-4.52656701207161">
        <ele>33.299999999999997</ele>
        <time>2018-07-06T09:14:41Z</time>
      </trkpt>
      <trkpt lat="48.564947973936796" lon="-4.526733979582787">
        <ele>33.299999999999997</ele>
        <time>2018-07-06T09:14:42Z</time>
      </trkpt>
      <trkpt lat="48.564466014504433" lon="-4.528614962473512">
        <ele>37.630000000000003</ele>
        <time>2018-07-06T09:14:51Z</time>
      </trkpt>
      <trkpt lat="48.563508968800306" lon="-4.530335012823343">
        <ele>36.189999999999998</ele>
        <time>2018-07-06T09:14:59Z</time>
      </trkpt>
      <trkpt lat="48.563056010752916" lon="-4.530937001109123">
        <ele>35.710000000000001</ele>
        <time>2018-07-06T09:15:02Z</time>
      </trkpt>
      <trkpt lat="48.562885019928217" lon="-4.531107991933823">
        <ele>35.710000000000001</ele>
        <time>2018-07-06T09:15:03Z</time>
      </trkpt>
      <trkpt lat="48.562707994133234" lon="-4.531264984980226">
        <ele>35.710000000000001</ele>
        <time>2018-07-06T09:15:04Z</time>
      </trkpt>
      <trkpt lat="48.562524011358619" lon="-4.531398005783558">
        <ele>35.710000000000001</ele>
        <time>2018-07-06T09:15:05Z</time>
      </trkpt>
      <trkpt lat="48.562334999442101" lon="-4.531504036858678">
        <ele>35.710000000000001</ele>
        <time>2018-07-06T09:15:06Z</time>
      </trkpt>
      <trkpt lat="48.562143975868821" lon="-4.531610989943147">
        <ele>36.189999999999998</ele>
        <time>2018-07-06T09:15:07Z</time>
      </trkpt>
      <trkpt lat="48.560955002903938" lon="-4.532168973237276">
        <ele>34.259999999999998</ele>
        <time>2018-07-06T09:15:13Z</time>
      </trkpt>
      <trkpt lat="48.560778982937336" lon="-4.532276010140777">
        <ele>33.780000000000001</ele>
        <time>2018-07-06T09:15:14Z</time>
      </trkpt>
      <trkpt lat="48.559591015800834" lon="-4.533075978979468">
        <ele>27.050000000000001</ele>
        <time>2018-07-06T09:15:22Z</time>
      </trkpt>
      <trkpt lat="48.559439973905683" lon="-4.533138005062938">
        <ele>26.09</ele>
        <time>2018-07-06T09:15:23Z</time>
      </trkpt>
      <trkpt lat="48.559287004172802" lon="-4.533201036974788">
        <ele>25.129999999999999</ele>
        <time>2018-07-06T09:15:24Z</time>
      </trkpt>
      <trkpt lat="48.559134034439921" lon="-4.533242024481297">
        <ele>24.170000000000002</ele>
        <time>2018-07-06T09:15:25Z</time>
      </trkpt>
      <trkpt lat="48.557777004316449" lon="-4.533408991992474">
        <ele>16</ele>
        <time>2018-07-06T09:15:34Z</time>
      </trkpt>
      <trkpt lat="48.556751981377602" lon="-4.533534971997142">
        <ele>11.67</ele>
        <time>2018-07-06T09:15:41Z</time>
      </trkpt>
      <trkpt lat="48.555390005931258" lon="-4.533881982788444">
        <ele>6.87</ele>
        <time>2018-07-06T09:15:51Z</time>
      </trkpt>
      <trkpt lat="48.553810017183423" lon="-4.535149997100234">
        <ele>7.35</ele>
        <time>2018-07-06T09:16:05Z</time>
      </trkpt>
      <trkpt lat="48.553277011960745" lon="-4.535531038418412">
        <ele>7.83</ele>
        <time>2018-07-06T09:16:10Z</time>
      </trkpt>
      <trkpt lat="48.552985992282629" lon="-4.535688031464815">
        <ele>8.789999999999999</ele>
        <time>2018-07-06T09:16:13Z</time>
      </trkpt>
      <trkpt lat="48.552906028926373" lon="-4.535765983164311">
        <ele>9.27</ele>
        <time>2018-07-06T09:16:14Z</time>
      </trkpt>
      <trkpt lat="48.55283604003489" lon="-4.535848964005709">
        <ele>9.75</ele>
        <time>2018-07-06T09:16:15Z</time>
      </trkpt>
      <trkpt lat="48.552767978981137" lon="-4.535926999524236">
        <ele>10.23</ele>
        <time>2018-07-06T09:16:16Z</time>
      </trkpt>
      <trkpt lat="48.552702013403177" lon="-4.536006962880492">
        <ele>10.23</ele>
        <time>2018-07-06T09:16:17Z</time>
      </trkpt>
      <trkpt lat="48.552657002583146" lon="-4.536118023097515">
        <ele>11.19</ele>
        <time>2018-07-06T09:16:18Z</time>
      </trkpt>
      <trkpt lat="48.552608974277973" lon="-4.536233022809029">
        <ele>11.67</ele>
        <time>2018-07-06T09:16:19Z</time>
      </trkpt>
      <trkpt lat="48.552553988993168" lon="-4.53636696562171">
        <ele>12.15</ele>
        <time>2018-07-06T09:16:20Z</time>
      </trkpt>
      <trkpt lat="48.552533034235239" lon="-4.53649302944541">
        <ele>12.630000000000001</ele>
        <time>2018-07-06T09:16:21Z</time>
      </trkpt>
      <trkpt lat="48.552510989829898" lon="-4.536624038591981">
        <ele>13.119999999999999</ele>
        <time>2018-07-06T09:16:22Z</time>
      </trkpt>
      <trkpt lat="48.552510989829898" lon="-4.536791006103158">
        <ele>14.08</ele>
        <time>2018-07-06T09:16:23Z</time>
      </trkpt>
      <trkpt lat="48.552510989829898" lon="-4.536943975836039">
        <ele>15.039999999999999</ele>
        <time>2018-07-06T09:16:24Z</time>
      </trkpt>
      <trkpt lat="48.552510989829898" lon="-4.537097029387951">
        <ele>16</ele>
        <time>2018-07-06T09:16:25Z</time>
      </trkpt>
      <trkpt lat="48.552510989829898" lon="-4.537689965218306">
        <ele>18.879999999999999</ele>
        <time>2018-07-06T09:16:29Z</time>
      </trkpt>
      <trkpt lat="48.552510989829898" lon="-4.537803959101439">
        <ele>19.359999999999999</ele>
        <time>2018-07-06T09:16:30Z</time>
      </trkpt>
      <trkpt lat="48.552456004545093" lon="-4.537941003218293">
        <ele>19.84</ele>
        <time>2018-07-06T09:16:31Z</time>
      </trkpt>
      <trkpt lat="48.552410993725061" lon="-4.538056002929807">
        <ele>20.32</ele>
        <time>2018-07-06T09:16:32Z</time>
      </trkpt>
      <trkpt lat="48.552361037582159" lon="-4.538142001256347">
        <ele>20.809999999999999</ele>
        <time>2018-07-06T09:16:33Z</time>
      </trkpt>
      <trkpt lat="48.552284007892013" lon="-4.538196986541152">
        <ele>21.289999999999999</ele>
        <time>2018-07-06T09:16:34Z</time>
      </trkpt>
      <trkpt lat="48.552212007343769" lon="-4.538249960169196">
        <ele>21.77</ele>
        <time>2018-07-06T09:16:35Z</time>
      </trkpt>
      <trkpt lat="48.552146963775158" lon="-4.538297988474369">
        <ele>22.25</ele>
        <time>2018-07-06T09:16:36Z</time>
      </trkpt>
      <trkpt lat="48.552091978490353" lon="-4.53832003287971">
        <ele>22.25</ele>
        <time>2018-07-06T09:16:37Z</time>
      </trkpt>
      <trkpt lat="48.551929034292698" lon="-4.538388010114431">
        <ele>24.170000000000002</ele>
        <time>2018-07-06T09:16:43Z</time>
      </trkpt>
      <trkpt lat="48.551889974623919" lon="-4.53842799179256">
        <ele>24.649999999999999</ele>
        <time>2018-07-06T09:16:44Z</time>
      </trkpt>
      <trkpt lat="48.551890980452299" lon="-4.538484988734126">
        <ele>24.649999999999999</ele>
        <time>2018-07-06T09:16:45Z</time>
      </trkpt>
      <trkpt lat="48.551898021250963" lon="-4.538747007027268">
        <ele>25.609999999999999</ele>
        <time>2018-07-06T09:16:48Z</time>
      </trkpt>
      <trkpt lat="48.552012015134096" lon="-4.539932040497661">
        <ele>30.420000000000002</ele>
        <time>2018-07-06T09:16:57Z</time>
      </trkpt>
      <trkpt lat="48.552246037870646" lon="-4.541193014010787">
        <ele>31.859999999999999</ele>
        <time>2018-07-06T09:17:06Z</time>
      </trkpt>
      <trkpt lat="48.552271015942097" lon="-4.541267026215792">
        <ele>32.340000000000003</ele>
        <time>2018-07-06T09:17:07Z</time>
      </trkpt>
      <trkpt lat="48.552529010921717" lon="-4.54225298948586">
        <ele>34.259999999999998</ele>
        <time>2018-07-06T09:17:16Z</time>
      </trkpt>
      <trkpt lat="48.552897982299328" lon="-4.543930040672422">
        <ele>36.670000000000002</ele>
        <time>2018-07-06T09:17:26Z</time>
      </trkpt>
      <trkpt lat="48.553213980048895" lon="-4.54560499638319">
        <ele>36.670000000000002</ele>
        <time>2018-07-06T09:17:34Z</time>
      </trkpt>
      <trkpt lat="48.553229989483953" lon="-4.545831978321075">
        <ele>36.670000000000002</ele>
        <time>2018-07-06T09:17:35Z</time>
      </trkpt>
      <trkpt lat="48.553238036110997" lon="-4.547565020620823">
        <ele>34.259999999999998</ele>
        <time>2018-07-06T09:17:41Z</time>
      </trkpt>
      <trkpt lat="48.553227977827191" lon="-4.547873977571726">
        <ele>33.780000000000001</ele>
        <time>2018-07-06T09:17:42Z</time>
      </trkpt>
      <trkpt lat="48.553218003362417" lon="-4.548178995028138">
        <ele>33.780000000000001</ele>
        <time>2018-07-06T09:17:43Z</time>
      </trkpt>
      <trkpt lat="48.553133010864258" lon="-4.550342028960586">
        <ele>34.740000000000002</ele>
        <time>2018-07-06T09:17:51Z</time>
      </trkpt>
      <trkpt lat="48.553112978115678" lon="-4.550593988969922">
        <ele>35.229999999999997</ele>
        <time>2018-07-06T09:17:52Z</time>
      </trkpt>
      <trkpt lat="48.553092023357749" lon="-4.550843015313149">
        <ele>35.710000000000001</ele>
        <time>2018-07-06T09:17:53Z</time>
      </trkpt>
      <trkpt lat="48.553071990609169" lon="-4.551095981150866">
        <ele>36.189999999999998</ele>
        <time>2018-07-06T09:17:54Z</time>
      </trkpt>
      <trkpt lat="48.55301097035408" lon="-4.552127039059997">
        <ele>39.07</ele>
        <time>2018-07-06T09:17:58Z</time>
      </trkpt>
      <trkpt lat="48.55307299643755" lon="-4.552667001262307">
        <ele>40.509999999999998</ele>
        <time>2018-07-06T09:18:00Z</time>
      </trkpt>
      <trkpt lat="48.5532879922539" lon="-4.553417013958097">
        <ele>43.399999999999999</ele>
        <time>2018-07-06T09:18:03Z</time>
      </trkpt>
      <trkpt lat="48.553391005843878" lon="-4.553638966754079">
        <ele>44.359999999999999</ele>
        <time>2018-07-06T09:18:04Z</time>
      </trkpt>
      <trkpt lat="48.553826026618481" lon="-4.554787036031485">
        <ele>47.719999999999999</ele>
        <time>2018-07-06T09:18:09Z</time>
      </trkpt>
      <trkpt lat="48.553935997188091" lon="-4.555550962686539">
        <ele>49.649999999999999</ele>
        <time>2018-07-06T09:18:12Z</time>
      </trkpt>
      <trkpt lat="48.553946977481246" lon="-4.555812980979681">
        <ele>50.130000000000003</ele>
        <time>2018-07-06T09:18:13Z</time>
      </trkpt>
      <trkpt lat="48.553920993581414" lon="-4.556057984009385">
        <ele>50.609999999999999</ele>
        <time>2018-07-06T09:18:14Z</time>
      </trkpt>
      <trkpt lat="48.553885035216808" lon="-4.556300975382328">
        <ele>51.090000000000003</ele>
        <time>2018-07-06T09:18:15Z</time>
      </trkpt>
      <trkpt lat="48.553802976384759" lon="-4.556544972583652">
        <ele>51.57</ele>
        <time>2018-07-06T09:18:16Z</time>
      </trkpt>
      <trkpt lat="48.553721001371741" lon="-4.556792993098497">
        <ele>51.57</ele>
        <time>2018-07-06T09:18:17Z</time>
      </trkpt>
      <trkpt lat="48.55365201830864" lon="-4.557045036926866">
        <ele>51.57</ele>
        <time>2018-07-06T09:18:18Z</time>
      </trkpt>
      <trkpt lat="48.553587980568409" lon="-4.557284004986286">
        <ele>51.57</ele>
        <time>2018-07-06T09:18:19Z</time>
      </trkpt>
      <trkpt lat="48.553544981405139" lon="-4.557534037157893">
        <ele>51.57</ele>
        <time>2018-07-06T09:18:20Z</time>
      </trkpt>
      <trkpt lat="48.553555039688945" lon="-4.55776403658092">
        <ele>51.57</ele>
        <time>2018-07-06T09:18:21Z</time>
      </trkpt>
      <trkpt lat="48.553583035245538" lon="-4.558004010468721">
        <ele>51.57</ele>
        <time>2018-07-06T09:18:22Z</time>
      </trkpt>
      <trkpt lat="48.553643971681595" lon="-4.558225963264704">
        <ele>51.090000000000003</ele>
        <time>2018-07-06T09:18:23Z</time>
      </trkpt>
      <trkpt lat="48.553734999150038" lon="-4.558434002101421">
        <ele>50.609999999999999</ele>
        <time>2018-07-06T09:18:24Z</time>
      </trkpt>
      <trkpt lat="48.553842036053538" lon="-4.558626031503081">
        <ele>50.609999999999999</ele>
        <time>2018-07-06T09:18:25Z</time>
      </trkpt>
      <trkpt lat="48.553951000794768" lon="-4.55881898291409">
        <ele>51.090000000000003</ele>
        <time>2018-07-06T09:18:26Z</time>
      </trkpt>
      <trkpt lat="48.554377974942327" lon="-4.559583999216557">
        <ele>51.57</ele>
        <time>2018-07-06T09:18:30Z</time>
      </trkpt>
      <trkpt lat="48.554435977712274" lon="-4.559834031388164">
        <ele>51.57</ele>
        <time>2018-07-06T09:18:31Z</time>
      </trkpt>
      <trkpt lat="48.554493980482221" lon="-4.560080962255597">
        <ele>51.57</ele>
        <time>2018-07-06T09:18:32Z</time>
      </trkpt>
      <trkpt lat="48.55453597381711" lon="-4.560334011912346">
        <ele>51.57</ele>
        <time>2018-07-06T09:18:33Z</time>
      </trkpt>
      <trkpt lat="48.554553994908929" lon="-4.56060198135674">
        <ele>51.57</ele>
        <time>2018-07-06T09:18:34Z</time>
      </trkpt>
      <trkpt lat="48.554732026532292" lon="-4.562468966469169">
        <ele>51.090000000000003</ele>
        <time>2018-07-06T09:18:41Z</time>
      </trkpt>
      <trkpt lat="48.554795980453491" lon="-4.562712041661143">
        <ele>51.090000000000003</ele>
        <time>2018-07-06T09:18:42Z</time>
      </trkpt>
      <trkpt lat="48.554870998486876" lon="-4.562948998063803">
        <ele>50.609999999999999</ele>
        <time>2018-07-06T09:18:43Z</time>
      </trkpt>
      <trkpt lat="48.555284980684519" lon="-4.56494003534317">
        <ele>50.130000000000003</ele>
        <time>2018-07-06T09:18:51Z</time>
      </trkpt>
      <trkpt lat="48.555297972634435" lon="-4.565202975645661">
        <ele>49.649999999999999</ele>
        <time>2018-07-06T09:18:52Z</time>
      </trkpt>
      <trkpt lat="48.555271988734603" lon="-4.566020965576172">
        <ele>47.719999999999999</ele>
        <time>2018-07-06T09:18:55Z</time>
      </trkpt>
      <trkpt lat="48.555290009826422" lon="-4.566281978040934">
        <ele>47.240000000000002</ele>
        <time>2018-07-06T09:18:56Z</time>
      </trkpt>
      <trkpt lat="48.555303001776338" lon="-4.568677023053169">
        <ele>44.359999999999999</ele>
        <time>2018-07-06T09:19:05Z</time>
      </trkpt>
      <trkpt lat="48.555231001228094" lon="-4.569465005770326">
        <ele>43.399999999999999</ele>
        <time>2018-07-06T09:19:08Z</time>
      </trkpt>
      <trkpt lat="48.555134022608399" lon="-4.569680001586676">
        <ele>42.920000000000002</ele>
        <time>2018-07-06T09:19:09Z</time>
      </trkpt>
      <trkpt lat="48.555035032331944" lon="-4.569900026544929">
        <ele>42.439999999999998</ele>
        <time>2018-07-06T09:19:10Z</time>
      </trkpt>
      <trkpt lat="48.554835040122271" lon="-4.570340998470783">
        <ele>41.950000000000003</ele>
        <time>2018-07-06T09:19:12Z</time>
      </trkpt>
      <trkpt lat="48.554768990725279" lon="-4.570584995672107">
        <ele>41.469999999999999</ele>
        <time>2018-07-06T09:19:13Z</time>
      </trkpt>
      <trkpt lat="48.55470503680408" lon="-4.570831004530191">
        <ele>40.990000000000002</ele>
        <time>2018-07-06T09:19:14Z</time>
      </trkpt>
      <trkpt lat="48.554670000448823" lon="-4.571081958711147">
        <ele>40.030000000000001</ele>
        <time>2018-07-06T09:19:15Z</time>
      </trkpt>
      <trkpt lat="48.554635969921947" lon="-4.571346994489431">
        <ele>39.549999999999997</ele>
        <time>2018-07-06T09:19:16Z</time>
      </trkpt>
      <trkpt lat="48.554610991850495" lon="-4.571613958105445">
        <ele>38.590000000000003</ele>
        <time>2018-07-06T09:19:17Z</time>
      </trkpt>
      <trkpt lat="48.554602023214102" lon="-4.571888968348503">
        <ele>37.630000000000003</ele>
        <time>2018-07-06T09:19:18Z</time>
      </trkpt>
      <trkpt lat="48.554464979097247" lon="-4.574565980583429">
        <ele>26.09</ele>
        <time>2018-07-06T09:19:28Z</time>
      </trkpt>
      <trkpt lat="48.554516024887562" lon="-4.574800003319979">
        <ele>25.609999999999999</ele>
        <time>2018-07-06T09:19:29Z</time>
      </trkpt>
      <trkpt lat="48.554567992687225" lon="-4.575013993307948">
        <ele>24.649999999999999</ele>
        <time>2018-07-06T09:19:30Z</time>
      </trkpt>
      <trkpt lat="48.554620966315269" lon="-4.575235024094582">
        <ele>23.690000000000001</ele>
        <time>2018-07-06T09:19:31Z</time>
      </trkpt>
      <trkpt lat="48.554675029590726" lon="-4.575463011860848">
        <ele>22.73</ele>
        <time>2018-07-06T09:19:32Z</time>
      </trkpt>
      <trkpt lat="48.555121030658484" lon="-4.577314993366599">
        <ele>16.960000000000001</ele>
        <time>2018-07-06T09:19:40Z</time>
      </trkpt>
      <trkpt lat="48.555150032043457" lon="-4.577541975304484">
        <ele>16.48</ele>
        <time>2018-07-06T09:19:41Z</time>
      </trkpt>
      <trkpt lat="48.555170986801386" lon="-4.577777003869414">
        <ele>15.52</ele>
        <time>2018-07-06T09:19:42Z</time>
      </trkpt>
      <trkpt lat="48.555152965709567" lon="-4.578264998272061">
        <ele>14.08</ele>
        <time>2018-07-06T09:19:44Z</time>
      </trkpt>
      <trkpt lat="48.555151037871838" lon="-4.578516958281398">
        <ele>13.6</ele>
        <time>2018-07-06T09:19:45Z</time>
      </trkpt>
      <trkpt lat="48.555194037035108" lon="-4.58077697083354">
        <ele>11.19</ele>
        <time>2018-07-06T09:19:54Z</time>
      </trkpt>
      <trkpt lat="48.555319011211395" lon="-4.582487968727946">
        <ele>16</ele>
        <time>2018-07-06T09:20:01Z</time>
      </trkpt>
      <trkpt lat="48.555365027859807" lon="-4.58272903226316">
        <ele>16</ele>
        <time>2018-07-06T09:20:02Z</time>
      </trkpt>
      <trkpt lat="48.555424036458135" lon="-4.582952996715903">
        <ele>16.48</ele>
        <time>2018-07-06T09:20:03Z</time>
      </trkpt>
      <trkpt lat="48.555512968450785" lon="-4.583158018067479">
        <ele>16.48</ele>
        <time>2018-07-06T09:20:04Z</time>
      </trkpt>
      <trkpt lat="48.555605001747608" lon="-4.583361027762294">
        <ele>16.960000000000001</ele>
        <time>2018-07-06T09:20:05Z</time>
      </trkpt>
      <trkpt lat="48.555698040872812" lon="-4.583566971123219">
        <ele>17.920000000000002</ele>
        <time>2018-07-06T09:20:06Z</time>
      </trkpt>
      <trkpt lat="48.556155022233725" lon="-4.584737000986934">
        <ele>20.809999999999999</ele>
        <time>2018-07-06T09:20:12Z</time>
      </trkpt>
      <trkpt lat="48.556201960891485" lon="-4.584925007075071">
        <ele>21.289999999999999</ele>
        <time>2018-07-06T09:20:13Z</time>
      </trkpt>
      <trkpt lat="48.556201960891485" lon="-4.585123993456364">
        <ele>21.77</ele>
        <time>2018-07-06T09:20:14Z</time>
      </trkpt>
      <trkpt lat="48.556201960891485" lon="-4.585342006757855">
        <ele>22.73</ele>
        <time>2018-07-06T09:20:15Z</time>
      </trkpt>
      <trkpt lat="48.556161979213357" lon="-4.585531018674374">
        <ele>23.690000000000001</ele>
        <time>2018-07-06T09:20:16Z</time>
      </trkpt>
      <trkpt lat="48.556104982271791" lon="-4.585751965641975">
        <ele>24.649999999999999</ele>
        <time>2018-07-06T09:20:17Z</time>
      </trkpt>
      <trkpt lat="48.556045973673463" lon="-4.58597500808537">
        <ele>25.129999999999999</ele>
        <time>2018-07-06T09:20:18Z</time>
      </trkpt>
      <trkpt lat="48.555387994274497" lon="-4.588089007884264">
        <ele>24.649999999999999</ele>
        <time>2018-07-06T09:20:27Z</time>
      </trkpt>
      <trkpt lat="48.555127987638116" lon="-4.589033983647823">
        <ele>24.649999999999999</ele>
        <time>2018-07-06T09:20:31Z</time>
      </trkpt>
      <trkpt lat="48.555044000968337" lon="-4.589254008606076">
        <ele>24.170000000000002</ele>
        <time>2018-07-06T09:20:32Z</time>
      </trkpt>
      <trkpt lat="48.554946016520262" lon="-4.589475961402059">
        <ele>23.210000000000001</ele>
        <time>2018-07-06T09:20:33Z</time>
      </trkpt>
      <trkpt lat="48.554286025464535" lon="-4.591274969279766">
        <ele>17.920000000000002</ele>
        <time>2018-07-06T09:20:41Z</time>
      </trkpt>
      <trkpt lat="48.553737010806799" lon="-4.593193000182509">
        <ele>14.56</ele>
        <time>2018-07-06T09:20:49Z</time>
      </trkpt>
      <trkpt lat="48.553462000563741" lon="-4.594126995652914">
        <ele>12.15</ele>
        <time>2018-07-06T09:20:53Z</time>
      </trkpt>
      <trkpt lat="48.553326968103647" lon="-4.594494961202145">
        <ele>10.710000000000001</ele>
        <time>2018-07-06T09:20:55Z</time>
      </trkpt>
      <trkpt lat="48.553295033052564" lon="-4.594758991152048">
        <ele>10.710000000000001</ele>
        <time>2018-07-06T09:20:56Z</time>
      </trkpt>
      <trkpt lat="48.553267037495971" lon="-4.594996031373739">
        <ele>10.23</ele>
        <time>2018-07-06T09:20:57Z</time>
      </trkpt>
      <trkpt lat="48.553197970613837" lon="-4.597293008118868">
        <ele>14.08</ele>
        <time>2018-07-06T09:21:06Z</time>
      </trkpt>
      <trkpt lat="48.553056987002492" lon="-4.598521962761879">
        <ele>18.879999999999999</ele>
        <time>2018-07-06T09:21:11Z</time>
      </trkpt>
      <trkpt lat="48.552992027252913" lon="-4.598760008811951">
        <ele>19.84</ele>
        <time>2018-07-06T09:21:12Z</time>
      </trkpt>
      <trkpt lat="48.552920026704669" lon="-4.598978022113442">
        <ele>21.289999999999999</ele>
        <time>2018-07-06T09:21:13Z</time>
      </trkpt>
      <trkpt lat="48.552845008671284" lon="-4.599200980737805">
        <ele>23.210000000000001</ele>
        <time>2018-07-06T09:21:14Z</time>
      </trkpt>
      <trkpt lat="48.552754987031221" lon="-4.599423017352819">
        <ele>24.649999999999999</ele>
        <time>2018-07-06T09:21:15Z</time>
      </trkpt>
      <trkpt lat="48.552080998197198" lon="-4.601029995828867">
        <ele>31.859999999999999</ele>
        <time>2018-07-06T09:21:22Z</time>
      </trkpt>
      <trkpt lat="48.552054008468986" lon="-4.601270975545049">
        <ele>31.859999999999999</ele>
        <time>2018-07-06T09:21:23Z</time>
      </trkpt>
      <trkpt lat="48.552043028175831" lon="-4.601526958867908">
        <ele>31.859999999999999</ele>
        <time>2018-07-06T09:21:24Z</time>
      </trkpt>
      <trkpt lat="48.552031964063644" lon="-4.601795012131333">
        <ele>31.379999999999999</ele>
        <time>2018-07-06T09:21:25Z</time>
      </trkpt>
      <trkpt lat="48.55202098377049" lon="-4.602078991010785">
        <ele>30.899999999999999</ele>
        <time>2018-07-06T09:21:26Z</time>
      </trkpt>
      <trkpt lat="48.551828032359481" lon="-4.604145968332887">
        <ele>27.530000000000001</ele>
        <time>2018-07-06T09:21:33Z</time>
      </trkpt>
      <trkpt lat="48.551532989367843" lon="-4.606759026646614">
        <ele>36.189999999999998</ele>
        <time>2018-07-06T09:21:43Z</time>
      </trkpt>
      <trkpt lat="48.551042983308434" lon="-4.609751030802727">
        <ele>47.719999999999999</ele>
        <time>2018-07-06T09:21:54Z</time>
      </trkpt>
      <trkpt lat="48.550936030223966" lon="-4.612529966980219">
        <ele>53.009999999999998</ele>
        <time>2018-07-06T09:22:04Z</time>
      </trkpt>
      <trkpt lat="48.550864029675722" lon="-4.614977985620499">
        <ele>55.409999999999997</ele>
        <time>2018-07-06T09:22:15Z</time>
      </trkpt>
      <trkpt lat="48.550767973065376" lon="-4.616902973502874">
        <ele>57.340000000000003</ele>
        <time>2018-07-06T09:22:26Z</time>
      </trkpt>
      <trkpt lat="48.550745006650686" lon="-4.617054015398026">
        <ele>56.859999999999999</ele>
        <time>2018-07-06T09:22:27Z</time>
      </trkpt>
      <trkpt lat="48.550616009160876" lon="-4.61788097396493">
        <ele>57.340000000000003</ele>
        <time>2018-07-06T09:22:34Z</time>
      </trkpt>
      <trkpt lat="48.550536967813969" lon="-4.618098987266421">
        <ele>57.340000000000003</ele>
        <time>2018-07-06T09:22:37Z</time>
      </trkpt>
      <trkpt lat="48.550520958378911" lon="-4.618171993643045">
        <ele>57.340000000000003</ele>
        <time>2018-07-06T09:22:38Z</time>
      </trkpt>
      <trkpt lat="48.550276039168239" lon="-4.619273962453008">
        <ele>56.369999999999997</ele>
        <time>2018-07-06T09:22:45Z</time>
      </trkpt>
      <trkpt lat="48.549747979268432" lon="-4.621652998030186">
        <ele>53.490000000000002</ele>
        <time>2018-07-06T09:22:55Z</time>
      </trkpt>
      <trkpt lat="48.548921020701528" lon="-4.62537900544703">
        <ele>52.530000000000001</ele>
        <time>2018-07-06T09:23:08Z</time>
      </trkpt>
      <trkpt lat="48.547956012189388" lon="-4.629812026396394">
        <ele>51.57</ele>
        <time>2018-07-06T09:23:23Z</time>
      </trkpt>
      <trkpt lat="48.547026040032506" lon="-4.63405997492373">
        <ele>54.450000000000003</ele>
        <time>2018-07-06T09:23:38Z</time>
      </trkpt>
      <trkpt lat="48.54609196074307" lon="-4.637998966500163">
        <ele>53.009999999999998</ele>
        <time>2018-07-06T09:23:52Z</time>
      </trkpt>
      <trkpt lat="48.545319987460971" lon="-4.641517018899322">
        <ele>57.340000000000003</ele>
        <time>2018-07-06T09:24:05Z</time>
      </trkpt>
      <trkpt lat="48.545197024941444" lon="-4.643720034509897">
        <ele>56.859999999999999</ele>
        <time>2018-07-06T09:24:13Z</time>
      </trkpt>
      <trkpt lat="48.54508101940155" lon="-4.645776031538844">
        <ele>56.369999999999997</ele>
        <time>2018-07-06T09:24:21Z</time>
      </trkpt>
      <trkpt lat="48.544988986104727" lon="-4.646767023950815">
        <ele>55.890000000000001</ele>
        <time>2018-07-06T09:24:27Z</time>
      </trkpt>
      <trkpt lat="48.544708024710417" lon="-4.648289009928703">
        <ele>55.409999999999997</ele>
        <time>2018-07-06T09:24:36Z</time>
      </trkpt>
      <trkpt lat="48.544535022228956" lon="-4.65006697922945">
        <ele>52.049999999999997</ele>
        <time>2018-07-06T09:24:46Z</time>
      </trkpt>
      <trkpt lat="48.544552959501743" lon="-4.650424970313907">
        <ele>52.049999999999997</ele>
        <time>2018-07-06T09:24:48Z</time>
      </trkpt>
      <trkpt lat="48.544769966974854" lon="-4.652212997898459">
        <ele>49.159999999999997</ele>
        <time>2018-07-06T09:24:58Z</time>
      </trkpt>
      <trkpt lat="48.544782036915421" lon="-4.652565037831664">
        <ele>48.68</ele>
        <time>2018-07-06T09:25:00Z</time>
      </trkpt>
      <trkpt lat="48.544781031087041" lon="-4.652728987857699">
        <ele>48.68</ele>
        <time>2018-07-06T09:25:01Z</time>
      </trkpt>
      <trkpt lat="48.544756975024939" lon="-4.652898972854018">
        <ele>48.68</ele>
        <time>2018-07-06T09:25:02Z</time>
      </trkpt>
      <trkpt lat="48.54439303278923" lon="-4.654406039044261">
        <ele>46.280000000000001</ele>
        <time>2018-07-06T09:25:12Z</time>
      </trkpt>
      <trkpt lat="48.544336035847664" lon="-4.65453403070569">
        <ele>46.280000000000001</ele>
        <time>2018-07-06T09:25:13Z</time>
      </trkpt>
      <trkpt lat="48.544122967869043" lon="-4.654805017635226">
        <ele>46.280000000000001</ele>
        <time>2018-07-06T09:25:16Z</time>
      </trkpt>
      <trkpt lat="48.543568002060056" lon="-4.655269039794803">
        <ele>47.240000000000002</ele>
        <time>2018-07-06T09:25:25Z</time>
      </trkpt>
      <trkpt lat="48.543410003185272" lon="-4.655468026176095">
        <ele>47.719999999999999</ele>
        <time>2018-07-06T09:25:28Z</time>
      </trkpt>
      <trkpt lat="48.54336398653686" lon="-4.655536003410816">
        <ele>47.719999999999999</ele>
        <time>2018-07-06T09:25:29Z</time>
      </trkpt>
      <trkpt lat="48.543044971302152" lon="-4.656025003641844">
        <ele>50.609999999999999</ele>
        <time>2018-07-06T09:25:36Z</time>
      </trkpt>
      <trkpt lat="48.54299702681601" lon="-4.65610102750361">
        <ele>50.609999999999999</ele>
        <time>2018-07-06T09:25:37Z</time>
      </trkpt>
      <trkpt lat="48.542951010167599" lon="-4.656174033880234">
        <ele>51.090000000000003</ele>
        <time>2018-07-06T09:25:38Z</time>
      </trkpt>
      <trkpt lat="48.542905999347568" lon="-4.656246034428477">
        <ele>51.57</ele>
        <time>2018-07-06T09:25:39Z</time>
      </trkpt>
      <trkpt lat="48.542860988527536" lon="-4.656310994178057">
        <ele>51.57</ele>
        <time>2018-07-06T09:25:40Z</time>
      </trkpt>
      <trkpt lat="48.542807009071112" lon="-4.656372014433146">
        <ele>52.049999999999997</ele>
        <time>2018-07-06T09:25:41Z</time>
      </trkpt>
      <trkpt lat="48.542753029614687" lon="-4.656431023031473">
        <ele>52.530000000000001</ele>
        <time>2018-07-06T09:25:42Z</time>
      </trkpt>
      <trkpt lat="48.542657978832722" lon="-4.656537976115942">
        <ele>53.009999999999998</ele>
        <time>2018-07-06T09:25:44Z</time>
      </trkpt>
      <trkpt lat="48.542613973841071" lon="-4.656587010249496">
        <ele>53.490000000000002</ele>
        <time>2018-07-06T09:25:45Z</time>
      </trkpt>
      <trkpt lat="48.542568041011691" lon="-4.656637972220779">
        <ele>53.969999999999999</ele>
        <time>2018-07-06T09:25:46Z</time>
      </trkpt>
      <trkpt lat="48.542513977736235" lon="-4.656698992475867">
        <ele>53.969999999999999</ele>
        <time>2018-07-06T09:25:47Z</time>
      </trkpt>
      <trkpt lat="48.542463015764952" lon="-4.656736962497234">
        <ele>54.450000000000003</ele>
        <time>2018-07-06T09:25:48Z</time>
      </trkpt>
      <trkpt lat="48.542418004944921" lon="-4.65676898136735">
        <ele>54.93</ele>
        <time>2018-07-06T09:25:49Z</time>
      </trkpt>
      <trkpt lat="48.54237399995327" lon="-4.656801000237465">
        <ele>54.93</ele>
        <time>2018-07-06T09:25:50Z</time>
      </trkpt>
      <trkpt lat="48.542213989421725" lon="-4.657037034630776">
        <ele>57.340000000000003</ele>
        <time>2018-07-06T09:25:59Z</time>
      </trkpt>
      <trkpt lat="48.542194040492177" lon="-4.657137030735612">
        <ele>57.82</ele>
        <time>2018-07-06T09:26:36Z</time>
      </trkpt>
      <trkpt lat="48.5421790368855" lon="-4.657216994091868">
        <ele>57.82</ele>
        <time>2018-07-06T09:26:37Z</time>
      </trkpt>
      <trkpt lat="48.542092032730579" lon="-4.657677998766303">
        <ele>58.299999999999997</ele>
        <time>2018-07-06T09:26:42Z</time>
      </trkpt>
      <trkpt lat="48.542058002203703" lon="-4.657846977934241">
        <ele>58.299999999999997</ele>
        <time>2018-07-06T09:26:44Z</time>
      </trkpt>
      <trkpt lat="48.541910983622074" lon="-4.658256014809012">
        <ele>57.340000000000003</ele>
        <time>2018-07-06T09:26:51Z</time>
      </trkpt>
      <trkpt lat="48.541910983622074" lon="-4.658318962901831">
        <ele>57.82</ele>
        <time>2018-07-06T09:26:52Z</time>
      </trkpt>
      <trkpt lat="48.541910983622074" lon="-4.658626997843385">
        <ele>57.340000000000003</ele>
        <time>2018-07-06T09:26:57Z</time>
      </trkpt>
      <trkpt lat="48.541910983622074" lon="-4.658691035583615">
        <ele>57.340000000000003</ele>
        <time>2018-07-06T09:26:58Z</time>
      </trkpt>
      <trkpt lat="48.541910983622074" lon="-4.658761024475098">
        <ele>57.340000000000003</ele>
        <time>2018-07-06T09:26:59Z</time>
      </trkpt>
      <trkpt lat="48.541910983622074" lon="-4.658761024475098">
        <ele>57.340000000000003</ele>
        <time>2018-07-06T09:27:00Z</time>
      </trkpt>
      <trkpt lat="48.541895980015397" lon="-4.658860014751554">
        <ele>57.340000000000003</ele>
        <time>2018-07-06T09:27:01Z</time>
      </trkpt>
      <trkpt lat="48.541886005550623" lon="-4.658922962844372">
        <ele>56.859999999999999</ele>
        <time>2018-07-06T09:27:02Z</time>
      </trkpt>
      <trkpt lat="48.541875025257468" lon="-4.658989012241364">
        <ele>56.859999999999999</ele>
        <time>2018-07-06T09:27:03Z</time>
      </trkpt>
      <trkpt lat="48.541864966973662" lon="-4.659054977819324">
        <ele>56.859999999999999</ele>
        <time>2018-07-06T09:27:04Z</time>
      </trkpt>
      <trkpt lat="48.541855998337269" lon="-4.659109963104129">
        <ele>56.369999999999997</ele>
        <time>2018-07-06T09:27:05Z</time>
      </trkpt>
      <trkpt lat="48.541871001943946" lon="-4.659193027764559">
        <ele>56.369999999999997</ele>
        <time>2018-07-06T09:27:06Z</time>
      </trkpt>
      <trkpt lat="48.541904026642442" lon="-4.659225968644023">
        <ele>56.369999999999997</ele>
        <time>2018-07-06T09:27:07Z</time>
      </trkpt>
      <trkpt lat="48.541941996663809" lon="-4.659264022484422">
        <ele>56.369999999999997</ele>
        <time>2018-07-06T09:27:08Z</time>
      </trkpt>
      <trkpt lat="48.541978038847446" lon="-4.659299980849028">
        <ele>55.890000000000001</ele>
        <time>2018-07-06T09:27:09Z</time>
      </trkpt>
      <trkpt lat="48.542005028575659" lon="-4.659334011375904">
        <ele>55.890000000000001</ele>
        <time>2018-07-06T09:27:10Z</time>
      </trkpt>
      <trkpt lat="48.54203000664711" lon="-4.659384973347187">
        <ele>55.890000000000001</ele>
        <time>2018-07-06T09:27:11Z</time>
      </trkpt>
      <trkpt lat="48.542055990546942" lon="-4.659436019137502">
        <ele>55.890000000000001</ele>
        <time>2018-07-06T09:27:12Z</time>
      </trkpt>
      <trkpt lat="48.542123967781663" lon="-4.659573985263705">
        <ele>55.890000000000001</ele>
        <time>2018-07-06T09:27:15Z</time>
      </trkpt>
      <trkpt lat="48.542148023843765" lon="-4.659622013568878">
        <ele>55.890000000000001</ele>
        <time>2018-07-06T09:27:16Z</time>
      </trkpt>
      <trkpt lat="48.542171996086836" lon="-4.659669036045671">
        <ele>55.890000000000001</ele>
        <time>2018-07-06T09:27:17Z</time>
      </trkpt>
      <trkpt lat="48.542196974158287" lon="-4.659718992188573">
        <ele>55.890000000000001</ele>
        <time>2018-07-06T09:27:18Z</time>
      </trkpt>
      <trkpt lat="48.542211977764964" lon="-4.659753022715449">
        <ele>55.409999999999997</ele>
        <time>2018-07-06T09:27:19Z</time>
      </trkpt>
      <trkpt lat="48.542220024392009" lon="-4.659814964979887">
        <ele>55.409999999999997</ele>
        <time>2018-07-06T09:27:20Z</time>
      </trkpt>
      <trkpt lat="48.542226981371641" lon="-4.659873973578215">
        <ele>55.409999999999997</ele>
        <time>2018-07-06T09:27:21Z</time>
      </trkpt>
      <trkpt lat="48.542235027998686" lon="-4.659937005490065">
        <ele>55.409999999999997</ele>
        <time>2018-07-06T09:27:22Z</time>
      </trkpt>
      <trkpt lat="48.542276015505195" lon="-4.660262977704406">
        <ele>56.859999999999999</ele>
        <time>2018-07-06T09:27:27Z</time>
      </trkpt>
      <trkpt lat="48.542286995798349" lon="-4.660304971039295">
        <ele>56.859999999999999</ele>
        <time>2018-07-06T09:27:28Z</time>
      </trkpt>
      <trkpt lat="48.542352039366961" lon="-4.660565983504057">
        <ele>57.82</ele>
        <time>2018-07-06T09:27:32Z</time>
      </trkpt>
      <trkpt lat="48.542367964982986" lon="-4.660632032901049">
        <ele>57.340000000000003</ele>
        <time>2018-07-06T09:27:33Z</time>
      </trkpt>
      <trkpt lat="48.542383974418044" lon="-4.660693975165486">
        <ele>57.340000000000003</ele>
        <time>2018-07-06T09:27:34Z</time>
      </trkpt>
      <trkpt lat="48.542399983853102" lon="-4.660758012905717">
        <ele>57.340000000000003</ele>
        <time>2018-07-06T09:27:35Z</time>
      </trkpt>
      <trkpt lat="48.542414987459779" lon="-4.660820038989186">
        <ele>56.859999999999999</ele>
        <time>2018-07-06T09:27:36Z</time>
      </trkpt>
      <trkpt lat="48.542429991066456" lon="-4.660878963768482">
        <ele>56.859999999999999</ele>
        <time>2018-07-06T09:27:37Z</time>
      </trkpt>
      <trkpt lat="48.542443988844752" lon="-4.660936966538429">
        <ele>56.859999999999999</ele>
        <time>2018-07-06T09:27:38Z</time>
      </trkpt>
      <trkpt lat="48.542458992451429" lon="-4.660995975136757">
        <ele>56.859999999999999</ele>
        <time>2018-07-06T09:27:39Z</time>
      </trkpt>
      <trkpt lat="48.542472990229726" lon="-4.661051966249943">
        <ele>56.369999999999997</ele>
        <time>2018-07-06T09:27:40Z</time>
      </trkpt>
      <trkpt lat="48.542486988008022" lon="-4.66110703535378">
        <ele>56.369999999999997</ele>
        <time>2018-07-06T09:27:41Z</time>
      </trkpt>
      <trkpt lat="48.542513977736235" lon="-4.66121700592339">
        <ele>56.369999999999997</ele>
        <time>2018-07-06T09:27:43Z</time>
      </trkpt>
      <trkpt lat="48.542486988008022" lon="-4.661343991756439">
        <ele>56.369999999999997</ele>
        <time>2018-07-06T09:27:44Z</time>
      </trkpt>
      <trkpt lat="48.542458992451429" lon="-4.661349020898342">
        <ele>56.369999999999997</ele>
        <time>2018-07-06T09:27:45Z</time>
      </trkpt>
      <trkpt lat="48.542424039915204" lon="-4.661354972049594">
        <ele>56.369999999999997</ele>
        <time>2018-07-06T09:27:46Z</time>
      </trkpt>
      <trkpt lat="48.542384980246425" lon="-4.661362012848258">
        <ele>56.369999999999997</ele>
        <time>2018-07-06T09:27:47Z</time>
      </trkpt>
      <trkpt lat="48.542341981083155" lon="-4.661369975656271">
        <ele>55.890000000000001</ele>
        <time>2018-07-06T09:27:48Z</time>
      </trkpt>
      <trkpt lat="48.542044004425406" lon="-4.661441976204515">
        <ele>54.93</ele>
        <time>2018-07-06T09:27:55Z</time>
      </trkpt>
      <trkpt lat="48.541994970291853" lon="-4.661534009501338">
        <ele>54.450000000000003</ele>
        <time>2018-07-06T09:27:56Z</time>
      </trkpt>
      <trkpt lat="48.542019026353955" lon="-4.661614978685975">
        <ele>53.969999999999999</ele>
        <time>2018-07-06T09:27:57Z</time>
      </trkpt>
      <trkpt lat="48.542022965848446" lon="-4.661640040576458">
        <ele>53.969999999999999</ele>
        <time>2018-07-06T09:27:58Z</time>
      </trkpt>
      <trkpt lat="48.542034029960632" lon="-4.661700977012515">
        <ele>53.490000000000002</ele>
        <time>2018-07-06T09:27:59Z</time>
      </trkpt>
      <trkpt lat="48.542045010253787" lon="-4.661760991439223">
        <ele>53.009999999999998</ele>
        <time>2018-07-06T09:28:00Z</time>
      </trkpt>
      <trkpt lat="48.542055990546942" lon="-4.661824023351073">
        <ele>53.009999999999998</ele>
        <time>2018-07-06T09:28:01Z</time>
      </trkpt>
      <trkpt lat="48.542068982496858" lon="-4.661889988929033">
        <ele>53.009999999999998</ele>
        <time>2018-07-06T09:28:02Z</time>
      </trkpt>
      <trkpt lat="48.542295964434743" lon="-4.662835970520973">
        <ele>53.490000000000002</ele>
        <time>2018-07-06T09:28:14Z</time>
      </trkpt>
      <trkpt lat="48.542320020496845" lon="-4.662929009646177">
        <ele>53.490000000000002</ele>
        <time>2018-07-06T09:28:15Z</time>
      </trkpt>
      <trkpt lat="48.542591007426381" lon="-4.66413700953126">
        <ele>53.969999999999999</ele>
        <time>2018-07-06T09:28:26Z</time>
      </trkpt>
      <trkpt lat="48.542961990460753" lon="-4.665809031575918">
        <ele>50.609999999999999</ele>
        <time>2018-07-06T09:28:38Z</time>
      </trkpt>
      <trkpt lat="48.543259967118502" lon="-4.666961962357163">
        <ele>48.200000000000003</ele>
        <time>2018-07-06T09:28:47Z</time>
      </trkpt>
      <trkpt lat="48.543391982093453" lon="-4.667130019515753">
        <ele>47.719999999999999</ele>
        <time>2018-07-06T09:28:48Z</time>
      </trkpt>
      <trkpt lat="48.543391982093453" lon="-4.667130019515753">
        <ele>47.240000000000002</ele>
        <time>2018-07-06T09:28:49Z</time>
      </trkpt>
      <trkpt lat="48.543434981256723" lon="-4.667215012013912">
        <ele>47.240000000000002</ele>
        <time>2018-07-06T09:28:50Z</time>
      </trkpt>
      <trkpt lat="48.543413020670414" lon="-4.667322970926762">
        <ele>47.240000000000002</ele>
        <time>2018-07-06T09:28:51Z</time>
      </trkpt>
      <trkpt lat="48.543376978486776" lon="-4.667463032528758">
        <ele>47.240000000000002</ele>
        <time>2018-07-06T09:28:52Z</time>
      </trkpt>
      <trkpt lat="48.543387036770582" lon="-4.667589012533426">
        <ele>47.240000000000002</ele>
        <time>2018-07-06T09:28:53Z</time>
      </trkpt>
      <trkpt lat="48.543399022892118" lon="-4.667733013629913">
        <ele>46.759999999999998</ele>
        <time>2018-07-06T09:28:54Z</time>
      </trkpt>
      <trkpt lat="48.543412014842033" lon="-4.667889000847936">
        <ele>46.759999999999998</ele>
        <time>2018-07-06T09:28:55Z</time>
      </trkpt>
      <trkpt lat="48.543563978746533" lon="-4.669678034260869">
        <ele>45.799999999999997</ele>
        <time>2018-07-06T09:29:04Z</time>
      </trkpt>
      <trkpt lat="48.54400897398591" lon="-4.672319004312158">
        <ele>42.439999999999998</ele>
        <time>2018-07-06T09:29:15Z</time>
      </trkpt>
      <trkpt lat="48.544503003358841" lon="-4.674932984635234">
        <ele>40.030000000000001</ele>
        <time>2018-07-06T09:29:26Z</time>
      </trkpt>
      <trkpt lat="48.544811038300395" lon="-4.676590003073216">
        <ele>41.469999999999999</ele>
        <time>2018-07-06T09:29:35Z</time>
      </trkpt>
      <trkpt lat="48.544953027740121" lon="-4.677276983857155">
        <ele>42.920000000000002</ele>
        <time>2018-07-06T09:29:42Z</time>
      </trkpt>
      <trkpt lat="48.544982029125094" lon="-4.677385026589036">
        <ele>42.439999999999998</ele>
        <time>2018-07-06T09:29:43Z</time>
      </trkpt>
      <trkpt lat="48.545010024681687" lon="-4.677488962188363">
        <ele>42.920000000000002</ele>
        <time>2018-07-06T09:29:44Z</time>
      </trkpt>
      <trkpt lat="48.545023016631603" lon="-4.677536990493536">
        <ele>42.439999999999998</ele>
        <time>2018-07-06T09:29:45Z</time>
      </trkpt>
      <trkpt lat="48.545065009966493" lon="-4.677793979644775">
        <ele>42.920000000000002</ele>
        <time>2018-07-06T09:29:46Z</time>
      </trkpt>
      <trkpt lat="48.545070961117744" lon="-4.677819041535258">
        <ele>42.920000000000002</ele>
        <time>2018-07-06T09:29:47Z</time>
      </trkpt>
      <trkpt lat="48.545095017179847" lon="-4.677938986569643">
        <ele>42.920000000000002</ele>
        <time>2018-07-06T09:29:48Z</time>
      </trkpt>
      <trkpt lat="48.54512301273644" lon="-4.678074019029737">
        <ele>42.439999999999998</ele>
        <time>2018-07-06T09:29:49Z</time>
      </trkpt>
      <trkpt lat="48.545155031606555" lon="-4.678229000419378">
        <ele>42.439999999999998</ele>
        <time>2018-07-06T09:29:50Z</time>
      </trkpt>
      <trkpt lat="48.54518998414278" lon="-4.678397979587317">
        <ele>42.439999999999998</ele>
        <time>2018-07-06T09:29:51Z</time>
      </trkpt>
      <trkpt lat="48.545542024075985" lon="-4.680109983310103">
        <ele>40.990000000000002</ele>
        <time>2018-07-06T09:29:59Z</time>
      </trkpt>
      <trkpt lat="48.546235039830208" lon="-4.683408010751009">
        <ele>37.149999999999999</ele>
        <time>2018-07-06T09:30:12Z</time>
      </trkpt>
      <trkpt lat="48.546983962878585" lon="-4.686908964067698">
        <ele>35.229999999999997</ele>
        <time>2018-07-06T09:30:26Z</time>
      </trkpt>
      <trkpt lat="48.547860961407423" lon="-4.690546039491892">
        <ele>32.82</ele>
        <time>2018-07-06T09:30:39Z</time>
      </trkpt>
      <trkpt lat="48.548268992453814" lon="-4.691410968080163">
        <ele>32.340000000000003</ele>
        <time>2018-07-06T09:30:44Z</time>
      </trkpt>
      <trkpt lat="48.548616003245115" lon="-4.691964006051421">
        <ele>31.859999999999999</ele>
        <time>2018-07-06T09:30:50Z</time>
      </trkpt>
      <trkpt lat="48.54881901293993" lon="-4.692249996587634">
        <ele>31.859999999999999</ele>
        <time>2018-07-06T09:30:54Z</time>
      </trkpt>
      <trkpt lat="48.549603978171945" lon="-4.693346014246345">
        <ele>31.859999999999999</ele>
        <time>2018-07-06T09:31:06Z</time>
      </trkpt>
      <trkpt lat="48.550394978374243" lon="-4.694886021316052">
        <ele>30.420000000000002</ele>
        <time>2018-07-06T09:31:19Z</time>
      </trkpt>
      <trkpt lat="48.550444012507796" lon="-4.695015018805862">
        <ele>29.940000000000001</ele>
        <time>2018-07-06T09:31:20Z</time>
      </trkpt>
      <trkpt lat="48.550976011902094" lon="-4.696756023913622">
        <ele>28.5</ele>
        <time>2018-07-06T09:31:33Z</time>
      </trkpt>
      <trkpt lat="48.551406003534794" lon="-4.698087992146611">
        <ele>26.57</ele>
        <time>2018-07-06T09:31:44Z</time>
      </trkpt>
      <trkpt lat="48.551537012681365" lon="-4.698421005159617">
        <ele>26.09</ele>
        <time>2018-07-06T09:31:48Z</time>
      </trkpt>
      <trkpt lat="48.551557967439294" lon="-4.698473978787661">
        <ele>25.609999999999999</ele>
        <time>2018-07-06T09:31:49Z</time>
      </trkpt>
      <trkpt lat="48.551610019057989" lon="-4.698608005419374">
        <ele>25.129999999999999</ele>
        <time>2018-07-06T09:31:52Z</time>
      </trkpt>
      <trkpt lat="48.551668021827936" lon="-4.698703978210688">
        <ele>24.649999999999999</ele>
        <time>2018-07-06T09:31:53Z</time>
      </trkpt>
      <trkpt lat="48.551705991849303" lon="-4.698769021779299">
        <ele>24.170000000000002</ele>
        <time>2018-07-06T09:31:54Z</time>
      </trkpt>
      <trkpt lat="48.551743039861321" lon="-4.698829958215356">
        <ele>24.170000000000002</ele>
        <time>2018-07-06T09:31:55Z</time>
      </trkpt>
      <trkpt lat="48.551778998225927" lon="-4.698889972642064">
        <ele>23.690000000000001</ele>
        <time>2018-07-06T09:31:56Z</time>
      </trkpt>
      <trkpt lat="48.551814034581184" lon="-4.698948981240392">
        <ele>23.210000000000001</ele>
        <time>2018-07-06T09:31:57Z</time>
      </trkpt>
      <trkpt lat="48.551877988502383" lon="-4.699054006487131">
        <ele>22.73</ele>
        <time>2018-07-06T09:31:59Z</time>
      </trkpt>
      <trkpt lat="48.551905984058976" lon="-4.699101028963924">
        <ele>22.73</ele>
        <time>2018-07-06T09:32:00Z</time>
      </trkpt>
      <trkpt lat="48.551930040121078" lon="-4.699141010642052">
        <ele>22.25</ele>
        <time>2018-07-06T09:32:01Z</time>
      </trkpt>
      <trkpt lat="48.551949989050627" lon="-4.699175041168928">
        <ele>22.25</ele>
        <time>2018-07-06T09:32:02Z</time>
      </trkpt>
      <trkpt lat="48.552060965448618" lon="-4.699208987876773">
        <ele>22.25</ele>
        <time>2018-07-06T09:32:03Z</time>
      </trkpt>
      <trkpt lat="48.552060965448618" lon="-4.699208987876773">
        <ele>22.25</ele>
        <time>2018-07-06T09:32:04Z</time>
      </trkpt>
      <trkpt lat="48.552088961005211" lon="-4.699227008968592">
        <ele>22.25</ele>
        <time>2018-07-06T09:32:05Z</time>
      </trkpt>
      <trkpt lat="48.552125003188848" lon="-4.699261039495468">
        <ele>21.77</ele>
        <time>2018-07-06T09:32:06Z</time>
      </trkpt>
      <trkpt lat="48.552125003188848" lon="-4.699332034215331">
        <ele>21.77</ele>
        <time>2018-07-06T09:32:07Z</time>
      </trkpt>
      <trkpt lat="48.552125003188848" lon="-4.699379978701472">
        <ele>21.77</ele>
        <time>2018-07-06T09:32:08Z</time>
      </trkpt>
      <trkpt lat="48.552059959620237" lon="-4.699487015604973">
        <ele>21.289999999999999</ele>
        <time>2018-07-06T09:32:09Z</time>
      </trkpt>
      <trkpt lat="48.55204202234745" lon="-4.700526958331466">
        <ele>20.32</ele>
        <time>2018-07-06T09:32:19Z</time>
      </trkpt>
      <trkpt lat="48.552030036225915" lon="-4.700728040188551">
        <ele>20.32</ele>
        <time>2018-07-06T09:32:21Z</time>
      </trkpt>
      <trkpt lat="48.551800958812237" lon="-4.701680978760123">
        <ele>19.359999999999999</ele>
        <time>2018-07-06T09:32:29Z</time>
      </trkpt>
      <trkpt lat="48.551657041534781" lon="-4.702041987329722">
        <ele>17.920000000000002</ele>
        <time>2018-07-06T09:32:32Z</time>
      </trkpt>
      <trkpt lat="48.550931001082063" lon="-4.703464983031154">
        <ele>12.15</ele>
        <time>2018-07-06T09:32:44Z</time>
      </trkpt>
      <trkpt lat="48.550853971391916" lon="-4.703557016327977">
        <ele>11.19</ele>
        <time>2018-07-06T09:32:45Z</time>
      </trkpt>
      <trkpt lat="48.550769984722137" lon="-4.703651983290911">
        <ele>10.710000000000001</ele>
        <time>2018-07-06T09:32:46Z</time>
      </trkpt>
      <trkpt lat="48.550666971132159" lon="-4.703709986060858">
        <ele>9.75</ele>
        <time>2018-07-06T09:32:47Z</time>
      </trkpt>
      <trkpt lat="48.55055901221931" lon="-4.703760026022792">
        <ele>9.27</ele>
        <time>2018-07-06T09:32:48Z</time>
      </trkpt>
      <trkpt lat="48.550451975315809" lon="-4.703786009922624">
        <ele>8.789999999999999</ele>
        <time>2018-07-06T09:32:49Z</time>
      </trkpt>
      <trkpt lat="48.550346028059721" lon="-4.703795984387398">
        <ele>8.789999999999999</ele>
        <time>2018-07-06T09:32:50Z</time>
      </trkpt>
      <trkpt lat="48.55023899115622" lon="-4.703791039064527">
        <ele>8.310000000000001</ele>
        <time>2018-07-06T09:32:51Z</time>
      </trkpt>
      <trkpt lat="48.550131032243371" lon="-4.703773017972708">
        <ele>8.310000000000001</ele>
        <time>2018-07-06T09:32:52Z</time>
      </trkpt>
      <trkpt lat="48.54944103397429" lon="-4.703674027696252">
        <ele>5.91</ele>
        <time>2018-07-06T09:32:59Z</time>
      </trkpt>
      <trkpt lat="48.549360986799002" lon="-4.70373303629458">
        <ele>4.94</ele>
        <time>2018-07-06T09:33:00Z</time>
      </trkpt>
      <trkpt lat="48.549283035099506" lon="-4.703810987994075">
        <ele>4.46</ele>
        <time>2018-07-06T09:33:01Z</time>
      </trkpt>
      <trkpt lat="48.549222014844418" lon="-4.703906960785389">
        <ele>4.46</ele>
        <time>2018-07-06T09:33:02Z</time>
      </trkpt>
      <trkpt lat="48.549181027337909" lon="-4.704033024609089">
        <ele>3.98</ele>
        <time>2018-07-06T09:33:03Z</time>
      </trkpt>
      <trkpt lat="48.549166023731232" lon="-4.704175014048815">
        <ele>4.46</ele>
        <time>2018-07-06T09:33:04Z</time>
      </trkpt>
      <trkpt lat="48.549152025952935" lon="-4.704313986003399">
        <ele>4.46</ele>
        <time>2018-07-06T09:33:05Z</time>
      </trkpt>
      <trkpt lat="48.549167029559612" lon="-4.704448012635112">
        <ele>4.46</ele>
        <time>2018-07-06T09:33:06Z</time>
      </trkpt>
      <trkpt lat="48.549223020672798" lon="-4.704552032053471">
        <ele>4.46</ele>
        <time>2018-07-06T09:33:07Z</time>
      </trkpt>
      <trkpt lat="48.549275994300842" lon="-4.704651022329927">
        <ele>3.98</ele>
        <time>2018-07-06T09:33:08Z</time>
      </trkpt>
      <trkpt lat="48.549339026212692" lon="-4.704750012606382">
        <ele>3.98</ele>
        <time>2018-07-06T09:33:09Z</time>
      </trkpt>
      <trkpt lat="48.549413038417697" lon="-4.704828970134258">
        <ele>3.5</ele>
        <time>2018-07-06T09:33:10Z</time>
      </trkpt>
      <trkpt lat="48.54948503896594" lon="-4.704903988167644">
        <ele>3.02</ele>
        <time>2018-07-06T09:33:11Z</time>
      </trkpt>
      <trkpt lat="48.549612024798989" lon="-4.705040026456118">
        <ele>2.54</ele>
        <time>2018-07-06T09:33:13Z</time>
      </trkpt>
      <trkpt lat="48.549667010083795" lon="-4.705108003690839">
        <ele>2.54</ele>
        <time>2018-07-06T09:33:14Z</time>
      </trkpt>
      <trkpt lat="48.549710009247065" lon="-4.705192996188998">
        <ele>2.54</ele>
        <time>2018-07-06T09:33:15Z</time>
      </trkpt>
      <trkpt lat="48.549730964004993" lon="-4.705306990072131">
        <ele>2.54</ele>
        <time>2018-07-06T09:33:16Z</time>
      </trkpt>
      <trkpt lat="48.54974303394556" lon="-4.705431964248419">
        <ele>3.02</ele>
        <time>2018-07-06T09:33:17Z</time>
      </trkpt>
      <trkpt lat="48.549732975661755" lon="-4.705544030293822">
        <ele>3.5</ele>
        <time>2018-07-06T09:33:18Z</time>
      </trkpt>
      <trkpt lat="48.549693999812007" lon="-4.705641008913517">
        <ele>4.46</ele>
        <time>2018-07-06T09:33:19Z</time>
      </trkpt>
      <trkpt lat="48.549652006477118" lon="-4.705746034160256">
        <ele>4.94</ele>
        <time>2018-07-06T09:33:20Z</time>
      </trkpt>
      <trkpt lat="48.549606995657086" lon="-4.705854998901486">
        <ele>5.91</ele>
        <time>2018-07-06T09:33:21Z</time>
      </trkpt>
      <trkpt lat="48.549566008150578" lon="-4.705952983349562">
        <ele>6.87</ele>
        <time>2018-07-06T09:33:22Z</time>
      </trkpt>
      <trkpt lat="48.54952803812921" lon="-4.706054991111159">
        <ele>7.83</ele>
        <time>2018-07-06T09:33:23Z</time>
      </trkpt>
      <trkpt lat="48.549494007602334" lon="-4.706147024407983">
        <ele>8.310000000000001</ele>
        <time>2018-07-06T09:33:24Z</time>
      </trkpt>
      <trkpt lat="48.54946400038898" lon="-4.706224976107478">
        <ele>9.27</ele>
        <time>2018-07-06T09:33:25Z</time>
      </trkpt>
      <trkpt lat="48.549450002610683" lon="-4.706318015232682">
        <ele>10.23</ele>
        <time>2018-07-06T09:33:26Z</time>
      </trkpt>
      <trkpt lat="48.549436004832387" lon="-4.706411976367235">
        <ele>11.19</ele>
        <time>2018-07-06T09:33:27Z</time>
      </trkpt>
      <trkpt lat="48.549440028145909" lon="-4.706532005220652">
        <ele>11.67</ele>
        <time>2018-07-06T09:33:28Z</time>
      </trkpt>
      <trkpt lat="48.54950699955225" lon="-4.706633007153869">
        <ele>12.630000000000001</ele>
        <time>2018-07-06T09:33:29Z</time>
      </trkpt>
      <trkpt lat="48.549648988991976" lon="-4.707191996276379">
        <ele>16</ele>
        <time>2018-07-06T09:33:34Z</time>
      </trkpt>
      <trkpt lat="48.549715960398316" lon="-4.707427024841309">
        <ele>16.48</ele>
        <time>2018-07-06T09:33:36Z</time>
      </trkpt>
      <trkpt lat="48.549816962331533" lon="-4.707769006490707">
        <ele>16.960000000000001</ele>
        <time>2018-07-06T09:33:39Z</time>
      </trkpt>
      <trkpt lat="48.549848981201649" lon="-4.707873025909066">
        <ele>16.960000000000001</ele>
        <time>2018-07-06T09:33:40Z</time>
      </trkpt>
      <trkpt lat="48.549999017268419" lon="-4.708463028073311">
        <ele>16</ele>
        <time>2018-07-06T09:33:45Z</time>
      </trkpt>
      <trkpt lat="48.550025001168251" lon="-4.70859001390636">
        <ele>15.52</ele>
        <time>2018-07-06T09:33:46Z</time>
      </trkpt>
      <trkpt lat="48.550052996724844" lon="-4.708725968375802">
        <ele>15.039999999999999</ele>
        <time>2018-07-06T09:33:47Z</time>
      </trkpt>
      <trkpt lat="48.550081998109818" lon="-4.708867035806179">
        <ele>14.56</ele>
        <time>2018-07-06T09:33:48Z</time>
      </trkpt>
      <trkpt lat="48.550115022808313" lon="-4.709011958912015">
        <ele>14.08</ele>
        <time>2018-07-06T09:33:49Z</time>
      </trkpt>
      <trkpt lat="48.550208983942866" lon="-4.7092579677701">
        <ele>13.119999999999999</ele>
        <time>2018-07-06T09:33:51Z</time>
      </trkpt>
      <trkpt lat="48.550257012248039" lon="-4.70938503742218">
        <ele>12.630000000000001</ele>
        <time>2018-07-06T09:33:52Z</time>
      </trkpt>
      <trkpt lat="48.550335969775915" lon="-4.709500959143043">
        <ele>12.15</ele>
        <time>2018-07-06T09:33:53Z</time>
      </trkpt>
      <trkpt lat="48.550426997244358" lon="-4.709590980783105">
        <ele>12.15</ele>
        <time>2018-07-06T09:33:54Z</time>
      </trkpt>
      <trkpt lat="48.550522970035672" lon="-4.709687037393451">
        <ele>11.67</ele>
        <time>2018-07-06T09:33:55Z</time>
      </trkpt>
      <trkpt lat="48.550622966140509" lon="-4.709787033498287">
        <ele>11.19</ele>
        <time>2018-07-06T09:33:56Z</time>
      </trkpt>
      <trkpt lat="48.551671039313078" lon="-4.710540985688567">
        <ele>8.789999999999999</ele>
        <time>2018-07-06T09:34:05Z</time>
      </trkpt>
      <trkpt lat="48.551782015711069" lon="-4.710639975965023">
        <ele>8.789999999999999</ele>
        <time>2018-07-06T09:34:06Z</time>
      </trkpt>
      <trkpt lat="48.552678963169456" lon="-4.711675979197025">
        <ele>10.23</ele>
        <time>2018-07-06T09:34:14Z</time>
      </trkpt>
      <trkpt lat="48.553209034726024" lon="-4.712395984679461">
        <ele>8.310000000000001</ele>
        <time>2018-07-06T09:34:19Z</time>
      </trkpt>
      <trkpt lat="48.553292015567422" lon="-4.712554989382625">
        <ele>7.83</ele>
        <time>2018-07-06T09:34:20Z</time>
      </trkpt>
      <trkpt lat="48.553368039429188" lon="-4.712708964943886">
        <ele>7.35</ele>
        <time>2018-07-06T09:34:21Z</time>
      </trkpt>
      <trkpt lat="48.553581023588777" lon="-4.713213974609971">
        <ele>6.39</ele>
        <time>2018-07-06T09:34:24Z</time>
      </trkpt>
      <trkpt lat="48.553687976673245" lon="-4.713332997635007">
        <ele>6.39</ele>
        <time>2018-07-06T09:34:25Z</time>
      </trkpt>
      <trkpt lat="48.553806999698281" lon="-4.713463000953198">
        <ele>6.39</ele>
        <time>2018-07-06T09:34:26Z</time>
      </trkpt>
      <trkpt lat="48.554355008527637" lon="-4.714085021987557">
        <ele>10.23</ele>
        <time>2018-07-06T09:34:31Z</time>
      </trkpt>
      <trkpt lat="48.554413011297584" lon="-4.714231034740806">
        <ele>11.19</ele>
        <time>2018-07-06T09:34:32Z</time>
      </trkpt>
      <trkpt lat="48.554459027945995" lon="-4.71439003944397">
        <ele>11.19</ele>
        <time>2018-07-06T09:34:33Z</time>
      </trkpt>
      <trkpt lat="48.554658014327288" lon="-4.715076014399529">
        <ele>12.15</ele>
        <time>2018-07-06T09:34:37Z</time>
      </trkpt>
      <trkpt lat="48.554709982126951" lon="-4.715243987739086">
        <ele>12.15</ele>
        <time>2018-07-06T09:34:38Z</time>
      </trkpt>
      <trkpt lat="48.554788017645478" lon="-4.715392012149096">
        <ele>12.15</ele>
        <time>2018-07-06T09:34:39Z</time>
      </trkpt>
      <trkpt lat="48.554876027628779" lon="-4.715538024902344">
        <ele>12.630000000000001</ele>
        <time>2018-07-06T09:34:40Z</time>
      </trkpt>
      <trkpt lat="48.554966971278191" lon="-4.715688982978463">
        <ele>13.119999999999999</ele>
        <time>2018-07-06T09:34:41Z</time>
      </trkpt>
      <trkpt lat="48.555116001516581" lon="-4.716014033183456">
        <ele>13.119999999999999</ele>
        <time>2018-07-06T09:34:43Z</time>
      </trkpt>
      <trkpt lat="48.555176015943289" lon="-4.71617303788662">
        <ele>12.630000000000001</ele>
        <time>2018-07-06T09:34:44Z</time>
      </trkpt>
      <trkpt lat="48.555195964872837" lon="-4.716370012611151">
        <ele>12.630000000000001</ele>
        <time>2018-07-06T09:34:45Z</time>
      </trkpt>
      <trkpt lat="48.555214991793036" lon="-4.716567993164063">
        <ele>12.15</ele>
        <time>2018-07-06T09:34:46Z</time>
      </trkpt>
      <trkpt lat="48.555210968479514" lon="-4.716767985373735">
        <ele>12.15</ele>
        <time>2018-07-06T09:34:47Z</time>
      </trkpt>
      <trkpt lat="48.555201999843121" lon="-4.717885963618755">
        <ele>13.6</ele>
        <time>2018-07-06T09:34:53Z</time>
      </trkpt>
      <trkpt lat="48.555244999006391" lon="-4.718042034655809">
        <ele>14.08</ele>
        <time>2018-07-06T09:34:54Z</time>
      </trkpt>
      <trkpt lat="48.555300990119576" lon="-4.718242026865482">
        <ele>14.56</ele>
        <time>2018-07-06T09:34:55Z</time>
      </trkpt>
      <trkpt lat="48.555426970124245" lon="-4.718487029895186">
        <ele>15.039999999999999</ele>
        <time>2018-07-06T09:34:57Z</time>
      </trkpt>
      <trkpt lat="48.55550198815763" lon="-4.718631030991674">
        <ele>15.52</ele>
        <time>2018-07-06T09:34:58Z</time>
      </trkpt>
      <trkpt lat="48.555641965940595" lon="-4.718905035406351">
        <ele>16.48</ele>
        <time>2018-07-06T09:35:00Z</time>
      </trkpt>
      <trkpt lat="48.555681025609374" lon="-4.719062028452754">
        <ele>16.960000000000001</ele>
        <time>2018-07-06T09:35:01Z</time>
      </trkpt>
      <trkpt lat="48.555700974538922" lon="-4.719214998185635">
        <ele>17.440000000000001</ele>
        <time>2018-07-06T09:35:02Z</time>
      </trkpt>
      <trkpt lat="48.555723018944263" lon="-4.719375008717179">
        <ele>17.920000000000002</ele>
        <time>2018-07-06T09:35:03Z</time>
      </trkpt>
      <trkpt lat="48.555743973702192" lon="-4.71952797845006">
        <ele>18.399999999999999</ele>
        <time>2018-07-06T09:35:04Z</time>
      </trkpt>
      <trkpt lat="48.555761994794011" lon="-4.719662005081773">
        <ele>18.879999999999999</ele>
        <time>2018-07-06T09:35:05Z</time>
      </trkpt>
      <trkpt lat="48.555788984522223" lon="-4.719756972044706">
        <ele>19.359999999999999</ele>
        <time>2018-07-06T09:35:06Z</time>
      </trkpt>
      <trkpt lat="48.555837012827396" lon="-4.719795025885105">
        <ele>20.32</ele>
        <time>2018-07-06T09:35:07Z</time>
      </trkpt>
      <trkpt lat="48.555880011990666" lon="-4.719829978421331">
        <ele>20.809999999999999</ele>
        <time>2018-07-06T09:35:08Z</time>
      </trkpt>
      <trkpt lat="48.555944971740246" lon="-4.719829978421331">
        <ele>21.289999999999999</ele>
        <time>2018-07-06T09:35:09Z</time>
      </trkpt>
      <trkpt lat="48.555999035015702" lon="-4.719774993136525">
        <ele>21.289999999999999</ele>
        <time>2018-07-06T09:35:10Z</time>
      </trkpt>
      <trkpt lat="48.556063994765282" lon="-4.719710033386946">
        <ele>21.77</ele>
        <time>2018-07-06T09:35:11Z</time>
      </trkpt>
      <trkpt lat="48.556171031668782" lon="-4.719618000090122">
        <ele>21.77</ele>
        <time>2018-07-06T09:35:13Z</time>
      </trkpt>
      <trkpt lat="48.556234985589981" lon="-4.71963400952518">
        <ele>22.25</ele>
        <time>2018-07-06T09:35:14Z</time>
      </trkpt>
      <trkpt lat="48.556330958381295" lon="-4.719657981768251">
        <ele>22.25</ele>
        <time>2018-07-06T09:35:15Z</time>
      </trkpt>
      <trkpt lat="48.556849965825677" lon="-4.71991203725338">
        <ele>21.289999999999999</ele>
        <time>2018-07-06T09:35:22Z</time>
      </trkpt>
      <trkpt lat="48.556925989687443" lon="-4.719941960647702">
        <ele>20.32</ele>
        <time>2018-07-06T09:35:23Z</time>
      </trkpt>
      <trkpt lat="48.557001007720828" lon="-4.719970040023327">
        <ele>19.84</ele>
        <time>2018-07-06T09:35:24Z</time>
      </trkpt>
      <trkpt lat="48.557073008269072" lon="-4.71999803557992">
        <ele>19.359999999999999</ele>
        <time>2018-07-06T09:35:25Z</time>
      </trkpt>
      <trkpt lat="48.557141991332173" lon="-4.720039023086429">
        <ele>18.879999999999999</ele>
        <time>2018-07-06T09:35:26Z</time>
      </trkpt>
      <trkpt lat="48.557511968538165" lon="-4.720270028337836">
        <ele>17.920000000000002</ele>
        <time>2018-07-06T09:35:34Z</time>
      </trkpt>
      <trkpt lat="48.557812962681055" lon="-4.72055702470243">
        <ele>16.48</ele>
        <time>2018-07-06T09:35:45Z</time>
      </trkpt>
      <trkpt lat="48.557853028178215" lon="-4.720631036907435">
        <ele>15.52</ele>
        <time>2018-07-06T09:35:53Z</time>
      </trkpt>
      <trkpt lat="48.557897033169866" lon="-4.72070898860693">
        <ele>15.52</ele>
        <time>2018-07-06T09:35:56Z</time>
      </trkpt>
      <trkpt lat="48.557897033169866" lon="-4.72070898860693">
        <ele>15.52</ele>
        <time>2018-07-06T09:35:57Z</time>
      </trkpt>
      <trkpt lat="48.557897033169866" lon="-4.72070898860693">
        <ele>15.52</ele>
        <time>2018-07-06T09:35:58Z</time>
      </trkpt>
      <trkpt lat="48.557883035391569" lon="-4.720683004707098">
        <ele>15.52</ele>
        <time>2018-07-06T09:35:59Z</time>
      </trkpt>
      <trkpt lat="48.557869959622622" lon="-4.720660038292408">
        <ele>15.52</ele>
        <time>2018-07-06T09:36:00Z</time>
      </trkpt>
      <trkpt lat="48.55784498155117" lon="-4.720615027472377">
        <ele>15.52</ele>
        <time>2018-07-06T09:36:01Z</time>
      </trkpt>
      <trkpt lat="48.557813968509436" lon="-4.72055995836854">
        <ele>15.52</ele>
        <time>2018-07-06T09:36:02Z</time>
      </trkpt>
      <trkpt lat="48.557774992659688" lon="-4.720502039417625">
        <ele>15.52</ele>
        <time>2018-07-06T09:36:03Z</time>
      </trkpt>
      <trkpt lat="48.557706009596586" lon="-4.720432972535491">
        <ele>15.039999999999999</ele>
        <time>2018-07-06T09:36:06Z</time>
      </trkpt>
      <trkpt lat="48.557596961036325" lon="-4.72032300196588">
        <ele>15.52</ele>
        <time>2018-07-06T09:36:07Z</time>
      </trkpt>
      <trkpt lat="48.557596961036325" lon="-4.72032300196588">
        <ele>15.52</ele>
        <time>2018-07-06T09:36:08Z</time>
      </trkpt>
      <trkpt lat="48.55769301764667" lon="-4.720418974757195">
        <ele>15.52</ele>
        <time>2018-07-06T09:36:09Z</time>
      </trkpt>
      <trkpt lat="48.557698968797922" lon="-4.720425009727478">
        <ele>15.52</ele>
        <time>2018-07-06T09:36:10Z</time>
      </trkpt>
      <trkpt lat="48.557706009596586" lon="-4.72043196670711">
        <ele>16</ele>
        <time>2018-07-06T09:36:11Z</time>
      </trkpt>
      <trkpt lat="48.557712966576219" lon="-4.720439007505775">
        <ele>16</ele>
        <time>2018-07-06T09:36:12Z</time>
      </trkpt>
      <trkpt lat="48.557723024860024" lon="-4.720448981970549">
        <ele>16</ele>
        <time>2018-07-06T09:36:13Z</time>
      </trkpt>
      <trkpt lat="48.55773501098156" lon="-4.720461973920465">
        <ele>15.52</ele>
        <time>2018-07-06T09:36:14Z</time>
      </trkpt>
      <trkpt lat="48.557750014588237" lon="-4.720475971698761">
        <ele>15.52</ele>
        <time>2018-07-06T09:36:15Z</time>
      </trkpt>
      <trkpt lat="48.557750014588237" lon="-4.720475971698761">
        <ele>16</ele>
        <time>2018-07-06T09:36:31Z</time>
      </trkpt>
      <trkpt lat="48.557750014588237" lon="-4.720475971698761">
        <ele>15.52</ele>
        <time>2018-07-06T09:37:24Z</time>
      </trkpt>
      <trkpt lat="48.557791002094746" lon="-4.72051796503365">
        <ele>16</ele>
        <time>2018-07-06T09:37:33Z</time>
      </trkpt>
      <trkpt lat="48.557808017358184" lon="-4.720549983903766">
        <ele>16.48</ele>
        <time>2018-07-06T09:37:34Z</time>
      </trkpt>
      <trkpt lat="48.557829977944493" lon="-4.720588959753513">
        <ele>16.48</ele>
        <time>2018-07-06T09:37:35Z</time>
      </trkpt>
      <trkpt lat="48.557940032333136" lon="-4.721021968871355">
        <ele>16.960000000000001</ele>
        <time>2018-07-06T09:37:40Z</time>
      </trkpt>
      <trkpt lat="48.557940032333136" lon="-4.721154989674687">
        <ele>16.960000000000001</ele>
        <time>2018-07-06T09:37:41Z</time>
      </trkpt>
      <trkpt lat="48.557816985994577" lon="-4.722370030358434">
        <ele>16.960000000000001</ele>
        <time>2018-07-06T09:37:49Z</time>
      </trkpt>
      <trkpt lat="48.557771975174546" lon="-4.722519982606173">
        <ele>16.960000000000001</ele>
        <time>2018-07-06T09:37:50Z</time>
      </trkpt>
      <trkpt lat="48.557210974395275" lon="-4.724611015990377">
        <ele>12.15</ele>
        <time>2018-07-06T09:38:03Z</time>
      </trkpt>
      <trkpt lat="48.556632036343217" lon="-4.726821994408965">
        <ele>15.039999999999999</ele>
        <time>2018-07-06T09:38:15Z</time>
      </trkpt>
      <trkpt lat="48.555984031409025" lon="-4.729061974212527">
        <ele>15.52</ele>
        <time>2018-07-06T09:38:25Z</time>
      </trkpt>
      <trkpt lat="48.555143997073174" lon="-4.730421015992761">
        <ele>14.56</ele>
        <time>2018-07-06T09:38:33Z</time>
      </trkpt>
      <trkpt lat="48.553345995023847" lon="-4.732102006673813">
        <ele>15.039999999999999</ele>
        <time>2018-07-06T09:38:46Z</time>
      </trkpt>
      <trkpt lat="48.551599038764834" lon="-4.733351999893785">
        <ele>13.119999999999999</ele>
        <time>2018-07-06T09:38:58Z</time>
      </trkpt>
      <trkpt lat="48.549691988155246" lon="-4.734297981485724">
        <ele>17.920000000000002</ele>
        <time>2018-07-06T09:39:11Z</time>
      </trkpt>
      <trkpt lat="48.549210028722882" lon="-4.734619008377194">
        <ele>19.359999999999999</ele>
        <time>2018-07-06T09:39:15Z</time>
      </trkpt>
      <trkpt lat="48.549111960455775" lon="-4.734722021967173">
        <ele>19.359999999999999</ele>
        <time>2018-07-06T09:39:16Z</time>
      </trkpt>
      <trkpt lat="48.549015987664461" lon="-4.73482302390039">
        <ele>19.359999999999999</ele>
        <time>2018-07-06T09:39:17Z</time>
      </trkpt>
      <trkpt lat="48.548944992944598" lon="-4.734957972541452">
        <ele>18.879999999999999</ele>
        <time>2018-07-06T09:39:18Z</time>
      </trkpt>
      <trkpt lat="48.548896964639425" lon="-4.735122006386519">
        <ele>18.879999999999999</ele>
        <time>2018-07-06T09:39:19Z</time>
      </trkpt>
      <trkpt lat="48.548851031810045" lon="-4.73529601469636">
        <ele>18.879999999999999</ele>
        <time>2018-07-06T09:39:20Z</time>
      </trkpt>
      <trkpt lat="48.548811972141266" lon="-4.735487038269639">
        <ele>18.399999999999999</ele>
        <time>2018-07-06T09:39:21Z</time>
      </trkpt>
      <trkpt lat="48.548771990463138" lon="-4.735679989680648">
        <ele>18.879999999999999</ele>
        <time>2018-07-06T09:39:22Z</time>
      </trkpt>
      <trkpt lat="48.54873301461339" lon="-4.735872019082308">
        <ele>19.359999999999999</ele>
        <time>2018-07-06T09:39:23Z</time>
      </trkpt>
      <trkpt lat="48.548670988529921" lon="-4.736051978543401">
        <ele>20.32</ele>
        <time>2018-07-06T09:39:24Z</time>
      </trkpt>
      <trkpt lat="48.548590019345284" lon="-4.73621902987361">
        <ele>20.809999999999999</ele>
        <time>2018-07-06T09:39:25Z</time>
      </trkpt>
      <trkpt lat="48.548506032675505" lon="-4.736390020698309">
        <ele>21.289999999999999</ele>
        <time>2018-07-06T09:39:26Z</time>
      </trkpt>
      <trkpt lat="48.548420034348965" lon="-4.736567968502641">
        <ele>21.77</ele>
        <time>2018-07-06T09:39:28Z</time>
      </trkpt>
      <trkpt lat="48.547457959502935" lon="-4.738731002435088">
        <ele>19.84</ele>
        <time>2018-07-06T09:39:39Z</time>
      </trkpt>
      <trkpt lat="48.547403980046511" lon="-4.738940969109535">
        <ele>20.32</ele>
        <time>2018-07-06T09:39:40Z</time>
      </trkpt>
      <trkpt lat="48.547192001715302" lon="-4.73974596709013">
        <ele>21.77</ele>
        <time>2018-07-06T09:39:44Z</time>
      </trkpt>
      <trkpt lat="48.547123018652201" lon="-4.73991603590548">
        <ele>22.25</ele>
        <time>2018-07-06T09:39:45Z</time>
      </trkpt>
      <trkpt lat="48.546485994011164" lon="-4.741622004657984">
        <ele>20.32</ele>
        <time>2018-07-06T09:39:54Z</time>
      </trkpt>
      <trkpt lat="48.546110987663269" lon="-4.743081964552403">
        <ele>20.809999999999999</ele>
        <time>2018-07-06T09:40:02Z</time>
      </trkpt>
      <trkpt lat="48.545692982152104" lon="-4.744503032416105">
        <ele>17.920000000000002</ele>
        <time>2018-07-06T09:40:13Z</time>
      </trkpt>
      <trkpt lat="48.545543029904366" lon="-4.744846019893885">
        <ele>16.48</ele>
        <time>2018-07-06T09:40:19Z</time>
      </trkpt>
      <trkpt lat="48.545543029904366" lon="-4.744846019893885">
        <ele>16.48</ele>
        <time>2018-07-06T09:40:37Z</time>
      </trkpt>
      <trkpt lat="48.545388970524073" lon="-4.745096974074841">
        <ele>15.52</ele>
        <time>2018-07-06T09:41:03Z</time>
      </trkpt>
      <trkpt lat="48.54480198584497" lon="-4.7458899859339">
        <ele>12.630000000000001</ele>
        <time>2018-07-06T09:41:10Z</time>
      </trkpt>
      <trkpt lat="48.543718960136175" lon="-4.747322034090757">
        <ele>11.67</ele>
        <time>2018-07-06T09:41:19Z</time>
      </trkpt>
      <trkpt lat="48.543090987950563" lon="-4.748282013460994">
        <ele>15.039999999999999</ele>
        <time>2018-07-06T09:41:24Z</time>
      </trkpt>
      <trkpt lat="48.54293399490416" lon="-4.748420985415578">
        <ele>16</ele>
        <time>2018-07-06T09:41:25Z</time>
      </trkpt>
      <trkpt lat="48.542778007686138" lon="-4.748559035360813">
        <ele>17.920000000000002</ele>
        <time>2018-07-06T09:41:26Z</time>
      </trkpt>
      <trkpt lat="48.542607016861439" lon="-4.748646039515734">
        <ele>19.359999999999999</ele>
        <time>2018-07-06T09:41:27Z</time>
      </trkpt>
      <trkpt lat="48.542438037693501" lon="-4.74870597012341">
        <ele>21.289999999999999</ele>
        <time>2018-07-06T09:41:28Z</time>
      </trkpt>
      <trkpt lat="48.542272998020053" lon="-4.748736983165145">
        <ele>22.73</ele>
        <time>2018-07-06T09:41:29Z</time>
      </trkpt>
      <trkpt lat="48.542112987488508" lon="-4.748744023963809">
        <ele>24.649999999999999</ele>
        <time>2018-07-06T09:41:30Z</time>
      </trkpt>
      <trkpt lat="48.541960017755628" lon="-4.748750980943441">
        <ele>25.609999999999999</ele>
        <time>2018-07-06T09:41:31Z</time>
      </trkpt>
      <trkpt lat="48.541810987517238" lon="-4.74874896928668">
        <ele>26.57</ele>
        <time>2018-07-06T09:41:32Z</time>
      </trkpt>
      <trkpt lat="48.539880970492959" lon="-4.748519975692034">
        <ele>28.98</ele>
        <time>2018-07-06T09:41:44Z</time>
      </trkpt>
      <trkpt lat="48.538333000615239" lon="-4.748335992917419">
        <ele>23.690000000000001</ele>
        <time>2018-07-06T09:41:53Z</time>
      </trkpt>
      <trkpt lat="48.536433996632695" lon="-4.74831897765398">
        <ele>18.879999999999999</ele>
        <time>2018-07-06T09:42:04Z</time>
      </trkpt>
      <trkpt lat="48.535153996199369" lon="-4.748965976759791">
        <ele>15.52</ele>
        <time>2018-07-06T09:42:12Z</time>
      </trkpt>
      <trkpt lat="48.533573001623154" lon="-4.749871976673603">
        <ele>14.08</ele>
        <time>2018-07-06T09:42:22Z</time>
      </trkpt>
      <trkpt lat="48.532553007826209" lon="-4.750213958323002">
        <ele>11.67</ele>
        <time>2018-07-06T09:42:30Z</time>
      </trkpt>
      <trkpt lat="48.532427027821541" lon="-4.750234996899962">
        <ele>11.19</ele>
        <time>2018-07-06T09:42:31Z</time>
      </trkpt>
      <trkpt lat="48.532331977039576" lon="-4.750191997736692">
        <ele>10.710000000000001</ele>
        <time>2018-07-06T09:42:32Z</time>
      </trkpt>
      <trkpt lat="48.532228963449597" lon="-4.7501449752599">
        <ele>10.710000000000001</ele>
        <time>2018-07-06T09:42:33Z</time>
      </trkpt>
      <trkpt lat="48.532142965123057" lon="-4.750080015510321">
        <ele>10.710000000000001</ele>
        <time>2018-07-06T09:42:34Z</time>
      </trkpt>
      <trkpt lat="48.532064007595181" lon="-4.750000974163413">
        <ele>10.710000000000001</ele>
        <time>2018-07-06T09:42:35Z</time>
      </trkpt>
      <trkpt lat="48.531992007046938" lon="-4.749912964180112">
        <ele>11.19</ele>
        <time>2018-07-06T09:42:36Z</time>
      </trkpt>
      <trkpt lat="48.531915983185172" lon="-4.749819003045559">
        <ele>11.67</ele>
        <time>2018-07-06T09:42:37Z</time>
      </trkpt>
      <trkpt lat="48.531080977991223" lon="-4.748700018972158">
        <ele>13.119999999999999</ele>
        <time>2018-07-06T09:42:48Z</time>
      </trkpt>
      <trkpt lat="48.530587032437325" lon="-4.747774992138147">
        <ele>12.630000000000001</ele>
        <time>2018-07-06T09:42:56Z</time>
      </trkpt>
      <trkpt lat="48.530515031889081" lon="-4.747658986598253">
        <ele>13.119999999999999</ele>
        <time>2018-07-06T09:42:57Z</time>
      </trkpt>
      <trkpt lat="48.5298060066998" lon="-4.746627006679773">
        <ele>13.119999999999999</ele>
        <time>2018-07-06T09:43:06Z</time>
      </trkpt>
      <trkpt lat="48.52971900254488" lon="-4.746540002524853">
        <ele>12.630000000000001</ele>
        <time>2018-07-06T09:43:07Z</time>
      </trkpt>
      <trkpt lat="48.529064040631056" lon="-4.746057959273458">
        <ele>8.789999999999999</ele>
        <time>2018-07-06T09:43:15Z</time>
      </trkpt>
      <trkpt lat="48.528991034254432" lon="-4.746065000072122">
        <ele>8.310000000000001</ele>
        <time>2018-07-06T09:43:16Z</time>
      </trkpt>
      <trkpt lat="48.528916016221046" lon="-4.746072962880135">
        <ele>8.310000000000001</ele>
        <time>2018-07-06T09:43:17Z</time>
      </trkpt>
      <trkpt lat="48.528844015672803" lon="-4.746078997850418">
        <ele>8.310000000000001</ele>
        <time>2018-07-06T09:43:18Z</time>
      </trkpt>
      <trkpt lat="48.528782995417714" lon="-4.746085032820702">
        <ele>8.310000000000001</ele>
        <time>2018-07-06T09:43:19Z</time>
      </trkpt>
      <trkpt lat="48.528739996254444" lon="-4.746088972315192">
        <ele>8.789999999999999</ele>
        <time>2018-07-06T09:43:20Z</time>
      </trkpt>
      <trkpt lat="48.528710994869471" lon="-4.746091989800334">
        <ele>9.27</ele>
        <time>2018-07-06T09:43:21Z</time>
      </trkpt>
      <trkpt lat="48.528669001534581" lon="-4.746171031147242">
        <ele>9.27</ele>
        <time>2018-07-06T09:43:22Z</time>
      </trkpt>
      <trkpt lat="48.528637988492846" lon="-4.746269015595317">
        <ele>9.75</ele>
        <time>2018-07-06T09:43:27Z</time>
      </trkpt>
      <trkpt lat="48.528610998764634" lon="-4.746356019750238">
        <ele>9.75</ele>
        <time>2018-07-06T09:43:28Z</time>
      </trkpt>
      <trkpt lat="48.528182012960315" lon="-4.747409038245678">
        <ele>12.15</ele>
        <time>2018-07-06T09:43:36Z</time>
      </trkpt>
      <trkpt lat="48.527454966679215" lon="-4.749106960371137">
        <ele>16</ele>
        <time>2018-07-06T09:43:48Z</time>
      </trkpt>
      <trkpt lat="48.526866976171732" lon="-4.750977968797088">
        <ele>18.399999999999999</ele>
        <time>2018-07-06T09:44:01Z</time>
      </trkpt>
      <trkpt lat="48.526743007823825" lon="-4.75151801481843">
        <ele>17.440000000000001</ele>
        <time>2018-07-06T09:44:06Z</time>
      </trkpt>
      <trkpt lat="48.526726998388767" lon="-4.751606024801731">
        <ele>16.960000000000001</ele>
        <time>2018-07-06T09:44:07Z</time>
      </trkpt>
      <trkpt lat="48.52671199478209" lon="-4.751695040613413">
        <ele>16.960000000000001</ele>
        <time>2018-07-06T09:44:08Z</time>
      </trkpt>
      <trkpt lat="48.526676036417484" lon="-4.751910958439112">
        <ele>16.48</ele>
        <time>2018-07-06T09:44:10Z</time>
      </trkpt>
      <trkpt lat="48.526614010334015" lon="-4.753295984119177">
        <ele>14.56</ele>
        <time>2018-07-06T09:44:20Z</time>
      </trkpt>
      <trkpt lat="48.526593977585435" lon="-4.75358298048377">
        <ele>14.08</ele>
        <time>2018-07-06T09:44:22Z</time>
      </trkpt>
      <trkpt lat="48.526565982028842" lon="-4.753881962969899">
        <ele>13.6</ele>
        <time>2018-07-06T09:44:24Z</time>
      </trkpt>
      <trkpt lat="48.526144959032536" lon="-4.755500005558133">
        <ele>11.19</ele>
        <time>2018-07-06T09:44:35Z</time>
      </trkpt>
      <trkpt lat="48.52580901235342" lon="-4.756420003250241">
        <ele>10.23</ele>
        <time>2018-07-06T09:44:41Z</time>
      </trkpt>
      <trkpt lat="48.525427971035242" lon="-4.757060967385769">
        <ele>9.75</ele>
        <time>2018-07-06T09:44:47Z</time>
      </trkpt>
      <trkpt lat="48.525369968265295" lon="-4.757137997075915">
        <ele>9.75</ele>
        <time>2018-07-06T09:44:48Z</time>
      </trkpt>
      <trkpt lat="48.525318000465631" lon="-4.757205974310637">
        <ele>9.75</ele>
        <time>2018-07-06T09:44:49Z</time>
      </trkpt>
      <trkpt lat="48.524649040773511" lon="-4.75804902613163">
        <ele>10.710000000000001</ele>
        <time>2018-07-06T09:45:00Z</time>
      </trkpt>
      <trkpt lat="48.52458500303328" lon="-4.758128989487886">
        <ele>10.710000000000001</ele>
        <time>2018-07-06T09:45:01Z</time>
      </trkpt>
      <trkpt lat="48.524449970573187" lon="-4.758294029161334">
        <ele>11.67</ele>
        <time>2018-07-06T09:45:03Z</time>
      </trkpt>
      <trkpt lat="48.524276968091726" lon="-4.758508019149303">
        <ele>13.119999999999999</ele>
        <time>2018-07-06T09:45:06Z</time>
      </trkpt>
      <trkpt lat="48.524140007793903" lon="-4.758602986112237">
        <ele>13.6</ele>
        <time>2018-07-06T09:45:08Z</time>
      </trkpt>
      <trkpt lat="48.524067001417279" lon="-4.758622013032436">
        <ele>13.6</ele>
        <time>2018-07-06T09:45:09Z</time>
      </trkpt>
      <trkpt lat="48.523992989212275" lon="-4.758613966405392">
        <ele>14.08</ele>
        <time>2018-07-06T09:45:10Z</time>
      </trkpt>
      <trkpt lat="48.523921994492412" lon="-4.758607009425759">
        <ele>14.08</ele>
        <time>2018-07-06T09:45:11Z</time>
      </trkpt>
      <trkpt lat="48.523848988115788" lon="-4.758604997768998">
        <ele>14.08</ele>
        <time>2018-07-06T09:45:12Z</time>
      </trkpt>
      <trkpt lat="48.523773970082402" lon="-4.75860801525414">
        <ele>14.08</ele>
        <time>2018-07-06T09:45:13Z</time>
      </trkpt>
      <trkpt lat="48.523696018382907" lon="-4.758612038567662">
        <ele>14.08</ele>
        <time>2018-07-06T09:45:14Z</time>
      </trkpt>
      <trkpt lat="48.523616977035999" lon="-4.758614972233772">
        <ele>14.08</ele>
        <time>2018-07-06T09:45:15Z</time>
      </trkpt>
      <trkpt lat="48.523219004273415" lon="-4.758624024689198">
        <ele>14.08</ele>
        <time>2018-07-06T09:45:20Z</time>
      </trkpt>
      <trkpt lat="48.52307902649045" lon="-4.758572978898883">
        <ele>13.6</ele>
        <time>2018-07-06T09:45:22Z</time>
      </trkpt>
      <trkpt lat="48.523011971265078" lon="-4.758549006655812">
        <ele>13.119999999999999</ele>
        <time>2018-07-06T09:45:23Z</time>
      </trkpt>
      <trkpt lat="48.522954974323511" lon="-4.758526962250471">
        <ele>12.630000000000001</ele>
        <time>2018-07-06T09:45:24Z</time>
      </trkpt>
      <trkpt lat="48.52288699708879" lon="-4.758497960865498">
        <ele>11.19</ele>
        <time>2018-07-06T09:45:31Z</time>
      </trkpt>
      <trkpt lat="48.52288699708879" lon="-4.758497960865498">
        <ele>11.19</ele>
        <time>2018-07-06T09:45:54Z</time>
      </trkpt>
      <trkpt lat="48.52288699708879" lon="-4.758497960865498">
        <ele>10.710000000000001</ele>
        <time>2018-07-06T09:46:15Z</time>
      </trkpt>
      <trkpt lat="48.52288699708879" lon="-4.758497960865498">
        <ele>10.23</ele>
        <time>2018-07-06T09:46:16Z</time>
      </trkpt>
      <trkpt lat="48.522788006812334" lon="-4.758455967530608">
        <ele>9.27</ele>
        <time>2018-07-06T09:46:20Z</time>
      </trkpt>
      <trkpt lat="48.522725980728865" lon="-4.758430989459157">
        <ele>9.27</ele>
        <time>2018-07-06T09:46:21Z</time>
      </trkpt>
      <trkpt lat="48.521772036328912" lon="-4.758012983947992">
        <ele>7.83</ele>
        <time>2018-07-06T09:46:34Z</time>
      </trkpt>
      <trkpt lat="48.520915992558002" lon="-4.757885998114944">
        <ele>6.39</ele>
        <time>2018-07-06T09:46:44Z</time>
      </trkpt>
      <trkpt lat="48.520832005888224" lon="-4.757923968136311">
        <ele>6.39</ele>
        <time>2018-07-06T09:46:45Z</time>
      </trkpt>
      <trkpt lat="48.520741984248161" lon="-4.757974008098245">
        <ele>6.39</ele>
        <time>2018-07-06T09:46:46Z</time>
      </trkpt>
      <trkpt lat="48.520669983699918" lon="-4.758065035566688">
        <ele>6.39</ele>
        <time>2018-07-06T09:46:47Z</time>
      </trkpt>
      <trkpt lat="48.520593959838152" lon="-4.758160002529621">
        <ele>6.39</ele>
        <time>2018-07-06T09:46:48Z</time>
      </trkpt>
      <trkpt lat="48.520516008138657" lon="-4.758257986977696">
        <ele>6.39</ele>
        <time>2018-07-06T09:46:49Z</time>
      </trkpt>
      <trkpt lat="48.519505988806486" lon="-4.759542010724545">
        <ele>10.710000000000001</ele>
        <time>2018-07-06T09:47:01Z</time>
      </trkpt>
      <trkpt lat="48.519023023545742" lon="-4.760215999558568">
        <ele>10.710000000000001</ele>
        <time>2018-07-06T09:47:08Z</time>
      </trkpt>
      <trkpt lat="48.518968038260937" lon="-4.760313984006643">
        <ele>11.19</ele>
        <time>2018-07-06T09:47:09Z</time>
      </trkpt>
      <trkpt lat="48.518926966935396" lon="-4.760436024516821">
        <ele>12.15</ele>
        <time>2018-07-06T09:47:10Z</time>
      </trkpt>
      <trkpt lat="48.51878497749567" lon="-4.760883031412959">
        <ele>13.6</ele>
        <time>2018-07-06T09:47:14Z</time>
      </trkpt>
      <trkpt lat="48.518739966675639" lon="-4.760984033346176">
        <ele>13.6</ele>
        <time>2018-07-06T09:47:15Z</time>
      </trkpt>
      <trkpt lat="48.518694033846259" lon="-4.761086963117123">
        <ele>14.08</ele>
        <time>2018-07-06T09:47:16Z</time>
      </trkpt>
      <trkpt lat="48.518146025016904" lon="-4.761728011071682">
        <ele>14.56</ele>
        <time>2018-07-06T09:47:24Z</time>
      </trkpt>
      <trkpt lat="48.517415961250663" lon="-4.762139981612563">
        <ele>13.119999999999999</ele>
        <time>2018-07-06T09:47:32Z</time>
      </trkpt>
      <trkpt lat="48.516853032633662" lon="-4.762638034299016">
        <ele>9.27</ele>
        <time>2018-07-06T09:47:39Z</time>
      </trkpt>
      <trkpt lat="48.516777008771896" lon="-4.762702994048595">
        <ele>8.789999999999999</ele>
        <time>2018-07-06T09:47:40Z</time>
      </trkpt>
      <trkpt lat="48.516100002452731" lon="-4.763103984296322">
        <ele>4.94</ele>
        <time>2018-07-06T09:47:49Z</time>
      </trkpt>
      <trkpt lat="48.515583006665111" lon="-4.763388969004154">
        <ele>3.98</ele>
        <time>2018-07-06T09:47:55Z</time>
      </trkpt>
      <trkpt lat="48.515512011945248" lon="-4.76342098787427">
        <ele>3.98</ele>
        <time>2018-07-06T09:47:56Z</time>
      </trkpt>
      <trkpt lat="48.515440011397004" lon="-4.763454012572765">
        <ele>3.98</ele>
        <time>2018-07-06T09:47:57Z</time>
      </trkpt>
      <trkpt lat="48.515370022505522" lon="-4.763487037271261">
        <ele>3.98</ele>
        <time>2018-07-06T09:47:58Z</time>
      </trkpt>
      <trkpt lat="48.51530397310853" lon="-4.763516960665584">
        <ele>4.46</ele>
        <time>2018-07-06T09:47:59Z</time>
      </trkpt>
      <trkpt lat="48.515243036672473" lon="-4.763545962050557">
        <ele>4.46</ele>
        <time>2018-07-06T09:48:00Z</time>
      </trkpt>
      <trkpt lat="48.515188973397017" lon="-4.76357001811266">
        <ele>4.94</ele>
        <time>2018-07-06T09:48:01Z</time>
      </trkpt>
      <trkpt lat="48.515025023370981" lon="-4.763645958155394">
        <ele>5.42</ele>
        <time>2018-07-06T09:48:09Z</time>
      </trkpt>
      <trkpt lat="48.515018988400698" lon="-4.763617962598801">
        <ele>5.91</ele>
        <time>2018-07-06T09:48:20Z</time>
      </trkpt>
      <trkpt lat="48.515017982572317" lon="-4.763609999790788">
        <ele>6.39</ele>
        <time>2018-07-06T09:48:21Z</time>
      </trkpt>
      <trkpt lat="48.515074979513884" lon="-4.763622991740704">
        <ele>6.87</ele>
        <time>2018-07-06T09:48:22Z</time>
      </trkpt>
      <trkpt lat="48.515100041404366" lon="-4.763612011447549">
        <ele>7.35</ele>
        <time>2018-07-06T09:48:23Z</time>
      </trkpt>
      <trkpt lat="48.515134993940592" lon="-4.763594996184111">
        <ele>7.35</ele>
        <time>2018-07-06T09:48:24Z</time>
      </trkpt>
      <trkpt lat="48.51549600251019" lon="-4.763429034501314">
        <ele>7.83</ele>
        <time>2018-07-06T09:48:32Z</time>
      </trkpt>
      <trkpt lat="48.515536990016699" lon="-4.763410007581115">
        <ele>7.83</ele>
        <time>2018-07-06T09:48:33Z</time>
      </trkpt>
      <trkpt lat="48.515571020543575" lon="-4.763393998146057">
        <ele>7.83</ele>
        <time>2018-07-06T09:48:34Z</time>
      </trkpt>
      <trkpt lat="48.51560203358531" lon="-4.763377988711">
        <ele>7.83</ele>
        <time>2018-07-06T09:48:35Z</time>
      </trkpt>
      <trkpt lat="48.515632040798664" lon="-4.763360973447561">
        <ele>7.83</ele>
        <time>2018-07-06T09:48:36Z</time>
      </trkpt>
      <trkpt lat="48.515750980004668" lon="-4.763171039521694">
        <ele>7.83</ele>
        <time>2018-07-06T09:48:41Z</time>
      </trkpt>
      <trkpt lat="48.515759026631713" lon="-4.763109013438225">
        <ele>7.83</ele>
        <time>2018-07-06T09:48:42Z</time>
      </trkpt>
      <trkpt lat="48.515767995268106" lon="-4.763043969869614">
        <ele>7.83</ele>
        <time>2018-07-06T09:48:43Z</time>
      </trkpt>
      <trkpt lat="48.515787022188306" lon="-4.762901980429888">
        <ele>7.83</ele>
        <time>2018-07-06T09:48:45Z</time>
      </trkpt>
      <trkpt lat="48.51579699665308" lon="-4.762826040387154">
        <ele>7.83</ele>
        <time>2018-07-06T09:48:46Z</time>
      </trkpt>
      <trkpt lat="48.515892969444394" lon="-4.761734968051314">
        <ele>6.87</ele>
        <time>2018-07-06T09:48:58Z</time>
      </trkpt>
      <trkpt lat="48.515899004414678" lon="-4.76163798943162">
        <ele>6.87</ele>
        <time>2018-07-06T09:48:59Z</time>
      </trkpt>
      <trkpt lat="48.515905039384961" lon="-4.761564983054996">
        <ele>6.87</ele>
        <time>2018-07-06T09:49:00Z</time>
      </trkpt>
      <trkpt lat="48.515918031334877" lon="-4.761455012485385">
        <ele>7.35</ele>
        <time>2018-07-06T09:49:01Z</time>
      </trkpt>
      <trkpt lat="48.515928005799651" lon="-4.761367002502084">
        <ele>7.35</ele>
        <time>2018-07-06T09:49:02Z</time>
      </trkpt>
      <trkpt lat="48.515990031883121" lon="-4.760785968974233">
        <ele>8.789999999999999</ele>
        <time>2018-07-06T09:49:09Z</time>
      </trkpt>
      <trkpt lat="48.515990031883121" lon="-4.760708017274737">
        <ele>9.27</ele>
        <time>2018-07-06T09:49:10Z</time>
      </trkpt>
      <trkpt lat="48.515990031883121" lon="-4.760554963722825">
        <ele>9.75</ele>
        <time>2018-07-06T09:49:12Z</time>
      </trkpt>
      <trkpt lat="48.515990031883121" lon="-4.760475000366569">
        <ele>10.23</ele>
        <time>2018-07-06T09:49:13Z</time>
      </trkpt>
      <trkpt lat="48.515990031883121" lon="-4.760389002040029">
        <ele>10.23</ele>
        <time>2018-07-06T09:49:14Z</time>
      </trkpt>
      <trkpt lat="48.515990031883121" lon="-4.760320018976927">
        <ele>10.23</ele>
        <time>2018-07-06T09:49:15Z</time>
      </trkpt>
      <trkpt lat="48.516029007732868" lon="-4.760226979851723">
        <ele>10.23</ele>
        <time>2018-07-06T09:49:16Z</time>
      </trkpt>
      <trkpt lat="48.516062032431364" lon="-4.760146010667086">
        <ele>10.710000000000001</ele>
        <time>2018-07-06T09:49:17Z</time>
      </trkpt>
      <trkpt lat="48.516095979139209" lon="-4.760061018168926">
        <ele>11.19</ele>
        <time>2018-07-06T09:49:18Z</time>
      </trkpt>
      <trkpt lat="48.516127998009324" lon="-4.759982982650399">
        <ele>12.15</ele>
        <time>2018-07-06T09:49:19Z</time>
      </trkpt>
      <trkpt lat="48.516188012436032" lon="-4.75983596406877">
        <ele>13.119999999999999</ele>
        <time>2018-07-06T09:49:21Z</time>
      </trkpt>
      <trkpt lat="48.516222964972258" lon="-4.759750971570611">
        <ele>13.119999999999999</ele>
        <time>2018-07-06T09:49:22Z</time>
      </trkpt>
      <trkpt lat="48.516259007155895" lon="-4.75966396741569">
        <ele>13.6</ele>
        <time>2018-07-06T09:49:23Z</time>
      </trkpt>
      <trkpt lat="48.516327990218997" lon="-4.759494988247752">
        <ele>14.56</ele>
        <time>2018-07-06T09:49:25Z</time>
      </trkpt>
      <trkpt lat="48.516360009089112" lon="-4.759417036548257">
        <ele>15.039999999999999</ele>
        <time>2018-07-06T09:49:26Z</time>
      </trkpt>
      <trkpt lat="48.516377024352551" lon="-4.759375965222716">
        <ele>16</ele>
        <time>2018-07-06T09:49:27Z</time>
      </trkpt>
      <trkpt lat="48.516369983553886" lon="-4.759282004088163">
        <ele>16.48</ele>
        <time>2018-07-06T09:49:28Z</time>
      </trkpt>
      <trkpt lat="48.516365038231015" lon="-4.759197011590004">
        <ele>16.960000000000001</ele>
        <time>2018-07-06T09:49:29Z</time>
      </trkpt>
      <trkpt lat="48.516359003260732" lon="-4.759105984121561">
        <ele>17.440000000000001</ele>
        <time>2018-07-06T09:49:30Z</time>
      </trkpt>
      <trkpt lat="48.516342993825674" lon="-4.759039012715221">
        <ele>17.920000000000002</ele>
        <time>2018-07-06T09:49:31Z</time>
      </trkpt>
      <trkpt lat="48.516303012147546" lon="-4.758986961096525">
        <ele>17.920000000000002</ele>
        <time>2018-07-06T09:49:32Z</time>
      </trkpt>
      <trkpt lat="48.516262024641037" lon="-4.758932981640101">
        <ele>17.920000000000002</ele>
        <time>2018-07-06T09:49:33Z</time>
      </trkpt>
      <trkpt lat="48.516218019649386" lon="-4.758874978870153">
        <ele>17.920000000000002</ele>
        <time>2018-07-06T09:49:34Z</time>
      </trkpt>
      <trkpt lat="48.516172003000975" lon="-4.758814964443445">
        <ele>17.920000000000002</ele>
        <time>2018-07-06T09:49:35Z</time>
      </trkpt>
      <trkpt lat="48.516092039644718" lon="-4.758711028844118">
        <ele>17.920000000000002</ele>
        <time>2018-07-06T09:49:37Z</time>
      </trkpt>
      <trkpt lat="48.516066977754235" lon="-4.758644979447126">
        <ele>18.399999999999999</ele>
        <time>2018-07-06T09:49:38Z</time>
      </trkpt>
      <trkpt lat="48.516051974147558" lon="-4.758567027747631">
        <ele>18.399999999999999</ele>
        <time>2018-07-06T09:49:39Z</time>
      </trkpt>
      <trkpt lat="48.51603495888412" lon="-4.758482035249472">
        <ele>17.920000000000002</ele>
        <time>2018-07-06T09:49:40Z</time>
      </trkpt>
      <trkpt lat="48.516015009954572" lon="-4.758385978639126">
        <ele>17.920000000000002</ele>
        <time>2018-07-06T09:49:41Z</time>
      </trkpt>
      <trkpt lat="48.516006963327527" lon="-4.758280031383038">
        <ele>17.440000000000001</ele>
        <time>2018-07-06T09:49:42Z</time>
      </trkpt>
      <trkpt lat="48.516001012176275" lon="-4.758169976994395">
        <ele>17.440000000000001</ele>
        <time>2018-07-06T09:49:43Z</time>
      </trkpt>
      <trkpt lat="48.515994977205992" lon="-4.758055983111262">
        <ele>17.440000000000001</ele>
        <time>2018-07-06T09:49:44Z</time>
      </trkpt>
      <trkpt lat="48.515988020226359" lon="-4.757939977571368">
        <ele>17.440000000000001</ele>
        <time>2018-07-06T09:49:45Z</time>
      </trkpt>
      <trkpt lat="48.515944015234709" lon="-4.757493976503611">
        <ele>17.440000000000001</ele>
        <time>2018-07-06T09:49:49Z</time>
      </trkpt>
      <trkpt lat="48.515916019678116" lon="-4.757408984005451">
        <ele>17.440000000000001</ele>
        <time>2018-07-06T09:49:50Z</time>
      </trkpt>
      <trkpt lat="48.515866985544562" lon="-4.757334971800447">
        <ele>16.960000000000001</ele>
        <time>2018-07-06T09:49:51Z</time>
      </trkpt>
      <trkpt lat="48.515813006088138" lon="-4.757254002615809">
        <ele>16.960000000000001</ele>
        <time>2018-07-06T09:49:52Z</time>
      </trkpt>
      <trkpt lat="48.515757014974952" lon="-4.757170015946031">
        <ele>16.960000000000001</ele>
        <time>2018-07-06T09:49:53Z</time>
      </trkpt>
      <trkpt lat="48.515699012205005" lon="-4.75708301179111">
        <ele>16.48</ele>
        <time>2018-07-06T09:49:54Z</time>
      </trkpt>
      <trkpt lat="48.515654001384974" lon="-4.75697597488761">
        <ele>16.48</ele>
        <time>2018-07-06T09:49:55Z</time>
      </trkpt>
      <trkpt lat="48.515630029141903" lon="-4.756869021803141">
        <ele>16</ele>
        <time>2018-07-06T09:49:56Z</time>
      </trkpt>
      <trkpt lat="48.515606978908181" lon="-4.756771037355065">
        <ele>16</ele>
        <time>2018-07-06T09:49:57Z</time>
      </trkpt>
      <trkpt lat="48.515588035807014" lon="-4.756688978523016">
        <ele>15.52</ele>
        <time>2018-07-06T09:49:58Z</time>
      </trkpt>
      <trkpt lat="48.515573032200336" lon="-4.756625024601817">
        <ele>15.52</ele>
        <time>2018-07-06T09:49:59Z</time>
      </trkpt>
      <trkpt lat="48.51556196808815" lon="-4.756573978811503">
        <ele>15.52</ele>
        <time>2018-07-06T09:50:00Z</time>
      </trkpt>
      <trkpt lat="48.51549600251019" lon="-4.756495021283627">
        <ele>15.52</ele>
        <time>2018-07-06T09:50:01Z</time>
      </trkpt>
      <trkpt lat="48.515462977811694" lon="-4.756507007405162">
        <ele>15.52</ele>
        <time>2018-07-06T09:50:02Z</time>
      </trkpt>
      <trkpt lat="48.515416961163282" lon="-4.7565240226686">
        <ele>15.039999999999999</ele>
        <time>2018-07-06T09:50:03Z</time>
      </trkpt>
      <trkpt lat="48.515362981706858" lon="-4.756543971598148">
        <ele>15.039999999999999</ele>
        <time>2018-07-06T09:50:04Z</time>
      </trkpt>
      <trkpt lat="48.514633001759648" lon="-4.756810013204813">
        <ele>13.6</ele>
        <time>2018-07-06T09:50:13Z</time>
      </trkpt>
      <trkpt lat="48.514439966529608" lon="-4.756881007924676">
        <ele>13.119999999999999</ele>
        <time>2018-07-06T09:50:15Z</time>
      </trkpt>
      <trkpt lat="48.513874020427465" lon="-4.757188959047198">
        <ele>12.15</ele>
        <time>2018-07-06T09:50:21Z</time>
      </trkpt>
      <trkpt lat="48.513723984360695" lon="-4.757358022034168">
        <ele>11.67</ele>
        <time>2018-07-06T09:50:23Z</time>
      </trkpt>
      <trkpt lat="48.513084026053548" lon="-4.758387990295887">
        <ele>13.6</ele>
        <time>2018-07-06T09:50:32Z</time>
      </trkpt>
      <trkpt lat="48.512342981994152" lon="-4.759740997105837">
        <ele>18.879999999999999</ele>
        <time>2018-07-06T09:50:43Z</time>
      </trkpt>
      <trkpt lat="48.511835038661957" lon="-4.760915972292423">
        <ele>20.809999999999999</ele>
        <time>2018-07-06T09:50:52Z</time>
      </trkpt>
      <trkpt lat="48.511086031794548" lon="-4.762223968282342">
        <ele>22.73</ele>
        <time>2018-07-06T09:51:03Z</time>
      </trkpt>
      <trkpt lat="48.510610023513436" lon="-4.762972975149751">
        <ele>26.09</ele>
        <time>2018-07-06T09:51:12Z</time>
      </trkpt>
      <trkpt lat="48.510603988543153" lon="-4.763087974861264">
        <ele>26.57</ele>
        <time>2018-07-06T09:51:15Z</time>
      </trkpt>
      <trkpt lat="48.510603988543153" lon="-4.763087974861264">
        <ele>26.57</ele>
        <time>2018-07-06T09:51:16Z</time>
      </trkpt>
      <trkpt lat="48.510603988543153" lon="-4.763877969235182">
        <ele>26.09</ele>
        <time>2018-07-06T09:51:23Z</time>
      </trkpt>
      <trkpt lat="48.510603988543153" lon="-4.763974025845528">
        <ele>25.609999999999999</ele>
        <time>2018-07-06T09:51:24Z</time>
      </trkpt>
      <trkpt lat="48.510603988543153" lon="-4.764073016121984">
        <ele>25.129999999999999</ele>
        <time>2018-07-06T09:51:25Z</time>
      </trkpt>
      <trkpt lat="48.510627038776875" lon="-4.764240989461541">
        <ele>24.170000000000002</ele>
        <time>2018-07-06T09:51:27Z</time>
      </trkpt>
      <trkpt lat="48.510657967999578" lon="-4.764321036636829">
        <ele>23.210000000000001</ele>
        <time>2018-07-06T09:51:28Z</time>
      </trkpt>
      <trkpt lat="48.510686969384551" lon="-4.764396976679564">
        <ele>22.73</ele>
        <time>2018-07-06T09:51:29Z</time>
      </trkpt>
      <trkpt lat="48.510717982426286" lon="-4.764478029683232">
        <ele>22.25</ele>
        <time>2018-07-06T09:51:30Z</time>
      </trkpt>
      <trkpt lat="48.51074798963964" lon="-4.764555981382728">
        <ele>21.77</ele>
        <time>2018-07-06T09:51:31Z</time>
      </trkpt>
      <trkpt lat="48.510774979367852" lon="-4.76462597027421">
        <ele>21.289999999999999</ele>
        <time>2018-07-06T09:51:32Z</time>
      </trkpt>
      <trkpt lat="48.510840022936463" lon="-4.76483803242445">
        <ele>19.84</ele>
        <time>2018-07-06T09:51:36Z</time>
      </trkpt>
      <trkpt lat="48.510823007673025" lon="-4.764864016324282">
        <ele>19.359999999999999</ele>
        <time>2018-07-06T09:51:37Z</time>
      </trkpt>
      <trkpt lat="48.510775985196233" lon="-4.764825962483883">
        <ele>19.359999999999999</ele>
        <time>2018-07-06T09:51:38Z</time>
      </trkpt>
      <trkpt lat="48.510754024609923" lon="-4.764829985797405">
        <ele>19.359999999999999</ele>
        <time>2018-07-06T09:51:39Z</time>
      </trkpt>
      <trkpt lat="48.510703984647989" lon="-4.764839038252831">
        <ele>18.879999999999999</ele>
        <time>2018-07-06T09:51:40Z</time>
      </trkpt>
      <trkpt lat="48.510644976049662" lon="-4.764848006889224">
        <ele>18.879999999999999</ele>
        <time>2018-07-06T09:51:41Z</time>
      </trkpt>
      <trkpt lat="48.509880965575576" lon="-4.764978010207415">
        <ele>21.289999999999999</ele>
        <time>2018-07-06T09:51:50Z</time>
      </trkpt>
      <trkpt lat="48.509401017799973" lon="-4.765106001868844">
        <ele>23.690000000000001</ele>
        <time>2018-07-06T09:51:57Z</time>
      </trkpt>
      <trkpt lat="48.508832976222038" lon="-4.765289984643459">
        <ele>22.25</ele>
        <time>2018-07-06T09:52:04Z</time>
      </trkpt>
      <trkpt lat="48.508758964017034" lon="-4.765316974371672">
        <ele>22.25</ele>
        <time>2018-07-06T09:52:05Z</time>
      </trkpt>
      <trkpt lat="48.508690986782312" lon="-4.765341030433774">
        <ele>22.25</ele>
        <time>2018-07-06T09:52:06Z</time>
      </trkpt>
      <trkpt lat="48.508622003719211" lon="-4.765366008505225">
        <ele>22.73</ele>
        <time>2018-07-06T09:52:07Z</time>
      </trkpt>
      <trkpt lat="48.508546985685825" lon="-4.765390986576676">
        <ele>23.210000000000001</ele>
        <time>2018-07-06T09:52:08Z</time>
      </trkpt>
      <trkpt lat="48.508457969874144" lon="-4.765416970476508">
        <ele>23.690000000000001</ele>
        <time>2018-07-06T09:52:09Z</time>
      </trkpt>
      <trkpt lat="48.508355962112546" lon="-4.765445971861482">
        <ele>24.170000000000002</ele>
        <time>2018-07-06T09:52:10Z</time>
      </trkpt>
      <trkpt lat="48.508248003199697" lon="-4.765481008216739">
        <ele>24.649999999999999</ele>
        <time>2018-07-06T09:52:11Z</time>
      </trkpt>
      <trkpt lat="48.507678033784032" lon="-4.765663985162973">
        <ele>28.98</ele>
        <time>2018-07-06T09:52:17Z</time>
      </trkpt>
      <trkpt lat="48.507191967219114" lon="-4.765813015401363">
        <ele>30.420000000000002</ele>
        <time>2018-07-06T09:52:22Z</time>
      </trkpt>
      <trkpt lat="48.50709498859942" lon="-4.765838999301195">
        <ele>30.420000000000002</ele>
        <time>2018-07-06T09:52:23Z</time>
      </trkpt>
      <trkpt lat="48.505725972354412" lon="-4.766179975122213">
        <ele>35.229999999999997</ele>
        <time>2018-07-06T09:52:36Z</time>
      </trkpt>
      <trkpt lat="48.504583016037941" lon="-4.766196990385652">
        <ele>38.109999999999999</ele>
        <time>2018-07-06T09:52:47Z</time>
      </trkpt>
      <trkpt lat="48.504470027983189" lon="-4.766145022585988">
        <ele>38.109999999999999</ele>
        <time>2018-07-06T09:52:48Z</time>
      </trkpt>
      <trkpt lat="48.504360979422927" lon="-4.766080984845758">
        <ele>38.590000000000003</ele>
        <time>2018-07-06T09:52:49Z</time>
      </trkpt>
      <trkpt lat="48.502876041457057" lon="-4.764974992722273">
        <ele>38.590000000000003</ele>
        <time>2018-07-06T09:53:02Z</time>
      </trkpt>
      <trkpt lat="48.502633972093463" lon="-4.764822022989392">
        <ele>38.109999999999999</ele>
        <time>2018-07-06T09:53:04Z</time>
      </trkpt>
      <trkpt lat="48.501447010785341" lon="-4.764468977227807">
        <ele>38.590000000000003</ele>
        <time>2018-07-06T09:53:14Z</time>
      </trkpt>
      <trkpt lat="48.499871967360377" lon="-4.764165971428156">
        <ele>40.509999999999998</ele>
        <time>2018-07-06T09:53:27Z</time>
      </trkpt>
      <trkpt lat="48.499486986547709" lon="-4.76415297947824">
        <ele>40.990000000000002</ele>
        <time>2018-07-06T09:53:30Z</time>
      </trkpt>
      <trkpt lat="48.497893000021577" lon="-4.764549024403095">
        <ele>38.590000000000003</ele>
        <time>2018-07-06T09:53:41Z</time>
      </trkpt>
      <trkpt lat="48.497583037242293" lon="-4.764667041599751">
        <ele>37.630000000000003</ele>
        <time>2018-07-06T09:53:43Z</time>
      </trkpt>
      <trkpt lat="48.497436018660665" lon="-4.764764020219445">
        <ele>37.149999999999999</ele>
        <time>2018-07-06T09:53:44Z</time>
      </trkpt>
      <trkpt lat="48.496205974370241" lon="-4.765400039032102">
        <ele>33.299999999999997</ele>
        <time>2018-07-06T09:53:52Z</time>
      </trkpt>
      <trkpt lat="48.496045041829348" lon="-4.765380006283522">
        <ele>32.82</ele>
        <time>2018-07-06T09:53:53Z</time>
      </trkpt>
      <trkpt lat="48.495881007984281" lon="-4.765348993241787">
        <ele>32.340000000000003</ele>
        <time>2018-07-06T09:53:54Z</time>
      </trkpt>
      <trkpt lat="48.495722003281116" lon="-4.765289984643459">
        <ele>31.859999999999999</ele>
        <time>2018-07-06T09:53:55Z</time>
      </trkpt>
      <trkpt lat="48.495566016063094" lon="-4.765222007408738">
        <ele>31.379999999999999</ele>
        <time>2018-07-06T09:53:56Z</time>
      </trkpt>
      <trkpt lat="48.493716968223453" lon="-4.764534020796418">
        <ele>30.899999999999999</ele>
        <time>2018-07-06T09:54:08Z</time>
      </trkpt>
      <trkpt lat="48.493545977398753" lon="-4.764482975006104">
        <ele>30.420000000000002</ele>
        <time>2018-07-06T09:54:09Z</time>
      </trkpt>
      <trkpt lat="48.493400970473886" lon="-4.764493033289909">
        <ele>29.940000000000001</ele>
        <time>2018-07-06T09:54:10Z</time>
      </trkpt>
      <trkpt lat="48.493244983255863" lon="-4.764504013583064">
        <ele>29.940000000000001</ele>
        <time>2018-07-06T09:54:11Z</time>
      </trkpt>
      <trkpt lat="48.493096958845854" lon="-4.764567967504263">
        <ele>29.460000000000001</ele>
        <time>2018-07-06T09:54:12Z</time>
      </trkpt>
      <trkpt lat="48.492954969406128" lon="-4.764628987759352">
        <ele>28.98</ele>
        <time>2018-07-06T09:54:13Z</time>
      </trkpt>
      <trkpt lat="48.492827983573079" lon="-4.764742981642485">
        <ele>28.98</ele>
        <time>2018-07-06T09:54:14Z</time>
      </trkpt>
      <trkpt lat="48.492705021053553" lon="-4.764859993010759">
        <ele>28.5</ele>
        <time>2018-07-06T09:54:15Z</time>
      </trkpt>
      <trkpt lat="48.492579963058233" lon="-4.764978010207415">
        <ele>28.5</ele>
        <time>2018-07-06T09:54:16Z</time>
      </trkpt>
      <trkpt lat="48.492468986660242" lon="-4.765126034617424">
        <ele>28.02</ele>
        <time>2018-07-06T09:54:17Z</time>
      </trkpt>
      <trkpt lat="48.492362033575773" lon="-4.765281016007066">
        <ele>28.02</ele>
        <time>2018-07-06T09:54:18Z</time>
      </trkpt>
      <trkpt lat="48.491705982014537" lon="-4.766068998724222">
        <ele>27.530000000000001</ele>
        <time>2018-07-06T09:54:24Z</time>
      </trkpt>
      <trkpt lat="48.491574972867966" lon="-4.766158014535904">
        <ele>27.530000000000001</ele>
        <time>2018-07-06T09:54:25Z</time>
      </trkpt>
      <trkpt lat="48.49046696908772" lon="-4.767068037763238">
        <ele>25.129999999999999</ele>
        <time>2018-07-06T09:54:34Z</time>
      </trkpt>
      <trkpt lat="48.489507995545864" lon="-4.768314007669687">
        <ele>22.25</ele>
        <time>2018-07-06T09:54:42Z</time>
      </trkpt>
      <trkpt lat="48.488718001171947" lon="-4.769440032541752">
        <ele>19.84</ele>
        <time>2018-07-06T09:54:50Z</time>
      </trkpt>
      <trkpt lat="48.488479033112526" lon="-4.769798023626208">
        <ele>18.879999999999999</ele>
        <time>2018-07-06T09:54:53Z</time>
      </trkpt>
      <trkpt lat="48.488335032016039" lon="-4.770073033869267">
        <ele>17.920000000000002</ele>
        <time>2018-07-06T09:54:55Z</time>
      </trkpt>
      <trkpt lat="48.488116012886167" lon="-4.770453991368413">
        <ele>16.960000000000001</ele>
        <time>2018-07-06T09:54:58Z</time>
      </trkpt>
      <trkpt lat="48.488026997074485" lon="-4.770552981644869">
        <ele>16.48</ele>
        <time>2018-07-06T09:54:59Z</time>
      </trkpt>
      <trkpt lat="48.48792901262641" lon="-4.770643003284931">
        <ele>16</ele>
        <time>2018-07-06T09:55:00Z</time>
      </trkpt>
      <trkpt lat="48.487818958237767" lon="-4.770707963034511">
        <ele>15.52</ele>
        <time>2018-07-06T09:55:01Z</time>
      </trkpt>
      <trkpt lat="48.487702030688524" lon="-4.770779041573405">
        <ele>15.52</ele>
        <time>2018-07-06T09:55:02Z</time>
      </trkpt>
      <trkpt lat="48.487582001835108" lon="-4.770850958302617">
        <ele>15.52</ele>
        <time>2018-07-06T09:55:03Z</time>
      </trkpt>
      <trkpt lat="48.48745996132493" lon="-4.770923964679241">
        <ele>15.039999999999999</ele>
        <time>2018-07-06T09:55:04Z</time>
      </trkpt>
      <trkpt lat="48.487215964123607" lon="-4.771069977432489">
        <ele>15.039999999999999</ele>
        <time>2018-07-06T09:55:06Z</time>
      </trkpt>
      <trkpt lat="48.487088978290558" lon="-4.771116999909282">
        <ele>15.039999999999999</ele>
        <time>2018-07-06T09:55:07Z</time>
      </trkpt>
      <trkpt lat="48.486735010519624" lon="-4.771219007670879">
        <ele>14.08</ele>
        <time>2018-07-06T09:55:10Z</time>
      </trkpt>
      <trkpt lat="48.486617999151349" lon="-4.771215990185738">
        <ele>14.08</ele>
        <time>2018-07-06T09:55:11Z</time>
      </trkpt>
      <trkpt lat="48.485687021166086" lon="-4.771172991022468">
        <ele>13.6</ele>
        <time>2018-07-06T09:55:20Z</time>
      </trkpt>
      <trkpt lat="48.484857967123389" lon="-4.771101996302605">
        <ele>12.630000000000001</ele>
        <time>2018-07-06T09:55:31Z</time>
      </trkpt>
      <trkpt lat="48.483772007748485" lon="-4.770783986896277">
        <ele>13.119999999999999</ele>
        <time>2018-07-06T09:55:41Z</time>
      </trkpt>
      <trkpt lat="48.483398007228971" lon="-4.770558010786772">
        <ele>14.56</ele>
        <time>2018-07-06T09:55:44Z</time>
      </trkpt>
      <trkpt lat="48.483283007517457" lon="-4.77044896222651">
        <ele>15.039999999999999</ele>
        <time>2018-07-06T09:55:45Z</time>
      </trkpt>
      <trkpt lat="48.48318200558424" lon="-4.7703199647367">
        <ele>15.039999999999999</ele>
        <time>2018-07-06T09:55:46Z</time>
      </trkpt>
      <trkpt lat="48.483102964237332" lon="-4.770162971690297">
        <ele>15.039999999999999</ele>
        <time>2018-07-06T09:55:47Z</time>
      </trkpt>
      <trkpt lat="48.483030963689089" lon="-4.77001897059381">
        <ele>15.039999999999999</ele>
        <time>2018-07-06T09:55:48Z</time>
      </trkpt>
      <trkpt lat="48.483003973960876" lon="-4.769815038889647">
        <ele>14.56</ele>
        <time>2018-07-06T09:55:49Z</time>
      </trkpt>
      <trkpt lat="48.482978995889425" lon="-4.769628960639238">
        <ele>14.56</ele>
        <time>2018-07-06T09:55:50Z</time>
      </trkpt>
      <trkpt lat="48.482955023646355" lon="-4.769443972036243">
        <ele>14.08</ele>
        <time>2018-07-06T09:55:51Z</time>
      </trkpt>
      <trkpt lat="48.48288101144135" lon="-4.769077012315393">
        <ele>13.6</ele>
        <time>2018-07-06T09:55:53Z</time>
      </trkpt>
      <trkpt lat="48.482843963429332" lon="-4.76889998652041">
        <ele>13.6</ele>
        <time>2018-07-06T09:55:54Z</time>
      </trkpt>
      <trkpt lat="48.482796018943191" lon="-4.768730001524091">
        <ele>13.6</ele>
        <time>2018-07-06T09:55:55Z</time>
      </trkpt>
      <trkpt lat="48.482725024223328" lon="-4.768574014306068">
        <ele>13.6</ele>
        <time>2018-07-06T09:55:56Z</time>
      </trkpt>
      <trkpt lat="48.482626033946872" lon="-4.768443005159497">
        <ele>13.6</ele>
        <time>2018-07-06T09:55:57Z</time>
      </trkpt>
      <trkpt lat="48.48251698538661" lon="-4.76831903681159">
        <ele>14.08</ele>
        <time>2018-07-06T09:55:58Z</time>
      </trkpt>
      <trkpt lat="48.482405003160238" lon="-4.76819196715951">
        <ele>14.08</ele>
        <time>2018-07-06T09:55:59Z</time>
      </trkpt>
      <trkpt lat="48.482276005670428" lon="-4.768091971054673">
        <ele>14.08</ele>
        <time>2018-07-06T09:56:00Z</time>
      </trkpt>
      <trkpt lat="48.481326000764966" lon="-4.767143977805972">
        <ele>13.6</ele>
        <time>2018-07-06T09:56:08Z</time>
      </trkpt>
      <trkpt lat="48.480928028002381" lon="-4.766714992001653">
        <ele>13.119999999999999</ele>
        <time>2018-07-06T09:56:12Z</time>
      </trkpt>
      <trkpt lat="48.480814034119248" lon="-4.766633016988635">
        <ele>12.630000000000001</ele>
        <time>2018-07-06T09:56:13Z</time>
      </trkpt>
      <trkpt lat="48.480687970295548" lon="-4.766594041138887">
        <ele>12.15</ele>
        <time>2018-07-06T09:56:14Z</time>
      </trkpt>
      <trkpt lat="48.480559978634119" lon="-4.766575014218688">
        <ele>11.67</ele>
        <time>2018-07-06T09:56:15Z</time>
      </trkpt>
      <trkpt lat="48.480429975315928" lon="-4.766554981470108">
        <ele>11.19</ele>
        <time>2018-07-06T09:56:16Z</time>
      </trkpt>
      <trkpt lat="48.479275032877922" lon="-4.766039997339249">
        <ele>14.56</ele>
        <time>2018-07-06T09:56:25Z</time>
      </trkpt>
      <trkpt lat="48.479162966832519" lon="-4.765920974314213">
        <ele>15.039999999999999</ele>
        <time>2018-07-06T09:56:26Z</time>
      </trkpt>
      <trkpt lat="48.479054002091289" lon="-4.765801029279828">
        <ele>15.52</ele>
        <time>2018-07-06T09:56:27Z</time>
      </trkpt>
      <trkpt lat="48.478961968794465" lon="-4.76565602235496">
        <ele>16</ele>
        <time>2018-07-06T09:56:28Z</time>
      </trkpt>
      <trkpt lat="48.478878987953067" lon="-4.76550598628819">
        <ele>16.48</ele>
        <time>2018-07-06T09:56:29Z</time>
      </trkpt>
      <trkpt lat="48.478802964091301" lon="-4.765343964099884">
        <ele>17.440000000000001</ele>
        <time>2018-07-06T09:56:30Z</time>
      </trkpt>
      <trkpt lat="48.478646976873279" lon="-4.765006005764008">
        <ele>17.920000000000002</ele>
        <time>2018-07-06T09:56:32Z</time>
      </trkpt>
      <trkpt lat="48.478566007688642" lon="-4.764830991625786">
        <ele>17.920000000000002</ele>
        <time>2018-07-06T09:56:33Z</time>
      </trkpt>
      <trkpt lat="48.478483026847243" lon="-4.764652037993074">
        <ele>17.920000000000002</ele>
        <time>2018-07-06T09:56:34Z</time>
      </trkpt>
      <trkpt lat="48.478165017440915" lon="-4.763920968398452">
        <ele>17.440000000000001</ele>
        <time>2018-07-06T09:56:38Z</time>
      </trkpt>
      <trkpt lat="48.477997966110706" lon="-4.763311017304659">
        <ele>17.440000000000001</ele>
        <time>2018-07-06T09:56:41Z</time>
      </trkpt>
      <trkpt lat="48.477808032184839" lon="-4.76221701130271">
        <ele>19.84</ele>
        <time>2018-07-06T09:56:46Z</time>
      </trkpt>
      <trkpt lat="48.47770401276648" lon="-4.761577975004911">
        <ele>21.77</ele>
        <time>2018-07-06T09:56:49Z</time>
      </trkpt>
      <trkpt lat="48.477656990289688" lon="-4.761391980573535">
        <ele>22.25</ele>
        <time>2018-07-06T09:56:50Z</time>
      </trkpt>
      <trkpt lat="48.477593958377838" lon="-4.761216966435313">
        <ele>22.73</ele>
        <time>2018-07-06T09:56:51Z</time>
      </trkpt>
      <trkpt lat="48.477528998628259" lon="-4.76103700697422">
        <ele>22.25</ele>
        <time>2018-07-06T09:56:52Z</time>
      </trkpt>
      <trkpt lat="48.477458003908396" lon="-4.760859981179237">
        <ele>22.73</ele>
        <time>2018-07-06T09:56:53Z</time>
      </trkpt>
      <trkpt lat="48.476880993694067" lon="-4.759834036231041">
        <ele>22.25</ele>
        <time>2018-07-06T09:56:59Z</time>
      </trkpt>
      <trkpt lat="48.475836021825671" lon="-4.758378015831113">
        <ele>21.77</ele>
        <time>2018-07-06T09:57:08Z</time>
      </trkpt>
      <trkpt lat="48.475196985527873" lon="-4.757487019523978">
        <ele>20.809999999999999</ele>
        <time>2018-07-06T09:57:16Z</time>
      </trkpt>
      <trkpt lat="48.474487038329244" lon="-4.756493009626865">
        <ele>20.32</ele>
        <time>2018-07-06T09:57:26Z</time>
      </trkpt>
      <trkpt lat="48.473614985123277" lon="-4.755337983369827">
        <ele>18.879999999999999</ele>
        <time>2018-07-06T09:57:38Z</time>
      </trkpt>
      <trkpt lat="48.473357995972037" lon="-4.754972029477358">
        <ele>17.920000000000002</ele>
        <time>2018-07-06T09:57:42Z</time>
      </trkpt>
      <trkpt lat="48.473310973495245" lon="-4.754890976473689">
        <ele>17.440000000000001</ele>
        <time>2018-07-06T09:57:43Z</time>
      </trkpt>
      <trkpt lat="48.473264034837484" lon="-4.754750998690724">
        <ele>16.960000000000001</ele>
        <time>2018-07-06T09:57:44Z</time>
      </trkpt>
      <trkpt lat="48.473224975168705" lon="-4.75463398732245">
        <ele>16.960000000000001</ele>
        <time>2018-07-06T09:57:45Z</time>
      </trkpt>
      <trkpt lat="48.473204020410776" lon="-4.754503984004259">
        <ele>16.48</ele>
        <time>2018-07-06T09:57:46Z</time>
      </trkpt>
      <trkpt lat="48.473204020410776" lon="-4.754372974857688">
        <ele>16</ele>
        <time>2018-07-06T09:57:47Z</time>
      </trkpt>
      <trkpt lat="48.473204020410776" lon="-4.75424699485302">
        <ele>15.039999999999999</ele>
        <time>2018-07-06T09:57:48Z</time>
      </trkpt>
      <trkpt lat="48.473219024017453" lon="-4.754127971827984">
        <ele>15.039999999999999</ele>
        <time>2018-07-06T09:57:49Z</time>
      </trkpt>
      <trkpt lat="48.473242996260524" lon="-4.754010960459709">
        <ele>14.56</ele>
        <time>2018-07-06T09:57:50Z</time>
      </trkpt>
      <trkpt lat="48.473265962675214" lon="-4.753895038738847">
        <ele>14.08</ele>
        <time>2018-07-06T09:57:51Z</time>
      </trkpt>
      <trkpt lat="48.473411975428462" lon="-4.752942016348243">
        <ele>10.710000000000001</ele>
        <time>2018-07-06T09:58:00Z</time>
      </trkpt>
      <trkpt lat="48.473421027883887" lon="-4.752876972779632">
        <ele>10.23</ele>
        <time>2018-07-06T09:58:01Z</time>
      </trkpt>
      <trkpt lat="48.473431002348661" lon="-4.752804972231388">
        <ele>10.23</ele>
        <time>2018-07-06T09:58:02Z</time>
      </trkpt>
      <trkpt lat="48.473442988470197" lon="-4.752726014703512">
        <ele>10.23</ele>
        <time>2018-07-06T09:58:03Z</time>
      </trkpt>
      <trkpt lat="48.473460003733635" lon="-4.75263599306345">
        <ele>9.75</ele>
        <time>2018-07-06T09:58:04Z</time>
      </trkpt>
      <trkpt lat="48.473479030653834" lon="-4.752537002786994">
        <ele>9.75</ele>
        <time>2018-07-06T09:58:05Z</time>
      </trkpt>
      <trkpt lat="48.473497973755002" lon="-4.752434995025396">
        <ele>9.27</ele>
        <time>2018-07-06T09:58:06Z</time>
      </trkpt>
      <trkpt lat="48.473538961261511" lon="-4.752240031957626">
        <ele>9.27</ele>
        <time>2018-07-06T09:58:08Z</time>
      </trkpt>
      <trkpt lat="48.473650021478534" lon="-4.751923028379679">
        <ele>8.789999999999999</ele>
        <time>2018-07-06T09:58:12Z</time>
      </trkpt>
      <trkpt lat="48.473692014813423" lon="-4.751843987032771">
        <ele>8.310000000000001</ele>
        <time>2018-07-06T09:58:13Z</time>
      </trkpt>
      <trkpt lat="48.473801985383034" lon="-4.751695962622762">
        <ele>7.35</ele>
        <time>2018-07-06T09:58:15Z</time>
      </trkpt>
      <trkpt lat="48.473859988152981" lon="-4.751618010923266">
        <ele>7.35</ele>
        <time>2018-07-06T09:58:16Z</time>
      </trkpt>
      <trkpt lat="48.474263995885849" lon="-4.751074025407434">
        <ele>7.35</ele>
        <time>2018-07-06T09:58:24Z</time>
      </trkpt>
      <trkpt lat="48.474298026412725" lon="-4.751029014587402">
        <ele>7.35</ele>
        <time>2018-07-06T09:58:25Z</time>
      </trkpt>
      <trkpt lat="48.474318981170654" lon="-4.75091602653265">
        <ele>7.83</ele>
        <time>2018-07-06T09:58:26Z</time>
      </trkpt>
      <trkpt lat="48.474337002262473" lon="-4.750812007114291">
        <ele>7.83</ele>
        <time>2018-07-06T09:58:27Z</time>
      </trkpt>
      <trkpt lat="48.474358040839434" lon="-4.750697007402778">
        <ele>7.83</ele>
        <time>2018-07-06T09:58:28Z</time>
      </trkpt>
      <trkpt lat="48.474380001425743" lon="-4.750581001862884">
        <ele>8.310000000000001</ele>
        <time>2018-07-06T09:58:29Z</time>
      </trkpt>
      <trkpt lat="48.474364997819066" lon="-4.750469019636512">
        <ele>8.789999999999999</ele>
        <time>2018-07-06T09:58:30Z</time>
      </trkpt>
      <trkpt lat="48.474339013919234" lon="-4.750343961641192">
        <ele>9.27</ele>
        <time>2018-07-06T09:58:31Z</time>
      </trkpt>
      <trkpt lat="48.474313030019403" lon="-4.750217981636524">
        <ele>10.23</ele>
        <time>2018-07-06T09:58:32Z</time>
      </trkpt>
      <trkpt lat="48.474271958693862" lon="-4.750124020501971">
        <ele>10.710000000000001</ele>
        <time>2018-07-06T09:58:33Z</time>
      </trkpt>
      <trkpt lat="48.474200963973999" lon="-4.750055959448218">
        <ele>11.19</ele>
        <time>2018-07-06T09:58:34Z</time>
      </trkpt>
      <trkpt lat="48.474126029759645" lon="-4.749983958899975">
        <ele>11.19</ele>
        <time>2018-07-06T09:58:35Z</time>
      </trkpt>
      <trkpt lat="48.474049000069499" lon="-4.749909024685621">
        <ele>11.67</ele>
        <time>2018-07-06T09:58:36Z</time>
      </trkpt>
      <trkpt lat="48.473968030884862" lon="-4.749830989167094">
        <ele>11.67</ele>
        <time>2018-07-06T09:58:37Z</time>
      </trkpt>
      <trkpt lat="48.473884966224432" lon="-4.749751025810838">
        <ele>12.15</ele>
        <time>2018-07-06T09:58:38Z</time>
      </trkpt>
      <trkpt lat="48.47340501844883" lon="-4.74921902641654">
        <ele>11.67</ele>
        <time>2018-07-06T09:58:44Z</time>
      </trkpt>
      <trkpt lat="48.473338969051838" lon="-4.749106038361788">
        <ele>12.15</ele>
        <time>2018-07-06T09:58:45Z</time>
      </trkpt>
      <trkpt lat="48.4732770267874" lon="-4.748977040871978">
        <ele>12.15</ele>
        <time>2018-07-06T09:58:46Z</time>
      </trkpt>
      <trkpt lat="48.473159009590745" lon="-4.748721979558468">
        <ele>12.630000000000001</ele>
        <time>2018-07-06T09:58:48Z</time>
      </trkpt>
      <trkpt lat="48.473133025690913" lon="-4.748585019260645">
        <ele>13.119999999999999</ele>
        <time>2018-07-06T09:58:49Z</time>
      </trkpt>
      <trkpt lat="48.473108969628811" lon="-4.748460967093706">
        <ele>13.119999999999999</ele>
        <time>2018-07-06T09:58:50Z</time>
      </trkpt>
      <trkpt lat="48.47306203097105" lon="-4.747957969084382">
        <ele>14.56</ele>
        <time>2018-07-06T09:58:55Z</time>
      </trkpt>
      <trkpt lat="48.473125984892249" lon="-4.746906040236354">
        <ele>16.960000000000001</ele>
        <time>2018-07-06T09:59:06Z</time>
      </trkpt>
      <trkpt lat="48.473461009562016" lon="-4.746078997850418">
        <ele>17.440000000000001</ele>
        <time>2018-07-06T09:59:15Z</time>
      </trkpt>
      <trkpt lat="48.47351498901844" lon="-4.746003979817033">
        <ele>17.440000000000001</ele>
        <time>2018-07-06T09:59:16Z</time>
      </trkpt>
      <trkpt lat="48.473590007051826" lon="-4.745945977047086">
        <ele>17.440000000000001</ele>
        <time>2018-07-06T09:59:17Z</time>
      </trkpt>
      <trkpt lat="48.474310012534261" lon="-4.74539402872324">
        <ele>18.879999999999999</ele>
        <time>2018-07-06T09:59:26Z</time>
      </trkpt>
      <trkpt lat="48.47439399920404" lon="-4.745329990983009">
        <ele>18.879999999999999</ele>
        <time>2018-07-06T09:59:27Z</time>
      </trkpt>
      <trkpt lat="48.47445803694427" lon="-4.745200993493199">
        <ele>19.359999999999999</ele>
        <time>2018-07-06T09:59:28Z</time>
      </trkpt>
      <trkpt lat="48.474512016400695" lon="-4.745077025145292">
        <ele>19.359999999999999</ele>
        <time>2018-07-06T09:59:29Z</time>
      </trkpt>
      <trkpt lat="48.474561972543597" lon="-4.744949033483863">
        <ele>19.359999999999999</ele>
        <time>2018-07-06T09:59:30Z</time>
      </trkpt>
      <trkpt lat="48.474594997242093" lon="-4.744803020730615">
        <ele>19.359999999999999</ele>
        <time>2018-07-06T09:59:31Z</time>
      </trkpt>
      <trkpt lat="48.474628021940589" lon="-4.744658013805747">
        <ele>19.359999999999999</ele>
        <time>2018-07-06T09:59:32Z</time>
      </trkpt>
      <trkpt lat="48.474658029153943" lon="-4.744522981345654">
        <ele>19.359999999999999</ele>
        <time>2018-07-06T09:59:33Z</time>
      </trkpt>
      <trkpt lat="48.474687030538917" lon="-4.744391972199082">
        <ele>18.879999999999999</ele>
        <time>2018-07-06T09:59:34Z</time>
      </trkpt>
      <trkpt lat="48.474762970581651" lon="-4.743995005264878">
        <ele>18.879999999999999</ele>
        <time>2018-07-06T09:59:37Z</time>
      </trkpt>
      <trkpt lat="48.474852992221713" lon="-4.742998983711004">
        <ele>18.399999999999999</ele>
        <time>2018-07-06T09:59:44Z</time>
      </trkpt>
      <trkpt lat="48.47488802857697" lon="-4.742868980392814">
        <ele>18.399999999999999</ele>
        <time>2018-07-06T09:59:45Z</time>
      </trkpt>
      <trkpt lat="48.474965980276465" lon="-4.742649039253593">
        <ele>17.920000000000002</ele>
        <time>2018-07-06T09:59:47Z</time>
      </trkpt>
      <trkpt lat="48.475145017728209" lon="-4.742267997935414">
        <ele>16.960000000000001</ele>
        <time>2018-07-06T09:59:51Z</time>
      </trkpt>
      <trkpt lat="48.47518902271986" lon="-4.742174036800861">
        <ele>16.960000000000001</ele>
        <time>2018-07-06T09:59:52Z</time>
      </trkpt>
      <trkpt lat="48.475235039368272" lon="-4.742075968533754">
        <ele>16.960000000000001</ele>
        <time>2018-07-06T09:59:53Z</time>
      </trkpt>
      <trkpt lat="48.475284995511174" lon="-4.741973960772157">
        <ele>16.960000000000001</ele>
        <time>2018-07-06T09:59:54Z</time>
      </trkpt>
      <trkpt lat="48.475338974967599" lon="-4.741866001859307">
        <ele>16.48</ele>
        <time>2018-07-06T09:59:55Z</time>
      </trkpt>
      <trkpt lat="48.475394966080785" lon="-4.741754019632936">
        <ele>16.48</ele>
        <time>2018-07-06T09:59:56Z</time>
      </trkpt>
      <trkpt lat="48.475438971072435" lon="-4.7416159696877">
        <ele>16.48</ele>
        <time>2018-07-06T09:59:57Z</time>
      </trkpt>
      <trkpt lat="48.475478030741215" lon="-4.741458976641297">
        <ele>16.48</ele>
        <time>2018-07-06T09:59:58Z</time>
      </trkpt>
      <trkpt lat="48.475488005205989" lon="-4.741317993029952">
        <ele>16.48</ele>
        <time>2018-07-06T09:59:59Z</time>
      </trkpt>
      <trkpt lat="48.475498985499144" lon="-4.741165023297072">
        <ele>16.48</ele>
        <time>2018-07-06T10:00:00Z</time>
      </trkpt>
      <trkpt lat="48.475508959963918" lon="-4.741003001108766">
        <ele>16.48</ele>
        <time>2018-07-06T10:00:01Z</time>
      </trkpt>
      <trkpt lat="48.475521029904485" lon="-4.740820024162531">
        <ele>16.48</ele>
        <time>2018-07-06T10:00:02Z</time>
      </trkpt>
      <trkpt lat="48.47553301602602" lon="-4.740618020296097">
        <ele>16.48</ele>
        <time>2018-07-06T10:00:03Z</time>
      </trkpt>
      <trkpt lat="48.47555598244071" lon="-4.740402018651366">
        <ele>16.48</ele>
        <time>2018-07-06T10:00:04Z</time>
      </trkpt>
      <trkpt lat="48.475795034319162" lon="-4.739297032356262">
        <ele>18.399999999999999</ele>
        <time>2018-07-06T10:00:09Z</time>
      </trkpt>
      <trkpt lat="48.475868962705135" lon="-4.739110032096505">
        <ele>18.879999999999999</ele>
        <time>2018-07-06T10:00:10Z</time>
      </trkpt>
      <trkpt lat="48.475988991558552" lon="-4.738968964666128">
        <ele>18.879999999999999</ele>
        <time>2018-07-06T10:00:11Z</time>
      </trkpt>
      <trkpt lat="48.47611497156322" lon="-4.738819012418389">
        <ele>19.359999999999999</ele>
        <time>2018-07-06T10:00:12Z</time>
      </trkpt>
      <trkpt lat="48.476245980709791" lon="-4.738667970523238">
        <ele>19.359999999999999</ele>
        <time>2018-07-06T10:00:13Z</time>
      </trkpt>
      <trkpt lat="48.476491989567876" lon="-4.738395977765322">
        <ele>20.32</ele>
        <time>2018-07-06T10:00:15Z</time>
      </trkpt>
      <trkpt lat="48.476601960137486" lon="-4.738260023295879">
        <ele>20.809999999999999</ele>
        <time>2018-07-06T10:00:16Z</time>
      </trkpt>
      <trkpt lat="48.476665997877717" lon="-4.738066988065839">
        <ele>20.809999999999999</ele>
        <time>2018-07-06T10:00:17Z</time>
      </trkpt>
      <trkpt lat="48.476980989798903" lon="-4.737117988988757">
        <ele>20.809999999999999</ele>
        <time>2018-07-06T10:00:22Z</time>
      </trkpt>
      <trkpt lat="48.476995993405581" lon="-4.736934006214142">
        <ele>20.32</ele>
        <time>2018-07-06T10:00:23Z</time>
      </trkpt>
      <trkpt lat="48.476975960657001" lon="-4.736749017611146">
        <ele>19.84</ele>
        <time>2018-07-06T10:00:24Z</time>
      </trkpt>
      <trkpt lat="48.476936984807253" lon="-4.73656696267426">
        <ele>19.84</ele>
        <time>2018-07-06T10:00:25Z</time>
      </trkpt>
      <trkpt lat="48.476877976208925" lon="-4.736406030133367">
        <ele>19.359999999999999</ele>
        <time>2018-07-06T10:00:26Z</time>
      </trkpt>
      <trkpt lat="48.476821985095739" lon="-4.736253982409835">
        <ele>19.359999999999999</ele>
        <time>2018-07-06T10:00:27Z</time>
      </trkpt>
      <trkpt lat="48.476772028952837" lon="-4.736102018505335">
        <ele>19.359999999999999</ele>
        <time>2018-07-06T10:00:28Z</time>
      </trkpt>
      <trkpt lat="48.476730035617948" lon="-4.735947959125042">
        <ele>18.879999999999999</ele>
        <time>2018-07-06T10:00:29Z</time>
      </trkpt>
      <trkpt lat="48.476612018421292" lon="-4.73551101051271">
        <ele>18.879999999999999</ele>
        <time>2018-07-06T10:00:32Z</time>
      </trkpt>
      <trkpt lat="48.476572958752513" lon="-4.735364997759461">
        <ele>19.359999999999999</ele>
        <time>2018-07-06T10:00:33Z</time>
      </trkpt>
      <trkpt lat="48.476568013429642" lon="-4.735212028026581">
        <ele>19.84</ele>
        <time>2018-07-06T10:00:34Z</time>
      </trkpt>
      <trkpt lat="48.476554015651345" lon="-4.73452303558588">
        <ele>21.289999999999999</ele>
        <time>2018-07-06T10:00:38Z</time>
      </trkpt>
      <trkpt lat="48.476731963455677" lon="-4.732554964721203">
        <ele>25.129999999999999</ele>
        <time>2018-07-06T10:00:49Z</time>
      </trkpt>
      <trkpt lat="48.477010997012258" lon="-4.730908004567027">
        <ele>24.170000000000002</ele>
        <time>2018-07-06T10:00:57Z</time>
      </trkpt>
      <trkpt lat="48.477042010053992" lon="-4.730650009587407">
        <ele>23.690000000000001</ele>
        <time>2018-07-06T10:00:58Z</time>
      </trkpt>
      <trkpt lat="48.477047961205244" lon="-4.728624019771814">
        <ele>23.690000000000001</ele>
        <time>2018-07-06T10:01:06Z</time>
      </trkpt>
      <trkpt lat="48.477043015882373" lon="-4.727165987715125">
        <ele>24.649999999999999</ele>
        <time>2018-07-06T10:01:12Z</time>
      </trkpt>
      <trkpt lat="48.477053996175528" lon="-4.72691997885704">
        <ele>24.649999999999999</ele>
        <time>2018-07-06T10:01:13Z</time>
      </trkpt>
      <trkpt lat="48.477065982297063" lon="-4.726653015241027">
        <ele>24.170000000000002</ele>
        <time>2018-07-06T10:01:14Z</time>
      </trkpt>
      <trkpt lat="48.477322971448302" lon="-4.72521903924644">
        <ele>18.399999999999999</ele>
        <time>2018-07-06T10:01:20Z</time>
      </trkpt>
      <trkpt lat="48.477345015853643" lon="-4.724983004853129">
        <ele>16.960000000000001</ele>
        <time>2018-07-06T10:01:21Z</time>
      </trkpt>
      <trkpt lat="48.477314002811909" lon="-4.724730961024761">
        <ele>16</ele>
        <time>2018-07-06T10:01:22Z</time>
      </trkpt>
      <trkpt lat="48.477281983941793" lon="-4.724471038207412">
        <ele>15.039999999999999</ele>
        <time>2018-07-06T10:01:23Z</time>
      </trkpt>
      <trkpt lat="48.477214006707072" lon="-4.724214971065521">
        <ele>14.56</ele>
        <time>2018-07-06T10:01:24Z</time>
      </trkpt>
      <trkpt lat="48.477138988673687" lon="-4.723667968064547">
        <ele>14.08</ele>
        <time>2018-07-06T10:01:26Z</time>
      </trkpt>
      <trkpt lat="48.477131025865674" lon="-4.723383989185095">
        <ele>14.56</ele>
        <time>2018-07-06T10:01:27Z</time>
      </trkpt>
      <trkpt lat="48.477124990895391" lon="-4.723092969506979">
        <ele>14.56</ele>
        <time>2018-07-06T10:01:28Z</time>
      </trkpt>
      <trkpt lat="48.477002028375864" lon="-4.721223972737789">
        <ele>18.879999999999999</ele>
        <time>2018-07-06T10:01:35Z</time>
      </trkpt>
      <trkpt lat="48.477033041417599" lon="-4.720977963879705">
        <ele>19.359999999999999</ele>
        <time>2018-07-06T10:01:36Z</time>
      </trkpt>
      <trkpt lat="48.477061036974192" lon="-4.72075299359858">
        <ele>20.32</ele>
        <time>2018-07-06T10:01:37Z</time>
      </trkpt>
      <trkpt lat="48.477245019748807" lon="-4.718850972130895">
        <ele>25.609999999999999</ele>
        <time>2018-07-06T10:01:46Z</time>
      </trkpt>
      <trkpt lat="48.477279972285032" lon="-4.718478983268142">
        <ele>26.57</ele>
        <time>2018-07-06T10:01:48Z</time>
      </trkpt>
      <trkpt lat="48.477267986163497" lon="-4.718302041292191">
        <ele>27.050000000000001</ele>
        <time>2018-07-06T10:01:49Z</time>
      </trkpt>
      <trkpt lat="48.477244013920426" lon="-4.718115963041782">
        <ele>27.050000000000001</ele>
        <time>2018-07-06T10:01:50Z</time>
      </trkpt>
      <trkpt lat="48.477176036685705" lon="-4.717933991923928">
        <ele>27.530000000000001</ele>
        <time>2018-07-06T10:01:51Z</time>
      </trkpt>
      <trkpt lat="48.477090960368514" lon="-4.717745985835791">
        <ele>27.530000000000001</ele>
        <time>2018-07-06T10:01:52Z</time>
      </trkpt>
      <trkpt lat="48.476979983970523" lon="-4.717562003061175">
        <ele>27.530000000000001</ele>
        <time>2018-07-06T10:01:53Z</time>
      </trkpt>
      <trkpt lat="48.476863978430629" lon="-4.717368967831135">
        <ele>27.530000000000001</ele>
        <time>2018-07-06T10:01:54Z</time>
      </trkpt>
      <trkpt lat="48.475823029875755" lon="-4.716184018179774">
        <ele>28.98</ele>
        <time>2018-07-06T10:02:01Z</time>
      </trkpt>
      <trkpt lat="48.475679028779268" lon="-4.716029036790133">
        <ele>29.460000000000001</ele>
        <time>2018-07-06T10:02:02Z</time>
      </trkpt>
      <trkpt lat="48.475537961348891" lon="-4.715877994894981">
        <ele>30.420000000000002</ele>
        <time>2018-07-06T10:02:03Z</time>
      </trkpt>
      <trkpt lat="48.473953027278185" lon="-4.714619033038616">
        <ele>33.299999999999997</ele>
        <time>2018-07-06T10:02:13Z</time>
      </trkpt>
      <trkpt lat="48.473396971821785" lon="-4.714207984507084">
        <ele>33.299999999999997</ele>
        <time>2018-07-06T10:02:17Z</time>
      </trkpt>
      <trkpt lat="48.473290018737316" lon="-4.714100025594235">
        <ele>33.299999999999997</ele>
        <time>2018-07-06T10:02:18Z</time>
      </trkpt>
      <trkpt lat="48.473196979612112" lon="-4.713935991749167">
        <ele>32.82</ele>
        <time>2018-07-06T10:02:19Z</time>
      </trkpt>
      <trkpt lat="48.47310503013432" lon="-4.713772963732481">
        <ele>32.340000000000003</ele>
        <time>2018-07-06T10:02:20Z</time>
      </trkpt>
      <trkpt lat="48.473047027364373" lon="-4.713585041463375">
        <ele>31.379999999999999</ele>
        <time>2018-07-06T10:02:21Z</time>
      </trkpt>
      <trkpt lat="48.472985001280904" lon="-4.713371973484755">
        <ele>30.899999999999999</ele>
        <time>2018-07-06T10:02:22Z</time>
      </trkpt>
      <trkpt lat="48.472921969369054" lon="-4.713154966011643">
        <ele>29.940000000000001</ele>
        <time>2018-07-06T10:02:23Z</time>
      </trkpt>
      <trkpt lat="48.472721977159381" lon="-4.7126529738307">
        <ele>28.02</ele>
        <time>2018-07-06T10:02:26Z</time>
      </trkpt>
      <trkpt lat="48.472665986046195" lon="-4.712570998817682">
        <ele>27.050000000000001</ele>
        <time>2018-07-06T10:02:27Z</time>
      </trkpt>
      <trkpt lat="48.472626004368067" lon="-4.712512996047735">
        <ele>26.09</ele>
        <time>2018-07-06T10:02:28Z</time>
      </trkpt>
      <trkpt lat="48.47252500243485" lon="-4.712536968290806">
        <ele>25.129999999999999</ele>
        <time>2018-07-06T10:02:29Z</time>
      </trkpt>
      <trkpt lat="48.472487032413483" lon="-4.712596982717514">
        <ele>24.649999999999999</ele>
        <time>2018-07-06T10:02:30Z</time>
      </trkpt>
      <trkpt lat="48.472442021593451" lon="-4.712667977437377">
        <ele>24.170000000000002</ele>
        <time>2018-07-06T10:02:31Z</time>
      </trkpt>
      <trkpt lat="48.472412014380097" lon="-4.712768979370594">
        <ele>23.690000000000001</ele>
        <time>2018-07-06T10:02:32Z</time>
      </trkpt>
      <trkpt lat="48.472383012995124" lon="-4.712898982688785">
        <ele>23.210000000000001</ele>
        <time>2018-07-06T10:02:33Z</time>
      </trkpt>
      <trkpt lat="48.472349988296628" lon="-4.713048012927175">
        <ele>23.210000000000001</ele>
        <time>2018-07-06T10:02:34Z</time>
      </trkpt>
      <trkpt lat="48.472270024940372" lon="-4.713402986526489">
        <ele>22.73</ele>
        <time>2018-07-06T10:02:36Z</time>
      </trkpt>
      <trkpt lat="48.471958972513676" lon="-4.714787006378174">
        <ele>23.210000000000001</ele>
        <time>2018-07-06T10:02:42Z</time>
      </trkpt>
      <trkpt lat="48.471866017207503" lon="-4.715011976659298">
        <ele>24.170000000000002</ele>
        <time>2018-07-06T10:02:43Z</time>
      </trkpt>
      <trkpt lat="48.471784964203835" lon="-4.715209035202861">
        <ele>24.649999999999999</ele>
        <time>2018-07-06T10:02:44Z</time>
      </trkpt>
      <trkpt lat="48.471701983362436" lon="-4.715409027412534">
        <ele>24.649999999999999</ele>
        <time>2018-07-06T10:02:45Z</time>
      </trkpt>
      <trkpt lat="48.471608022227883" lon="-4.715553028509021">
        <ele>25.129999999999999</ele>
        <time>2018-07-06T10:02:46Z</time>
      </trkpt>
      <trkpt lat="48.471504002809525" lon="-4.715683031827211">
        <ele>25.609999999999999</ele>
        <time>2018-07-06T10:02:47Z</time>
      </trkpt>
      <trkpt lat="48.47091500647366" lon="-4.71630304120481">
        <ele>23.690000000000001</ele>
        <time>2018-07-06T10:02:53Z</time>
      </trkpt>
      <trkpt lat="48.470778968185186" lon="-4.716395996510983">
        <ele>23.210000000000001</ele>
        <time>2018-07-06T10:02:54Z</time>
      </trkpt>
      <trkpt lat="48.47067603841424" lon="-4.716402031481266">
        <ele>22.73</ele>
        <time>2018-07-06T10:02:55Z</time>
      </trkpt>
      <trkpt lat="48.469897024333477" lon="-4.716490963473916">
        <ele>20.809999999999999</ele>
        <time>2018-07-06T10:03:01Z</time>
      </trkpt>
      <trkpt lat="48.469772972166538" lon="-4.71653999760747">
        <ele>20.32</ele>
        <time>2018-07-06T10:03:02Z</time>
      </trkpt>
      <trkpt lat="48.469365024939179" lon="-4.716701013967395">
        <ele>18.879999999999999</ele>
        <time>2018-07-06T10:03:06Z</time>
      </trkpt>
      <trkpt lat="48.469272991642356" lon="-4.716715011745691">
        <ele>18.399999999999999</ele>
        <time>2018-07-06T10:03:07Z</time>
      </trkpt>
      <trkpt lat="48.469180958345532" lon="-4.716707970947027">
        <ele>17.920000000000002</ele>
        <time>2018-07-06T10:03:08Z</time>
      </trkpt>
      <trkpt lat="48.468992030248046" lon="-4.716701013967395">
        <ele>16</ele>
        <time>2018-07-06T10:03:10Z</time>
      </trkpt>
      <trkpt lat="48.468531025573611" lon="-4.716753987595439">
        <ele>13.6</ele>
        <time>2018-07-06T10:03:15Z</time>
      </trkpt>
      <trkpt lat="48.468459025025368" lon="-4.71681903116405">
        <ele>13.6</ele>
        <time>2018-07-06T10:03:16Z</time>
      </trkpt>
      <trkpt lat="48.468398004770279" lon="-4.716874016448855">
        <ele>13.119999999999999</ele>
        <time>2018-07-06T10:03:17Z</time>
      </trkpt>
      <trkpt lat="48.468332961201668" lon="-4.716933025047183">
        <ele>13.119999999999999</ele>
        <time>2018-07-06T10:03:18Z</time>
      </trkpt>
      <trkpt lat="48.468312006443739" lon="-4.716999996453524">
        <ele>13.119999999999999</ele>
        <time>2018-07-06T10:03:19Z</time>
      </trkpt>
      <trkpt lat="48.468297002837062" lon="-4.717050036415458">
        <ele>12.630000000000001</ele>
        <time>2018-07-06T10:03:20Z</time>
      </trkpt>
      <trkpt lat="48.468258026987314" lon="-4.717176016420126">
        <ele>12.630000000000001</ele>
        <time>2018-07-06T10:03:22Z</time>
      </trkpt>
      <trkpt lat="48.468256015330553" lon="-4.717285986989737">
        <ele>12.630000000000001</ele>
        <time>2018-07-06T10:03:23Z</time>
      </trkpt>
      <trkpt lat="48.468286022543907" lon="-4.717533001676202">
        <ele>13.119999999999999</ele>
        <time>2018-07-06T10:03:25Z</time>
      </trkpt>
      <trkpt lat="48.468305971473455" lon="-4.71770198084414">
        <ele>13.119999999999999</ele>
        <time>2018-07-06T10:03:26Z</time>
      </trkpt>
      <trkpt lat="48.468338996171951" lon="-4.717897027730942">
        <ele>13.6</ele>
        <time>2018-07-06T10:03:27Z</time>
      </trkpt>
      <trkpt lat="48.468646025285125" lon="-4.719581035897136">
        <ele>19.359999999999999</ele>
        <time>2018-07-06T10:03:34Z</time>
      </trkpt>
      <trkpt lat="48.468721965327859" lon="-4.720058972015977">
        <ele>21.289999999999999</ele>
        <time>2018-07-06T10:03:36Z</time>
      </trkpt>
      <trkpt lat="48.468730011954904" lon="-4.720309004187584">
        <ele>22.25</ele>
        <time>2018-07-06T10:03:37Z</time>
      </trkpt>
      <trkpt lat="48.468738980591297" lon="-4.720563981682062">
        <ele>23.210000000000001</ele>
        <time>2018-07-06T10:03:38Z</time>
      </trkpt>
      <trkpt lat="48.468700004741549" lon="-4.720829017460346">
        <ele>24.170000000000002</ele>
        <time>2018-07-06T10:03:39Z</time>
      </trkpt>
      <trkpt lat="48.468645019456744" lon="-4.721106961369515">
        <ele>25.129999999999999</ele>
        <time>2018-07-06T10:03:40Z</time>
      </trkpt>
      <trkpt lat="48.468588022515178" lon="-4.72139697521925">
        <ele>26.09</ele>
        <time>2018-07-06T10:03:41Z</time>
      </trkpt>
      <trkpt lat="48.468119977042079" lon="-4.723768969997764">
        <ele>32.82</ele>
        <time>2018-07-06T10:03:49Z</time>
      </trkpt>
      <trkpt lat="48.468017969280481" lon="-4.724025959149003">
        <ele>33.780000000000001</ele>
        <time>2018-07-06T10:03:50Z</time>
      </trkpt>
      <trkpt lat="48.467915039509535" lon="-4.724282026290894">
        <ele>34.740000000000002</ele>
        <time>2018-07-06T10:03:51Z</time>
      </trkpt>
      <trkpt lat="48.467338029295206" lon="-4.725763024762273">
        <ele>40.030000000000001</ele>
        <time>2018-07-06T10:03:57Z</time>
      </trkpt>
      <trkpt lat="48.467276003211737" lon="-4.725996041670442">
        <ele>40.990000000000002</ele>
        <time>2018-07-06T10:03:58Z</time>
      </trkpt>
      <trkpt lat="48.467049021273851" lon="-4.727141009643674">
        <ele>42.920000000000002</ele>
        <time>2018-07-06T10:04:03Z</time>
      </trkpt>
      <trkpt lat="48.466980960220098" lon="-4.727318035438657">
        <ele>43.399999999999999</ele>
        <time>2018-07-06T10:04:04Z</time>
      </trkpt>
      <trkpt lat="48.466894961893559" lon="-4.727425994351506">
        <ele>43.399999999999999</ele>
        <time>2018-07-06T10:04:05Z</time>
      </trkpt>
      <trkpt lat="48.466740986332297" lon="-4.727512998506427">
        <ele>43.880000000000003</ele>
        <time>2018-07-06T10:04:06Z</time>
      </trkpt>
      <trkpt lat="48.466600002720952" lon="-4.727593967691064">
        <ele>43.880000000000003</ele>
        <time>2018-07-06T10:04:07Z</time>
      </trkpt>
      <trkpt lat="48.466450972482562" lon="-4.727679966017604">
        <ele>44.359999999999999</ele>
        <time>2018-07-06T10:04:08Z</time>
      </trkpt>
      <trkpt lat="48.466115025803447" lon="-4.727754984050989">
        <ele>44.840000000000003</ele>
        <time>2018-07-06T10:04:10Z</time>
      </trkpt>
      <trkpt lat="48.465940011665225" lon="-4.727790020406246">
        <ele>44.840000000000003</ele>
        <time>2018-07-06T10:04:11Z</time>
      </trkpt>
      <trkpt lat="48.46511104144156" lon="-4.727792032063007">
        <ele>46.280000000000001</ele>
        <time>2018-07-06T10:04:16Z</time>
      </trkpt>
      <trkpt lat="48.464944995939732" lon="-4.727825978770852">
        <ele>46.759999999999998</ele>
        <time>2018-07-06T10:04:17Z</time>
      </trkpt>
      <trkpt lat="48.464788002893329" lon="-4.727947013452649">
        <ele>47.240000000000002</ele>
        <time>2018-07-06T10:04:18Z</time>
      </trkpt>
      <trkpt lat="48.46461902372539" lon="-4.728079028427601">
        <ele>47.719999999999999</ele>
        <time>2018-07-06T10:04:19Z</time>
      </trkpt>
      <trkpt lat="48.464443003758788" lon="-4.728222023695707">
        <ele>48.200000000000003</ele>
        <time>2018-07-06T10:04:20Z</time>
      </trkpt>
      <trkpt lat="48.463281020522118" lon="-4.729505041614175">
        <ele>55.890000000000001</ele>
        <time>2018-07-06T10:04:27Z</time>
      </trkpt>
      <trkpt lat="48.461956009268761" lon="-4.73127999342978">
        <ele>64.549999999999997</ele>
        <time>2018-07-06T10:04:36Z</time>
      </trkpt>
      <trkpt lat="48.460294967517257" lon="-4.733784003183246">
        <ele>69.349999999999994</ele>
        <time>2018-07-06T10:04:47Z</time>
      </trkpt>
      <trkpt lat="48.459194004535675" lon="-4.73527598194778">
        <ele>70.790000000000006</ele>
        <time>2018-07-06T10:04:54Z</time>
      </trkpt>
      <trkpt lat="48.459012033417821" lon="-4.735409002751112">
        <ele>71.269999999999996</ele>
        <time>2018-07-06T10:04:55Z</time>
      </trkpt>
      <trkpt lat="48.457583002746105" lon="-4.73648096434772">
        <ele>73.680000000000007</ele>
        <time>2018-07-06T10:05:02Z</time>
      </trkpt>
      <trkpt lat="48.455876028165221" lon="-4.738208977505565">
        <ele>78</ele>
        <time>2018-07-06T10:05:12Z</time>
      </trkpt>
      <trkpt lat="48.455720040947199" lon="-4.738309979438782">
        <ele>78</ele>
        <time>2018-07-06T10:05:13Z</time>
      </trkpt>
      <trkpt lat="48.455550977960229" lon="-4.738389020785689">
        <ele>78</ele>
        <time>2018-07-06T10:05:14Z</time>
      </trkpt>
      <trkpt lat="48.455366995185614" lon="-4.738435037434101">
        <ele>78</ele>
        <time>2018-07-06T10:05:15Z</time>
      </trkpt>
      <trkpt lat="48.455168008804321" lon="-4.738468984141946">
        <ele>78</ele>
        <time>2018-07-06T10:05:16Z</time>
      </trkpt>
      <trkpt lat="48.45346899703145" lon="-4.738876009359956">
        <ele>74.159999999999997</ele>
        <time>2018-07-06T10:05:24Z</time>
      </trkpt>
      <trkpt lat="48.452626029029489" lon="-4.739249004051089">
        <ele>72.239999999999995</ele>
        <time>2018-07-06T10:05:28Z</time>
      </trkpt>
      <trkpt lat="48.452420001849532" lon="-4.739280017092824">
        <ele>71.760000000000005</ele>
        <time>2018-07-06T10:05:29Z</time>
      </trkpt>
      <trkpt lat="48.450283035635948" lon="-4.7396179754287">
        <ele>70.790000000000006</ele>
        <time>2018-07-06T10:05:39Z</time>
      </trkpt>
      <trkpt lat="48.447951022535563" lon="-4.740340998396277">
        <ele>68.870000000000005</ele>
        <time>2018-07-06T10:05:50Z</time>
      </trkpt>
      <trkpt lat="48.445535022765398" lon="-4.740843996405602">
        <ele>61.659999999999997</ele>
        <time>2018-07-06T10:06:01Z</time>
      </trkpt>
      <trkpt lat="48.443318009376526" lon="-4.741230988875032">
        <ele>60.700000000000003</ele>
        <time>2018-07-06T10:06:12Z</time>
      </trkpt>
      <trkpt lat="48.442935040220618" lon="-4.741223026067019">
        <ele>61.18</ele>
        <time>2018-07-06T10:06:14Z</time>
      </trkpt>
      <trkpt lat="48.442752985283732" lon="-4.741180026903749">
        <ele>61.18</ele>
        <time>2018-07-06T10:06:15Z</time>
      </trkpt>
      <trkpt lat="48.441253965720534" lon="-4.740831004455686">
        <ele>60.700000000000003</ele>
        <time>2018-07-06T10:06:24Z</time>
      </trkpt>
      <trkpt lat="48.440701011568308" lon="-4.740795968100429">
        <ele>61.18</ele>
        <time>2018-07-06T10:06:29Z</time>
      </trkpt>
      <trkpt lat="48.440505964681506" lon="-4.740838967263699">
        <ele>61.659999999999997</ele>
        <time>2018-07-06T10:06:32Z</time>
      </trkpt>
      <trkpt lat="48.440467994660139" lon="-4.740847013890743">
        <ele>61.659999999999997</ele>
        <time>2018-07-06T10:06:33Z</time>
      </trkpt>
      <trkpt lat="48.440416026860476" lon="-4.740857994183898">
        <ele>62.140000000000001</ele>
        <time>2018-07-06T10:06:34Z</time>
      </trkpt>
      <trkpt lat="48.440355006605387" lon="-4.740820024162531">
        <ele>62.619999999999997</ele>
        <time>2018-07-06T10:06:42Z</time>
      </trkpt>
      <trkpt lat="48.440017970278859" lon="-4.740607040002942">
        <ele>62.619999999999997</ele>
        <time>2018-07-06T10:06:46Z</time>
      </trkpt>
      <trkpt lat="48.439641036093235" lon="-4.740448035299778">
        <ele>62.619999999999997</ele>
        <time>2018-07-06T10:06:49Z</time>
      </trkpt>
      <trkpt lat="48.438390037044883" lon="-4.740129020065069">
        <ele>62.140000000000001</ele>
        <time>2018-07-06T10:06:57Z</time>
      </trkpt>
      <trkpt lat="48.438244024291635" lon="-4.740059031173587">
        <ele>62.140000000000001</ele>
        <time>2018-07-06T10:06:58Z</time>
      </trkpt>
      <trkpt lat="48.438112009316683" lon="-4.739942019805312">
        <ele>62.140000000000001</ele>
        <time>2018-07-06T10:06:59Z</time>
      </trkpt>
      <trkpt lat="48.437994997948408" lon="-4.739803969860077">
        <ele>62.140000000000001</ele>
        <time>2018-07-06T10:07:00Z</time>
      </trkpt>
      <trkpt lat="48.437897013500333" lon="-4.73966097459197">
        <ele>61.659999999999997</ele>
        <time>2018-07-06T10:07:01Z</time>
      </trkpt>
      <trkpt lat="48.437810009345412" lon="-4.739534994587302">
        <ele>62.140000000000001</ele>
        <time>2018-07-06T10:07:02Z</time>
      </trkpt>
      <trkpt lat="48.436915995553136" lon="-4.738236973062158">
        <ele>60.219999999999999</ele>
        <time>2018-07-06T10:07:15Z</time>
      </trkpt>
      <trkpt lat="48.436598991975188" lon="-4.737776974216104">
        <ele>59.740000000000002</ele>
        <time>2018-07-06T10:07:20Z</time>
      </trkpt>
      <trkpt lat="48.436536965891719" lon="-4.737687036395073">
        <ele>58.299999999999997</ele>
        <time>2018-07-06T10:07:21Z</time>
      </trkpt>
      <trkpt lat="48.435943024232984" lon="-4.73684398457408">
        <ele>53.009999999999998</ele>
        <time>2018-07-06T10:07:31Z</time>
      </trkpt>
      <trkpt lat="48.435301976278424" lon="-4.735823990777135">
        <ele>55.409999999999997</ele>
        <time>2018-07-06T10:07:40Z</time>
      </trkpt>
      <trkpt lat="48.43518597073853" lon="-4.735570019111037">
        <ele>56.369999999999997</ele>
        <time>2018-07-06T10:07:43Z</time>
      </trkpt>
      <trkpt lat="48.435122016817331" lon="-4.735430041328073">
        <ele>57.340000000000003</ele>
        <time>2018-07-06T10:07:49Z</time>
      </trkpt>
      <trkpt lat="48.435025038197637" lon="-4.735386958345771">
        <ele>58.780000000000001</ele>
        <time>2018-07-06T10:07:51Z</time>
      </trkpt>
      <trkpt lat="48.434984972700477" lon="-4.735439009964466">
        <ele>59.259999999999998</ele>
        <time>2018-07-06T10:07:52Z</time>
      </trkpt>
      <trkpt lat="48.434936022385955" lon="-4.735504975542426">
        <ele>59.740000000000002</ele>
        <time>2018-07-06T10:07:53Z</time>
      </trkpt>
      <trkpt lat="48.43488103710115" lon="-4.73557798191905">
        <ele>60.219999999999999</ele>
        <time>2018-07-06T10:07:54Z</time>
      </trkpt>
      <trkpt lat="48.434822028502822" lon="-4.735657023265958">
        <ele>61.18</ele>
        <time>2018-07-06T10:07:55Z</time>
      </trkpt>
      <trkpt lat="48.434602003544569" lon="-4.735890040174127">
        <ele>63.100000000000001</ele>
        <time>2018-07-06T10:07:58Z</time>
      </trkpt>
      <trkpt lat="48.434364963322878" lon="-4.736137976869941">
        <ele>65.030000000000001</ele>
        <time>2018-07-06T10:08:01Z</time>
      </trkpt>
      <trkpt lat="48.434274019673467" lon="-4.736187011003494">
        <ele>65.510000000000005</ele>
        <time>2018-07-06T10:08:02Z</time>
      </trkpt>
      <trkpt lat="48.433898007497191" lon="-4.736381974071264">
        <ele>68.390000000000001</ele>
        <time>2018-07-06T10:08:06Z</time>
      </trkpt>
      <trkpt lat="48.432728983461857" lon="-4.736759997904301">
        <ele>74.640000000000001</ele>
        <time>2018-07-06T10:08:19Z</time>
      </trkpt>
      <trkpt lat="48.43269201926887" lon="-4.736759997904301">
        <ele>75.120000000000005</ele>
        <time>2018-07-06T10:08:20Z</time>
      </trkpt>
      <trkpt lat="48.43264801427722" lon="-4.736730996519327">
        <ele>75.120000000000005</ele>
        <time>2018-07-06T10:08:21Z</time>
      </trkpt>
      <trkpt lat="48.432596968486905" lon="-4.736696965992451">
        <ele>75.599999999999994</ele>
        <time>2018-07-06T10:08:22Z</time>
      </trkpt>
      <trkpt lat="48.43249898403883" lon="-4.736631000414491">
        <ele>76.079999999999998</ele>
        <time>2018-07-06T10:08:23Z</time>
      </trkpt>
      <trkpt lat="48.432480040937662" lon="-4.736599987372756">
        <ele>76.560000000000002</ele>
        <time>2018-07-06T10:08:24Z</time>
      </trkpt>
      <trkpt lat="48.432134035974741" lon="-4.736030017957091">
        <ele>79.930000000000007</ele>
        <time>2018-07-06T10:08:32Z</time>
      </trkpt>
      <trkpt lat="48.432100005447865" lon="-4.735972015187144">
        <ele>79.930000000000007</ele>
        <time>2018-07-06T10:08:33Z</time>
      </trkpt>
      <trkpt lat="48.431593989953399" lon="-4.7351039852947">
        <ele>79.450000000000003</ele>
        <time>2018-07-06T10:08:42Z</time>
      </trkpt>
      <trkpt lat="48.431017985567451" lon="-4.734313990920782">
        <ele>78.480000000000004</ele>
        <time>2018-07-06T10:08:52Z</time>
      </trkpt>
      <trkpt lat="48.430938022211194" lon="-4.734207037836313">
        <ele>78.480000000000004</ele>
        <time>2018-07-06T10:08:54Z</time>
      </trkpt>
      <trkpt lat="48.430888988077641" lon="-4.734141994267702">
        <ele>78.480000000000004</ele>
        <time>2018-07-06T10:08:55Z</time>
      </trkpt>
      <trkpt lat="48.430842971429229" lon="-4.734141994267702">
        <ele>78</ele>
        <time>2018-07-06T10:08:56Z</time>
      </trkpt>
      <trkpt lat="48.430756973102689" lon="-4.734210977330804">
        <ele>78</ele>
        <time>2018-07-06T10:08:57Z</time>
      </trkpt>
      <trkpt lat="48.430731995031238" lon="-4.734281972050667">
        <ele>78</ele>
        <time>2018-07-06T10:08:58Z</time>
      </trkpt>
      <trkpt lat="48.430702993646264" lon="-4.734361013397574">
        <ele>77.519999999999996</ele>
        <time>2018-07-06T10:08:59Z</time>
      </trkpt>
      <trkpt lat="48.430670974776149" lon="-4.734452040866017">
        <ele>77.519999999999996</ele>
        <time>2018-07-06T10:09:00Z</time>
      </trkpt>
      <trkpt lat="48.430633004754782" lon="-4.734555976465344">
        <ele>77.519999999999996</ele>
        <time>2018-07-06T10:09:01Z</time>
      </trkpt>
      <trkpt lat="48.43013696372509" lon="-4.735826002433896">
        <ele>76.560000000000002</ele>
        <time>2018-07-06T10:09:10Z</time>
      </trkpt>
      <trkpt lat="48.429303970187902" lon="-4.737986018881202">
        <ele>73.680000000000007</ele>
        <time>2018-07-06T10:09:22Z</time>
      </trkpt>
      <trkpt lat="48.42901797965169" lon="-4.739051023498178">
        <ele>73.680000000000007</ele>
        <time>2018-07-06T10:09:27Z</time>
      </trkpt>
      <trkpt lat="48.428926030173898" lon="-4.739265013486147">
        <ele>73.680000000000007</ele>
        <time>2018-07-06T10:09:28Z</time>
      </trkpt>
      <trkpt lat="48.428829973563552" lon="-4.739477997645736">
        <ele>74.640000000000001</ele>
        <time>2018-07-06T10:09:29Z</time>
      </trkpt>
      <trkpt lat="48.427754994481802" lon="-4.741239035502076">
        <ele>79.930000000000007</ele>
        <time>2018-07-06T10:09:37Z</time>
      </trkpt>
      <trkpt lat="48.427510997280478" lon="-4.741714037954807">
        <ele>79.450000000000003</ele>
        <time>2018-07-06T10:09:39Z</time>
      </trkpt>
      <trkpt lat="48.427405972033739" lon="-4.741960968822241">
        <ele>79.450000000000003</ele>
        <time>2018-07-06T10:09:40Z</time>
      </trkpt>
      <trkpt lat="48.427333971485496" lon="-4.742232961580157">
        <ele>79.450000000000003</ele>
        <time>2018-07-06T10:09:41Z</time>
      </trkpt>
      <trkpt lat="48.42691102065146" lon="-4.744594981893897">
        <ele>76.560000000000002</ele>
        <time>2018-07-06T10:09:49Z</time>
      </trkpt>
      <trkpt lat="48.426603991538286" lon="-4.746069023385644">
        <ele>76.079999999999998</ele>
        <time>2018-07-06T10:09:54Z</time>
      </trkpt>
      <trkpt lat="48.426515981554985" lon="-4.746342021971941">
        <ele>76.079999999999998</ele>
        <time>2018-07-06T10:09:55Z</time>
      </trkpt>
      <trkpt lat="48.426403999328613" lon="-4.746604962274432">
        <ele>76.079999999999998</ele>
        <time>2018-07-06T10:09:56Z</time>
      </trkpt>
      <trkpt lat="48.425649963319302" lon="-4.748517964035273">
        <ele>73.680000000000007</ele>
        <time>2018-07-06T10:10:03Z</time>
      </trkpt>
      <trkpt lat="48.425223995000124" lon="-4.751091040670872">
        <ele>73.200000000000003</ele>
        <time>2018-07-06T10:10:11Z</time>
      </trkpt>
      <trkpt lat="48.424579007551074" lon="-4.753575017675757">
        <ele>69.829999999999998</ele>
        <time>2018-07-06T10:10:19Z</time>
      </trkpt>
      <trkpt lat="48.423654986545444" lon="-4.756662994623184">
        <ele>65.030000000000001</ele>
        <time>2018-07-06T10:10:29Z</time>
      </trkpt>
      <trkpt lat="48.422844959422946" lon="-4.760869033634663">
        <ele>66.950000000000003</ele>
        <time>2018-07-06T10:10:42Z</time>
      </trkpt>
      <trkpt lat="48.422606997191906" lon="-4.763087974861264">
        <ele>67.909999999999997</ele>
        <time>2018-07-06T10:10:50Z</time>
      </trkpt>
      <trkpt lat="48.422189997509122" lon="-4.76565602235496">
        <ele>54.93</ele>
        <time>2018-07-06T10:10:59Z</time>
      </trkpt>
      <trkpt lat="48.422193014994264" lon="-4.767455030232668">
        <ele>46.759999999999998</ele>
        <time>2018-07-06T10:11:06Z</time>
      </trkpt>
      <trkpt lat="48.422213969752192" lon="-4.768015025183559">
        <ele>43.399999999999999</ele>
        <time>2018-07-06T10:11:11Z</time>
      </trkpt>
      <trkpt lat="48.422217993065715" lon="-4.768124995753169">
        <ele>42.920000000000002</ele>
        <time>2018-07-06T10:11:12Z</time>
      </trkpt>
      <trkpt lat="48.42222897335887" lon="-4.768400005996227">
        <ele>41.950000000000003</ele>
        <time>2018-07-06T10:11:14Z</time>
      </trkpt>
      <trkpt lat="48.422235008329153" lon="-4.768564039841294">
        <ele>41.950000000000003</ele>
        <time>2018-07-06T10:11:15Z</time>
      </trkpt>
      <trkpt lat="48.422102993354201" lon="-4.770244024693966">
        <ele>43.880000000000003</ele>
        <time>2018-07-06T10:11:23Z</time>
      </trkpt>
      <trkpt lat="48.421946000307798" lon="-4.771754024550319">
        <ele>47.719999999999999</ele>
        <time>2018-07-06T10:11:31Z</time>
      </trkpt>
      <trkpt lat="48.422026969492435" lon="-4.773920997977257">
        <ele>48.68</ele>
        <time>2018-07-06T10:11:44Z</time>
      </trkpt>
      <trkpt lat="48.42201397754252" lon="-4.776422996073961">
        <ele>46.280000000000001</ele>
        <time>2018-07-06T10:11:59Z</time>
      </trkpt>
      <trkpt lat="48.421977013349533" lon="-4.7771290037781">
        <ele>46.280000000000001</ele>
        <time>2018-07-06T10:12:04Z</time>
      </trkpt>
      <trkpt lat="48.421943988651037" lon="-4.777265964075923">
        <ele>46.280000000000001</ele>
        <time>2018-07-06T10:12:05Z</time>
      </trkpt>
      <trkpt lat="48.421571999788284" lon="-4.778857016935945">
        <ele>47.719999999999999</ele>
        <time>2018-07-06T10:12:17Z</time>
      </trkpt>
      <trkpt lat="48.421297995373607" lon="-4.780644038692117">
        <ele>48.200000000000003</ele>
        <time>2018-07-06T10:12:29Z</time>
      </trkpt>
      <trkpt lat="48.421297995373607" lon="-4.782465007156134">
        <ele>42.439999999999998</ele>
        <time>2018-07-06T10:12:40Z</time>
      </trkpt>
      <trkpt lat="48.421351974830031" lon="-4.782642032951117">
        <ele>40.990000000000002</ele>
        <time>2018-07-06T10:12:41Z</time>
      </trkpt>
      <trkpt lat="48.421445013955235" lon="-4.782940009608865">
        <ele>39.07</ele>
        <time>2018-07-06T10:12:43Z</time>
      </trkpt>
      <trkpt lat="48.421792024746537" lon="-4.784137029200792">
        <ele>29.460000000000001</ele>
        <time>2018-07-06T10:12:53Z</time>
      </trkpt>
      <trkpt lat="48.421909036114812" lon="-4.785374030470848">
        <ele>25.609999999999999</ele>
        <time>2018-07-06T10:13:02Z</time>
      </trkpt>
      <trkpt lat="48.421952035278082" lon="-4.787058960646391">
        <ele>18.399999999999999</ele>
        <time>2018-07-06T10:13:14Z</time>
      </trkpt>
      <trkpt lat="48.421961003914475" lon="-4.787234980612993">
        <ele>16.960000000000001</ele>
        <time>2018-07-06T10:13:16Z</time>
      </trkpt>
      <trkpt lat="48.421943988651037" lon="-4.787304969504476">
        <ele>16.48</ele>
        <time>2018-07-06T10:13:17Z</time>
      </trkpt>
      <trkpt lat="48.421915993094444" lon="-4.78735601529479">
        <ele>16</ele>
        <time>2018-07-06T10:13:18Z</time>
      </trkpt>
      <trkpt lat="48.421883974224329" lon="-4.787414018064737">
        <ele>15.039999999999999</ele>
        <time>2018-07-06T10:13:19Z</time>
      </trkpt>
      <trkpt lat="48.421847010031343" lon="-4.787481995299459">
        <ele>15.039999999999999</ele>
        <time>2018-07-06T10:13:20Z</time>
      </trkpt>
      <trkpt lat="48.421807028353214" lon="-4.787555001676083">
        <ele>14.56</ele>
        <time>2018-07-06T10:13:21Z</time>
      </trkpt>
      <trkpt lat="48.421762017533183" lon="-4.787634965032339">
        <ele>14.56</ele>
        <time>2018-07-06T10:13:22Z</time>
      </trkpt>
      <trkpt lat="48.421720024198294" lon="-4.78774300776422">
        <ele>15.039999999999999</ele>
        <time>2018-07-06T10:13:23Z</time>
      </trkpt>
      <trkpt lat="48.421699991449714" lon="-4.787869993597269">
        <ele>16</ele>
        <time>2018-07-06T10:13:24Z</time>
      </trkpt>
      <trkpt lat="48.421679036691785" lon="-4.788004020228982">
        <ele>16.960000000000001</ele>
        <time>2018-07-06T10:13:25Z</time>
      </trkpt>
      <trkpt lat="48.421657998114824" lon="-4.788137963041663">
        <ele>17.920000000000002</ele>
        <time>2018-07-06T10:13:26Z</time>
      </trkpt>
      <trkpt lat="48.421612987294793" lon="-4.788423031568527">
        <ele>19.84</ele>
        <time>2018-07-06T10:13:28Z</time>
      </trkpt>
      <trkpt lat="48.421552972868085" lon="-4.788572983816266">
        <ele>21.289999999999999</ele>
        <time>2018-07-06T10:13:29Z</time>
      </trkpt>
      <trkpt lat="48.421459011733532" lon="-4.788693012669683">
        <ele>22.25</ele>
        <time>2018-07-06T10:13:30Z</time>
      </trkpt>
      <trkpt lat="48.421363038942218" lon="-4.788815975189209">
        <ele>23.690000000000001</ele>
        <time>2018-07-06T10:13:31Z</time>
      </trkpt>
      <trkpt lat="48.421264970675111" lon="-4.788941033184528">
        <ele>25.129999999999999</ele>
        <time>2018-07-06T10:13:32Z</time>
      </trkpt>
      <trkpt lat="48.421059027314186" lon="-4.789135996252298">
        <ele>27.050000000000001</ele>
        <time>2018-07-06T10:13:34Z</time>
      </trkpt>
      <trkpt lat="48.420944027602673" lon="-4.78922501206398">
        <ele>27.530000000000001</ele>
        <time>2018-07-06T10:13:35Z</time>
      </trkpt>
      <trkpt lat="48.420826010406017" lon="-4.789244960993528">
        <ele>28.02</ele>
        <time>2018-07-06T10:13:36Z</time>
      </trkpt>
      <trkpt lat="48.420688966289163" lon="-4.789232974871993">
        <ele>28.5</ele>
        <time>2018-07-06T10:13:37Z</time>
      </trkpt>
      <trkpt lat="48.42055301181972" lon="-4.789221994578838">
        <ele>28.98</ele>
        <time>2018-07-06T10:13:38Z</time>
      </trkpt>
      <trkpt lat="48.418904040008783" lon="-4.789046980440617">
        <ele>31.379999999999999</ele>
        <time>2018-07-06T10:13:51Z</time>
      </trkpt>
      <trkpt lat="48.417806010693312" lon="-4.788821004331112">
        <ele>36.670000000000002</ele>
        <time>2018-07-06T10:14:00Z</time>
      </trkpt>
      <trkpt lat="48.417675001546741" lon="-4.788824021816254">
        <ele>37.630000000000003</ele>
        <time>2018-07-06T10:14:01Z</time>
      </trkpt>
      <trkpt lat="48.417260013520718" lon="-4.788835002109408">
        <ele>40.030000000000001</ele>
        <time>2018-07-06T10:14:06Z</time>
      </trkpt>
      <trkpt lat="48.417172003537416" lon="-4.788899039849639">
        <ele>40.509999999999998</ele>
        <time>2018-07-06T10:14:08Z</time>
      </trkpt>
      <trkpt lat="48.417166974395514" lon="-4.788955030962825">
        <ele>40.990000000000002</ele>
        <time>2018-07-06T10:14:09Z</time>
      </trkpt>
      <trkpt lat="48.417162029072642" lon="-4.789015967398882">
        <ele>40.990000000000002</ele>
        <time>2018-07-06T10:14:10Z</time>
      </trkpt>
      <trkpt lat="48.417155994102359" lon="-4.789073970168829">
        <ele>40.990000000000002</ele>
        <time>2018-07-06T10:14:11Z</time>
      </trkpt>
      <trkpt lat="48.417150964960456" lon="-4.789130967110395">
        <ele>40.990000000000002</ele>
        <time>2018-07-06T10:14:12Z</time>
      </trkpt>
      <trkpt lat="48.417091034352779" lon="-4.789793975651264">
        <ele>40.030000000000001</ele>
        <time>2018-07-06T10:14:23Z</time>
      </trkpt>
      <trkpt lat="48.417202010750771" lon="-4.790370985865593">
        <ele>36.670000000000002</ele>
        <time>2018-07-06T10:14:36Z</time>
      </trkpt>
      <trkpt lat="48.417349029332399" lon="-4.790768958628178">
        <ele>34.740000000000002</ele>
        <time>2018-07-06T10:14:49Z</time>
      </trkpt>
      <trkpt lat="48.417349029332399" lon="-4.790768958628178">
        <ele>34.740000000000002</ele>
        <time>2018-07-06T10:14:50Z</time>
      </trkpt>
      <trkpt lat="48.417327990755439" lon="-4.790899967774749">
        <ele>33.780000000000001</ele>
        <time>2018-07-06T10:14:55Z</time>
      </trkpt>
      <trkpt lat="48.417364032939076" lon="-4.790912037715316">
        <ele>33.780000000000001</ele>
        <time>2018-07-06T10:15:11Z</time>
      </trkpt>
      <trkpt lat="48.417349029332399" lon="-4.790768958628178">
        <ele>34.259999999999998</ele>
        <time>2018-07-06T10:15:31Z</time>
      </trkpt>
      <trkpt lat="48.417349029332399" lon="-4.790768958628178">
        <ele>33.299999999999997</ele>
        <time>2018-07-06T10:15:40Z</time>
      </trkpt>
      <trkpt lat="48.417349029332399" lon="-4.790768958628178">
        <ele>32.82</ele>
        <time>2018-07-06T10:15:55Z</time>
      </trkpt>
      <trkpt lat="48.417392028495669" lon="-4.791004993021488">
        <ele>33.299999999999997</ele>
        <time>2018-07-06T10:16:08Z</time>
      </trkpt>
      <trkpt lat="48.417392028495669" lon="-4.791004993021488">
        <ele>31.859999999999999</ele>
        <time>2018-07-06T10:16:19Z</time>
      </trkpt>
      <trkpt lat="48.417392028495669" lon="-4.791004993021488">
        <ele>31.379999999999999</ele>
        <time>2018-07-06T10:16:20Z</time>
      </trkpt>
      <trkpt lat="48.417368978261948" lon="-4.790874989703298">
        <ele>29.460000000000001</ele>
        <time>2018-07-06T10:16:31Z</time>
      </trkpt>
      <trkpt lat="48.417149037122726" lon="-4.790227990597487">
        <ele>31.379999999999999</ele>
        <time>2018-07-06T10:16:39Z</time>
      </trkpt>
      <trkpt lat="48.417073013260961" lon="-4.789984999224544">
        <ele>31.859999999999999</ele>
        <time>2018-07-06T10:16:42Z</time>
      </trkpt>
      <trkpt lat="48.417089022696018" lon="-4.789813002571464">
        <ele>33.299999999999997</ele>
        <time>2018-07-06T10:16:44Z</time>
      </trkpt>
      <trkpt lat="48.417096985504031" lon="-4.78972096927464">
        <ele>33.299999999999997</ele>
        <time>2018-07-06T10:16:45Z</time>
      </trkpt>
      <trkpt lat="48.417216008529067" lon="-4.788392018526793">
        <ele>37.630000000000003</ele>
        <time>2018-07-06T10:16:56Z</time>
      </trkpt>
      <trkpt lat="48.417258001863956" lon="-4.787917016074061">
        <ele>39.549999999999997</ele>
        <time>2018-07-06T10:16:59Z</time>
      </trkpt>
      <trkpt lat="48.417301001027226" lon="-4.787767985835671">
        <ele>40.030000000000001</ele>
        <time>2018-07-06T10:17:00Z</time>
      </trkpt>
      <trkpt lat="48.41763099655509" lon="-4.787026019766927">
        <ele>43.880000000000003</ele>
        <time>2018-07-06T10:17:07Z</time>
      </trkpt>
      <trkpt lat="48.417636025696993" lon="-4.786957036703825">
        <ele>44.359999999999999</ele>
        <time>2018-07-06T10:17:08Z</time>
      </trkpt>
      <trkpt lat="48.417644994333386" lon="-4.786842036992312">
        <ele>44.359999999999999</ele>
        <time>2018-07-06T10:17:10Z</time>
      </trkpt>
      <trkpt lat="48.417603000998497" lon="-4.786785040050745">
        <ele>44.359999999999999</ele>
        <time>2018-07-06T10:17:11Z</time>
      </trkpt>
      <trkpt lat="48.417568970471621" lon="-4.786790991201997">
        <ele>44.359999999999999</ele>
        <time>2018-07-06T10:17:12Z</time>
      </trkpt>
      <trkpt lat="48.417523037642241" lon="-4.786799037829042">
        <ele>44.359999999999999</ele>
        <time>2018-07-06T10:17:13Z</time>
      </trkpt>
      <trkpt lat="48.417466962710023" lon="-4.786808006465435">
        <ele>44.359999999999999</ele>
        <time>2018-07-06T10:17:14Z</time>
      </trkpt>
      <trkpt lat="48.417403008788824" lon="-4.78681898675859">
        <ele>44.840000000000003</ele>
        <time>2018-07-06T10:17:15Z</time>
      </trkpt>
      <trkpt lat="48.4173300024122" lon="-4.786830972880125">
        <ele>44.840000000000003</ele>
        <time>2018-07-06T10:17:16Z</time>
      </trkpt>
      <trkpt lat="48.417248027399182" lon="-4.786843964830041">
        <ele>44.840000000000003</ele>
        <time>2018-07-06T10:17:17Z</time>
      </trkpt>
      <trkpt lat="48.416356025263667" lon="-4.787408988922834">
        <ele>45.32</ele>
        <time>2018-07-06T10:17:25Z</time>
      </trkpt>
      <trkpt lat="48.414728008210659" lon="-4.788327980786562">
        <ele>46.759999999999998</ele>
        <time>2018-07-06T10:17:36Z</time>
      </trkpt>
      <trkpt lat="48.414463978260756" lon="-4.788486985489726">
        <ele>47.240000000000002</ele>
        <time>2018-07-06T10:17:40Z</time>
      </trkpt>
      <trkpt lat="48.414457021281123" lon="-4.788553034886718">
        <ele>47.240000000000002</ele>
        <time>2018-07-06T10:17:41Z</time>
      </trkpt>
      <trkpt lat="48.414460960775614" lon="-4.78860299102962">
        <ele>47.240000000000002</ele>
        <time>2018-07-06T10:17:42Z</time>
      </trkpt>
      <trkpt lat="48.414527010172606" lon="-4.78941704146564">
        <ele>45.799999999999997</ele>
        <time>2018-07-06T10:17:49Z</time>
      </trkpt>
      <trkpt lat="48.414652990177274" lon="-4.790959982201457">
        <ele>36.670000000000002</ele>
        <time>2018-07-06T10:17:56Z</time>
      </trkpt>
      <trkpt lat="48.414845019578934" lon="-4.793118992820382">
        <ele>35.710000000000001</ele>
        <time>2018-07-06T10:18:07Z</time>
      </trkpt>
      <trkpt lat="48.414896987378597" lon="-4.79360799305141">
        <ele>38.590000000000003</ele>
        <time>2018-07-06T10:18:14Z</time>
      </trkpt>
    </trkseg>
  </trk>

  <trk>
    <name>Track vom: 2018-07-06 12:42</name>
    <extensions>
      <gpxx:TrackExtension>
        <gpxx:DisplayColor>DarkGray</gpxx:DisplayColor>
      </gpxx:TrackExtension>
    </extensions>
    <trkseg>
      <trkpt lat="48.414826998487115" lon="-4.794046031311154">
        <ele>37.630000000000003</ele>
        <time>2018-07-06T10:42:12Z</time>
      </trkpt>
      <trkpt lat="48.414825992658734" lon="-4.794045025482774">
        <ele>37.630000000000003</ele>
        <time>2018-07-06T10:42:58Z</time>
      </trkpt>
      <trkpt lat="48.414903022348881" lon="-4.793664989992976">
        <ele>37.149999999999999</ele>
        <time>2018-07-06T10:43:02Z</time>
      </trkpt>
      <trkpt lat="48.414903022348881" lon="-4.793664989992976">
        <ele>36.670000000000002</ele>
        <time>2018-07-06T10:43:03Z</time>
      </trkpt>
      <trkpt lat="48.414903022348881" lon="-4.793664989992976">
        <ele>36.189999999999998</ele>
        <time>2018-07-06T10:43:04Z</time>
      </trkpt>
      <trkpt lat="48.414903022348881" lon="-4.793664989992976">
        <ele>35.710000000000001</ele>
        <time>2018-07-06T10:43:05Z</time>
      </trkpt>
      <trkpt lat="48.414903022348881" lon="-4.793664989992976">
        <ele>35.229999999999997</ele>
        <time>2018-07-06T10:43:06Z</time>
      </trkpt>
      <trkpt lat="48.414898999035358" lon="-4.793625008314848">
        <ele>34.259999999999998</ele>
        <time>2018-07-06T10:43:07Z</time>
      </trkpt>
      <trkpt lat="48.414802020415664" lon="-4.792718002572656">
        <ele>26.09</ele>
        <time>2018-07-06T10:43:18Z</time>
      </trkpt>
      <trkpt lat="48.414677968248725" lon="-4.791274974122644">
        <ele>21.289999999999999</ele>
        <time>2018-07-06T10:43:28Z</time>
      </trkpt>
      <trkpt lat="48.414512006565928" lon="-4.789223000407219">
        <ele>30.899999999999999</ele>
        <time>2018-07-06T10:43:39Z</time>
      </trkpt>
      <trkpt lat="48.414468001574278" lon="-4.788685971871018">
        <ele>35.710000000000001</ele>
        <time>2018-07-06T10:43:43Z</time>
      </trkpt>
      <trkpt lat="48.414463978260756" lon="-4.788629980757833">
        <ele>37.149999999999999</ele>
        <time>2018-07-06T10:43:44Z</time>
      </trkpt>
      <trkpt lat="48.414460960775614" lon="-4.788591004908085">
        <ele>38.109999999999999</ele>
        <time>2018-07-06T10:43:45Z</time>
      </trkpt>
      <trkpt lat="48.414458027109504" lon="-4.788565021008253">
        <ele>39.549999999999997</ele>
        <time>2018-07-06T10:43:46Z</time>
      </trkpt>
      <trkpt lat="48.414417961612344" lon="-4.788504000753164">
        <ele>40.509999999999998</ele>
        <time>2018-07-06T10:43:47Z</time>
      </trkpt>
      <trkpt lat="48.414456015452743" lon="-4.788534007966518">
        <ele>41.950000000000003</ele>
        <time>2018-07-06T10:43:48Z</time>
      </trkpt>
      <trkpt lat="48.414456015452743" lon="-4.788534007966518">
        <ele>43.880000000000003</ele>
        <time>2018-07-06T10:44:05Z</time>
      </trkpt>
      <trkpt lat="48.4143649879843" lon="-4.788520010188222">
        <ele>46.280000000000001</ele>
        <time>2018-07-06T10:44:47Z</time>
      </trkpt>
      <trkpt lat="48.414314026013017" lon="-4.788535013794899">
        <ele>47.240000000000002</ele>
        <time>2018-07-06T10:44:48Z</time>
      </trkpt>
      <trkpt lat="48.413645988330245" lon="-4.788732994347811">
        <ele>44.840000000000003</ele>
        <time>2018-07-06T10:44:55Z</time>
      </trkpt>
      <trkpt lat="48.412929000332952" lon="-4.788944972679019">
        <ele>40.030000000000001</ele>
        <time>2018-07-06T10:45:03Z</time>
      </trkpt>
      <trkpt lat="48.412929000332952" lon="-4.788944972679019">
        <ele>39.549999999999997</ele>
        <time>2018-07-06T10:45:04Z</time>
      </trkpt>
      <trkpt lat="48.412744011729956" lon="-4.788864003494382">
        <ele>39.07</ele>
        <time>2018-07-06T10:45:05Z</time>
      </trkpt>
      <trkpt lat="48.412725990638137" lon="-4.788768030703068">
        <ele>38.590000000000003</ele>
        <time>2018-07-06T10:45:06Z</time>
      </trkpt>
      <trkpt lat="48.412704030051827" lon="-4.788649007678032">
        <ele>38.590000000000003</ele>
        <time>2018-07-06T10:45:07Z</time>
      </trkpt>
      <trkpt lat="48.412677962332964" lon="-4.788507018238306">
        <ele>38.109999999999999</ele>
        <time>2018-07-06T10:45:08Z</time>
      </trkpt>
      <trkpt lat="48.412648038938642" lon="-4.788346001878381">
        <ele>38.109999999999999</ele>
        <time>2018-07-06T10:45:09Z</time>
      </trkpt>
      <trkpt lat="48.412199020385742" lon="-4.785793041810393">
        <ele>40.509999999999998</ele>
        <time>2018-07-06T10:45:22Z</time>
      </trkpt>
      <trkpt lat="48.412091983482242" lon="-4.783602012321353">
        <ele>43.399999999999999</ele>
        <time>2018-07-06T10:45:31Z</time>
      </trkpt>
      <trkpt lat="48.412034986540675" lon="-4.78271696716547">
        <ele>43.399999999999999</ele>
        <time>2018-07-06T10:45:36Z</time>
      </trkpt>
      <trkpt lat="48.411991987377405" lon="-4.782581012696028">
        <ele>42.920000000000002</ele>
        <time>2018-07-06T10:45:37Z</time>
      </trkpt>
      <trkpt lat="48.411945970728993" lon="-4.78243600577116">
        <ele>42.439999999999998</ele>
        <time>2018-07-06T10:45:38Z</time>
      </trkpt>
      <trkpt lat="48.41191504150629" lon="-4.782272977754474">
        <ele>41.950000000000003</ele>
        <time>2018-07-06T10:45:39Z</time>
      </trkpt>
      <trkpt lat="48.411901965737343" lon="-4.782094024121761">
        <ele>41.469999999999999</ele>
        <time>2018-07-06T10:45:40Z</time>
      </trkpt>
      <trkpt lat="48.411888973787427" lon="-4.781909035518765">
        <ele>40.990000000000002</ele>
        <time>2018-07-06T10:45:41Z</time>
      </trkpt>
      <trkpt lat="48.411880005151033" lon="-4.781722035259008">
        <ele>40.509999999999998</ele>
        <time>2018-07-06T10:45:42Z</time>
      </trkpt>
      <trkpt lat="48.411891991272569" lon="-4.781527994200587">
        <ele>40.030000000000001</ele>
        <time>2018-07-06T10:45:43Z</time>
      </trkpt>
      <trkpt lat="48.411902971565723" lon="-4.781338982284069">
        <ele>39.549999999999997</ele>
        <time>2018-07-06T10:45:44Z</time>
      </trkpt>
      <trkpt lat="48.411871958523989" lon="-4.779941970482469">
        <ele>35.710000000000001</ele>
        <time>2018-07-06T10:45:53Z</time>
      </trkpt>
      <trkpt lat="48.411846980452538" lon="-4.779681963846088">
        <ele>34.740000000000002</ele>
        <time>2018-07-06T10:45:56Z</time>
      </trkpt>
      <trkpt lat="48.411802975460887" lon="-4.779541986063123">
        <ele>34.259999999999998</ele>
        <time>2018-07-06T10:45:58Z</time>
      </trkpt>
      <trkpt lat="48.41176500543952" lon="-4.779537040740252">
        <ele>33.780000000000001</ele>
        <time>2018-07-06T10:45:59Z</time>
      </trkpt>
      <trkpt lat="48.411713037639856" lon="-4.779529999941587">
        <ele>33.299999999999997</ele>
        <time>2018-07-06T10:46:00Z</time>
      </trkpt>
      <trkpt lat="48.411646988242865" lon="-4.779521031305194">
        <ele>33.299999999999997</ele>
        <time>2018-07-06T10:46:01Z</time>
      </trkpt>
      <trkpt lat="48.411569958552718" lon="-4.779510973021388">
        <ele>32.82</ele>
        <time>2018-07-06T10:46:02Z</time>
      </trkpt>
      <trkpt lat="48.41073302552104" lon="-4.779266975820065">
        <ele>30.899999999999999</ele>
        <time>2018-07-06T10:46:10Z</time>
      </trkpt>
      <trkpt lat="48.410386014729738" lon="-4.77899800054729">
        <ele>29.940000000000001</ele>
        <time>2018-07-06T10:46:13Z</time>
      </trkpt>
      <trkpt lat="48.410280989482999" lon="-4.778873026371002">
        <ele>29.460000000000001</ele>
        <time>2018-07-06T10:46:14Z</time>
      </trkpt>
      <trkpt lat="48.410079991444945" lon="-4.778632968664169">
        <ele>28.02</ele>
        <time>2018-07-06T10:46:16Z</time>
      </trkpt>
      <trkpt lat="48.409999022260308" lon="-4.778471030294895">
        <ele>27.530000000000001</ele>
        <time>2018-07-06T10:46:17Z</time>
      </trkpt>
      <trkpt lat="48.409929033368826" lon="-4.778301967307925">
        <ele>27.050000000000001</ele>
        <time>2018-07-06T10:46:18Z</time>
      </trkpt>
      <trkpt lat="48.409857032820582" lon="-4.778129970654845">
        <ele>26.57</ele>
        <time>2018-07-06T10:46:19Z</time>
      </trkpt>
      <trkpt lat="48.409786038100719" lon="-4.777957974001765">
        <ele>26.09</ele>
        <time>2018-07-06T10:46:20Z</time>
      </trkpt>
      <trkpt lat="48.409720994532108" lon="-4.777770973742008">
        <ele>26.09</ele>
        <time>2018-07-06T10:46:21Z</time>
      </trkpt>
      <trkpt lat="48.409680007025599" lon="-4.777565030381084">
        <ele>25.609999999999999</ele>
        <time>2018-07-06T10:46:22Z</time>
      </trkpt>
      <trkpt lat="48.409399967640638" lon="-4.775628978386521">
        <ele>20.32</ele>
        <time>2018-07-06T10:46:30Z</time>
      </trkpt>
      <trkpt lat="48.4090790245682" lon="-4.773303000256419">
        <ele>15.039999999999999</ele>
        <time>2018-07-06T10:46:40Z</time>
      </trkpt>
      <trkpt lat="48.40903895907104" lon="-4.773143995553255">
        <ele>16</ele>
        <time>2018-07-06T10:46:41Z</time>
      </trkpt>
      <trkpt lat="48.408987997099757" lon="-4.773012986406684">
        <ele>16.960000000000001</ele>
        <time>2018-07-06T10:46:42Z</time>
      </trkpt>
      <trkpt lat="48.40892999432981" lon="-4.772922964766622">
        <ele>17.920000000000002</ele>
        <time>2018-07-06T10:46:43Z</time>
      </trkpt>
      <trkpt lat="48.40884399600327" lon="-4.772879965603352">
        <ele>19.359999999999999</ele>
        <time>2018-07-06T10:46:44Z</time>
      </trkpt>
      <trkpt lat="48.408745005726814" lon="-4.772830009460449">
        <ele>20.809999999999999</ele>
        <time>2018-07-06T10:46:45Z</time>
      </trkpt>
      <trkpt lat="48.408636962994933" lon="-4.772845013067126">
        <ele>22.25</ele>
        <time>2018-07-06T10:46:46Z</time>
      </trkpt>
      <trkpt lat="48.40851902961731" lon="-4.772861022502184">
        <ele>24.170000000000002</ele>
        <time>2018-07-06T10:46:47Z</time>
      </trkpt>
      <trkpt lat="48.408163972198963" lon="-4.772909972816706">
        <ele>29.460000000000001</ele>
        <time>2018-07-06T10:46:50Z</time>
      </trkpt>
      <trkpt lat="48.408077973872423" lon="-4.772888012230396">
        <ele>30.899999999999999</ele>
        <time>2018-07-06T10:46:51Z</time>
      </trkpt>
      <trkpt lat="48.408011002466083" lon="-4.772846018895507">
        <ele>31.859999999999999</ele>
        <time>2018-07-06T10:46:52Z</time>
      </trkpt>
      <trkpt lat="48.407951993867755" lon="-4.772809976711869">
        <ele>33.299999999999997</ele>
        <time>2018-07-06T10:46:53Z</time>
      </trkpt>
      <trkpt lat="48.407931961119175" lon="-4.772711992263794">
        <ele>34.259999999999998</ele>
        <time>2018-07-06T10:46:54Z</time>
      </trkpt>
      <trkpt lat="48.407908994704485" lon="-4.7725959867239">
        <ele>35.710000000000001</ele>
        <time>2018-07-06T10:46:55Z</time>
      </trkpt>
      <trkpt lat="48.407884016633034" lon="-4.772455003112555">
        <ele>37.149999999999999</ele>
        <time>2018-07-06T10:46:56Z</time>
      </trkpt>
      <trkpt lat="48.407797012478113" lon="-4.770928993821144">
        <ele>45.799999999999997</ele>
        <time>2018-07-06T10:47:04Z</time>
      </trkpt>
      <trkpt lat="48.407673966139555" lon="-4.769196035340428">
        <ele>53.490000000000002</ele>
        <time>2018-07-06T10:47:15Z</time>
      </trkpt>
      <trkpt lat="48.407421000301838" lon="-4.767489982768893">
        <ele>56.369999999999997</ele>
        <time>2018-07-06T10:47:27Z</time>
      </trkpt>
      <trkpt lat="48.407246991991997" lon="-4.765797005966306">
        <ele>55.890000000000001</ele>
        <time>2018-07-06T10:47:37Z</time>
      </trkpt>
      <trkpt lat="48.407241962850094" lon="-4.765624003484845">
        <ele>55.890000000000001</ele>
        <time>2018-07-06T10:47:38Z</time>
      </trkpt>
      <trkpt lat="48.407238023355603" lon="-4.765461981296539">
        <ele>56.369999999999997</ele>
        <time>2018-07-06T10:47:39Z</time>
      </trkpt>
      <trkpt lat="48.407234000042081" lon="-4.765313034877181">
        <ele>56.859999999999999</ele>
        <time>2018-07-06T10:47:40Z</time>
      </trkpt>
      <trkpt lat="48.407229976728559" lon="-4.765166016295552">
        <ele>56.859999999999999</ele>
        <time>2018-07-06T10:47:41Z</time>
      </trkpt>
      <trkpt lat="48.407223019748926" lon="-4.764911038801074">
        <ele>57.340000000000003</ele>
        <time>2018-07-06T10:47:43Z</time>
      </trkpt>
      <trkpt lat="48.40714699588716" lon="-4.764787992462516">
        <ele>58.299999999999997</ele>
        <time>2018-07-06T10:47:45Z</time>
      </trkpt>
      <trkpt lat="48.406913978978992" lon="-4.764533014968038">
        <ele>58.780000000000001</ele>
        <time>2018-07-06T10:47:47Z</time>
      </trkpt>
      <trkpt lat="48.406832003965974" lon="-4.764442993327975">
        <ele>58.780000000000001</ele>
        <time>2018-07-06T10:47:48Z</time>
      </trkpt>
      <trkpt lat="48.406748017296195" lon="-4.764338973909617">
        <ele>58.780000000000001</ele>
        <time>2018-07-06T10:47:49Z</time>
      </trkpt>
      <trkpt lat="48.406211994588375" lon="-4.763465998694301">
        <ele>57.82</ele>
        <time>2018-07-06T10:47:57Z</time>
      </trkpt>
      <trkpt lat="48.406154997646809" lon="-4.763372959569097">
        <ele>57.82</ele>
        <time>2018-07-06T10:47:58Z</time>
      </trkpt>
      <trkpt lat="48.406102024018764" lon="-4.763286039233208">
        <ele>57.82</ele>
        <time>2018-07-06T10:47:59Z</time>
      </trkpt>
      <trkpt lat="48.406053995713592" lon="-4.763209009543061">
        <ele>57.340000000000003</ele>
        <time>2018-07-06T10:48:00Z</time>
      </trkpt>
      <trkpt lat="48.406013008207083" lon="-4.763144971802831">
        <ele>57.340000000000003</ele>
        <time>2018-07-06T10:48:01Z</time>
      </trkpt>
      <trkpt lat="48.405978977680206" lon="-4.763104990124703">
        <ele>56.859999999999999</ele>
        <time>2018-07-06T10:48:02Z</time>
      </trkpt>
      <trkpt lat="48.405952993780375" lon="-4.763074982911348">
        <ele>56.369999999999997</ele>
        <time>2018-07-06T10:48:03Z</time>
      </trkpt>
      <trkpt lat="48.405926004052162" lon="-4.763042964041233">
        <ele>55.890000000000001</ele>
        <time>2018-07-06T10:48:04Z</time>
      </trkpt>
      <trkpt lat="48.405889039859176" lon="-4.762984961271286">
        <ele>54.93</ele>
        <time>2018-07-06T10:48:06Z</time>
      </trkpt>
      <trkpt lat="48.405871018767357" lon="-4.76279997266829">
        <ele>54.450000000000003</ele>
        <time>2018-07-06T10:48:07Z</time>
      </trkpt>
      <trkpt lat="48.405753001570702" lon="-4.761580992490053">
        <ele>54.93</ele>
        <time>2018-07-06T10:48:15Z</time>
      </trkpt>
      <trkpt lat="48.405507998540998" lon="-4.759274963289499">
        <ele>55.890000000000001</ele>
        <time>2018-07-06T10:48:27Z</time>
      </trkpt>
      <trkpt lat="48.40534295886755" lon="-4.75631196051836">
        <ele>59.259999999999998</ele>
        <time>2018-07-06T10:48:42Z</time>
      </trkpt>
      <trkpt lat="48.405146989971399" lon="-4.753305958583951">
        <ele>63.100000000000001</ele>
        <time>2018-07-06T10:48:56Z</time>
      </trkpt>
      <trkpt lat="48.404693026095629" lon="-4.75126001983881">
        <ele>65.510000000000005</ele>
        <time>2018-07-06T10:49:05Z</time>
      </trkpt>
      <trkpt lat="48.4038379881531" lon="-4.74883203394711">
        <ele>60.700000000000003</ele>
        <time>2018-07-06T10:49:16Z</time>
      </trkpt>
      <trkpt lat="48.40282897464931" lon="-4.746387032791972">
        <ele>53.009999999999998</ele>
        <time>2018-07-06T10:49:28Z</time>
      </trkpt>
      <trkpt lat="48.402511971071362" lon="-4.745626961812377">
        <ele>51.57</ele>
        <time>2018-07-06T10:49:32Z</time>
      </trkpt>
      <trkpt lat="48.402063036337495" lon="-4.743876988068223">
        <ele>49.649999999999999</ele>
        <time>2018-07-06T10:49:41Z</time>
      </trkpt>
      <trkpt lat="48.402080973610282" lon="-4.742304962128401">
        <ele>47.719999999999999</ele>
        <time>2018-07-06T10:49:49Z</time>
      </trkpt>
      <trkpt lat="48.402109974995255" lon="-4.741941019892693">
        <ele>47.240000000000002</ele>
        <time>2018-07-06T10:49:51Z</time>
      </trkpt>
      <trkpt lat="48.40214098803699" lon="-4.74178402684629">
        <ele>47.240000000000002</ele>
        <time>2018-07-06T10:49:52Z</time>
      </trkpt>
      <trkpt lat="48.40259000658989" lon="-4.740156009793282">
        <ele>48.200000000000003</ele>
        <time>2018-07-06T10:50:01Z</time>
      </trkpt>
      <trkpt lat="48.403060985729098" lon="-4.73787403665483">
        <ele>51.57</ele>
        <time>2018-07-06T10:50:12Z</time>
      </trkpt>
      <trkpt lat="48.403248991817236" lon="-4.735507993027568">
        <ele>53.009999999999998</ele>
        <time>2018-07-06T10:50:21Z</time>
      </trkpt>
      <trkpt lat="48.403252009302378" lon="-4.73134302534163">
        <ele>55.890000000000001</ele>
        <time>2018-07-06T10:50:35Z</time>
      </trkpt>
      <trkpt lat="48.403277993202209" lon="-4.728759974241257">
        <ele>58.299999999999997</ele>
        <time>2018-07-06T10:50:45Z</time>
      </trkpt>
      <trkpt lat="48.403371032327414" lon="-4.727582987397909">
        <ele>62.619999999999997</ele>
        <time>2018-07-06T10:50:52Z</time>
      </trkpt>
      <trkpt lat="48.403384024277329" lon="-4.72747603431344">
        <ele>63.100000000000001</ele>
        <time>2018-07-06T10:50:53Z</time>
      </trkpt>
      <trkpt lat="48.403395004570484" lon="-4.727376960217953">
        <ele>63.579999999999998</ele>
        <time>2018-07-06T10:50:54Z</time>
      </trkpt>
      <trkpt lat="48.403401961550117" lon="-4.727318035438657">
        <ele>64.549999999999997</ele>
        <time>2018-07-06T10:50:55Z</time>
      </trkpt>
      <trkpt lat="48.403423000127077" lon="-4.727125000208616">
        <ele>65.030000000000001</ele>
        <time>2018-07-06T10:50:56Z</time>
      </trkpt>
      <trkpt lat="48.403435992076993" lon="-4.727015029639006">
        <ele>65.510000000000005</ele>
        <time>2018-07-06T10:50:57Z</time>
      </trkpt>
      <trkpt lat="48.403452001512051" lon="-4.726867005228996">
        <ele>66.469999999999999</ele>
        <time>2018-07-06T10:50:58Z</time>
      </trkpt>
      <trkpt lat="48.403545040637255" lon="-4.725171010941267">
        <ele>75.599999999999994</ele>
        <time>2018-07-06T10:51:08Z</time>
      </trkpt>
      <trkpt lat="48.403423000127077" lon="-4.723743991926312">
        <ele>82.329999999999998</ele>
        <time>2018-07-06T10:51:18Z</time>
      </trkpt>
      <trkpt lat="48.403423000127077" lon="-4.723338978365064">
        <ele>83.290000000000006</ele>
        <time>2018-07-06T10:51:23Z</time>
      </trkpt>
      <trkpt lat="48.403354017063975" lon="-4.723224984481931">
        <ele>84.25</ele>
        <time>2018-07-06T10:51:25Z</time>
      </trkpt>
      <trkpt lat="48.403343036770821" lon="-4.723151978105307">
        <ele>84.25</ele>
        <time>2018-07-06T10:51:26Z</time>
      </trkpt>
      <trkpt lat="48.403401961550117" lon="-4.723061034455895">
        <ele>84.730000000000004</ele>
        <time>2018-07-06T10:51:27Z</time>
      </trkpt>
      <trkpt lat="48.403446972370148" lon="-4.723018035292625">
        <ele>85.209999999999994</ele>
        <time>2018-07-06T10:51:28Z</time>
      </trkpt>
      <trkpt lat="48.403467005118728" lon="-4.722932036966085">
        <ele>85.689999999999998</ele>
        <time>2018-07-06T10:51:29Z</time>
      </trkpt>
      <trkpt lat="48.403488965705037" lon="-4.72283598035574">
        <ele>85.689999999999998</ele>
        <time>2018-07-06T10:51:30Z</time>
      </trkpt>
      <trkpt lat="48.40351402759552" lon="-4.72272802144289">
        <ele>86.180000000000007</ele>
        <time>2018-07-06T10:51:31Z</time>
      </trkpt>
      <trkpt lat="48.403754001483321" lon="-4.721434023231268">
        <ele>85.209999999999994</ele>
        <time>2018-07-06T10:51:42Z</time>
      </trkpt>
      <trkpt lat="48.403775962069631" lon="-4.721207041293383">
        <ele>84.25</ele>
        <time>2018-07-06T10:51:47Z</time>
      </trkpt>
      <trkpt lat="48.403798006474972" lon="-4.721191031858325">
        <ele>84.25</ele>
        <time>2018-07-06T10:51:48Z</time>
      </trkpt>
      <trkpt lat="48.403809992596507" lon="-4.721180973574519">
        <ele>84.25</ele>
        <time>2018-07-06T10:51:49Z</time>
      </trkpt>
      <trkpt lat="48.403809992596507" lon="-4.721180973574519">
        <ele>84.25</ele>
        <time>2018-07-06T10:51:50Z</time>
      </trkpt>
      <trkpt lat="48.403809992596507" lon="-4.721180973574519">
        <ele>84.25</ele>
        <time>2018-07-06T10:51:51Z</time>
      </trkpt>
      <trkpt lat="48.403824996203184" lon="-4.721221039071679">
        <ele>84.25</ele>
        <time>2018-07-06T10:52:06Z</time>
      </trkpt>
      <trkpt lat="48.403809992596507" lon="-4.721180973574519">
        <ele>84.25</ele>
        <time>2018-07-06T10:52:07Z</time>
      </trkpt>
      <trkpt lat="48.403844023123384" lon="-4.721294967457652">
        <ele>83.769999999999996</ele>
        <time>2018-07-06T10:52:08Z</time>
      </trkpt>
      <trkpt lat="48.403810998424888" lon="-4.721319023519754">
        <ele>83.769999999999996</ele>
        <time>2018-07-06T10:52:09Z</time>
      </trkpt>
      <trkpt lat="48.403760036453605" lon="-4.721336038783193">
        <ele>83.769999999999996</ele>
        <time>2018-07-06T10:52:10Z</time>
      </trkpt>
      <trkpt lat="48.403741009533405" lon="-4.721290022134781">
        <ele>84.25</ele>
        <time>2018-07-06T10:52:11Z</time>
      </trkpt>
      <trkpt lat="48.403723994269967" lon="-4.72124601714313">
        <ele>84.25</ele>
        <time>2018-07-06T10:52:12Z</time>
      </trkpt>
      <trkpt lat="48.403650987893343" lon="-4.721213998273015">
        <ele>84.25</ele>
        <time>2018-07-06T10:52:13Z</time>
      </trkpt>
      <trkpt lat="48.403597008436918" lon="-4.721191031858325">
        <ele>84.25</ele>
        <time>2018-07-06T10:52:14Z</time>
      </trkpt>
      <trkpt lat="48.403542023152113" lon="-4.721166975796223">
        <ele>84.25</ele>
        <time>2018-07-06T10:52:15Z</time>
      </trkpt>
      <trkpt lat="48.403487037867308" lon="-4.721143003553152">
        <ele>83.769999999999996</ele>
        <time>2018-07-06T10:52:16Z</time>
      </trkpt>
      <trkpt lat="48.403318980708718" lon="-4.721069997176528">
        <ele>84.25</ele>
        <time>2018-07-06T10:52:20Z</time>
      </trkpt>
      <trkpt lat="48.403282016515732" lon="-4.72105398774147">
        <ele>84.25</ele>
        <time>2018-07-06T10:52:21Z</time>
      </trkpt>
      <trkpt lat="48.403066014871001" lon="-4.720771014690399">
        <ele>83.769999999999996</ele>
        <time>2018-07-06T10:52:28Z</time>
      </trkpt>
      <trkpt lat="48.403030978515744" lon="-4.720715023577213">
        <ele>83.769999999999996</ele>
        <time>2018-07-06T10:52:29Z</time>
      </trkpt>
      <trkpt lat="48.402933999896049" lon="-4.720590971410275">
        <ele>84.25</ele>
        <time>2018-07-06T10:52:31Z</time>
      </trkpt>
      <trkpt lat="48.40287197381258" lon="-4.720539003610611">
        <ele>84.25</ele>
        <time>2018-07-06T10:52:32Z</time>
      </trkpt>
      <trkpt lat="48.402702994644642" lon="-4.720396008342505">
        <ele>85.209999999999994</ele>
        <time>2018-07-06T10:52:35Z</time>
      </trkpt>
      <trkpt lat="48.402694026008248" lon="-4.72038796171546">
        <ele>85.689999999999998</ele>
        <time>2018-07-06T10:52:36Z</time>
      </trkpt>
      <trkpt lat="48.402694026008248" lon="-4.72038796171546">
        <ele>85.689999999999998</ele>
        <time>2018-07-06T10:52:37Z</time>
      </trkpt>
      <trkpt lat="48.402682961896062" lon="-4.720310010015965">
        <ele>86.180000000000007</ele>
        <time>2018-07-06T10:52:38Z</time>
      </trkpt>
      <trkpt lat="48.402694026008248" lon="-4.72038796171546">
        <ele>86.180000000000007</ele>
        <time>2018-07-06T10:52:39Z</time>
      </trkpt>
      <trkpt lat="48.402694026008248" lon="-4.72038796171546">
        <ele>86.180000000000007</ele>
        <time>2018-07-06T10:52:40Z</time>
      </trkpt>
      <trkpt lat="48.402580032125115" lon="-4.72027899697423">
        <ele>86.180000000000007</ele>
        <time>2018-07-06T10:52:41Z</time>
      </trkpt>
      <trkpt lat="48.40252798050642" lon="-4.720271034166217">
        <ele>86.659999999999997</ele>
        <time>2018-07-06T10:52:42Z</time>
      </trkpt>
      <trkpt lat="48.402467966079712" lon="-4.720260975882411">
        <ele>86.659999999999997</ele>
        <time>2018-07-06T10:52:43Z</time>
      </trkpt>
      <trkpt lat="48.402404012158513" lon="-4.720249995589256">
        <ele>87.140000000000001</ele>
        <time>2018-07-06T10:52:44Z</time>
      </trkpt>
      <trkpt lat="48.402337962761521" lon="-4.720239015296102">
        <ele>87.140000000000001</ele>
        <time>2018-07-06T10:52:45Z</time>
      </trkpt>
      <trkpt lat="48.401446966454387" lon="-4.720009015873075">
        <ele>84.730000000000004</ele>
        <time>2018-07-06T10:52:55Z</time>
      </trkpt>
      <trkpt lat="48.400859981775284" lon="-4.719843976199627">
        <ele>81.370000000000005</ele>
        <time>2018-07-06T10:53:01Z</time>
      </trkpt>
      <trkpt lat="48.399791959673166" lon="-4.71909798681736">
        <ele>76.560000000000002</ele>
        <time>2018-07-06T10:53:12Z</time>
      </trkpt>
      <trkpt lat="48.399723982438445" lon="-4.719052975997329">
        <ele>76.079999999999998</ele>
        <time>2018-07-06T10:53:13Z</time>
      </trkpt>
      <trkpt lat="48.399665979668498" lon="-4.719021962955594">
        <ele>75.599999999999994</ele>
        <time>2018-07-06T10:53:14Z</time>
      </trkpt>
      <trkpt lat="48.399612000212073" lon="-4.718992961570621">
        <ele>75.599999999999994</ele>
        <time>2018-07-06T10:53:15Z</time>
      </trkpt>
      <trkpt lat="48.399553997442126" lon="-4.718962032347918">
        <ele>75.120000000000005</ele>
        <time>2018-07-06T10:53:16Z</time>
      </trkpt>
      <trkpt lat="48.399489037692547" lon="-4.718926995992661">
        <ele>74.640000000000001</ele>
        <time>2018-07-06T10:53:17Z</time>
      </trkpt>
      <trkpt lat="48.399395998567343" lon="-4.718848038464785">
        <ele>74.640000000000001</ele>
        <time>2018-07-06T10:53:18Z</time>
      </trkpt>
      <trkpt lat="48.399344030767679" lon="-4.718714011833072">
        <ele>74.159999999999997</ele>
        <time>2018-07-06T10:53:19Z</time>
      </trkpt>
      <trkpt lat="48.399286027997732" lon="-4.718564981594682">
        <ele>73.680000000000007</ele>
        <time>2018-07-06T10:53:20Z</time>
      </trkpt>
      <trkpt lat="48.39853199198842" lon="-4.717131005600095">
        <ele>70.790000000000006</ele>
        <time>2018-07-06T10:53:28Z</time>
      </trkpt>
      <trkpt lat="48.397975014522672" lon="-4.716086033731699">
        <ele>74.159999999999997</ele>
        <time>2018-07-06T10:53:35Z</time>
      </trkpt>
      <trkpt lat="48.397935032844543" lon="-4.716012021526694">
        <ele>74.640000000000001</ele>
        <time>2018-07-06T10:53:36Z</time>
      </trkpt>
      <trkpt lat="48.397905025631189" lon="-4.715955024585128">
        <ele>74.640000000000001</ele>
        <time>2018-07-06T10:53:37Z</time>
      </trkpt>
      <trkpt lat="48.39790896512568" lon="-4.71580901183188">
        <ele>75.120000000000005</ele>
        <time>2018-07-06T10:53:38Z</time>
      </trkpt>
      <trkpt lat="48.397944001480937" lon="-4.715751009061933">
        <ele>75.599999999999994</ele>
        <time>2018-07-06T10:53:39Z</time>
      </trkpt>
      <trkpt lat="48.397991023957729" lon="-4.715673979371786">
        <ele>75.599999999999994</ele>
        <time>2018-07-06T10:53:40Z</time>
      </trkpt>
      <trkpt lat="48.398050032556057" lon="-4.71557498909533">
        <ele>76.079999999999998</ele>
        <time>2018-07-06T10:53:41Z</time>
      </trkpt>
      <trkpt lat="48.398123038932681" lon="-4.715453032404184">
        <ele>76.079999999999998</ele>
        <time>2018-07-06T10:53:42Z</time>
      </trkpt>
      <trkpt lat="48.398209037259221" lon="-4.715309031307697">
        <ele>76.560000000000002</ele>
        <time>2018-07-06T10:53:43Z</time>
      </trkpt>
      <trkpt lat="48.398970030248165" lon="-4.714035987854004">
        <ele>78.480000000000004</ele>
        <time>2018-07-06T10:53:50Z</time>
      </trkpt>
      <trkpt lat="48.399744015187025" lon="-4.712411994114518">
        <ele>81.370000000000005</ele>
        <time>2018-07-06T10:53:58Z</time>
      </trkpt>
      <trkpt lat="48.400617996230721" lon="-4.710880033671856">
        <ele>85.209999999999994</ele>
        <time>2018-07-06T10:54:06Z</time>
      </trkpt>
      <trkpt lat="48.40147496201098" lon="-4.709633979946375">
        <ele>89.060000000000002</ele>
        <time>2018-07-06T10:54:14Z</time>
      </trkpt>
      <trkpt lat="48.40175399556756" lon="-4.709420995786786">
        <ele>90.5</ele>
        <time>2018-07-06T10:54:16Z</time>
      </trkpt>
      <trkpt lat="48.402771977707744" lon="-4.708752036094666">
        <ele>94.349999999999994</ele>
        <time>2018-07-06T10:54:24Z</time>
      </trkpt>
      <trkpt lat="48.402973981574178" lon="-4.708619015291333">
        <ele>93.870000000000005</ele>
        <time>2018-07-06T10:54:27Z</time>
      </trkpt>
      <trkpt lat="48.403018992394209" lon="-4.70859001390636">
        <ele>93.870000000000005</ele>
        <time>2018-07-06T10:54:28Z</time>
      </trkpt>
      <trkpt lat="48.403055034577847" lon="-4.708566041663289">
        <ele>93.870000000000005</ele>
        <time>2018-07-06T10:54:29Z</time>
      </trkpt>
      <trkpt lat="48.403110019862652" lon="-4.70841902308166">
        <ele>93.870000000000005</ele>
        <time>2018-07-06T10:54:30Z</time>
      </trkpt>
      <trkpt lat="48.403099961578846" lon="-4.708339981734753">
        <ele>93.870000000000005</ele>
        <time>2018-07-06T10:54:31Z</time>
      </trkpt>
      <trkpt lat="48.40308596380055" lon="-4.70822699368">
        <ele>93.870000000000005</ele>
        <time>2018-07-06T10:54:32Z</time>
      </trkpt>
      <trkpt lat="48.403070038184524" lon="-4.708093972876668">
        <ele>93.870000000000005</ele>
        <time>2018-07-06T10:54:33Z</time>
      </trkpt>
      <trkpt lat="48.403051011264324" lon="-4.707942008972168">
        <ele>93.870000000000005</ele>
        <time>2018-07-06T10:54:34Z</time>
      </trkpt>
      <trkpt lat="48.402972975745797" lon="-4.70659201964736">
        <ele>94.829999999999998</ele>
        <time>2018-07-06T10:54:40Z</time>
      </trkpt>
      <trkpt lat="48.402874991297722" lon="-4.704672982916236">
        <ele>92.900000000000006</ele>
        <time>2018-07-06T10:54:46Z</time>
      </trkpt>
      <trkpt lat="48.402408035472035" lon="-4.702428979799151">
        <ele>93.390000000000001</ele>
        <time>2018-07-06T10:54:54Z</time>
      </trkpt>
      <trkpt lat="48.401870001107454" lon="-4.699641996994615">
        <ele>96.75</ele>
        <time>2018-07-06T10:55:03Z</time>
      </trkpt>
      <trkpt lat="48.401532964780927" lon="-4.695910038426518">
        <ele>99.629999999999995</ele>
        <time>2018-07-06T10:55:14Z</time>
      </trkpt>
      <trkpt lat="48.401338001713157" lon="-4.691884964704514">
        <ele>96.75</ele>
        <time>2018-07-06T10:55:26Z</time>
      </trkpt>
      <trkpt lat="48.401013035327196" lon="-4.688514014706016">
        <ele>93.870000000000005</ele>
        <time>2018-07-06T10:55:36Z</time>
      </trkpt>
      <trkpt lat="48.400811031460762" lon="-4.685711022466421">
        <ele>92.900000000000006</ele>
        <time>2018-07-06T10:55:44Z</time>
      </trkpt>
      <trkpt lat="48.401141026988626" lon="-4.683761978521943">
        <ele>92.900000000000006</ele>
        <time>2018-07-06T10:55:50Z</time>
      </trkpt>
      <trkpt lat="48.401975026354194" lon="-4.680948005989194">
        <ele>93.390000000000001</ele>
        <time>2018-07-06T10:55:59Z</time>
      </trkpt>
      <trkpt lat="48.402671981602907" lon="-4.677954996004701">
        <ele>90.980000000000004</ele>
        <time>2018-07-06T10:56:08Z</time>
      </trkpt>
      <trkpt lat="48.40381502173841" lon="-4.675035998225212">
        <ele>92.420000000000002</ele>
        <time>2018-07-06T10:56:18Z</time>
      </trkpt>
      <trkpt lat="48.404763014987111" lon="-4.672342976555228">
        <ele>100.11</ele>
        <time>2018-07-06T10:56:28Z</time>
      </trkpt>
      <trkpt lat="48.4053869638592" lon="-4.670298965647817">
        <ele>104.44</ele>
        <time>2018-07-06T10:56:36Z</time>
      </trkpt>
      <trkpt lat="48.406105963513255" lon="-4.668301977217197">
        <ele>101.08</ele>
        <time>2018-07-06T10:56:44Z</time>
      </trkpt>
      <trkpt lat="48.407399039715528" lon="-4.664895990863442">
        <ele>89.540000000000006</ele>
        <time>2018-07-06T10:56:57Z</time>
      </trkpt>
      <trkpt lat="48.408335968852043" lon="-4.662258038297296">
        <ele>79.450000000000003</ele>
        <time>2018-07-06T10:57:07Z</time>
      </trkpt>
      <trkpt lat="48.409331990405917" lon="-4.659335017204285">
        <ele>68.390000000000001</ele>
        <time>2018-07-06T10:57:19Z</time>
      </trkpt>
      <trkpt lat="48.409835994243622" lon="-4.657846977934241">
        <ele>64.549999999999997</ele>
        <time>2018-07-06T10:57:28Z</time>
      </trkpt>
      <trkpt lat="48.409868013113737" lon="-4.657752010971308">
        <ele>64.069999999999993</ele>
        <time>2018-07-06T10:57:29Z</time>
      </trkpt>
      <trkpt lat="48.409873964264989" lon="-4.657661989331245">
        <ele>64.069999999999993</ele>
        <time>2018-07-06T10:57:30Z</time>
      </trkpt>
      <trkpt lat="48.409862983971834" lon="-4.657600969076157">
        <ele>64.069999999999993</ele>
        <time>2018-07-06T10:57:31Z</time>
      </trkpt>
      <trkpt lat="48.40985300950706" lon="-4.657546989619732">
        <ele>63.579999999999998</ele>
        <time>2018-07-06T10:57:32Z</time>
      </trkpt>
      <trkpt lat="48.409845968708396" lon="-4.657503990456462">
        <ele>63.579999999999998</ele>
        <time>2018-07-06T10:57:33Z</time>
      </trkpt>
      <trkpt lat="48.409841023385525" lon="-4.657475994899869">
        <ele>63.579999999999998</ele>
        <time>2018-07-06T10:57:34Z</time>
      </trkpt>
    </trkseg>
  </trk>

  <trk>
    <name>Track vom: 2018-07-06 12:58</name>
    <extensions>
      <gpxx:TrackExtension>
        <gpxx:DisplayColor>DarkGray</gpxx:DisplayColor>
      </gpxx:TrackExtension>
    </extensions>
    <trkseg>
      <trkpt lat="48.409841023385525" lon="-4.657475994899869">
        <ele>63.579999999999998</ele>
        <time>2018-07-06T10:58:21Z</time>
      </trkpt>
      <trkpt lat="48.409825013950467" lon="-4.657385973259807">
        <ele>64.069999999999993</ele>
        <time>2018-07-06T10:58:33Z</time>
      </trkpt>
      <trkpt lat="48.409817973151803" lon="-4.657344985753298">
        <ele>64.069999999999993</ele>
        <time>2018-07-06T10:58:34Z</time>
      </trkpt>
      <trkpt lat="48.409844040870667" lon="-4.65732897631824">
        <ele>64.549999999999997</ele>
        <time>2018-07-06T10:58:35Z</time>
      </trkpt>
      <trkpt lat="48.409905983135104" lon="-4.657292012125254">
        <ele>65.030000000000001</ele>
        <time>2018-07-06T10:58:36Z</time>
      </trkpt>
      <trkpt lat="48.409981001168489" lon="-4.657247001305223">
        <ele>65.030000000000001</ele>
        <time>2018-07-06T10:58:37Z</time>
      </trkpt>
      <trkpt lat="48.410770995542407" lon="-4.656836036592722">
        <ele>65.510000000000005</ele>
        <time>2018-07-06T10:58:44Z</time>
      </trkpt>
      <trkpt lat="48.41105698607862" lon="-4.656690023839474">
        <ele>65.510000000000005</ele>
        <time>2018-07-06T10:58:46Z</time>
      </trkpt>
      <trkpt lat="48.411197969689965" lon="-4.656591033563018">
        <ele>65.030000000000001</ele>
        <time>2018-07-06T10:58:47Z</time>
      </trkpt>
      <trkpt lat="48.411334007978439" lon="-4.656440997496247">
        <ele>64.549999999999997</ele>
        <time>2018-07-06T10:58:48Z</time>
      </trkpt>
      <trkpt lat="48.411460993811488" lon="-4.656261960044503">
        <ele>64.069999999999993</ele>
        <time>2018-07-06T10:58:49Z</time>
      </trkpt>
      <trkpt lat="48.411595020443201" lon="-4.656073031947017">
        <ele>63.100000000000001</ele>
        <time>2018-07-06T10:58:50Z</time>
      </trkpt>
      <trkpt lat="48.41238702647388" lon="-4.654833013191819">
        <ele>57.82</ele>
        <time>2018-07-06T10:58:56Z</time>
      </trkpt>
      <trkpt lat="48.412541002035141" lon="-4.654716001823545">
        <ele>56.859999999999999</ele>
        <time>2018-07-06T10:58:57Z</time>
      </trkpt>
      <trkpt lat="48.412693971768022" lon="-4.65459999628365">
        <ele>55.890000000000001</ele>
        <time>2018-07-06T10:58:58Z</time>
      </trkpt>
      <trkpt lat="48.412848031148314" lon="-4.654482984915376">
        <ele>54.93</ele>
        <time>2018-07-06T10:58:59Z</time>
      </trkpt>
      <trkpt lat="48.412991026416421" lon="-4.654348958283663">
        <ele>54.450000000000003</ele>
        <time>2018-07-06T10:59:00Z</time>
      </trkpt>
      <trkpt lat="48.413111977279186" lon="-4.654182996600866">
        <ele>53.969999999999999</ele>
        <time>2018-07-06T10:59:01Z</time>
      </trkpt>
      <trkpt lat="48.413214990869164" lon="-4.653984010219574">
        <ele>53.490000000000002</ele>
        <time>2018-07-06T10:59:02Z</time>
      </trkpt>
      <trkpt lat="48.413298977538943" lon="-4.653759961947799">
        <ele>53.009999999999998</ele>
        <time>2018-07-06T10:59:03Z</time>
      </trkpt>
      <trkpt lat="48.41337701305747" lon="-4.653515964746475">
        <ele>52.530000000000001</ele>
        <time>2018-07-06T10:59:04Z</time>
      </trkpt>
      <trkpt lat="48.413825025781989" lon="-4.652070002630353">
        <ele>48.68</ele>
        <time>2018-07-06T10:59:10Z</time>
      </trkpt>
      <trkpt lat="48.413895014673471" lon="-4.651830028742552">
        <ele>48.200000000000003</ele>
        <time>2018-07-06T10:59:11Z</time>
      </trkpt>
      <trkpt lat="48.413918986916542" lon="-4.651624001562595">
        <ele>47.719999999999999</ele>
        <time>2018-07-06T10:59:12Z</time>
      </trkpt>
      <trkpt lat="48.414014959707856" lon="-4.650992006063461">
        <ele>45.32</ele>
        <time>2018-07-06T10:59:15Z</time>
      </trkpt>
      <trkpt lat="48.4140869602561" lon="-4.650824032723904">
        <ele>44.840000000000003</ele>
        <time>2018-07-06T10:59:16Z</time>
      </trkpt>
      <trkpt lat="48.414157032966614" lon="-4.650682965293527">
        <ele>44.359999999999999</ele>
        <time>2018-07-06T10:59:17Z</time>
      </trkpt>
      <trkpt lat="48.414316037669778" lon="-4.650365961715579">
        <ele>42.920000000000002</ele>
        <time>2018-07-06T10:59:20Z</time>
      </trkpt>
      <trkpt lat="48.414324000477791" lon="-4.650250962004066">
        <ele>41.950000000000003</ele>
        <time>2018-07-06T10:59:21Z</time>
      </trkpt>
      <trkpt lat="48.414324000477791" lon="-4.650135040283203">
        <ele>41.469999999999999</ele>
        <time>2018-07-06T10:59:22Z</time>
      </trkpt>
      <trkpt lat="48.414287036284804" lon="-4.65004300698638">
        <ele>40.990000000000002</ele>
        <time>2018-07-06T10:59:23Z</time>
      </trkpt>
      <trkpt lat="48.414246970787644" lon="-4.649942005053163">
        <ele>40.990000000000002</ele>
        <time>2018-07-06T10:59:24Z</time>
      </trkpt>
      <trkpt lat="48.414195002987981" lon="-4.649813007563353">
        <ele>40.509999999999998</ele>
        <time>2018-07-06T10:59:25Z</time>
      </trkpt>
      <trkpt lat="48.414148986339569" lon="-4.649741007015109">
        <ele>40.509999999999998</ele>
        <time>2018-07-06T10:59:26Z</time>
      </trkpt>
      <trkpt lat="48.414100036025047" lon="-4.649663977324963">
        <ele>40.509999999999998</ele>
        <time>2018-07-06T10:59:27Z</time>
      </trkpt>
      <trkpt lat="48.413981013000011" lon="-4.649662971496582">
        <ele>40.509999999999998</ele>
        <time>2018-07-06T10:59:28Z</time>
      </trkpt>
      <trkpt lat="48.4139349963516" lon="-4.649655008688569">
        <ele>40.990000000000002</ele>
        <time>2018-07-06T10:59:29Z</time>
      </trkpt>
      <trkpt lat="48.413846986368299" lon="-4.649630030617118">
        <ele>40.990000000000002</ele>
        <time>2018-07-06T10:59:30Z</time>
      </trkpt>
      <trkpt lat="48.413809016346931" lon="-4.649516036733985">
        <ele>41.469999999999999</ele>
        <time>2018-07-06T10:59:31Z</time>
      </trkpt>
      <trkpt lat="48.413809016346931" lon="-4.6494219917804">
        <ele>41.469999999999999</ele>
        <time>2018-07-06T10:59:32Z</time>
      </trkpt>
      <trkpt lat="48.413873976096511" lon="-4.649302968755364">
        <ele>41.469999999999999</ele>
        <time>2018-07-06T10:59:33Z</time>
      </trkpt>
      <trkpt lat="48.413895014673471" lon="-4.649276984855533">
        <ele>41.469999999999999</ele>
        <time>2018-07-06T10:59:34Z</time>
      </trkpt>
      <trkpt lat="48.414027029648423" lon="-4.649224011227489">
        <ele>41.469999999999999</ele>
        <time>2018-07-06T10:59:35Z</time>
      </trkpt>
      <trkpt lat="48.41406399384141" lon="-4.649114962667227">
        <ele>41.950000000000003</ele>
        <time>2018-07-06T10:59:36Z</time>
      </trkpt>
      <trkpt lat="48.414109004661441" lon="-4.648986971005797">
        <ele>41.950000000000003</ele>
        <time>2018-07-06T10:59:37Z</time>
      </trkpt>
      <trkpt lat="48.414162984117866" lon="-4.648835007101297">
        <ele>41.950000000000003</ele>
        <time>2018-07-06T10:59:38Z</time>
      </trkpt>
      <trkpt lat="48.414659025147557" lon="-4.647417040541768">
        <ele>44.359999999999999</ele>
        <time>2018-07-06T10:59:45Z</time>
      </trkpt>
      <trkpt lat="48.415368972346187" lon="-4.6453189663589">
        <ele>57.340000000000003</ele>
        <time>2018-07-06T10:59:54Z</time>
      </trkpt>
      <trkpt lat="48.416258040815592" lon="-4.642378007993102">
        <ele>78.969999999999999</ele>
        <time>2018-07-06T11:00:06Z</time>
      </trkpt>
      <trkpt lat="48.417022973299026" lon="-4.639531010761857">
        <ele>90.019999999999996</ele>
        <time>2018-07-06T11:00:19Z</time>
      </trkpt>
      <trkpt lat="48.417531000450253" lon="-4.637907017022371">
        <ele>86.180000000000007</ele>
        <time>2018-07-06T11:00:28Z</time>
      </trkpt>
      <trkpt lat="48.417722024023533" lon="-4.637469984591007">
        <ele>84.730000000000004</ele>
        <time>2018-07-06T11:00:31Z</time>
      </trkpt>
      <trkpt lat="48.417787989601493" lon="-4.637341992929578">
        <ele>84.25</ele>
        <time>2018-07-06T11:00:32Z</time>
      </trkpt>
      <trkpt lat="48.418099964037538" lon="-4.6366379968822">
        <ele>83.290000000000006</ele>
        <time>2018-07-06T11:00:38Z</time>
      </trkpt>
      <trkpt lat="48.418359970673919" lon="-4.636214962229133">
        <ele>83.290000000000006</ele>
        <time>2018-07-06T11:00:41Z</time>
      </trkpt>
      <trkpt lat="48.418413028120995" lon="-4.636041037738323">
        <ele>83.769999999999996</ele>
        <time>2018-07-06T11:00:42Z</time>
      </trkpt>
      <trkpt lat="48.4188789781183" lon="-4.634369015693665">
        <ele>87.620000000000005</ele>
        <time>2018-07-06T11:00:50Z</time>
      </trkpt>
      <trkpt lat="48.419424975290895" lon="-4.631966007873416">
        <ele>93.390000000000001</ele>
        <time>2018-07-06T11:00:57Z</time>
      </trkpt>
      <trkpt lat="48.419952029362321" lon="-4.62905103340745">
        <ele>98.670000000000002</ele>
        <time>2018-07-06T11:01:06Z</time>
      </trkpt>
      <trkpt lat="48.420399036258459" lon="-4.627022026106715">
        <ele>99.150000000000006</ele>
        <time>2018-07-06T11:01:14Z</time>
      </trkpt>
      <trkpt lat="48.420432982966304" lon="-4.626515004783869">
        <ele>98.670000000000002</ele>
        <time>2018-07-06T11:01:17Z</time>
      </trkpt>
      <trkpt lat="48.420422002673149" lon="-4.626372009515762">
        <ele>98.189999999999998</ele>
        <time>2018-07-06T11:01:18Z</time>
      </trkpt>
      <trkpt lat="48.420377997681499" lon="-4.626241000369191">
        <ele>98.189999999999998</ele>
        <time>2018-07-06T11:01:19Z</time>
      </trkpt>
      <trkpt lat="48.420304991304874" lon="-4.626116026192904">
        <ele>97.709999999999994</ele>
        <time>2018-07-06T11:01:20Z</time>
      </trkpt>
      <trkpt lat="48.420211030170321" lon="-4.626016030088067">
        <ele>97.230000000000004</ele>
        <time>2018-07-06T11:01:21Z</time>
      </trkpt>
      <trkpt lat="48.420110028237104" lon="-4.625908993184567">
        <ele>97.230000000000004</ele>
        <time>2018-07-06T11:01:22Z</time>
      </trkpt>
      <trkpt lat="48.419988993555307" lon="-4.625781001523137">
        <ele>97.230000000000004</ele>
        <time>2018-07-06T11:01:23Z</time>
      </trkpt>
      <trkpt lat="48.419854966923594" lon="-4.625714030116797">
        <ele>97.230000000000004</ele>
        <time>2018-07-06T11:01:24Z</time>
      </trkpt>
      <trkpt lat="48.418441023677588" lon="-4.6249920129776">
        <ele>93.390000000000001</ele>
        <time>2018-07-06T11:01:32Z</time>
      </trkpt>
      <trkpt lat="48.416570015251637" lon="-4.624019041657448">
        <ele>81.849999999999994</ele>
        <time>2018-07-06T11:01:42Z</time>
      </trkpt>
      <trkpt lat="48.414231967180967" lon="-4.623213959857822">
        <ele>79.450000000000003</ele>
        <time>2018-07-06T11:01:53Z</time>
      </trkpt>
      <trkpt lat="48.412552988156676" lon="-4.622790003195405">
        <ele>85.689999999999998</ele>
        <time>2018-07-06T11:02:02Z</time>
      </trkpt>
      <trkpt lat="48.4123669937253" lon="-4.622764019295573">
        <ele>86.659999999999997</ele>
        <time>2018-07-06T11:02:04Z</time>
      </trkpt>
      <trkpt lat="48.41230496764183" lon="-4.622754966840148">
        <ele>86.659999999999997</ele>
        <time>2018-07-06T11:02:05Z</time>
      </trkpt>
      <trkpt lat="48.412202959880233" lon="-4.622652037069202">
        <ele>86.659999999999997</ele>
        <time>2018-07-06T11:02:06Z</time>
      </trkpt>
      <trkpt lat="48.412205977365375" lon="-4.622570984065533">
        <ele>86.659999999999997</ele>
        <time>2018-07-06T11:02:07Z</time>
      </trkpt>
      <trkpt lat="48.412210000678897" lon="-4.622466964647174">
        <ele>86.659999999999997</ele>
        <time>2018-07-06T11:02:08Z</time>
      </trkpt>
      <trkpt lat="48.4122150298208" lon="-4.622336039319634">
        <ele>86.659999999999997</ele>
        <time>2018-07-06T11:02:09Z</time>
      </trkpt>
      <trkpt lat="48.412220980972052" lon="-4.622175022959709">
        <ele>86.659999999999997</ele>
        <time>2018-07-06T11:02:10Z</time>
      </trkpt>
      <trkpt lat="48.412208994850516" lon="-4.621575968340039">
        <ele>86.180000000000007</ele>
        <time>2018-07-06T11:02:13Z</time>
      </trkpt>
      <trkpt lat="48.412203965708613" lon="-4.621348986402154">
        <ele>86.180000000000007</ele>
        <time>2018-07-06T11:02:14Z</time>
      </trkpt>
      <trkpt lat="48.412104975432158" lon="-4.619507985189557">
        <ele>86.659999999999997</ele>
        <time>2018-07-06T11:02:21Z</time>
      </trkpt>
      <trkpt lat="48.411849997937679" lon="-4.617404965683818">
        <ele>86.180000000000007</ele>
        <time>2018-07-06T11:02:29Z</time>
      </trkpt>
      <trkpt lat="48.411544980481267" lon="-4.615189963951707">
        <ele>88.099999999999994</ele>
        <time>2018-07-06T11:02:38Z</time>
      </trkpt>
      <trkpt lat="48.411362003535032" lon="-4.612937998026609">
        <ele>86.180000000000007</ele>
        <time>2018-07-06T11:02:46Z</time>
      </trkpt>
      <trkpt lat="48.411100991070271" lon="-4.60982202552259">
        <ele>83.769999999999996</ele>
        <time>2018-07-06T11:02:57Z</time>
      </trkpt>
      <trkpt lat="48.410827992483974" lon="-4.607793018221855">
        <ele>77.519999999999996</ele>
        <time>2018-07-06T11:03:05Z</time>
      </trkpt>
      <trkpt lat="48.410847019404173" lon="-4.607552038505673">
        <ele>76.079999999999998</ele>
        <time>2018-07-06T11:03:06Z</time>
      </trkpt>
      <trkpt lat="48.410865040495992" lon="-4.607309969142079">
        <ele>75.120000000000005</ele>
        <time>2018-07-06T11:03:07Z</time>
      </trkpt>
      <trkpt lat="48.410883983597159" lon="-4.607067983597517">
        <ele>74.159999999999997</ele>
        <time>2018-07-06T11:03:08Z</time>
      </trkpt>
      <trkpt lat="48.410902004688978" lon="-4.606829015538096">
        <ele>73.200000000000003</ele>
        <time>2018-07-06T11:03:09Z</time>
      </trkpt>
      <trkpt lat="48.411061009392142" lon="-4.604831021279097">
        <ele>70.310000000000002</ele>
        <time>2018-07-06T11:03:18Z</time>
      </trkpt>
      <trkpt lat="48.411238035187125" lon="-4.603447001427412">
        <ele>71.760000000000005</ele>
        <time>2018-07-06T11:03:25Z</time>
      </trkpt>
      <trkpt lat="48.411754025146365" lon="-4.601355968043208">
        <ele>70.790000000000006</ele>
        <time>2018-07-06T11:03:34Z</time>
      </trkpt>
      <trkpt lat="48.411985030397773" lon="-4.599665002897382">
        <ele>65.989999999999995</ele>
        <time>2018-07-06T11:03:41Z</time>
      </trkpt>
      <trkpt lat="48.412048984318972" lon="-4.599043987691402">
        <ele>62.619999999999997</ele>
        <time>2018-07-06T11:03:44Z</time>
      </trkpt>
      <trkpt lat="48.412101035937667" lon="-4.598837960511446">
        <ele>61.659999999999997</ele>
        <time>2018-07-06T11:03:45Z</time>
      </trkpt>
      <trkpt lat="48.412148980423808" lon="-4.598648026585579">
        <ele>60.219999999999999</ele>
        <time>2018-07-06T11:03:46Z</time>
      </trkpt>
      <trkpt lat="48.412200026214123" lon="-4.598444011062384">
        <ele>58.780000000000001</ele>
        <time>2018-07-06T11:03:47Z</time>
      </trkpt>
      <trkpt lat="48.412240007892251" lon="-4.598273020237684">
        <ele>57.82</ele>
        <time>2018-07-06T11:03:48Z</time>
      </trkpt>
      <trkpt lat="48.41232500039041" lon="-4.597910000011325">
        <ele>55.890000000000001</ele>
        <time>2018-07-06T11:03:50Z</time>
      </trkpt>
      <trkpt lat="48.412365987896919" lon="-4.597735991701484">
        <ele>54.93</ele>
        <time>2018-07-06T11:03:51Z</time>
      </trkpt>
      <trkpt lat="48.412533961236477" lon="-4.597020009532571">
        <ele>50.609999999999999</ele>
        <time>2018-07-06T11:03:56Z</time>
      </trkpt>
      <trkpt lat="48.412561034783721" lon="-4.596939040347934">
        <ele>50.130000000000003</ele>
        <time>2018-07-06T11:03:57Z</time>
      </trkpt>
      <trkpt lat="48.412586012855172" lon="-4.596877014264464">
        <ele>49.159999999999997</ele>
        <time>2018-07-06T11:03:58Z</time>
      </trkpt>
      <trkpt lat="48.412620965391397" lon="-4.596789004281163">
        <ele>46.280000000000001</ele>
        <time>2018-07-06T11:04:01Z</time>
      </trkpt>
      <trkpt lat="48.412705035880208" lon="-4.596689008176327">
        <ele>44.840000000000003</ele>
        <time>2018-07-06T11:04:05Z</time>
      </trkpt>
      <trkpt lat="48.412759015336633" lon="-4.596731001511216">
        <ele>44.359999999999999</ele>
        <time>2018-07-06T11:04:06Z</time>
      </trkpt>
      <trkpt lat="48.412832021713257" lon="-4.596787998452783">
        <ele>43.880000000000003</ele>
        <time>2018-07-06T11:04:07Z</time>
      </trkpt>
      <trkpt lat="48.413594020530581" lon="-4.59738202393055">
        <ele>41.950000000000003</ele>
        <time>2018-07-06T11:04:14Z</time>
      </trkpt>
      <trkpt lat="48.414778970181942" lon="-4.59835097193718">
        <ele>41.469999999999999</ele>
        <time>2018-07-06T11:04:23Z</time>
      </trkpt>
      <trkpt lat="48.415063032880425" lon="-4.598584994673729">
        <ele>40.509999999999998</ele>
        <time>2018-07-06T11:04:26Z</time>
      </trkpt>
      <trkpt lat="48.415122041478753" lon="-4.598634028807282">
        <ele>40.509999999999998</ele>
        <time>2018-07-06T11:04:27Z</time>
      </trkpt>
      <trkpt lat="48.415227988734841" lon="-4.598610978573561">
        <ele>40.030000000000001</ele>
        <time>2018-07-06T11:04:28Z</time>
      </trkpt>
      <trkpt lat="48.415247015655041" lon="-4.598540989682078">
        <ele>39.549999999999997</ele>
        <time>2018-07-06T11:04:29Z</time>
      </trkpt>
      <trkpt lat="48.415275011211634" lon="-4.5984379760921">
        <ele>39.549999999999997</ele>
        <time>2018-07-06T11:04:30Z</time>
      </trkpt>
      <trkpt lat="48.41531197540462" lon="-4.5983050391078">
        <ele>39.07</ele>
        <time>2018-07-06T11:04:31Z</time>
      </trkpt>
      <trkpt lat="48.415352962911129" lon="-4.598155003041029">
        <ele>38.590000000000003</ele>
        <time>2018-07-06T11:04:32Z</time>
      </trkpt>
      <trkpt lat="48.415395962074399" lon="-4.597995998337865">
        <ele>38.590000000000003</ele>
        <time>2018-07-06T11:04:33Z</time>
      </trkpt>
      <trkpt lat="48.415442984551191" lon="-4.597824001684785">
        <ele>38.590000000000003</ele>
        <time>2018-07-06T11:04:34Z</time>
      </trkpt>
      <trkpt lat="48.4154839720577" lon="-4.59764395840466">
        <ele>38.109999999999999</ele>
        <time>2018-07-06T11:04:35Z</time>
      </trkpt>
      <trkpt lat="48.41563300229609" lon="-4.596829991787672">
        <ele>37.630000000000003</ele>
        <time>2018-07-06T11:04:39Z</time>
      </trkpt>
      <trkpt lat="48.41563300229609" lon="-4.596609966829419">
        <ele>37.149999999999999</ele>
        <time>2018-07-06T11:04:40Z</time>
      </trkpt>
      <trkpt lat="48.41563300229609" lon="-4.596392037346959">
        <ele>37.149999999999999</ele>
        <time>2018-07-06T11:04:41Z</time>
      </trkpt>
      <trkpt lat="48.41556603088975" lon="-4.594921013340354">
        <ele>34.740000000000002</ele>
        <time>2018-07-06T11:04:48Z</time>
      </trkpt>
      <trkpt lat="48.415532000362873" lon="-4.594709035009146">
        <ele>34.259999999999998</ele>
        <time>2018-07-06T11:04:49Z</time>
      </trkpt>
      <trkpt lat="48.415486989542842" lon="-4.594497978687286">
        <ele>34.259999999999998</ele>
        <time>2018-07-06T11:04:50Z</time>
      </trkpt>
      <trkpt lat="48.415409037843347" lon="-4.594308966770768">
        <ele>33.780000000000001</ele>
        <time>2018-07-06T11:04:51Z</time>
      </trkpt>
      <trkpt lat="48.415327984839678" lon="-4.594112997874618">
        <ele>33.299999999999997</ele>
        <time>2018-07-06T11:04:52Z</time>
      </trkpt>
      <trkpt lat="48.41524500399828" lon="-4.593914011493325">
        <ele>33.780000000000001</ele>
        <time>2018-07-06T11:04:53Z</time>
      </trkpt>
      <trkpt lat="48.415124975144863" lon="-4.593772022053599">
        <ele>33.780000000000001</ele>
        <time>2018-07-06T11:04:54Z</time>
      </trkpt>
      <trkpt lat="48.415005030110478" lon="-4.593628020957112">
        <ele>33.780000000000001</ele>
        <time>2018-07-06T11:04:55Z</time>
      </trkpt>
      <trkpt lat="48.41488198377192" lon="-4.593482008203864">
        <ele>33.299999999999997</ele>
        <time>2018-07-06T11:04:56Z</time>
      </trkpt>
      <trkpt lat="48.41436599381268" lon="-4.592873984947801">
        <ele>33.780000000000001</ele>
        <time>2018-07-06T11:05:00Z</time>
      </trkpt>
      <trkpt lat="48.414253005757928" lon="-4.592712968587875">
        <ele>34.259999999999998</ele>
        <time>2018-07-06T11:05:01Z</time>
      </trkpt>
      <trkpt lat="48.414148986339569" lon="-4.592533009126782">
        <ele>34.259999999999998</ele>
        <time>2018-07-06T11:05:02Z</time>
      </trkpt>
      <trkpt lat="48.414076985791326" lon="-4.592328993603587">
        <ele>34.259999999999998</ele>
        <time>2018-07-06T11:05:03Z</time>
      </trkpt>
      <trkpt lat="48.414014037698507" lon="-4.592130007222295">
        <ele>34.740000000000002</ele>
        <time>2018-07-06T11:05:04Z</time>
      </trkpt>
      <trkpt lat="48.413988975808024" lon="-4.591915011405945">
        <ele>34.740000000000002</ele>
        <time>2018-07-06T11:05:05Z</time>
      </trkpt>
      <trkpt lat="48.413986964151263" lon="-4.591701021417975">
        <ele>34.740000000000002</ele>
        <time>2018-07-06T11:05:06Z</time>
      </trkpt>
      <trkpt lat="48.414003979414701" lon="-4.591478984802961">
        <ele>34.740000000000002</ele>
        <time>2018-07-06T11:05:07Z</time>
      </trkpt>
      <trkpt lat="48.41402200050652" lon="-4.591245967894793">
        <ele>34.740000000000002</ele>
        <time>2018-07-06T11:05:08Z</time>
      </trkpt>
      <trkpt lat="48.41408796608448" lon="-4.59046402014792">
        <ele>34.259999999999998</ele>
        <time>2018-07-06T11:05:11Z</time>
      </trkpt>
      <trkpt lat="48.414319977164268" lon="-4.587879041209817">
        <ele>34.259999999999998</ele>
        <time>2018-07-06T11:05:20Z</time>
      </trkpt>
      <trkpt lat="48.4143649879843" lon="-4.5867919921875">
        <ele>35.710000000000001</ele>
        <time>2018-07-06T11:05:25Z</time>
      </trkpt>
      <trkpt lat="48.414485016837716" lon="-4.585444014519453">
        <ele>36.670000000000002</ele>
        <time>2018-07-06T11:05:31Z</time>
      </trkpt>
      <trkpt lat="48.414620971307158" lon="-4.58395698107779">
        <ele>37.149999999999999</ele>
        <time>2018-07-06T11:05:37Z</time>
      </trkpt>
      <trkpt lat="48.41460001654923" lon="-4.582083038985729">
        <ele>39.549999999999997</ele>
        <time>2018-07-06T11:05:46Z</time>
      </trkpt>
      <trkpt lat="48.414387032389641" lon="-4.579940037801862">
        <ele>46.759999999999998</ele>
        <time>2018-07-06T11:05:56Z</time>
      </trkpt>
      <trkpt lat="48.414313020184636" lon="-4.57950702868402">
        <ele>48.68</ele>
        <time>2018-07-06T11:05:58Z</time>
      </trkpt>
      <trkpt lat="48.41391202993691" lon="-4.578023012727499">
        <ele>54.450000000000003</ele>
        <time>2018-07-06T11:06:06Z</time>
      </trkpt>
      <trkpt lat="48.413315992802382" lon="-4.575508022680879">
        <ele>58.299999999999997</ele>
        <time>2018-07-06T11:06:18Z</time>
      </trkpt>
      <trkpt lat="48.413092028349638" lon="-4.574913997203112">
        <ele>57.82</ele>
        <time>2018-07-06T11:06:21Z</time>
      </trkpt>
      <trkpt lat="48.413006030023098" lon="-4.574723979458213">
        <ele>57.340000000000003</ele>
        <time>2018-07-06T11:06:22Z</time>
      </trkpt>
      <trkpt lat="48.412389038130641" lon="-4.573280028998852">
        <ele>54.450000000000003</ele>
        <time>2018-07-06T11:06:30Z</time>
      </trkpt>
      <trkpt lat="48.41234402731061" lon="-4.573099985718727">
        <ele>53.969999999999999</ele>
        <time>2018-07-06T11:06:31Z</time>
      </trkpt>
      <trkpt lat="48.412300022318959" lon="-4.572756998240948">
        <ele>53.490000000000002</ele>
        <time>2018-07-06T11:06:33Z</time>
      </trkpt>
      <trkpt lat="48.412285018712282" lon="-4.572608973830938">
        <ele>53.490000000000002</ele>
        <time>2018-07-06T11:06:34Z</time>
      </trkpt>
      <trkpt lat="48.412298010662198" lon="-4.572411999106407">
        <ele>53.969999999999999</ele>
        <time>2018-07-06T11:06:35Z</time>
      </trkpt>
      <trkpt lat="48.41232500039041" lon="-4.571999022737145">
        <ele>54.93</ele>
        <time>2018-07-06T11:06:37Z</time>
      </trkpt>
      <trkpt lat="48.412338998168707" lon="-4.571772962808609">
        <ele>55.409999999999997</ele>
        <time>2018-07-06T11:06:38Z</time>
      </trkpt>
      <trkpt lat="48.412354001775384" lon="-4.571547992527485">
        <ele>55.890000000000001</ele>
        <time>2018-07-06T11:06:39Z</time>
      </trkpt>
      <trkpt lat="48.412587018683553" lon="-4.569724006578326">
        <ele>63.100000000000001</ele>
        <time>2018-07-06T11:06:47Z</time>
      </trkpt>
      <trkpt lat="48.412708975374699" lon="-4.569287979975343">
        <ele>64.549999999999997</ele>
        <time>2018-07-06T11:06:49Z</time>
      </trkpt>
      <trkpt lat="48.412771001458168" lon="-4.56906502135098">
        <ele>65.989999999999995</ele>
        <time>2018-07-06T11:06:50Z</time>
      </trkpt>
      <trkpt lat="48.413067972287536" lon="-4.56762601621449">
        <ele>74.159999999999997</ele>
        <time>2018-07-06T11:06:57Z</time>
      </trkpt>
      <trkpt lat="48.413157993927598" lon="-4.566777013242245">
        <ele>78</ele>
        <time>2018-07-06T11:07:02Z</time>
      </trkpt>
      <trkpt lat="48.413153970614076" lon="-4.566598981618881">
        <ele>78.480000000000004</ele>
        <time>2018-07-06T11:07:03Z</time>
      </trkpt>
      <trkpt lat="48.413149025291204" lon="-4.566416004672647">
        <ele>78.969999999999999</ele>
        <time>2018-07-06T11:07:04Z</time>
      </trkpt>
      <trkpt lat="48.413145001977682" lon="-4.566225986927748">
        <ele>79.450000000000003</ele>
        <time>2018-07-06T11:07:05Z</time>
      </trkpt>
      <trkpt lat="48.413128992542624" lon="-4.566035969182849">
        <ele>79.930000000000007</ele>
        <time>2018-07-06T11:07:06Z</time>
      </trkpt>
      <trkpt lat="48.413079036399722" lon="-4.565485026687384">
        <ele>79.930000000000007</ele>
        <time>2018-07-06T11:07:09Z</time>
      </trkpt>
      <trkpt lat="48.41303201392293" lon="-4.565287968143821">
        <ele>79.930000000000007</ele>
        <time>2018-07-06T11:07:10Z</time>
      </trkpt>
      <trkpt lat="48.412542007863522" lon="-4.563605971634388">
        <ele>80.409999999999997</ele>
        <time>2018-07-06T11:07:18Z</time>
      </trkpt>
      <trkpt lat="48.41204697266221" lon="-4.562261011451483">
        <ele>79.450000000000003</ele>
        <time>2018-07-06T11:07:26Z</time>
      </trkpt>
      <trkpt lat="48.41200296767056" lon="-4.562092032283545">
        <ele>78.969999999999999</ele>
        <time>2018-07-06T11:07:27Z</time>
      </trkpt>
      <trkpt lat="48.41172200627625" lon="-4.560943963006139">
        <ele>77.519999999999996</ele>
        <time>2018-07-06T11:07:35Z</time>
      </trkpt>
      <trkpt lat="48.411707002669573" lon="-4.560701977461577">
        <ele>76.560000000000002</ele>
        <time>2018-07-06T11:07:42Z</time>
      </trkpt>
      <trkpt lat="48.411705996841192" lon="-4.560678005218506">
        <ele>76.560000000000002</ele>
        <time>2018-07-06T11:07:43Z</time>
      </trkpt>
      <trkpt lat="48.411731980741024" lon="-4.560659984126687">
        <ele>76.560000000000002</ele>
        <time>2018-07-06T11:07:44Z</time>
      </trkpt>
      <trkpt lat="48.411834994331002" lon="-4.560463009402156">
        <ele>76.560000000000002</ele>
        <time>2018-07-06T11:07:46Z</time>
      </trkpt>
      <trkpt lat="48.411838011816144" lon="-4.560444988310337">
        <ele>77.040000000000006</ele>
        <time>2018-07-06T11:07:47Z</time>
      </trkpt>
      <trkpt lat="48.411834994331002" lon="-4.560463009402156">
        <ele>77.040000000000006</ele>
        <time>2018-07-06T11:07:48Z</time>
      </trkpt>
      <trkpt lat="48.411774979904294" lon="-4.560204008594155">
        <ele>77.519999999999996</ele>
        <time>2018-07-06T11:07:49Z</time>
      </trkpt>
      <trkpt lat="48.411713959649205" lon="-4.560108035802841">
        <ele>77.519999999999996</ele>
        <time>2018-07-06T11:07:50Z</time>
      </trkpt>
      <trkpt lat="48.411645982414484" lon="-4.55999898724258">
        <ele>77.519999999999996</ele>
        <time>2018-07-06T11:07:51Z</time>
      </trkpt>
      <trkpt lat="48.411568030714989" lon="-4.559874013066292">
        <ele>77.519999999999996</ele>
        <time>2018-07-06T11:07:52Z</time>
      </trkpt>
      <trkpt lat="48.411502987146378" lon="-4.55972196534276">
        <ele>77.040000000000006</ele>
        <time>2018-07-06T11:07:53Z</time>
      </trkpt>
      <trkpt lat="48.411444984376431" lon="-4.559538988396525">
        <ele>76.560000000000002</ele>
        <time>2018-07-06T11:07:54Z</time>
      </trkpt>
      <trkpt lat="48.411381030455232" lon="-4.559338996186853">
        <ele>76.560000000000002</ele>
        <time>2018-07-06T11:07:55Z</time>
      </trkpt>
      <trkpt lat="48.411324033513665" lon="-4.5591189712286">
        <ele>76.079999999999998</ele>
        <time>2018-07-06T11:07:56Z</time>
      </trkpt>
      <trkpt lat="48.410813994705677" lon="-4.556942023336887">
        <ele>73.200000000000003</ele>
        <time>2018-07-06T11:08:04Z</time>
      </trkpt>
      <trkpt lat="48.410593969747424" lon="-4.555455995723605">
        <ele>73.680000000000007</ele>
        <time>2018-07-06T11:08:10Z</time>
      </trkpt>
      <trkpt lat="48.410489028319716" lon="-4.554903041571379">
        <ele>73.680000000000007</ele>
        <time>2018-07-06T11:08:13Z</time>
      </trkpt>
      <trkpt lat="48.409934984520078" lon="-4.553262032568455">
        <ele>71.760000000000005</ele>
        <time>2018-07-06T11:08:23Z</time>
      </trkpt>
      <trkpt lat="48.409848986193538" lon="-4.553114008158445">
        <ele>71.760000000000005</ele>
        <time>2018-07-06T11:08:24Z</time>
      </trkpt>
      <trkpt lat="48.409743960946798" lon="-4.55301602371037">
        <ele>70.790000000000006</ele>
        <time>2018-07-06T11:08:25Z</time>
      </trkpt>
      <trkpt lat="48.409639019519091" lon="-4.552918961271644">
        <ele>70.310000000000002</ele>
        <time>2018-07-06T11:08:26Z</time>
      </trkpt>
      <trkpt lat="48.40953097678721" lon="-4.552831035107374">
        <ele>69.829999999999998</ele>
        <time>2018-07-06T11:08:27Z</time>
      </trkpt>
      <trkpt lat="48.409413965418935" lon="-4.552773032337427">
        <ele>69.349999999999994</ele>
        <time>2018-07-06T11:08:28Z</time>
      </trkpt>
      <trkpt lat="48.409296032041311" lon="-4.55273799598217">
        <ele>68.870000000000005</ele>
        <time>2018-07-06T11:08:29Z</time>
      </trkpt>
      <trkpt lat="48.409173991531134" lon="-4.552707988768816">
        <ele>68.390000000000001</ele>
        <time>2018-07-06T11:08:30Z</time>
      </trkpt>
      <trkpt lat="48.409052034839988" lon="-4.552677981555462">
        <ele>67.430000000000007</ele>
        <time>2018-07-06T11:08:31Z</time>
      </trkpt>
      <trkpt lat="48.408932005986571" lon="-4.552648980170488">
        <ele>66.469999999999999</ele>
        <time>2018-07-06T11:08:32Z</time>
      </trkpt>
      <trkpt lat="48.408808959648013" lon="-4.552618972957134">
        <ele>65.510000000000005</ele>
        <time>2018-07-06T11:08:33Z</time>
      </trkpt>
      <trkpt lat="48.408682979643345" lon="-4.5525879599154">
        <ele>64.069999999999993</ele>
        <time>2018-07-06T11:08:34Z</time>
      </trkpt>
      <trkpt lat="48.407720988616347" lon="-4.552239021286368">
        <ele>55.890000000000001</ele>
        <time>2018-07-06T11:08:42Z</time>
      </trkpt>
      <trkpt lat="48.407498029991984" lon="-4.552073981612921">
        <ele>54.450000000000003</ele>
        <time>2018-07-06T11:08:44Z</time>
      </trkpt>
      <trkpt lat="48.407387975603342" lon="-4.551992006599903">
        <ele>53.969999999999999</ele>
        <time>2018-07-06T11:08:45Z</time>
      </trkpt>
      <trkpt lat="48.40695102699101" lon="-4.551704004406929">
        <ele>50.609999999999999</ele>
        <time>2018-07-06T11:08:49Z</time>
      </trkpt>
      <trkpt lat="48.406828986480832" lon="-4.551692018285394">
        <ele>49.649999999999999</ele>
        <time>2018-07-06T11:08:50Z</time>
      </trkpt>
      <trkpt lat="48.406707029789686" lon="-4.551681037992239">
        <ele>49.159999999999997</ele>
        <time>2018-07-06T11:08:51Z</time>
      </trkpt>
      <trkpt lat="48.40549299493432" lon="-4.551465036347508">
        <ele>41.950000000000003</ele>
        <time>2018-07-06T11:09:01Z</time>
      </trkpt>
      <trkpt lat="48.405265007168055" lon="-4.551307037472725">
        <ele>40.509999999999998</ele>
        <time>2018-07-06T11:09:03Z</time>
      </trkpt>
      <trkpt lat="48.405184037983418" lon="-4.551191031932831">
        <ele>39.549999999999997</ele>
        <time>2018-07-06T11:09:04Z</time>
      </trkpt>
      <trkpt lat="48.405116982758045" lon="-4.551048958674073">
        <ele>39.07</ele>
        <time>2018-07-06T11:09:05Z</time>
      </trkpt>
      <trkpt lat="48.405032996088266" lon="-4.550872016698122">
        <ele>38.590000000000003</ele>
        <time>2018-07-06T11:09:06Z</time>
      </trkpt>
      <trkpt lat="48.405008018016815" lon="-4.550736984238029">
        <ele>37.630000000000003</ele>
        <time>2018-07-06T11:09:07Z</time>
      </trkpt>
      <trkpt lat="48.404974993318319" lon="-4.550559958443046">
        <ele>36.670000000000002</ele>
        <time>2018-07-06T11:09:08Z</time>
      </trkpt>
      <trkpt lat="48.404712975025177" lon="-4.54876396805048">
        <ele>29.940000000000001</ele>
        <time>2018-07-06T11:09:18Z</time>
      </trkpt>
      <trkpt lat="48.404726972803473" lon="-4.548586020246148">
        <ele>29.460000000000001</ele>
        <time>2018-07-06T11:09:19Z</time>
      </trkpt>
      <trkpt lat="48.404755974188447" lon="-4.548413017764688">
        <ele>28.98</ele>
        <time>2018-07-06T11:09:20Z</time>
      </trkpt>
      <trkpt lat="48.404840966686606" lon="-4.548068018630147">
        <ele>28.02</ele>
        <time>2018-07-06T11:09:22Z</time>
      </trkpt>
      <trkpt lat="48.405011035501957" lon="-4.547373997047544">
        <ele>25.609999999999999</ele>
        <time>2018-07-06T11:09:26Z</time>
      </trkpt>
      <trkpt lat="48.405021009966731" lon="-4.547190014272928">
        <ele>25.129999999999999</ele>
        <time>2018-07-06T11:09:27Z</time>
      </trkpt>
      <trkpt lat="48.405029978603125" lon="-4.547008965164423">
        <ele>24.649999999999999</ele>
        <time>2018-07-06T11:09:28Z</time>
      </trkpt>
      <trkpt lat="48.405013969168067" lon="-4.546835040673614">
        <ele>24.170000000000002</ele>
        <time>2018-07-06T11:09:29Z</time>
      </trkpt>
      <trkpt lat="48.404983961954713" lon="-4.546654997393489">
        <ele>23.690000000000001</ele>
        <time>2018-07-06T11:09:30Z</time>
      </trkpt>
      <trkpt lat="48.404906010255218" lon="-4.546516025438905">
        <ele>23.210000000000001</ele>
        <time>2018-07-06T11:09:31Z</time>
      </trkpt>
      <trkpt lat="48.404825963079929" lon="-4.546371018514037">
        <ele>22.25</ele>
        <time>2018-07-06T11:09:32Z</time>
      </trkpt>
      <trkpt lat="48.404742982238531" lon="-4.546235986053944">
        <ele>21.77</ele>
        <time>2018-07-06T11:09:33Z</time>
      </trkpt>
      <trkpt lat="48.404653966426849" lon="-4.546115035191178">
        <ele>21.289999999999999</ele>
        <time>2018-07-06T11:09:34Z</time>
      </trkpt>
      <trkpt lat="48.404479958117008" lon="-4.545879000797868">
        <ele>20.32</ele>
        <time>2018-07-06T11:09:36Z</time>
      </trkpt>
      <trkpt lat="48.404365964233875" lon="-4.545800965279341">
        <ele>19.359999999999999</ele>
        <time>2018-07-06T11:09:37Z</time>
      </trkpt>
      <trkpt lat="48.404253982007504" lon="-4.545727036893368">
        <ele>18.879999999999999</ele>
        <time>2018-07-06T11:09:38Z</time>
      </trkpt>
      <trkpt lat="48.403666997328401" lon="-4.545381031930447">
        <ele>17.440000000000001</ele>
        <time>2018-07-06T11:09:45Z</time>
      </trkpt>
      <trkpt lat="48.403184032067657" lon="-4.545245999470353">
        <ele>16.960000000000001</ele>
        <time>2018-07-06T11:09:52Z</time>
      </trkpt>
      <trkpt lat="48.403117982670665" lon="-4.545201994478703">
        <ele>16.960000000000001</ele>
        <time>2018-07-06T11:09:53Z</time>
      </trkpt>
      <trkpt lat="48.403051011264324" lon="-4.545135023072362">
        <ele>16.960000000000001</ele>
        <time>2018-07-06T11:09:54Z</time>
      </trkpt>
      <trkpt lat="48.402972975745797" lon="-4.545056987553835">
        <ele>16.48</ele>
        <time>2018-07-06T11:09:55Z</time>
      </trkpt>
      <trkpt lat="48.402912961319089" lon="-4.544977024197578">
        <ele>16.48</ele>
        <time>2018-07-06T11:09:56Z</time>
      </trkpt>
      <trkpt lat="48.402843978255987" lon="-4.544885996729136">
        <ele>16.48</ele>
        <time>2018-07-06T11:09:57Z</time>
      </trkpt>
      <trkpt lat="48.402780024334788" lon="-4.544798992574215">
        <ele>16.48</ele>
        <time>2018-07-06T11:09:58Z</time>
      </trkpt>
      <trkpt lat="48.4027190040797" lon="-4.544684998691082">
        <ele>16.48</ele>
        <time>2018-07-06T11:09:59Z</time>
      </trkpt>
      <trkpt lat="48.402608027681708" lon="-4.544477965682745">
        <ele>16.48</ele>
        <time>2018-07-06T11:10:01Z</time>
      </trkpt>
      <trkpt lat="48.402561005204916" lon="-4.544350979849696">
        <ele>16.48</ele>
        <time>2018-07-06T11:10:02Z</time>
      </trkpt>
      <trkpt lat="48.402064964175224" lon="-4.542951034381986">
        <ele>20.32</ele>
        <time>2018-07-06T11:10:14Z</time>
      </trkpt>
      <trkpt lat="48.401694986969233" lon="-4.542042016983032">
        <ele>23.690000000000001</ele>
        <time>2018-07-06T11:10:20Z</time>
      </trkpt>
      <trkpt lat="48.401460964232683" lon="-4.541629962623119">
        <ele>25.129999999999999</ele>
        <time>2018-07-06T11:10:23Z</time>
      </trkpt>
      <trkpt lat="48.401373960077763" lon="-4.541499959304929">
        <ele>25.609999999999999</ele>
        <time>2018-07-06T11:10:24Z</time>
      </trkpt>
      <trkpt lat="48.401282010599971" lon="-4.541392000392079">
        <ele>26.57</ele>
        <time>2018-07-06T11:10:25Z</time>
      </trkpt>
      <trkpt lat="48.401180002838373" lon="-4.541289992630482">
        <ele>27.050000000000001</ele>
        <time>2018-07-06T11:10:26Z</time>
      </trkpt>
      <trkpt lat="48.401079000905156" lon="-4.541189996525645">
        <ele>28.02</ele>
        <time>2018-07-06T11:10:27Z</time>
      </trkpt>
      <trkpt lat="48.400970958173275" lon="-4.541111961007118">
        <ele>28.98</ele>
        <time>2018-07-06T11:10:28Z</time>
      </trkpt>
      <trkpt lat="48.40052998624742" lon="-4.540768973529339">
        <ele>31.379999999999999</ele>
        <time>2018-07-06T11:10:33Z</time>
      </trkpt>
      <trkpt lat="48.400454968214035" lon="-4.540693033486605">
        <ele>31.859999999999999</ele>
        <time>2018-07-06T11:10:34Z</time>
      </trkpt>
      <trkpt lat="48.399994969367981" lon="-4.540220964699984">
        <ele>33.780000000000001</ele>
        <time>2018-07-06T11:10:40Z</time>
      </trkpt>
      <trkpt lat="48.39990796521306" lon="-4.540176959708333">
        <ele>33.780000000000001</ele>
        <time>2018-07-06T11:10:41Z</time>
      </trkpt>
      <trkpt lat="48.399382000789046" lon="-4.539967998862267">
        <ele>33.780000000000001</ele>
        <time>2018-07-06T11:10:47Z</time>
      </trkpt>
      <trkpt lat="48.398436019197106" lon="-4.539495008066297">
        <ele>35.710000000000001</ele>
        <time>2018-07-06T11:10:58Z</time>
      </trkpt>
      <trkpt lat="48.398277014493942" lon="-4.539431976154447">
        <ele>36.189999999999998</ele>
        <time>2018-07-06T11:11:00Z</time>
      </trkpt>
      <trkpt lat="48.398197973147035" lon="-4.539408003911376">
        <ele>36.189999999999998</ele>
        <time>2018-07-06T11:11:01Z</time>
      </trkpt>
      <trkpt lat="48.398120021447539" lon="-4.539389982819557">
        <ele>36.670000000000002</ele>
        <time>2018-07-06T11:11:02Z</time>
      </trkpt>
      <trkpt lat="48.39788599871099" lon="-4.539369028061628">
        <ele>37.630000000000003</ele>
        <time>2018-07-06T11:11:05Z</time>
      </trkpt>
      <trkpt lat="48.397810980677605" lon="-4.539361987262964">
        <ele>38.109999999999999</ele>
        <time>2018-07-06T11:11:06Z</time>
      </trkpt>
      <trkpt lat="48.397731017321348" lon="-4.539355030283332">
        <ele>38.590000000000003</ele>
        <time>2018-07-06T11:11:07Z</time>
      </trkpt>
      <trkpt lat="48.39679098688066" lon="-4.53928797505796">
        <ele>40.990000000000002</ele>
        <time>2018-07-06T11:11:16Z</time>
      </trkpt>
      <trkpt lat="48.396554030478001" lon="-4.539241036400199">
        <ele>40.990000000000002</ele>
        <time>2018-07-06T11:11:18Z</time>
      </trkpt>
      <trkpt lat="48.395615005865693" lon="-4.538957979530096">
        <ele>43.880000000000003</ele>
        <time>2018-07-06T11:11:27Z</time>
      </trkpt>
      <trkpt lat="48.395539987832308" lon="-4.538941970095038">
        <ele>44.359999999999999</ele>
        <time>2018-07-06T11:11:28Z</time>
      </trkpt>
      <trkpt lat="48.395472010597587" lon="-4.538926966488361">
        <ele>44.840000000000003</ele>
        <time>2018-07-06T11:11:29Z</time>
      </trkpt>
      <trkpt lat="48.395397998392582" lon="-4.539026962593198">
        <ele>45.32</ele>
        <time>2018-07-06T11:11:30Z</time>
      </trkpt>
      <trkpt lat="48.3953280095011" lon="-4.539048001170158">
        <ele>45.799999999999997</ele>
        <time>2018-07-06T11:11:31Z</time>
      </trkpt>
      <trkpt lat="48.395249973982573" lon="-4.539071973413229">
        <ele>46.280000000000001</ele>
        <time>2018-07-06T11:11:32Z</time>
      </trkpt>
      <trkpt lat="48.395172022283077" lon="-4.539084965363145">
        <ele>46.759999999999998</ele>
        <time>2018-07-06T11:11:33Z</time>
      </trkpt>
      <trkpt lat="48.395102033391595" lon="-4.539045989513397">
        <ele>46.759999999999998</ele>
        <time>2018-07-06T11:11:34Z</time>
      </trkpt>
      <trkpt lat="48.395025003701448" lon="-4.539003996178508">
        <ele>46.759999999999998</ele>
        <time>2018-07-06T11:11:35Z</time>
      </trkpt>
      <trkpt lat="48.394947974011302" lon="-4.538920009508729">
        <ele>47.240000000000002</ele>
        <time>2018-07-06T11:11:36Z</time>
      </trkpt>
      <trkpt lat="48.394868010655046" lon="-4.538880027830601">
        <ele>47.240000000000002</ele>
        <time>2018-07-06T11:11:37Z</time>
      </trkpt>
      <trkpt lat="48.394773965701461" lon="-4.538864018395543">
        <ele>47.719999999999999</ele>
        <time>2018-07-06T11:11:38Z</time>
      </trkpt>
      <trkpt lat="48.394674975425005" lon="-4.538882961496711">
        <ele>47.719999999999999</ele>
        <time>2018-07-06T11:11:39Z</time>
      </trkpt>
      <trkpt lat="48.394567016512156" lon="-4.538902994245291">
        <ele>48.200000000000003</ele>
        <time>2018-07-06T11:11:40Z</time>
      </trkpt>
      <trkpt lat="48.394432989880443" lon="-4.538920009508729">
        <ele>48.68</ele>
        <time>2018-07-06T11:11:41Z</time>
      </trkpt>
      <trkpt lat="48.393291961401701" lon="-4.539355030283332">
        <ele>51.57</ele>
        <time>2018-07-06T11:11:50Z</time>
      </trkpt>
      <trkpt lat="48.393161036074162" lon="-4.539387971162796">
        <ele>52.049999999999997</ele>
        <time>2018-07-06T11:11:51Z</time>
      </trkpt>
      <trkpt lat="48.393038995563984" lon="-4.539379002526403">
        <ele>52.530000000000001</ele>
        <time>2018-07-06T11:11:52Z</time>
      </trkpt>
      <trkpt lat="48.39195798151195" lon="-4.539035009220243">
        <ele>55.890000000000001</ele>
        <time>2018-07-06T11:12:01Z</time>
      </trkpt>
      <trkpt lat="48.391011999920011" lon="-4.538197992369533">
        <ele>58.780000000000001</ele>
        <time>2018-07-06T11:12:10Z</time>
      </trkpt>
      <trkpt lat="48.390745036303997" lon="-4.537771018221974">
        <ele>60.219999999999999</ele>
        <time>2018-07-06T11:12:14Z</time>
      </trkpt>
      <trkpt lat="48.390613021329045" lon="-4.53774000518024">
        <ele>60.219999999999999</ele>
        <time>2018-07-06T11:12:15Z</time>
      </trkpt>
      <trkpt lat="48.390599023550749" lon="-4.537725001573563">
        <ele>60.700000000000003</ele>
        <time>2018-07-06T11:12:16Z</time>
      </trkpt>
      <trkpt lat="48.390544960275292" lon="-4.537672027945519">
        <ele>60.700000000000003</ele>
        <time>2018-07-06T11:12:17Z</time>
      </trkpt>
      <trkpt lat="48.390514031052589" lon="-4.537559961900115">
        <ele>61.18</ele>
        <time>2018-07-06T11:12:18Z</time>
      </trkpt>
      <trkpt lat="48.390505984425545" lon="-4.537503970786929">
        <ele>61.659999999999997</ele>
        <time>2018-07-06T11:12:19Z</time>
      </trkpt>
      <trkpt lat="48.390552001073956" lon="-4.537319988012314">
        <ele>62.140000000000001</ele>
        <time>2018-07-06T11:12:20Z</time>
      </trkpt>
      <trkpt lat="48.390520988032222" lon="-4.537191996350884">
        <ele>62.140000000000001</ele>
        <time>2018-07-06T11:12:21Z</time>
      </trkpt>
      <trkpt lat="48.390487041324377" lon="-4.537050006911159">
        <ele>62.140000000000001</ele>
        <time>2018-07-06T11:12:22Z</time>
      </trkpt>
      <trkpt lat="48.390449993312359" lon="-4.536897037178278">
        <ele>62.619999999999997</ele>
        <time>2018-07-06T11:12:23Z</time>
      </trkpt>
      <trkpt lat="48.390313033014536" lon="-4.53632396645844">
        <ele>63.579999999999998</ele>
        <time>2018-07-06T11:12:26Z</time>
      </trkpt>
      <trkpt lat="48.390219993889332" lon="-4.534815978258848">
        <ele>63.100000000000001</ele>
        <time>2018-07-06T11:12:34Z</time>
      </trkpt>
      <trkpt lat="48.389911958947778" lon="-4.533241018652916">
        <ele>66.950000000000003</ele>
        <time>2018-07-06T11:12:43Z</time>
      </trkpt>
      <trkpt lat="48.389151971787214" lon="-4.531958000734448">
        <ele>73.200000000000003</ele>
        <time>2018-07-06T11:12:52Z</time>
      </trkpt>
      <trkpt lat="48.38787398301065" lon="-4.530708007514477">
        <ele>81.370000000000005</ele>
        <time>2018-07-06T11:13:04Z</time>
      </trkpt>
      <trkpt lat="48.387236036360264" lon="-4.529622970148921">
        <ele>87.140000000000001</ele>
        <time>2018-07-06T11:13:12Z</time>
      </trkpt>
      <trkpt lat="48.387222960591316" lon="-4.529481986537576">
        <ele>87.620000000000005</ele>
        <time>2018-07-06T11:13:13Z</time>
      </trkpt>
      <trkpt lat="48.387210974469781" lon="-4.529351983219385">
        <ele>88.099999999999994</ele>
        <time>2018-07-06T11:13:14Z</time>
      </trkpt>
      <trkpt lat="48.387201000005007" lon="-4.529243018478155">
        <ele>88.579999999999998</ele>
        <time>2018-07-06T11:13:15Z</time>
      </trkpt>
      <trkpt lat="48.387221032753587" lon="-4.529137993231416">
        <ele>89.060000000000002</ele>
        <time>2018-07-06T11:13:16Z</time>
      </trkpt>
      <trkpt lat="48.387238970026374" lon="-4.529043026268482">
        <ele>89.060000000000002</ele>
        <time>2018-07-06T11:13:17Z</time>
      </trkpt>
      <trkpt lat="48.38727199472487" lon="-4.528871029615402">
        <ele>89.540000000000006</ele>
        <time>2018-07-06T11:13:19Z</time>
      </trkpt>
      <trkpt lat="48.387284986674786" lon="-4.52880104072392">
        <ele>90.019999999999996</ele>
        <time>2018-07-06T11:13:20Z</time>
      </trkpt>
      <trkpt lat="48.387188008055091" lon="-4.528712024912238">
        <ele>90.019999999999996</ele>
        <time>2018-07-06T11:13:21Z</time>
      </trkpt>
      <trkpt lat="48.387136040255427" lon="-4.528686041012406">
        <ele>90.5</ele>
        <time>2018-07-06T11:13:22Z</time>
      </trkpt>
      <trkpt lat="48.387073008343577" lon="-4.528656033799052">
        <ele>90.5</ele>
        <time>2018-07-06T11:13:23Z</time>
      </trkpt>
      <trkpt lat="48.387006036937237" lon="-4.528625020757318">
        <ele>90.980000000000004</ele>
        <time>2018-07-06T11:13:24Z</time>
      </trkpt>
      <trkpt lat="48.38665097951889" lon="-4.528487976640463">
        <ele>92.900000000000006</ele>
        <time>2018-07-06T11:13:30Z</time>
      </trkpt>
      <trkpt lat="48.386594988405704" lon="-4.528473978862166">
        <ele>93.390000000000001</ele>
        <time>2018-07-06T11:13:31Z</time>
      </trkpt>
      <trkpt lat="48.385712038725615" lon="-4.528283039107919">
        <ele>95.790000000000006</ele>
        <time>2018-07-06T11:13:44Z</time>
      </trkpt>
      <trkpt lat="48.385342983528972" lon="-4.528254037722945">
        <ele>96.269999999999996</ele>
        <time>2018-07-06T11:13:50Z</time>
      </trkpt>
      <trkpt lat="48.385321022942662" lon="-4.528164016082883">
        <ele>96.269999999999996</ele>
        <time>2018-07-06T11:13:51Z</time>
      </trkpt>
      <trkpt lat="48.385326974093914" lon="-4.528112970292568">
        <ele>96.269999999999996</ele>
        <time>2018-07-06T11:13:52Z</time>
      </trkpt>
      <trkpt lat="48.385332003235817" lon="-4.528064019978046">
        <ele>96.269999999999996</ele>
        <time>2018-07-06T11:13:53Z</time>
      </trkpt>
      <trkpt lat="48.385376008227468" lon="-4.528026971966028">
        <ele>96.269999999999996</ele>
        <time>2018-07-06T11:13:54Z</time>
      </trkpt>
      <trkpt lat="48.385398974642158" lon="-4.528019009158015">
        <ele>96.75</ele>
        <time>2018-07-06T11:13:55Z</time>
      </trkpt>
      <trkpt lat="48.38546703569591" lon="-4.528126968070865">
        <ele>96.75</ele>
        <time>2018-07-06T11:13:56Z</time>
      </trkpt>
      <trkpt lat="48.385525960475206" lon="-4.528137026354671">
        <ele>97.230000000000004</ele>
        <time>2018-07-06T11:13:57Z</time>
      </trkpt>
      <trkpt lat="48.385593015700579" lon="-4.528148006647825">
        <ele>97.230000000000004</ele>
        <time>2018-07-06T11:13:58Z</time>
      </trkpt>
      <trkpt lat="48.385667027905583" lon="-4.52815898694098">
        <ele>97.230000000000004</ele>
        <time>2018-07-06T11:13:59Z</time>
      </trkpt>
      <trkpt lat="48.385827038437128" lon="-4.528184970840812">
        <ele>98.189999999999998</ele>
        <time>2018-07-06T11:14:01Z</time>
      </trkpt>
      <trkpt lat="48.385902978479862" lon="-4.528197040781379">
        <ele>98.189999999999998</ele>
        <time>2018-07-06T11:14:02Z</time>
      </trkpt>
      <trkpt lat="48.386437995359302" lon="-4.528294019401074">
        <ele>99.150000000000006</ele>
        <time>2018-07-06T11:14:11Z</time>
      </trkpt>
      <trkpt lat="48.386437995359302" lon="-4.528294019401074">
        <ele>99.629999999999995</ele>
        <time>2018-07-06T11:14:21Z</time>
      </trkpt>
      <trkpt lat="48.386437995359302" lon="-4.528294019401074">
        <ele>100.11</ele>
        <time>2018-07-06T11:15:11Z</time>
      </trkpt>
      <trkpt lat="48.38667101226747" lon="-4.528186982497573">
        <ele>100.59999999999999</ele>
        <time>2018-07-06T11:15:16Z</time>
      </trkpt>
      <trkpt lat="48.386681992560625" lon="-4.528123028576374">
        <ele>101.08</ele>
        <time>2018-07-06T11:15:17Z</time>
      </trkpt>
      <trkpt lat="48.386695990338922" lon="-4.528043987229466">
        <ele>101.08</ele>
        <time>2018-07-06T11:15:18Z</time>
      </trkpt>
      <trkpt lat="48.386711999773979" lon="-4.527947008609772">
        <ele>101.08</ele>
        <time>2018-07-06T11:15:19Z</time>
      </trkpt>
      <trkpt lat="48.386724991723895" lon="-4.527842989191413">
        <ele>101.56</ele>
        <time>2018-07-06T11:15:20Z</time>
      </trkpt>
      <trkpt lat="48.386754998937249" lon="-4.527607038617134">
        <ele>101.56</ele>
        <time>2018-07-06T11:15:22Z</time>
      </trkpt>
      <trkpt lat="48.386900005862117" lon="-4.526570029556751">
        <ele>101.56</ele>
        <time>2018-07-06T11:15:32Z</time>
      </trkpt>
      <trkpt lat="48.387075020000339" lon="-4.525338979437947">
        <ele>101.08</ele>
        <time>2018-07-06T11:15:43Z</time>
      </trkpt>
      <trkpt lat="48.38723000138998" lon="-4.524232987314463">
        <ele>98.670000000000002</ele>
        <time>2018-07-06T11:15:54Z</time>
      </trkpt>
      <trkpt lat="48.387246010825038" lon="-4.524128967896104">
        <ele>98.670000000000002</ele>
        <time>2018-07-06T11:15:55Z</time>
      </trkpt>
      <trkpt lat="48.387321028858423" lon="-4.523617001250386">
        <ele>97.709999999999994</ele>
        <time>2018-07-06T11:16:00Z</time>
      </trkpt>
      <trkpt lat="48.3873360324651" lon="-4.523513987660408">
        <ele>97.230000000000004</ele>
        <time>2018-07-06T11:16:01Z</time>
      </trkpt>
      <trkpt lat="48.387415995821357" lon="-4.522890960797668">
        <ele>96.269999999999996</ele>
        <time>2018-07-06T11:16:07Z</time>
      </trkpt>
      <trkpt lat="48.387415995821357" lon="-4.522789958864451">
        <ele>96.269999999999996</ele>
        <time>2018-07-06T11:16:08Z</time>
      </trkpt>
      <trkpt lat="48.387415995821357" lon="-4.522689962759614">
        <ele>96.269999999999996</ele>
        <time>2018-07-06T11:16:09Z</time>
      </trkpt>
      <trkpt lat="48.387408033013344" lon="-4.522568006068468">
        <ele>95.790000000000006</ele>
        <time>2018-07-06T11:16:10Z</time>
      </trkpt>
      <trkpt lat="48.387390011921525" lon="-4.52246499247849">
        <ele>95.790000000000006</ele>
        <time>2018-07-06T11:16:11Z</time>
      </trkpt>
      <trkpt lat="48.387151965871453" lon="-4.521456984803081">
        <ele>90.980000000000004</ele>
        <time>2018-07-06T11:16:21Z</time>
      </trkpt>
      <trkpt lat="48.386834040284157" lon="-4.520276980474591">
        <ele>89.060000000000002</ele>
        <time>2018-07-06T11:16:33Z</time>
      </trkpt>
      <trkpt lat="48.386720968410373" lon="-4.519545994699001">
        <ele>88.579999999999998</ele>
        <time>2018-07-06T11:16:40Z</time>
      </trkpt>
      <trkpt lat="48.386719040572643" lon="-4.519439963623881">
        <ele>89.060000000000002</ele>
        <time>2018-07-06T11:16:41Z</time>
      </trkpt>
      <trkpt lat="48.386710993945599" lon="-4.519107034429908">
        <ele>88.579999999999998</ele>
        <time>2018-07-06T11:16:48Z</time>
      </trkpt>
      <trkpt lat="48.386710993945599" lon="-4.519099993631244">
        <ele>88.579999999999998</ele>
        <time>2018-07-06T11:16:49Z</time>
      </trkpt>
      <trkpt lat="48.386709988117218" lon="-4.519075015559793">
        <ele>88.579999999999998</ele>
        <time>2018-07-06T11:16:50Z</time>
      </trkpt>
      <trkpt lat="48.386708982288837" lon="-4.519036961719394">
        <ele>88.579999999999998</ele>
        <time>2018-07-06T11:16:51Z</time>
      </trkpt>
      <trkpt lat="48.386689033359289" lon="-4.518829006701708">
        <ele>89.060000000000002</ele>
        <time>2018-07-06T11:16:54Z</time>
      </trkpt>
      <trkpt lat="48.386681992560625" lon="-4.518771003931761">
        <ele>88.579999999999998</ele>
        <time>2018-07-06T11:16:55Z</time>
      </trkpt>
      <trkpt lat="48.386676963418722" lon="-4.518732028082013">
        <ele>88.579999999999998</ele>
        <time>2018-07-06T11:16:56Z</time>
      </trkpt>
      <trkpt lat="48.386676963418722" lon="-4.518732028082013">
        <ele>88.579999999999998</ele>
        <time>2018-07-06T11:16:57Z</time>
      </trkpt>
      <trkpt lat="48.386676963418722" lon="-4.518732028082013">
        <ele>87.620000000000005</ele>
        <time>2018-07-06T11:16:59Z</time>
      </trkpt>
      <trkpt lat="48.386676963418722" lon="-4.518732028082013">
        <ele>86.659999999999997</ele>
        <time>2018-07-06T11:17:12Z</time>
      </trkpt>
      <trkpt lat="48.386679980903864" lon="-4.518753988668323">
        <ele>86.659999999999997</ele>
        <time>2018-07-06T11:18:02Z</time>
      </trkpt>
      <trkpt lat="48.386689033359289" lon="-4.518828000873327">
        <ele>84.25</ele>
        <time>2018-07-06T11:18:12Z</time>
      </trkpt>
      <trkpt lat="48.386684004217386" lon="-4.518788019195199">
        <ele>84.25</ele>
        <time>2018-07-06T11:18:13Z</time>
      </trkpt>
      <trkpt lat="48.386676041409373" lon="-4.518719958141446">
        <ele>83.769999999999996</ele>
        <time>2018-07-06T11:18:14Z</time>
      </trkpt>
      <trkpt lat="48.386663971468806" lon="-4.518622979521751">
        <ele>83.290000000000006</ele>
        <time>2018-07-06T11:18:15Z</time>
      </trkpt>
      <trkpt lat="48.38665097951889" lon="-4.518509991466999">
        <ele>82.810000000000002</ele>
        <time>2018-07-06T11:18:16Z</time>
      </trkpt>
      <trkpt lat="48.386639999225736" lon="-4.518384011462331">
        <ele>82.329999999999998</ele>
        <time>2018-07-06T11:18:17Z</time>
      </trkpt>
      <trkpt lat="48.386519970372319" lon="-4.516884991899133">
        <ele>79.930000000000007</ele>
        <time>2018-07-06T11:18:27Z</time>
      </trkpt>
      <trkpt lat="48.386422991752625" lon="-4.515803977847099">
        <ele>78.969999999999999</ele>
        <time>2018-07-06T11:18:36Z</time>
      </trkpt>
      <trkpt lat="48.386416034772992" lon="-4.515724014490843">
        <ele>78.969999999999999</ele>
        <time>2018-07-06T11:18:37Z</time>
      </trkpt>
      <trkpt lat="48.386409999802709" lon="-4.515648996457458">
        <ele>78.480000000000004</ele>
        <time>2018-07-06T11:18:38Z</time>
      </trkpt>
      <trkpt lat="48.386356020346284" lon="-4.515510024502873">
        <ele>78.480000000000004</ele>
        <time>2018-07-06T11:18:40Z</time>
      </trkpt>
      <trkpt lat="48.386346967890859" lon="-4.515435006469488">
        <ele>78.480000000000004</ele>
        <time>2018-07-06T11:18:41Z</time>
      </trkpt>
      <trkpt lat="48.38637001812458" lon="-4.51537499204278">
        <ele>78.480000000000004</ele>
        <time>2018-07-06T11:18:42Z</time>
      </trkpt>
      <trkpt lat="48.386393990367651" lon="-4.515310032293201">
        <ele>78.969999999999999</ele>
        <time>2018-07-06T11:18:43Z</time>
      </trkpt>
      <trkpt lat="48.386443024501204" lon="-4.515273990109563">
        <ele>78.969999999999999</ele>
        <time>2018-07-06T11:18:44Z</time>
      </trkpt>
      <trkpt lat="48.386490968987346" lon="-4.515273990109563">
        <ele>79.450000000000003</ele>
        <time>2018-07-06T11:18:45Z</time>
      </trkpt>
      <trkpt lat="48.386534973978996" lon="-4.515273990109563">
        <ele>79.930000000000007</ele>
        <time>2018-07-06T11:18:46Z</time>
      </trkpt>
      <trkpt lat="48.386570010334253" lon="-4.515341967344284">
        <ele>80.409999999999997</ele>
        <time>2018-07-06T11:18:47Z</time>
      </trkpt>
      <trkpt lat="48.386601023375988" lon="-4.515401981770992">
        <ele>80.409999999999997</ele>
        <time>2018-07-06T11:18:48Z</time>
      </trkpt>
      <trkpt lat="48.386601023375988" lon="-4.515401981770992">
        <ele>80.890000000000001</ele>
        <time>2018-07-06T11:18:49Z</time>
      </trkpt>
      <trkpt lat="48.386666988953948" lon="-4.515597028657794">
        <ele>80.890000000000001</ele>
        <time>2018-07-06T11:18:50Z</time>
      </trkpt>
      <trkpt lat="48.386716023087502" lon="-4.515633992850781">
        <ele>80.890000000000001</ele>
        <time>2018-07-06T11:18:51Z</time>
      </trkpt>
      <trkpt lat="48.386750975623727" lon="-4.515659976750612">
        <ele>80.890000000000001</ele>
        <time>2018-07-06T11:18:52Z</time>
      </trkpt>
      <trkpt lat="48.38681903667748" lon="-4.515624018386006">
        <ele>80.409999999999997</ele>
        <time>2018-07-06T11:18:53Z</time>
      </trkpt>
      <trkpt lat="48.386872010305524" lon="-4.515597028657794">
        <ele>79.930000000000007</ele>
        <time>2018-07-06T11:18:54Z</time>
      </trkpt>
      <trkpt lat="48.386935964226723" lon="-4.515564003959298">
        <ele>79.930000000000007</ele>
        <time>2018-07-06T11:18:55Z</time>
      </trkpt>
      <trkpt lat="48.387604001909494" lon="-4.515196960419416">
        <ele>77.040000000000006</ele>
        <time>2018-07-06T11:19:05Z</time>
      </trkpt>
      <trkpt lat="48.387841964140534" lon="-4.515055976808071">
        <ele>75.120000000000005</ele>
        <time>2018-07-06T11:19:13Z</time>
      </trkpt>
      <trkpt lat="48.387870965525508" lon="-4.515038961544633">
        <ele>74.640000000000001</ele>
        <time>2018-07-06T11:19:27Z</time>
      </trkpt>
      <trkpt lat="48.387914970517159" lon="-4.515024041756988">
        <ele>74.159999999999997</ele>
        <time>2018-07-06T11:19:28Z</time>
      </trkpt>
      <trkpt lat="48.387956041842699" lon="-4.515081038698554">
        <ele>73.680000000000007</ele>
        <time>2018-07-06T11:19:29Z</time>
      </trkpt>
      <trkpt lat="48.388200039044023" lon="-4.515431988984346">
        <ele>72.719999999999999</ele>
        <time>2018-07-06T11:19:38Z</time>
      </trkpt>
      <trkpt lat="48.388200039044023" lon="-4.515431988984346">
        <ele>72.719999999999999</ele>
        <time>2018-07-06T11:19:50Z</time>
      </trkpt>
      <trkpt lat="48.388200039044023" lon="-4.515431988984346">
        <ele>72.719999999999999</ele>
        <time>2018-07-06T11:19:51Z</time>
      </trkpt>
      <trkpt lat="48.388209007680416" lon="-4.515446992591023">
        <ele>72.719999999999999</ele>
        <time>2018-07-06T11:19:52Z</time>
      </trkpt>
      <trkpt lat="48.388157039880753" lon="-4.515367029234767">
        <ele>72.719999999999999</ele>
        <time>2018-07-06T11:19:55Z</time>
      </trkpt>
      <trkpt lat="48.387670973315835" lon="-4.514677030965686">
        <ele>72.719999999999999</ele>
        <time>2018-07-06T11:20:05Z</time>
      </trkpt>
      <trkpt lat="48.387505011633039" lon="-4.514440996572375">
        <ele>73.200000000000003</ele>
        <time>2018-07-06T11:20:08Z</time>
      </trkpt>
      <trkpt lat="48.38733796030283" lon="-4.514186019077897">
        <ele>74.159999999999997</ele>
        <time>2018-07-06T11:20:16Z</time>
      </trkpt>
      <trkpt lat="48.387179961428046" lon="-4.513943027704954">
        <ele>74.159999999999997</ele>
        <time>2018-07-06T11:20:28Z</time>
      </trkpt>
      <trkpt lat="48.387096980586648" lon="-4.513855017721653">
        <ele>73.680000000000007</ele>
        <time>2018-07-06T11:20:29Z</time>
      </trkpt>
      <trkpt lat="48.387033026665449" lon="-4.513786034658551">
        <ele>73.680000000000007</ele>
        <time>2018-07-06T11:20:30Z</time>
      </trkpt>
      <trkpt lat="48.386652991175652" lon="-4.513296028599143">
        <ele>73.200000000000003</ele>
        <time>2018-07-06T11:20:36Z</time>
      </trkpt>
      <trkpt lat="48.386549977585673" lon="-4.513146998360753">
        <ele>73.200000000000003</ele>
        <time>2018-07-06T11:20:38Z</time>
      </trkpt>
      <trkpt lat="48.38649800978601" lon="-4.513072986155748">
        <ele>73.200000000000003</ele>
        <time>2018-07-06T11:20:39Z</time>
      </trkpt>
      <trkpt lat="48.386445958167315" lon="-4.512997968122363">
        <ele>73.680000000000007</ele>
        <time>2018-07-06T11:20:40Z</time>
      </trkpt>
      <trkpt lat="48.386393990367651" lon="-4.51292403973639">
        <ele>73.200000000000003</ele>
        <time>2018-07-06T11:20:41Z</time>
      </trkpt>
      <trkpt lat="48.386341016739607" lon="-4.512848015874624">
        <ele>73.200000000000003</ele>
        <time>2018-07-06T11:20:42Z</time>
      </trkpt>
      <trkpt lat="48.386289970949292" lon="-4.512772997841239">
        <ele>73.200000000000003</ele>
        <time>2018-07-06T11:20:43Z</time>
      </trkpt>
      <trkpt lat="48.386242026463151" lon="-4.512705020606518">
        <ele>73.200000000000003</ele>
        <time>2018-07-06T11:20:44Z</time>
      </trkpt>
      <trkpt lat="48.386192992329597" lon="-4.512634025886655">
        <ele>73.200000000000003</ele>
        <time>2018-07-06T11:20:45Z</time>
      </trkpt>
      <trkpt lat="48.386205984279513" lon="-4.512548027560115">
        <ele>73.680000000000007</ele>
        <time>2018-07-06T11:20:46Z</time>
      </trkpt>
      <trkpt lat="48.386224005371332" lon="-4.512435961514711">
        <ele>73.680000000000007</ele>
        <time>2018-07-06T11:20:47Z</time>
      </trkpt>
      <trkpt lat="48.386242026463151" lon="-4.512318028137088">
        <ele>73.680000000000007</ele>
        <time>2018-07-06T11:20:48Z</time>
      </trkpt>
      <trkpt lat="48.386259963735938" lon="-4.512204034253955">
        <ele>73.680000000000007</ele>
        <time>2018-07-06T11:20:49Z</time>
      </trkpt>
      <trkpt lat="48.386343028396368" lon="-4.511784017086029">
        <ele>73.680000000000007</ele>
        <time>2018-07-06T11:20:53Z</time>
      </trkpt>
      <trkpt lat="48.386371023952961" lon="-4.511677986010909">
        <ele>73.680000000000007</ele>
        <time>2018-07-06T11:20:54Z</time>
      </trkpt>
      <trkpt lat="48.386406982317567" lon="-4.511540019884706">
        <ele>73.200000000000003</ele>
        <time>2018-07-06T11:20:55Z</time>
      </trkpt>
      <trkpt lat="48.386454004794359" lon="-4.511456033214927">
        <ele>73.200000000000003</ele>
        <time>2018-07-06T11:20:56Z</time>
      </trkpt>
      <trkpt lat="48.386507984250784" lon="-4.511359976604581">
        <ele>73.200000000000003</ele>
        <time>2018-07-06T11:20:57Z</time>
      </trkpt>
      <trkpt lat="48.386691967025399" lon="-4.510995028540492">
        <ele>72.239999999999995</ele>
        <time>2018-07-06T11:21:01Z</time>
      </trkpt>
      <trkpt lat="48.386707976460457" lon="-4.510960998013616">
        <ele>72.239999999999995</ele>
        <time>2018-07-06T11:21:02Z</time>
      </trkpt>
      <trkpt lat="48.386746030300856" lon="-4.510808028280735">
        <ele>71.760000000000005</ele>
        <time>2018-07-06T11:21:03Z</time>
      </trkpt>
      <trkpt lat="48.386771008372307" lon="-4.510707026347518">
        <ele>71.760000000000005</ele>
        <time>2018-07-06T11:21:04Z</time>
      </trkpt>
      <trkpt lat="48.386793974786997" lon="-4.510617004707456">
        <ele>71.760000000000005</ele>
        <time>2018-07-06T11:21:05Z</time>
      </trkpt>
      <trkpt lat="48.386796992272139" lon="-4.510507034137845">
        <ele>71.760000000000005</ele>
        <time>2018-07-06T11:21:06Z</time>
      </trkpt>
      <trkpt lat="48.386802021414042" lon="-4.510381976142526">
        <ele>71.760000000000005</ele>
        <time>2018-07-06T11:21:07Z</time>
      </trkpt>
      <trkpt lat="48.386805038899183" lon="-4.508998962119222">
        <ele>67.430000000000007</ele>
        <time>2018-07-06T11:21:18Z</time>
      </trkpt>
      <trkpt lat="48.386770002543926" lon="-4.508891003206372">
        <ele>66.469999999999999</ele>
        <time>2018-07-06T11:21:19Z</time>
      </trkpt>
      <trkpt lat="48.386665983125567" lon="-4.508566958829761">
        <ele>64.549999999999997</ele>
        <time>2018-07-06T11:21:22Z</time>
      </trkpt>
      <trkpt lat="48.386592976748943" lon="-4.508351963013411">
        <ele>62.619999999999997</ele>
        <time>2018-07-06T11:21:24Z</time>
      </trkpt>
      <trkpt lat="48.386536985635757" lon="-4.508268982172012">
        <ele>61.659999999999997</ele>
        <time>2018-07-06T11:21:25Z</time>
      </trkpt>
      <trkpt lat="48.386429026722908" lon="-4.508106959983707">
        <ele>59.740000000000002</ele>
        <time>2018-07-06T11:21:27Z</time>
      </trkpt>
      <trkpt lat="48.386356020346284" lon="-4.508040994405747">
        <ele>59.259999999999998</ele>
        <time>2018-07-06T11:21:28Z</time>
      </trkpt>
      <trkpt lat="48.386288965120912" lon="-4.507979974150658">
        <ele>58.299999999999997</ele>
        <time>2018-07-06T11:21:29Z</time>
      </trkpt>
      <trkpt lat="48.386085033416748" lon="-4.507793979719281">
        <ele>54.450000000000003</ele>
        <time>2018-07-06T11:21:32Z</time>
      </trkpt>
      <trkpt lat="48.386015966534615" lon="-4.507731031626463">
        <ele>53.490000000000002</ele>
        <time>2018-07-06T11:21:33Z</time>
      </trkpt>
      <trkpt lat="48.385946983471513" lon="-4.507667999714613">
        <ele>52.049999999999997</ele>
        <time>2018-07-06T11:21:34Z</time>
      </trkpt>
      <trkpt lat="48.385879006236792" lon="-4.507606979459524">
        <ele>51.090000000000003</ele>
        <time>2018-07-06T11:21:35Z</time>
      </trkpt>
      <trkpt lat="48.38581002317369" lon="-4.507543025538325">
        <ele>50.130000000000003</ele>
        <time>2018-07-06T11:21:36Z</time>
      </trkpt>
      <trkpt lat="48.385264026001096" lon="-4.507045978680253">
        <ele>45.32</ele>
        <time>2018-07-06T11:21:44Z</time>
      </trkpt>
      <trkpt lat="48.385204011574388" lon="-4.506991999223828">
        <ele>43.880000000000003</ele>
        <time>2018-07-06T11:21:45Z</time>
      </trkpt>
      <trkpt lat="48.385141985490918" lon="-4.506935002282262">
        <ele>42.920000000000002</ele>
        <time>2018-07-06T11:21:46Z</time>
      </trkpt>
      <trkpt lat="48.385079959407449" lon="-4.506879011169076">
        <ele>41.950000000000003</ele>
        <time>2018-07-06T11:21:47Z</time>
      </trkpt>
      <trkpt lat="48.385021034628153" lon="-4.506825031712651">
        <ele>40.509999999999998</ele>
        <time>2018-07-06T11:21:48Z</time>
      </trkpt>
      <trkpt lat="48.384488029405475" lon="-4.50626595877111">
        <ele>36.670000000000002</ele>
        <time>2018-07-06T11:21:57Z</time>
      </trkpt>
      <trkpt lat="48.384455004706979" lon="-4.506218014284968">
        <ele>37.630000000000003</ele>
        <time>2018-07-06T11:21:58Z</time>
      </trkpt>
      <trkpt lat="48.384266998618841" lon="-4.505933029577136">
        <ele>39.07</ele>
        <time>2018-07-06T11:22:01Z</time>
      </trkpt>
      <trkpt lat="48.384127020835876" lon="-4.505719961598516">
        <ele>40.509999999999998</ele>
        <time>2018-07-06T11:22:04Z</time>
      </trkpt>
      <trkpt lat="48.384090978652239" lon="-4.50566497631371">
        <ele>40.990000000000002</ele>
        <time>2018-07-06T11:22:05Z</time>
      </trkpt>
      <trkpt lat="48.384007997810841" lon="-4.505537990480661">
        <ele>41.950000000000003</ele>
        <time>2018-07-06T11:22:13Z</time>
      </trkpt>
      <trkpt lat="48.383999029174447" lon="-4.505524998530746">
        <ele>41.950000000000003</ele>
        <time>2018-07-06T11:22:47Z</time>
      </trkpt>
      <trkpt lat="48.383915964514017" lon="-4.50544897466898">
        <ele>43.399999999999999</ele>
        <time>2018-07-06T11:22:49Z</time>
      </trkpt>
      <trkpt lat="48.383799036964774" lon="-4.5054030418396">
        <ele>44.359999999999999</ele>
        <time>2018-07-06T11:22:51Z</time>
      </trkpt>
      <trkpt lat="48.383762994781137" lon="-4.505315031856298">
        <ele>44.840000000000003</ele>
        <time>2018-07-06T11:22:52Z</time>
      </trkpt>
      <trkpt lat="48.383773975074291" lon="-4.505267003551126">
        <ele>44.840000000000003</ele>
        <time>2018-07-06T11:22:53Z</time>
      </trkpt>
      <trkpt lat="48.383790990337729" lon="-4.505197014659643">
        <ele>45.32</ele>
        <time>2018-07-06T11:22:54Z</time>
      </trkpt>
      <trkpt lat="48.38381202891469" lon="-4.505110010504723">
        <ele>44.840000000000003</ele>
        <time>2018-07-06T11:22:55Z</time>
      </trkpt>
      <trkpt lat="48.383833989500999" lon="-4.505020994693041">
        <ele>44.840000000000003</ele>
        <time>2018-07-06T11:22:56Z</time>
      </trkpt>
      <trkpt lat="48.383852010592818" lon="-4.504943965002894">
        <ele>43.880000000000003</ele>
        <time>2018-07-06T11:22:57Z</time>
      </trkpt>
      <trkpt lat="48.383866008371115" lon="-4.504886968061328">
        <ele>43.880000000000003</ele>
        <time>2018-07-06T11:22:58Z</time>
      </trkpt>
      <trkpt lat="48.383873971179128" lon="-4.504854027181864">
        <ele>43.399999999999999</ele>
        <time>2018-07-06T11:22:59Z</time>
      </trkpt>
      <trkpt lat="48.383873971179128" lon="-4.504854027181864">
        <ele>43.399999999999999</ele>
        <time>2018-07-06T11:23:13Z</time>
      </trkpt>
      <trkpt lat="48.383897021412849" lon="-4.504758976399899">
        <ele>42.439999999999998</ele>
        <time>2018-07-06T11:23:17Z</time>
      </trkpt>
      <trkpt lat="48.383999029174447" lon="-4.50375298038125">
        <ele>40.030000000000001</ele>
        <time>2018-07-06T11:23:26Z</time>
      </trkpt>
      <trkpt lat="48.384034987539053" lon="-4.50261396355927">
        <ele>37.149999999999999</ele>
        <time>2018-07-06T11:23:37Z</time>
      </trkpt>
      <trkpt lat="48.384085027500987" lon="-4.50248496606946">
        <ele>35.710000000000001</ele>
        <time>2018-07-06T11:23:41Z</time>
      </trkpt>
      <trkpt lat="48.384111011400819" lon="-4.50248496606946">
        <ele>35.229999999999997</ele>
        <time>2018-07-06T11:23:42Z</time>
      </trkpt>
      <trkpt lat="48.384127020835876" lon="-4.50248496606946">
        <ele>35.229999999999997</ele>
        <time>2018-07-06T11:23:43Z</time>
      </trkpt>
      <trkpt lat="48.384157028049231" lon="-4.502491001039743">
        <ele>35.710000000000001</ele>
        <time>2018-07-06T11:23:44Z</time>
      </trkpt>
      <trkpt lat="48.384204972535372" lon="-4.502501981332898">
        <ele>36.189999999999998</ele>
        <time>2018-07-06T11:23:45Z</time>
      </trkpt>
      <trkpt lat="48.384270016103983" lon="-4.502517990767956">
        <ele>36.189999999999998</ele>
        <time>2018-07-06T11:23:46Z</time>
      </trkpt>
      <trkpt lat="48.384345034137368" lon="-4.502536011859775">
        <ele>36.670000000000002</ele>
        <time>2018-07-06T11:23:47Z</time>
      </trkpt>
      <trkpt lat="48.384809978306293" lon="-4.502671966329217">
        <ele>38.590000000000003</ele>
        <time>2018-07-06T11:23:54Z</time>
      </trkpt>
      <trkpt lat="48.385701980441809" lon="-4.502919986844063">
        <ele>43.399999999999999</ele>
        <time>2018-07-06T11:24:04Z</time>
      </trkpt>
      <trkpt lat="48.38600599206984" lon="-4.503011014312506">
        <ele>45.799999999999997</ele>
        <time>2018-07-06T11:24:10Z</time>
      </trkpt>
      <trkpt lat="48.386058965697885" lon="-4.503028029575944">
        <ele>45.799999999999997</ele>
        <time>2018-07-06T11:24:11Z</time>
      </trkpt>
      <trkpt lat="48.386727003380656" lon="-4.503146968781948">
        <ele>51.090000000000003</ele>
        <time>2018-07-06T11:24:20Z</time>
      </trkpt>
      <trkpt lat="48.386987010017037" lon="-4.50319298543036">
        <ele>53.969999999999999</ele>
        <time>2018-07-06T11:24:24Z</time>
      </trkpt>
      <trkpt lat="48.387074014171958" lon="-4.503206983208656">
        <ele>54.93</ele>
        <time>2018-07-06T11:24:26Z</time>
      </trkpt>
      <trkpt lat="48.387127993628383" lon="-4.503217041492462">
        <ele>55.409999999999997</ele>
        <time>2018-07-06T11:24:27Z</time>
      </trkpt>
      <trkpt lat="48.387191025540233" lon="-4.503227015957236">
        <ele>55.409999999999997</ele>
        <time>2018-07-06T11:24:28Z</time>
      </trkpt>
      <trkpt lat="48.387798964977264" lon="-4.503348972648382">
        <ele>53.009999999999998</ele>
        <time>2018-07-06T11:24:39Z</time>
      </trkpt>
      <trkpt lat="48.387835007160902" lon="-4.503357019275427">
        <ele>51.57</ele>
        <time>2018-07-06T11:24:49Z</time>
      </trkpt>
      <trkpt lat="48.387997029349208" lon="-4.503383003175259">
        <ele>51.57</ele>
        <time>2018-07-06T11:24:59Z</time>
      </trkpt>
      <trkpt lat="48.388767996802926" lon="-4.503492973744869">
        <ele>52.049999999999997</ele>
        <time>2018-07-06T11:25:09Z</time>
      </trkpt>
      <trkpt lat="48.389537958428264" lon="-4.503658013418317">
        <ele>50.609999999999999</ele>
        <time>2018-07-06T11:25:18Z</time>
      </trkpt>
      <trkpt lat="48.389948001131415" lon="-4.503578972071409">
        <ele>49.159999999999997</ele>
        <time>2018-07-06T11:25:25Z</time>
      </trkpt>
      <trkpt lat="48.390033999457955" lon="-4.503578972071409">
        <ele>49.159999999999997</ele>
        <time>2018-07-06T11:25:26Z</time>
      </trkpt>
      <trkpt lat="48.390107005834579" lon="-4.503578972071409">
        <ele>48.68</ele>
        <time>2018-07-06T11:25:28Z</time>
      </trkpt>
      <trkpt lat="48.39015101082623" lon="-4.503578972071409">
        <ele>48.200000000000003</ele>
        <time>2018-07-06T11:25:29Z</time>
      </trkpt>
      <trkpt lat="48.390699019655585" lon="-4.503560028970242">
        <ele>49.159999999999997</ele>
        <time>2018-07-06T11:25:38Z</time>
      </trkpt>
      <trkpt lat="48.390828017145395" lon="-4.503578972071409">
        <ele>49.649999999999999</ele>
        <time>2018-07-06T11:25:40Z</time>
      </trkpt>
      <trkpt lat="48.391020968556404" lon="-4.503613002598286">
        <ele>50.130000000000003</ele>
        <time>2018-07-06T11:25:43Z</time>
      </trkpt>
      <trkpt lat="48.391099004074931" lon="-4.503627000376582">
        <ele>50.609999999999999</ele>
        <time>2018-07-06T11:25:44Z</time>
      </trkpt>
      <trkpt lat="48.391725970432162" lon="-4.50379204005003">
        <ele>53.490000000000002</ele>
        <time>2018-07-06T11:25:53Z</time>
      </trkpt>
      <trkpt lat="48.391814986243844" lon="-4.50372900813818">
        <ele>53.969999999999999</ele>
        <time>2018-07-06T11:25:54Z</time>
      </trkpt>
      <trkpt lat="48.391847005113959" lon="-4.50372900813818">
        <ele>54.93</ele>
        <time>2018-07-06T11:25:55Z</time>
      </trkpt>
      <trkpt lat="48.391905007883906" lon="-4.50372900813818">
        <ele>55.409999999999997</ele>
        <time>2018-07-06T11:25:56Z</time>
      </trkpt>
      <trkpt lat="48.39200098067522" lon="-4.503669999539852">
        <ele>55.890000000000001</ele>
        <time>2018-07-06T11:25:57Z</time>
      </trkpt>
      <trkpt lat="48.392025958746672" lon="-4.503573020920157">
        <ele>56.859999999999999</ele>
        <time>2018-07-06T11:25:58Z</time>
      </trkpt>
      <trkpt lat="48.392050014808774" lon="-4.503461038693786">
        <ele>57.340000000000003</ele>
        <time>2018-07-06T11:25:59Z</time>
      </trkpt>
      <trkpt lat="48.392075998708606" lon="-4.503340004011989">
        <ele>57.82</ele>
        <time>2018-07-06T11:26:00Z</time>
      </trkpt>
      <trkpt lat="48.392101982608438" lon="-4.503217041492462">
        <ele>58.299999999999997</ele>
        <time>2018-07-06T11:26:01Z</time>
      </trkpt>
      <trkpt lat="48.392395013943315" lon="-4.501836961135268">
        <ele>57.82</ele>
        <time>2018-07-06T11:26:12Z</time>
      </trkpt>
      <trkpt lat="48.392648985609412" lon="-4.500625021755695">
        <ele>58.299999999999997</ele>
        <time>2018-07-06T11:26:21Z</time>
      </trkpt>
      <trkpt lat="48.393053999170661" lon="-4.498710008338094">
        <ele>54.450000000000003</ele>
        <time>2018-07-06T11:26:33Z</time>
      </trkpt>
      <trkpt lat="48.393496982753277" lon="-4.496512021869421">
        <ele>48.200000000000003</ele>
        <time>2018-07-06T11:26:46Z</time>
      </trkpt>
      <trkpt lat="48.393856985494494" lon="-4.494778979569674">
        <ele>42.439999999999998</ele>
        <time>2018-07-06T11:26:57Z</time>
      </trkpt>
      <trkpt lat="48.394068963825703" lon="-4.493745993822813">
        <ele>39.549999999999997</ele>
        <time>2018-07-06T11:27:06Z</time>
      </trkpt>
      <trkpt lat="48.394095031544566" lon="-4.493657983839512">
        <ele>39.07</ele>
        <time>2018-07-06T11:27:07Z</time>
      </trkpt>
      <trkpt lat="48.394120009616017" lon="-4.49356796219945">
        <ele>38.590000000000003</ele>
        <time>2018-07-06T11:27:08Z</time>
      </trkpt>
      <trkpt lat="48.394139958545566" lon="-4.493499984964728">
        <ele>38.590000000000003</ele>
        <time>2018-07-06T11:27:09Z</time>
      </trkpt>
      <trkpt lat="48.394112968817353" lon="-4.493379034101963">
        <ele>38.109999999999999</ele>
        <time>2018-07-06T11:27:10Z</time>
      </trkpt>
      <trkpt lat="48.394067035987973" lon="-4.493294041603804">
        <ele>37.630000000000003</ele>
        <time>2018-07-06T11:27:11Z</time>
      </trkpt>
      <trkpt lat="48.394016996026039" lon="-4.493204019963741">
        <ele>37.149999999999999</ele>
        <time>2018-07-06T11:27:12Z</time>
      </trkpt>
      <trkpt lat="48.393964022397995" lon="-4.493109975010157">
        <ele>36.670000000000002</ele>
        <time>2018-07-06T11:27:13Z</time>
      </trkpt>
      <trkpt lat="48.39390903711319" lon="-4.49300997890532">
        <ele>36.189999999999998</ele>
        <time>2018-07-06T11:27:14Z</time>
      </trkpt>
      <trkpt lat="48.393854973837733" lon="-4.492913000285626">
        <ele>36.189999999999998</ele>
        <time>2018-07-06T11:27:15Z</time>
      </trkpt>
      <trkpt lat="48.393802000209689" lon="-4.49281501583755">
        <ele>36.670000000000002</ele>
        <time>2018-07-06T11:27:16Z</time>
      </trkpt>
      <trkpt lat="48.39352497830987" lon="-4.492279998958111">
        <ele>40.990000000000002</ele>
        <time>2018-07-06T11:27:21Z</time>
      </trkpt>
      <trkpt lat="48.393405033275485" lon="-4.492067014798522">
        <ele>41.950000000000003</ele>
        <time>2018-07-06T11:27:23Z</time>
      </trkpt>
      <trkpt lat="48.393347030505538" lon="-4.491961989551783">
        <ele>41.950000000000003</ele>
        <time>2018-07-06T11:27:24Z</time>
      </trkpt>
      <trkpt lat="48.39328701607883" lon="-4.491856964305043">
        <ele>42.439999999999998</ele>
        <time>2018-07-06T11:27:25Z</time>
      </trkpt>
      <trkpt lat="48.393229013308883" lon="-4.491752022877336">
        <ele>42.920000000000002</ele>
        <time>2018-07-06T11:27:26Z</time>
      </trkpt>
      <trkpt lat="48.393170004710555" lon="-4.491646997630596">
        <ele>43.399999999999999</ele>
        <time>2018-07-06T11:27:27Z</time>
      </trkpt>
      <trkpt lat="48.392931036651134" lon="-4.491220023483038">
        <ele>45.799999999999997</ele>
        <time>2018-07-06T11:27:31Z</time>
      </trkpt>
      <trkpt lat="48.392878985032439" lon="-4.491120027378202">
        <ele>46.759999999999998</ele>
        <time>2018-07-06T11:27:32Z</time>
      </trkpt>
      <trkpt lat="48.392503978684545" lon="-4.490374037995935">
        <ele>53.969999999999999</ele>
        <time>2018-07-06T11:27:41Z</time>
      </trkpt>
      <trkpt lat="48.392488975077868" lon="-4.4903430249542">
        <ele>55.409999999999997</ele>
        <time>2018-07-06T11:27:49Z</time>
      </trkpt>
      <trkpt lat="48.392360983416438" lon="-4.49008502997458">
        <ele>56.369999999999997</ele>
        <time>2018-07-06T11:28:06Z</time>
      </trkpt>
      <trkpt lat="48.392131989821792" lon="-4.489654032513499">
        <ele>58.299999999999997</ele>
        <time>2018-07-06T11:28:11Z</time>
      </trkpt>
      <trkpt lat="48.392082033678889" lon="-4.489567028358579">
        <ele>58.780000000000001</ele>
        <time>2018-07-06T11:28:12Z</time>
      </trkpt>
      <trkpt lat="48.391925962641835" lon="-4.489292018115521">
        <ele>60.219999999999999</ele>
        <time>2018-07-06T11:28:15Z</time>
      </trkpt>
      <trkpt lat="48.391876006498933" lon="-4.489203002303839">
        <ele>60.700000000000003</ele>
        <time>2018-07-06T11:28:16Z</time>
      </trkpt>
      <trkpt lat="48.391814986243844" lon="-4.489094959571958">
        <ele>60.700000000000003</ele>
        <time>2018-07-06T11:28:17Z</time>
      </trkpt>
      <trkpt lat="48.391790008172393" lon="-4.489047015085816">
        <ele>61.18</ele>
        <time>2018-07-06T11:28:18Z</time>
      </trkpt>
      <trkpt lat="48.391758995130658" lon="-4.488982977345586">
        <ele>61.18</ele>
        <time>2018-07-06T11:28:19Z</time>
      </trkpt>
      <trkpt lat="48.391482979059219" lon="-4.488471010699868">
        <ele>61.659999999999997</ele>
        <time>2018-07-06T11:28:30Z</time>
      </trkpt>
      <trkpt lat="48.391454983502626" lon="-4.488424994051457">
        <ele>61.659999999999997</ele>
        <time>2018-07-06T11:28:31Z</time>
      </trkpt>
      <trkpt lat="48.391432017087936" lon="-4.488417031243444">
        <ele>61.659999999999997</ele>
        <time>2018-07-06T11:28:32Z</time>
      </trkpt>
      <trkpt lat="48.391406033188105" lon="-4.488408984616399">
        <ele>61.659999999999997</ele>
        <time>2018-07-06T11:28:33Z</time>
      </trkpt>
      <trkpt lat="48.391216015443206" lon="-4.488015035167337">
        <ele>61.18</ele>
        <time>2018-07-06T11:28:43Z</time>
      </trkpt>
      <trkpt lat="48.391149966046214" lon="-4.4879150390625">
        <ele>61.18</ele>
        <time>2018-07-06T11:28:45Z</time>
      </trkpt>
      <trkpt lat="48.391121970489621" lon="-4.487868016585708">
        <ele>61.18</ele>
        <time>2018-07-06T11:28:46Z</time>
      </trkpt>
      <trkpt lat="48.390976041555405" lon="-4.487613961100578">
        <ele>59.259999999999998</ele>
        <time>2018-07-06T11:28:52Z</time>
      </trkpt>
      <trkpt lat="48.390944022685289" lon="-4.487558975815773">
        <ele>59.259999999999998</ele>
        <time>2018-07-06T11:28:53Z</time>
      </trkpt>
      <trkpt lat="48.390512019395828" lon="-4.486702010035515">
        <ele>55.409999999999997</ele>
        <time>2018-07-06T11:29:06Z</time>
      </trkpt>
      <trkpt lat="48.390476983040571" lon="-4.486638978123665">
        <ele>54.93</ele>
        <time>2018-07-06T11:29:07Z</time>
      </trkpt>
    </trkseg>
  </trk>

  <trk>
    <name>Track vom: 2018-07-06 13:29</name>
    <extensions>
      <gpxx:TrackExtension>
        <gpxx:DisplayColor>DarkGray</gpxx:DisplayColor>
      </gpxx:TrackExtension>
    </extensions>
    <trkseg>
      <trkpt lat="48.390232985839248" lon="-4.486195994541049">
        <ele>53.969999999999999</ele>
        <time>2018-07-06T11:29:15Z</time>
      </trkpt>
      <trkpt lat="48.390113962814212" lon="-4.485980998724699">
        <ele>52.530000000000001</ele>
        <time>2018-07-06T11:29:24Z</time>
      </trkpt>
      <trkpt lat="48.390106000006199" lon="-4.485965995118022">
        <ele>52.049999999999997</ele>
        <time>2018-07-06T11:29:30Z</time>
      </trkpt>
      <trkpt lat="48.390132989734411" lon="-4.486015029251576">
        <ele>50.609999999999999</ele>
        <time>2018-07-06T11:29:33Z</time>
      </trkpt>
      <trkpt lat="48.390144975855947" lon="-4.486035984009504">
        <ele>50.130000000000003</ele>
        <time>2018-07-06T11:29:34Z</time>
      </trkpt>
      <trkpt lat="48.390156039968133" lon="-4.486056016758084">
        <ele>50.130000000000003</ele>
        <time>2018-07-06T11:29:35Z</time>
      </trkpt>
      <trkpt lat="48.390156039968133" lon="-4.486056016758084">
        <ele>50.130000000000003</ele>
        <time>2018-07-06T11:29:36Z</time>
      </trkpt>
      <trkpt lat="48.390156039968133" lon="-4.486056016758084">
        <ele>49.649999999999999</ele>
        <time>2018-07-06T11:29:57Z</time>
      </trkpt>
      <trkpt lat="48.390328958630562" lon="-4.486371008679271">
        <ele>51.57</ele>
        <time>2018-07-06T11:30:14Z</time>
      </trkpt>
      <trkpt lat="48.390491986647248" lon="-4.486665967851877">
        <ele>53.969999999999999</ele>
        <time>2018-07-06T11:30:21Z</time>
      </trkpt>
      <trkpt lat="48.390519982203841" lon="-4.486717013642192">
        <ele>54.93</ele>
        <time>2018-07-06T11:30:32Z</time>
      </trkpt>
      <trkpt lat="48.390610003843904" lon="-4.486880041658878">
        <ele>56.369999999999997</ele>
        <time>2018-07-06T11:30:58Z</time>
      </trkpt>
      <trkpt lat="48.390630958601832" lon="-4.486920023337007">
        <ele>57.340000000000003</ele>
        <time>2018-07-06T11:31:01Z</time>
      </trkpt>
      <trkpt lat="48.390643028542399" lon="-4.486982971429825">
        <ele>57.340000000000003</ele>
        <time>2018-07-06T11:31:02Z</time>
      </trkpt>
      <trkpt lat="48.390630958601832" lon="-4.486993029713631">
        <ele>57.340000000000003</ele>
        <time>2018-07-06T11:31:03Z</time>
      </trkpt>
      <trkpt lat="48.390330970287323" lon="-4.487235015258193">
        <ele>54.93</ele>
        <time>2018-07-06T11:31:11Z</time>
      </trkpt>
      <trkpt lat="48.39028000831604" lon="-4.487247001379728">
        <ele>54.93</ele>
        <time>2018-07-06T11:31:12Z</time>
      </trkpt>
      <trkpt lat="48.390227034687996" lon="-4.487259993329644">
        <ele>54.450000000000003</ele>
        <time>2018-07-06T11:31:13Z</time>
      </trkpt>
      <trkpt lat="48.390117986127734" lon="-4.487240966409445">
        <ele>53.969999999999999</ele>
        <time>2018-07-06T11:31:15Z</time>
      </trkpt>
      <trkpt lat="48.390060989186168" lon="-4.487213976681233">
        <ele>53.490000000000002</ele>
        <time>2018-07-06T11:31:16Z</time>
      </trkpt>
      <trkpt lat="48.390009021386504" lon="-4.487188998609781">
        <ele>53.009999999999998</ele>
        <time>2018-07-06T11:31:17Z</time>
      </trkpt>
      <trkpt lat="48.389964010566473" lon="-4.487167960032821">
        <ele>52.530000000000001</ele>
        <time>2018-07-06T11:31:18Z</time>
      </trkpt>
      <trkpt lat="48.389924028888345" lon="-4.487149016931653">
        <ele>52.049999999999997</ele>
        <time>2018-07-06T11:31:19Z</time>
      </trkpt>
      <trkpt lat="48.389773992821574" lon="-4.487118003889918">
        <ele>51.090000000000003</ele>
        <time>2018-07-06T11:31:23Z</time>
      </trkpt>
      <trkpt lat="48.389738034456968" lon="-4.487132001668215">
        <ele>50.609999999999999</ele>
        <time>2018-07-06T11:31:24Z</time>
      </trkpt>
      <trkpt lat="48.389693023636937" lon="-4.487166032195091">
        <ele>50.130000000000003</ele>
        <time>2018-07-06T11:31:25Z</time>
      </trkpt>
      <trkpt lat="48.389339977875352" lon="-4.487602980807424">
        <ele>42.920000000000002</ele>
        <time>2018-07-06T11:31:37Z</time>
      </trkpt>
      <trkpt lat="48.389299996197224" lon="-4.487652014940977">
        <ele>41.469999999999999</ele>
        <time>2018-07-06T11:31:40Z</time>
      </trkpt>
      <trkpt lat="48.38929002173245" lon="-4.487665006890893">
        <ele>40.990000000000002</ele>
        <time>2018-07-06T11:31:41Z</time>
      </trkpt>
      <trkpt lat="48.389239981770515" lon="-4.487657966092229">
        <ele>40.509999999999998</ele>
        <time>2018-07-06T11:31:42Z</time>
      </trkpt>
      <trkpt lat="48.389239981770515" lon="-4.487657966092229">
        <ele>40.509999999999998</ele>
        <time>2018-07-06T11:31:43Z</time>
      </trkpt>
      <trkpt lat="48.389239981770515" lon="-4.487657966092229">
        <ele>40.509999999999998</ele>
        <time>2018-07-06T11:31:44Z</time>
      </trkpt>
      <trkpt lat="48.389229001477361" lon="-4.487646985799074">
        <ele>40.509999999999998</ele>
        <time>2018-07-06T11:31:45Z</time>
      </trkpt>
      <trkpt lat="48.389215003699064" lon="-4.487628964707255">
        <ele>40.509999999999998</ele>
        <time>2018-07-06T11:31:46Z</time>
      </trkpt>
      <trkpt lat="48.389202011749148" lon="-4.487603986635804">
        <ele>40.509999999999998</ele>
        <time>2018-07-06T11:31:47Z</time>
      </trkpt>
      <trkpt lat="48.389202011749148" lon="-4.487603986635804">
        <ele>40.509999999999998</ele>
        <time>2018-07-06T11:31:48Z</time>
      </trkpt>
      <trkpt lat="48.389146020635962" lon="-4.487503990530968">
        <ele>40.509999999999998</ele>
        <time>2018-07-06T11:31:59Z</time>
      </trkpt>
      <trkpt lat="48.389109978452325" lon="-4.487446993589401">
        <ele>40.990000000000002</ele>
        <time>2018-07-06T11:32:00Z</time>
      </trkpt>
      <trkpt lat="48.388851983472705" lon="-4.486988000571728">
        <ele>42.439999999999998</ele>
        <time>2018-07-06T11:32:08Z</time>
      </trkpt>
      <trkpt lat="48.38882097043097" lon="-4.486926980316639">
        <ele>42.920000000000002</ele>
        <time>2018-07-06T11:32:09Z</time>
      </trkpt>
      <trkpt lat="48.388397013768554" lon="-4.486152995377779">
        <ele>46.759999999999998</ele>
        <time>2018-07-06T11:32:20Z</time>
      </trkpt>
      <trkpt lat="48.388094007968903" lon="-4.485598029568791">
        <ele>49.159999999999997</ele>
        <time>2018-07-06T11:32:27Z</time>
      </trkpt>
      <trkpt lat="48.388061989098787" lon="-4.485530974343419">
        <ele>49.649999999999999</ele>
        <time>2018-07-06T11:32:28Z</time>
      </trkpt>
      <trkpt lat="48.388034999370575" lon="-4.485473977401853">
        <ele>50.130000000000003</ele>
        <time>2018-07-06T11:32:29Z</time>
      </trkpt>
      <trkpt lat="48.388011027127504" lon="-4.48542301543057">
        <ele>50.609999999999999</ele>
        <time>2018-07-06T11:32:30Z</time>
      </trkpt>
      <trkpt lat="48.387988982722163" lon="-4.485376998782158">
        <ele>50.609999999999999</ele>
        <time>2018-07-06T11:32:31Z</time>
      </trkpt>
      <trkpt lat="48.387970961630344" lon="-4.485339028760791">
        <ele>51.090000000000003</ele>
        <time>2018-07-06T11:32:32Z</time>
      </trkpt>
      <trkpt lat="48.387893009930849" lon="-4.485254036262631">
        <ele>51.090000000000003</ele>
        <time>2018-07-06T11:32:33Z</time>
      </trkpt>
      <trkpt lat="48.387844981625676" lon="-4.485254036262631">
        <ele>51.090000000000003</ele>
        <time>2018-07-06T11:32:37Z</time>
      </trkpt>
      <trkpt lat="48.387797037139535" lon="-4.485315978527069">
        <ele>51.57</ele>
        <time>2018-07-06T11:32:38Z</time>
      </trkpt>
      <trkpt lat="48.387690000236034" lon="-4.485451010987163">
        <ele>51.090000000000003</ele>
        <time>2018-07-06T11:32:41Z</time>
      </trkpt>
      <trkpt lat="48.387653036043048" lon="-4.485499039292336">
        <ele>50.609999999999999</ele>
        <time>2018-07-06T11:32:42Z</time>
      </trkpt>
      <trkpt lat="48.387619005516171" lon="-4.485541032627225">
        <ele>50.609999999999999</ele>
        <time>2018-07-06T11:32:43Z</time>
      </trkpt>
      <trkpt lat="48.387590004131198" lon="-4.485579002648592">
        <ele>50.130000000000003</ele>
        <time>2018-07-06T11:32:44Z</time>
      </trkpt>
      <trkpt lat="48.387563014402986" lon="-4.485612027347088">
        <ele>49.649999999999999</ele>
        <time>2018-07-06T11:32:45Z</time>
      </trkpt>
      <trkpt lat="48.38733896613121" lon="-4.48589701205492">
        <ele>45.799999999999997</ele>
        <time>2018-07-06T11:32:54Z</time>
      </trkpt>
      <trkpt lat="48.387286998331547" lon="-4.4859619718045">
        <ele>44.840000000000003</ele>
        <time>2018-07-06T11:32:57Z</time>
      </trkpt>
      <trkpt lat="48.387201000005007" lon="-4.486070014536381">
        <ele>44.840000000000003</ele>
        <time>2018-07-06T11:32:58Z</time>
      </trkpt>
      <trkpt lat="48.387151965871453" lon="-4.48613497428596">
        <ele>44.359999999999999</ele>
        <time>2018-07-06T11:33:00Z</time>
      </trkpt>
      <trkpt lat="48.387032020837069" lon="-4.486291967332363">
        <ele>42.920000000000002</ele>
        <time>2018-07-06T11:33:03Z</time>
      </trkpt>
      <trkpt lat="48.38699203915894" lon="-4.486345024779439">
        <ele>42.439999999999998</ele>
        <time>2018-07-06T11:33:04Z</time>
      </trkpt>
      <trkpt lat="48.386695990338922" lon="-4.486736040562391">
        <ele>38.109999999999999</ele>
        <time>2018-07-06T11:33:12Z</time>
      </trkpt>
      <trkpt lat="48.38660697452724" lon="-4.486848022788763">
        <ele>37.149999999999999</ele>
        <time>2018-07-06T11:33:14Z</time>
      </trkpt>
      <trkpt lat="48.3865209762007" lon="-4.486962016671896">
        <ele>36.189999999999998</ele>
        <time>2018-07-06T11:33:16Z</time>
      </trkpt>
      <trkpt lat="48.386346967890859" lon="-4.487195033580065">
        <ele>34.740000000000002</ele>
        <time>2018-07-06T11:33:21Z</time>
      </trkpt>
      <trkpt lat="48.386321989819407" lon="-4.487227974459529">
        <ele>35.229999999999997</ele>
        <time>2018-07-06T11:33:22Z</time>
      </trkpt>
      <trkpt lat="48.386257030069828" lon="-4.487313972786069">
        <ele>35.229999999999997</ele>
        <time>2018-07-06T11:33:23Z</time>
      </trkpt>
      <trkpt lat="48.386033987626433" lon="-4.487605998292565">
        <ele>34.740000000000002</ele>
        <time>2018-07-06T11:33:28Z</time>
      </trkpt>
      <trkpt lat="48.385988976806402" lon="-4.487665006890893">
        <ele>34.259999999999998</ele>
        <time>2018-07-06T11:33:29Z</time>
      </trkpt>
      <trkpt lat="48.385696029290557" lon="-4.488073959946632">
        <ele>33.299999999999997</ele>
        <time>2018-07-06T11:33:36Z</time>
      </trkpt>
      <trkpt lat="48.385549010708928" lon="-4.488279987126589">
        <ele>32.340000000000003</ele>
        <time>2018-07-06T11:33:42Z</time>
      </trkpt>
      <trkpt lat="48.385463012382388" lon="-4.488365985453129">
        <ele>31.859999999999999</ele>
        <time>2018-07-06T11:33:43Z</time>
      </trkpt>
      <trkpt lat="48.385459994897246" lon="-4.488370008766651">
        <ele>31.379999999999999</ele>
        <time>2018-07-06T11:33:44Z</time>
      </trkpt>
      <trkpt lat="48.385415989905596" lon="-4.488425999879837">
        <ele>31.379999999999999</ele>
        <time>2018-07-06T11:33:45Z</time>
      </trkpt>
      <trkpt lat="48.385372990742326" lon="-4.488480985164642">
        <ele>30.899999999999999</ele>
        <time>2018-07-06T11:33:46Z</time>
      </trkpt>
      <trkpt lat="48.385242987424135" lon="-4.488647030666471">
        <ele>30.420000000000002</ele>
        <time>2018-07-06T11:33:49Z</time>
      </trkpt>
      <trkpt lat="48.385197976604104" lon="-4.488704027608037">
        <ele>29.940000000000001</ele>
        <time>2018-07-06T11:33:50Z</time>
      </trkpt>
      <trkpt lat="48.385154977440834" lon="-4.488760018721223">
        <ele>29.940000000000001</ele>
        <time>2018-07-06T11:33:51Z</time>
      </trkpt>
      <trkpt lat="48.385111978277564" lon="-4.488813998177648">
        <ele>29.460000000000001</ele>
        <time>2018-07-06T11:33:52Z</time>
      </trkpt>
      <trkpt lat="48.385070990771055" lon="-4.488865965977311">
        <ele>28.98</ele>
        <time>2018-07-06T11:33:53Z</time>
      </trkpt>
      <trkpt lat="48.385032014921308" lon="-4.488916005939245">
        <ele>28.98</ele>
        <time>2018-07-06T11:33:54Z</time>
      </trkpt>
      <trkpt lat="48.38499597273767" lon="-4.488962022587657">
        <ele>28.5</ele>
        <time>2018-07-06T11:33:55Z</time>
      </trkpt>
      <trkpt lat="48.384959008544683" lon="-4.489008961245418">
        <ele>28.5</ele>
        <time>2018-07-06T11:33:56Z</time>
      </trkpt>
      <trkpt lat="48.384920032694936" lon="-4.489059001207352">
        <ele>28.02</ele>
        <time>2018-07-06T11:33:57Z</time>
      </trkpt>
      <trkpt lat="48.384269010275602" lon="-4.489909010007978">
        <ele>26.09</ele>
        <time>2018-07-06T11:34:11Z</time>
      </trkpt>
      <trkpt lat="48.384223999455571" lon="-4.489965001121163">
        <ele>26.09</ele>
        <time>2018-07-06T11:34:12Z</time>
      </trkpt>
      <trkpt lat="48.383933985605836" lon="-4.490351993590593">
        <ele>25.609999999999999</ele>
        <time>2018-07-06T11:34:19Z</time>
      </trkpt>
      <trkpt lat="48.383768023923039" lon="-4.490576041862369">
        <ele>26.09</ele>
        <time>2018-07-06T11:34:24Z</time>
      </trkpt>
      <trkpt lat="48.383768023923039" lon="-4.490576041862369">
        <ele>25.609999999999999</ele>
        <time>2018-07-06T11:34:25Z</time>
      </trkpt>
      <trkpt lat="48.383641038089991" lon="-4.490716019645333">
        <ele>25.129999999999999</ele>
        <time>2018-07-06T11:34:27Z</time>
      </trkpt>
      <trkpt lat="48.383553028106689" lon="-4.490831019356847">
        <ele>24.649999999999999</ele>
        <time>2018-07-06T11:34:29Z</time>
      </trkpt>
      <trkpt lat="48.383469963446259" lon="-4.490937972441316">
        <ele>23.690000000000001</ele>
        <time>2018-07-06T11:34:31Z</time>
      </trkpt>
      <trkpt lat="48.383391005918384" lon="-4.491041991859675">
        <ele>23.210000000000001</ele>
        <time>2018-07-06T11:34:33Z</time>
      </trkpt>
      <trkpt lat="48.383032009005547" lon="-4.491506014019251">
        <ele>19.359999999999999</ele>
        <time>2018-07-06T11:34:42Z</time>
      </trkpt>
      <trkpt lat="48.38299797847867" lon="-4.491551024839282">
        <ele>18.399999999999999</ele>
        <time>2018-07-06T11:34:43Z</time>
      </trkpt>
      <trkpt lat="48.38288901373744" lon="-4.491691002622247">
        <ele>17.440000000000001</ele>
        <time>2018-07-06T11:34:46Z</time>
      </trkpt>
      <trkpt lat="48.382852971553802" lon="-4.491737019270659">
        <ele>16.960000000000001</ele>
        <time>2018-07-06T11:34:47Z</time>
      </trkpt>
      <trkpt lat="48.382821036502719" lon="-4.491778006777167">
        <ele>16.48</ele>
        <time>2018-07-06T11:34:48Z</time>
      </trkpt>
      <trkpt lat="48.382790023460984" lon="-4.491817988455296">
        <ele>16</ele>
        <time>2018-07-06T11:34:49Z</time>
      </trkpt>
      <trkpt lat="48.382762027904391" lon="-4.491854030638933">
        <ele>15.52</ele>
        <time>2018-07-06T11:34:50Z</time>
      </trkpt>
      <trkpt lat="48.382737971842289" lon="-4.491884959861636">
        <ele>15.52</ele>
        <time>2018-07-06T11:34:51Z</time>
      </trkpt>
      <trkpt lat="48.382683992385864" lon="-4.492023009806871">
        <ele>15.52</ele>
        <time>2018-07-06T11:34:52Z</time>
      </trkpt>
      <trkpt lat="48.382694972679019" lon="-4.492095010355115">
        <ele>15.52</ele>
        <time>2018-07-06T11:34:53Z</time>
      </trkpt>
      <trkpt lat="48.382736966013908" lon="-4.492163993418217">
        <ele>14.56</ele>
        <time>2018-07-06T11:34:54Z</time>
      </trkpt>
      <trkpt lat="48.382767979055643" lon="-4.49221302755177">
        <ele>14.08</ele>
        <time>2018-07-06T11:34:55Z</time>
      </trkpt>
      <trkpt lat="48.382798992097378" lon="-4.492261977866292">
        <ele>13.119999999999999</ele>
        <time>2018-07-06T11:34:56Z</time>
      </trkpt>
      <trkpt lat="48.382819024845958" lon="-4.492293996736407">
        <ele>12.15</ele>
        <time>2018-07-06T11:34:57Z</time>
      </trkpt>
      <trkpt lat="48.382819024845958" lon="-4.492293996736407">
        <ele>10.710000000000001</ele>
        <time>2018-07-06T11:34:58Z</time>
      </trkpt>
      <trkpt lat="48.382740989327431" lon="-4.492171034216881">
        <ele>5.42</ele>
        <time>2018-07-06T11:35:07Z</time>
      </trkpt>
      <trkpt lat="48.382611991837621" lon="-4.492181008681655">
        <ele>4.94</ele>
        <time>2018-07-06T11:35:09Z</time>
      </trkpt>
      <trkpt lat="48.38258801959455" lon="-4.492142032831907">
        <ele>5.42</ele>
        <time>2018-07-06T11:35:10Z</time>
      </trkpt>
      <trkpt lat="48.38256798684597" lon="-4.492090987041593">
        <ele>5.91</ele>
        <time>2018-07-06T11:35:11Z</time>
      </trkpt>
      <trkpt lat="48.382557006552815" lon="-4.492014963179827">
        <ele>5.91</ele>
        <time>2018-07-06T11:35:12Z</time>
      </trkpt>
      <trkpt lat="48.382577961310744" lon="-4.491980010643601">
        <ele>5.91</ele>
        <time>2018-07-06T11:35:13Z</time>
      </trkpt>
      <trkpt lat="48.382621966302395" lon="-4.491931982338429">
        <ele>5.42</ele>
        <time>2018-07-06T11:35:14Z</time>
      </trkpt>
      <trkpt lat="48.382655996829271" lon="-4.491942962631583">
        <ele>5.42</ele>
        <time>2018-07-06T11:35:15Z</time>
      </trkpt>
      <trkpt lat="48.382694972679019" lon="-4.492099033668637">
        <ele>5.42</ele>
        <time>2018-07-06T11:35:17Z</time>
      </trkpt>
      <trkpt lat="48.382689021527767" lon="-4.492057040333748">
        <ele>5.91</ele>
        <time>2018-07-06T11:35:18Z</time>
      </trkpt>
      <trkpt lat="48.382694972679019" lon="-4.492099033668637">
        <ele>6.39</ele>
        <time>2018-07-06T11:35:19Z</time>
      </trkpt>
      <trkpt lat="48.382744006812572" lon="-4.492176985368133">
        <ele>6.39</ele>
        <time>2018-07-06T11:35:20Z</time>
      </trkpt>
      <trkpt lat="48.382702013477683" lon="-4.492330960929394">
        <ele>6.87</ele>
        <time>2018-07-06T11:35:21Z</time>
      </trkpt>
      <trkpt lat="48.382732020691037" lon="-4.492379995062947">
        <ele>6.87</ele>
        <time>2018-07-06T11:35:22Z</time>
      </trkpt>
      <trkpt lat="48.382761022076011" lon="-4.49242701753974">
        <ele>7.35</ele>
        <time>2018-07-06T11:35:23Z</time>
      </trkpt>
      <trkpt lat="48.382794968783855" lon="-4.492484014481306">
        <ele>7.35</ele>
        <time>2018-07-06T11:35:24Z</time>
      </trkpt>
      <trkpt lat="48.382875015959144" lon="-4.492615023627877">
        <ele>7.83</ele>
        <time>2018-07-06T11:35:26Z</time>
      </trkpt>
      <trkpt lat="48.382917009294033" lon="-4.492684006690979">
        <ele>8.310000000000001</ele>
        <time>2018-07-06T11:35:27Z</time>
      </trkpt>
      <trkpt lat="48.383281035348773" lon="-4.493283983319998">
        <ele>10.710000000000001</ele>
        <time>2018-07-06T11:35:38Z</time>
      </trkpt>
      <trkpt lat="48.383510028943419" lon="-4.493624959141016">
        <ele>13.119999999999999</ele>
        <time>2018-07-06T11:35:49Z</time>
      </trkpt>
      <trkpt lat="48.383522015064955" lon="-4.493642980232835">
        <ele>13.119999999999999</ele>
        <time>2018-07-06T11:35:53Z</time>
      </trkpt>
      <trkpt lat="48.383522015064955" lon="-4.493642980232835">
        <ele>13.6</ele>
        <time>2018-07-06T11:36:10Z</time>
      </trkpt>
      <trkpt lat="48.383553028106689" lon="-4.493687991052866">
        <ele>15.039999999999999</ele>
        <time>2018-07-06T11:36:48Z</time>
      </trkpt>
      <trkpt lat="48.383574988692999" lon="-4.493720009922981">
        <ele>15.039999999999999</ele>
        <time>2018-07-06T11:36:49Z</time>
      </trkpt>
      <trkpt lat="48.383992994204164" lon="-4.494329961016774">
        <ele>15.039999999999999</ele>
        <time>2018-07-06T11:36:58Z</time>
      </trkpt>
      <trkpt lat="48.384648961946368" lon="-4.494932033121586">
        <ele>11.19</ele>
        <time>2018-07-06T11:37:08Z</time>
      </trkpt>
      <trkpt lat="48.384754993021488" lon="-4.495018031448126">
        <ele>10.23</ele>
        <time>2018-07-06T11:37:10Z</time>
      </trkpt>
      <trkpt lat="48.384822970256209" lon="-4.494988024234772">
        <ele>10.23</ele>
        <time>2018-07-06T11:37:11Z</time>
      </trkpt>
      <trkpt lat="48.384867981076241" lon="-4.494967991486192">
        <ele>10.23</ele>
        <time>2018-07-06T11:37:12Z</time>
      </trkpt>
      <trkpt lat="48.38490997441113" lon="-4.494948964565992">
        <ele>9.75</ele>
        <time>2018-07-06T11:37:13Z</time>
      </trkpt>
      <trkpt lat="48.384948028251529" lon="-4.494932033121586">
        <ele>9.75</ele>
        <time>2018-07-06T11:37:14Z</time>
      </trkpt>
      <trkpt lat="48.385011982172728" lon="-4.494807980954647">
        <ele>8.789999999999999</ele>
        <time>2018-07-06T11:37:16Z</time>
      </trkpt>
      <trkpt lat="48.385257991030812" lon="-4.494330966845155">
        <ele>7.83</ele>
        <time>2018-07-06T11:37:23Z</time>
      </trkpt>
      <trkpt lat="48.385312976315618" lon="-4.494224013760686">
        <ele>7.35</ele>
        <time>2018-07-06T11:37:25Z</time>
      </trkpt>
      <trkpt lat="48.38531800545752" lon="-4.494218984618783">
        <ele>6.87</ele>
        <time>2018-07-06T11:37:26Z</time>
      </trkpt>
      <trkpt lat="48.385309958830476" lon="-4.494229964911938">
        <ele>6.87</ele>
        <time>2018-07-06T11:37:28Z</time>
      </trkpt>
      <trkpt lat="48.385291015729308" lon="-4.494267012923956">
        <ele>6.87</ele>
        <time>2018-07-06T11:37:29Z</time>
      </trkpt>
      <trkpt lat="48.385270982980728" lon="-4.494303977116942">
        <ele>6.87</ele>
        <time>2018-07-06T11:37:30Z</time>
      </trkpt>
      <trkpt lat="48.385164029896259" lon="-4.494513021782041">
        <ele>5.91</ele>
        <time>2018-07-06T11:37:38Z</time>
      </trkpt>
      <trkpt lat="48.385179033502936" lon="-4.494483014568687">
        <ele>6.39</ele>
        <time>2018-07-06T11:37:43Z</time>
      </trkpt>
      <trkpt lat="48.385198982432485" lon="-4.494445966556668">
        <ele>6.39</ele>
        <time>2018-07-06T11:37:44Z</time>
      </trkpt>
      <trkpt lat="48.385222032666206" lon="-4.494401039555669">
        <ele>6.39</ele>
        <time>2018-07-06T11:37:45Z</time>
      </trkpt>
      <trkpt lat="48.385247010737658" lon="-4.494353011250496">
        <ele>6.39</ele>
        <time>2018-07-06T11:37:46Z</time>
      </trkpt>
      <trkpt lat="48.385267965495586" lon="-4.494310012087226">
        <ele>6.39</ele>
        <time>2018-07-06T11:37:47Z</time>
      </trkpt>
      <trkpt lat="48.385283974930644" lon="-4.494281010702252">
        <ele>6.87</ele>
        <time>2018-07-06T11:37:48Z</time>
      </trkpt>
      <trkpt lat="48.385312976315618" lon="-4.494224013760686">
        <ele>6.39</ele>
        <time>2018-07-06T11:37:51Z</time>
      </trkpt>
      <trkpt lat="48.385256985202432" lon="-4.494332978501916">
        <ele>5.91</ele>
        <time>2018-07-06T11:37:52Z</time>
      </trkpt>
      <trkpt lat="48.385237036272883" lon="-4.494372038170695">
        <ele>5.42</ele>
        <time>2018-07-06T11:37:53Z</time>
      </trkpt>
      <trkpt lat="48.385213986039162" lon="-4.494415037333965">
        <ele>5.42</ele>
        <time>2018-07-06T11:37:54Z</time>
      </trkpt>
      <trkpt lat="48.38518900796771" lon="-4.494464993476868">
        <ele>4.94</ele>
        <time>2018-07-06T11:37:55Z</time>
      </trkpt>
      <trkpt lat="48.38505900464952" lon="-4.494716031476855">
        <ele>4.46</ele>
        <time>2018-07-06T11:37:59Z</time>
      </trkpt>
      <trkpt lat="48.385025979951024" lon="-4.494781997054815">
        <ele>4.46</ele>
        <time>2018-07-06T11:38:00Z</time>
      </trkpt>
      <trkpt lat="48.384948028251529" lon="-4.494932033121586">
        <ele>3.98</ele>
        <time>2018-07-06T11:38:02Z</time>
      </trkpt>
      <trkpt lat="48.384903017431498" lon="-4.494951982051134">
        <ele>3.98</ele>
        <time>2018-07-06T11:38:03Z</time>
      </trkpt>
      <trkpt lat="48.384843003004789" lon="-4.494977965950966">
        <ele>3.98</ele>
        <time>2018-07-06T11:38:04Z</time>
      </trkpt>
      <trkpt lat="48.384782988578081" lon="-4.49500503949821">
        <ele>3.98</ele>
        <time>2018-07-06T11:38:05Z</time>
      </trkpt>
      <trkpt lat="48.384692966938019" lon="-4.494967991486192">
        <ele>3.98</ele>
        <time>2018-07-06T11:38:06Z</time>
      </trkpt>
      <trkpt lat="48.384632030501962" lon="-4.49491904117167">
        <ele>3.98</ele>
        <time>2018-07-06T11:38:07Z</time>
      </trkpt>
      <trkpt lat="48.384571010246873" lon="-4.494871012866497">
        <ele>3.98</ele>
        <time>2018-07-06T11:38:08Z</time>
      </trkpt>
      <trkpt lat="48.384518958628178" lon="-4.494823990389705">
        <ele>4.46</ele>
        <time>2018-07-06T11:38:09Z</time>
      </trkpt>
      <trkpt lat="48.384087961167097" lon="-4.494468010962009">
        <ele>6.39</ele>
        <time>2018-07-06T11:38:16Z</time>
      </trkpt>
      <trkpt lat="48.38404999114573" lon="-4.494413025677204">
        <ele>6.39</ele>
        <time>2018-07-06T11:38:17Z</time>
      </trkpt>
      <trkpt lat="48.384018978103995" lon="-4.494368014857173">
        <ele>6.39</ele>
        <time>2018-07-06T11:38:18Z</time>
      </trkpt>
      <trkpt lat="48.383992994204164" lon="-4.494330966845155">
        <ele>6.87</ele>
        <time>2018-07-06T11:38:19Z</time>
      </trkpt>
      <trkpt lat="48.383973967283964" lon="-4.494301965460181">
        <ele>6.87</ele>
        <time>2018-07-06T11:38:20Z</time>
      </trkpt>
      <trkpt lat="48.383958041667938" lon="-4.494278999045491">
        <ele>6.87</ele>
        <time>2018-07-06T11:38:21Z</time>
      </trkpt>
      <trkpt lat="48.38394396007061" lon="-4.494257960468531">
        <ele>6.87</ele>
        <time>2018-07-06T11:38:22Z</time>
      </trkpt>
      <trkpt lat="48.38394396007061" lon="-4.494257960468531">
        <ele>6.87</ele>
        <time>2018-07-06T11:38:24Z</time>
      </trkpt>
      <trkpt lat="48.383871037513018" lon="-4.494152013212442">
        <ele>8.789999999999999</ele>
        <time>2018-07-06T11:38:35Z</time>
      </trkpt>
      <trkpt lat="48.383460994809866" lon="-4.493553964421153">
        <ele>13.119999999999999</ele>
        <time>2018-07-06T11:38:43Z</time>
      </trkpt>
      <trkpt lat="48.38308397680521" lon="-4.492959016934037">
        <ele>17.440000000000001</ele>
        <time>2018-07-06T11:38:50Z</time>
      </trkpt>
      <trkpt lat="48.383023962378502" lon="-4.492861032485962">
        <ele>17.920000000000002</ele>
        <time>2018-07-06T11:38:51Z</time>
      </trkpt>
      <trkpt lat="48.382968977093697" lon="-4.492770005017519">
        <ele>18.399999999999999</ele>
        <time>2018-07-06T11:38:52Z</time>
      </trkpt>
      <trkpt lat="48.38263001292944" lon="-4.49221202172339">
        <ele>21.289999999999999</ele>
        <time>2018-07-06T11:39:01Z</time>
      </trkpt>
      <trkpt lat="48.382602017372847" lon="-4.492164999246597">
        <ele>21.289999999999999</ele>
        <time>2018-07-06T11:39:02Z</time>
      </trkpt>
      <trkpt lat="48.3825249876827" lon="-4.492005994543433">
        <ele>21.77</ele>
        <time>2018-07-06T11:39:05Z</time>
      </trkpt>
      <trkpt lat="48.382420968264341" lon="-4.49186802841723">
        <ele>22.73</ele>
        <time>2018-07-06T11:39:08Z</time>
      </trkpt>
      <trkpt lat="48.382386015728116" lon="-4.491832992061973">
        <ele>23.210000000000001</ele>
        <time>2018-07-06T11:39:09Z</time>
      </trkpt>
      <trkpt lat="48.382221981883049" lon="-4.491735007613897">
        <ele>23.210000000000001</ele>
        <time>2018-07-06T11:39:14Z</time>
      </trkpt>
      <trkpt lat="48.382159033790231" lon="-4.491735007613897">
        <ele>22.73</ele>
        <time>2018-07-06T11:39:15Z</time>
      </trkpt>
      <trkpt lat="48.382120979949832" lon="-4.491746993735433">
        <ele>22.73</ele>
        <time>2018-07-06T11:39:16Z</time>
      </trkpt>
      <trkpt lat="48.382067000493407" lon="-4.491765014827251">
        <ele>22.25</ele>
        <time>2018-07-06T11:39:17Z</time>
      </trkpt>
      <trkpt lat="48.382011009380221" lon="-4.491784041747451">
        <ele>22.25</ele>
        <time>2018-07-06T11:39:18Z</time>
      </trkpt>
      <trkpt lat="48.381953006610274" lon="-4.491802984848619">
        <ele>22.25</ele>
        <time>2018-07-06T11:39:19Z</time>
      </trkpt>
      <trkpt lat="48.381870025768876" lon="-4.491795022040606">
        <ele>21.289999999999999</ele>
        <time>2018-07-06T11:39:21Z</time>
      </trkpt>
      <trkpt lat="48.381825014948845" lon="-4.491758979856968">
        <ele>21.289999999999999</ele>
        <time>2018-07-06T11:39:22Z</time>
      </trkpt>
      <trkpt lat="48.38179400190711" lon="-4.491735007613897">
        <ele>20.809999999999999</ele>
        <time>2018-07-06T11:39:23Z</time>
      </trkpt>
      <trkpt lat="48.381786961108446" lon="-4.49169703759253">
        <ele>20.32</ele>
        <time>2018-07-06T11:39:24Z</time>
      </trkpt>
      <trkpt lat="48.38177296333015" lon="-4.491626964882016">
        <ele>20.32</ele>
        <time>2018-07-06T11:39:25Z</time>
      </trkpt>
      <trkpt lat="48.381785033270717" lon="-4.491560999304056">
        <ele>19.84</ele>
        <time>2018-07-06T11:39:26Z</time>
      </trkpt>
      <trkpt lat="48.381801964715123" lon="-4.491467960178852">
        <ele>19.359999999999999</ele>
        <time>2018-07-06T11:39:27Z</time>
      </trkpt>
      <trkpt lat="48.38181596249342" lon="-4.491390008479357">
        <ele>18.879999999999999</ele>
        <time>2018-07-06T11:39:28Z</time>
      </trkpt>
      <trkpt lat="48.381845969706774" lon="-4.491309961304069">
        <ele>18.879999999999999</ele>
        <time>2018-07-06T11:39:29Z</time>
      </trkpt>
      <trkpt lat="48.381873965263367" lon="-4.491236032918096">
        <ele>18.399999999999999</ele>
        <time>2018-07-06T11:39:30Z</time>
      </trkpt>
      <trkpt lat="48.381897015497088" lon="-4.491173001006246">
        <ele>18.399999999999999</ele>
        <time>2018-07-06T11:39:31Z</time>
      </trkpt>
      <trkpt lat="48.381915958598256" lon="-4.491124972701073">
        <ele>18.399999999999999</ele>
        <time>2018-07-06T11:39:32Z</time>
      </trkpt>
      <trkpt lat="48.381947977468371" lon="-4.491037968546152">
        <ele>18.879999999999999</ele>
        <time>2018-07-06T11:39:41Z</time>
      </trkpt>
      <trkpt lat="48.381993994116783" lon="-4.490915006026626">
        <ele>19.359999999999999</ele>
        <time>2018-07-06T11:39:56Z</time>
      </trkpt>
      <trkpt lat="48.38200899772346" lon="-4.490874018520117">
        <ele>19.84</ele>
        <time>2018-07-06T11:39:58Z</time>
      </trkpt>
      <trkpt lat="48.382013021036983" lon="-4.490864966064692">
        <ele>20.32</ele>
        <time>2018-07-06T11:39:59Z</time>
      </trkpt>
      <trkpt lat="48.382013021036983" lon="-4.490864966064692">
        <ele>20.32</ele>
        <time>2018-07-06T11:40:00Z</time>
      </trkpt>
      <trkpt lat="48.382013021036983" lon="-4.490864966064692">
        <ele>20.809999999999999</ele>
        <time>2018-07-06T11:40:15Z</time>
      </trkpt>
      <trkpt lat="48.382013021036983" lon="-4.490864966064692">
        <ele>20.809999999999999</ele>
        <time>2018-07-06T11:40:30Z</time>
      </trkpt>
      <trkpt lat="48.382013021036983" lon="-4.490864966064692">
        <ele>20.809999999999999</ele>
        <time>2018-07-06T11:40:54Z</time>
      </trkpt>
      <trkpt lat="48.382013021036983" lon="-4.490864966064692">
        <ele>20.809999999999999</ele>
        <time>2018-07-06T11:41:20Z</time>
      </trkpt>
      <trkpt lat="48.382013021036983" lon="-4.490864966064692">
        <ele>21.289999999999999</ele>
        <time>2018-07-06T11:42:04Z</time>
      </trkpt>
      <trkpt lat="48.382013021036983" lon="-4.490864966064692">
        <ele>21.77</ele>
        <time>2018-07-06T11:42:42Z</time>
      </trkpt>
    </trkseg>
  </trk>

  <trk>
    <name>Track vom: 2018-07-06 13:43</name>
    <extensions>
      <gpxx:TrackExtension>
        <gpxx:DisplayColor>DarkGray</gpxx:DisplayColor>
      </gpxx:TrackExtension>
    </extensions>
    <trkseg>
      <trkpt lat="48.382013021036983" lon="-4.490864966064692">
        <ele>22.73</ele>
        <time>2018-07-06T11:43:08Z</time>
      </trkpt>
      <trkpt lat="48.382006986066699" lon="-4.490880975499749">
        <ele>22.73</ele>
        <time>2018-07-06T11:43:28Z</time>
      </trkpt>
      <trkpt lat="48.382091978564858" lon="-4.490650976076722">
        <ele>22.25</ele>
        <time>2018-07-06T11:43:32Z</time>
      </trkpt>
      <trkpt lat="48.382448041811585" lon="-4.489669958129525">
        <ele>19.84</ele>
        <time>2018-07-06T11:43:40Z</time>
      </trkpt>
      <trkpt lat="48.382898988202214" lon="-4.488303959369659">
        <ele>14.08</ele>
        <time>2018-07-06T11:43:51Z</time>
      </trkpt>
      <trkpt lat="48.382893037050962" lon="-4.488027021288872">
        <ele>11.67</ele>
        <time>2018-07-06T11:43:57Z</time>
      </trkpt>
      <trkpt lat="48.382908962666988" lon="-4.487973041832447">
        <ele>11.67</ele>
        <time>2018-07-06T11:43:58Z</time>
      </trkpt>
      <trkpt lat="48.382924972102046" lon="-4.487915961071849">
        <ele>11.19</ele>
        <time>2018-07-06T11:43:59Z</time>
      </trkpt>
      <trkpt lat="48.38303997181356" lon="-4.487755028530955">
        <ele>10.23</ele>
        <time>2018-07-06T11:44:02Z</time>
      </trkpt>
      <trkpt lat="48.383058998733759" lon="-4.487674981355667">
        <ele>10.23</ele>
        <time>2018-07-06T11:44:03Z</time>
      </trkpt>
      <trkpt lat="48.383081965148449" lon="-4.487581020221114">
        <ele>10.23</ele>
        <time>2018-07-06T11:44:04Z</time>
      </trkpt>
      <trkpt lat="48.383106021210551" lon="-4.487480018287897">
        <ele>10.23</ele>
        <time>2018-07-06T11:44:05Z</time>
      </trkpt>
      <trkpt lat="48.383133010938764" lon="-4.487370969727635">
        <ele>10.23</ele>
        <time>2018-07-06T11:44:06Z</time>
      </trkpt>
      <trkpt lat="48.383376002311707" lon="-4.486269000917673">
        <ele>13.119999999999999</ele>
        <time>2018-07-06T11:44:15Z</time>
      </trkpt>
      <trkpt lat="48.383428975939751" lon="-4.486160036176443">
        <ele>14.08</ele>
        <time>2018-07-06T11:44:16Z</time>
      </trkpt>
      <trkpt lat="48.383486978709698" lon="-4.486057022586465">
        <ele>14.56</ele>
        <time>2018-07-06T11:44:17Z</time>
      </trkpt>
      <trkpt lat="48.384043034166098" lon="-4.485005009919405">
        <ele>19.84</ele>
        <time>2018-07-06T11:44:26Z</time>
      </trkpt>
      <trkpt lat="48.384544020518661" lon="-4.483520993962884">
        <ele>24.649999999999999</ele>
        <time>2018-07-06T11:44:36Z</time>
      </trkpt>
      <trkpt lat="48.384790029376745" lon="-4.483142970129848">
        <ele>26.57</ele>
        <time>2018-07-06T11:44:39Z</time>
      </trkpt>
      <trkpt lat="48.384874016046524" lon="-4.483042974025011">
        <ele>27.530000000000001</ele>
        <time>2018-07-06T11:44:40Z</time>
      </trkpt>
      <trkpt lat="48.384974012151361" lon="-4.482972985133529">
        <ele>28.5</ele>
        <time>2018-07-06T11:44:41Z</time>
      </trkpt>
      <trkpt lat="48.386090984568" lon="-4.482453977689147">
        <ele>39.07</ele>
        <time>2018-07-06T11:44:52Z</time>
      </trkpt>
      <trkpt lat="48.386819958686829" lon="-4.482191037386656">
        <ele>45.32</ele>
        <time>2018-07-06T11:45:00Z</time>
      </trkpt>
      <trkpt lat="48.38714299723506" lon="-4.482220960780978">
        <ele>49.649999999999999</ele>
        <time>2018-07-06T11:45:07Z</time>
      </trkpt>
      <trkpt lat="48.387179961428046" lon="-4.482177039608359">
        <ele>50.609999999999999</ele>
        <time>2018-07-06T11:45:08Z</time>
      </trkpt>
      <trkpt lat="48.3872099686414" lon="-4.482142003253102">
        <ele>51.090000000000003</ele>
        <time>2018-07-06T11:45:09Z</time>
      </trkpt>
      <trkpt lat="48.387243999168277" lon="-4.482100009918213">
        <ele>51.57</ele>
        <time>2018-07-06T11:45:10Z</time>
      </trkpt>
      <trkpt lat="48.387243999168277" lon="-4.482100009918213">
        <ele>52.049999999999997</ele>
        <time>2018-07-06T11:45:11Z</time>
      </trkpt>
      <trkpt lat="48.387243999168277" lon="-4.482100009918213">
        <ele>53.490000000000002</ele>
        <time>2018-07-06T11:45:18Z</time>
      </trkpt>
      <trkpt lat="48.387297978624701" lon="-4.482128005474806">
        <ele>54.93</ele>
        <time>2018-07-06T11:45:20Z</time>
      </trkpt>
      <trkpt lat="48.387339971959591" lon="-4.482149966061115">
        <ele>55.409999999999997</ele>
        <time>2018-07-06T11:45:21Z</time>
      </trkpt>
      <trkpt lat="48.387534013018012" lon="-4.482250967994332">
        <ele>56.369999999999997</ele>
        <time>2018-07-06T11:45:25Z</time>
      </trkpt>
      <trkpt lat="48.387582041323185" lon="-4.482277035713196">
        <ele>56.859999999999999</ele>
        <time>2018-07-06T11:45:26Z</time>
      </trkpt>
      <trkpt lat="48.387624034658074" lon="-4.482297990471125">
        <ele>56.859999999999999</ele>
        <time>2018-07-06T11:45:27Z</time>
      </trkpt>
      <trkpt lat="48.387665022164583" lon="-4.482320034876466">
        <ele>57.340000000000003</ele>
        <time>2018-07-06T11:45:28Z</time>
      </trkpt>
      <trkpt lat="48.387711960822344" lon="-4.482344007119536">
        <ele>57.340000000000003</ele>
        <time>2018-07-06T11:45:29Z</time>
      </trkpt>
      <trkpt lat="48.387740040197968" lon="-4.482365967705846">
        <ele>57.340000000000003</ele>
        <time>2018-07-06T11:45:30Z</time>
      </trkpt>
      <trkpt lat="48.387759989127517" lon="-4.482435034587979">
        <ele>57.340000000000003</ele>
        <time>2018-07-06T11:45:31Z</time>
      </trkpt>
      <trkpt lat="48.387781027704477" lon="-4.482508040964603">
        <ele>57.340000000000003</ele>
        <time>2018-07-06T11:45:32Z</time>
      </trkpt>
      <trkpt lat="48.387807011604309" lon="-4.482570989057422">
        <ele>57.340000000000003</ele>
        <time>2018-07-06T11:45:33Z</time>
      </trkpt>
      <trkpt lat="48.38783098384738" lon="-4.482628991827369">
        <ele>57.340000000000003</ele>
        <time>2018-07-06T11:45:34Z</time>
      </trkpt>
      <trkpt lat="48.387855961918831" lon="-4.482689006254077">
        <ele>56.859999999999999</ele>
        <time>2018-07-06T11:45:35Z</time>
      </trkpt>
      <trkpt lat="48.387887980788946" lon="-4.482765030115843">
        <ele>56.859999999999999</ele>
        <time>2018-07-06T11:45:36Z</time>
      </trkpt>
      <trkpt lat="48.387902984395623" lon="-4.48278296738863">
        <ele>56.859999999999999</ele>
        <time>2018-07-06T11:45:37Z</time>
      </trkpt>
      <trkpt lat="48.387927962467074" lon="-4.482810962945223">
        <ele>56.859999999999999</ele>
        <time>2018-07-06T11:45:38Z</time>
      </trkpt>
      <trkpt lat="48.387955036014318" lon="-4.482841975986958">
        <ele>56.859999999999999</ele>
        <time>2018-07-06T11:45:39Z</time>
      </trkpt>
      <trkpt lat="48.387986971065402" lon="-4.482879023998976">
        <ele>56.859999999999999</ele>
        <time>2018-07-06T11:45:40Z</time>
      </trkpt>
      <trkpt lat="48.388015972450376" lon="-4.482912970706821">
        <ele>56.859999999999999</ele>
        <time>2018-07-06T11:45:41Z</time>
      </trkpt>
      <trkpt lat="48.388048997148871" lon="-4.482951024547219">
        <ele>56.859999999999999</ele>
        <time>2018-07-06T11:45:42Z</time>
      </trkpt>
      <trkpt lat="48.388094007968903" lon="-4.483002992346883">
        <ele>57.340000000000003</ele>
        <time>2018-07-06T11:45:43Z</time>
      </trkpt>
      <trkpt lat="48.388140024617314" lon="-4.483055965974927">
        <ele>57.340000000000003</ele>
        <time>2018-07-06T11:45:44Z</time>
      </trkpt>
      <trkpt lat="48.388183023780584" lon="-4.483105000108481">
        <ele>57.340000000000003</ele>
        <time>2018-07-06T11:45:45Z</time>
      </trkpt>
      <trkpt lat="48.388436995446682" lon="-4.483399037271738">
        <ele>58.299999999999997</ele>
        <time>2018-07-06T11:45:51Z</time>
      </trkpt>
      <trkpt lat="48.388485023751855" lon="-4.483449999243021">
        <ele>58.780000000000001</ele>
        <time>2018-07-06T11:45:52Z</time>
      </trkpt>
      <trkpt lat="48.388601029291749" lon="-4.483572039753199">
        <ele>60.219999999999999</ele>
        <time>2018-07-06T11:45:59Z</time>
      </trkpt>
      <trkpt lat="48.388742012903094" lon="-4.483718974515796">
        <ele>60.219999999999999</ele>
        <time>2018-07-06T11:46:08Z</time>
      </trkpt>
      <trkpt lat="48.388825999572873" lon="-4.483807990327478">
        <ele>60.219999999999999</ele>
        <time>2018-07-06T11:46:10Z</time>
      </trkpt>
      <trkpt lat="48.38892599567771" lon="-4.483919972553849">
        <ele>61.18</ele>
        <time>2018-07-06T11:46:12Z</time>
      </trkpt>
      <trkpt lat="48.38897000066936" lon="-4.483977975323796">
        <ele>61.18</ele>
        <time>2018-07-06T11:46:13Z</time>
      </trkpt>
      <trkpt lat="48.389125987887383" lon="-4.484181990846992">
        <ele>61.659999999999997</ele>
        <time>2018-07-06T11:46:19Z</time>
      </trkpt>
      <trkpt lat="48.389310976490378" lon="-4.484429005533457">
        <ele>62.140000000000001</ele>
        <time>2018-07-06T11:46:29Z</time>
      </trkpt>
      <trkpt lat="48.389646001160145" lon="-4.48499402962625">
        <ele>61.18</ele>
        <time>2018-07-06T11:46:36Z</time>
      </trkpt>
      <trkpt lat="48.389712972566485" lon="-4.485112968832254">
        <ele>59.259999999999998</ele>
        <time>2018-07-06T11:46:44Z</time>
      </trkpt>
      <trkpt lat="48.389840964227915" lon="-4.485340034589171">
        <ele>59.259999999999998</ele>
        <time>2018-07-06T11:47:05Z</time>
      </trkpt>
      <trkpt lat="48.390002986416221" lon="-4.485778994858265">
        <ele>60.219999999999999</ele>
        <time>2018-07-06T11:47:10Z</time>
      </trkpt>
      <trkpt lat="48.390043973922729" lon="-4.48585401289165">
        <ele>60.219999999999999</ele>
        <time>2018-07-06T11:47:11Z</time>
      </trkpt>
      <trkpt lat="48.390082027763128" lon="-4.485921990126371">
        <ele>60.219999999999999</ele>
        <time>2018-07-06T11:47:12Z</time>
      </trkpt>
      <trkpt lat="48.390199961140752" lon="-4.486135980114341">
        <ele>60.700000000000003</ele>
        <time>2018-07-06T11:47:20Z</time>
      </trkpt>
      <trkpt lat="48.390301968902349" lon="-4.486320968717337">
        <ele>61.18</ele>
        <time>2018-07-06T11:47:33Z</time>
      </trkpt>
      <trkpt lat="48.390626013278961" lon="-4.486910970881581">
        <ele>59.740000000000002</ele>
        <time>2018-07-06T11:47:41Z</time>
      </trkpt>
      <trkpt lat="48.391001019626856" lon="-4.487496027722955">
        <ele>59.740000000000002</ele>
        <time>2018-07-06T11:47:50Z</time>
      </trkpt>
      <trkpt lat="48.391061034053564" lon="-4.487599963322282">
        <ele>59.259999999999998</ele>
        <time>2018-07-06T11:47:57Z</time>
      </trkpt>
      <trkpt lat="48.391189025714993" lon="-4.487823005765677">
        <ele>59.259999999999998</ele>
        <time>2018-07-06T11:48:07Z</time>
      </trkpt>
      <trkpt lat="48.391189025714993" lon="-4.487823005765677">
        <ele>58.780000000000001</ele>
        <time>2018-07-06T11:48:20Z</time>
      </trkpt>
      <trkpt lat="48.391327997669578" lon="-4.488015035167337">
        <ele>59.740000000000002</ele>
        <time>2018-07-06T11:48:31Z</time>
      </trkpt>
      <trkpt lat="48.391351969912648" lon="-4.488061973825097">
        <ele>61.659999999999997</ele>
        <time>2018-07-06T11:48:36Z</time>
      </trkpt>
      <trkpt lat="48.391351969912648" lon="-4.488061973825097">
        <ele>61.659999999999997</ele>
        <time>2018-07-06T11:48:37Z</time>
      </trkpt>
      <trkpt lat="48.391351969912648" lon="-4.488061973825097">
        <ele>62.140000000000001</ele>
        <time>2018-07-06T11:48:38Z</time>
      </trkpt>
      <trkpt lat="48.391373008489609" lon="-4.488104972988367">
        <ele>62.619999999999997</ele>
        <time>2018-07-06T11:48:39Z</time>
      </trkpt>
      <trkpt lat="48.391422964632511" lon="-4.488164987415075">
        <ele>62.619999999999997</ele>
        <time>2018-07-06T11:48:40Z</time>
      </trkpt>
      <trkpt lat="48.391439979895949" lon="-4.488156018778682">
        <ele>62.140000000000001</ele>
        <time>2018-07-06T11:48:41Z</time>
      </trkpt>
      <trkpt lat="48.391602002084255" lon="-4.487933982163668">
        <ele>62.140000000000001</ele>
        <time>2018-07-06T11:48:53Z</time>
      </trkpt>
      <trkpt lat="48.391780033707619" lon="-4.487736001610756">
        <ele>61.659999999999997</ele>
        <time>2018-07-06T11:49:02Z</time>
      </trkpt>
      <trkpt lat="48.391933003440499" lon="-4.487583031877875">
        <ele>62.140000000000001</ele>
        <time>2018-07-06T11:49:10Z</time>
      </trkpt>
      <trkpt lat="48.391980025917292" lon="-4.487535003572702">
        <ele>62.140000000000001</ele>
        <time>2018-07-06T11:49:11Z</time>
      </trkpt>
      <trkpt lat="48.392028976231813" lon="-4.48746400885284">
        <ele>62.619999999999997</ele>
        <time>2018-07-06T11:49:12Z</time>
      </trkpt>
      <trkpt lat="48.392137018963695" lon="-4.48755000717938">
        <ele>62.619999999999997</ele>
        <time>2018-07-06T11:49:13Z</time>
      </trkpt>
      <trkpt lat="48.392163002863526" lon="-4.48755000717938">
        <ele>62.619999999999997</ele>
        <time>2018-07-06T11:49:14Z</time>
      </trkpt>
      <trkpt lat="48.392890971153975" lon="-4.487761985510588">
        <ele>65.989999999999995</ele>
        <time>2018-07-06T11:49:24Z</time>
      </trkpt>
      <trkpt lat="48.393160030245781" lon="-4.487835997715592">
        <ele>67.430000000000007</ele>
        <time>2018-07-06T11:49:28Z</time>
      </trkpt>
      <trkpt lat="48.393231024965644" lon="-4.48785200715065">
        <ele>67.909999999999997</ele>
        <time>2018-07-06T11:49:29Z</time>
      </trkpt>
      <trkpt lat="48.393304031342268" lon="-4.487869022414088">
        <ele>68.390000000000001</ele>
        <time>2018-07-06T11:49:30Z</time>
      </trkpt>
      <trkpt lat="48.394203996285796" lon="-4.488119976595044">
        <ele>73.680000000000007</ele>
        <time>2018-07-06T11:49:41Z</time>
      </trkpt>
      <trkpt lat="48.394409017637372" lon="-4.488182002678514">
        <ele>74.640000000000001</ele>
        <time>2018-07-06T11:49:43Z</time>
      </trkpt>
      <trkpt lat="48.395520960912108" lon="-4.488509986549616">
        <ele>80.890000000000001</ele>
        <time>2018-07-06T11:49:54Z</time>
      </trkpt>
      <trkpt lat="48.396216994151473" lon="-4.488686006516218">
        <ele>79.930000000000007</ele>
        <time>2018-07-06T11:50:02Z</time>
      </trkpt>
      <trkpt lat="48.39629502967" lon="-4.488705033436418">
        <ele>79.450000000000003</ele>
        <time>2018-07-06T11:50:03Z</time>
      </trkpt>
      <trkpt lat="48.396454034373164" lon="-4.488743003457785">
        <ele>78.480000000000004</ele>
        <time>2018-07-06T11:50:05Z</time>
      </trkpt>
      <trkpt lat="48.396533997729421" lon="-4.488763036206365">
        <ele>78.480000000000004</ele>
        <time>2018-07-06T11:50:06Z</time>
      </trkpt>
      <trkpt lat="48.397102961316705" lon="-4.488915000110865">
        <ele>74.159999999999997</ele>
        <time>2018-07-06T11:50:15Z</time>
      </trkpt>
      <trkpt lat="48.397184014320374" lon="-4.488945007324219">
        <ele>73.200000000000003</ele>
        <time>2018-07-06T11:50:24Z</time>
      </trkpt>
      <trkpt lat="48.397385012358427" lon="-4.488974008709192">
        <ele>72.239999999999995</ele>
        <time>2018-07-06T11:50:51Z</time>
      </trkpt>
      <trkpt lat="48.397510992363095" lon="-4.488980965688825">
        <ele>71.760000000000005</ele>
        <time>2018-07-06T11:50:53Z</time>
      </trkpt>
      <trkpt lat="48.397581987082958" lon="-4.488983983173966">
        <ele>71.760000000000005</ele>
        <time>2018-07-06T11:50:54Z</time>
      </trkpt>
      <trkpt lat="48.397856997326016" lon="-4.488859008997679">
        <ele>71.760000000000005</ele>
        <time>2018-07-06T11:50:58Z</time>
      </trkpt>
      <trkpt lat="48.39790896512568" lon="-4.488816009834409">
        <ele>71.269999999999996</ele>
        <time>2018-07-06T11:50:59Z</time>
      </trkpt>
      <trkpt lat="48.397955987602472" lon="-4.488743003457785">
        <ele>71.269999999999996</ele>
        <time>2018-07-06T11:51:00Z</time>
      </trkpt>
      <trkpt lat="48.398004015907645" lon="-4.488667985424399">
        <ele>71.269999999999996</ele>
        <time>2018-07-06T11:51:01Z</time>
      </trkpt>
      <trkpt lat="48.398054977878928" lon="-4.488588022068143">
        <ele>70.790000000000006</ele>
        <time>2018-07-06T11:51:02Z</time>
      </trkpt>
      <trkpt lat="48.398110968992114" lon="-4.488502023741603">
        <ele>70.790000000000006</ele>
        <time>2018-07-06T11:51:03Z</time>
      </trkpt>
      <trkpt lat="48.398299980908632" lon="-4.488206980749965">
        <ele>70.310000000000002</ele>
        <time>2018-07-06T11:51:06Z</time>
      </trkpt>
      <trkpt lat="48.398367958143353" lon="-4.488100027665496">
        <ele>70.310000000000002</ele>
        <time>2018-07-06T11:51:07Z</time>
      </trkpt>
      <trkpt lat="48.398434007540345" lon="-4.487997014075518">
        <ele>70.310000000000002</ele>
        <time>2018-07-06T11:51:08Z</time>
      </trkpt>
      <trkpt lat="48.399269012734294" lon="-4.486651970073581">
        <ele>65.510000000000005</ele>
        <time>2018-07-06T11:51:21Z</time>
      </trkpt>
      <trkpt lat="48.399514015763998" lon="-4.486252991482616">
        <ele>62.619999999999997</ele>
        <time>2018-07-06T11:51:26Z</time>
      </trkpt>
      <trkpt lat="48.39956103824079" lon="-4.48617696762085">
        <ele>60.219999999999999</ele>
        <time>2018-07-06T11:51:34Z</time>
      </trkpt>
      <trkpt lat="48.39956103824079" lon="-4.48617696762085">
        <ele>60.219999999999999</ele>
        <time>2018-07-06T11:52:08Z</time>
      </trkpt>
      <trkpt lat="48.399680983275175" lon="-4.48611100204289">
        <ele>59.259999999999998</ele>
        <time>2018-07-06T11:52:10Z</time>
      </trkpt>
      <trkpt lat="48.400164032354951" lon="-4.485486969351769">
        <ele>58.780000000000001</ele>
        <time>2018-07-06T11:52:17Z</time>
      </trkpt>
      <trkpt lat="48.401015968993306" lon="-4.484210992231965">
        <ele>60.700000000000003</ele>
        <time>2018-07-06T11:52:30Z</time>
      </trkpt>
      <trkpt lat="48.401918029412627" lon="-4.482941972091794">
        <ele>67.909999999999997</ele>
        <time>2018-07-06T11:52:44Z</time>
      </trkpt>
      <trkpt lat="48.402529992163181" lon="-4.482070002704859">
        <ele>69.829999999999998</ele>
        <time>2018-07-06T11:52:54Z</time>
      </trkpt>
      <trkpt lat="48.403286039829254" lon="-4.480950012803078">
        <ele>69.829999999999998</ele>
        <time>2018-07-06T11:53:04Z</time>
      </trkpt>
      <trkpt lat="48.403892973437905" lon="-4.48005398735404">
        <ele>69.829999999999998</ele>
        <time>2018-07-06T11:53:12Z</time>
      </trkpt>
      <trkpt lat="48.404643991962075" lon="-4.478943971917033">
        <ele>68.390000000000001</ele>
        <time>2018-07-06T11:53:22Z</time>
      </trkpt>
      <trkpt lat="48.404714986681938" lon="-4.478834001347423">
        <ele>68.390000000000001</ele>
        <time>2018-07-06T11:53:23Z</time>
      </trkpt>
      <trkpt lat="48.404784975573421" lon="-4.478726964443922">
        <ele>68.390000000000001</ele>
        <time>2018-07-06T11:53:24Z</time>
      </trkpt>
      <trkpt lat="48.405012963339686" lon="-4.478379031643271">
        <ele>67.909999999999997</ele>
        <time>2018-07-06T11:53:30Z</time>
      </trkpt>
      <trkpt lat="48.405052023008466" lon="-4.478319017216563">
        <ele>66.469999999999999</ele>
        <time>2018-07-06T11:53:41Z</time>
      </trkpt>
      <trkpt lat="48.405160987749696" lon="-4.478151965886354">
        <ele>65.030000000000001</ele>
        <time>2018-07-06T11:53:48Z</time>
      </trkpt>
      <trkpt lat="48.405269030481577" lon="-4.478002013638616">
        <ele>65.030000000000001</ele>
        <time>2018-07-06T11:53:49Z</time>
      </trkpt>
      <trkpt lat="48.405269030481577" lon="-4.478002013638616">
        <ele>64.549999999999997</ele>
        <time>2018-07-06T11:53:50Z</time>
      </trkpt>
      <trkpt lat="48.405317980796099" lon="-4.47792598977685">
        <ele>64.549999999999997</ele>
        <time>2018-07-06T11:53:51Z</time>
      </trkpt>
      <trkpt lat="48.405375983566046" lon="-4.477837979793549">
        <ele>64.549999999999997</ele>
        <time>2018-07-06T11:53:52Z</time>
      </trkpt>
      <trkpt lat="48.405438009649515" lon="-4.477743012830615">
        <ele>64.549999999999997</ele>
        <time>2018-07-06T11:53:53Z</time>
      </trkpt>
      <trkpt lat="48.406052989885211" lon="-4.476799964904785">
        <ele>65.989999999999995</ele>
        <time>2018-07-06T11:54:04Z</time>
      </trkpt>
      <trkpt lat="48.406089032068849" lon="-4.476737016811967">
        <ele>65.989999999999995</ele>
        <time>2018-07-06T11:54:05Z</time>
      </trkpt>
      <trkpt lat="48.406124990433455" lon="-4.476674990728498">
        <ele>65.989999999999995</ele>
        <time>2018-07-06T11:54:06Z</time>
      </trkpt>
      <trkpt lat="48.406129013746977" lon="-4.47652998380363">
        <ele>65.989999999999995</ele>
        <time>2018-07-06T11:54:07Z</time>
      </trkpt>
      <trkpt lat="48.406170001253486" lon="-4.476499976590276">
        <ele>66.469999999999999</ele>
        <time>2018-07-06T11:54:08Z</time>
      </trkpt>
      <trkpt lat="48.40626697987318" lon="-4.476468963548541">
        <ele>66.469999999999999</ele>
        <time>2018-07-06T11:54:09Z</time>
      </trkpt>
      <trkpt lat="48.406326994299889" lon="-4.476385982707143">
        <ele>66.469999999999999</ele>
        <time>2018-07-06T11:54:10Z</time>
      </trkpt>
      <trkpt lat="48.406387008726597" lon="-4.476303001865745">
        <ele>66.469999999999999</ele>
        <time>2018-07-06T11:54:11Z</time>
      </trkpt>
      <trkpt lat="48.406449034810066" lon="-4.476218009367585">
        <ele>66.469999999999999</ele>
        <time>2018-07-06T11:54:12Z</time>
      </trkpt>
      <trkpt lat="48.406769977882504" lon="-4.475678969174624">
        <ele>65.510000000000005</ele>
        <time>2018-07-06T11:54:18Z</time>
      </trkpt>
      <trkpt lat="48.406852036714554" lon="-4.475501021370292">
        <ele>65.030000000000001</ele>
        <time>2018-07-06T11:54:20Z</time>
      </trkpt>
      <trkpt lat="48.407054040580988" lon="-4.474118007346988">
        <ele>64.069999999999993</ele>
        <time>2018-07-06T11:54:30Z</time>
      </trkpt>
      <trkpt lat="48.407476991415024" lon="-4.47259702719748">
        <ele>66.950000000000003</ele>
        <time>2018-07-06T11:54:41Z</time>
      </trkpt>
      <trkpt lat="48.408107981085777" lon="-4.4705790001899">
        <ele>75.120000000000005</ele>
        <time>2018-07-06T11:54:55Z</time>
      </trkpt>
      <trkpt lat="48.408419033512473" lon="-4.469257006421685">
        <ele>75.120000000000005</ele>
        <time>2018-07-06T11:55:05Z</time>
      </trkpt>
      <trkpt lat="48.408459015190601" lon="-4.469062965363264">
        <ele>75.120000000000005</ele>
        <time>2018-07-06T11:55:07Z</time>
      </trkpt>
      <trkpt lat="48.40847603045404" lon="-4.468980990350246">
        <ele>75.599999999999994</ele>
        <time>2018-07-06T11:55:08Z</time>
      </trkpt>
      <trkpt lat="48.408487010747194" lon="-4.468924999237061">
        <ele>75.599999999999994</ele>
        <time>2018-07-06T11:55:09Z</time>
      </trkpt>
      <trkpt lat="48.408596981316805" lon="-4.468337008729577">
        <ele>78</ele>
        <time>2018-07-06T11:55:18Z</time>
      </trkpt>
      <trkpt lat="48.408610979095101" lon="-4.468280011788011">
        <ele>78.480000000000004</ele>
        <time>2018-07-06T11:55:19Z</time>
      </trkpt>
      <trkpt lat="48.408590024337173" lon="-4.468196025118232">
        <ele>78.480000000000004</ele>
        <time>2018-07-06T11:55:20Z</time>
      </trkpt>
      <trkpt lat="48.408593041822314" lon="-4.468083959072828">
        <ele>78.969999999999999</ele>
        <time>2018-07-06T11:55:21Z</time>
      </trkpt>
      <trkpt lat="48.408622965216637" lon="-4.468013970181346">
        <ele>78.969999999999999</ele>
        <time>2018-07-06T11:55:22Z</time>
      </trkpt>
      <trkpt lat="48.40865196660161" lon="-4.467937024310231">
        <ele>79.450000000000003</ele>
        <time>2018-07-06T11:55:23Z</time>
      </trkpt>
      <trkpt lat="48.408673005178571" lon="-4.467874998226762">
        <ele>79.450000000000003</ele>
        <time>2018-07-06T11:55:24Z</time>
      </trkpt>
      <trkpt lat="48.408684991300106" lon="-4.467837028205395">
        <ele>79.930000000000007</ele>
        <time>2018-07-06T11:55:25Z</time>
      </trkpt>
      <trkpt lat="48.408720027655363" lon="-4.467722028493881">
        <ele>80.409999999999997</ele>
        <time>2018-07-06T11:55:29Z</time>
      </trkpt>
      <trkpt lat="48.408738970756531" lon="-4.467651033774018">
        <ele>80.890000000000001</ele>
        <time>2018-07-06T11:55:30Z</time>
      </trkpt>
      <trkpt lat="48.408966958522797" lon="-4.466775041073561">
        <ele>82.329999999999998</ele>
        <time>2018-07-06T11:55:39Z</time>
      </trkpt>
      <trkpt lat="48.408981040120125" lon="-4.466715026646853">
        <ele>82.329999999999998</ele>
        <time>2018-07-06T11:55:40Z</time>
      </trkpt>
      <trkpt lat="48.409044994041324" lon="-4.466543029993773">
        <ele>82.810000000000002</ele>
        <time>2018-07-06T11:55:41Z</time>
      </trkpt>
      <trkpt lat="48.409284967929125" lon="-4.465504009276629">
        <ele>83.769999999999996</ele>
        <time>2018-07-06T11:55:49Z</time>
      </trkpt>
      <trkpt lat="48.409671038389206" lon="-4.464210011065006">
        <ele>83.290000000000006</ele>
        <time>2018-07-06T11:55:59Z</time>
      </trkpt>
      <trkpt lat="48.409819984808564" lon="-4.463539039716125">
        <ele>80.890000000000001</ele>
        <time>2018-07-06T11:56:04Z</time>
      </trkpt>
      <trkpt lat="48.409830965101719" lon="-4.463425967842341">
        <ele>80.409999999999997</ele>
        <time>2018-07-06T11:56:05Z</time>
      </trkpt>
      <trkpt lat="48.409839011728764" lon="-4.463238967582583">
        <ele>78.969999999999999</ele>
        <time>2018-07-06T11:56:07Z</time>
      </trkpt>
      <trkpt lat="48.409940013661981" lon="-4.463165961205959">
        <ele>78</ele>
        <time>2018-07-06T11:56:08Z</time>
      </trkpt>
      <trkpt lat="48.410232039168477" lon="-4.462099028751254">
        <ele>76.079999999999998</ele>
        <time>2018-07-06T11:56:17Z</time>
      </trkpt>
      <trkpt lat="48.410371011123061" lon="-4.461560994386673">
        <ele>74.640000000000001</ele>
        <time>2018-07-06T11:56:22Z</time>
      </trkpt>
      <trkpt lat="48.410398000851274" lon="-4.461460998281837">
        <ele>74.159999999999997</ele>
        <time>2018-07-06T11:56:23Z</time>
      </trkpt>
      <trkpt lat="48.410537978634238" lon="-4.460934028029442">
        <ele>71.760000000000005</ele>
        <time>2018-07-06T11:56:29Z</time>
      </trkpt>
      <trkpt lat="48.410633029416203" lon="-4.460557010024786">
        <ele>70.310000000000002</ele>
        <time>2018-07-06T11:56:33Z</time>
      </trkpt>
      <trkpt lat="48.410646021366119" lon="-4.460506970062852">
        <ele>70.310000000000002</ele>
        <time>2018-07-06T11:56:34Z</time>
      </trkpt>
      <trkpt lat="48.410687008872628" lon="-4.460348971188068">
        <ele>68.870000000000005</ele>
        <time>2018-07-06T11:56:36Z</time>
      </trkpt>
      <trkpt lat="48.410707041621208" lon="-4.460274036973715">
        <ele>68.390000000000001</ele>
        <time>2018-07-06T11:56:37Z</time>
      </trkpt>
      <trkpt lat="48.410994037985802" lon="-4.459171984344721">
        <ele>65.030000000000001</ele>
        <time>2018-07-06T11:56:50Z</time>
      </trkpt>
      <trkpt lat="48.411022033542395" lon="-4.459063019603491">
        <ele>64.549999999999997</ele>
        <time>2018-07-06T11:56:51Z</time>
      </trkpt>
      <trkpt lat="48.411070983856916" lon="-4.458852969110012">
        <ele>64.549999999999997</ele>
        <time>2018-07-06T11:56:53Z</time>
      </trkpt>
      <trkpt lat="48.411191012710333" lon="-4.458304038271308">
        <ele>63.100000000000001</ele>
        <time>2018-07-06T11:56:59Z</time>
      </trkpt>
      <trkpt lat="48.411215990781784" lon="-4.458213010802865">
        <ele>62.619999999999997</ele>
        <time>2018-07-06T11:57:00Z</time>
      </trkpt>
      <trkpt lat="48.411287991330028" lon="-4.457948980852962">
        <ele>62.140000000000001</ele>
        <time>2018-07-06T11:57:03Z</time>
      </trkpt>
      <trkpt lat="48.411325961351395" lon="-4.457809003069997">
        <ele>62.140000000000001</ele>
        <time>2018-07-06T11:57:05Z</time>
      </trkpt>
      <trkpt lat="48.411368038505316" lon="-4.457655027508736">
        <ele>62.619999999999997</ele>
        <time>2018-07-06T11:57:13Z</time>
      </trkpt>
      <trkpt lat="48.411383964121342" lon="-4.457295024767518">
        <ele>62.140000000000001</ele>
        <time>2018-07-06T11:57:18Z</time>
      </trkpt>
      <trkpt lat="48.411383964121342" lon="-4.457295024767518">
        <ele>62.140000000000001</ele>
        <time>2018-07-06T11:57:19Z</time>
      </trkpt>
      <trkpt lat="48.411383964121342" lon="-4.457234004512429">
        <ele>62.140000000000001</ele>
        <time>2018-07-06T11:57:20Z</time>
      </trkpt>
      <trkpt lat="48.411383964121342" lon="-4.457144988700748">
        <ele>62.140000000000001</ele>
        <time>2018-07-06T11:57:21Z</time>
      </trkpt>
      <trkpt lat="48.411512961611152" lon="-4.457058990374208">
        <ele>61.659999999999997</ele>
        <time>2018-07-06T11:57:22Z</time>
      </trkpt>
      <trkpt lat="48.411526959389448" lon="-4.457008028402925">
        <ele>61.659999999999997</ele>
        <time>2018-07-06T11:57:23Z</time>
      </trkpt>
      <trkpt lat="48.411553027108312" lon="-4.456919012591243">
        <ele>61.659999999999997</ele>
        <time>2018-07-06T11:57:24Z</time>
      </trkpt>
      <trkpt lat="48.411578005179763" lon="-4.456831002607942">
        <ele>62.140000000000001</ele>
        <time>2018-07-06T11:57:25Z</time>
      </trkpt>
      <trkpt lat="48.411870030686259" lon="-4.455700032413006">
        <ele>66.950000000000003</ele>
        <time>2018-07-06T11:57:36Z</time>
      </trkpt>
      <trkpt lat="48.412041021510959" lon="-4.455046998336911">
        <ele>70.310000000000002</ele>
        <time>2018-07-06T11:57:41Z</time>
      </trkpt>
      <trkpt lat="48.412075974047184" lon="-4.454913977533579">
        <ele>71.269999999999996</ele>
        <time>2018-07-06T11:57:42Z</time>
      </trkpt>
      <trkpt lat="48.412522980943322" lon="-4.453262994065881">
        <ele>74.159999999999997</ele>
        <time>2018-07-06T11:57:53Z</time>
      </trkpt>
      <trkpt lat="48.412945009768009" lon="-4.45188500918448">
        <ele>74.640000000000001</ele>
        <time>2018-07-06T11:58:04Z</time>
      </trkpt>
      <trkpt lat="48.412960013374686" lon="-4.451831029728055">
        <ele>74.640000000000001</ele>
        <time>2018-07-06T11:58:05Z</time>
      </trkpt>
      <trkpt lat="48.413014998659492" lon="-4.451630031690002">
        <ele>73.680000000000007</ele>
        <time>2018-07-06T11:58:11Z</time>
      </trkpt>
      <trkpt lat="48.413014998659492" lon="-4.451630031690002">
        <ele>73.680000000000007</ele>
        <time>2018-07-06T11:58:12Z</time>
      </trkpt>
      <trkpt lat="48.413014998659492" lon="-4.451630031690002">
        <ele>73.200000000000003</ele>
        <time>2018-07-06T11:58:23Z</time>
      </trkpt>
      <trkpt lat="48.413014998659492" lon="-4.451630031690002">
        <ele>73.200000000000003</ele>
        <time>2018-07-06T11:59:01Z</time>
      </trkpt>
      <trkpt lat="48.413008963689208" lon="-4.451569011434913">
        <ele>73.200000000000003</ele>
        <time>2018-07-06T11:59:03Z</time>
      </trkpt>
      <trkpt lat="48.413004018366337" lon="-4.451529029756784">
        <ele>73.680000000000007</ele>
        <time>2018-07-06T11:59:04Z</time>
      </trkpt>
      <trkpt lat="48.413016004487872" lon="-4.451077999547124">
        <ele>71.269999999999996</ele>
        <time>2018-07-06T11:59:14Z</time>
      </trkpt>
      <trkpt lat="48.413060009479523" lon="-4.450938021764159">
        <ele>70.790000000000006</ele>
        <time>2018-07-06T11:59:23Z</time>
      </trkpt>
      <trkpt lat="48.413083981722593" lon="-4.450858980417252">
        <ele>70.790000000000006</ele>
        <time>2018-07-06T11:59:24Z</time>
      </trkpt>
      <trkpt lat="48.413238041102886" lon="-4.449779978021979">
        <ele>70.310000000000002</ele>
        <time>2018-07-06T11:59:33Z</time>
      </trkpt>
      <trkpt lat="48.413300989195704" lon="-4.449249990284443">
        <ele>70.310000000000002</ele>
        <time>2018-07-06T11:59:37Z</time>
      </trkpt>
      <trkpt lat="48.413318004459143" lon="-4.449112024158239">
        <ele>70.310000000000002</ele>
        <time>2018-07-06T11:59:38Z</time>
      </trkpt>
      <trkpt lat="48.413336025550961" lon="-4.448962993919849">
        <ele>70.790000000000006</ele>
        <time>2018-07-06T11:59:39Z</time>
      </trkpt>
      <trkpt lat="48.4133530408144" lon="-4.44881496950984">
        <ele>70.790000000000006</ele>
        <time>2018-07-06T11:59:40Z</time>
      </trkpt>
      <trkpt lat="48.413371983915567" lon="-4.448659988120198">
        <ele>71.269999999999996</ele>
        <time>2018-07-06T11:59:41Z</time>
      </trkpt>
      <trkpt lat="48.413525959476829" lon="-4.44737495854497">
        <ele>69.349999999999994</ele>
        <time>2018-07-06T11:59:50Z</time>
      </trkpt>
      <trkpt lat="48.413559990003705" lon="-4.446929041296244">
        <ele>68.870000000000005</ele>
        <time>2018-07-06T11:59:53Z</time>
      </trkpt>
      <trkpt lat="48.413598965853453" lon="-4.446627041324973">
        <ele>68.390000000000001</ele>
        <time>2018-07-06T11:59:55Z</time>
      </trkpt>
      <trkpt lat="48.413618998602033" lon="-4.446475999429822">
        <ele>67.909999999999997</ele>
        <time>2018-07-06T11:59:56Z</time>
      </trkpt>
      <trkpt lat="48.413669960573316" lon="-4.446078026667237">
        <ele>66.469999999999999</ele>
        <time>2018-07-06T11:59:59Z</time>
      </trkpt>
      <trkpt lat="48.413683958351612" lon="-4.445970989763737">
        <ele>66.469999999999999</ele>
        <time>2018-07-06T12:00:00Z</time>
      </trkpt>
      <trkpt lat="48.413695022463799" lon="-4.4458900205791">
        <ele>65.989999999999995</ele>
        <time>2018-07-06T12:00:01Z</time>
      </trkpt>
      <trkpt lat="48.413701979443431" lon="-4.445836963132024">
        <ele>65.989999999999995</ele>
        <time>2018-07-06T12:00:02Z</time>
      </trkpt>
      <trkpt lat="48.413681024685502" lon="-4.445679970085621">
        <ele>65.510000000000005</ele>
        <time>2018-07-06T12:00:03Z</time>
      </trkpt>
      <trkpt lat="48.413738021627069" lon="-4.445203961804509">
        <ele>64.549999999999997</ele>
        <time>2018-07-06T12:00:07Z</time>
      </trkpt>
      <trkpt lat="48.413754031062126" lon="-4.445068007335067">
        <ele>64.549999999999997</ele>
        <time>2018-07-06T12:00:08Z</time>
      </trkpt>
      <trkpt lat="48.413951005786657" lon="-4.443782977759838">
        <ele>63.579999999999998</ele>
        <time>2018-07-06T12:00:19Z</time>
      </trkpt>
      <trkpt lat="48.41395896859467" lon="-4.443734027445316">
        <ele>63.579999999999998</ele>
        <time>2018-07-06T12:00:20Z</time>
      </trkpt>
      <trkpt lat="48.41395896859467" lon="-4.443734027445316">
        <ele>63.579999999999998</ele>
        <time>2018-07-06T12:00:21Z</time>
      </trkpt>
      <trkpt lat="48.413981013000011" lon="-4.443562030792236">
        <ele>63.579999999999998</ele>
        <time>2018-07-06T12:00:22Z</time>
      </trkpt>
      <trkpt lat="48.413984030485153" lon="-4.443518025800586">
        <ele>63.579999999999998</ele>
        <time>2018-07-06T12:00:23Z</time>
      </trkpt>
      <trkpt lat="48.413990987464786" lon="-4.443437978625298">
        <ele>63.579999999999998</ele>
        <time>2018-07-06T12:00:24Z</time>
      </trkpt>
      <trkpt lat="48.41399802826345" lon="-4.443357009440661">
        <ele>63.579999999999998</ele>
        <time>2018-07-06T12:00:25Z</time>
      </trkpt>
      <trkpt lat="48.414003979414701" lon="-4.443285008892417">
        <ele>63.579999999999998</ele>
        <time>2018-07-06T12:00:26Z</time>
      </trkpt>
      <trkpt lat="48.414010014384985" lon="-4.443229017779231">
        <ele>63.100000000000001</ele>
        <time>2018-07-06T12:00:27Z</time>
      </trkpt>
      <trkpt lat="48.414014037698507" lon="-4.443181995302439">
        <ele>63.100000000000001</ele>
        <time>2018-07-06T12:00:28Z</time>
      </trkpt>
      <trkpt lat="48.414018983021379" lon="-4.443136984482408">
        <ele>63.100000000000001</ele>
        <time>2018-07-06T12:00:29Z</time>
      </trkpt>
      <trkpt lat="48.414024012163281" lon="-4.443089039996266">
        <ele>63.100000000000001</ele>
        <time>2018-07-06T12:00:30Z</time>
      </trkpt>
      <trkpt lat="48.414029963314533" lon="-4.443032965064049">
        <ele>62.619999999999997</ele>
        <time>2018-07-06T12:00:31Z</time>
      </trkpt>
      <trkpt lat="48.414043039083481" lon="-4.442905979231">
        <ele>62.619999999999997</ele>
        <time>2018-07-06T12:00:33Z</time>
      </trkpt>
      <trkpt lat="48.414068017154932" lon="-4.442659970372915">
        <ele>62.619999999999997</ele>
        <time>2018-07-06T12:00:36Z</time>
      </trkpt>
      <trkpt lat="48.414076985791326" lon="-4.442572966217995">
        <ele>62.619999999999997</ele>
        <time>2018-07-06T12:00:37Z</time>
      </trkpt>
      <trkpt lat="48.414096012711525" lon="-4.442379008978605">
        <ele>63.100000000000001</ele>
        <time>2018-07-06T12:00:39Z</time>
      </trkpt>
      <trkpt lat="48.414191985502839" lon="-4.44144300185144">
        <ele>64.549999999999997</ele>
        <time>2018-07-06T12:00:49Z</time>
      </trkpt>
      <trkpt lat="48.414296004921198" lon="-4.440490985289216">
        <ele>65.989999999999995</ele>
        <time>2018-07-06T12:00:57Z</time>
      </trkpt>
      <trkpt lat="48.414503959938884" lon="-4.438879983499646">
        <ele>69.829999999999998</ele>
        <time>2018-07-06T12:01:09Z</time>
      </trkpt>
      <trkpt lat="48.414646033197641" lon="-4.437918998301029">
        <ele>72.719999999999999</ele>
        <time>2018-07-06T12:01:20Z</time>
      </trkpt>
      <trkpt lat="48.414652990177274" lon="-4.437842974439263">
        <ele>72.719999999999999</ele>
        <time>2018-07-06T12:01:21Z</time>
      </trkpt>
      <trkpt lat="48.414661958813667" lon="-4.437753036618233">
        <ele>72.719999999999999</ele>
        <time>2018-07-06T12:01:22Z</time>
      </trkpt>
      <trkpt lat="48.414868991822004" lon="-4.436868997290731">
        <ele>72.719999999999999</ele>
        <time>2018-07-06T12:01:29Z</time>
      </trkpt>
      <trkpt lat="48.415171997621655" lon="-4.435863001272082">
        <ele>69.349999999999994</ele>
        <time>2018-07-06T12:01:36Z</time>
      </trkpt>
      <trkpt lat="48.415699973702431" lon="-4.434728007763624">
        <ele>65.510000000000005</ele>
        <time>2018-07-06T12:01:45Z</time>
      </trkpt>
      <trkpt lat="48.416517963632941" lon="-4.432908967137337">
        <ele>59.259999999999998</ele>
        <time>2018-07-06T12:01:56Z</time>
      </trkpt>
      <trkpt lat="48.417000006884336" lon="-4.431623015552759">
        <ele>58.780000000000001</ele>
        <time>2018-07-06T12:02:05Z</time>
      </trkpt>
      <trkpt lat="48.417077958583832" lon="-4.431355968117714">
        <ele>59.740000000000002</ele>
        <time>2018-07-06T12:02:07Z</time>
      </trkpt>
      <trkpt lat="48.417101008817554" lon="-4.431225964799523">
        <ele>60.219999999999999</ele>
        <time>2018-07-06T12:02:08Z</time>
      </trkpt>
      <trkpt lat="48.417133027687669" lon="-4.431083975359798">
        <ele>61.18</ele>
        <time>2018-07-06T12:02:09Z</time>
      </trkpt>
      <trkpt lat="48.4171780385077" lon="-4.431009041145444">
        <ele>62.140000000000001</ele>
        <time>2018-07-06T12:02:10Z</time>
      </trkpt>
      <trkpt lat="48.417318016290665" lon="-4.430967969819903">
        <ele>63.100000000000001</ele>
        <time>2018-07-06T12:02:11Z</time>
      </trkpt>
      <trkpt lat="48.417455982416868" lon="-4.430725984275341">
        <ele>64.069999999999993</ele>
        <time>2018-07-06T12:02:13Z</time>
      </trkpt>
      <trkpt lat="48.417532006278634" lon="-4.430593969300389">
        <ele>64.549999999999997</ele>
        <time>2018-07-06T12:02:14Z</time>
      </trkpt>
      <trkpt lat="48.418184034526348" lon="-4.429409019649029">
        <ele>65.510000000000005</ele>
        <time>2018-07-06T12:02:23Z</time>
      </trkpt>
      <trkpt lat="48.418228961527348" lon="-4.429336013272405">
        <ele>65.989999999999995</ele>
        <time>2018-07-06T12:02:24Z</time>
      </trkpt>
      <trkpt lat="48.418228961527348" lon="-4.429099978879094">
        <ele>66.950000000000003</ele>
        <time>2018-07-06T12:02:25Z</time>
      </trkpt>
      <trkpt lat="48.418258968740702" lon="-4.429030995815992">
        <ele>67.430000000000007</ele>
        <time>2018-07-06T12:02:26Z</time>
      </trkpt>
      <trkpt lat="48.418346978724003" lon="-4.428941980004311">
        <ele>67.909999999999997</ele>
        <time>2018-07-06T12:02:27Z</time>
      </trkpt>
      <trkpt lat="48.418444041162729" lon="-4.428927982226014">
        <ele>68.390000000000001</ele>
        <time>2018-07-06T12:02:28Z</time>
      </trkpt>
      <trkpt lat="48.418495003134012" lon="-4.428848018869758">
        <ele>68.390000000000001</ele>
        <time>2018-07-06T12:02:29Z</time>
      </trkpt>
      <trkpt lat="48.418568009510636" lon="-4.428733019158244">
        <ele>68.870000000000005</ele>
        <time>2018-07-06T12:02:30Z</time>
      </trkpt>
      <trkpt lat="48.418647972866893" lon="-4.428608966991305">
        <ele>68.870000000000005</ele>
        <time>2018-07-06T12:02:31Z</time>
      </trkpt>
      <trkpt lat="48.419511979445815" lon="-4.427182031795383">
        <ele>71.269999999999996</ele>
        <time>2018-07-06T12:02:40Z</time>
      </trkpt>
      <trkpt lat="48.420291999354959" lon="-4.425861965864897">
        <ele>71.760000000000005</ele>
        <time>2018-07-06T12:02:49Z</time>
      </trkpt>
      <trkpt lat="48.420513030141592" lon="-4.425490982830524">
        <ele>71.760000000000005</ele>
        <time>2018-07-06T12:02:57Z</time>
      </trkpt>
      <trkpt lat="48.420513030141592" lon="-4.425490982830524">
        <ele>71.760000000000005</ele>
        <time>2018-07-06T12:03:14Z</time>
      </trkpt>
      <trkpt lat="48.420717967674136" lon="-4.425146989524365">
        <ele>71.760000000000005</ele>
        <time>2018-07-06T12:03:23Z</time>
      </trkpt>
      <trkpt lat="48.421294977888465" lon="-4.424133030697703">
        <ele>72.719999999999999</ele>
        <time>2018-07-06T12:03:31Z</time>
      </trkpt>
      <trkpt lat="48.422462996095419" lon="-4.422084996476769">
        <ele>73.200000000000003</ele>
        <time>2018-07-06T12:03:44Z</time>
      </trkpt>
      <trkpt lat="48.423447031527758" lon="-4.420458991080523">
        <ele>74.640000000000001</ele>
        <time>2018-07-06T12:03:53Z</time>
      </trkpt>
      <trkpt lat="48.424727031961083" lon="-4.418232003226876">
        <ele>72.719999999999999</ele>
        <time>2018-07-06T12:04:03Z</time>
      </trkpt>
      <trkpt lat="48.425799999386072" lon="-4.416359988972545">
        <ele>72.239999999999995</ele>
        <time>2018-07-06T12:04:12Z</time>
      </trkpt>
      <trkpt lat="48.427066002041101" lon="-4.414146998897195">
        <ele>68.390000000000001</ele>
        <time>2018-07-06T12:04:23Z</time>
      </trkpt>
      <trkpt lat="48.427804028615355" lon="-4.412781000137329">
        <ele>62.619999999999997</ele>
        <time>2018-07-06T12:04:31Z</time>
      </trkpt>
      <trkpt lat="48.427853984758258" lon="-4.41265401430428">
        <ele>61.659999999999997</ele>
        <time>2018-07-06T12:04:32Z</time>
      </trkpt>
      <trkpt lat="48.427896983921528" lon="-4.41254798322916">
        <ele>61.18</ele>
        <time>2018-07-06T12:04:33Z</time>
      </trkpt>
      <trkpt lat="48.427906958386302" lon="-4.412276996299624">
        <ele>60.700000000000003</ele>
        <time>2018-07-06T12:04:34Z</time>
      </trkpt>
      <trkpt lat="48.427906958386302" lon="-4.412276996299624">
        <ele>60.219999999999999</ele>
        <time>2018-07-06T12:04:35Z</time>
      </trkpt>
      <trkpt lat="48.427926991134882" lon="-4.412196027114987">
        <ele>60.219999999999999</ele>
        <time>2018-07-06T12:04:36Z</time>
      </trkpt>
      <trkpt lat="48.427950041368604" lon="-4.412104999646545">
        <ele>60.219999999999999</ele>
        <time>2018-07-06T12:04:37Z</time>
      </trkpt>
      <trkpt lat="48.428036039695144" lon="-4.41203098744154">
        <ele>60.219999999999999</ele>
        <time>2018-07-06T12:04:38Z</time>
      </trkpt>
      <trkpt lat="48.428118014708161" lon="-4.411982037127018">
        <ele>60.219999999999999</ele>
        <time>2018-07-06T12:04:39Z</time>
      </trkpt>
      <trkpt lat="48.428193032741547" lon="-4.412002991884947">
        <ele>59.740000000000002</ele>
        <time>2018-07-06T12:04:40Z</time>
      </trkpt>
      <trkpt lat="48.428278025239706" lon="-4.412060994654894">
        <ele>59.740000000000002</ele>
        <time>2018-07-06T12:04:41Z</time>
      </trkpt>
      <trkpt lat="48.428336028009653" lon="-4.412147998809815">
        <ele>59.740000000000002</ele>
        <time>2018-07-06T12:04:42Z</time>
      </trkpt>
      <trkpt lat="48.428336028009653" lon="-4.412147998809815">
        <ele>59.259999999999998</ele>
        <time>2018-07-06T12:04:43Z</time>
      </trkpt>
      <trkpt lat="48.42847902327776" lon="-4.412409011274576">
        <ele>58.780000000000001</ele>
        <time>2018-07-06T12:04:44Z</time>
      </trkpt>
      <trkpt lat="48.428582036867738" lon="-4.412437006831169">
        <ele>58.299999999999997</ele>
        <time>2018-07-06T12:04:45Z</time>
      </trkpt>
      <trkpt lat="48.428699970245361" lon="-4.412473971024156">
        <ele>57.82</ele>
        <time>2018-07-06T12:04:46Z</time>
      </trkpt>
      <trkpt lat="48.429604964330792" lon="-4.412887031212449">
        <ele>57.82</ele>
        <time>2018-07-06T12:04:53Z</time>
      </trkpt>
      <trkpt lat="48.431152012199163" lon="-4.414150016382337">
        <ele>65.989999999999995</ele>
        <time>2018-07-06T12:05:04Z</time>
      </trkpt>
      <trkpt lat="48.43144697137177" lon="-4.414357971400023">
        <ele>68.870000000000005</ele>
        <time>2018-07-06T12:05:06Z</time>
      </trkpt>
      <trkpt lat="48.431629026308656" lon="-4.414430977776647">
        <ele>69.829999999999998</ele>
        <time>2018-07-06T12:05:07Z</time>
      </trkpt>
      <trkpt lat="48.431798005476594" lon="-4.4144990388304">
        <ele>70.790000000000006</ele>
        <time>2018-07-06T12:05:08Z</time>
      </trkpt>
      <trkpt lat="48.432834008708596" lon="-4.414789974689484">
        <ele>78</ele>
        <time>2018-07-06T12:05:15Z</time>
      </trkpt>
      <trkpt lat="48.433538004755974" lon="-4.414944034069777">
        <ele>82.810000000000002</ele>
        <time>2018-07-06T12:05:22Z</time>
      </trkpt>
      <trkpt lat="48.433719975873828" lon="-4.414983009919524">
        <ele>84.25</ele>
        <time>2018-07-06T12:05:24Z</time>
      </trkpt>
      <trkpt lat="48.433818966150284" lon="-4.414999019354582">
        <ele>84.25</ele>
        <time>2018-07-06T12:05:25Z</time>
      </trkpt>
      <trkpt lat="48.433927008882165" lon="-4.41501502878964">
        <ele>84.730000000000004</ele>
        <time>2018-07-06T12:05:26Z</time>
      </trkpt>
      <trkpt lat="48.434048965573311" lon="-4.415028020739555">
        <ele>85.209999999999994</ele>
        <time>2018-07-06T12:05:27Z</time>
      </trkpt>
      <trkpt lat="48.434181986376643" lon="-4.41503799520433">
        <ele>85.209999999999994</ele>
        <time>2018-07-06T12:05:28Z</time>
      </trkpt>
      <trkpt lat="48.434314001351595" lon="-4.41503799520433">
        <ele>85.689999999999998</ele>
        <time>2018-07-06T12:05:29Z</time>
      </trkpt>
      <trkpt lat="48.434438975527883" lon="-4.415013017132878">
        <ele>86.180000000000007</ele>
        <time>2018-07-06T12:05:30Z</time>
      </trkpt>
      <trkpt lat="48.434566967189312" lon="-4.414988039061427">
        <ele>86.659999999999997</ele>
        <time>2018-07-06T12:05:31Z</time>
      </trkpt>
      <trkpt lat="48.434834014624357" lon="-4.414881002157927">
        <ele>87.620000000000005</ele>
        <time>2018-07-06T12:05:33Z</time>
      </trkpt>
      <trkpt lat="48.434971980750561" lon="-4.4148029666394">
        <ele>87.620000000000005</ele>
        <time>2018-07-06T12:05:34Z</time>
      </trkpt>
      <trkpt lat="48.435114976018667" lon="-4.414701964706183">
        <ele>88.099999999999994</ele>
        <time>2018-07-06T12:05:35Z</time>
      </trkpt>
      <trkpt lat="48.435258977115154" lon="-4.414600040763617">
        <ele>89.060000000000002</ele>
        <time>2018-07-06T12:05:36Z</time>
      </trkpt>
      <trkpt lat="48.435393003746867" lon="-4.414468025788665">
        <ele>89.540000000000006</ele>
        <time>2018-07-06T12:05:37Z</time>
      </trkpt>
      <trkpt lat="48.435528036206961" lon="-4.414332993328571">
        <ele>90.019999999999996</ele>
        <time>2018-07-06T12:05:38Z</time>
      </trkpt>
      <trkpt lat="48.436502013355494" lon="-4.412873033434153">
        <ele>93.870000000000005</ele>
        <time>2018-07-06T12:05:46Z</time>
      </trkpt>
      <trkpt lat="48.437404995784163" lon="-4.411437967792153">
        <ele>96.75</ele>
        <time>2018-07-06T12:05:55Z</time>
      </trkpt>
      <trkpt lat="48.437691992148757" lon="-4.410966988652945">
        <ele>96.75</ele>
        <time>2018-07-06T12:06:00Z</time>
      </trkpt>
      <trkpt lat="48.437735997140408" lon="-4.41089297644794">
        <ele>96.269999999999996</ele>
        <time>2018-07-06T12:06:01Z</time>
      </trkpt>
      <trkpt lat="48.437670031562448" lon="-4.410602962598205">
        <ele>96.75</ele>
        <time>2018-07-06T12:06:02Z</time>
      </trkpt>
      <trkpt lat="48.437673971056938" lon="-4.410576978698373">
        <ele>96.75</ele>
        <time>2018-07-06T12:06:03Z</time>
      </trkpt>
      <trkpt lat="48.437694003805518" lon="-4.410458961501718">
        <ele>96.75</ele>
        <time>2018-07-06T12:06:04Z</time>
      </trkpt>
      <trkpt lat="48.437739014625549" lon="-4.410322001203895">
        <ele>96.75</ele>
        <time>2018-07-06T12:06:05Z</time>
      </trkpt>
      <trkpt lat="48.43780598603189" lon="-4.410262992605567">
        <ele>97.230000000000004</ele>
        <time>2018-07-06T12:06:06Z</time>
      </trkpt>
      <trkpt lat="48.437875974923372" lon="-4.410200966522098">
        <ele>97.709999999999994</ele>
        <time>2018-07-06T12:06:07Z</time>
      </trkpt>
      <trkpt lat="48.437963984906673" lon="-4.410199960693717">
        <ele>98.189999999999998</ele>
        <time>2018-07-06T12:06:08Z</time>
      </trkpt>
      <trkpt lat="48.438050989061594" lon="-4.410239020362496">
        <ele>98.189999999999998</ele>
        <time>2018-07-06T12:06:09Z</time>
      </trkpt>
      <trkpt lat="48.438176969066262" lon="-4.410220999270678">
        <ele>98.189999999999998</ele>
        <time>2018-07-06T12:06:10Z</time>
      </trkpt>
      <trkpt lat="48.438281994313002" lon="-4.410168025642633">
        <ele>98.189999999999998</ele>
        <time>2018-07-06T12:06:11Z</time>
      </trkpt>
      <trkpt lat="48.438388025388122" lon="-4.410115974023938">
        <ele>98.189999999999998</ele>
        <time>2018-07-06T12:06:12Z</time>
      </trkpt>
      <trkpt lat="48.438496990129352" lon="-4.410017989575863">
        <ele>98.189999999999998</ele>
        <time>2018-07-06T12:06:13Z</time>
      </trkpt>
      <trkpt lat="48.438588017597795" lon="-4.409902989864349">
        <ele>98.189999999999998</ele>
        <time>2018-07-06T12:06:14Z</time>
      </trkpt>
      <trkpt lat="48.438994036987424" lon="-4.409384988248348">
        <ele>98.670000000000002</ele>
        <time>2018-07-06T12:06:19Z</time>
      </trkpt>
      <trkpt lat="48.439052039757371" lon="-4.409310976043344">
        <ele>99.150000000000006</ele>
        <time>2018-07-06T12:06:20Z</time>
      </trkpt>
      <trkpt lat="48.439175002276897" lon="-4.408862041309476">
        <ele>98.670000000000002</ele>
        <time>2018-07-06T12:06:23Z</time>
      </trkpt>
      <trkpt lat="48.439186988398433" lon="-4.408689038828015">
        <ele>98.670000000000002</ele>
        <time>2018-07-06T12:06:24Z</time>
      </trkpt>
      <trkpt lat="48.439393015578389" lon="-4.407119024544954">
        <ele>98.189999999999998</ele>
        <time>2018-07-06T12:06:31Z</time>
      </trkpt>
      <trkpt lat="48.439785037189722" lon="-4.405240975320339">
        <ele>95.790000000000006</ele>
        <time>2018-07-06T12:06:41Z</time>
      </trkpt>
      <trkpt lat="48.439772967249155" lon="-4.405088005587459">
        <ele>95.790000000000006</ele>
        <time>2018-07-06T12:06:42Z</time>
      </trkpt>
      <trkpt lat="48.439761986956" lon="-4.405012987554073">
        <ele>95.790000000000006</ele>
        <time>2018-07-06T12:06:43Z</time>
      </trkpt>
      <trkpt lat="48.439798029139638" lon="-4.404891030862927">
        <ele>95.790000000000006</ele>
        <time>2018-07-06T12:06:44Z</time>
      </trkpt>
      <trkpt lat="48.439892996102571" lon="-4.404851971194148">
        <ele>95.790000000000006</ele>
        <time>2018-07-06T12:06:45Z</time>
      </trkpt>
      <trkpt lat="48.439928032457829" lon="-4.404734959825873">
        <ele>95.790000000000006</ele>
        <time>2018-07-06T12:06:46Z</time>
      </trkpt>
      <trkpt lat="48.439968014135957" lon="-4.404600011184812">
        <ele>95.790000000000006</ele>
        <time>2018-07-06T12:06:47Z</time>
      </trkpt>
      <trkpt lat="48.440012019127607" lon="-4.404450980946422">
        <ele>95.790000000000006</ele>
        <time>2018-07-06T12:06:48Z</time>
      </trkpt>
      <trkpt lat="48.440609984099865" lon="-4.402846014127135">
        <ele>94.349999999999994</ele>
        <time>2018-07-06T12:06:59Z</time>
      </trkpt>
      <trkpt lat="48.44066496938467" lon="-4.402712993323803">
        <ele>94.349999999999994</ele>
        <time>2018-07-06T12:07:00Z</time>
      </trkpt>
      <trkpt lat="48.440722972154617" lon="-4.402571003884077">
        <ele>93.870000000000005</ele>
        <time>2018-07-06T12:07:01Z</time>
      </trkpt>
      <trkpt lat="48.441281039267778" lon="-4.401079025119543">
        <ele>90.980000000000004</ele>
        <time>2018-07-06T12:07:12Z</time>
      </trkpt>
      <trkpt lat="48.44143501482904" lon="-4.400349967181683">
        <ele>90.980000000000004</ele>
        <time>2018-07-06T12:07:17Z</time>
      </trkpt>
      <trkpt lat="48.441464016214013" lon="-4.400174031034112">
        <ele>91.459999999999994</ele>
        <time>2018-07-06T12:07:18Z</time>
      </trkpt>
      <trkpt lat="48.44165001064539" lon="-4.398121973499656">
        <ele>90.019999999999996</ele>
        <time>2018-07-06T12:07:29Z</time>
      </trkpt>
      <trkpt lat="48.441609023138881" lon="-4.396292036399245">
        <ele>90.019999999999996</ele>
        <time>2018-07-06T12:07:39Z</time>
      </trkpt>
      <trkpt lat="48.441095966845751" lon="-4.394869962707162">
        <ele>89.060000000000002</ele>
        <time>2018-07-06T12:07:48Z</time>
      </trkpt>
      <trkpt lat="48.441011980175972" lon="-4.394686985760927">
        <ele>88.099999999999994</ele>
        <time>2018-07-06T12:07:50Z</time>
      </trkpt>
      <trkpt lat="48.440953977406025" lon="-4.394559999927878">
        <ele>87.140000000000001</ele>
        <time>2018-07-06T12:07:52Z</time>
      </trkpt>
      <trkpt lat="48.440823974087834" lon="-4.394552959129214">
        <ele>87.140000000000001</ele>
        <time>2018-07-06T12:07:53Z</time>
      </trkpt>
      <trkpt lat="48.44081299379468" lon="-4.394544996321201">
        <ele>86.659999999999997</ele>
        <time>2018-07-06T12:07:54Z</time>
      </trkpt>
      <trkpt lat="48.440765971317887" lon="-4.394509037956595">
        <ele>86.180000000000007</ele>
        <time>2018-07-06T12:07:55Z</time>
      </trkpt>
      <trkpt lat="48.440780974924564" lon="-4.394231010228396">
        <ele>85.689999999999998</ele>
        <time>2018-07-06T12:07:56Z</time>
      </trkpt>
      <trkpt lat="48.440764965489507" lon="-4.394202008843422">
        <ele>85.689999999999998</ele>
        <time>2018-07-06T12:07:57Z</time>
      </trkpt>
      <trkpt lat="48.440710986033082" lon="-4.394105030223727">
        <ele>85.209999999999994</ele>
        <time>2018-07-06T12:07:58Z</time>
      </trkpt>
      <trkpt lat="48.440584000200033" lon="-4.393876036629081">
        <ele>85.209999999999994</ele>
        <time>2018-07-06T12:08:00Z</time>
      </trkpt>
      <trkpt lat="48.440495990216732" lon="-4.393757013604045">
        <ele>85.209999999999994</ele>
        <time>2018-07-06T12:08:01Z</time>
      </trkpt>
      <trkpt lat="48.439828036352992" lon="-4.392926031723619">
        <ele>86.659999999999997</ele>
        <time>2018-07-06T12:08:09Z</time>
      </trkpt>
      <trkpt lat="48.439772967249155" lon="-4.392857970669866">
        <ele>86.659999999999997</ele>
        <time>2018-07-06T12:08:10Z</time>
      </trkpt>
      <trkpt lat="48.439665008336306" lon="-4.392728973180056">
        <ele>87.140000000000001</ele>
        <time>2018-07-06T12:08:11Z</time>
      </trkpt>
      <trkpt lat="48.439608011394739" lon="-4.392652027308941">
        <ele>87.140000000000001</ele>
        <time>2018-07-06T12:08:12Z</time>
      </trkpt>
      <trkpt lat="48.439164021983743" lon="-4.392053978517652">
        <ele>89.060000000000002</ele>
        <time>2018-07-06T12:08:17Z</time>
      </trkpt>
      <trkpt lat="48.439015997573733" lon="-4.391757007688284">
        <ele>90.5</ele>
        <time>2018-07-06T12:08:19Z</time>
      </trkpt>
      <trkpt lat="48.438947014510632" lon="-4.391589034348726">
        <ele>91.459999999999994</ele>
        <time>2018-07-06T12:08:20Z</time>
      </trkpt>
      <trkpt lat="48.438830003142357" lon="-4.391257027164102">
        <ele>91.939999999999998</ele>
        <time>2018-07-06T12:08:22Z</time>
      </trkpt>
      <trkpt lat="48.43879303894937" lon="-4.391077989712358">
        <ele>92.420000000000002</ele>
        <time>2018-07-06T12:08:23Z</time>
      </trkpt>
      <trkpt lat="48.438759008422494" lon="-4.390914039686322">
        <ele>92.420000000000002</ele>
        <time>2018-07-06T12:08:24Z</time>
      </trkpt>
      <trkpt lat="48.438721038401127" lon="-4.390732990577817">
        <ele>92.420000000000002</ele>
        <time>2018-07-06T12:08:25Z</time>
      </trkpt>
      <trkpt lat="48.438703017309308" lon="-4.390595024451613">
        <ele>92.420000000000002</ele>
        <time>2018-07-06T12:08:26Z</time>
      </trkpt>
      <trkpt lat="48.438505036756396" lon="-4.389094999060035">
        <ele>90.019999999999996</ele>
        <time>2018-07-06T12:08:34Z</time>
      </trkpt>
      <trkpt lat="48.438355000689626" lon="-4.387957993894815">
        <ele>86.659999999999997</ele>
        <time>2018-07-06T12:08:41Z</time>
      </trkpt>
      <trkpt lat="48.438333040103316" lon="-4.387821033596993">
        <ele>86.180000000000007</ele>
        <time>2018-07-06T12:08:42Z</time>
      </trkpt>
      <trkpt lat="48.438313007354736" lon="-4.387673009186983">
        <ele>85.689999999999998</ele>
        <time>2018-07-06T12:08:43Z</time>
      </trkpt>
      <trkpt lat="48.438049983233213" lon="-4.385918006300926">
        <ele>80.409999999999997</ele>
        <time>2018-07-06T12:08:53Z</time>
      </trkpt>
      <trkpt lat="48.437553020194173" lon="-4.384547984227538">
        <ele>73.200000000000003</ele>
        <time>2018-07-06T12:09:02Z</time>
      </trkpt>
      <trkpt lat="48.436843995004892" lon="-4.383641984313726">
        <ele>68.870000000000005</ele>
        <time>2018-07-06T12:09:10Z</time>
      </trkpt>
      <trkpt lat="48.436560016125441" lon="-4.383387006819248">
        <ele>67.430000000000007</ele>
        <time>2018-07-06T12:09:13Z</time>
      </trkpt>
      <trkpt lat="48.436161959543824" lon="-4.383188020437956">
        <ele>65.989999999999995</ele>
        <time>2018-07-06T12:09:18Z</time>
      </trkpt>
      <trkpt lat="48.436103034764528" lon="-4.383163964375854">
        <ele>65.510000000000005</ele>
        <time>2018-07-06T12:09:19Z</time>
      </trkpt>
      <trkpt lat="48.435974959284067" lon="-4.383351970463991">
        <ele>65.030000000000001</ele>
        <time>2018-07-06T12:09:20Z</time>
      </trkpt>
      <trkpt lat="48.435930032283068" lon="-4.383387006819248">
        <ele>64.069999999999993</ele>
        <time>2018-07-06T12:09:22Z</time>
      </trkpt>
      <trkpt lat="48.43585099093616" lon="-4.383426988497376">
        <ele>64.069999999999993</ele>
        <time>2018-07-06T12:09:23Z</time>
      </trkpt>
      <trkpt lat="48.435791982337832" lon="-4.383388012647629">
        <ele>63.579999999999998</ele>
        <time>2018-07-06T12:09:24Z</time>
      </trkpt>
      <trkpt lat="48.435728028416634" lon="-4.383344007655978">
        <ele>63.100000000000001</ele>
        <time>2018-07-06T12:09:25Z</time>
      </trkpt>
      <trkpt lat="48.435658039525151" lon="-4.383253986015916">
        <ele>63.100000000000001</ele>
        <time>2018-07-06T12:09:26Z</time>
      </trkpt>
      <trkpt lat="48.43563599511981" lon="-4.383120965212584">
        <ele>63.100000000000001</ele>
        <time>2018-07-06T12:09:27Z</time>
      </trkpt>
      <trkpt lat="48.435647981241345" lon="-4.383021974936128">
        <ele>62.619999999999997</ele>
        <time>2018-07-06T12:09:28Z</time>
      </trkpt>
      <trkpt lat="48.435697015374899" lon="-4.382920973002911">
        <ele>62.619999999999997</ele>
        <time>2018-07-06T12:09:29Z</time>
      </trkpt>
      <trkpt lat="48.435739008709788" lon="-4.382858024910092">
        <ele>62.140000000000001</ele>
        <time>2018-07-06T12:09:30Z</time>
      </trkpt>
      <trkpt lat="48.435739008709788" lon="-4.382858024910092">
        <ele>61.659999999999997</ele>
        <time>2018-07-06T12:09:31Z</time>
      </trkpt>
      <trkpt lat="48.435902036726475" lon="-4.38263900578022">
        <ele>61.18</ele>
        <time>2018-07-06T12:09:32Z</time>
      </trkpt>
      <trkpt lat="48.435912011191249" lon="-4.382470026612282">
        <ele>60.700000000000003</ele>
        <time>2018-07-06T12:09:33Z</time>
      </trkpt>
      <trkpt lat="48.435915028676391" lon="-4.382286965847015">
        <ele>60.219999999999999</ele>
        <time>2018-07-06T12:09:34Z</time>
      </trkpt>
      <trkpt lat="48.435918968170881" lon="-4.382087979465723">
        <ele>59.740000000000002</ele>
        <time>2018-07-06T12:09:35Z</time>
      </trkpt>
      <trkpt lat="48.435946963727474" lon="-4.380355020985007">
        <ele>53.969999999999999</ele>
        <time>2018-07-06T12:09:42Z</time>
      </trkpt>
      <trkpt lat="48.435896001756191" lon="-4.37726897187531">
        <ele>43.399999999999999</ele>
        <time>2018-07-06T12:09:54Z</time>
      </trkpt>
      <trkpt lat="48.435605987906456" lon="-4.373989971354604">
        <ele>54.450000000000003</ele>
        <time>2018-07-06T12:10:07Z</time>
      </trkpt>
      <trkpt lat="48.43527096323669" lon="-4.369807988405228">
        <ele>64.549999999999997</ele>
        <time>2018-07-06T12:10:23Z</time>
      </trkpt>
      <trkpt lat="48.435045992955565" lon="-4.366998039186001">
        <ele>70.790000000000006</ele>
        <time>2018-07-06T12:10:34Z</time>
      </trkpt>
      <trkpt lat="48.434869972988963" lon="-4.365004990249872">
        <ele>78.480000000000004</ele>
        <time>2018-07-06T12:10:41Z</time>
      </trkpt>
      <trkpt lat="48.43464600853622" lon="-4.361769994720817">
        <ele>83.290000000000006</ele>
        <time>2018-07-06T12:10:52Z</time>
      </trkpt>
      <trkpt lat="48.434536037966609" lon="-4.35928501188755">
        <ele>79.450000000000003</ele>
        <time>2018-07-06T12:11:01Z</time>
      </trkpt>
      <trkpt lat="48.434447022154927" lon="-4.357191966846585">
        <ele>78.969999999999999</ele>
        <time>2018-07-06T12:11:08Z</time>
      </trkpt>
      <trkpt lat="48.434271002188325" lon="-4.353594034910202">
        <ele>86.659999999999997</ele>
        <time>2018-07-06T12:11:20Z</time>
      </trkpt>
      <trkpt lat="48.434095988050103" lon="-4.350538998842239">
        <ele>90.019999999999996</ele>
        <time>2018-07-06T12:11:30Z</time>
      </trkpt>
      <trkpt lat="48.433964978903532" lon="-4.348088968545198">
        <ele>86.180000000000007</ele>
        <time>2018-07-06T12:11:38Z</time>
      </trkpt>
      <trkpt lat="48.433927008882165" lon="-4.346858002245426">
        <ele>82.329999999999998</ele>
        <time>2018-07-06T12:11:42Z</time>
      </trkpt>
      <trkpt lat="48.433935977518559" lon="-4.346552984789014">
        <ele>81.370000000000005</ele>
        <time>2018-07-06T12:11:43Z</time>
      </trkpt>
      <trkpt lat="48.433993980288506" lon="-4.346248973160982">
        <ele>79.930000000000007</ele>
        <time>2018-07-06T12:11:44Z</time>
      </trkpt>
      <trkpt lat="48.434053994715214" lon="-4.345958959311247">
        <ele>78.969999999999999</ele>
        <time>2018-07-06T12:11:45Z</time>
      </trkpt>
      <trkpt lat="48.434114009141922" lon="-4.345668023452163">
        <ele>77.519999999999996</ele>
        <time>2018-07-06T12:11:46Z</time>
      </trkpt>
      <trkpt lat="48.434696970507503" lon="-4.342766040936112">
        <ele>67.430000000000007</ele>
        <time>2018-07-06T12:11:56Z</time>
      </trkpt>
      <trkpt lat="48.435293007642031" lon="-4.339560968801379">
        <ele>66.950000000000003</ele>
        <time>2018-07-06T12:12:07Z</time>
      </trkpt>
      <trkpt lat="48.436078978702426" lon="-4.335439000278711">
        <ele>84.25</ele>
        <time>2018-07-06T12:12:20Z</time>
      </trkpt>
      <trkpt lat="48.436922030523419" lon="-4.331930000334978">
        <ele>95.310000000000002</ele>
        <time>2018-07-06T12:12:32Z</time>
      </trkpt>
      <trkpt lat="48.437749994918704" lon="-4.328094022348523">
        <ele>106.36</ele>
        <time>2018-07-06T12:12:46Z</time>
      </trkpt>
      <trkpt lat="48.438370004296303" lon="-4.325207965448499">
        <ele>112.13</ele>
        <time>2018-07-06T12:12:58Z</time>
      </trkpt>
      <trkpt lat="48.438798990100622" lon="-4.323115004226565">
        <ele>112.13</ele>
        <time>2018-07-06T12:13:08Z</time>
      </trkpt>
      <trkpt lat="48.438852969557047" lon="-4.322847034782171">
        <ele>111.17</ele>
        <time>2018-07-06T12:13:10Z</time>
      </trkpt>
      <trkpt lat="48.438807036727667" lon="-4.322647964581847">
        <ele>110.69</ele>
        <time>2018-07-06T12:13:11Z</time>
      </trkpt>
      <trkpt lat="48.438797984272242" lon="-4.322447972372174">
        <ele>109.73</ele>
        <time>2018-07-06T12:13:13Z</time>
      </trkpt>
      <trkpt lat="48.438840983435512" lon="-4.322346970438957">
        <ele>109.73</ele>
        <time>2018-07-06T12:13:14Z</time>
      </trkpt>
      <trkpt lat="48.438919018954039" lon="-4.322270024567843">
        <ele>109.25</ele>
        <time>2018-07-06T12:13:15Z</time>
      </trkpt>
      <trkpt lat="48.439017003402114" lon="-4.321998031809926">
        <ele>108.29000000000001</ele>
        <time>2018-07-06T12:13:17Z</time>
      </trkpt>
      <trkpt lat="48.43937398865819" lon="-4.32054796256125">
        <ele>103.48</ele>
        <time>2018-07-06T12:13:24Z</time>
      </trkpt>
      <trkpt lat="48.439485970884562" lon="-4.320042030885816">
        <ele>101.56</ele>
        <time>2018-07-06T12:13:26Z</time>
      </trkpt>
      <trkpt lat="48.43954598531127" lon="-4.31977498345077">
        <ele>100.59999999999999</ele>
        <time>2018-07-06T12:13:27Z</time>
      </trkpt>
      <trkpt lat="48.440309995785356" lon="-4.316388024017215">
        <ele>97.230000000000004</ele>
        <time>2018-07-06T12:13:39Z</time>
      </trkpt>
      <trkpt lat="48.441520007327199" lon="-4.310907013714314">
        <ele>99.629999999999995</ele>
        <time>2018-07-06T12:13:58Z</time>
      </trkpt>
      <trkpt lat="48.442101962864399" lon="-4.308331003412604">
        <ele>93.870000000000005</ele>
        <time>2018-07-06T12:14:08Z</time>
      </trkpt>
      <trkpt lat="48.442729013040662" lon="-4.305516025051475">
        <ele>77.519999999999996</ele>
        <time>2018-07-06T12:14:18Z</time>
      </trkpt>
      <trkpt lat="48.443225976079702" lon="-4.303258024156094">
        <ele>66.950000000000003</ele>
        <time>2018-07-06T12:14:25Z</time>
      </trkpt>
      <trkpt lat="48.443750012665987" lon="-4.300878988578916">
        <ele>57.82</ele>
        <time>2018-07-06T12:14:33Z</time>
      </trkpt>
      <trkpt lat="48.443948999047279" lon="-4.299976006150246">
        <ele>53.490000000000002</ele>
        <time>2018-07-06T12:14:36Z</time>
      </trkpt>
      <trkpt lat="48.444460965692997" lon="-4.297648016363382">
        <ele>39.549999999999997</ele>
        <time>2018-07-06T12:14:44Z</time>
      </trkpt>
      <trkpt lat="48.445041999220848" lon="-4.295077035203576">
        <ele>24.170000000000002</ele>
        <time>2018-07-06T12:14:53Z</time>
      </trkpt>
      <trkpt lat="48.445468973368406" lon="-4.292132975533605">
        <ele>13.119999999999999</ele>
        <time>2018-07-06T12:15:03Z</time>
      </trkpt>
      <trkpt lat="48.445501998066902" lon="-4.289683029055595">
        <ele>9.27</ele>
        <time>2018-07-06T12:15:11Z</time>
      </trkpt>
      <trkpt lat="48.445413988083601" lon="-4.288154002279043">
        <ele>6.87</ele>
        <time>2018-07-06T12:15:16Z</time>
      </trkpt>
      <trkpt lat="48.445374006405473" lon="-4.287852002307773">
        <ele>6.39</ele>
        <time>2018-07-06T12:15:17Z</time>
      </trkpt>
      <trkpt lat="48.445273004472256" lon="-4.287590989843011">
        <ele>5.42</ele>
        <time>2018-07-06T12:15:18Z</time>
      </trkpt>
      <trkpt lat="48.445173008367419" lon="-4.287338024005294">
        <ele>4.94</ele>
        <time>2018-07-06T12:15:19Z</time>
      </trkpt>
      <trkpt lat="48.445069994777441" lon="-4.287080029025674">
        <ele>3.98</ele>
        <time>2018-07-06T12:15:20Z</time>
      </trkpt>
      <trkpt lat="48.444966981187463" lon="-4.286818010732532">
        <ele>3.02</ele>
        <time>2018-07-06T12:15:21Z</time>
      </trkpt>
      <trkpt lat="48.443837016820908" lon="-4.284720020368695">
        <ele>-4.19</ele>
        <time>2018-07-06T12:15:30Z</time>
      </trkpt>
      <trkpt lat="48.442745022475719" lon="-4.283189987763763">
        <ele>-5.63</ele>
        <time>2018-07-06T12:15:38Z</time>
      </trkpt>
      <trkpt lat="48.442125013098121" lon="-4.282292034476996">
        <ele>-5.15</ele>
        <time>2018-07-06T12:15:45Z</time>
      </trkpt>
      <trkpt lat="48.441678006201982" lon="-4.281602958217263">
        <ele>-3.23</ele>
        <time>2018-07-06T12:15:51Z</time>
      </trkpt>
      <trkpt lat="48.441618997603655" lon="-4.281493993476033">
        <ele>-3.23</ele>
        <time>2018-07-06T12:15:52Z</time>
      </trkpt>
      <trkpt lat="48.441580021753907" lon="-4.281362984329462">
        <ele>-3.23</ele>
        <time>2018-07-06T12:15:53Z</time>
      </trkpt>
      <trkpt lat="48.441541967913508" lon="-4.281234992668033">
        <ele>-3.23</ele>
        <time>2018-07-06T12:15:54Z</time>
      </trkpt>
      <trkpt lat="48.441500980407" lon="-4.281099960207939">
        <ele>-3.23</ele>
        <time>2018-07-06T12:15:55Z</time>
      </trkpt>
      <trkpt lat="48.441460998728871" lon="-4.280962999910116">
        <ele>-2.75</ele>
        <time>2018-07-06T12:15:56Z</time>
      </trkpt>
      <trkpt lat="48.441420011222363" lon="-4.280825033783913">
        <ele>-2.27</ele>
        <time>2018-07-06T12:15:57Z</time>
      </trkpt>
      <trkpt lat="48.441358990967274" lon="-4.280510041862726">
        <ele>-0.82</ele>
        <time>2018-07-06T12:15:59Z</time>
      </trkpt>
      <trkpt lat="48.441318003460765" lon="-4.279796993359923">
        <ele>0.62</ele>
        <time>2018-07-06T12:16:03Z</time>
      </trkpt>
      <trkpt lat="48.441356979310513" lon="-4.279645029455423">
        <ele>1.1</ele>
        <time>2018-07-06T12:16:04Z</time>
      </trkpt>
      <trkpt lat="48.441399978473783" lon="-4.279480995610356">
        <ele>1.1</ele>
        <time>2018-07-06T12:16:05Z</time>
      </trkpt>
      <trkpt lat="48.441441971808672" lon="-4.279318973422051">
        <ele>1.58</ele>
        <time>2018-07-06T12:16:06Z</time>
      </trkpt>
      <trkpt lat="48.441508021205664" lon="-4.279155023396015">
        <ele>2.54</ele>
        <time>2018-07-06T12:16:07Z</time>
      </trkpt>
      <trkpt lat="48.441588990390301" lon="-4.279029965400696">
        <ele>3.02</ele>
        <time>2018-07-06T12:16:08Z</time>
      </trkpt>
      <trkpt lat="48.441675994545221" lon="-4.278895016759634">
        <ele>3.5</ele>
        <time>2018-07-06T12:16:09Z</time>
      </trkpt>
      <trkpt lat="48.442707974463701" lon="-4.277415024116635">
        <ele>8.789999999999999</ele>
        <time>2018-07-06T12:16:20Z</time>
      </trkpt>
      <trkpt lat="48.443625038489699" lon="-4.276157990098">
        <ele>13.6</ele>
        <time>2018-07-06T12:16:30Z</time>
      </trkpt>
      <trkpt lat="48.443696033209562" lon="-4.276062017306685">
        <ele>13.6</ele>
        <time>2018-07-06T12:16:31Z</time>
      </trkpt>
      <trkpt lat="48.44450999982655" lon="-4.274915037676692">
        <ele>15.52</ele>
        <time>2018-07-06T12:16:41Z</time>
      </trkpt>
      <trkpt lat="48.445104025304317" lon="-4.273986993357539">
        <ele>16.48</ele>
        <time>2018-07-06T12:16:48Z</time>
      </trkpt>
      <trkpt lat="48.445169990882277" lon="-4.273833017796278">
        <ele>16.960000000000001</ele>
        <time>2018-07-06T12:16:49Z</time>
      </trkpt>
      <trkpt lat="48.445244003087282" lon="-4.273660015314817">
        <ele>16.48</ele>
        <time>2018-07-06T12:16:50Z</time>
      </trkpt>
      <trkpt lat="48.445280967280269" lon="-4.273504028096795">
        <ele>16.960000000000001</ele>
        <time>2018-07-06T12:16:51Z</time>
      </trkpt>
      <trkpt lat="48.445320026949048" lon="-4.273337982594967">
        <ele>16.960000000000001</ele>
        <time>2018-07-06T12:16:52Z</time>
      </trkpt>
      <trkpt lat="48.445693021640182" lon="-4.271619021892548">
        <ele>16</ele>
        <time>2018-07-06T12:17:02Z</time>
      </trkpt>
      <trkpt lat="48.445687992498279" lon="-4.271435961127281">
        <ele>15.039999999999999</ele>
        <time>2018-07-06T12:17:03Z</time>
      </trkpt>
      <trkpt lat="48.445666031911969" lon="-4.270597016438842">
        <ele>10.23</ele>
        <time>2018-07-06T12:17:08Z</time>
      </trkpt>
      <trkpt lat="48.445659996941686" lon="-4.270452009513974">
        <ele>9.27</ele>
        <time>2018-07-06T12:17:09Z</time>
      </trkpt>
      <trkpt lat="48.445523036643863" lon="-4.27027003839612">
        <ele>8.789999999999999</ele>
        <time>2018-07-06T12:17:10Z</time>
      </trkpt>
      <trkpt lat="48.445508033037186" lon="-4.27025000564754">
        <ele>8.310000000000001</ele>
        <time>2018-07-06T12:17:11Z</time>
      </trkpt>
      <trkpt lat="48.445450030267239" lon="-4.270153027027845">
        <ele>7.83</ele>
        <time>2018-07-06T12:17:12Z</time>
      </trkpt>
      <trkpt lat="48.445418011397123" lon="-4.270049007609487">
        <ele>7.35</ele>
        <time>2018-07-06T12:17:13Z</time>
      </trkpt>
      <trkpt lat="48.445403007790446" lon="-4.269905006513">
        <ele>7.35</ele>
        <time>2018-07-06T12:17:14Z</time>
      </trkpt>
      <trkpt lat="48.445439971983433" lon="-4.269762011244893">
        <ele>7.83</ele>
        <time>2018-07-06T12:17:15Z</time>
      </trkpt>
      <trkpt lat="48.44549504108727" lon="-4.269680036231875">
        <ele>7.83</ele>
        <time>2018-07-06T12:17:16Z</time>
      </trkpt>
      <trkpt lat="48.445587996393442" lon="-4.26960501819849">
        <ele>7.83</ele>
        <time>2018-07-06T12:17:17Z</time>
      </trkpt>
      <trkpt lat="48.445705007761717" lon="-4.269391028210521">
        <ele>7.83</ele>
        <time>2018-07-06T12:17:19Z</time>
      </trkpt>
      <trkpt lat="48.445744989439845" lon="-4.26921802572906">
        <ele>7.35</ele>
        <time>2018-07-06T12:17:20Z</time>
      </trkpt>
      <trkpt lat="48.445754963904619" lon="-4.269052986055613">
        <ele>7.35</ele>
        <time>2018-07-06T12:17:21Z</time>
      </trkpt>
      <trkpt lat="48.44579896889627" lon="-4.268347984179854">
        <ele>6.39</ele>
        <time>2018-07-06T12:17:27Z</time>
      </trkpt>
      <trkpt lat="48.445794023573399" lon="-4.268246982246637">
        <ele>6.39</ele>
        <time>2018-07-06T12:17:28Z</time>
      </trkpt>
      <trkpt lat="48.44575404189527" lon="-4.268046990036964">
        <ele>6.39</ele>
        <time>2018-07-06T12:17:30Z</time>
      </trkpt>
      <trkpt lat="48.445752030238509" lon="-4.267917992547154">
        <ele>5.91</ele>
        <time>2018-07-06T12:17:31Z</time>
      </trkpt>
      <trkpt lat="48.445782959461212" lon="-4.267797963693738">
        <ele>5.91</ele>
        <time>2018-07-06T12:17:32Z</time>
      </trkpt>
      <trkpt lat="48.445825036615133" lon="-4.267682963982225">
        <ele>5.42</ele>
        <time>2018-07-06T12:17:33Z</time>
      </trkpt>
      <trkpt lat="48.445855965837836" lon="-4.267550026997924">
        <ele>4.94</ele>
        <time>2018-07-06T12:17:34Z</time>
      </trkpt>
      <trkpt lat="48.44609702937305" lon="-4.266311014071107">
        <ele>4.46</ele>
        <time>2018-07-06T12:17:40Z</time>
      </trkpt>
      <trkpt lat="48.446659035980701" lon="-4.263712959364057">
        <ele>4.46</ele>
        <time>2018-07-06T12:17:51Z</time>
      </trkpt>
      <trkpt lat="48.446771018207073" lon="-4.263388998806477">
        <ele>4.46</ele>
        <time>2018-07-06T12:17:53Z</time>
      </trkpt>
      <trkpt lat="48.446818040683866" lon="-4.26326503045857">
        <ele>4.94</ele>
        <time>2018-07-06T12:17:54Z</time>
      </trkpt>
      <trkpt lat="48.446878977119923" lon="-4.263183977454901">
        <ele>4.94</ele>
        <time>2018-07-06T12:17:55Z</time>
      </trkpt>
      <trkpt lat="48.446986014023423" lon="-4.263041988015175">
        <ele>5.42</ele>
        <time>2018-07-06T12:17:57Z</time>
      </trkpt>
      <trkpt lat="48.447004035115242" lon="-4.262737976387143">
        <ele>5.42</ele>
        <time>2018-07-06T12:17:58Z</time>
      </trkpt>
      <trkpt lat="48.447004035115242" lon="-4.262737976387143">
        <ele>5.42</ele>
        <time>2018-07-06T12:17:59Z</time>
      </trkpt>
      <trkpt lat="48.447013003751636" lon="-4.262680979445577">
        <ele>5.91</ele>
        <time>2018-07-06T12:18:00Z</time>
      </trkpt>
      <trkpt lat="48.447031024843454" lon="-4.262578971683979">
        <ele>5.91</ele>
        <time>2018-07-06T12:18:01Z</time>
      </trkpt>
      <trkpt lat="48.44706698320806" lon="-4.262456009164453">
        <ele>5.91</ele>
        <time>2018-07-06T12:18:02Z</time>
      </trkpt>
      <trkpt lat="48.447120040655136" lon="-4.262393983080983">
        <ele>6.39</ele>
        <time>2018-07-06T12:18:03Z</time>
      </trkpt>
      <trkpt lat="48.447192963212729" lon="-4.262346960604191">
        <ele>6.39</ele>
        <time>2018-07-06T12:18:04Z</time>
      </trkpt>
      <trkpt lat="48.447254989296198" lon="-4.262340003624558">
        <ele>6.87</ele>
        <time>2018-07-06T12:18:05Z</time>
      </trkpt>
      <trkpt lat="48.447325984016061" lon="-4.262331034988165">
        <ele>6.87</ele>
        <time>2018-07-06T12:18:06Z</time>
      </trkpt>
      <trkpt lat="48.447379041463137" lon="-4.262272026389837">
        <ele>7.35</ele>
        <time>2018-07-06T12:18:07Z</time>
      </trkpt>
      <trkpt lat="48.447437966242433" lon="-4.262207988649607">
        <ele>7.35</ele>
        <time>2018-07-06T12:18:08Z</time>
      </trkpt>
      <trkpt lat="48.447948005050421" lon="-4.261308023706079">
        <ele>7.35</ele>
        <time>2018-07-06T12:18:19Z</time>
      </trkpt>
      <trkpt lat="48.44801003113389" lon="-4.261191012337804">
        <ele>7.35</ele>
        <time>2018-07-06T12:18:21Z</time>
      </trkpt>
      <trkpt lat="48.448039032518864" lon="-4.261137032881379">
        <ele>7.35</ele>
        <time>2018-07-06T12:18:22Z</time>
      </trkpt>
      <trkpt lat="48.448077002540231" lon="-4.261065032333136">
        <ele>6.87</ele>
        <time>2018-07-06T12:18:24Z</time>
      </trkpt>
      <trkpt lat="48.448163000866771" lon="-4.260850036516786">
        <ele>6.87</ele>
        <time>2018-07-06T12:18:25Z</time>
      </trkpt>
      <trkpt lat="48.448198959231377" lon="-4.260764960199595">
        <ele>6.87</ele>
        <time>2018-07-06T12:18:27Z</time>
      </trkpt>
      <trkpt lat="48.448235001415014" lon="-4.260680973529816">
        <ele>6.87</ele>
        <time>2018-07-06T12:18:28Z</time>
      </trkpt>
      <trkpt lat="48.448271965608001" lon="-4.260594975203276">
        <ele>6.87</ele>
        <time>2018-07-06T12:18:29Z</time>
      </trkpt>
      <trkpt lat="48.448648983612657" lon="-4.25933500751853">
        <ele>6.39</ele>
        <time>2018-07-06T12:18:41Z</time>
      </trkpt>
      <trkpt lat="48.448972022160888" lon="-4.258147962391377">
        <ele>5.42</ele>
        <time>2018-07-06T12:18:52Z</time>
      </trkpt>
      <trkpt lat="48.449043016880751" lon="-4.257888039574027">
        <ele>4.94</ele>
        <time>2018-07-06T12:18:55Z</time>
      </trkpt>
      <trkpt lat="48.449061037972569" lon="-4.257819978520274">
        <ele>4.46</ele>
        <time>2018-07-06T12:18:56Z</time>
      </trkpt>
      <trkpt lat="48.449075035750866" lon="-4.257770022377372">
        <ele>4.46</ele>
        <time>2018-07-06T12:18:57Z</time>
      </trkpt>
      <trkpt lat="48.449082998558879" lon="-4.257739009335637">
        <ele>3.98</ele>
        <time>2018-07-06T12:18:58Z</time>
      </trkpt>
      <trkpt lat="48.449090961366892" lon="-4.257712019607425">
        <ele>3.98</ele>
        <time>2018-07-06T12:18:59Z</time>
      </trkpt>
      <trkpt lat="48.449157010763884" lon="-4.257470034062862">
        <ele>2.54</ele>
        <time>2018-07-06T12:19:09Z</time>
      </trkpt>
      <trkpt lat="48.44917100854218" lon="-4.257416976615787">
        <ele>3.02</ele>
        <time>2018-07-06T12:19:14Z</time>
      </trkpt>
      <trkpt lat="48.44921400770545" lon="-4.257267024368048">
        <ele>3.02</ele>
        <time>2018-07-06T12:19:15Z</time>
      </trkpt>
      <trkpt lat="48.449253989383578" lon="-4.257092010229826">
        <ele>3.02</ele>
        <time>2018-07-06T12:19:18Z</time>
      </trkpt>
      <trkpt lat="48.44932003878057" lon="-4.256803002208471">
        <ele>3.02</ele>
        <time>2018-07-06T12:19:22Z</time>
      </trkpt>
      <trkpt lat="48.449334958568215" lon="-4.25673795863986">
        <ele>3.02</ele>
        <time>2018-07-06T12:19:23Z</time>
      </trkpt>
      <trkpt lat="48.449350968003273" lon="-4.256668975576758">
        <ele>2.54</ele>
        <time>2018-07-06T12:19:24Z</time>
      </trkpt>
      <trkpt lat="48.449366977438331" lon="-4.256599992513657">
        <ele>2.54</ele>
        <time>2018-07-06T12:19:25Z</time>
      </trkpt>
      <trkpt lat="48.44938600435853" lon="-4.256516005843878">
        <ele>2.54</ele>
        <time>2018-07-06T12:19:26Z</time>
      </trkpt>
      <trkpt lat="48.449376029893756" lon="-4.256446016952395">
        <ele>2.06</ele>
        <time>2018-07-06T12:19:27Z</time>
      </trkpt>
      <trkpt lat="48.44936303794384" lon="-4.256359012797475">
        <ele>1.58</ele>
        <time>2018-07-06T12:19:28Z</time>
      </trkpt>
      <trkpt lat="48.449350968003273" lon="-4.256272008642554">
        <ele>1.58</ele>
        <time>2018-07-06T12:19:29Z</time>
      </trkpt>
      <trkpt lat="48.449337976053357" lon="-4.256190033629537">
        <ele>1.58</ele>
        <time>2018-07-06T12:19:30Z</time>
      </trkpt>
      <trkpt lat="48.449321966618299" lon="-4.256109986454248">
        <ele>1.58</ele>
        <time>2018-07-06T12:19:31Z</time>
      </trkpt>
      <trkpt lat="48.449254995211959" lon="-4.255728023126721">
        <ele>0.62</ele>
        <time>2018-07-06T12:19:39Z</time>
      </trkpt>
      <trkpt lat="48.449215013533831" lon="-4.255492994561791">
        <ele>-0.34</ele>
        <time>2018-07-06T12:19:52Z</time>
      </trkpt>
      <trkpt lat="48.449187017977238" lon="-4.255322003737092">
        <ele>-0.34</ele>
        <time>2018-07-06T12:19:54Z</time>
      </trkpt>
      <trkpt lat="48.449149969965219" lon="-4.255099967122078">
        <ele>0.14</ele>
        <time>2018-07-06T12:19:57Z</time>
      </trkpt>
      <trkpt lat="48.449151981621981" lon="-4.25503701902926">
        <ele>0.14</ele>
        <time>2018-07-06T12:19:58Z</time>
      </trkpt>
      <trkpt lat="48.44917100854218" lon="-4.254391025751829">
        <ele>0.62</ele>
        <time>2018-07-06T12:20:06Z</time>
      </trkpt>
      <trkpt lat="48.449290031567216" lon="-4.253735980018973">
        <ele>0.14</ele>
        <time>2018-07-06T12:20:13Z</time>
      </trkpt>
      <trkpt lat="48.449306963011622" lon="-4.253644030541182">
        <ele>0.14</ele>
        <time>2018-07-06T12:20:14Z</time>
      </trkpt>
      <trkpt lat="48.449323978275061" lon="-4.253553003072739">
        <ele>0.62</ele>
        <time>2018-07-06T12:20:15Z</time>
      </trkpt>
      <trkpt lat="48.449340993538499" lon="-4.253456024453044">
        <ele>0.62</ele>
        <time>2018-07-06T12:20:16Z</time>
      </trkpt>
      <trkpt lat="48.449358008801937" lon="-4.253361979499459">
        <ele>0.62</ele>
        <time>2018-07-06T12:20:17Z</time>
      </trkpt>
      <trkpt lat="48.449373012408614" lon="-4.253280004486442">
        <ele>1.1</ele>
        <time>2018-07-06T12:20:18Z</time>
      </trkpt>
      <trkpt lat="48.44938600435853" lon="-4.25321102142334">
        <ele>1.1</ele>
        <time>2018-07-06T12:20:19Z</time>
      </trkpt>
      <trkpt lat="48.449391033500433" lon="-4.253128962591291">
        <ele>1.58</ele>
        <time>2018-07-06T12:20:20Z</time>
      </trkpt>
      <trkpt lat="48.449407964944839" lon="-4.252888988703489">
        <ele>1.1</ele>
        <time>2018-07-06T12:20:23Z</time>
      </trkpt>
      <trkpt lat="48.449412994086742" lon="-4.252818999812007">
        <ele>1.1</ele>
        <time>2018-07-06T12:20:24Z</time>
      </trkpt>
      <trkpt lat="48.449426991865039" lon="-4.252612972632051">
        <ele>1.58</ele>
        <time>2018-07-06T12:20:27Z</time>
      </trkpt>
      <trkpt lat="48.4494290035218" lon="-4.25258900038898">
        <ele>1.1</ele>
        <time>2018-07-06T12:20:28Z</time>
      </trkpt>
      <trkpt lat="48.4494290035218" lon="-4.252309966832399">
        <ele>1.1</ele>
        <time>2018-07-06T12:20:29Z</time>
      </trkpt>
      <trkpt lat="48.4494290035218" lon="-4.252309966832399">
        <ele>1.1</ele>
        <time>2018-07-06T12:20:30Z</time>
      </trkpt>
      <trkpt lat="48.449446018785238" lon="-4.252250036224723">
        <ele>0.62</ele>
        <time>2018-07-06T12:20:31Z</time>
      </trkpt>
      <trkpt lat="48.449468985199928" lon="-4.252166971564293">
        <ele>0.62</ele>
        <time>2018-07-06T12:20:32Z</time>
      </trkpt>
      <trkpt lat="48.449698984622955" lon="-4.251327021047473">
        <ele>0.62</ele>
        <time>2018-07-06T12:20:42Z</time>
      </trkpt>
      <trkpt lat="48.449939964339137" lon="-4.25059100612998">
        <ele>1.58</ele>
        <time>2018-07-06T12:20:52Z</time>
      </trkpt>
      <trkpt lat="48.449999978765845" lon="-4.25039503723383">
        <ele>1.58</ele>
        <time>2018-07-06T12:20:57Z</time>
      </trkpt>
      <trkpt lat="48.449999978765845" lon="-4.25039503723383">
        <ele>1.58</ele>
        <time>2018-07-06T12:20:58Z</time>
      </trkpt>
      <trkpt lat="48.450109027326107" lon="-4.250059006735683">
        <ele>3.02</ele>
        <time>2018-07-06T12:21:10Z</time>
      </trkpt>
      <trkpt lat="48.450319999828935" lon="-4.249524995684624">
        <ele>3.5</ele>
        <time>2018-07-06T12:21:23Z</time>
      </trkpt>
      <trkpt lat="48.450434999540448" lon="-4.249354004859924">
        <ele>3.98</ele>
        <time>2018-07-06T12:21:34Z</time>
      </trkpt>
      <trkpt lat="48.450699029490352" lon="-4.248976986855269">
        <ele>4.94</ele>
        <time>2018-07-06T12:21:50Z</time>
      </trkpt>
      <trkpt lat="48.450885023921728" lon="-4.248719997704029">
        <ele>5.42</ele>
        <time>2018-07-06T12:22:03Z</time>
      </trkpt>
      <trkpt lat="48.451028019189835" lon="-4.248553030192852">
        <ele>5.91</ele>
        <time>2018-07-06T12:22:07Z</time>
      </trkpt>
      <trkpt lat="48.45110303722322" lon="-4.248462002724409">
        <ele>6.39</ele>
        <time>2018-07-06T12:22:09Z</time>
      </trkpt>
      <trkpt lat="48.451140001416206" lon="-4.248416991904378">
        <ele>6.39</ele>
        <time>2018-07-06T12:22:10Z</time>
      </trkpt>
      <trkpt lat="48.451520036906004" lon="-4.247940983623266">
        <ele>6.39</ele>
        <time>2018-07-06T12:22:19Z</time>
      </trkpt>
      <trkpt lat="48.451712988317013" lon="-4.247694974765182">
        <ele>6.39</ele>
        <time>2018-07-06T12:22:23Z</time>
      </trkpt>
      <trkpt lat="48.45177099108696" lon="-4.247620962560177">
        <ele>6.39</ele>
        <time>2018-07-06T12:22:24Z</time>
      </trkpt>
      <trkpt lat="48.452210035175085" lon="-4.247060967609286">
        <ele>6.87</ele>
        <time>2018-07-06T12:22:33Z</time>
      </trkpt>
      <trkpt lat="48.452255968004465" lon="-4.247002964839339">
        <ele>6.39</ele>
        <time>2018-07-06T12:22:34Z</time>
      </trkpt>
      <trkpt lat="48.452292010188103" lon="-4.246957032009959">
        <ele>7.35</ele>
        <time>2018-07-06T12:22:35Z</time>
      </trkpt>
      <trkpt lat="48.452368034049869" lon="-4.246859969571233">
        <ele>7.35</ele>
        <time>2018-07-06T12:22:37Z</time>
      </trkpt>
      <trkpt lat="48.452432993799448" lon="-4.246752010658383">
        <ele>7.83</ele>
        <time>2018-07-06T12:22:38Z</time>
      </trkpt>
      <trkpt lat="48.452455960214138" lon="-4.24672300927341">
        <ele>7.83</ele>
        <time>2018-07-06T12:22:39Z</time>
      </trkpt>
      <trkpt lat="48.452514968812466" lon="-4.246648997068405">
        <ele>7.83</ele>
        <time>2018-07-06T12:22:40Z</time>
      </trkpt>
      <trkpt lat="48.452571965754032" lon="-4.246576996520162">
        <ele>8.310000000000001</ele>
        <time>2018-07-06T12:22:41Z</time>
      </trkpt>
      <trkpt lat="48.452624017372727" lon="-4.246511030942202">
        <ele>8.310000000000001</ele>
        <time>2018-07-06T12:22:42Z</time>
      </trkpt>
      <trkpt lat="48.452679002657533" lon="-4.246441964060068">
        <ele>8.789999999999999</ele>
        <time>2018-07-06T12:22:43Z</time>
      </trkpt>
      <trkpt lat="48.45273700542748" lon="-4.246369963511825">
        <ele>8.789999999999999</ele>
        <time>2018-07-06T12:22:44Z</time>
      </trkpt>
      <trkpt lat="48.452973961830139" lon="-4.246070981025696">
        <ele>9.27</ele>
        <time>2018-07-06T12:22:48Z</time>
      </trkpt>
      <trkpt lat="48.453042022883892" lon="-4.245983976870775">
        <ele>9.75</ele>
        <time>2018-07-06T12:22:49Z</time>
      </trkpt>
      <trkpt lat="48.453723974525928" lon="-4.24511200748384">
        <ele>11.67</ele>
        <time>2018-07-06T12:23:00Z</time>
      </trkpt>
      <trkpt lat="48.453795975074172" lon="-4.245019974187017">
        <ele>11.67</ele>
        <time>2018-07-06T12:23:02Z</time>
      </trkpt>
      <trkpt lat="48.453827993944287" lon="-4.244978986680508">
        <ele>11.67</ele>
        <time>2018-07-06T12:23:03Z</time>
      </trkpt>
      <trkpt lat="48.453863030299544" lon="-4.244934981688857">
        <ele>11.19</ele>
        <time>2018-07-06T12:23:04Z</time>
      </trkpt>
      <trkpt lat="48.453910974785686" lon="-4.244784023612738">
        <ele>11.19</ele>
        <time>2018-07-06T12:23:05Z</time>
      </trkpt>
      <trkpt lat="48.453892031684518" lon="-4.244734989479184">
        <ele>10.710000000000001</ele>
        <time>2018-07-06T12:23:06Z</time>
      </trkpt>
      <trkpt lat="48.453841991722584" lon="-4.244648991152644">
        <ele>10.710000000000001</ele>
        <time>2018-07-06T12:23:07Z</time>
      </trkpt>
      <trkpt lat="48.453801004216075" lon="-4.24457598477602">
        <ele>10.23</ele>
        <time>2018-07-06T12:23:08Z</time>
      </trkpt>
      <trkpt lat="48.453759010881186" lon="-4.244496021419764">
        <ele>9.75</ele>
        <time>2018-07-06T12:23:09Z</time>
      </trkpt>
      <trkpt lat="48.453710982576013" lon="-4.244405999779701">
        <ele>9.27</ele>
        <time>2018-07-06T12:23:10Z</time>
      </trkpt>
      <trkpt lat="48.45366102643311" lon="-4.244311032816768">
        <ele>9.27</ele>
        <time>2018-07-06T12:23:11Z</time>
      </trkpt>
      <trkpt lat="48.453051997348666" lon="-4.243311993777752">
        <ele>10.23</ele>
        <time>2018-07-06T12:23:21Z</time>
      </trkpt>
      <trkpt lat="48.452677996829152" lon="-4.242693996056914">
        <ele>12.15</ele>
        <time>2018-07-06T12:23:28Z</time>
      </trkpt>
      <trkpt lat="48.452485967427492" lon="-4.242406999692321">
        <ele>13.6</ele>
        <time>2018-07-06T12:23:35Z</time>
      </trkpt>
      <trkpt lat="48.452455038204789" lon="-4.242374980822206">
        <ele>13.6</ele>
        <time>2018-07-06T12:23:36Z</time>
      </trkpt>
      <trkpt lat="48.452438022941351" lon="-4.242303986102343">
        <ele>13.119999999999999</ele>
        <time>2018-07-06T12:23:37Z</time>
      </trkpt>
      <trkpt lat="48.452446991577744" lon="-4.242226034402847">
        <ele>13.119999999999999</ele>
        <time>2018-07-06T12:23:38Z</time>
      </trkpt>
      <trkpt lat="48.452454032376409" lon="-4.242159985005856">
        <ele>13.119999999999999</ele>
        <time>2018-07-06T12:23:39Z</time>
      </trkpt>
      <trkpt lat="48.452591998502612" lon="-4.242072980850935">
        <ele>12.630000000000001</ele>
        <time>2018-07-06T12:23:40Z</time>
      </trkpt>
      <trkpt lat="48.452626029029489" lon="-4.241902995854616">
        <ele>12.15</ele>
        <time>2018-07-06T12:23:41Z</time>
      </trkpt>
      <trkpt lat="48.452639020979404" lon="-4.241871982812882">
        <ele>12.15</ele>
        <time>2018-07-06T12:23:42Z</time>
      </trkpt>
      <trkpt lat="48.453063983470201" lon="-4.24107301980257">
        <ele>14.08</ele>
        <time>2018-07-06T12:23:50Z</time>
      </trkpt>
      <trkpt lat="48.453562958166003" lon="-4.240222005173564">
        <ele>15.039999999999999</ele>
        <time>2018-07-06T12:23:58Z</time>
      </trkpt>
      <trkpt lat="48.454046007245779" lon="-4.239446008577943">
        <ele>16.960000000000001</ele>
        <time>2018-07-06T12:24:07Z</time>
      </trkpt>
      <trkpt lat="48.454255973920226" lon="-4.239114001393318">
        <ele>17.920000000000002</ele>
        <time>2018-07-06T12:24:16Z</time>
      </trkpt>
      <trkpt lat="48.454344989731908" lon="-4.238981986418366">
        <ele>17.920000000000002</ele>
        <time>2018-07-06T12:24:19Z</time>
      </trkpt>
      <trkpt lat="48.4543920122087" lon="-4.238909985870123">
        <ele>17.920000000000002</ele>
        <time>2018-07-06T12:24:20Z</time>
      </trkpt>
      <trkpt lat="48.454786967486143" lon="-4.238253012299538">
        <ele>19.84</ele>
        <time>2018-07-06T12:24:27Z</time>
      </trkpt>
      <trkpt lat="48.454827032983303" lon="-4.238182017579675">
        <ele>19.84</ele>
        <time>2018-07-06T12:24:28Z</time>
      </trkpt>
      <trkpt lat="48.455280996859074" lon="-4.237400991842151">
        <ele>21.77</ele>
        <time>2018-07-06T12:24:36Z</time>
      </trkpt>
      <trkpt lat="48.455963032320142" lon="-4.23625803552568">
        <ele>24.170000000000002</ele>
        <time>2018-07-06T12:24:44Z</time>
      </trkpt>
      <trkpt lat="48.456988977268338" lon="-4.234544020146132">
        <ele>26.57</ele>
        <time>2018-07-06T12:24:53Z</time>
      </trkpt>
      <trkpt lat="48.457949962466955" lon="-4.232662031427026">
        <ele>32.82</ele>
        <time>2018-07-06T12:25:01Z</time>
      </trkpt>
      <trkpt lat="48.458549017086625" lon="-4.23009398393333">
        <ele>38.590000000000003</ele>
        <time>2018-07-06T12:25:10Z</time>
      </trkpt>
      <trkpt lat="48.459123009815812" lon="-4.227189989760518">
        <ele>46.280000000000001</ele>
        <time>2018-07-06T12:25:20Z</time>
      </trkpt>
      <trkpt lat="48.459429033100605" lon="-4.226071005687118">
        <ele>49.159999999999997</ele>
        <time>2018-07-06T12:25:24Z</time>
      </trkpt>
      <trkpt lat="48.460352970287204" lon="-4.224037975072861">
        <ele>53.969999999999999</ele>
        <time>2018-07-06T12:25:32Z</time>
      </trkpt>
      <trkpt lat="48.461311021819711" lon="-4.22205900773406">
        <ele>56.859999999999999</ele>
        <time>2018-07-06T12:25:40Z</time>
      </trkpt>
      <trkpt lat="48.461427027359605" lon="-4.221818028017879">
        <ele>56.859999999999999</ele>
        <time>2018-07-06T12:25:41Z</time>
      </trkpt>
      <trkpt lat="48.461541021242738" lon="-4.221584005281329">
        <ele>57.340000000000003</ele>
        <time>2018-07-06T12:25:42Z</time>
      </trkpt>
      <trkpt lat="48.462380971759558" lon="-4.219852974638343">
        <ele>58.299999999999997</ele>
        <time>2018-07-06T12:25:50Z</time>
      </trkpt>
      <trkpt lat="48.462818004190922" lon="-4.219015035778284">
        <ele>59.259999999999998</ele>
        <time>2018-07-06T12:25:54Z</time>
      </trkpt>
      <trkpt lat="48.463223017752171" lon="-4.218511031940579">
        <ele>60.700000000000003</ele>
        <time>2018-07-06T12:25:57Z</time>
      </trkpt>
      <trkpt lat="48.464187020435929" lon="-4.217345025390387">
        <ele>63.100000000000001</ele>
        <time>2018-07-06T12:26:04Z</time>
      </trkpt>
      <trkpt lat="48.46440302208066" lon="-4.216931965202093">
        <ele>64.069999999999993</ele>
        <time>2018-07-06T12:26:06Z</time>
      </trkpt>
      <trkpt lat="48.464470999315381" lon="-4.216700037941337">
        <ele>64.549999999999997</ele>
        <time>2018-07-06T12:26:07Z</time>
      </trkpt>
      <trkpt lat="48.465100983157754" lon="-4.214495010674">
        <ele>68.870000000000005</ele>
        <time>2018-07-06T12:26:16Z</time>
      </trkpt>
      <trkpt lat="48.46545897424221" lon="-4.213267983868718">
        <ele>70.310000000000002</ele>
        <time>2018-07-06T12:26:21Z</time>
      </trkpt>
      <trkpt lat="48.46638098359108" lon="-4.211367974057794">
        <ele>73.200000000000003</ele>
        <time>2018-07-06T12:26:30Z</time>
      </trkpt>
      <trkpt lat="48.466994035989046" lon="-4.210042962804437">
        <ele>73.200000000000003</ele>
        <time>2018-07-06T12:26:38Z</time>
      </trkpt>
      <trkpt lat="48.46704600378871" lon="-4.209865015000105">
        <ele>73.200000000000003</ele>
        <time>2018-07-06T12:26:39Z</time>
      </trkpt>
      <trkpt lat="48.467053966596723" lon="-4.20968497171998">
        <ele>73.200000000000003</ele>
        <time>2018-07-06T12:26:40Z</time>
      </trkpt>
      <trkpt lat="48.467061007395387" lon="-4.209501994773746">
        <ele>73.200000000000003</ele>
        <time>2018-07-06T12:26:41Z</time>
      </trkpt>
      <trkpt lat="48.467055978253484" lon="-4.209306025877595">
        <ele>73.680000000000007</ele>
        <time>2018-07-06T12:26:42Z</time>
      </trkpt>
      <trkpt lat="48.467018008232117" lon="-4.209137968719006">
        <ele>72.719999999999999</ele>
        <time>2018-07-06T12:26:43Z</time>
      </trkpt>
      <trkpt lat="48.466966962441802" lon="-4.208972007036209">
        <ele>73.200000000000003</ele>
        <time>2018-07-06T12:26:44Z</time>
      </trkpt>
      <trkpt lat="48.466912982985377" lon="-4.208816019818187">
        <ele>72.719999999999999</ele>
        <time>2018-07-06T12:26:45Z</time>
      </trkpt>
      <trkpt lat="48.466433035209775" lon="-4.207351030781865">
        <ele>73.680000000000007</ele>
        <time>2018-07-06T12:26:53Z</time>
      </trkpt>
      <trkpt lat="48.466281993314624" lon="-4.206568999215961">
        <ele>73.200000000000003</ele>
        <time>2018-07-06T12:26:56Z</time>
      </trkpt>
      <trkpt lat="48.466217033565044" lon="-4.206299018114805">
        <ele>73.200000000000003</ele>
        <time>2018-07-06T12:26:57Z</time>
      </trkpt>
      <trkpt lat="48.466120976954699" lon="-4.206033982336521">
        <ele>73.200000000000003</ele>
        <time>2018-07-06T12:26:58Z</time>
      </trkpt>
      <trkpt lat="48.465914027765393" lon="-4.205496031790972">
        <ele>72.239999999999995</ele>
        <time>2018-07-06T12:27:00Z</time>
      </trkpt>
      <trkpt lat="48.465712023898959" lon="-4.204971995204687">
        <ele>71.760000000000005</ele>
        <time>2018-07-06T12:27:02Z</time>
      </trkpt>
      <trkpt lat="48.465310027822852" lon="-4.204285014420748">
        <ele>70.790000000000006</ele>
        <time>2018-07-06T12:27:05Z</time>
      </trkpt>
      <trkpt lat="48.465173989534378" lon="-4.204068006947637">
        <ele>70.310000000000002</ele>
        <time>2018-07-06T12:27:06Z</time>
      </trkpt>
      <trkpt lat="48.465039962902665" lon="-4.203853011131287">
        <ele>69.829999999999998</ele>
        <time>2018-07-06T12:27:07Z</time>
      </trkpt>
      <trkpt lat="48.464665040373802" lon="-4.203251022845507">
        <ele>69.349999999999994</ele>
        <time>2018-07-06T12:27:10Z</time>
      </trkpt>
      <trkpt lat="48.464564038440585" lon="-4.20304499566555">
        <ele>69.349999999999994</ele>
        <time>2018-07-06T12:27:11Z</time>
      </trkpt>
      <trkpt lat="48.464487008750439" lon="-4.202821031212807">
        <ele>69.349999999999994</ele>
        <time>2018-07-06T12:27:12Z</time>
      </trkpt>
      <trkpt lat="48.464432023465633" lon="-4.202576028183103">
        <ele>69.829999999999998</ele>
        <time>2018-07-06T12:27:13Z</time>
      </trkpt>
      <trkpt lat="48.464406039565802" lon="-4.20233303681016">
        <ele>69.829999999999998</ele>
        <time>2018-07-06T12:27:14Z</time>
      </trkpt>
      <trkpt lat="48.464406039565802" lon="-4.202083004638553">
        <ele>69.829999999999998</ele>
        <time>2018-07-06T12:27:15Z</time>
      </trkpt>
      <trkpt lat="48.464438980445266" lon="-4.201824003830552">
        <ele>69.349999999999994</ele>
        <time>2018-07-06T12:27:16Z</time>
      </trkpt>
      <trkpt lat="48.464479967951775" lon="-4.201554022729397">
        <ele>69.349999999999994</ele>
        <time>2018-07-06T12:27:17Z</time>
      </trkpt>
      <trkpt lat="48.464674009010196" lon="-4.200194980949163">
        <ele>68.870000000000005</ele>
        <time>2018-07-06T12:27:22Z</time>
      </trkpt>
      <trkpt lat="48.46468498930335" lon="-4.199889041483402">
        <ele>68.870000000000005</ele>
        <time>2018-07-06T12:27:23Z</time>
      </trkpt>
      <trkpt lat="48.464564038440585" lon="-4.198431009426713">
        <ele>69.349999999999994</ele>
        <time>2018-07-06T12:27:28Z</time>
      </trkpt>
      <trkpt lat="48.464544005692005" lon="-4.198148958384991">
        <ele>69.829999999999998</ele>
        <time>2018-07-06T12:27:29Z</time>
      </trkpt>
      <trkpt lat="48.464524978771806" lon="-4.197879983112216">
        <ele>70.310000000000002</ele>
        <time>2018-07-06T12:27:30Z</time>
      </trkpt>
      <trkpt lat="48.464491032063961" lon="-4.197618970647454">
        <ele>70.790000000000006</ele>
        <time>2018-07-06T12:27:31Z</time>
      </trkpt>
      <trkpt lat="48.464435040950775" lon="-4.197357958182693">
        <ele>71.269999999999996</ele>
        <time>2018-07-06T12:27:32Z</time>
      </trkpt>
      <trkpt lat="48.464372009038925" lon="-4.197094012051821">
        <ele>71.269999999999996</ele>
        <time>2018-07-06T12:27:33Z</time>
      </trkpt>
      <trkpt lat="48.464266983792186" lon="-4.196871975436807">
        <ele>71.760000000000005</ele>
        <time>2018-07-06T12:27:34Z</time>
      </trkpt>
      <trkpt lat="48.464148966595531" lon="-4.196653962135315">
        <ele>71.760000000000005</ele>
        <time>2018-07-06T12:27:35Z</time>
      </trkpt>
      <trkpt lat="48.46401896327734" lon="-4.196445001289249">
        <ele>71.760000000000005</ele>
        <time>2018-07-06T12:27:36Z</time>
      </trkpt>
      <trkpt lat="48.463868005201221" lon="-4.196265963837504">
        <ele>71.269999999999996</ele>
        <time>2018-07-06T12:27:37Z</time>
      </trkpt>
      <trkpt lat="48.463069964200258" lon="-4.19535200111568">
        <ele>70.790000000000006</ele>
        <time>2018-07-06T12:27:42Z</time>
      </trkpt>
      <trkpt lat="48.462274018675089" lon="-4.194534011185169">
        <ele>68.870000000000005</ele>
        <time>2018-07-06T12:27:47Z</time>
      </trkpt>
      <trkpt lat="48.462092969566584" lon="-4.194400990381837">
        <ele>68.390000000000001</ele>
        <time>2018-07-06T12:27:48Z</time>
      </trkpt>
      <trkpt lat="48.461908986791968" lon="-4.194323038682342">
        <ele>67.430000000000007</ele>
        <time>2018-07-06T12:27:49Z</time>
      </trkpt>
      <trkpt lat="48.461165009066463" lon="-4.194008968770504">
        <ele>65.989999999999995</ele>
        <time>2018-07-06T12:27:53Z</time>
      </trkpt>
      <trkpt lat="48.460255991667509" lon="-4.193471018224955">
        <ele>66.469999999999999</ele>
        <time>2018-07-06T12:27:59Z</time>
      </trkpt>
      <trkpt lat="48.46012900583446" lon="-4.193443022668362">
        <ele>66.950000000000003</ele>
        <time>2018-07-06T12:28:00Z</time>
      </trkpt>
      <trkpt lat="48.46000000834465" lon="-4.193415027111769">
        <ele>66.469999999999999</ele>
        <time>2018-07-06T12:28:01Z</time>
      </trkpt>
      <trkpt lat="48.459867993369699" lon="-4.193387031555176">
        <ele>66.469999999999999</ele>
        <time>2018-07-06T12:28:02Z</time>
      </trkpt>
      <trkpt lat="48.45974100753665" lon="-4.193361969664693">
        <ele>66.469999999999999</ele>
        <time>2018-07-06T12:28:03Z</time>
      </trkpt>
      <trkpt lat="48.458865014836192" lon="-4.19324797578156">
        <ele>66.950000000000003</ele>
        <time>2018-07-06T12:28:10Z</time>
      </trkpt>
      <trkpt lat="48.458746997639537" lon="-4.193201037123799">
        <ele>66.950000000000003</ele>
        <time>2018-07-06T12:28:11Z</time>
      </trkpt>
      <trkpt lat="48.458635015413165" lon="-4.193129958584905">
        <ele>66.950000000000003</ele>
        <time>2018-07-06T12:28:12Z</time>
      </trkpt>
      <trkpt lat="48.458526972681284" lon="-4.193021999672055">
        <ele>67.430000000000007</ele>
        <time>2018-07-06T12:28:13Z</time>
      </trkpt>
      <trkpt lat="48.458450026810169" lon="-4.19288101606071">
        <ele>67.909999999999997</ele>
        <time>2018-07-06T12:28:14Z</time>
      </trkpt>
      <trkpt lat="48.458375008776784" lon="-4.192712958902121">
        <ele>68.390000000000001</ele>
        <time>2018-07-06T12:28:15Z</time>
      </trkpt>
      <trkpt lat="48.458314994350076" lon="-4.192515984177589">
        <ele>68.870000000000005</ele>
        <time>2018-07-06T12:28:16Z</time>
      </trkpt>
      <trkpt lat="48.458252968266606" lon="-4.192315991967917">
        <ele>69.349999999999994</ele>
        <time>2018-07-06T12:28:17Z</time>
      </trkpt>
      <trkpt lat="48.458189014345407" lon="-4.192106025293469">
        <ele>69.829999999999998</ele>
        <time>2018-07-06T12:28:18Z</time>
      </trkpt>
      <trkpt lat="48.458102010190487" lon="-4.191888011991978">
        <ele>70.310000000000002</ele>
        <time>2018-07-06T12:28:19Z</time>
      </trkpt>
      <trkpt lat="48.45798097550869" lon="-4.191697994247079">
        <ele>71.269999999999996</ele>
        <time>2018-07-06T12:28:20Z</time>
      </trkpt>
      <trkpt lat="48.45785197801888" lon="-4.191502025350928">
        <ele>72.239999999999995</ele>
        <time>2018-07-06T12:28:21Z</time>
      </trkpt>
      <trkpt lat="48.457709988579154" lon="-4.191317036747932">
        <ele>73.200000000000003</ele>
        <time>2018-07-06T12:28:22Z</time>
      </trkpt>
      <trkpt lat="48.456164030358195" lon="-4.189300015568733">
        <ele>80.409999999999997</ele>
        <time>2018-07-06T12:28:32Z</time>
      </trkpt>
      <trkpt lat="48.45501302741468" lon="-4.187548030167818">
        <ele>88.099999999999994</ele>
        <time>2018-07-06T12:28:40Z</time>
      </trkpt>
      <trkpt lat="48.453506967052817" lon="-4.185396982356906">
        <ele>100.11</ele>
        <time>2018-07-06T12:28:50Z</time>
      </trkpt>
      <trkpt lat="48.451787000522017" lon="-4.184256037697196">
        <ele>108.77</ele>
        <time>2018-07-06T12:28:59Z</time>
      </trkpt>
      <trkpt lat="48.449885984882712" lon="-4.183006966486573">
        <ele>117.90000000000001</ele>
        <time>2018-07-06T12:29:09Z</time>
      </trkpt>
      <trkpt lat="48.448706986382604" lon="-4.182357033714652">
        <ele>123.19</ele>
        <time>2018-07-06T12:29:15Z</time>
      </trkpt>
      <trkpt lat="48.448500959202647" lon="-4.182346975430846">
        <ele>123.67</ele>
        <time>2018-07-06T12:29:16Z</time>
      </trkpt>
      <trkpt lat="48.448294010013342" lon="-4.182339012622833">
        <ele>124.15000000000001</ele>
        <time>2018-07-06T12:29:17Z</time>
      </trkpt>
      <trkpt lat="48.448092006146908" lon="-4.182370025664568">
        <ele>124.15000000000001</ele>
        <time>2018-07-06T12:29:18Z</time>
      </trkpt>
      <trkpt lat="48.447893019765615" lon="-4.182463986799121">
        <ele>125.11</ele>
        <time>2018-07-06T12:29:19Z</time>
      </trkpt>
      <trkpt lat="48.447703002020717" lon="-4.182577980682254">
        <ele>125.59</ele>
        <time>2018-07-06T12:29:20Z</time>
      </trkpt>
      <trkpt lat="48.44751700758934" lon="-4.182703960686922">
        <ele>126.06999999999999</ele>
        <time>2018-07-06T12:29:21Z</time>
      </trkpt>
      <trkpt lat="48.446230972185731" lon="-4.183666035532951">
        <ele>129.91999999999999</ele>
        <time>2018-07-06T12:29:28Z</time>
      </trkpt>
      <trkpt lat="48.446031985804439" lon="-4.183759996667504">
        <ele>130.88</ele>
        <time>2018-07-06T12:29:29Z</time>
      </trkpt>
      <trkpt lat="48.445831993594766" lon="-4.183843983337283">
        <ele>131.36000000000001</ele>
        <time>2018-07-06T12:29:30Z</time>
      </trkpt>
      <trkpt lat="48.445624960586429" lon="-4.18387901969254">
        <ele>132.31999999999999</ele>
        <time>2018-07-06T12:29:31Z</time>
      </trkpt>
      <trkpt lat="48.445417005568743" lon="-4.183888994157314">
        <ele>132.80000000000001</ele>
        <time>2018-07-06T12:29:32Z</time>
      </trkpt>
      <trkpt lat="48.445212990045547" lon="-4.183845994994044">
        <ele>133.75999999999999</ele>
        <time>2018-07-06T12:29:33Z</time>
      </trkpt>
      <trkpt lat="48.442945014685392" lon="-4.183360012248159">
        <ele>142.88999999999999</ele>
        <time>2018-07-06T12:29:44Z</time>
      </trkpt>
      <trkpt lat="48.4400590416044" lon="-4.182724999263883">
        <ele>156.34999999999999</ele>
        <time>2018-07-06T12:29:58Z</time>
      </trkpt>
      <trkpt lat="48.439681017771363" lon="-4.182559037581086">
        <ele>158.27000000000001</ele>
        <time>2018-07-06T12:30:00Z</time>
      </trkpt>
      <trkpt lat="48.439515978097916" lon="-4.18245904147625">
        <ele>159.24000000000001</ele>
        <time>2018-07-06T12:30:01Z</time>
      </trkpt>
      <trkpt lat="48.439368037506938" lon="-4.182355022057891">
        <ele>160.19999999999999</ele>
        <time>2018-07-06T12:30:02Z</time>
      </trkpt>
      <trkpt lat="48.43924599699676" lon="-4.182189982384443">
        <ele>161.16</ele>
        <time>2018-07-06T12:30:03Z</time>
      </trkpt>
      <trkpt lat="48.439121022820473" lon="-4.182021003216505">
        <ele>162.12</ele>
        <time>2018-07-06T12:30:04Z</time>
      </trkpt>
      <trkpt lat="48.438994958996773" lon="-4.181851018220186">
        <ele>163.08000000000001</ele>
        <time>2018-07-06T12:30:05Z</time>
      </trkpt>
      <trkpt lat="48.438906027004123" lon="-4.181650020182133">
        <ele>164.03999999999999</ele>
        <time>2018-07-06T12:30:06Z</time>
      </trkpt>
      <trkpt lat="48.438826985657215" lon="-4.181423038244247">
        <ele>164.52000000000001</ele>
        <time>2018-07-06T12:30:07Z</time>
      </trkpt>
      <trkpt lat="48.438747022300959" lon="-4.181189015507698">
        <ele>165.47999999999999</ele>
        <time>2018-07-06T12:30:08Z</time>
      </trkpt>
      <trkpt lat="48.438711985945702" lon="-4.180928003042936">
        <ele>165.47999999999999</ele>
        <time>2018-07-06T12:30:09Z</time>
      </trkpt>
      <trkpt lat="48.438678039237857" lon="-4.180643018335104">
        <ele>165.96000000000001</ele>
        <time>2018-07-06T12:30:10Z</time>
      </trkpt>
      <trkpt lat="48.438674015924335" lon="-4.18033498339355">
        <ele>165.96000000000001</ele>
        <time>2018-07-06T12:30:11Z</time>
      </trkpt>
      <trkpt lat="48.438670998439193" lon="-4.180014962330461">
        <ele>166.44999999999999</ele>
        <time>2018-07-06T12:30:12Z</time>
      </trkpt>
      <trkpt lat="48.438625987619162" lon="-4.176335977390409">
        <ele>165.47999999999999</ele>
        <time>2018-07-06T12:30:23Z</time>
      </trkpt>
      <trkpt lat="48.438372015953064" lon="-4.173561986535788">
        <ele>160.68000000000001</ele>
        <time>2018-07-06T12:30:32Z</time>
      </trkpt>
      <trkpt lat="48.437645975500345" lon="-4.170633014291525">
        <ele>153.47</ele>
        <time>2018-07-06T12:30:42Z</time>
      </trkpt>
      <trkpt lat="48.437227969989181" lon="-4.167868997901678">
        <ele>145.78</ele>
        <time>2018-07-06T12:30:51Z</time>
      </trkpt>
      <trkpt lat="48.436992019414902" lon="-4.165455009788275">
        <ele>145.78</ele>
        <time>2018-07-06T12:30:59Z</time>
      </trkpt>
      <trkpt lat="48.436588011682034" lon="-4.163040015846491">
        <ele>151.53999999999999</ele>
        <time>2018-07-06T12:31:08Z</time>
      </trkpt>
      <trkpt lat="48.435804974287748" lon="-4.160443972796202">
        <ele>151.06</ele>
        <time>2018-07-06T12:31:16Z</time>
      </trkpt>
      <trkpt lat="48.43486201018095" lon="-4.157303022220731">
        <ele>149.62</ele>
        <time>2018-07-06T12:31:27Z</time>
      </trkpt>
      <trkpt lat="48.433754006400704" lon="-4.153752028942108">
        <ele>148.18000000000001</ele>
        <time>2018-07-06T12:31:40Z</time>
      </trkpt>
      <trkpt lat="48.432695958763361" lon="-4.150312012061477">
        <ele>148.18000000000001</ele>
        <time>2018-07-06T12:31:54Z</time>
      </trkpt>
      <trkpt lat="48.432014007121325" lon="-4.146728999912739">
        <ele>142.88999999999999</ele>
        <time>2018-07-06T12:32:08Z</time>
      </trkpt>
      <trkpt lat="48.43155300244689" lon="-4.142480967566371">
        <ele>130.88</ele>
        <time>2018-07-06T12:32:24Z</time>
      </trkpt>
      <trkpt lat="48.431177996098995" lon="-4.138774992898107">
        <ele>119.81999999999999</ele>
        <time>2018-07-06T12:32:38Z</time>
      </trkpt>
      <trkpt lat="48.430592017248273" lon="-4.136841958388686">
        <ele>114.05</ele>
        <time>2018-07-06T12:32:46Z</time>
      </trkpt>
      <trkpt lat="48.429576968774199" lon="-4.134319005534053">
        <ele>106.36</ele>
        <time>2018-07-06T12:32:57Z</time>
      </trkpt>
      <trkpt lat="48.428807007148862" lon="-4.131879033520818">
        <ele>99.629999999999995</ele>
        <time>2018-07-06T12:33:07Z</time>
      </trkpt>
      <trkpt lat="48.427852978929877" lon="-4.129322972148657">
        <ele>91.939999999999998</ele>
        <time>2018-07-06T12:33:18Z</time>
      </trkpt>
      <trkpt lat="48.427071031183004" lon="-4.126937985420227">
        <ele>89.060000000000002</ele>
        <time>2018-07-06T12:33:28Z</time>
      </trkpt>
      <trkpt lat="48.426861986517906" lon="-4.124584011733532">
        <ele>90.5</ele>
        <time>2018-07-06T12:33:37Z</time>
      </trkpt>
      <trkpt lat="48.426710022613406" lon="-4.122745022177696">
        <ele>94.829999999999998</ele>
        <time>2018-07-06T12:33:44Z</time>
      </trkpt>
      <trkpt lat="48.426715973764658" lon="-4.12247302941978">
        <ele>95.310000000000002</ele>
        <time>2018-07-06T12:33:45Z</time>
      </trkpt>
      <trkpt lat="48.426883025094867" lon="-4.120141016319394">
        <ele>101.08</ele>
        <time>2018-07-06T12:33:53Z</time>
      </trkpt>
      <trkpt lat="48.42686802148819" lon="-4.116246029734612">
        <ele>101.08</ele>
        <time>2018-07-06T12:34:06Z</time>
      </trkpt>
      <trkpt lat="48.426446998491883" lon="-4.113993979990482">
        <ele>104.92</ele>
        <time>2018-07-06T12:34:14Z</time>
      </trkpt>
      <trkpt lat="48.425367996096611" lon="-4.110487997531891">
        <ele>109.25</ele>
        <time>2018-07-06T12:34:27Z</time>
      </trkpt>
      <trkpt lat="48.425241010263562" lon="-4.11025196313858">
        <ele>109.73</ele>
        <time>2018-07-06T12:34:28Z</time>
      </trkpt>
      <trkpt lat="48.423979030922055" lon="-4.108295040205121">
        <ele>110.69</ele>
        <time>2018-07-06T12:34:37Z</time>
      </trkpt>
      <trkpt lat="48.422898016870022" lon="-4.106525033712387">
        <ele>105.40000000000001</ele>
        <time>2018-07-06T12:34:45Z</time>
      </trkpt>
      <trkpt lat="48.421847010031343" lon="-4.104644972831011">
        <ele>102.52</ele>
        <time>2018-07-06T12:34:54Z</time>
      </trkpt>
      <trkpt lat="48.420769013464451" lon="-4.102936992421746">
        <ele>101.56</ele>
        <time>2018-07-06T12:35:03Z</time>
      </trkpt>
      <trkpt lat="48.419642988592386" lon="-4.101972989737988">
        <ele>98.670000000000002</ele>
        <time>2018-07-06T12:35:09Z</time>
      </trkpt>
      <trkpt lat="48.417336959391832" lon="-4.10066700540483">
        <ele>96.269999999999996</ele>
        <time>2018-07-06T12:35:20Z</time>
      </trkpt>
      <trkpt lat="48.416041033342481" lon="-4.099726974964142">
        <ele>93.870000000000005</ele>
        <time>2018-07-06T12:35:27Z</time>
      </trkpt>
      <trkpt lat="48.415903989225626" lon="-4.099511979147792">
        <ele>93.870000000000005</ele>
        <time>2018-07-06T12:35:28Z</time>
      </trkpt>
      <trkpt lat="48.415771974250674" lon="-4.09929103218019">
        <ele>93.870000000000005</ele>
        <time>2018-07-06T12:35:29Z</time>
      </trkpt>
      <trkpt lat="48.415639959275723" lon="-4.099071007221937">
        <ele>93.390000000000001</ele>
        <time>2018-07-06T12:35:30Z</time>
      </trkpt>
      <trkpt lat="48.415522025898099" lon="-4.098843019455671">
        <ele>93.390000000000001</ele>
        <time>2018-07-06T12:35:31Z</time>
      </trkpt>
      <trkpt lat="48.415410965681076" lon="-4.098585024476051">
        <ele>92.900000000000006</ele>
        <time>2018-07-06T12:35:32Z</time>
      </trkpt>
      <trkpt lat="48.415302000939846" lon="-4.098319988697767">
        <ele>92.900000000000006</ele>
        <time>2018-07-06T12:35:33Z</time>
      </trkpt>
      <trkpt lat="48.415210973471403" lon="-4.098001979291439">
        <ele>92.420000000000002</ele>
        <time>2018-07-06T12:35:34Z</time>
      </trkpt>
      <trkpt lat="48.415111983194947" lon="-4.097657985985279">
        <ele>92.420000000000002</ele>
        <time>2018-07-06T12:35:35Z</time>
      </trkpt>
      <trkpt lat="48.414559029042721" lon="-4.095738027244806">
        <ele>92.420000000000002</ele>
        <time>2018-07-06T12:35:41Z</time>
      </trkpt>
      <trkpt lat="48.413716983050108" lon="-4.093515984714031">
        <ele>91.459999999999994</ele>
        <time>2018-07-06T12:35:49Z</time>
      </trkpt>
      <trkpt lat="48.412412004545331" lon="-4.090299010276794">
        <ele>90.5</ele>
        <time>2018-07-06T12:36:01Z</time>
      </trkpt>
      <trkpt lat="48.411798030138016" lon="-4.088339991867542">
        <ele>90.5</ele>
        <time>2018-07-06T12:36:09Z</time>
      </trkpt>
      <trkpt lat="48.411372983828187" lon="-4.086772995069623">
        <ele>88.579999999999998</ele>
        <time>2018-07-06T12:36:17Z</time>
      </trkpt>
      <trkpt lat="48.411299977451563" lon="-4.086645003408194">
        <ele>88.579999999999998</ele>
        <time>2018-07-06T12:36:18Z</time>
      </trkpt>
      <trkpt lat="48.411096967756748" lon="-4.086368987336755">
        <ele>88.579999999999998</ele>
        <time>2018-07-06T12:36:21Z</time>
      </trkpt>
      <trkpt lat="48.411031002178788" lon="-4.086304027587175">
        <ele>88.579999999999998</ele>
        <time>2018-07-06T12:36:22Z</time>
      </trkpt>
      <trkpt lat="48.410965036600828" lon="-4.086269997060299">
        <ele>88.579999999999998</ele>
        <time>2018-07-06T12:36:23Z</time>
      </trkpt>
      <trkpt lat="48.410881971940398" lon="-4.086269997060299">
        <ele>88.579999999999998</ele>
        <time>2018-07-06T12:36:24Z</time>
      </trkpt>
      <trkpt lat="48.410794967785478" lon="-4.086325988173485">
        <ele>89.060000000000002</ele>
        <time>2018-07-06T12:36:25Z</time>
      </trkpt>
      <trkpt lat="48.410697989165783" lon="-4.086398994550109">
        <ele>90.019999999999996</ele>
        <time>2018-07-06T12:36:26Z</time>
      </trkpt>
      <trkpt lat="48.410589024424553" lon="-4.086493961513042">
        <ele>90.5</ele>
        <time>2018-07-06T12:36:27Z</time>
      </trkpt>
      <trkpt lat="48.410493973642588" lon="-4.086634023115039">
        <ele>90.980000000000004</ele>
        <time>2018-07-06T12:36:28Z</time>
      </trkpt>
      <trkpt lat="48.409655028954148" lon="-4.087912011891604">
        <ele>90.5</ele>
        <time>2018-07-06T12:36:35Z</time>
      </trkpt>
      <trkpt lat="48.408698989078403" lon="-4.089100984856486">
        <ele>92.900000000000006</ele>
        <time>2018-07-06T12:36:41Z</time>
      </trkpt>
      <trkpt lat="48.408514000475407" lon="-4.089239034801722">
        <ele>93.870000000000005</ele>
        <time>2018-07-06T12:36:42Z</time>
      </trkpt>
      <trkpt lat="48.408313002437353" lon="-4.089335007593036">
        <ele>94.829999999999998</ele>
        <time>2018-07-06T12:36:43Z</time>
      </trkpt>
      <trkpt lat="48.408109992742538" lon="-4.089432992041111">
        <ele>95.790000000000006</ele>
        <time>2018-07-06T12:36:44Z</time>
      </trkpt>
      <trkpt lat="48.407902959734201" lon="-4.089484037831426">
        <ele>96.75</ele>
        <time>2018-07-06T12:36:45Z</time>
      </trkpt>
      <trkpt lat="48.407690981402993" lon="-4.089511027559638">
        <ele>97.709999999999994</ele>
        <time>2018-07-06T12:36:46Z</time>
      </trkpt>
      <trkpt lat="48.407481014728546" lon="-4.089527959004045">
        <ele>98.670000000000002</ele>
        <time>2018-07-06T12:36:47Z</time>
      </trkpt>
      <trkpt lat="48.404787993058562" lon="-4.089232999831438">
        <ele>110.20999999999999</ele>
        <time>2018-07-06T12:36:59Z</time>
      </trkpt>
      <trkpt lat="48.40433101169765" lon="-4.089040970429778">
        <ele>110.69</ele>
        <time>2018-07-06T12:37:01Z</time>
      </trkpt>
      <trkpt lat="48.403484020382166" lon="-4.088504025712609">
        <ele>110.69</ele>
        <time>2018-07-06T12:37:05Z</time>
      </trkpt>
      <trkpt lat="48.402417004108429" lon="-4.086804008111358">
        <ele>112.61</ele>
        <time>2018-07-06T12:37:12Z</time>
      </trkpt>
      <trkpt lat="48.401149995625019" lon="-4.083953993394971">
        <ele>109.73</ele>
        <time>2018-07-06T12:37:22Z</time>
      </trkpt>
      <trkpt lat="48.400236032903194" lon="-4.081564983353019">
        <ele>102.52</ele>
        <time>2018-07-06T12:37:31Z</time>
      </trkpt>
      <trkpt lat="48.400036040693521" lon="-4.081152006983757">
        <ele>100.11</ele>
        <time>2018-07-06T12:37:33Z</time>
      </trkpt>
      <trkpt lat="48.399968985468149" lon="-4.081034995615482">
        <ele>98.670000000000002</ele>
        <time>2018-07-06T12:37:34Z</time>
      </trkpt>
      <trkpt lat="48.399658016860485" lon="-4.080788986757398">
        <ele>95.310000000000002</ele>
        <time>2018-07-06T12:37:37Z</time>
      </trkpt>
      <trkpt lat="48.399588027969003" lon="-4.080734001472592">
        <ele>94.349999999999994</ele>
        <time>2018-07-06T12:37:38Z</time>
      </trkpt>
      <trkpt lat="48.399527007713914" lon="-4.080710029229522">
        <ele>93.870000000000005</ele>
        <time>2018-07-06T12:37:39Z</time>
      </trkpt>
      <trkpt lat="48.399441009387374" lon="-4.080701982602477">
        <ele>93.390000000000001</ele>
        <time>2018-07-06T12:37:40Z</time>
      </trkpt>
      <trkpt lat="48.399343024939299" lon="-4.080693013966084">
        <ele>93.390000000000001</ele>
        <time>2018-07-06T12:37:41Z</time>
      </trkpt>
      <trkpt lat="48.399130962789059" lon="-4.080767026171088">
        <ele>92.900000000000006</ele>
        <time>2018-07-06T12:37:43Z</time>
      </trkpt>
      <trkpt lat="48.398997019976377" lon="-4.080818993970752">
        <ele>92.900000000000006</ele>
        <time>2018-07-06T12:37:44Z</time>
      </trkpt>
      <trkpt lat="48.397955987602472" lon="-4.081976031884551">
        <ele>96.75</ele>
        <time>2018-07-06T12:37:51Z</time>
      </trkpt>
      <trkpt lat="48.396486975252628" lon="-4.083514027297497">
        <ele>106.84</ele>
        <time>2018-07-06T12:38:00Z</time>
      </trkpt>
      <trkpt lat="48.395424988120794" lon="-4.084455985575914">
        <ele>111.17</ele>
        <time>2018-07-06T12:38:06Z</time>
      </trkpt>
      <trkpt lat="48.394796010106802" lon="-4.085086975246668">
        <ele>115.01000000000001</ele>
        <time>2018-07-06T12:38:11Z</time>
      </trkpt>
      <trkpt lat="48.39408203959465" lon="-4.085942013189197">
        <ele>118.38</ele>
        <time>2018-07-06T12:38:19Z</time>
      </trkpt>
      <trkpt lat="48.393023991957307" lon="-4.087270963937044">
        <ele>122.22</ele>
        <time>2018-07-06T12:38:28Z</time>
      </trkpt>
      <trkpt lat="48.391783973202109" lon="-4.088778030127287">
        <ele>125.59</ele>
        <time>2018-07-06T12:38:35Z</time>
      </trkpt>
      <trkpt lat="48.390564993023872" lon="-4.090043026953936">
        <ele>132.31999999999999</ele>
        <time>2018-07-06T12:38:43Z</time>
      </trkpt>
      <trkpt lat="48.388923984020948" lon="-4.091391004621983">
        <ele>138.09</ele>
        <time>2018-07-06T12:38:52Z</time>
      </trkpt>
      <trkpt lat="48.387481961399317" lon="-4.092240007594228">
        <ele>139.53</ele>
        <time>2018-07-06T12:39:00Z</time>
      </trkpt>
      <trkpt lat="48.385951006785035" lon="-4.09353400580585">
        <ele>141.44999999999999</ele>
        <time>2018-07-06T12:39:09Z</time>
      </trkpt>
      <trkpt lat="48.385783033445477" lon="-4.093752019107342">
        <ele>141.44999999999999</ele>
        <time>2018-07-06T12:39:10Z</time>
      </trkpt>
      <trkpt lat="48.384650973603129" lon="-4.095449019223452">
        <ele>141.93000000000001</ele>
        <time>2018-07-06T12:39:17Z</time>
      </trkpt>
      <trkpt lat="48.383929040282965" lon="-4.09662701189518">
        <ele>138.56999999999999</ele>
        <time>2018-07-06T12:39:23Z</time>
      </trkpt>
      <trkpt lat="48.383007030934095" lon="-4.098020000383258">
        <ele>133.28</ele>
        <time>2018-07-06T12:39:31Z</time>
      </trkpt>
      <trkpt lat="48.382272021844983" lon="-4.098709998652339">
        <ele>131.84</ele>
        <time>2018-07-06T12:39:36Z</time>
      </trkpt>
      <trkpt lat="48.380957990884781" lon="-4.099366972222924">
        <ele>132.80000000000001</ele>
        <time>2018-07-06T12:39:44Z</time>
      </trkpt>
      <trkpt lat="48.379592997953296" lon="-4.09991598688066">
        <ele>141.44999999999999</ele>
        <time>2018-07-06T12:39:52Z</time>
      </trkpt>
      <trkpt lat="48.377342037856579" lon="-4.100821986794472">
        <ele>152.99000000000001</ele>
        <time>2018-07-06T12:40:04Z</time>
      </trkpt>
      <trkpt lat="48.375640008598566" lon="-4.101862013339996">
        <ele>154.91</ele>
        <time>2018-07-06T12:40:13Z</time>
      </trkpt>
      <trkpt lat="48.373967986553907" lon="-4.102918971329927">
        <ele>158.27000000000001</ele>
        <time>2018-07-06T12:40:22Z</time>
      </trkpt>
      <trkpt lat="48.372091026976705" lon="-4.103332031518221">
        <ele>158.27000000000001</ele>
        <time>2018-07-06T12:40:31Z</time>
      </trkpt>
      <trkpt lat="48.370006028562784" lon="-4.103319039568305">
        <ele>162.59999999999999</ele>
        <time>2018-07-06T12:40:41Z</time>
      </trkpt>
      <trkpt lat="48.367121983319521" lon="-4.103079987689853">
        <ele>170.28999999999999</ele>
        <time>2018-07-06T12:40:55Z</time>
      </trkpt>
      <trkpt lat="48.365817004814744" lon="-4.10337695851922">
        <ele>169.81</ele>
        <time>2018-07-06T12:41:02Z</time>
      </trkpt>
      <trkpt lat="48.364477995783091" lon="-4.104550005868077">
        <ele>167.41</ele>
        <time>2018-07-06T12:41:10Z</time>
      </trkpt>
      <trkpt lat="48.362297024577856" lon="-4.106616983190179">
        <ele>165</ele>
        <time>2018-07-06T12:41:22Z</time>
      </trkpt>
      <trkpt lat="48.3599410392344" lon="-4.108924018219113">
        <ele>159.24000000000001</ele>
        <time>2018-07-06T12:41:35Z</time>
      </trkpt>
      <trkpt lat="48.358619967475533" lon="-4.110653037205339">
        <ele>150.09999999999999</ele>
        <time>2018-07-06T12:41:44Z</time>
      </trkpt>
      <trkpt lat="48.35850496776402" lon="-4.110859986394644">
        <ele>148.66</ele>
        <time>2018-07-06T12:41:45Z</time>
      </trkpt>
      <trkpt lat="48.358404971659184" lon="-4.111074982210994">
        <ele>147.22</ele>
        <time>2018-07-06T12:41:46Z</time>
      </trkpt>
      <trkpt lat="48.358335988596082" lon="-4.111329037696123">
        <ele>145.78</ele>
        <time>2018-07-06T12:41:47Z</time>
      </trkpt>
      <trkpt lat="48.358268011361361" lon="-4.111579991877079">
        <ele>144.34</ele>
        <time>2018-07-06T12:41:48Z</time>
      </trkpt>
      <trkpt lat="48.358200034126639" lon="-4.111828012391925">
        <ele>142.88999999999999</ele>
        <time>2018-07-06T12:41:49Z</time>
      </trkpt>
      <trkpt lat="48.358141025528312" lon="-4.11207502707839">
        <ele>141.93000000000001</ele>
        <time>2018-07-06T12:41:50Z</time>
      </trkpt>
      <trkpt lat="48.358110012486577" lon="-4.112341990694404">
        <ele>140.49000000000001</ele>
        <time>2018-07-06T12:41:51Z</time>
      </trkpt>
      <trkpt lat="48.358077993616462" lon="-4.112610965967178">
        <ele>139.05000000000001</ele>
        <time>2018-07-06T12:41:52Z</time>
      </trkpt>
      <trkpt lat="48.358045974746346" lon="-4.112881030887365">
        <ele>137.61000000000001</ele>
        <time>2018-07-06T12:41:53Z</time>
      </trkpt>
      <trkpt lat="48.358020996674895" lon="-4.113151011988521">
        <ele>136.16</ele>
        <time>2018-07-06T12:41:54Z</time>
      </trkpt>
      <trkpt lat="48.358033988624811" lon="-4.113429039716721">
        <ele>135.19999999999999</ele>
        <time>2018-07-06T12:41:55Z</time>
      </trkpt>
      <trkpt lat="48.358169021084905" lon="-4.115701960399747">
        <ele>125.11</ele>
        <time>2018-07-06T12:42:04Z</time>
      </trkpt>
      <trkpt lat="48.358154017478228" lon="-4.11592299118638">
        <ele>124.15000000000001</ele>
        <time>2018-07-06T12:42:05Z</time>
      </trkpt>
      <trkpt lat="48.358127027750015" lon="-4.116144021973014">
        <ele>123.19</ele>
        <time>2018-07-06T12:42:06Z</time>
      </trkpt>
      <trkpt lat="48.358100038021803" lon="-4.116367986425757">
        <ele>121.73999999999999</ele>
        <time>2018-07-06T12:42:07Z</time>
      </trkpt>
      <trkpt lat="48.358059972524643" lon="-4.116591028869152">
        <ele>120.78</ele>
        <time>2018-07-06T12:42:08Z</time>
      </trkpt>
      <trkpt lat="48.357999958097935" lon="-4.116809964179993">
        <ele>119.81999999999999</ele>
        <time>2018-07-06T12:42:09Z</time>
      </trkpt>
      <trkpt lat="48.357939021661878" lon="-4.117035018280149">
        <ele>118.86</ele>
        <time>2018-07-06T12:42:10Z</time>
      </trkpt>
      <trkpt lat="48.357868026942015" lon="-4.117259988561273">
        <ele>117.90000000000001</ele>
        <time>2018-07-06T12:42:11Z</time>
      </trkpt>
      <trkpt lat="48.357771970331669" lon="-4.117460986599326">
        <ele>116.94</ele>
        <time>2018-07-06T12:42:12Z</time>
      </trkpt>
      <trkpt lat="48.357673985883594" lon="-4.117665002122521">
        <ele>115.98</ele>
        <time>2018-07-06T12:42:13Z</time>
      </trkpt>
      <trkpt lat="48.357551023364067" lon="-4.117836998775601">
        <ele>115.5</ele>
        <time>2018-07-06T12:42:14Z</time>
      </trkpt>
      <trkpt lat="48.357421020045877" lon="-4.118002960458398">
        <ele>115.01000000000001</ele>
        <time>2018-07-06T12:42:15Z</time>
      </trkpt>
      <trkpt lat="48.357286993414164" lon="-4.118174035102129">
        <ele>114.53</ele>
        <time>2018-07-06T12:42:16Z</time>
      </trkpt>
      <trkpt lat="48.355804989114404" lon="-4.119657967239618">
        <ele>117.42</ele>
        <time>2018-07-06T12:42:26Z</time>
      </trkpt>
      <trkpt lat="48.354316027835011" lon="-4.120880970731378">
        <ele>121.26000000000001</ele>
        <time>2018-07-06T12:42:36Z</time>
      </trkpt>
      <trkpt lat="48.353073997423053" lon="-4.122123001143336">
        <ele>125.11</ele>
        <time>2018-07-06T12:42:45Z</time>
      </trkpt>
      <trkpt lat="48.351372973993421" lon="-4.1240209992975">
        <ele>129.91999999999999</ele>
        <time>2018-07-06T12:42:57Z</time>
      </trkpt>
      <trkpt lat="48.350156005471945" lon="-4.125610962510109">
        <ele>129.43000000000001</ele>
        <time>2018-07-06T12:43:05Z</time>
      </trkpt>
      <trkpt lat="48.348998967558146" lon="-4.127101013436914">
        <ele>125.11</ele>
        <time>2018-07-06T12:43:13Z</time>
      </trkpt>
      <trkpt lat="48.34883501753211" lon="-4.127254988998175">
        <ele>124.63</ele>
        <time>2018-07-06T12:43:14Z</time>
      </trkpt>
      <trkpt lat="48.347205994650722" lon="-4.128492996096611">
        <ele>118.86</ele>
        <time>2018-07-06T12:43:24Z</time>
      </trkpt>
      <trkpt lat="48.345360970124602" lon="-4.129966031759977">
        <ele>115.5</ele>
        <time>2018-07-06T12:43:36Z</time>
      </trkpt>
      <trkpt lat="48.345218980684876" lon="-4.130120007321239">
        <ele>115.5</ele>
        <time>2018-07-06T12:43:37Z</time>
      </trkpt>
      <trkpt lat="48.343886006623507" lon="-4.131635036319494">
        <ele>112.61</ele>
        <time>2018-07-06T12:43:46Z</time>
      </trkpt>
      <trkpt lat="48.342644982039928" lon="-4.132609013468027">
        <ele>105.40000000000001</ele>
        <time>2018-07-06T12:43:54Z</time>
      </trkpt>
      <trkpt lat="48.341667987406254" lon="-4.133343016728759">
        <ele>98.670000000000002</ele>
        <time>2018-07-06T12:44:02Z</time>
      </trkpt>
      <trkpt lat="48.340862989425659" lon="-4.133970988914371">
        <ele>91.459999999999994</ele>
        <time>2018-07-06T12:44:11Z</time>
      </trkpt>
      <trkpt lat="48.340632990002632" lon="-4.134316993877292">
        <ele>88.099999999999994</ele>
        <time>2018-07-06T12:44:16Z</time>
      </trkpt>
      <trkpt lat="48.340560989454389" lon="-4.134497959166765">
        <ele>86.659999999999997</ele>
        <time>2018-07-06T12:44:18Z</time>
      </trkpt>
      <trkpt lat="48.340530982241035" lon="-4.134598961099982">
        <ele>86.659999999999997</ele>
        <time>2018-07-06T12:44:19Z</time>
      </trkpt>
      <trkpt lat="48.340530982241035" lon="-4.134729970246553">
        <ele>86.659999999999997</ele>
        <time>2018-07-06T12:44:20Z</time>
      </trkpt>
      <trkpt lat="48.340555038303137" lon="-4.13485100492835">
        <ele>86.659999999999997</ele>
        <time>2018-07-06T12:44:21Z</time>
      </trkpt>
      <trkpt lat="48.340600971132517" lon="-4.134977990761399">
        <ele>86.659999999999997</ele>
        <time>2018-07-06T12:44:22Z</time>
      </trkpt>
      <trkpt lat="48.340645981952548" lon="-4.135102964937687">
        <ele>87.140000000000001</ele>
        <time>2018-07-06T12:44:23Z</time>
      </trkpt>
      <trkpt lat="48.340690992772579" lon="-4.135227017104626">
        <ele>87.140000000000001</ele>
        <time>2018-07-06T12:44:24Z</time>
      </trkpt>
      <trkpt lat="48.34073499776423" lon="-4.135347967967391">
        <ele>87.140000000000001</ele>
        <time>2018-07-06T12:44:25Z</time>
      </trkpt>
      <trkpt lat="48.34077900275588" lon="-4.135467996820808">
        <ele>86.659999999999997</ele>
        <time>2018-07-06T12:44:26Z</time>
      </trkpt>
      <trkpt lat="48.340795012190938" lon="-4.135598000138998">
        <ele>86.659999999999997</ele>
        <time>2018-07-06T12:44:27Z</time>
      </trkpt>
      <trkpt lat="48.340803980827332" lon="-4.13573102094233">
        <ele>86.659999999999997</ele>
        <time>2018-07-06T12:44:28Z</time>
      </trkpt>
      <trkpt lat="48.340789983049035" lon="-4.135873010382056">
        <ele>86.659999999999997</ele>
        <time>2018-07-06T12:44:29Z</time>
      </trkpt>
      <trkpt lat="48.340744972229004" lon="-4.136002007871866">
        <ele>86.180000000000007</ele>
        <time>2018-07-06T12:44:30Z</time>
      </trkpt>
      <trkpt lat="48.340697027742863" lon="-4.136137962341309">
        <ele>85.209999999999994</ele>
        <time>2018-07-06T12:44:31Z</time>
      </trkpt>
      <trkpt lat="48.340645981952548" lon="-4.136284980922937">
        <ele>84.730000000000004</ele>
        <time>2018-07-06T12:44:32Z</time>
      </trkpt>
      <trkpt lat="48.340173996984959" lon="-4.137484012171626">
        <ele>75.599999999999994</ele>
        <time>2018-07-06T12:44:40Z</time>
      </trkpt>
      <trkpt lat="48.339884988963604" lon="-4.138219021260738">
        <ele>72.239999999999995</ele>
        <time>2018-07-06T12:44:45Z</time>
      </trkpt>
      <trkpt lat="48.3396399859339" lon="-4.13876099511981">
        <ele>73.200000000000003</ele>
        <time>2018-07-06T12:44:49Z</time>
      </trkpt>
      <trkpt lat="48.339471006765962" lon="-4.138978002592921">
        <ele>74.159999999999997</ele>
        <time>2018-07-06T12:44:51Z</time>
      </trkpt>
      <trkpt lat="48.339379979297519" lon="-4.139085039496422">
        <ele>74.159999999999997</ele>
        <time>2018-07-06T12:44:52Z</time>
      </trkpt>
      <trkpt lat="48.339275037869811" lon="-4.139143964275718">
        <ele>74.640000000000001</ele>
        <time>2018-07-06T12:44:53Z</time>
      </trkpt>
      <trkpt lat="48.339165989309549" lon="-4.139205990359187">
        <ele>75.120000000000005</ele>
        <time>2018-07-06T12:44:54Z</time>
      </trkpt>
      <trkpt lat="48.339049983769655" lon="-4.139271033927798">
        <ele>76.079999999999998</ele>
        <time>2018-07-06T12:44:55Z</time>
      </trkpt>
      <trkpt lat="48.338926015421748" lon="-4.139310009777546">
        <ele>76.560000000000002</ele>
        <time>2018-07-06T12:44:56Z</time>
      </trkpt>
      <trkpt lat="48.337611984461546" lon="-4.139708988368511">
        <ele>86.659999999999997</ele>
        <time>2018-07-06T12:45:05Z</time>
      </trkpt>
      <trkpt lat="48.33714896813035" lon="-4.139903029426932">
        <ele>90.5</ele>
        <time>2018-07-06T12:45:08Z</time>
      </trkpt>
      <trkpt lat="48.33699599839747" lon="-4.139996990561485">
        <ele>91.939999999999998</ele>
        <time>2018-07-06T12:45:09Z</time>
      </trkpt>
      <trkpt lat="48.336842022836208" lon="-4.140115007758141">
        <ele>92.900000000000006</ele>
        <time>2018-07-06T12:45:10Z</time>
      </trkpt>
      <trkpt lat="48.336691986769438" lon="-4.140244005247951">
        <ele>93.870000000000005</ele>
        <time>2018-07-06T12:45:11Z</time>
      </trkpt>
      <trkpt lat="48.33656701259315" lon="-4.140434022992849">
        <ele>94.349999999999994</ele>
        <time>2018-07-06T12:45:12Z</time>
      </trkpt>
      <trkpt lat="48.336434997618198" lon="-4.140633009374142">
        <ele>94.829999999999998</ele>
        <time>2018-07-06T12:45:13Z</time>
      </trkpt>
      <trkpt lat="48.335455991327763" lon="-4.142060028389096">
        <ele>99.629999999999995</ele>
        <time>2018-07-06T12:45:21Z</time>
      </trkpt>
      <trkpt lat="48.335043014958501" lon="-4.142629997804761">
        <ele>100.59999999999999</ele>
        <time>2018-07-06T12:45:25Z</time>
      </trkpt>
      <trkpt lat="48.334940001368523" lon="-4.142772993072867">
        <ele>99.629999999999995</ele>
        <time>2018-07-06T12:45:26Z</time>
      </trkpt>
      <trkpt lat="48.33411899395287" lon="-4.14443202316761">
        <ele>93.870000000000005</ele>
        <time>2018-07-06T12:45:35Z</time>
      </trkpt>
      <trkpt lat="48.333833003416657" lon="-4.145187987014651">
        <ele>92.420000000000002</ele>
        <time>2018-07-06T12:45:39Z</time>
      </trkpt>
      <trkpt lat="48.332788031548262" lon="-4.147558975964785">
        <ele>94.829999999999998</ele>
        <time>2018-07-06T12:45:51Z</time>
      </trkpt>
      <trkpt lat="48.331837020814419" lon="-4.14971798658371">
        <ele>98.670000000000002</ele>
        <time>2018-07-06T12:46:03Z</time>
      </trkpt>
      <trkpt lat="48.330960022285581" lon="-4.151646997779608">
        <ele>98.670000000000002</ele>
        <time>2018-07-06T12:46:14Z</time>
      </trkpt>
      <trkpt lat="48.330102972686291" lon="-4.153384985402226">
        <ele>97.709999999999994</ele>
        <time>2018-07-06T12:46:25Z</time>
      </trkpt>
      <trkpt lat="48.329828968271613" lon="-4.153951015323401">
        <ele>96.75</ele>
        <time>2018-07-06T12:46:30Z</time>
      </trkpt>
      <trkpt lat="48.329308032989502" lon="-4.154997998848558">
        <ele>97.709999999999994</ele>
        <time>2018-07-06T12:46:40Z</time>
      </trkpt>
      <trkpt lat="48.328545028343797" lon="-4.156612018123269">
        <ele>100.59999999999999</ele>
        <time>2018-07-06T12:46:53Z</time>
      </trkpt>
      <trkpt lat="48.328063990920782" lon="-4.157913979142904">
        <ele>102.04000000000001</ele>
        <time>2018-07-06T12:47:04Z</time>
      </trkpt>
      <trkpt lat="48.32801696844399" lon="-4.158045994117856">
        <ele>103</ele>
        <time>2018-07-06T12:47:05Z</time>
      </trkpt>
      <trkpt lat="48.327816976234317" lon="-4.158486966043711">
        <ele>109.25</ele>
        <time>2018-07-06T12:47:11Z</time>
      </trkpt>
      <trkpt lat="48.32780297845602" lon="-4.158514039590955">
        <ele>110.69</ele>
        <time>2018-07-06T12:47:21Z</time>
      </trkpt>
      <trkpt lat="48.327570967376232" lon="-4.158926010131836">
        <ele>115.01000000000001</ele>
        <time>2018-07-06T12:47:27Z</time>
      </trkpt>
      <trkpt lat="48.326907036826015" lon="-4.159910967573524">
        <ele>115.5</ele>
        <time>2018-07-06T12:47:38Z</time>
      </trkpt>
      <trkpt lat="48.326351987197995" lon="-4.160871030762792">
        <ele>111.17</ele>
        <time>2018-07-06T12:47:48Z</time>
      </trkpt>
      <trkpt lat="48.325959965586662" lon="-4.16157997213304">
        <ele>107.31999999999999</ele>
        <time>2018-07-06T12:47:57Z</time>
      </trkpt>
      <trkpt lat="48.325412040576339" lon="-4.162339037284255">
        <ele>106.84</ele>
        <time>2018-07-06T12:48:06Z</time>
      </trkpt>
      <trkpt lat="48.325331993401051" lon="-4.162426041439176">
        <ele>106.36</ele>
        <time>2018-07-06T12:48:07Z</time>
      </trkpt>
      <trkpt lat="48.324504029005766" lon="-4.163073962554336">
        <ele>104.92</ele>
        <time>2018-07-06T12:48:16Z</time>
      </trkpt>
      <trkpt lat="48.323772959411144" lon="-4.163922965526581">
        <ele>101.56</ele>
        <time>2018-07-06T12:48:25Z</time>
      </trkpt>
      <trkpt lat="48.32337599247694" lon="-4.164424035698175">
        <ele>98.189999999999998</ele>
        <time>2018-07-06T12:48:32Z</time>
      </trkpt>
      <trkpt lat="48.323321007192135" lon="-4.164491007104516">
        <ele>97.230000000000004</ele>
        <time>2018-07-06T12:48:33Z</time>
      </trkpt>
      <trkpt lat="48.323257975280285" lon="-4.164568958804011">
        <ele>96.75</ele>
        <time>2018-07-06T12:48:34Z</time>
      </trkpt>
      <trkpt lat="48.323209024965763" lon="-4.164630984887481">
        <ele>95.310000000000002</ele>
        <time>2018-07-06T12:48:35Z</time>
      </trkpt>
      <trkpt lat="48.323154961690307" lon="-4.164699967950583">
        <ele>94.349999999999994</ele>
        <time>2018-07-06T12:48:36Z</time>
      </trkpt>
      <trkpt lat="48.323092013597488" lon="-4.164781020954251">
        <ele>93.390000000000001</ele>
        <time>2018-07-06T12:48:37Z</time>
      </trkpt>
      <trkpt lat="48.322422970086336" lon="-4.165581995621324">
        <ele>90.5</ele>
        <time>2018-07-06T12:48:44Z</time>
      </trkpt>
      <trkpt lat="48.321287976577878" lon="-4.166774991899729">
        <ele>90.980000000000004</ele>
        <time>2018-07-06T12:48:53Z</time>
      </trkpt>
      <trkpt lat="48.320078970864415" lon="-4.167907973751426">
        <ele>85.689999999999998</ele>
        <time>2018-07-06T12:49:00Z</time>
      </trkpt>
      <trkpt lat="48.318836018443108" lon="-4.16982801631093">
        <ele>71.269999999999996</ele>
        <time>2018-07-06T12:49:09Z</time>
      </trkpt>
      <trkpt lat="48.317242031916976" lon="-4.17238499969244">
        <ele>70.790000000000006</ele>
        <time>2018-07-06T12:49:21Z</time>
      </trkpt>
      <trkpt lat="48.316467041149735" lon="-4.173767007887363">
        <ele>74.159999999999997</ele>
        <time>2018-07-06T12:49:27Z</time>
      </trkpt>
      <trkpt lat="48.315957002341747" lon="-4.175036028027535">
        <ele>75.599999999999994</ele>
        <time>2018-07-06T12:49:32Z</time>
      </trkpt>
      <trkpt lat="48.315299022942781" lon="-4.177532996982336">
        <ele>71.760000000000005</ele>
        <time>2018-07-06T12:49:41Z</time>
      </trkpt>
      <trkpt lat="48.314870037138462" lon="-4.17915397323668">
        <ele>72.719999999999999</ele>
        <time>2018-07-06T12:49:47Z</time>
      </trkpt>
      <trkpt lat="48.314046012237668" lon="-4.1808280069381">
        <ele>72.239999999999995</ele>
        <time>2018-07-06T12:49:54Z</time>
      </trkpt>
      <trkpt lat="48.312623016536236" lon="-4.182916022837162">
        <ele>68.870000000000005</ele>
        <time>2018-07-06T12:50:04Z</time>
      </trkpt>
      <trkpt lat="48.311285013332963" lon="-4.184194011613727">
        <ele>68.870000000000005</ele>
        <time>2018-07-06T12:50:12Z</time>
      </trkpt>
      <trkpt lat="48.309879032894969" lon="-4.184986017644405">
        <ele>66.469999999999999</ele>
        <time>2018-07-06T12:50:20Z</time>
      </trkpt>
      <trkpt lat="48.308151019737124" lon="-4.185766037553549">
        <ele>66.469999999999999</ele>
        <time>2018-07-06T12:50:31Z</time>
      </trkpt>
      <trkpt lat="48.306652000173926" lon="-4.186748983338475">
        <ele>67.430000000000007</ele>
        <time>2018-07-06T12:50:40Z</time>
      </trkpt>
      <trkpt lat="48.305215006694198" lon="-4.188356967642903">
        <ele>61.18</ele>
        <time>2018-07-06T12:50:49Z</time>
      </trkpt>
      <trkpt lat="48.304484020918608" lon="-4.189260033890605">
        <ele>55.409999999999997</ele>
        <time>2018-07-06T12:50:55Z</time>
      </trkpt>
      <trkpt lat="48.304415037855506" lon="-4.189432030543685">
        <ele>54.450000000000003</ele>
        <time>2018-07-06T12:50:56Z</time>
      </trkpt>
      <trkpt lat="48.304358962923288" lon="-4.189606960862875">
        <ele>53.969999999999999</ele>
        <time>2018-07-06T12:50:57Z</time>
      </trkpt>
      <trkpt lat="48.304310012608767" lon="-4.189761020243168">
        <ele>53.490000000000002</ele>
        <time>2018-07-06T12:50:58Z</time>
      </trkpt>
      <trkpt lat="48.304315041750669" lon="-4.189922958612442">
        <ele>52.530000000000001</ele>
        <time>2018-07-06T12:50:59Z</time>
      </trkpt>
      <trkpt lat="48.304319987073541" lon="-4.190074000507593">
        <ele>52.049999999999997</ele>
        <time>2018-07-06T12:51:00Z</time>
      </trkpt>
      <trkpt lat="48.304324010387063" lon="-4.190210038796067">
        <ele>51.57</ele>
        <time>2018-07-06T12:51:01Z</time>
      </trkpt>
      <trkpt lat="48.304328033700585" lon="-4.190329983830452">
        <ele>51.090000000000003</ele>
        <time>2018-07-06T12:51:02Z</time>
      </trkpt>
      <trkpt lat="48.304330967366695" lon="-4.190439032390714">
        <ele>50.609999999999999</ele>
        <time>2018-07-06T12:51:03Z</time>
      </trkpt>
      <trkpt lat="48.304306995123625" lon="-4.190546991303563">
        <ele>50.130000000000003</ele>
        <time>2018-07-06T12:51:04Z</time>
      </trkpt>
      <trkpt lat="48.304277993738651" lon="-4.190640030428767">
        <ele>49.649999999999999</ele>
        <time>2018-07-06T12:51:05Z</time>
      </trkpt>
      <trkpt lat="48.304251004010439" lon="-4.190724017098546">
        <ele>49.159999999999997</ele>
        <time>2018-07-06T12:51:06Z</time>
      </trkpt>
      <trkpt lat="48.304230971261859" lon="-4.190788976848126">
        <ele>48.68</ele>
        <time>2018-07-06T12:51:07Z</time>
      </trkpt>
      <trkpt lat="48.304195012897253" lon="-4.190874975174666">
        <ele>47.719999999999999</ele>
        <time>2018-07-06T12:51:08Z</time>
      </trkpt>
      <trkpt lat="48.304142039269209" lon="-4.190866006538272">
        <ele>47.240000000000002</ele>
        <time>2018-07-06T12:51:09Z</time>
      </trkpt>
      <trkpt lat="48.304079007357359" lon="-4.190855026245117">
        <ele>47.240000000000002</ele>
        <time>2018-07-06T12:51:10Z</time>
      </trkpt>
      <trkpt lat="48.304003989323974" lon="-4.190842034295201">
        <ele>46.759999999999998</ele>
        <time>2018-07-06T12:51:11Z</time>
      </trkpt>
      <trkpt lat="48.303924025967717" lon="-4.190828036516905">
        <ele>46.280000000000001</ele>
        <time>2018-07-06T12:51:12Z</time>
      </trkpt>
      <trkpt lat="48.303722022101283" lon="-4.190794005990028">
        <ele>45.32</ele>
        <time>2018-07-06T12:51:15Z</time>
      </trkpt>
      <trkpt lat="48.303677011281252" lon="-4.190785959362984">
        <ele>44.840000000000003</ele>
        <time>2018-07-06T12:51:16Z</time>
      </trkpt>
      <trkpt lat="48.303579026833177" lon="-4.190769027918577">
        <ele>42.920000000000002</ele>
        <time>2018-07-06T12:51:25Z</time>
      </trkpt>
      <trkpt lat="48.303546002134681" lon="-4.190765004605055">
        <ele>42.920000000000002</ele>
        <time>2018-07-06T12:51:46Z</time>
      </trkpt>
      <trkpt lat="48.30317703075707" lon="-4.190725022926927">
        <ele>41.469999999999999</ele>
        <time>2018-07-06T12:51:53Z</time>
      </trkpt>
      <trkpt lat="48.303122967481613" lon="-4.190718987956643">
        <ele>40.990000000000002</ele>
        <time>2018-07-06T12:51:54Z</time>
      </trkpt>
      <trkpt lat="48.303068988025188" lon="-4.190712030977011">
        <ele>40.990000000000002</ele>
        <time>2018-07-06T12:51:55Z</time>
      </trkpt>
      <trkpt lat="48.302243035286665" lon="-4.19062502682209">
        <ele>38.590000000000003</ele>
        <time>2018-07-06T12:52:05Z</time>
      </trkpt>
      <trkpt lat="48.300920035690069" lon="-4.190489994361997">
        <ele>36.189999999999998</ele>
        <time>2018-07-06T12:52:15Z</time>
      </trkpt>
      <trkpt lat="48.300777040421963" lon="-4.19041195884347">
        <ele>36.189999999999998</ele>
        <time>2018-07-06T12:52:16Z</time>
      </trkpt>
      <trkpt lat="48.300650976598263" lon="-4.190342975780368">
        <ele>36.189999999999998</ele>
        <time>2018-07-06T12:52:17Z</time>
      </trkpt>
      <trkpt lat="48.300527008250356" lon="-4.190273992717266">
        <ele>36.189999999999998</ele>
        <time>2018-07-06T12:52:18Z</time>
      </trkpt>
      <trkpt lat="48.300413014367223" lon="-4.190185982733965">
        <ele>35.710000000000001</ele>
        <time>2018-07-06T12:52:19Z</time>
      </trkpt>
      <trkpt lat="48.300303965806961" lon="-4.19008900411427">
        <ele>35.710000000000001</ele>
        <time>2018-07-06T12:52:20Z</time>
      </trkpt>
      <trkpt lat="48.299598963931203" lon="-4.189168000593782">
        <ele>32.340000000000003</ele>
        <time>2018-07-06T12:52:28Z</time>
      </trkpt>
      <trkpt lat="48.299538027495146" lon="-4.189044032245874">
        <ele>31.859999999999999</ele>
        <time>2018-07-06T12:52:29Z</time>
      </trkpt>
      <trkpt lat="48.299497039988637" lon="-4.188898019492626">
        <ele>31.379999999999999</ele>
        <time>2018-07-06T12:52:30Z</time>
      </trkpt>
      <trkpt lat="48.299460997804999" lon="-4.188773967325687">
        <ele>30.899999999999999</ele>
        <time>2018-07-06T12:52:31Z</time>
      </trkpt>
      <trkpt lat="48.299451023340225" lon="-4.18862602673471">
        <ele>30.420000000000002</ele>
        <time>2018-07-06T12:52:32Z</time>
      </trkpt>
      <trkpt lat="48.2994419708848" lon="-4.188495017588139">
        <ele>29.940000000000001</ele>
        <time>2018-07-06T12:52:33Z</time>
      </trkpt>
      <trkpt lat="48.299434008076787" lon="-4.1883709654212">
        <ele>28.98</ele>
        <time>2018-07-06T12:52:34Z</time>
      </trkpt>
      <trkpt lat="48.299356978386641" lon="-4.18740201741457">
        <ele>25.129999999999999</ele>
        <time>2018-07-06T12:52:43Z</time>
      </trkpt>
      <trkpt lat="48.299252958968282" lon="-4.186346987262368">
        <ele>25.609999999999999</ele>
        <time>2018-07-06T12:52:53Z</time>
      </trkpt>
      <trkpt lat="48.299102000892162" lon="-4.185248035937548">
        <ele>23.210000000000001</ele>
        <time>2018-07-06T12:53:03Z</time>
      </trkpt>
      <trkpt lat="48.298706961795688" lon="-4.183854041621089">
        <ele>19.84</ele>
        <time>2018-07-06T12:53:13Z</time>
      </trkpt>
      <trkpt lat="48.298640996217728" lon="-4.183641979470849">
        <ele>19.359999999999999</ele>
        <time>2018-07-06T12:53:15Z</time>
      </trkpt>
      <trkpt lat="48.298503030091524" lon="-4.183218022808433">
        <ele>17.920000000000002</ele>
        <time>2018-07-06T12:53:19Z</time>
      </trkpt>
      <trkpt lat="48.298461036756635" lon="-4.183092964813113">
        <ele>17.440000000000001</ele>
        <time>2018-07-06T12:53:20Z</time>
      </trkpt>
      <trkpt lat="48.298375960439444" lon="-4.182834969833493">
        <ele>16.960000000000001</ele>
        <time>2018-07-06T12:53:22Z</time>
      </trkpt>
      <trkpt lat="48.29778503626585" lon="-4.181667035445571">
        <ele>15.039999999999999</ele>
        <time>2018-07-06T12:53:32Z</time>
      </trkpt>
      <trkpt lat="48.297153040766716" lon="-4.181007966399193">
        <ele>11.19</ele>
        <time>2018-07-06T12:53:41Z</time>
      </trkpt>
      <trkpt lat="48.297070981934667" lon="-4.1809799708426">
        <ele>10.23</ele>
        <time>2018-07-06T12:53:42Z</time>
      </trkpt>
      <trkpt lat="48.296983977779746" lon="-4.180971002206206">
        <ele>9.75</ele>
        <time>2018-07-06T12:53:43Z</time>
      </trkpt>
      <trkpt lat="48.296900996938348" lon="-4.180963039398193">
        <ele>8.789999999999999</ele>
        <time>2018-07-06T12:53:44Z</time>
      </trkpt>
      <trkpt lat="48.296820027753711" lon="-4.180953986942768">
        <ele>8.310000000000001</ele>
        <time>2018-07-06T12:53:45Z</time>
      </trkpt>
      <trkpt lat="48.295930959284306" lon="-4.180920962244272">
        <ele>5.42</ele>
        <time>2018-07-06T12:53:57Z</time>
      </trkpt>
      <trkpt lat="48.295879997313023" lon="-4.180889027193189">
        <ele>5.42</ele>
        <time>2018-07-06T12:53:58Z</time>
      </trkpt>
      <trkpt lat="48.295830963179469" lon="-4.180858014151454">
        <ele>4.94</ele>
        <time>2018-07-06T12:53:59Z</time>
      </trkpt>
      <trkpt lat="48.295688973739743" lon="-4.180744020268321">
        <ele>4.94</ele>
        <time>2018-07-06T12:54:02Z</time>
      </trkpt>
      <trkpt lat="48.295546984300017" lon="-4.180578980594873">
        <ele>4.94</ele>
        <time>2018-07-06T12:54:05Z</time>
      </trkpt>
      <trkpt lat="48.295497028157115" lon="-4.180522989481688">
        <ele>4.94</ele>
        <time>2018-07-06T12:54:06Z</time>
      </trkpt>
      <trkpt lat="48.295393008738756" lon="-4.180406983941793">
        <ele>5.42</ele>
        <time>2018-07-06T12:54:08Z</time>
      </trkpt>
      <trkpt lat="48.295341962948442" lon="-4.180349987000227">
        <ele>5.42</ele>
        <time>2018-07-06T12:54:09Z</time>
      </trkpt>
      <trkpt lat="48.295241966843605" lon="-4.180238004773855">
        <ele>5.42</ele>
        <time>2018-07-06T12:54:11Z</time>
      </trkpt>
      <trkpt lat="48.295189999043941" lon="-4.180181007832289">
        <ele>5.91</ele>
        <time>2018-07-06T12:54:12Z</time>
      </trkpt>
      <trkpt lat="48.294838964939117" lon="-4.179814970120788">
        <ele>6.39</ele>
        <time>2018-07-06T12:54:19Z</time>
      </trkpt>
      <trkpt lat="48.294785991311073" lon="-4.179782029241324">
        <ele>6.87</ele>
        <time>2018-07-06T12:54:20Z</time>
      </trkpt>
      <trkpt lat="48.294736035168171" lon="-4.179751016199589">
        <ele>6.87</ele>
        <time>2018-07-06T12:54:21Z</time>
      </trkpt>
      <trkpt lat="48.29469102434814" lon="-4.179723020642996">
        <ele>7.35</ele>
        <time>2018-07-06T12:54:22Z</time>
      </trkpt>
      <trkpt lat="48.29464903101325" lon="-4.179696030914784">
        <ele>7.35</ele>
        <time>2018-07-06T12:54:23Z</time>
      </trkpt>
      <trkpt lat="48.294607037678361" lon="-4.17966996319592">
        <ele>7.83</ele>
        <time>2018-07-06T12:54:24Z</time>
      </trkpt>
      <trkpt lat="48.294538976624608" lon="-4.179591005668044">
        <ele>8.789999999999999</ele>
        <time>2018-07-06T12:54:27Z</time>
      </trkpt>
      <trkpt lat="48.294526990503073" lon="-4.179528979584575">
        <ele>8.789999999999999</ele>
        <time>2018-07-06T12:54:28Z</time>
      </trkpt>
      <trkpt lat="48.294513998553157" lon="-4.179457984864712">
        <ele>8.789999999999999</ele>
        <time>2018-07-06T12:54:29Z</time>
      </trkpt>
      <trkpt lat="48.294497989118099" lon="-4.179376009851694">
        <ele>8.789999999999999</ele>
        <time>2018-07-06T12:54:30Z</time>
      </trkpt>
      <trkpt lat="48.29447996802628" lon="-4.17928297072649">
        <ele>8.789999999999999</ele>
        <time>2018-07-06T12:54:31Z</time>
      </trkpt>
      <trkpt lat="48.294446021318436" lon="-4.179107034578919">
        <ele>8.789999999999999</ele>
        <time>2018-07-06T12:54:33Z</time>
      </trkpt>
      <trkpt lat="48.29441400244832" lon="-4.179010977968574">
        <ele>8.789999999999999</ele>
        <time>2018-07-06T12:54:34Z</time>
      </trkpt>
      <trkpt lat="48.294376032426953" lon="-4.178926991298795">
        <ele>8.789999999999999</ele>
        <time>2018-07-06T12:54:35Z</time>
      </trkpt>
      <trkpt lat="48.294333033263683" lon="-4.178845016285777">
        <ele>8.789999999999999</ele>
        <time>2018-07-06T12:54:36Z</time>
      </trkpt>
      <trkpt lat="48.294288022443652" lon="-4.178759017959237">
        <ele>8.789999999999999</ele>
        <time>2018-07-06T12:54:37Z</time>
      </trkpt>
      <trkpt lat="48.293974036350846" lon="-4.17814202606678">
        <ele>9.27</ele>
        <time>2018-07-06T12:54:45Z</time>
      </trkpt>
      <trkpt lat="48.293947968631983" lon="-4.178089974448085">
        <ele>9.27</ele>
        <time>2018-07-06T12:54:46Z</time>
      </trkpt>
      <trkpt lat="48.293923996388912" lon="-4.178043035790324">
        <ele>9.27</ele>
        <time>2018-07-06T12:54:47Z</time>
      </trkpt>
      <trkpt lat="48.293901029974222" lon="-4.177996013313532">
        <ele>9.27</ele>
        <time>2018-07-06T12:54:48Z</time>
      </trkpt>
      <trkpt lat="48.293879991397262" lon="-4.177955025807023">
        <ele>9.75</ele>
        <time>2018-07-06T12:54:49Z</time>
      </trkpt>
      <trkpt lat="48.293861970305443" lon="-4.177918983623385">
        <ele>9.75</ele>
        <time>2018-07-06T12:54:50Z</time>
      </trkpt>
      <trkpt lat="48.293772032484412" lon="-4.17801202274859">
        <ele>9.75</ele>
        <time>2018-07-06T12:54:51Z</time>
      </trkpt>
      <trkpt lat="48.293744036927819" lon="-4.178072037175298">
        <ele>9.75</ele>
        <time>2018-07-06T12:54:52Z</time>
      </trkpt>
      <trkpt lat="48.293710006400943" lon="-4.17814202606678">
        <ele>10.23</ele>
        <time>2018-07-06T12:54:53Z</time>
      </trkpt>
      <trkpt lat="48.293672036379576" lon="-4.178221989423037">
        <ele>10.23</ele>
        <time>2018-07-06T12:54:54Z</time>
      </trkpt>
      <trkpt lat="48.293630965054035" lon="-4.178307987749577">
        <ele>10.23</ele>
        <time>2018-07-06T12:54:55Z</time>
      </trkpt>
      <trkpt lat="48.293276997283101" lon="-4.179304009303451">
        <ele>13.6</ele>
        <time>2018-07-06T12:55:04Z</time>
      </trkpt>
      <trkpt lat="48.29312302172184" lon="-4.179854029789567">
        <ele>15.039999999999999</ele>
        <time>2018-07-06T12:55:10Z</time>
      </trkpt>
      <trkpt lat="48.293099971488118" lon="-4.179940028116107">
        <ele>15.039999999999999</ele>
        <time>2018-07-06T12:55:11Z</time>
      </trkpt>
      <trkpt lat="48.29299503006041" lon="-4.180357027798891">
        <ele>15.039999999999999</ele>
        <time>2018-07-06T12:55:19Z</time>
      </trkpt>
      <trkpt lat="48.292977008968592" lon="-4.180431040003896">
        <ele>15.039999999999999</ele>
        <time>2018-07-06T12:55:20Z</time>
      </trkpt>
      <trkpt lat="48.292957982048392" lon="-4.18050698004663">
        <ele>14.56</ele>
        <time>2018-07-06T12:55:21Z</time>
      </trkpt>
      <trkpt lat="48.292939038947225" lon="-4.180586021393538">
        <ele>14.56</ele>
        <time>2018-07-06T12:55:22Z</time>
      </trkpt>
      <trkpt lat="48.292918000370264" lon="-4.180672019720078">
        <ele>14.56</ele>
        <time>2018-07-06T12:55:23Z</time>
      </trkpt>
      <trkpt lat="48.292895033955574" lon="-4.180766986683011">
        <ele>14.08</ele>
        <time>2018-07-06T12:55:24Z</time>
      </trkpt>
      <trkpt lat="48.292678026482463" lon="-4.181863004341722">
        <ele>14.56</ele>
        <time>2018-07-06T12:55:32Z</time>
      </trkpt>
      <trkpt lat="48.292642990127206" lon="-4.182042041793466">
        <ele>14.56</ele>
        <time>2018-07-06T12:55:33Z</time>
      </trkpt>
      <trkpt lat="48.292381977662444" lon="-4.184012040495873">
        <ele>16.960000000000001</ele>
        <time>2018-07-06T12:55:43Z</time>
      </trkpt>
      <trkpt lat="48.292418019846082" lon="-4.186019003391266">
        <ele>14.56</ele>
        <time>2018-07-06T12:55:52Z</time>
      </trkpt>
      <trkpt lat="48.292530002072453" lon="-4.188824007287622">
        <ele>8.310000000000001</ele>
        <time>2018-07-06T12:56:04Z</time>
      </trkpt>
      <trkpt lat="48.292139992117882" lon="-4.190657967701554">
        <ele>6.87</ele>
        <time>2018-07-06T12:56:11Z</time>
      </trkpt>
      <trkpt lat="48.291731961071491" lon="-4.193211011588574">
        <ele>9.75</ele>
        <time>2018-07-06T12:56:20Z</time>
      </trkpt>
      <trkpt lat="48.291615033522248" lon="-4.196199998259544">
        <ele>5.42</ele>
        <time>2018-07-06T12:56:30Z</time>
      </trkpt>
      <trkpt lat="48.291460974141955" lon="-4.197341026738286">
        <ele>4.94</ele>
        <time>2018-07-06T12:56:34Z</time>
      </trkpt>
      <trkpt lat="48.291396014392376" lon="-4.197616958990693">
        <ele>4.94</ele>
        <time>2018-07-06T12:56:35Z</time>
      </trkpt>
      <trkpt lat="48.291300041601062" lon="-4.197874031960964">
        <ele>4.94</ele>
        <time>2018-07-06T12:56:36Z</time>
      </trkpt>
      <trkpt lat="48.291188981384039" lon="-4.198114005848765">
        <ele>4.94</ele>
        <time>2018-07-06T12:56:37Z</time>
      </trkpt>
      <trkpt lat="48.291079010814428" lon="-4.198350040242076">
        <ele>4.94</ele>
        <time>2018-07-06T12:56:38Z</time>
      </trkpt>
      <trkpt lat="48.290969040244818" lon="-4.198586996644735">
        <ele>4.94</ele>
        <time>2018-07-06T12:56:39Z</time>
      </trkpt>
      <trkpt lat="48.290840964764357" lon="-4.198800986632705">
        <ele>5.42</ele>
        <time>2018-07-06T12:56:40Z</time>
      </trkpt>
      <trkpt lat="48.289609998464584" lon="-4.200717005878687">
        <ele>7.83</ele>
        <time>2018-07-06T12:56:49Z</time>
      </trkpt>
      <trkpt lat="48.288233019411564" lon="-4.202903006225824">
        <ele>13.6</ele>
        <time>2018-07-06T12:56:59Z</time>
      </trkpt>
      <trkpt lat="48.287361972033978" lon="-4.204853978008032">
        <ele>18.399999999999999</ele>
        <time>2018-07-06T12:57:07Z</time>
      </trkpt>
      <trkpt lat="48.286766018718481" lon="-4.206725992262363">
        <ele>21.77</ele>
        <time>2018-07-06T12:57:14Z</time>
      </trkpt>
      <trkpt lat="48.285556007176638" lon="-4.210059978067875">
        <ele>29.460000000000001</ele>
        <time>2018-07-06T12:57:27Z</time>
      </trkpt>
      <trkpt lat="48.285531029105186" lon="-4.210366001352668">
        <ele>29.940000000000001</ele>
        <time>2018-07-06T12:57:28Z</time>
      </trkpt>
      <trkpt lat="48.285505967214704" lon="-4.210663978010416">
        <ele>30.899999999999999</ele>
        <time>2018-07-06T12:57:29Z</time>
      </trkpt>
      <trkpt lat="48.285493981093168" lon="-4.210957009345293">
        <ele>31.379999999999999</ele>
        <time>2018-07-06T12:57:30Z</time>
      </trkpt>
      <trkpt lat="48.28549699857831" lon="-4.211259009316564">
        <ele>31.859999999999999</ele>
        <time>2018-07-06T12:57:31Z</time>
      </trkpt>
      <trkpt lat="48.285501021891832" lon="-4.211561009287834">
        <ele>31.859999999999999</ele>
        <time>2018-07-06T12:57:32Z</time>
      </trkpt>
      <trkpt lat="48.285458022728562" lon="-4.213329004123807">
        <ele>37.149999999999999</ele>
        <time>2018-07-06T12:57:38Z</time>
      </trkpt>
      <trkpt lat="48.285419968888164" lon="-4.213626980781555">
        <ele>37.630000000000003</ele>
        <time>2018-07-06T12:57:39Z</time>
      </trkpt>
      <trkpt lat="48.285050997510552" lon="-4.215340996161103">
        <ele>38.109999999999999</ele>
        <time>2018-07-06T12:57:45Z</time>
      </trkpt>
      <trkpt lat="48.285043034702539" lon="-4.215630004182458">
        <ele>38.590000000000003</ele>
        <time>2018-07-06T12:57:46Z</time>
      </trkpt>
      <trkpt lat="48.285045968368649" lon="-4.215924041345716">
        <ele>38.590000000000003</ele>
        <time>2018-07-06T12:57:47Z</time>
      </trkpt>
      <trkpt lat="48.285047980025411" lon="-4.218029994517565">
        <ele>38.109999999999999</ele>
        <time>2018-07-06T12:57:54Z</time>
      </trkpt>
      <trkpt lat="48.285028031095862" lon="-4.218324031680822">
        <ele>37.630000000000003</ele>
        <time>2018-07-06T12:57:55Z</time>
      </trkpt>
      <trkpt lat="48.284980002790689" lon="-4.218605998903513">
        <ele>37.149999999999999</ele>
        <time>2018-07-06T12:57:56Z</time>
      </trkpt>
      <trkpt lat="48.284409027546644" lon="-4.220851007848978">
        <ele>31.859999999999999</ele>
        <time>2018-07-06T12:58:04Z</time>
      </trkpt>
      <trkpt lat="48.283437984064221" lon="-4.224374005571008">
        <ele>27.050000000000001</ele>
        <time>2018-07-06T12:58:17Z</time>
      </trkpt>
      <trkpt lat="48.282472975552082" lon="-4.227636996656656">
        <ele>28.02</ele>
        <time>2018-07-06T12:58:29Z</time>
      </trkpt>
      <trkpt lat="48.281842991709709" lon="-4.230056013911963">
        <ele>35.710000000000001</ele>
        <time>2018-07-06T12:58:38Z</time>
      </trkpt>
      <trkpt lat="48.281026007607579" lon="-4.231821997091174">
        <ele>37.630000000000003</ele>
        <time>2018-07-06T12:58:45Z</time>
      </trkpt>
      <trkpt lat="48.280249005183578" lon="-4.233857039362192">
        <ele>32.340000000000003</ele>
        <time>2018-07-06T12:58:53Z</time>
      </trkpt>
      <trkpt lat="48.280011964961886" lon="-4.236171031370759">
        <ele>35.229999999999997</ele>
        <time>2018-07-06T12:59:01Z</time>
      </trkpt>
      <trkpt lat="48.279769979417324" lon="-4.23971900716424">
        <ele>40.509999999999998</ele>
        <time>2018-07-06T12:59:13Z</time>
      </trkpt>
      <trkpt lat="48.279731003567576" lon="-4.242994990199804">
        <ele>33.780000000000001</ele>
        <time>2018-07-06T12:59:24Z</time>
      </trkpt>
      <trkpt lat="48.279871987178922" lon="-4.243525983765721">
        <ele>33.299999999999997</ele>
        <time>2018-07-06T12:59:26Z</time>
      </trkpt>
      <trkpt lat="48.279957985505462" lon="-4.243774004280567">
        <ele>33.299999999999997</ele>
        <time>2018-07-06T12:59:27Z</time>
      </trkpt>
      <trkpt lat="48.280053958296776" lon="-4.244024958461523">
        <ele>33.299999999999997</ele>
        <time>2018-07-06T12:59:28Z</time>
      </trkpt>
      <trkpt lat="48.280154038220644" lon="-4.244269961491227">
        <ele>33.299999999999997</ele>
        <time>2018-07-06T12:59:29Z</time>
      </trkpt>
      <trkpt lat="48.28027599491179" lon="-4.244494009763002">
        <ele>33.780000000000001</ele>
        <time>2018-07-06T12:59:30Z</time>
      </trkpt>
      <trkpt lat="48.280398035421968" lon="-4.244718980044127">
        <ele>34.259999999999998</ele>
        <time>2018-07-06T12:59:31Z</time>
      </trkpt>
      <trkpt lat="48.280539019033313" lon="-4.244920983910561">
        <ele>34.259999999999998</ele>
        <time>2018-07-06T12:59:32Z</time>
      </trkpt>
      <trkpt lat="48.282259991392493" lon="-4.24741200171411">
        <ele>31.859999999999999</ele>
        <time>2018-07-06T12:59:44Z</time>
      </trkpt>
      <trkpt lat="48.282484961673617" lon="-4.247894966974855">
        <ele>31.379999999999999</ele>
        <time>2018-07-06T12:59:46Z</time>
      </trkpt>
      <trkpt lat="48.282581018283963" lon="-4.248152961954474">
        <ele>30.899999999999999</ele>
        <time>2018-07-06T12:59:47Z</time>
      </trkpt>
      <trkpt lat="48.282672967761755" lon="-4.248416991904378">
        <ele>29.940000000000001</ele>
        <time>2018-07-06T12:59:49Z</time>
      </trkpt>
      <trkpt lat="48.282841024920344" lon="-4.250459996983409">
        <ele>25.609999999999999</ele>
        <time>2018-07-06T12:59:55Z</time>
      </trkpt>
      <trkpt lat="48.282576994970441" lon="-4.251877963542938">
        <ele>22.73</ele>
        <time>2018-07-06T13:00:00Z</time>
      </trkpt>
      <trkpt lat="48.2825100235641" lon="-4.252148028463125">
        <ele>21.77</ele>
        <time>2018-07-06T13:00:01Z</time>
      </trkpt>
      <trkpt lat="48.281784988939762" lon="-4.254590012133122">
        <ele>16.48</ele>
        <time>2018-07-06T13:00:10Z</time>
      </trkpt>
      <trkpt lat="48.280608002096415" lon="-4.257699027657509">
        <ele>3.98</ele>
        <time>2018-07-06T13:00:22Z</time>
      </trkpt>
      <trkpt lat="48.279786994680762" lon="-4.259732980281115">
        <ele>5.42</ele>
        <time>2018-07-06T13:00:31Z</time>
      </trkpt>
      <trkpt lat="48.279107976704836" lon="-4.261856032535434">
        <ele>8.789999999999999</ele>
        <time>2018-07-06T13:00:40Z</time>
      </trkpt>
      <trkpt lat="48.278912007808685" lon="-4.263870036229491">
        <ele>9.27</ele>
        <time>2018-07-06T13:00:48Z</time>
      </trkpt>
      <trkpt lat="48.278828021138906" lon="-4.266958013176918">
        <ele>11.19</ele>
        <time>2018-07-06T13:01:00Z</time>
      </trkpt>
      <trkpt lat="48.278937991708517" lon="-4.270352013409138">
        <ele>12.630000000000001</ele>
        <time>2018-07-06T13:01:13Z</time>
      </trkpt>
      <trkpt lat="48.279076041653752" lon="-4.272028980776668">
        <ele>12.15</ele>
        <time>2018-07-06T13:01:21Z</time>
      </trkpt>
      <trkpt lat="48.279129015281796" lon="-4.272264009341598">
        <ele>11.67</ele>
        <time>2018-07-06T13:01:22Z</time>
      </trkpt>
      <trkpt lat="48.279299000278115" lon="-4.273081999272108">
        <ele>10.23</ele>
        <time>2018-07-06T13:01:27Z</time>
      </trkpt>
      <trkpt lat="48.279324984177947" lon="-4.273248966783285">
        <ele>10.23</ele>
        <time>2018-07-06T13:01:28Z</time>
      </trkpt>
      <trkpt lat="48.279452975839376" lon="-4.27431003190577">
        <ele>8.789999999999999</ele>
        <time>2018-07-06T13:01:34Z</time>
      </trkpt>
      <trkpt lat="48.279505027458072" lon="-4.276036033406854">
        <ele>9.75</ele>
        <time>2018-07-06T13:01:43Z</time>
      </trkpt>
      <trkpt lat="48.279505027458072" lon="-4.276377009227872">
        <ele>9.75</ele>
        <time>2018-07-06T13:01:45Z</time>
      </trkpt>
      <trkpt lat="48.279511984437704" lon="-4.276699963957071">
        <ele>9.27</ele>
        <time>2018-07-06T13:01:47Z</time>
      </trkpt>
      <trkpt lat="48.279517013579607" lon="-4.276850000023842">
        <ele>9.27</ele>
        <time>2018-07-06T13:01:48Z</time>
      </trkpt>
      <trkpt lat="48.279526988044381" lon="-4.277155017480254">
        <ele>8.789999999999999</ele>
        <time>2018-07-06T13:01:50Z</time>
      </trkpt>
      <trkpt lat="48.279526988044381" lon="-4.277317961677909">
        <ele>8.789999999999999</ele>
        <time>2018-07-06T13:01:51Z</time>
      </trkpt>
      <trkpt lat="48.279521958902478" lon="-4.277832023799419">
        <ele>6.39</ele>
        <time>2018-07-06T13:01:54Z</time>
      </trkpt>
      <trkpt lat="48.279492035508156" lon="-4.278528979048133">
        <ele>4.94</ele>
        <time>2018-07-06T13:01:58Z</time>
      </trkpt>
      <trkpt lat="48.279445013031363" lon="-4.278830979019404">
        <ele>4.46</ele>
        <time>2018-07-06T13:02:00Z</time>
      </trkpt>
      <trkpt lat="48.279394973069429" lon="-4.278970034793019">
        <ele>4.46</ele>
        <time>2018-07-06T13:02:01Z</time>
      </trkpt>
      <trkpt lat="48.279347028583288" lon="-4.279103977605701">
        <ele>4.46</ele>
        <time>2018-07-06T13:02:02Z</time>
      </trkpt>
      <trkpt lat="48.279291037470102" lon="-4.279260970652103">
        <ele>4.94</ele>
        <time>2018-07-06T13:02:03Z</time>
      </trkpt>
      <trkpt lat="48.279237980023026" lon="-4.279330959543586">
        <ele>4.94</ele>
        <time>2018-07-06T13:02:04Z</time>
      </trkpt>
      <trkpt lat="48.279166985303164" lon="-4.279426010325551">
        <ele>4.46</ele>
        <time>2018-07-06T13:02:05Z</time>
      </trkpt>
      <trkpt lat="48.279076041653752" lon="-4.279469009488821">
        <ele>4.46</ele>
        <time>2018-07-06T13:02:06Z</time>
      </trkpt>
      <trkpt lat="48.278977973386645" lon="-4.27951100282371">
        <ele>3.98</ele>
        <time>2018-07-06T13:02:07Z</time>
      </trkpt>
      <trkpt lat="48.278878983110189" lon="-4.27955400198698">
        <ele>3.5</ele>
        <time>2018-07-06T13:02:08Z</time>
      </trkpt>
      <trkpt lat="48.278786027804017" lon="-4.27955400198698">
        <ele>3.02</ele>
        <time>2018-07-06T13:02:09Z</time>
      </trkpt>
      <trkpt lat="48.278646972030401" lon="-4.279540004208684">
        <ele>3.02</ele>
        <time>2018-07-06T13:02:10Z</time>
      </trkpt>
      <trkpt lat="48.278571031987667" lon="-4.279498010873795">
        <ele>3.02</ele>
        <time>2018-07-06T13:02:11Z</time>
      </trkpt>
      <trkpt lat="48.278457038104534" lon="-4.279435984790325">
        <ele>3.02</ele>
        <time>2018-07-06T13:02:12Z</time>
      </trkpt>
      <trkpt lat="48.278346983715892" lon="-4.279353003948927">
        <ele>3.02</ele>
        <time>2018-07-06T13:02:13Z</time>
      </trkpt>
      <trkpt lat="48.278002990409732" lon="-4.279045974835753">
        <ele>3.02</ele>
        <time>2018-07-06T13:02:16Z</time>
      </trkpt>
      <trkpt lat="48.277911962941289" lon="-4.278928963467479">
        <ele>3.02</ele>
        <time>2018-07-06T13:02:17Z</time>
      </trkpt>
      <trkpt lat="48.277822025120258" lon="-4.278778005391359">
        <ele>3.5</ele>
        <time>2018-07-06T13:02:18Z</time>
      </trkpt>
      <trkpt lat="48.277666959911585" lon="-4.278398975729942">
        <ele>4.46</ele>
        <time>2018-07-06T13:02:20Z</time>
      </trkpt>
      <trkpt lat="48.277147030457854" lon="-4.27676098421216">
        <ele>6.87</ele>
        <time>2018-07-06T13:02:27Z</time>
      </trkpt>
      <trkpt lat="48.27673296444118" lon="-4.275177977979183">
        <ele>12.15</ele>
        <time>2018-07-06T13:02:33Z</time>
      </trkpt>
      <trkpt lat="48.276331974193454" lon="-4.273739978671074">
        <ele>18.399999999999999</ele>
        <time>2018-07-06T13:02:39Z</time>
      </trkpt>
      <trkpt lat="48.275927966460586" lon="-4.272461989894509">
        <ele>23.690000000000001</ele>
        <time>2018-07-06T13:02:45Z</time>
      </trkpt>
      <trkpt lat="48.275346010923386" lon="-4.270961964502931">
        <ele>32.340000000000003</ele>
        <time>2018-07-06T13:02:53Z</time>
      </trkpt>
      <trkpt lat="48.275237968191504" lon="-4.270626017823815">
        <ele>33.780000000000001</ele>
        <time>2018-07-06T13:02:55Z</time>
      </trkpt>
      <trkpt lat="48.275190023705363" lon="-4.270471036434174">
        <ele>34.740000000000002</ele>
        <time>2018-07-06T13:02:56Z</time>
      </trkpt>
      <trkpt lat="48.27516202814877" lon="-4.27031496539712">
        <ele>35.229999999999997</ele>
        <time>2018-07-06T13:02:57Z</time>
      </trkpt>
      <trkpt lat="48.275135960429907" lon="-4.270167024806142">
        <ele>35.710000000000001</ele>
        <time>2018-07-06T13:02:58Z</time>
      </trkpt>
      <trkpt lat="48.275112994015217" lon="-4.270037021487951">
        <ele>36.189999999999998</ele>
        <time>2018-07-06T13:02:59Z</time>
      </trkpt>
      <trkpt lat="48.275093967095017" lon="-4.269930990412831">
        <ele>37.149999999999999</ele>
        <time>2018-07-06T13:03:00Z</time>
      </trkpt>
      <trkpt lat="48.27507602982223" lon="-4.269826970994473">
        <ele>37.630000000000003</ele>
        <time>2018-07-06T13:03:01Z</time>
      </trkpt>
      <trkpt lat="48.27503303065896" lon="-4.269585991278291">
        <ele>38.590000000000003</ele>
        <time>2018-07-06T13:03:03Z</time>
      </trkpt>
      <trkpt lat="48.275011992082" lon="-4.269466968253255">
        <ele>39.549999999999997</ele>
        <time>2018-07-06T13:03:04Z</time>
      </trkpt>
      <trkpt lat="48.274991037324071" lon="-4.269349034875631">
        <ele>40.030000000000001</ele>
        <time>2018-07-06T13:03:05Z</time>
      </trkpt>
      <trkpt lat="48.27496999874711" lon="-4.269231017678976">
        <ele>40.990000000000002</ele>
        <time>2018-07-06T13:03:06Z</time>
      </trkpt>
      <trkpt lat="48.274948038160801" lon="-4.26911098882556">
        <ele>41.469999999999999</ele>
        <time>2018-07-06T13:03:07Z</time>
      </trkpt>
      <trkpt lat="48.274921970441937" lon="-4.26898299716413">
        <ele>42.439999999999998</ele>
        <time>2018-07-06T13:03:08Z</time>
      </trkpt>
      <trkpt lat="48.274832032620907" lon="-4.268592987209559">
        <ele>44.840000000000003</ele>
        <time>2018-07-06T13:03:11Z</time>
      </trkpt>
      <trkpt lat="48.274769000709057" lon="-4.268341027200222">
        <ele>46.280000000000001</ele>
        <time>2018-07-06T13:03:13Z</time>
      </trkpt>
      <trkpt lat="48.274707980453968" lon="-4.268097029998899">
        <ele>49.159999999999997</ele>
        <time>2018-07-06T13:03:15Z</time>
      </trkpt>
      <trkpt lat="48.274425007402897" lon="-4.267330002039671">
        <ele>55.890000000000001</ele>
        <time>2018-07-06T13:03:21Z</time>
      </trkpt>
      <trkpt lat="48.27436801046133" lon="-4.26717703230679">
        <ele>56.859999999999999</ele>
        <time>2018-07-06T13:03:22Z</time>
      </trkpt>
      <trkpt lat="48.274307996034622" lon="-4.267020039260387">
        <ele>57.340000000000003</ele>
        <time>2018-07-06T13:03:23Z</time>
      </trkpt>
      <trkpt lat="48.273621015250683" lon="-4.26550199277699">
        <ele>64.069999999999993</ele>
        <time>2018-07-06T13:03:34Z</time>
      </trkpt>
      <trkpt lat="48.273537028580904" lon="-4.265319015830755">
        <ele>64.549999999999997</ele>
        <time>2018-07-06T13:03:35Z</time>
      </trkpt>
      <trkpt lat="48.273444995284081" lon="-4.265134027227759">
        <ele>64.549999999999997</ele>
        <time>2018-07-06T13:03:36Z</time>
      </trkpt>
      <trkpt lat="48.273346005007625" lon="-4.264968987554312">
        <ele>65.030000000000001</ele>
        <time>2018-07-06T13:03:37Z</time>
      </trkpt>
      <trkpt lat="48.272613007575274" lon="-4.263802981004119">
        <ele>63.579999999999998</ele>
        <time>2018-07-06T13:03:45Z</time>
      </trkpt>
      <trkpt lat="48.272211011499166" lon="-4.26330903545022">
        <ele>60.219999999999999</ele>
        <time>2018-07-06T13:03:50Z</time>
      </trkpt>
      <trkpt lat="48.272162983193994" lon="-4.263250026851893">
        <ele>59.740000000000002</ele>
        <time>2018-07-06T13:03:51Z</time>
      </trkpt>
      <trkpt lat="48.272125013172626" lon="-4.2632030043751">
        <ele>57.82</ele>
        <time>2018-07-06T13:03:52Z</time>
      </trkpt>
      <trkpt lat="48.272095005959272" lon="-4.263166962191463">
        <ele>56.369999999999997</ele>
        <time>2018-07-06T13:03:53Z</time>
      </trkpt>
      <trkpt lat="48.272070027887821" lon="-4.26313603296876">
        <ele>54.93</ele>
        <time>2018-07-06T13:03:54Z</time>
      </trkpt>
      <trkpt lat="48.272049995139241" lon="-4.263110971078277">
        <ele>53.490000000000002</ele>
        <time>2018-07-06T13:03:55Z</time>
      </trkpt>
      <trkpt lat="48.272032979875803" lon="-4.263090016320348">
        <ele>52.530000000000001</ele>
        <time>2018-07-06T13:03:56Z</time>
      </trkpt>
      <trkpt lat="48.272017976269126" lon="-4.263071995228529">
        <ele>51.57</ele>
        <time>2018-07-06T13:03:57Z</time>
      </trkpt>
      <trkpt lat="48.272017976269126" lon="-4.263071995228529">
        <ele>50.609999999999999</ele>
        <time>2018-07-06T13:04:07Z</time>
      </trkpt>
      <trkpt lat="48.272017976269126" lon="-4.263071995228529">
        <ele>50.130000000000003</ele>
        <time>2018-07-06T13:05:03Z</time>
      </trkpt>
      <trkpt lat="48.27200498431921" lon="-4.263055985793471">
        <ele>47.240000000000002</ele>
        <time>2018-07-06T13:05:33Z</time>
      </trkpt>
      <trkpt lat="48.271981012076139" lon="-4.263026984408498">
        <ele>46.759999999999998</ele>
        <time>2018-07-06T13:05:34Z</time>
      </trkpt>
      <trkpt lat="48.271913034841418" lon="-4.262977028265595">
        <ele>46.759999999999998</ele>
        <time>2018-07-06T13:05:35Z</time>
      </trkpt>
      <trkpt lat="48.27183298766613" lon="-4.262922964990139">
        <ele>45.799999999999997</ele>
        <time>2018-07-06T13:05:36Z</time>
      </trkpt>
      <trkpt lat="48.271729974076152" lon="-4.262854987755418">
        <ele>45.32</ele>
        <time>2018-07-06T13:05:37Z</time>
      </trkpt>
      <trkpt lat="48.270944003015757" lon="-4.262570003047586">
        <ele>42.920000000000002</ele>
        <time>2018-07-06T13:05:43Z</time>
      </trkpt>
      <trkpt lat="48.270807964727283" lon="-4.262574026361108">
        <ele>42.439999999999998</ele>
        <time>2018-07-06T13:05:44Z</time>
      </trkpt>
      <trkpt lat="48.270673016086221" lon="-4.262584000825882">
        <ele>42.439999999999998</ele>
        <time>2018-07-06T13:05:45Z</time>
      </trkpt>
      <trkpt lat="48.26966199092567" lon="-4.26303000189364">
        <ele>42.920000000000002</ele>
        <time>2018-07-06T13:05:53Z</time>
      </trkpt>
      <trkpt lat="48.268316024914384" lon="-4.264057958498597">
        <ele>42.439999999999998</ele>
        <time>2018-07-06T13:06:03Z</time>
      </trkpt>
      <trkpt lat="48.267682017758489" lon="-4.264754997566342">
        <ele>41.950000000000003</ele>
        <time>2018-07-06T13:06:08Z</time>
      </trkpt>
      <trkpt lat="48.267589984461665" lon="-4.264960018917918">
        <ele>41.950000000000003</ele>
        <time>2018-07-06T13:06:09Z</time>
      </trkpt>
      <trkpt lat="48.267496023327112" lon="-4.265167973935604">
        <ele>41.950000000000003</ele>
        <time>2018-07-06T13:06:10Z</time>
      </trkpt>
      <trkpt lat="48.267401978373528" lon="-4.265376012772322">
        <ele>41.469999999999999</ele>
        <time>2018-07-06T13:06:11Z</time>
      </trkpt>
      <trkpt lat="48.267327966168523" lon="-4.265598971396685">
        <ele>41.469999999999999</ele>
        <time>2018-07-06T13:06:12Z</time>
      </trkpt>
      <trkpt lat="48.26725403778255" lon="-4.265839029103518">
        <ele>41.469999999999999</ele>
        <time>2018-07-06T13:06:13Z</time>
      </trkpt>
      <trkpt lat="48.26721497811377" lon="-4.266108004376292">
        <ele>41.469999999999999</ele>
        <time>2018-07-06T13:06:14Z</time>
      </trkpt>
      <trkpt lat="48.267194023355842" lon="-4.266375973820686">
        <ele>41.950000000000003</ele>
        <time>2018-07-06T13:06:15Z</time>
      </trkpt>
      <trkpt lat="48.267194023355842" lon="-4.26662097685039">
        <ele>42.439999999999998</ele>
        <time>2018-07-06T13:06:16Z</time>
      </trkpt>
      <trkpt lat="48.267200980335474" lon="-4.266851982101798">
        <ele>42.920000000000002</ele>
        <time>2018-07-06T13:06:17Z</time>
      </trkpt>
      <trkpt lat="48.267207015305758" lon="-4.267073012888432">
        <ele>43.880000000000003</ele>
        <time>2018-07-06T13:06:18Z</time>
      </trkpt>
      <trkpt lat="48.26721397228539" lon="-4.267287002876401">
        <ele>44.840000000000003</ele>
        <time>2018-07-06T13:06:19Z</time>
      </trkpt>
      <trkpt lat="48.267230987548828" lon="-4.267895026132464">
        <ele>47.240000000000002</ele>
        <time>2018-07-06T13:06:22Z</time>
      </trkpt>
      <trkpt lat="48.267209026962519" lon="-4.269781038165093">
        <ele>55.890000000000001</ele>
        <time>2018-07-06T13:06:31Z</time>
      </trkpt>
      <trkpt lat="48.267232999205589" lon="-4.27001397125423">
        <ele>57.340000000000003</ele>
        <time>2018-07-06T13:06:32Z</time>
      </trkpt>
      <trkpt lat="48.267292007803917" lon="-4.270511018112302">
        <ele>59.259999999999998</ele>
        <time>2018-07-06T13:06:34Z</time>
      </trkpt>
      <trkpt lat="48.267830964177847" lon="-4.27280698902905">
        <ele>71.760000000000005</ele>
        <time>2018-07-06T13:06:44Z</time>
      </trkpt>
      <trkpt lat="48.268549963831902" lon="-4.275326002389193">
        <ele>84.25</ele>
        <time>2018-07-06T13:06:54Z</time>
      </trkpt>
      <trkpt lat="48.268568990752101" lon="-4.275597995147109">
        <ele>85.689999999999998</ele>
        <time>2018-07-06T13:06:55Z</time>
      </trkpt>
      <trkpt lat="48.268577959388494" lon="-4.275870993733406">
        <ele>87.140000000000001</ele>
        <time>2018-07-06T13:06:56Z</time>
      </trkpt>
      <trkpt lat="48.268571002408862" lon="-4.276132006198168">
        <ele>88.099999999999994</ele>
        <time>2018-07-06T13:06:57Z</time>
      </trkpt>
      <trkpt lat="48.268540995195508" lon="-4.276392012834549">
        <ele>89.060000000000002</ele>
        <time>2018-07-06T13:06:58Z</time>
      </trkpt>
      <trkpt lat="48.268511993810534" lon="-4.276641961187124">
        <ele>90.019999999999996</ele>
        <time>2018-07-06T13:06:59Z</time>
      </trkpt>
      <trkpt lat="48.268471006304026" lon="-4.276882018893957">
        <ele>90.5</ele>
        <time>2018-07-06T13:07:00Z</time>
      </trkpt>
      <trkpt lat="48.26841501519084" lon="-4.277122998610139">
        <ele>90.980000000000004</ele>
        <time>2018-07-06T13:07:01Z</time>
      </trkpt>
      <trkpt lat="48.268325999379158" lon="-4.277335982769728">
        <ele>91.459999999999994</ele>
        <time>2018-07-06T13:07:02Z</time>
      </trkpt>
      <trkpt lat="48.268234971910715" lon="-4.277557013556361">
        <ele>91.459999999999994</ele>
        <time>2018-07-06T13:07:03Z</time>
      </trkpt>
      <trkpt lat="48.2674690335989" lon="-4.279971001669765">
        <ele>90.980000000000004</ele>
        <time>2018-07-06T13:07:13Z</time>
      </trkpt>
      <trkpt lat="48.267260994762182" lon="-4.28273300640285">
        <ele>91.939999999999998</ele>
        <time>2018-07-06T13:07:23Z</time>
      </trkpt>
      <trkpt lat="48.26708497479558" lon="-4.286641990765929">
        <ele>99.629999999999995</ele>
        <time>2018-07-06T13:07:36Z</time>
      </trkpt>
      <trkpt lat="48.267139038071036" lon="-4.291139971464872">
        <ele>103.48</ele>
        <time>2018-07-06T13:07:51Z</time>
      </trkpt>
      <trkpt lat="48.267006017267704" lon="-4.294418971985579">
        <ele>105.88</ele>
        <time>2018-07-06T13:08:02Z</time>
      </trkpt>
      <trkpt lat="48.26616195961833" lon="-4.299982963129878">
        <ele>103.95999999999999</ele>
        <time>2018-07-06T13:08:21Z</time>
      </trkpt>
      <trkpt lat="48.265644041821361" lon="-4.302221015095711">
        <ele>101.56</ele>
        <time>2018-07-06T13:08:30Z</time>
      </trkpt>
      <trkpt lat="48.264749022200704" lon="-4.304109960794449">
        <ele>100.59999999999999</ele>
        <time>2018-07-06T13:08:39Z</time>
      </trkpt>
      <trkpt lat="48.263572035357356" lon="-4.305664971470833">
        <ele>102.52</ele>
        <time>2018-07-06T13:08:48Z</time>
      </trkpt>
      <trkpt lat="48.26315201818943" lon="-4.306800970807672">
        <ele>103.48</ele>
        <time>2018-07-06T13:08:53Z</time>
      </trkpt>
      <trkpt lat="48.263090997934341" lon="-4.307045973837376">
        <ele>103.48</ele>
        <time>2018-07-06T13:08:54Z</time>
      </trkpt>
      <trkpt lat="48.262534020468593" lon="-4.309862041845918">
        <ele>104.44</ele>
        <time>2018-07-06T13:09:04Z</time>
      </trkpt>
      <trkpt lat="48.261417970061302" lon="-4.314668979495764">
        <ele>107.31999999999999</ele>
        <time>2018-07-06T13:09:21Z</time>
      </trkpt>
      <trkpt lat="48.261083029210567" lon="-4.316070014610887">
        <ele>107.81</ele>
        <time>2018-07-06T13:09:26Z</time>
      </trkpt>
      <trkpt lat="48.26111395843327" lon="-4.318144032731652">
        <ele>106.84</ele>
        <time>2018-07-06T13:09:33Z</time>
      </trkpt>
      <trkpt lat="48.261543028056622" lon="-4.323223968967795">
        <ele>104.44</ele>
        <time>2018-07-06T13:09:50Z</time>
      </trkpt>
      <trkpt lat="48.261660039424896" lon="-4.326511016115546">
        <ele>104.44</ele>
        <time>2018-07-06T13:10:01Z</time>
      </trkpt>
      <trkpt lat="48.261818960309029" lon="-4.331203037872911">
        <ele>104.92</ele>
        <time>2018-07-06T13:10:17Z</time>
      </trkpt>
      <trkpt lat="48.262003026902676" lon="-4.33369698934257">
        <ele>103.48</ele>
        <time>2018-07-06T13:10:28Z</time>
      </trkpt>
      <trkpt lat="48.262090031057596" lon="-4.334348011761904">
        <ele>102.04000000000001</ele>
        <time>2018-07-06T13:10:31Z</time>
      </trkpt>
      <trkpt lat="48.26212003827095" lon="-4.334567030891776">
        <ele>101.56</ele>
        <time>2018-07-06T13:10:32Z</time>
      </trkpt>
      <trkpt lat="48.262547012418509" lon="-4.337717033922672">
        <ele>95.310000000000002</ele>
        <time>2018-07-06T13:10:47Z</time>
      </trkpt>
      <trkpt lat="48.262578025460243" lon="-4.33943398296833">
        <ele>93.390000000000001</ele>
        <time>2018-07-06T13:10:55Z</time>
      </trkpt>
      <trkpt lat="48.262235037982464" lon="-4.341725008562207">
        <ele>91.939999999999998</ele>
        <time>2018-07-06T13:11:04Z</time>
      </trkpt>
      <trkpt lat="48.261905964463949" lon="-4.344480978325009">
        <ele>91.459999999999994</ele>
        <time>2018-07-06T13:11:14Z</time>
      </trkpt>
      <trkpt lat="48.261525006964803" lon="-4.346606964245439">
        <ele>89.060000000000002</ele>
        <time>2018-07-06T13:11:22Z</time>
      </trkpt>
      <trkpt lat="48.260930981487036" lon="-4.349481035023928">
        <ele>89.060000000000002</ele>
        <time>2018-07-06T13:11:33Z</time>
      </trkpt>
      <trkpt lat="48.260540971532464" lon="-4.352203980088234">
        <ele>89.060000000000002</ele>
        <time>2018-07-06T13:11:43Z</time>
      </trkpt>
      <trkpt lat="48.260238971561193" lon="-4.354310017079115">
        <ele>87.620000000000005</ele>
        <time>2018-07-06T13:11:51Z</time>
      </trkpt>
      <trkpt lat="48.259787019342184" lon="-4.357582982629538">
        <ele>86.180000000000007</ele>
        <time>2018-07-06T13:12:03Z</time>
      </trkpt>
      <trkpt lat="48.25932702049613" lon="-4.360354961827397">
        <ele>83.769999999999996</ele>
        <time>2018-07-06T13:12:13Z</time>
      </trkpt>
      <trkpt lat="48.258609026670456" lon="-4.362612962722778">
        <ele>80.890000000000001</ele>
        <time>2018-07-06T13:12:22Z</time>
      </trkpt>
      <trkpt lat="48.258161013945937" lon="-4.363923976197839">
        <ele>80.409999999999997</ele>
        <time>2018-07-06T13:12:29Z</time>
      </trkpt>
      <trkpt lat="48.257767986506224" lon="-4.365072967484593">
        <ele>80.890000000000001</ele>
        <time>2018-07-06T13:12:34Z</time>
      </trkpt>
      <trkpt lat="48.257152000442147" lon="-4.366875998675823">
        <ele>82.329999999999998</ele>
        <time>2018-07-06T13:12:41Z</time>
      </trkpt>
      <trkpt lat="48.256329987198114" lon="-4.369406998157501">
        <ele>80.890000000000001</ele>
        <time>2018-07-06T13:12:52Z</time>
      </trkpt>
      <trkpt lat="48.255619034171104" lon="-4.371645972132683">
        <ele>80.890000000000001</ele>
        <time>2018-07-06T13:13:03Z</time>
      </trkpt>
      <trkpt lat="48.255409989506006" lon="-4.372505033388734">
        <ele>82.329999999999998</ele>
        <time>2018-07-06T13:13:10Z</time>
      </trkpt>
      <trkpt lat="48.255254002287984" lon="-4.37368000857532">
        <ele>84.25</ele>
        <time>2018-07-06T13:13:17Z</time>
      </trkpt>
      <trkpt lat="48.254990978166461" lon="-4.375688983127475">
        <ele>87.620000000000005</ele>
        <time>2018-07-06T13:13:27Z</time>
      </trkpt>
      <trkpt lat="48.254909003153443" lon="-4.376907041296363">
        <ele>88.099999999999994</ele>
        <time>2018-07-06T13:13:35Z</time>
      </trkpt>
      <trkpt lat="48.254765002056956" lon="-4.378931019455195">
        <ele>87.620000000000005</ele>
        <time>2018-07-06T13:13:46Z</time>
      </trkpt>
      <trkpt lat="48.254686966538429" lon="-4.379703998565674">
        <ele>88.099999999999994</ele>
        <time>2018-07-06T13:13:50Z</time>
      </trkpt>
      <trkpt lat="48.254474988207221" lon="-4.380991961807013">
        <ele>88.099999999999994</ele>
        <time>2018-07-06T13:13:56Z</time>
      </trkpt>
      <trkpt lat="48.254397958517075" lon="-4.381644995883107">
        <ele>88.099999999999994</ele>
        <time>2018-07-06T13:13:59Z</time>
      </trkpt>
      <trkpt lat="48.254363005980849" lon="-4.382898006588221">
        <ele>90.019999999999996</ele>
        <time>2018-07-06T13:14:05Z</time>
      </trkpt>
      <trkpt lat="48.254164019599557" lon="-4.384347992017865">
        <ele>90.019999999999996</ele>
        <time>2018-07-06T13:14:14Z</time>
      </trkpt>
      <trkpt lat="48.253850033506751" lon="-4.385726982727647">
        <ele>90.5</ele>
        <time>2018-07-06T13:14:22Z</time>
      </trkpt>
      <trkpt lat="48.253426998853683" lon="-4.387074038386345">
        <ele>90.5</ele>
        <time>2018-07-06T13:14:30Z</time>
      </trkpt>
      <trkpt lat="48.253071019425988" lon="-4.388176007196307">
        <ele>89.060000000000002</ele>
        <time>2018-07-06T13:14:40Z</time>
      </trkpt>
      <trkpt lat="48.252711016684771" lon="-4.389706961810589">
        <ele>88.099999999999994</ele>
        <time>2018-07-06T13:14:49Z</time>
      </trkpt>
      <trkpt lat="48.252171976491809" lon="-4.392060013487935">
        <ele>87.140000000000001</ele>
        <time>2018-07-06T13:15:02Z</time>
      </trkpt>
      <trkpt lat="48.251866037026048" lon="-4.393457025289536">
        <ele>87.140000000000001</ele>
        <time>2018-07-06T13:15:08Z</time>
      </trkpt>
      <trkpt lat="48.251641988754272" lon="-4.394481964409351">
        <ele>86.659999999999997</ele>
        <time>2018-07-06T13:15:12Z</time>
      </trkpt>
      <trkpt lat="48.251334959641099" lon="-4.395885011181235">
        <ele>84.25</ele>
        <time>2018-07-06T13:15:20Z</time>
      </trkpt>
      <trkpt lat="48.251018961891532" lon="-4.397325022146106">
        <ele>84.730000000000004</ele>
        <time>2018-07-06T13:15:27Z</time>
      </trkpt>
      <trkpt lat="48.250788962468505" lon="-4.398401007056236">
        <ele>84.730000000000004</ele>
        <time>2018-07-06T13:15:33Z</time>
      </trkpt>
      <trkpt lat="48.250623000785708" lon="-4.399686958640814">
        <ele>85.209999999999994</ele>
        <time>2018-07-06T13:15:41Z</time>
      </trkpt>
      <trkpt lat="48.250443963333964" lon="-4.401075001806021">
        <ele>85.689999999999998</ele>
        <time>2018-07-06T13:15:46Z</time>
      </trkpt>
      <trkpt lat="48.250318989157677" lon="-4.402050990611315">
        <ele>87.140000000000001</ele>
        <time>2018-07-06T13:15:52Z</time>
      </trkpt>
      <trkpt lat="48.250138023868203" lon="-4.403455965220928">
        <ele>87.140000000000001</ele>
        <time>2018-07-06T13:15:58Z</time>
      </trkpt>
      <trkpt lat="48.249994022771716" lon="-4.404571009799838">
        <ele>87.140000000000001</ele>
        <time>2018-07-06T13:16:04Z</time>
      </trkpt>
      <trkpt lat="48.249807022511959" lon="-4.405982019379735">
        <ele>86.659999999999997</ele>
        <time>2018-07-06T13:16:13Z</time>
      </trkpt>
      <trkpt lat="48.249516002833843" lon="-4.408051008358598">
        <ele>87.620000000000005</ele>
        <time>2018-07-06T13:16:26Z</time>
      </trkpt>
      <trkpt lat="48.249481972306967" lon="-4.408304980024695">
        <ele>87.140000000000001</ele>
        <time>2018-07-06T13:16:27Z</time>
      </trkpt>
      <trkpt lat="48.24923001229763" lon="-4.410214964300394">
        <ele>86.659999999999997</ele>
        <time>2018-07-06T13:16:33Z</time>
      </trkpt>
      <trkpt lat="48.249145019799471" lon="-4.412315972149372">
        <ele>87.140000000000001</ele>
        <time>2018-07-06T13:16:41Z</time>
      </trkpt>
      <trkpt lat="48.249104032292962" lon="-4.414645973592997">
        <ele>86.180000000000007</ele>
        <time>2018-07-06T13:16:52Z</time>
      </trkpt>
      <trkpt lat="48.248890964314342" lon="-4.416215987876058">
        <ele>85.689999999999998</ele>
        <time>2018-07-06T13:17:01Z</time>
      </trkpt>
      <trkpt lat="48.24854495935142" lon="-4.417689023539424">
        <ele>83.290000000000006</ele>
        <time>2018-07-06T13:17:10Z</time>
      </trkpt>
      <trkpt lat="48.248505983501673" lon="-4.417827995494008">
        <ele>83.290000000000006</ele>
        <time>2018-07-06T13:17:11Z</time>
      </trkpt>
      <trkpt lat="48.248460972681642" lon="-4.417945006862283">
        <ele>83.290000000000006</ele>
        <time>2018-07-06T13:17:12Z</time>
      </trkpt>
      <trkpt lat="48.2484130281955" lon="-4.41806998103857">
        <ele>83.769999999999996</ele>
        <time>2018-07-06T13:17:14Z</time>
      </trkpt>
      <trkpt lat="48.248472958803177" lon="-4.418286988511682">
        <ele>83.769999999999996</ele>
        <time>2018-07-06T13:17:15Z</time>
      </trkpt>
      <trkpt lat="48.248461978510022" lon="-4.418382961302996">
        <ele>83.769999999999996</ele>
        <time>2018-07-06T13:17:16Z</time>
      </trkpt>
      <trkpt lat="48.248416967689991" lon="-4.418500978499651">
        <ele>83.290000000000006</ele>
        <time>2018-07-06T13:17:17Z</time>
      </trkpt>
      <trkpt lat="48.24839198961854" lon="-4.41854196600616">
        <ele>83.290000000000006</ele>
        <time>2018-07-06T13:17:18Z</time>
      </trkpt>
      <trkpt lat="48.248296016827226" lon="-4.4185830373317">
        <ele>83.290000000000006</ele>
        <time>2018-07-06T13:17:19Z</time>
      </trkpt>
      <trkpt lat="48.248218987137079" lon="-4.418589994311333">
        <ele>83.290000000000006</ele>
        <time>2018-07-06T13:17:20Z</time>
      </trkpt>
      <trkpt lat="48.248160984367132" lon="-4.418545989319682">
        <ele>83.290000000000006</ele>
        <time>2018-07-06T13:17:21Z</time>
      </trkpt>
      <trkpt lat="48.248122008517385" lon="-4.418464014306665">
        <ele>83.290000000000006</ele>
        <time>2018-07-06T13:17:22Z</time>
      </trkpt>
      <trkpt lat="48.24809099547565" lon="-4.418392013758421">
        <ele>83.290000000000006</ele>
        <time>2018-07-06T13:17:23Z</time>
      </trkpt>
      <trkpt lat="48.24809099547565" lon="-4.418273996561766">
        <ele>83.290000000000006</ele>
        <time>2018-07-06T13:17:24Z</time>
      </trkpt>
      <trkpt lat="48.24809099547565" lon="-4.418146004900336">
        <ele>83.290000000000006</ele>
        <time>2018-07-06T13:17:25Z</time>
      </trkpt>
      <trkpt lat="48.248113039880991" lon="-4.418008960783482">
        <ele>83.290000000000006</ele>
        <time>2018-07-06T13:17:26Z</time>
      </trkpt>
      <trkpt lat="48.248211024329066" lon="-4.417136991396546">
        <ele>83.769999999999996</ele>
        <time>2018-07-06T13:17:31Z</time>
      </trkpt>
      <trkpt lat="48.248116979375482" lon="-4.41501502878964">
        <ele>85.689999999999998</ele>
        <time>2018-07-06T13:17:43Z</time>
      </trkpt>
      <trkpt lat="48.247987981885672" lon="-4.4128049723804">
        <ele>84.730000000000004</ele>
        <time>2018-07-06T13:17:56Z</time>
      </trkpt>
      <trkpt lat="48.247848004102707" lon="-4.410530962049961">
        <ele>84.730000000000004</ele>
        <time>2018-07-06T13:18:07Z</time>
      </trkpt>
      <trkpt lat="48.247716994956136" lon="-4.4082270283252">
        <ele>81.370000000000005</ele>
        <time>2018-07-06T13:18:15Z</time>
      </trkpt>
      <trkpt lat="48.247607024386525" lon="-4.404960013926029">
        <ele>71.760000000000005</ele>
        <time>2018-07-06T13:18:24Z</time>
      </trkpt>
      <trkpt lat="48.247699979692698" lon="-4.40221100114286">
        <ele>64.549999999999997</ele>
        <time>2018-07-06T13:18:33Z</time>
      </trkpt>
      <trkpt lat="48.247879017144442" lon="-4.39832498319447">
        <ele>53.969999999999999</ele>
        <time>2018-07-06T13:18:46Z</time>
      </trkpt>
      <trkpt lat="48.247841969132423" lon="-4.398024994879961">
        <ele>53.009999999999998</ele>
        <time>2018-07-06T13:18:47Z</time>
      </trkpt>
      <trkpt lat="48.247417006641626" lon="-4.395418977364898">
        <ele>44.359999999999999</ele>
        <time>2018-07-06T13:18:56Z</time>
      </trkpt>
      <trkpt lat="48.246827004477382" lon="-4.391934033483267">
        <ele>34.259999999999998</ele>
        <time>2018-07-06T13:19:08Z</time>
      </trkpt>
      <trkpt lat="48.246324006468058" lon="-4.389029033482075">
        <ele>25.129999999999999</ele>
        <time>2018-07-06T13:19:18Z</time>
      </trkpt>
      <trkpt lat="48.245738027617335" lon="-4.387138998135924">
        <ele>17.920000000000002</ele>
        <time>2018-07-06T13:19:25Z</time>
      </trkpt>
      <trkpt lat="48.244733959436417" lon="-4.385734023526311">
        <ele>14.56</ele>
        <time>2018-07-06T13:19:32Z</time>
      </trkpt>
      <trkpt lat="48.243367038667202" lon="-4.384604981169105">
        <ele>17.920000000000002</ele>
        <time>2018-07-06T13:19:40Z</time>
      </trkpt>
      <trkpt lat="48.242391971871257" lon="-4.383148960769177">
        <ele>25.609999999999999</ele>
        <time>2018-07-06T13:19:47Z</time>
      </trkpt>
      <trkpt lat="48.24175301939249" lon="-4.380986010655761">
        <ele>34.740000000000002</ele>
        <time>2018-07-06T13:19:55Z</time>
      </trkpt>
      <trkpt lat="48.240669993683696" lon="-4.375194031745195">
        <ele>52.049999999999997</ele>
        <time>2018-07-06T13:20:15Z</time>
      </trkpt>
      <trkpt lat="48.240277972072363" lon="-4.371620994061232">
        <ele>54.450000000000003</ele>
        <time>2018-07-06T13:20:27Z</time>
      </trkpt>
      <trkpt lat="48.239720994606614" lon="-4.368467973545194">
        <ele>54.93</ele>
        <time>2018-07-06T13:20:38Z</time>
      </trkpt>
      <trkpt lat="48.23861500248313" lon="-4.363986002281308">
        <ele>62.140000000000001</ele>
        <time>2018-07-06T13:20:54Z</time>
      </trkpt>
      <trkpt lat="48.236799985170364" lon="-4.358651004731655">
        <ele>65.989999999999995</ele>
        <time>2018-07-06T13:21:14Z</time>
      </trkpt>
      <trkpt lat="48.235443960875273" lon="-4.354671025648713">
        <ele>75.599999999999994</ele>
        <time>2018-07-06T13:21:29Z</time>
      </trkpt>
      <trkpt lat="48.234050972387195" lon="-4.351061023771763">
        <ele>88.099999999999994</ele>
        <time>2018-07-06T13:21:43Z</time>
      </trkpt>
      <trkpt lat="48.232410969212651" lon="-4.34693100862205">
        <ele>94.349999999999994</ele>
        <time>2018-07-06T13:21:59Z</time>
      </trkpt>
      <trkpt lat="48.231716025620699" lon="-4.344193981960416">
        <ele>99.629999999999995</ele>
        <time>2018-07-06T13:22:09Z</time>
      </trkpt>
      <trkpt lat="48.231317969039083" lon="-4.342263964936137">
        <ele>103.48</ele>
        <time>2018-07-06T13:22:18Z</time>
      </trkpt>
      <trkpt lat="48.23060198687017" lon="-4.338969960808754">
        <ele>107.31999999999999</ele>
        <time>2018-07-06T13:22:32Z</time>
      </trkpt>
      <trkpt lat="48.229831019416451" lon="-4.337239013984799">
        <ele>107.31999999999999</ele>
        <time>2018-07-06T13:22:40Z</time>
      </trkpt>
      <trkpt lat="48.229434974491596" lon="-4.335374040529132">
        <ele>103.48</ele>
        <time>2018-07-06T13:22:47Z</time>
      </trkpt>
      <trkpt lat="48.228790992870927" lon="-4.331607967615128">
        <ele>99.629999999999995</ele>
        <time>2018-07-06T13:23:00Z</time>
      </trkpt>
      <trkpt lat="48.228138964623213" lon="-4.327798979356885">
        <ele>101.08</ele>
        <time>2018-07-06T13:23:14Z</time>
      </trkpt>
      <trkpt lat="48.227502023801208" lon="-4.324009018018842">
        <ele>105.40000000000001</ele>
        <time>2018-07-06T13:23:29Z</time>
      </trkpt>
      <trkpt lat="48.227244028821588" lon="-4.322406984865665">
        <ele>109.25</ele>
        <time>2018-07-06T13:23:36Z</time>
      </trkpt>
      <trkpt lat="48.227196000516415" lon="-4.322160976007581">
        <ele>109.73</ele>
        <time>2018-07-06T13:23:37Z</time>
      </trkpt>
      <trkpt lat="48.22673499584198" lon="-4.319409029558301">
        <ele>115.98</ele>
        <time>2018-07-06T13:23:47Z</time>
      </trkpt>
      <trkpt lat="48.225980037823319" lon="-4.315030993893743">
        <ele>123.19</ele>
        <time>2018-07-06T13:24:02Z</time>
      </trkpt>
      <trkpt lat="48.225243017077446" lon="-4.310665028169751">
        <ele>124.63</ele>
        <time>2018-07-06T13:24:17Z</time>
      </trkpt>
      <trkpt lat="48.224620996043086" lon="-4.306901972740889">
        <ele>121.73999999999999</ele>
        <time>2018-07-06T13:24:30Z</time>
      </trkpt>
      <trkpt lat="48.224025964736938" lon="-4.303413005545735">
        <ele>120.78</ele>
        <time>2018-07-06T13:24:42Z</time>
      </trkpt>
      <trkpt lat="48.223262038081884" lon="-4.298759959638119">
        <ele>118.38</ele>
        <time>2018-07-06T13:24:58Z</time>
      </trkpt>
      <trkpt lat="48.222719980403781" lon="-4.29433599114418">
        <ele>110.20999999999999</ele>
        <time>2018-07-06T13:25:13Z</time>
      </trkpt>
      <trkpt lat="48.222279008477926" lon="-4.289927026256919">
        <ele>106.84</ele>
        <time>2018-07-06T13:25:28Z</time>
      </trkpt>
      <trkpt lat="48.222388979047537" lon="-4.285436002537608">
        <ele>104.92</ele>
        <time>2018-07-06T13:25:43Z</time>
      </trkpt>
      <trkpt lat="48.222886025905609" lon="-4.283200968056917">
        <ele>107.81</ele>
        <time>2018-07-06T13:25:51Z</time>
      </trkpt>
      <trkpt lat="48.224139958620071" lon="-4.279814008623362">
        <ele>114.53</ele>
        <time>2018-07-06T13:26:04Z</time>
      </trkpt>
      <trkpt lat="48.224947974085808" lon="-4.277141019701958">
        <ele>126.06999999999999</ele>
        <time>2018-07-06T13:26:14Z</time>
      </trkpt>
      <trkpt lat="48.225183002650738" lon="-4.274153960868716">
        <ele>132.80000000000001</ele>
        <time>2018-07-06T13:26:24Z</time>
      </trkpt>
      <trkpt lat="48.225218961015344" lon="-4.268789039924741">
        <ele>140.97</ele>
        <time>2018-07-06T13:26:42Z</time>
      </trkpt>
      <trkpt lat="48.225243017077446" lon="-4.265245003625751">
        <ele>149.62</ele>
        <time>2018-07-06T13:26:54Z</time>
      </trkpt>
      <trkpt lat="48.225204963237047" lon="-4.261957034468651">
        <ele>159.24000000000001</ele>
        <time>2018-07-06T13:27:05Z</time>
      </trkpt>
      <trkpt lat="48.225007988512516" lon="-4.260181998834014">
        <ele>164.52000000000001</ele>
        <time>2018-07-06T13:27:11Z</time>
      </trkpt>
      <trkpt lat="48.224934982135892" lon="-4.259896008297801">
        <ele>165</ele>
        <time>2018-07-06T13:27:12Z</time>
      </trkpt>
      <trkpt lat="48.224706994369626" lon="-4.259069971740246">
        <ele>167.41</ele>
        <time>2018-07-06T13:27:15Z</time>
      </trkpt>
      <trkpt lat="48.224470037966967" lon="-4.256723038852215">
        <ele>173.16999999999999</ele>
        <time>2018-07-06T13:27:23Z</time>
      </trkpt>
      <trkpt lat="48.22467296384275" lon="-4.254667041823268">
        <ele>176.53999999999999</ele>
        <time>2018-07-06T13:27:30Z</time>
      </trkpt>
      <trkpt lat="48.224700959399343" lon="-4.254363030195236">
        <ele>177.02000000000001</ele>
        <time>2018-07-06T13:27:31Z</time>
      </trkpt>
      <trkpt lat="48.224724009633064" lon="-4.254068993031979">
        <ele>177.02000000000001</ele>
        <time>2018-07-06T13:27:32Z</time>
      </trkpt>
      <trkpt lat="48.224711017683148" lon="-4.253769004717469">
        <ele>177.5</ele>
        <time>2018-07-06T13:27:33Z</time>
      </trkpt>
      <trkpt lat="48.224688973277807" lon="-4.253474967554212">
        <ele>177.5</ele>
        <time>2018-07-06T13:27:34Z</time>
      </trkpt>
      <trkpt lat="48.224639017134905" lon="-4.253187971189618">
        <ele>177.97999999999999</ele>
        <time>2018-07-06T13:27:35Z</time>
      </trkpt>
      <trkpt lat="48.224588977172971" lon="-4.252898963168263">
        <ele>177.97999999999999</ele>
        <time>2018-07-06T13:27:36Z</time>
      </trkpt>
      <trkpt lat="48.224332993850112" lon="-4.251774027943611">
        <ele>179.41999999999999</ele>
        <time>2018-07-06T13:27:40Z</time>
      </trkpt>
      <trkpt lat="48.224244983866811" lon="-4.251509997993708">
        <ele>179.41999999999999</ele>
        <time>2018-07-06T13:27:41Z</time>
      </trkpt>
      <trkpt lat="48.224124033004045" lon="-4.251277986913919">
        <ele>179.90000000000001</ele>
        <time>2018-07-06T13:27:42Z</time>
      </trkpt>
      <trkpt lat="48.22398497723043" lon="-4.25106399692595">
        <ele>180.38</ele>
        <time>2018-07-06T13:27:43Z</time>
      </trkpt>
      <trkpt lat="48.223831001669168" lon="-4.250876996666193">
        <ele>180.38</ele>
        <time>2018-07-06T13:27:44Z</time>
      </trkpt>
      <trkpt lat="48.223665961995721" lon="-4.250708017498255">
        <ele>180.38</ele>
        <time>2018-07-06T13:27:45Z</time>
      </trkpt>
      <trkpt lat="48.221746003255248" lon="-4.249087041243911">
        <ele>180.87</ele>
        <time>2018-07-06T13:27:56Z</time>
      </trkpt>
      <trkpt lat="48.219944983720779" lon="-4.247830007225275">
        <ele>182.78999999999999</ele>
        <time>2018-07-06T13:28:06Z</time>
      </trkpt>
      <trkpt lat="48.219759995117784" lon="-4.247739985585213">
        <ele>183.27000000000001</ele>
        <time>2018-07-06T13:28:07Z</time>
      </trkpt>
      <trkpt lat="48.219574000686407" lon="-4.247698998078704">
        <ele>183.75</ele>
        <time>2018-07-06T13:28:08Z</time>
      </trkpt>
      <trkpt lat="48.219398986548185" lon="-4.247688017785549">
        <ele>184.22999999999999</ele>
        <time>2018-07-06T13:28:09Z</time>
      </trkpt>
      <trkpt lat="48.219227995723486" lon="-4.247720036655664">
        <ele>184.71000000000001</ele>
        <time>2018-07-06T13:28:10Z</time>
      </trkpt>
      <trkpt lat="48.219054993242025" lon="-4.247764963656664">
        <ele>185.19</ele>
        <time>2018-07-06T13:28:11Z</time>
      </trkpt>
      <trkpt lat="48.218882996588945" lon="-4.247829001396895">
        <ele>185.66999999999999</ele>
        <time>2018-07-06T13:28:12Z</time>
      </trkpt>
      <trkpt lat="48.217759989202023" lon="-4.248063024133444">
        <ele>186.15000000000001</ele>
        <time>2018-07-06T13:28:18Z</time>
      </trkpt>
      <trkpt lat="48.217575000599027" lon="-4.24809998832643">
        <ele>186.15000000000001</ele>
        <time>2018-07-06T13:28:19Z</time>
      </trkpt>
      <trkpt lat="48.217385988682508" lon="-4.248195961117744">
        <ele>185.66999999999999</ele>
        <time>2018-07-06T13:28:20Z</time>
      </trkpt>
      <trkpt lat="48.217201000079513" lon="-4.24831498414278">
        <ele>185.66999999999999</ele>
        <time>2018-07-06T13:28:21Z</time>
      </trkpt>
      <trkpt lat="48.217020034790039" lon="-4.248457979410887">
        <ele>185.19</ele>
        <time>2018-07-06T13:28:22Z</time>
      </trkpt>
      <trkpt lat="48.215788984671235" lon="-4.24964401870966">
        <ele>184.71000000000001</ele>
        <time>2018-07-06T13:28:29Z</time>
      </trkpt>
      <trkpt lat="48.21560500189662" lon="-4.249782990664244">
        <ele>184.22999999999999</ele>
        <time>2018-07-06T13:28:30Z</time>
      </trkpt>
      <trkpt lat="48.215235024690628" lon="-4.250082978978753">
        <ele>184.22999999999999</ele>
        <time>2018-07-06T13:28:32Z</time>
      </trkpt>
      <trkpt lat="48.215052969753742" lon="-4.250265033915639">
        <ele>184.22999999999999</ele>
        <time>2018-07-06T13:28:33Z</time>
      </trkpt>
      <trkpt lat="48.214247971773148" lon="-4.251338001340628">
        <ele>184.22999999999999</ele>
        <time>2018-07-06T13:28:38Z</time>
      </trkpt>
      <trkpt lat="48.214135989546776" lon="-4.251594990491867">
        <ele>184.22999999999999</ele>
        <time>2018-07-06T13:28:39Z</time>
      </trkpt>
      <trkpt lat="48.214032975956798" lon="-4.25185801461339">
        <ele>184.71000000000001</ele>
        <time>2018-07-06T13:28:40Z</time>
      </trkpt>
      <trkpt lat="48.213943038135767" lon="-4.252126989886165">
        <ele>184.71000000000001</ele>
        <time>2018-07-06T13:28:41Z</time>
      </trkpt>
      <trkpt lat="48.213870031759143" lon="-4.252410968765616">
        <ele>184.71000000000001</ele>
        <time>2018-07-06T13:28:42Z</time>
      </trkpt>
      <trkpt lat="48.213563002645969" lon="-4.25347002223134">
        <ele>185.66999999999999</ele>
        <time>2018-07-06T13:28:46Z</time>
      </trkpt>
      <trkpt lat="48.213465018197894" lon="-4.253709996119142">
        <ele>186.15000000000001</ele>
        <time>2018-07-06T13:28:47Z</time>
      </trkpt>
      <trkpt lat="48.213323028758168" lon="-4.253906970843673">
        <ele>186.15000000000001</ele>
        <time>2018-07-06T13:28:48Z</time>
      </trkpt>
      <trkpt lat="48.213171986863017" lon="-4.254090031608939">
        <ele>186.15000000000001</ele>
        <time>2018-07-06T13:28:49Z</time>
      </trkpt>
      <trkpt lat="48.212992027401924" lon="-4.254216011613607">
        <ele>186.63</ele>
        <time>2018-07-06T13:28:50Z</time>
      </trkpt>
      <trkpt lat="48.212801003828645" lon="-4.254293041303754">
        <ele>186.63</ele>
        <time>2018-07-06T13:28:51Z</time>
      </trkpt>
      <trkpt lat="48.212601011618972" lon="-4.254370993003249">
        <ele>187.11000000000001</ele>
        <time>2018-07-06T13:28:52Z</time>
      </trkpt>
      <trkpt lat="48.212386015802622" lon="-4.254455985501409">
        <ele>187.59</ele>
        <time>2018-07-06T13:28:53Z</time>
      </trkpt>
      <trkpt lat="48.211771035566926" lon="-4.254554975777865">
        <ele>189.52000000000001</ele>
        <time>2018-07-06T13:28:56Z</time>
      </trkpt>
      <trkpt lat="48.211572971194983" lon="-4.254652038216591">
        <ele>190</ele>
        <time>2018-07-06T13:28:57Z</time>
      </trkpt>
      <trkpt lat="48.211380019783974" lon="-4.254767037928104">
        <ele>190.96000000000001</ele>
        <time>2018-07-06T13:28:58Z</time>
      </trkpt>
      <trkpt lat="48.210991015657783" lon="-4.255000976845622">
        <ele>192.88</ele>
        <time>2018-07-06T13:29:00Z</time>
      </trkpt>
      <trkpt lat="48.21079102344811" lon="-4.255088986828923">
        <ele>193.84</ele>
        <time>2018-07-06T13:29:01Z</time>
      </trkpt>
      <trkpt lat="48.21057703346014" lon="-4.2551230173558">
        <ele>194.31999999999999</ele>
        <time>2018-07-06T13:29:02Z</time>
      </trkpt>
      <trkpt lat="48.209122018888593" lon="-4.255620986223221">
        <ele>199.13</ele>
        <time>2018-07-06T13:29:09Z</time>
      </trkpt>
      <trkpt lat="48.208955973386765" lon="-4.255803041160107">
        <ele>199.61000000000001</ele>
        <time>2018-07-06T13:29:10Z</time>
      </trkpt>
      <trkpt lat="48.208784982562065" lon="-4.255991969257593">
        <ele>200.56999999999999</ele>
        <time>2018-07-06T13:29:11Z</time>
      </trkpt>
      <trkpt lat="48.208432020619512" lon="-4.256346020847559">
        <ele>201.05000000000001</ele>
        <time>2018-07-06T13:29:13Z</time>
      </trkpt>
      <trkpt lat="48.208239991217852" lon="-4.256487004458904">
        <ele>201.05000000000001</ele>
        <time>2018-07-06T13:29:14Z</time>
      </trkpt>
      <trkpt lat="48.208032958209515" lon="-4.256566967815161">
        <ele>201.05000000000001</ele>
        <time>2018-07-06T13:29:15Z</time>
      </trkpt>
      <trkpt lat="48.207819974049926" lon="-4.256633017212153">
        <ele>201.53</ele>
        <time>2018-07-06T13:29:16Z</time>
      </trkpt>
      <trkpt lat="48.207603972405195" lon="-4.256690014153719">
        <ele>201.53</ele>
        <time>2018-07-06T13:29:17Z</time>
      </trkpt>
      <trkpt lat="48.205837989225984" lon="-4.256653971970081">
        <ele>203.46000000000001</ele>
        <time>2018-07-06T13:29:25Z</time>
      </trkpt>
      <trkpt lat="48.205626010894775" lon="-4.256577026098967">
        <ele>203.46000000000001</ele>
        <time>2018-07-06T13:29:26Z</time>
      </trkpt>
      <trkpt lat="48.205419983714819" lon="-4.256467977538705">
        <ele>203.46000000000001</ele>
        <time>2018-07-06T13:29:27Z</time>
      </trkpt>
      <trkpt lat="48.20522602647543" lon="-4.256332023069263">
        <ele>203.94</ele>
        <time>2018-07-06T13:29:28Z</time>
      </trkpt>
      <trkpt lat="48.205041037872434" lon="-4.256183998659253">
        <ele>203.94</ele>
        <time>2018-07-06T13:29:29Z</time>
      </trkpt>
      <trkpt lat="48.204878009855747" lon="-4.25600697286427">
        <ele>203.94</ele>
        <time>2018-07-06T13:29:30Z</time>
      </trkpt>
      <trkpt lat="48.204717999324203" lon="-4.255829025059938">
        <ele>203.94</ele>
        <time>2018-07-06T13:29:31Z</time>
      </trkpt>
      <trkpt lat="48.204183988273144" lon="-4.255006005987525">
        <ele>203.94</ele>
        <time>2018-07-06T13:29:35Z</time>
      </trkpt>
      <trkpt lat="48.203693982213736" lon="-4.253778979182243">
        <ele>204.90000000000001</ele>
        <time>2018-07-06T13:29:40Z</time>
      </trkpt>
      <trkpt lat="48.203642014414072" lon="-4.253500029444695">
        <ele>204.90000000000001</ele>
        <time>2018-07-06T13:29:41Z</time>
      </trkpt>
      <trkpt lat="48.20361603051424" lon="-4.253204986453056">
        <ele>204.90000000000001</ele>
        <time>2018-07-06T13:29:42Z</time>
      </trkpt>
      <trkpt lat="48.203589962795377" lon="-4.252911033108831">
        <ele>205.38</ele>
        <time>2018-07-06T13:29:43Z</time>
      </trkpt>
      <trkpt lat="48.203606978058815" lon="-4.252616995945573">
        <ele>205.86000000000001</ele>
        <time>2018-07-06T13:29:44Z</time>
      </trkpt>
      <trkpt lat="48.203628016635776" lon="-4.252316001802683">
        <ele>206.34</ele>
        <time>2018-07-06T13:29:45Z</time>
      </trkpt>
      <trkpt lat="48.203648971393704" lon="-4.252012996003032">
        <ele>207.30000000000001</ele>
        <time>2018-07-06T13:29:46Z</time>
      </trkpt>
      <trkpt lat="48.204143000766635" lon="-4.250056995078921">
        <ele>209.69999999999999</ele>
        <time>2018-07-06T13:29:53Z</time>
      </trkpt>
      <trkpt lat="48.205142961815" lon="-4.248131001368165">
        <ele>212.59</ele>
        <time>2018-07-06T13:30:01Z</time>
      </trkpt>
      <trkpt lat="48.206194974482059" lon="-4.245873000472784">
        <ele>209.69999999999999</ele>
        <time>2018-07-06T13:30:10Z</time>
      </trkpt>
      <trkpt lat="48.206404019147158" lon="-4.244988961145282">
        <ele>208.74000000000001</ele>
        <time>2018-07-06T13:30:13Z</time>
      </trkpt>
      <trkpt lat="48.206432014703751" lon="-4.244695007801056">
        <ele>208.25999999999999</ele>
        <time>2018-07-06T13:30:14Z</time>
      </trkpt>
      <trkpt lat="48.206420028582215" lon="-4.244413040578365">
        <ele>208.25999999999999</ele>
        <time>2018-07-06T13:30:15Z</time>
      </trkpt>
      <trkpt lat="48.206382980570197" lon="-4.244125038385391">
        <ele>207.78</ele>
        <time>2018-07-06T13:30:16Z</time>
      </trkpt>
      <trkpt lat="48.206327995285392" lon="-4.24384399317205">
        <ele>207.30000000000001</ele>
        <time>2018-07-06T13:30:17Z</time>
      </trkpt>
      <trkpt lat="48.206227999180555" lon="-4.243574012070894">
        <ele>206.34</ele>
        <time>2018-07-06T13:30:18Z</time>
      </trkpt>
      <trkpt lat="48.206123979762197" lon="-4.243293972685933">
        <ele>205.86000000000001</ele>
        <time>2018-07-06T13:30:19Z</time>
      </trkpt>
      <trkpt lat="48.20518696680665" lon="-4.240765990689397">
        <ele>200.56999999999999</ele>
        <time>2018-07-06T13:30:28Z</time>
      </trkpt>
      <trkpt lat="48.204093966633081" lon="-4.237864008173347">
        <ele>195.28</ele>
        <time>2018-07-06T13:30:40Z</time>
      </trkpt>
      <trkpt lat="48.203191990032792" lon="-4.235699968412519">
        <ele>190.96000000000001</ele>
        <time>2018-07-06T13:30:52Z</time>
      </trkpt>
      <trkpt lat="48.202619003131986" lon="-4.234938975423574">
        <ele>191.91999999999999</ele>
        <time>2018-07-06T13:30:59Z</time>
      </trkpt>
      <trkpt lat="48.201849963515997" lon="-4.233491001650691">
        <ele>192.88</ele>
        <time>2018-07-06T13:31:10Z</time>
      </trkpt>
      <trkpt lat="48.201808976009488" lon="-4.233426963910461">
        <ele>192.88</ele>
        <time>2018-07-06T13:31:11Z</time>
      </trkpt>
      <trkpt lat="48.201674027368426" lon="-4.233342977240682">
        <ele>192.88</ele>
        <time>2018-07-06T13:31:12Z</time>
      </trkpt>
      <trkpt lat="48.201487027108669" lon="-4.233342977240682">
        <ele>193.36000000000001</ele>
        <time>2018-07-06T13:31:14Z</time>
      </trkpt>
      <trkpt lat="48.201356017962098" lon="-4.233254967257381">
        <ele>193.36000000000001</ele>
        <time>2018-07-06T13:31:15Z</time>
      </trkpt>
      <trkpt lat="48.201263984665275" lon="-4.233158994466066">
        <ele>193.36000000000001</ele>
        <time>2018-07-06T13:31:16Z</time>
      </trkpt>
      <trkpt lat="48.201140016317368" lon="-4.233031002804637">
        <ele>193.36000000000001</ele>
        <time>2018-07-06T13:31:17Z</time>
      </trkpt>
      <trkpt lat="48.201005989685655" lon="-4.232891025021672">
        <ele>192.88</ele>
        <time>2018-07-06T13:31:18Z</time>
      </trkpt>
      <trkpt lat="48.199783992022276" lon="-4.231852004304528">
        <ele>188.08000000000001</ele>
        <time>2018-07-06T13:31:26Z</time>
      </trkpt>
      <trkpt lat="48.198858965188265" lon="-4.231100985780358">
        <ele>181.83000000000001</ele>
        <time>2018-07-06T13:31:33Z</time>
      </trkpt>
      <trkpt lat="48.198767015710473" lon="-4.230948016047478">
        <ele>180.87</ele>
        <time>2018-07-06T13:31:34Z</time>
      </trkpt>
      <trkpt lat="48.198697026818991" lon="-4.230755986645818">
        <ele>179.41999999999999</ele>
        <time>2018-07-06T13:31:35Z</time>
      </trkpt>
      <trkpt lat="48.19818003103137" lon="-4.2293840367347">
        <ele>172.69</ele>
        <time>2018-07-06T13:31:42Z</time>
      </trkpt>
      <trkpt lat="48.198106018826365" lon="-4.229228971526027">
        <ele>171.72999999999999</ele>
        <time>2018-07-06T13:31:43Z</time>
      </trkpt>
      <trkpt lat="48.198025971651077" lon="-4.229077007621527">
        <ele>170.77000000000001</ele>
        <time>2018-07-06T13:31:44Z</time>
      </trkpt>
      <trkpt lat="48.197927987203002" lon="-4.228939041495323">
        <ele>169.81</ele>
        <time>2018-07-06T13:31:45Z</time>
      </trkpt>
      <trkpt lat="48.197825979441404" lon="-4.228794034570456">
        <ele>168.84999999999999</ele>
        <time>2018-07-06T13:31:46Z</time>
      </trkpt>
      <trkpt lat="48.196618985384703" lon="-4.22728001140058">
        <ele>160.19999999999999</ele>
        <time>2018-07-06T13:31:56Z</time>
      </trkpt>
      <trkpt lat="48.195171011611819" lon="-4.225536994636059">
        <ele>150.09999999999999</ele>
        <time>2018-07-06T13:32:06Z</time>
      </trkpt>
      <trkpt lat="48.194563994184136" lon="-4.224734008312225">
        <ele>145.30000000000001</ele>
        <time>2018-07-06T13:32:11Z</time>
      </trkpt>
      <trkpt lat="48.194468021392822" lon="-4.224541978910565">
        <ele>144.34</ele>
        <time>2018-07-06T13:32:12Z</time>
      </trkpt>
      <trkpt lat="48.193925963714719" lon="-4.222915973514319">
        <ele>137.61000000000001</ele>
        <time>2018-07-06T13:32:19Z</time>
      </trkpt>
      <trkpt lat="48.193751033395529" lon="-4.222407024353743">
        <ele>134.24000000000001</ele>
        <time>2018-07-06T13:32:22Z</time>
      </trkpt>
      <trkpt lat="48.193675009533763" lon="-4.222301999107003">
        <ele>133.75999999999999</ele>
        <time>2018-07-06T13:32:23Z</time>
      </trkpt>
      <trkpt lat="48.193589011207223" lon="-4.222182976081967">
        <ele>132.80000000000001</ele>
        <time>2018-07-06T13:32:24Z</time>
      </trkpt>
      <trkpt lat="48.193545006215572" lon="-4.222153974696994">
        <ele>132.31999999999999</ele>
        <time>2018-07-06T13:32:25Z</time>
      </trkpt>
      <trkpt lat="48.193488009274006" lon="-4.222116004675627">
        <ele>131.84</ele>
        <time>2018-07-06T13:32:26Z</time>
      </trkpt>
      <trkpt lat="48.193444004282355" lon="-4.222085997462273">
        <ele>131.36000000000001</ele>
        <time>2018-07-06T13:32:27Z</time>
      </trkpt>
      <trkpt lat="48.193386001512408" lon="-4.222048027440906">
        <ele>130.88</ele>
        <time>2018-07-06T13:32:29Z</time>
      </trkpt>
      <trkpt lat="48.193370997905731" lon="-4.2220379691571">
        <ele>129.91999999999999</ele>
        <time>2018-07-06T13:32:35Z</time>
      </trkpt>
      <trkpt lat="48.193331016227603" lon="-4.222011985257268">
        <ele>128.94999999999999</ele>
        <time>2018-07-06T13:32:36Z</time>
      </trkpt>
      <trkpt lat="48.193343002349138" lon="-4.221980972215533">
        <ele>128.94999999999999</ele>
        <time>2018-07-06T13:32:37Z</time>
      </trkpt>
      <trkpt lat="48.193382984027267" lon="-4.221875024959445">
        <ele>128.47</ele>
        <time>2018-07-06T13:32:38Z</time>
      </trkpt>
      <trkpt lat="48.193423971533775" lon="-4.221744015812874">
        <ele>128.47</ele>
        <time>2018-07-06T13:32:39Z</time>
      </trkpt>
      <trkpt lat="48.193767964839935" lon="-4.22062000259757">
        <ele>129.91999999999999</ele>
        <time>2018-07-06T13:32:45Z</time>
      </trkpt>
      <trkpt lat="48.194561982527375" lon="-4.218527963384986">
        <ele>140.97</ele>
        <time>2018-07-06T13:32:54Z</time>
      </trkpt>
      <trkpt lat="48.19566797465086" lon="-4.217360028997064">
        <ele>148.18000000000001</ele>
        <time>2018-07-06T13:33:02Z</time>
      </trkpt>
      <trkpt lat="48.196944035589695" lon="-4.215961005538702">
        <ele>155.38999999999999</ele>
        <time>2018-07-06T13:33:11Z</time>
      </trkpt>
      <trkpt lat="48.197701005265117" lon="-4.21417398378253">
        <ele>162.59999999999999</ele>
        <time>2018-07-06T13:33:20Z</time>
      </trkpt>
      <trkpt lat="48.198181036859751" lon="-4.213128006085753">
        <ele>168.84999999999999</ele>
        <time>2018-07-06T13:33:28Z</time>
      </trkpt>
      <trkpt lat="48.19833098910749" lon="-4.212999008595944">
        <ele>170.77000000000001</ele>
        <time>2018-07-06T13:33:34Z</time>
      </trkpt>
      <trkpt lat="48.198339035734534" lon="-4.212803039699793">
        <ele>170.77000000000001</ele>
        <time>2018-07-06T13:33:35Z</time>
      </trkpt>
      <trkpt lat="48.198341969400644" lon="-4.212708994746208">
        <ele>171.25</ele>
        <time>2018-07-06T13:33:36Z</time>
      </trkpt>
      <trkpt lat="48.198346998542547" lon="-4.212589971721172">
        <ele>171.25</ele>
        <time>2018-07-06T13:33:37Z</time>
      </trkpt>
      <trkpt lat="48.198389997705817" lon="-4.211475010961294">
        <ele>170.77000000000001</ele>
        <time>2018-07-06T13:33:43Z</time>
      </trkpt>
      <trkpt lat="48.19815899245441" lon="-4.209542982280254">
        <ele>171.25</ele>
        <time>2018-07-06T13:33:51Z</time>
      </trkpt>
      <trkpt lat="48.19811599329114" lon="-4.209285993129015">
        <ele>170.77000000000001</ele>
        <time>2018-07-06T13:33:52Z</time>
      </trkpt>
      <trkpt lat="48.198071988299489" lon="-4.209027998149395">
        <ele>170.77000000000001</ele>
        <time>2018-07-06T13:33:53Z</time>
      </trkpt>
      <trkpt lat="48.197501013055444" lon="-4.205716978758574">
        <ele>172.69</ele>
        <time>2018-07-06T13:34:06Z</time>
      </trkpt>
      <trkpt lat="48.197060963138938" lon="-4.203167958185077">
        <ele>176.53999999999999</ele>
        <time>2018-07-06T13:34:15Z</time>
      </trkpt>
      <trkpt lat="48.196521000936627" lon="-4.19979901984334">
        <ele>177.02000000000001</ele>
        <time>2018-07-06T13:34:27Z</time>
      </trkpt>
      <trkpt lat="48.195935022085905" lon="-4.196241991594434">
        <ele>178.46000000000001</ele>
        <time>2018-07-06T13:34:40Z</time>
      </trkpt>
      <trkpt lat="48.195375027135015" lon="-4.193835966289043">
        <ele>179.90000000000001</ele>
        <time>2018-07-06T13:34:49Z</time>
      </trkpt>
      <trkpt lat="48.19465602748096" lon="-4.191233972087503">
        <ele>179.41999999999999</ele>
        <time>2018-07-06T13:34:59Z</time>
      </trkpt>
      <trkpt lat="48.194197034463286" lon="-4.187866961583495">
        <ele>181.34999999999999</ele>
        <time>2018-07-06T13:35:11Z</time>
      </trkpt>
      <trkpt lat="48.193557998165488" lon="-4.183140993118286">
        <ele>176.06</ele>
        <time>2018-07-06T13:35:28Z</time>
      </trkpt>
      <trkpt lat="48.193062962964177" lon="-4.179537026211619">
        <ele>175.09999999999999</ele>
        <time>2018-07-06T13:35:41Z</time>
      </trkpt>
      <trkpt lat="48.192452006042004" lon="-4.175642961636186">
        <ele>171.72999999999999</ele>
        <time>2018-07-06T13:35:55Z</time>
      </trkpt>
      <trkpt lat="48.191595962271094" lon="-4.172820020467043">
        <ele>168.84999999999999</ele>
        <time>2018-07-06T13:36:06Z</time>
      </trkpt>
      <trkpt lat="48.190924990922213" lon="-4.168679025024176">
        <ele>168.84999999999999</ele>
        <time>2018-07-06T13:36:21Z</time>
      </trkpt>
      <trkpt lat="48.190300036221743" lon="-4.165980974212289">
        <ele>163.56</ele>
        <time>2018-07-06T13:36:31Z</time>
      </trkpt>
      <trkpt lat="48.189961994066834" lon="-4.163956996053457">
        <ele>158.75</ele>
        <time>2018-07-06T13:36:39Z</time>
      </trkpt>
      <trkpt lat="48.189954031258821" lon="-4.162894003093243">
        <ele>154.91</ele>
        <time>2018-07-06T13:36:43Z</time>
      </trkpt>
      <trkpt lat="48.190183024853468" lon="-4.160655029118061">
        <ele>143.37</ele>
        <time>2018-07-06T13:36:52Z</time>
      </trkpt>
      <trkpt lat="48.190045980736613" lon="-4.158201981335878">
        <ele>134.24000000000001</ele>
        <time>2018-07-06T13:37:01Z</time>
      </trkpt>
      <trkpt lat="48.190002981573343" lon="-4.157690014690161">
        <ele>133.75999999999999</ele>
        <time>2018-07-06T13:37:03Z</time>
      </trkpt>
      <trkpt lat="48.189998958259821" lon="-4.15743101388216">
        <ele>133.75999999999999</ele>
        <time>2018-07-06T13:37:04Z</time>
      </trkpt>
      <trkpt lat="48.190108006820083" lon="-4.155572997406125">
        <ele>134.72</ele>
        <time>2018-07-06T13:37:12Z</time>
      </trkpt>
      <trkpt lat="48.190251002088189" lon="-4.154918035492301">
        <ele>133.75999999999999</ele>
        <time>2018-07-06T13:37:15Z</time>
      </trkpt>
      <trkpt lat="48.191043008118868" lon="-4.152717031538487">
        <ele>124.63</ele>
        <time>2018-07-06T13:37:25Z</time>
      </trkpt>
      <trkpt lat="48.191095981746912" lon="-4.152462976053357">
        <ele>123.67</ele>
        <time>2018-07-06T13:37:26Z</time>
      </trkpt>
      <trkpt lat="48.191115008667111" lon="-4.152200035750866">
        <ele>122.22</ele>
        <time>2018-07-06T13:37:27Z</time>
      </trkpt>
      <trkpt lat="48.19119798950851" lon="-4.149828040972352">
        <ele>115.01000000000001</ele>
        <time>2018-07-06T13:37:37Z</time>
      </trkpt>
      <trkpt lat="48.19109003059566" lon="-4.148064991459251">
        <ele>114.05</ele>
        <time>2018-07-06T13:37:46Z</time>
      </trkpt>
      <trkpt lat="48.191066980361938" lon="-4.146176967769861">
        <ele>114.53</ele>
        <time>2018-07-06T13:37:55Z</time>
      </trkpt>
      <trkpt lat="48.191130012273788" lon="-4.145135013386607">
        <ele>116.45999999999999</ele>
        <time>2018-07-06T13:38:00Z</time>
      </trkpt>
      <trkpt lat="48.191162031143904" lon="-4.144929992035031">
        <ele>116.94</ele>
        <time>2018-07-06T13:38:01Z</time>
      </trkpt>
      <trkpt lat="48.191726971417665" lon="-4.142916994169354">
        <ele>117.42</ele>
        <time>2018-07-06T13:38:10Z</time>
      </trkpt>
      <trkpt lat="48.192368019372225" lon="-4.141011033207178">
        <ele>116.94</ele>
        <time>2018-07-06T13:38:18Z</time>
      </trkpt>
      <trkpt lat="48.192878980189562" lon="-4.137775031849742">
        <ele>120.3</ele>
        <time>2018-07-06T13:38:31Z</time>
      </trkpt>
      <trkpt lat="48.193003032356501" lon="-4.135434972122312">
        <ele>127.03</ele>
        <time>2018-07-06T13:38:42Z</time>
      </trkpt>
      <trkpt lat="48.192927008494735" lon="-4.133571004495025">
        <ele>132.31999999999999</ele>
        <time>2018-07-06T13:38:50Z</time>
      </trkpt>
      <trkpt lat="48.192588966339827" lon="-4.13121703080833">
        <ele>127.98999999999999</ele>
        <time>2018-07-06T13:38:58Z</time>
      </trkpt>
      <trkpt lat="48.192106001079082" lon="-4.127857983112335">
        <ele>118.38</ele>
        <time>2018-07-06T13:39:09Z</time>
      </trkpt>
      <trkpt lat="48.191561009734869" lon="-4.123425967991352">
        <ele>107.31999999999999</ele>
        <time>2018-07-06T13:39:24Z</time>
      </trkpt>
      <trkpt lat="48.191093970090151" lon="-4.121149023994803">
        <ele>99.629999999999995</ele>
        <time>2018-07-06T13:39:33Z</time>
      </trkpt>
      <trkpt lat="48.190981987863779" lon="-4.120431030169129">
        <ele>97.230000000000004</ele>
        <time>2018-07-06T13:39:36Z</time>
      </trkpt>
      <trkpt lat="48.190974025055766" lon="-4.120169011875987">
        <ele>96.269999999999996</ele>
        <time>2018-07-06T13:39:37Z</time>
      </trkpt>
      <trkpt lat="48.190991040319204" lon="-4.119903976097703">
        <ele>95.310000000000002</ele>
        <time>2018-07-06T13:39:38Z</time>
      </trkpt>
      <trkpt lat="48.191129006445408" lon="-4.118621964007616">
        <ele>89.540000000000006</ele>
        <time>2018-07-06T13:39:43Z</time>
      </trkpt>
      <trkpt lat="48.191183991730213" lon="-4.118396993726492">
        <ele>88.099999999999994</ele>
        <time>2018-07-06T13:39:44Z</time>
      </trkpt>
      <trkpt lat="48.191267978399992" lon="-4.118186021223664">
        <ele>87.140000000000001</ele>
        <time>2018-07-06T13:39:45Z</time>
      </trkpt>
      <trkpt lat="48.191353976726532" lon="-4.117972031235695">
        <ele>85.689999999999998</ele>
        <time>2018-07-06T13:39:46Z</time>
      </trkpt>
      <trkpt lat="48.191437963396311" lon="-4.117760974913836">
        <ele>84.730000000000004</ele>
        <time>2018-07-06T13:39:47Z</time>
      </trkpt>
      <trkpt lat="48.191515998914838" lon="-4.117541033774614">
        <ele>83.290000000000006</ele>
        <time>2018-07-06T13:39:48Z</time>
      </trkpt>
      <trkpt lat="48.19158598780632" lon="-4.117313968017697">
        <ele>81.849999999999994</ele>
        <time>2018-07-06T13:39:49Z</time>
      </trkpt>
      <trkpt lat="48.191646002233028" lon="-4.117086986079812">
        <ele>80.409999999999997</ele>
        <time>2018-07-06T13:39:50Z</time>
      </trkpt>
      <trkpt lat="48.191940961405635" lon="-4.115237016230822">
        <ele>70.310000000000002</ele>
        <time>2018-07-06T13:39:59Z</time>
      </trkpt>
      <trkpt lat="48.192075993865728" lon="-4.112974992021918">
        <ele>62.619999999999997</ele>
        <time>2018-07-06T13:40:09Z</time>
      </trkpt>
      <trkpt lat="48.192236004397273" lon="-4.111430961638689">
        <ele>57.82</ele>
        <time>2018-07-06T13:40:16Z</time>
      </trkpt>
      <trkpt lat="48.192259976640344" lon="-4.111205991357565">
        <ele>56.859999999999999</ele>
        <time>2018-07-06T13:40:17Z</time>
      </trkpt>
      <trkpt lat="48.192515959963202" lon="-4.109531035646796">
        <ele>49.159999999999997</ele>
        <time>2018-07-06T13:40:26Z</time>
      </trkpt>
      <trkpt lat="48.192668007686734" lon="-4.108950002118945">
        <ele>46.759999999999998</ele>
        <time>2018-07-06T13:40:30Z</time>
      </trkpt>
      <trkpt lat="48.19323998875916" lon="-4.107664972543716">
        <ele>42.439999999999998</ele>
        <time>2018-07-06T13:40:40Z</time>
      </trkpt>
      <trkpt lat="48.193726977333426" lon="-4.106762995943427">
        <ele>39.549999999999997</ele>
        <time>2018-07-06T13:40:49Z</time>
      </trkpt>
      <trkpt lat="48.193764025345445" lon="-4.106658976525068">
        <ele>39.549999999999997</ele>
        <time>2018-07-06T13:40:50Z</time>
      </trkpt>
    </trkseg>
  </trk>

  <trk>
    <name>Track vom: 2018-07-06 15:40</name>
    <extensions>
      <gpxx:TrackExtension>
        <gpxx:DisplayColor>DarkGray</gpxx:DisplayColor>
      </gpxx:TrackExtension>
    </extensions>
    <trkseg>
      <trkpt lat="48.193828985095024" lon="-4.106449009850621">
        <ele>40.030000000000001</ele>
        <time>2018-07-06T13:40:52Z</time>
      </trkpt>
      <trkpt lat="48.19401397369802" lon="-4.105852972716093">
        <ele>37.149999999999999</ele>
        <time>2018-07-06T13:41:01Z</time>
      </trkpt>
      <trkpt lat="48.194116987287998" lon="-4.105524988844991">
        <ele>34.740000000000002</ele>
        <time>2018-07-06T13:41:07Z</time>
      </trkpt>
      <trkpt lat="48.194417981430888" lon="-4.104529973119497">
        <ele>30.420000000000002</ele>
        <time>2018-07-06T13:41:17Z</time>
      </trkpt>
      <trkpt lat="48.194480007514358" lon="-4.104314977303147">
        <ele>29.940000000000001</ele>
        <time>2018-07-06T13:41:19Z</time>
      </trkpt>
      <trkpt lat="48.194513032212853" lon="-4.104201989248395">
        <ele>29.940000000000001</ele>
        <time>2018-07-06T13:41:20Z</time>
      </trkpt>
      <trkpt lat="48.194715036079288" lon="-4.103506039828062">
        <ele>26.57</ele>
        <time>2018-07-06T13:41:26Z</time>
      </trkpt>
      <trkpt lat="48.194935983046889" lon="-4.102809000760317">
        <ele>26.57</ele>
        <time>2018-07-06T13:41:32Z</time>
      </trkpt>
      <trkpt lat="48.194969007745385" lon="-4.102686960250139">
        <ele>26.09</ele>
        <time>2018-07-06T13:41:33Z</time>
      </trkpt>
      <trkpt lat="48.195004966109991" lon="-4.10255704075098">
        <ele>25.609999999999999</ele>
        <time>2018-07-06T13:41:34Z</time>
      </trkpt>
      <trkpt lat="48.195042014122009" lon="-4.102034009993076">
        <ele>24.649999999999999</ele>
        <time>2018-07-06T13:41:38Z</time>
      </trkpt>
      <trkpt lat="48.195049976930022" lon="-4.101908029988408">
        <ele>24.170000000000002</ele>
        <time>2018-07-06T13:41:39Z</time>
      </trkpt>
      <trkpt lat="48.195056011900306" lon="-4.101772997528315">
        <ele>23.690000000000001</ele>
        <time>2018-07-06T13:41:40Z</time>
      </trkpt>
      <trkpt lat="48.195061963051558" lon="-4.101649029180408">
        <ele>23.690000000000001</ele>
        <time>2018-07-06T13:41:41Z</time>
      </trkpt>
      <trkpt lat="48.19506699219346" lon="-4.101530006155372">
        <ele>23.690000000000001</ele>
        <time>2018-07-06T13:41:42Z</time>
      </trkpt>
      <trkpt lat="48.195092976093292" lon="-4.101418023929">
        <ele>23.690000000000001</ele>
        <time>2018-07-06T13:41:43Z</time>
      </trkpt>
      <trkpt lat="48.195133963599801" lon="-4.101306963711977">
        <ele>23.210000000000001</ele>
        <time>2018-07-06T13:41:44Z</time>
      </trkpt>
      <trkpt lat="48.19519498385489" lon="-4.101209985092282">
        <ele>22.73</ele>
        <time>2018-07-06T13:41:45Z</time>
      </trkpt>
      <trkpt lat="48.195274025201797" lon="-4.101135972887278">
        <ele>22.25</ele>
        <time>2018-07-06T13:41:46Z</time>
      </trkpt>
      <trkpt lat="48.195351976901293" lon="-4.101061038672924">
        <ele>21.289999999999999</ele>
        <time>2018-07-06T13:41:47Z</time>
      </trkpt>
      <trkpt lat="48.195436969399452" lon="-4.100980991497636">
        <ele>20.809999999999999</ele>
        <time>2018-07-06T13:41:48Z</time>
      </trkpt>
      <trkpt lat="48.195854974910617" lon="-4.100584024563432">
        <ele>18.399999999999999</ele>
        <time>2018-07-06T13:41:53Z</time>
      </trkpt>
      <trkpt lat="48.196414969861507" lon="-4.099897965788841">
        <ele>17.440000000000001</ele>
        <time>2018-07-06T13:42:00Z</time>
      </trkpt>
      <trkpt lat="48.196494011208415" lon="-4.099792018532753">
        <ele>16.960000000000001</ele>
        <time>2018-07-06T13:42:01Z</time>
      </trkpt>
      <trkpt lat="48.197332033887506" lon="-4.09851604141295">
        <ele>12.630000000000001</ele>
        <time>2018-07-06T13:42:13Z</time>
      </trkpt>
      <trkpt lat="48.197721038013697" lon="-4.097341988235712">
        <ele>9.27</ele>
        <time>2018-07-06T13:42:22Z</time>
      </trkpt>
      <trkpt lat="48.19807399995625" lon="-4.09609098918736">
        <ele>7.35</ele>
        <time>2018-07-06T13:42:31Z</time>
      </trkpt>
      <trkpt lat="48.198328977450728" lon="-4.094984997063875">
        <ele>6.39</ele>
        <time>2018-07-06T13:42:38Z</time>
      </trkpt>
      <trkpt lat="48.198378011584282" lon="-4.093894008547068">
        <ele>3.98</ele>
        <time>2018-07-06T13:42:45Z</time>
      </trkpt>
      <trkpt lat="48.198367031291127" lon="-4.093750007450581">
        <ele>3.5</ele>
        <time>2018-07-06T13:42:46Z</time>
      </trkpt>
      <trkpt lat="48.19824599660933" lon="-4.092735964804888">
        <ele>0.14</ele>
        <time>2018-07-06T13:42:55Z</time>
      </trkpt>
      <trkpt lat="48.198114987462759" lon="-4.092290969565511">
        <ele>-0.82</ele>
        <time>2018-07-06T13:42:59Z</time>
      </trkpt>
      <trkpt lat="48.198009040206671" lon="-4.092126013711095">
        <ele>-1.3</ele>
        <time>2018-07-06T13:43:01Z</time>
      </trkpt>
      <trkpt lat="48.19796402938664" lon="-4.092077985405922">
        <ele>-1.3</ele>
        <time>2018-07-06T13:43:02Z</time>
      </trkpt>
      <trkpt lat="48.197892028838396" lon="-4.091999027878046">
        <ele>-1.79</ele>
        <time>2018-07-06T13:43:05Z</time>
      </trkpt>
      <trkpt lat="48.197892028838396" lon="-4.091999027878046">
        <ele>-2.27</ele>
        <time>2018-07-06T13:43:13Z</time>
      </trkpt>
      <trkpt lat="48.197892028838396" lon="-4.091999027878046">
        <ele>-1.79</ele>
        <time>2018-07-06T13:43:32Z</time>
      </trkpt>
      <trkpt lat="48.197892028838396" lon="-4.091999027878046">
        <ele>-1.79</ele>
        <time>2018-07-06T13:44:02Z</time>
      </trkpt>
      <trkpt lat="48.197840983048081" lon="-4.09194496460259">
        <ele>-1.79</ele>
        <time>2018-07-06T13:44:03Z</time>
      </trkpt>
      <trkpt lat="48.197750961408019" lon="-4.091887967661023">
        <ele>-3.23</ele>
        <time>2018-07-06T13:44:14Z</time>
      </trkpt>
      <trkpt lat="48.197733024135232" lon="-4.09190196543932">
        <ele>-4.19</ele>
        <time>2018-07-06T13:44:15Z</time>
      </trkpt>
      <trkpt lat="48.19770997390151" lon="-4.091919986531138">
        <ele>-4.67</ele>
        <time>2018-07-06T13:44:16Z</time>
      </trkpt>
      <trkpt lat="48.197516016662121" lon="-4.092110004276037">
        <ele>-10.92</ele>
        <time>2018-07-06T13:44:29Z</time>
      </trkpt>
      <trkpt lat="48.197437981143594" lon="-4.092217963188887">
        <ele>-12.359999999999999</ele>
        <time>2018-07-06T13:44:41Z</time>
      </trkpt>
      <trkpt lat="48.197290040552616" lon="-4.092427007853985">
        <ele>-12.359999999999999</ele>
        <time>2018-07-06T13:44:51Z</time>
      </trkpt>
      <trkpt lat="48.197156013920903" lon="-4.092663964256644">
        <ele>-3.71</ele>
        <time>2018-07-06T13:45:05Z</time>
      </trkpt>
    </trkseg>
  </trk>

  <trk>
    <name>Track vom: 2018-07-06 15:45</name>
    <extensions>
      <gpxx:TrackExtension>
        <gpxx:DisplayColor>DarkGray</gpxx:DisplayColor>
      </gpxx:TrackExtension>
    </extensions>
    <trkseg>
      <trkpt lat="48.197034979239106" lon="-4.092878038063645">
        <ele>-1.3</ele>
        <time>2018-07-06T13:45:10Z</time>
      </trkpt>
      <trkpt lat="48.196877986192703" lon="-4.09318900667131">
        <ele>2.54</ele>
        <time>2018-07-06T13:45:20Z</time>
      </trkpt>
      <trkpt lat="48.196753012016416" lon="-4.093529982492328">
        <ele>3.98</ele>
        <time>2018-07-06T13:45:28Z</time>
      </trkpt>
      <trkpt lat="48.196732979267836" lon="-4.093543980270624">
        <ele>4.46</ele>
        <time>2018-07-06T13:45:29Z</time>
      </trkpt>
      <trkpt lat="48.196692997589707" lon="-4.093523025512695">
        <ele>5.42</ele>
        <time>2018-07-06T13:45:30Z</time>
      </trkpt>
      <trkpt lat="48.196686962619424" lon="-4.093486983329058">
        <ele>5.91</ele>
        <time>2018-07-06T13:45:31Z</time>
      </trkpt>
      <trkpt lat="48.196764998137951" lon="-4.093437027186155">
        <ele>5.91</ele>
        <time>2018-07-06T13:45:32Z</time>
      </trkpt>
      <trkpt lat="48.196764998137951" lon="-4.093437027186155">
        <ele>5.91</ele>
        <time>2018-07-06T13:45:33Z</time>
      </trkpt>
      <trkpt lat="48.196764998137951" lon="-4.093437027186155">
        <ele>5.91</ele>
        <time>2018-07-06T13:45:34Z</time>
      </trkpt>
      <trkpt lat="48.196776984259486" lon="-4.093410037457943">
        <ele>5.42</ele>
        <time>2018-07-06T13:45:35Z</time>
      </trkpt>
      <trkpt lat="48.196825012564659" lon="-4.093305012211204">
        <ele>4.94</ele>
        <time>2018-07-06T13:45:44Z</time>
      </trkpt>
      <trkpt lat="48.196971025317907" lon="-4.093003012239933">
        <ele>3.02</ele>
        <time>2018-07-06T13:45:50Z</time>
      </trkpt>
      <trkpt lat="48.196987034752965" lon="-4.092970993369818">
        <ele>3.02</ele>
        <time>2018-07-06T13:45:52Z</time>
      </trkpt>
      <trkpt lat="48.197001032531261" lon="-4.092941991984844">
        <ele>2.54</ele>
        <time>2018-07-06T13:45:53Z</time>
      </trkpt>
      <trkpt lat="48.19702198728919" lon="-4.092901004478335">
        <ele>2.54</ele>
        <time>2018-07-06T13:45:54Z</time>
      </trkpt>
      <trkpt lat="48.197277970612049" lon="-4.092447962611914">
        <ele>1.1</ele>
        <time>2018-07-06T13:46:00Z</time>
      </trkpt>
      <trkpt lat="48.197509981691837" lon="-4.09211796708405">
        <ele>-0.34</ele>
        <time>2018-07-06T13:46:05Z</time>
      </trkpt>
      <trkpt lat="48.197549963369966" lon="-4.092062981799245">
        <ele>-0.34</ele>
        <time>2018-07-06T13:46:06Z</time>
      </trkpt>
      <trkpt lat="48.197695976123214" lon="-4.091930966824293">
        <ele>-1.79</ele>
        <time>2018-07-06T13:46:11Z</time>
      </trkpt>
      <trkpt lat="48.197717014700174" lon="-4.091915041208267">
        <ele>-1.79</ele>
        <time>2018-07-06T13:46:12Z</time>
      </trkpt>
      <trkpt lat="48.197735035791993" lon="-4.091900959610939">
        <ele>-1.79</ele>
        <time>2018-07-06T13:46:13Z</time>
      </trkpt>
      <trkpt lat="48.19775003939867" lon="-4.091888973489404">
        <ele>-1.79</ele>
        <time>2018-07-06T13:46:14Z</time>
      </trkpt>
      <trkpt lat="48.197781974449754" lon="-4.09188000485301">
        <ele>-1.79</ele>
        <time>2018-07-06T13:46:15Z</time>
      </trkpt>
      <trkpt lat="48.197811981663108" lon="-4.091914035379887">
        <ele>-2.27</ele>
        <time>2018-07-06T13:46:16Z</time>
      </trkpt>
      <trkpt lat="48.197849029675126" lon="-4.091953011229634">
        <ele>-1.3</ele>
        <time>2018-07-06T13:46:17Z</time>
      </trkpt>
      <trkpt lat="48.197896974161267" lon="-4.092004979029298">
        <ele>-0.82</ele>
        <time>2018-07-06T13:46:18Z</time>
      </trkpt>
      <trkpt lat="48.197952965274453" lon="-4.092065999284387">
        <ele>-0.82</ele>
        <time>2018-07-06T13:46:19Z</time>
      </trkpt>
      <trkpt lat="48.198017003014684" lon="-4.092134982347488">
        <ele>-0.34</ele>
        <time>2018-07-06T13:46:20Z</time>
      </trkpt>
      <trkpt lat="48.198075005784631" lon="-4.09222399815917">
        <ele>-0.34</ele>
        <time>2018-07-06T13:46:21Z</time>
      </trkpt>
      <trkpt lat="48.19813895970583" lon="-4.09233002923429">
        <ele>0.62</ele>
        <time>2018-07-06T13:46:22Z</time>
      </trkpt>
      <trkpt lat="48.198181036859751" lon="-4.092455003410578">
        <ele>1.1</ele>
        <time>2018-07-06T13:46:23Z</time>
      </trkpt>
      <trkpt lat="48.198215989395976" lon="-4.092606967315078">
        <ele>1.1</ele>
        <time>2018-07-06T13:46:24Z</time>
      </trkpt>
      <trkpt lat="48.198252031579614" lon="-4.092761026695371">
        <ele>1.58</ele>
        <time>2018-07-06T13:46:25Z</time>
      </trkpt>
      <trkpt lat="48.19828798994422" lon="-4.092916008085012">
        <ele>1.58</ele>
        <time>2018-07-06T13:46:26Z</time>
      </trkpt>
      <trkpt lat="48.198391003534198" lon="-4.094198020175099">
        <ele>3.5</ele>
        <time>2018-07-06T13:46:35Z</time>
      </trkpt>
      <trkpt lat="48.198291007429361" lon="-4.095230000093579">
        <ele>5.42</ele>
        <time>2018-07-06T13:46:41Z</time>
      </trkpt>
      <trkpt lat="48.198168966919184" lon="-4.095745990052819">
        <ele>5.42</ele>
        <time>2018-07-06T13:46:44Z</time>
      </trkpt>
      <trkpt lat="48.197825979441404" lon="-4.096991959959269">
        <ele>10.710000000000001</ele>
        <time>2018-07-06T13:46:53Z</time>
      </trkpt>
      <trkpt lat="48.197793960571289" lon="-4.097106959670782">
        <ele>11.67</ele>
        <time>2018-07-06T13:46:54Z</time>
      </trkpt>
      <trkpt lat="48.197762025520205" lon="-4.09720997326076">
        <ele>13.119999999999999</ele>
        <time>2018-07-06T13:46:56Z</time>
      </trkpt>
      <trkpt lat="48.19753403775394" lon="-4.097942970693111">
        <ele>16.960000000000001</ele>
        <time>2018-07-06T13:47:05Z</time>
      </trkpt>
      <trkpt lat="48.197346031665802" lon="-4.098489973694086">
        <ele>20.809999999999999</ele>
        <time>2018-07-06T13:47:11Z</time>
      </trkpt>
      <trkpt lat="48.196585960686207" lon="-4.099669978022575">
        <ele>26.57</ele>
        <time>2018-07-06T13:47:22Z</time>
      </trkpt>
      <trkpt lat="48.195683984085917" lon="-4.100745962932706">
        <ele>31.379999999999999</ele>
        <time>2018-07-06T13:47:33Z</time>
      </trkpt>
      <trkpt lat="48.195209987461567" lon="-4.101195987313986">
        <ele>33.299999999999997</ele>
        <time>2018-07-06T13:47:38Z</time>
      </trkpt>
      <trkpt lat="48.195133963599801" lon="-4.101306041702628">
        <ele>33.780000000000001</ele>
        <time>2018-07-06T13:47:39Z</time>
      </trkpt>
      <trkpt lat="48.195085013285279" lon="-4.101439984515309">
        <ele>34.259999999999998</ele>
        <time>2018-07-06T13:47:40Z</time>
      </trkpt>
      <trkpt lat="48.195064980536699" lon="-4.101587003096938">
        <ele>34.740000000000002</ele>
        <time>2018-07-06T13:47:41Z</time>
      </trkpt>
      <trkpt lat="48.195057017728686" lon="-4.101764028891921">
        <ele>35.229999999999997</ele>
        <time>2018-07-06T13:47:42Z</time>
      </trkpt>
      <trkpt lat="48.195047965273261" lon="-4.101958991959691">
        <ele>35.710000000000001</ele>
        <time>2018-07-06T13:47:43Z</time>
      </trkpt>
      <trkpt lat="48.195032961666584" lon="-4.102159989997745">
        <ele>36.189999999999998</ele>
        <time>2018-07-06T13:47:44Z</time>
      </trkpt>
      <trkpt lat="48.195018963888288" lon="-4.102362999692559">
        <ele>36.670000000000002</ele>
        <time>2018-07-06T13:47:45Z</time>
      </trkpt>
      <trkpt lat="48.19500002078712" lon="-4.102574978023768">
        <ele>37.149999999999999</ele>
        <time>2018-07-06T13:47:46Z</time>
      </trkpt>
      <trkpt lat="48.194947969168425" lon="-4.102767007425427">
        <ele>37.630000000000003</ele>
        <time>2018-07-06T13:47:47Z</time>
      </trkpt>
      <trkpt lat="48.194557959213853" lon="-4.104046002030373">
        <ele>40.990000000000002</ele>
        <time>2018-07-06T13:47:55Z</time>
      </trkpt>
      <trkpt lat="48.194299964234233" lon="-4.104935992509127">
        <ele>44.840000000000003</ele>
        <time>2018-07-06T13:48:04Z</time>
      </trkpt>
      <trkpt lat="48.193941973149776" lon="-4.106085989624262">
        <ele>47.719999999999999</ele>
        <time>2018-07-06T13:48:13Z</time>
      </trkpt>
      <trkpt lat="48.193767964839935" lon="-4.106645984575152">
        <ele>49.159999999999997</ele>
        <time>2018-07-06T13:48:17Z</time>
      </trkpt>
      <trkpt lat="48.193719014525414" lon="-4.106779005378485">
        <ele>49.649999999999999</ele>
        <time>2018-07-06T13:48:18Z</time>
      </trkpt>
      <trkpt lat="48.192884009331465" lon="-4.108323035761714">
        <ele>53.969999999999999</ele>
        <time>2018-07-06T13:48:30Z</time>
      </trkpt>
      <trkpt lat="48.192655015736818" lon="-4.108988977968693">
        <ele>56.859999999999999</ele>
        <time>2018-07-06T13:48:34Z</time>
      </trkpt>
      <trkpt lat="48.192601958289742" lon="-4.109143959358335">
        <ele>57.340000000000003</ele>
        <time>2018-07-06T13:48:35Z</time>
      </trkpt>
      <trkpt lat="48.192541021853685" lon="-4.109417041763663">
        <ele>58.780000000000001</ele>
        <time>2018-07-06T13:48:37Z</time>
      </trkpt>
      <trkpt lat="48.192518977448344" lon="-4.109516032040119">
        <ele>59.259999999999998</ele>
        <time>2018-07-06T13:48:38Z</time>
      </trkpt>
      <trkpt lat="48.192410012707114" lon="-4.109503962099552">
        <ele>59.740000000000002</ele>
        <time>2018-07-06T13:48:39Z</time>
      </trkpt>
      <trkpt lat="48.192341029644012" lon="-4.109487030655146">
        <ele>60.219999999999999</ele>
        <time>2018-07-06T13:48:40Z</time>
      </trkpt>
      <trkpt lat="48.192259976640344" lon="-4.109466997906566">
        <ele>60.700000000000003</ele>
        <time>2018-07-06T13:48:41Z</time>
      </trkpt>
      <trkpt lat="48.192172972485423" lon="-4.109445037320256">
        <ele>60.700000000000003</ele>
        <time>2018-07-06T13:48:42Z</time>
      </trkpt>
      <trkpt lat="48.192044980823994" lon="-4.109480995684862">
        <ele>61.18</ele>
        <time>2018-07-06T13:48:43Z</time>
      </trkpt>
      <trkpt lat="48.19192604161799" lon="-4.109515026211739">
        <ele>61.18</ele>
        <time>2018-07-06T13:48:44Z</time>
      </trkpt>
      <trkpt lat="48.191796038299799" lon="-4.109551990404725">
        <ele>61.18</ele>
        <time>2018-07-06T13:48:45Z</time>
      </trkpt>
      <trkpt lat="48.19066297262907" lon="-4.109706971794367">
        <ele>67.909999999999997</ele>
        <time>2018-07-06T13:48:52Z</time>
      </trkpt>
      <trkpt lat="48.188988016918302" lon="-4.10941201262176">
        <ele>77.040000000000006</ele>
        <time>2018-07-06T13:49:00Z</time>
      </trkpt>
      <trkpt lat="48.187841959297657" lon="-4.109332971274853">
        <ele>82.810000000000002</ele>
        <time>2018-07-06T13:49:05Z</time>
      </trkpt>
      <trkpt lat="48.186033982783556" lon="-4.109559031203389">
        <ele>91.939999999999998</ele>
        <time>2018-07-06T13:49:13Z</time>
      </trkpt>
      <trkpt lat="48.184185018762946" lon="-4.109937977045775">
        <ele>103.95999999999999</ele>
        <time>2018-07-06T13:49:23Z</time>
      </trkpt>
      <trkpt lat="48.182515008375049" lon="-4.110682038590312">
        <ele>109.73</ele>
        <time>2018-07-06T13:49:32Z</time>
      </trkpt>
      <trkpt lat="48.180602006614208" lon="-4.111873023211956">
        <ele>122.22</ele>
        <time>2018-07-06T13:49:43Z</time>
      </trkpt>
      <trkpt lat="48.180461023002863" lon="-4.112056000158191">
        <ele>123.67</ele>
        <time>2018-07-06T13:49:44Z</time>
      </trkpt>
      <trkpt lat="48.179567009210587" lon="-4.113109018653631">
        <ele>131.84</ele>
        <time>2018-07-06T13:49:50Z</time>
      </trkpt>
      <trkpt lat="48.17940297536552" lon="-4.113240027800202">
        <ele>132.80000000000001</ele>
        <time>2018-07-06T13:49:51Z</time>
      </trkpt>
      <trkpt lat="48.17923198454082" lon="-4.113334994763136">
        <ele>134.24000000000001</ele>
        <time>2018-07-06T13:49:52Z</time>
      </trkpt>
      <trkpt lat="48.179054036736488" lon="-4.113390985876322">
        <ele>135.68000000000001</ele>
        <time>2018-07-06T13:49:53Z</time>
      </trkpt>
      <trkpt lat="48.178868964314461" lon="-4.113442031666637">
        <ele>137.13</ele>
        <time>2018-07-06T13:49:54Z</time>
      </trkpt>
      <trkpt lat="48.178675007075071" lon="-4.113470027223229">
        <ele>138.56999999999999</ele>
        <time>2018-07-06T13:49:55Z</time>
      </trkpt>
      <trkpt lat="48.17736198194325" lon="-4.113739002496004">
        <ele>145.30000000000001</ele>
        <time>2018-07-06T13:50:02Z</time>
      </trkpt>
      <trkpt lat="48.177201971411705" lon="-4.113840004429221">
        <ele>145.78</ele>
        <time>2018-07-06T13:50:03Z</time>
      </trkpt>
      <trkpt lat="48.177062999457121" lon="-4.113990040495992">
        <ele>146.74000000000001</ele>
        <time>2018-07-06T13:50:04Z</time>
      </trkpt>
      <trkpt lat="48.176939031109214" lon="-4.114166982471943">
        <ele>147.69999999999999</ele>
        <time>2018-07-06T13:50:05Z</time>
      </trkpt>
      <trkpt lat="48.176838029175997" lon="-4.114376027137041">
        <ele>148.66</ele>
        <time>2018-07-06T13:50:06Z</time>
      </trkpt>
      <trkpt lat="48.17673803307116" lon="-4.114583982154727">
        <ele>149.62</ele>
        <time>2018-07-06T13:50:07Z</time>
      </trkpt>
      <trkpt lat="48.17667399533093" lon="-4.114799983799458">
        <ele>151.06</ele>
        <time>2018-07-06T13:50:08Z</time>
      </trkpt>
      <trkpt lat="48.176626972854137" lon="-4.11504196934402">
        <ele>152.03</ele>
        <time>2018-07-06T13:50:09Z</time>
      </trkpt>
      <trkpt lat="48.176580034196377" lon="-4.115284038707614">
        <ele>153.47</ele>
        <time>2018-07-06T13:50:10Z</time>
      </trkpt>
      <trkpt lat="48.176554972305894" lon="-4.11553599871695">
        <ele>154.43000000000001</ele>
        <time>2018-07-06T13:50:11Z</time>
      </trkpt>
      <trkpt lat="48.17656603641808" lon="-4.115798017010093">
        <ele>155.38999999999999</ele>
        <time>2018-07-06T13:50:12Z</time>
      </trkpt>
      <trkpt lat="48.176591014489532" lon="-4.116052994504571">
        <ele>156.34999999999999</ele>
        <time>2018-07-06T13:50:13Z</time>
      </trkpt>
      <trkpt lat="48.176659997552633" lon="-4.116297997534275">
        <ele>157.78999999999999</ele>
        <time>2018-07-06T13:50:14Z</time>
      </trkpt>
      <trkpt lat="48.176731998100877" lon="-4.116552975028753">
        <ele>158.75</ele>
        <time>2018-07-06T13:50:15Z</time>
      </trkpt>
      <trkpt lat="48.176806010305882" lon="-4.116815999150276">
        <ele>159.24000000000001</ele>
        <time>2018-07-06T13:50:16Z</time>
      </trkpt>
      <trkpt lat="48.177571026608348" lon="-4.11847704090178">
        <ele>166.93000000000001</ele>
        <time>2018-07-06T13:50:23Z</time>
      </trkpt>
      <trkpt lat="48.177895992994308" lon="-4.119148012250662">
        <ele>170.77000000000001</ele>
        <time>2018-07-06T13:50:26Z</time>
      </trkpt>
      <trkpt lat="48.17798400297761" lon="-4.119389997795224">
        <ele>171.72999999999999</ele>
        <time>2018-07-06T13:50:27Z</time>
      </trkpt>
      <trkpt lat="48.178051980212331" lon="-4.119653021916747">
        <ele>172.69</ele>
        <time>2018-07-06T13:50:28Z</time>
      </trkpt>
      <trkpt lat="48.178101014345884" lon="-4.119933983311057">
        <ele>173.66</ele>
        <time>2018-07-06T13:50:29Z</time>
      </trkpt>
      <trkpt lat="48.178117023780942" lon="-4.120228020474315">
        <ele>174.62</ele>
        <time>2018-07-06T13:50:30Z</time>
      </trkpt>
      <trkpt lat="48.178133033216" lon="-4.120523985475302">
        <ele>175.58000000000001</ele>
        <time>2018-07-06T13:50:31Z</time>
      </trkpt>
      <trkpt lat="48.17817703820765" lon="-4.121112981811166">
        <ele>177.97999999999999</ele>
        <time>2018-07-06T13:50:33Z</time>
      </trkpt>
      <trkpt lat="48.178230011835694" lon="-4.121386986225843">
        <ele>179.41999999999999</ele>
        <time>2018-07-06T13:50:34Z</time>
      </trkpt>
      <trkpt lat="48.178281979635358" lon="-4.121654033660889">
        <ele>180.38</ele>
        <time>2018-07-06T13:50:35Z</time>
      </trkpt>
      <trkpt lat="48.178350040689111" lon="-4.121899036690593">
        <ele>181.83000000000001</ele>
        <time>2018-07-06T13:50:36Z</time>
      </trkpt>
      <trkpt lat="48.178446013480425" lon="-4.122135993093252">
        <ele>183.27000000000001</ele>
        <time>2018-07-06T13:50:37Z</time>
      </trkpt>
      <trkpt lat="48.1785439979285" lon="-4.122375966981053">
        <ele>184.22999999999999</ele>
        <time>2018-07-06T13:50:38Z</time>
      </trkpt>
      <trkpt lat="48.178643994033337" lon="-4.122622981667519">
        <ele>185.19</ele>
        <time>2018-07-06T13:50:39Z</time>
      </trkpt>
      <trkpt lat="48.178998967632651" lon="-4.123650016263127">
        <ele>190.47999999999999</ele>
        <time>2018-07-06T13:50:43Z</time>
      </trkpt>
      <trkpt lat="48.179026041179895" lon="-4.123907005414367">
        <ele>191.44</ele>
        <time>2018-07-06T13:50:44Z</time>
      </trkpt>
      <trkpt lat="48.17903601564467" lon="-4.124147985130549">
        <ele>192.88</ele>
        <time>2018-07-06T13:50:45Z</time>
      </trkpt>
      <trkpt lat="48.179022017866373" lon="-4.124372033402324">
        <ele>193.84</ele>
        <time>2018-07-06T13:50:46Z</time>
      </trkpt>
      <trkpt lat="48.178968038409948" lon="-4.124576970934868">
        <ele>194.80000000000001</ele>
        <time>2018-07-06T13:50:47Z</time>
      </trkpt>
      <trkpt lat="48.178882040083408" lon="-4.124776963144541">
        <ele>195.77000000000001</ele>
        <time>2018-07-06T13:50:48Z</time>
      </trkpt>
      <trkpt lat="48.178763017058372" lon="-4.12492398172617">
        <ele>196.72999999999999</ele>
        <time>2018-07-06T13:50:49Z</time>
      </trkpt>
      <trkpt lat="48.178633013740182" lon="-4.125065971165896">
        <ele>197.21000000000001</ele>
        <time>2018-07-06T13:50:50Z</time>
      </trkpt>
      <trkpt lat="48.17848096601665" lon="-4.125154986977577">
        <ele>197.21000000000001</ele>
        <time>2018-07-06T13:50:51Z</time>
      </trkpt>
      <trkpt lat="48.178332019597292" lon="-4.125213995575905">
        <ele>197.69</ele>
        <time>2018-07-06T13:50:52Z</time>
      </trkpt>
      <trkpt lat="48.178162034600973" lon="-4.125204021111131">
        <ele>198.16999999999999</ele>
        <time>2018-07-06T13:50:53Z</time>
      </trkpt>
      <trkpt lat="48.177989032119513" lon="-4.125194968655706">
        <ele>198.16999999999999</ele>
        <time>2018-07-06T13:50:54Z</time>
      </trkpt>
      <trkpt lat="48.177818041294813" lon="-4.1251399833709">
        <ele>198.65000000000001</ele>
        <time>2018-07-06T13:50:55Z</time>
      </trkpt>
      <trkpt lat="48.175997994840145" lon="-4.124598009511828">
        <ele>197.21000000000001</ele>
        <time>2018-07-06T13:51:04Z</time>
      </trkpt>
      <trkpt lat="48.174307029694319" lon="-4.124091994017363">
        <ele>193.36000000000001</ele>
        <time>2018-07-06T13:51:11Z</time>
      </trkpt>
      <trkpt lat="48.172477008774877" lon="-4.123486988246441">
        <ele>185.66999999999999</ele>
        <time>2018-07-06T13:51:19Z</time>
      </trkpt>
      <trkpt lat="48.170710019767284" lon="-4.122952977195382">
        <ele>175.58000000000001</ele>
        <time>2018-07-06T13:51:28Z</time>
      </trkpt>
      <trkpt lat="48.170541962608695" lon="-4.122943002730608">
        <ele>175.09999999999999</ele>
        <time>2018-07-06T13:51:29Z</time>
      </trkpt>
      <trkpt lat="48.170352028682828" lon="-4.122994970530272">
        <ele>174.13999999999999</ele>
        <time>2018-07-06T13:51:30Z</time>
      </trkpt>
      <trkpt lat="48.170155975967646" lon="-4.123064959421754">
        <ele>173.66</ele>
        <time>2018-07-06T13:51:31Z</time>
      </trkpt>
      <trkpt lat="48.169965958222747" lon="-4.123198986053467">
        <ele>172.69</ele>
        <time>2018-07-06T13:51:32Z</time>
      </trkpt>
      <trkpt lat="48.169768983498216" lon="-4.123337035998702">
        <ele>172.21000000000001</ele>
        <time>2018-07-06T13:51:33Z</time>
      </trkpt>
      <trkpt lat="48.169579971581697" lon="-4.123479025438428">
        <ele>171.25</ele>
        <time>2018-07-06T13:51:34Z</time>
      </trkpt>
      <trkpt lat="48.169407974928617" lon="-4.12367801181972">
        <ele>170.28999999999999</ele>
        <time>2018-07-06T13:51:35Z</time>
      </trkpt>
      <trkpt lat="48.168168962001801" lon="-4.125112993642688">
        <ele>162.59999999999999</ele>
        <time>2018-07-06T13:51:42Z</time>
      </trkpt>
      <trkpt lat="48.167374022305012" lon="-4.126074984669685">
        <ele>156.83000000000001</ele>
        <time>2018-07-06T13:51:48Z</time>
      </trkpt>
      <trkpt lat="48.166645970195532" lon="-4.126869002357125">
        <ele>150.58000000000001</ele>
        <time>2018-07-06T13:51:54Z</time>
      </trkpt>
      <trkpt lat="48.166516972705722" lon="-4.126970004290342">
        <ele>149.62</ele>
        <time>2018-07-06T13:51:55Z</time>
      </trkpt>
      <trkpt lat="48.166378000751138" lon="-4.127033958211541">
        <ele>148.18000000000001</ele>
        <time>2018-07-06T13:51:56Z</time>
      </trkpt>
      <trkpt lat="48.165699988603592" lon="-4.127413993701339">
        <ele>142.41</ele>
        <time>2018-07-06T13:52:01Z</time>
      </trkpt>
      <trkpt lat="48.165578031912446" lon="-4.127554977312684">
        <ele>141.44999999999999</ele>
        <time>2018-07-06T13:52:02Z</time>
      </trkpt>
      <trkpt lat="48.165469989180565" lon="-4.127713982015848">
        <ele>140.49000000000001</ele>
        <time>2018-07-06T13:52:03Z</time>
      </trkpt>
      <trkpt lat="48.165364963933825" lon="-4.127868041396141">
        <ele>139.53</ele>
        <time>2018-07-06T13:52:04Z</time>
      </trkpt>
      <trkpt lat="48.165271002799273" lon="-4.128014976158738">
        <ele>138.56999999999999</ele>
        <time>2018-07-06T13:52:05Z</time>
      </trkpt>
      <trkpt lat="48.165195984765887" lon="-4.12816802971065">
        <ele>137.61000000000001</ele>
        <time>2018-07-06T13:52:06Z</time>
      </trkpt>
      <trkpt lat="48.165127001702785" lon="-4.128308007493615">
        <ele>136.63999999999999</ele>
        <time>2018-07-06T13:52:07Z</time>
      </trkpt>
      <trkpt lat="48.164798012003303" lon="-4.128979984670878">
        <ele>132.31999999999999</ele>
        <time>2018-07-06T13:52:12Z</time>
      </trkpt>
      <trkpt lat="48.16470698453486" lon="-4.129076041281223">
        <ele>131.84</ele>
        <time>2018-07-06T13:52:13Z</time>
      </trkpt>
      <trkpt lat="48.164601037278771" lon="-4.129143012687564">
        <ele>131.36000000000001</ele>
        <time>2018-07-06T13:52:14Z</time>
      </trkpt>
      <trkpt lat="48.164489977061749" lon="-4.129213001579046">
        <ele>130.40000000000001</ele>
        <time>2018-07-06T13:52:15Z</time>
      </trkpt>
      <trkpt lat="48.164381012320518" lon="-4.129280978813767">
        <ele>129.91999999999999</ele>
        <time>2018-07-06T13:52:16Z</time>
      </trkpt>
      <trkpt lat="48.16416903398931" lon="-4.129425985738635">
        <ele>128.47</ele>
        <time>2018-07-06T13:52:18Z</time>
      </trkpt>
      <trkpt lat="48.164078006520867" lon="-4.129530005156994">
        <ele>127.51000000000001</ele>
        <time>2018-07-06T13:52:19Z</time>
      </trkpt>
      <trkpt lat="48.163997959345579" lon="-4.129654979333282">
        <ele>127.03</ele>
        <time>2018-07-06T13:52:20Z</time>
      </trkpt>
      <trkpt lat="48.163925036787987" lon="-4.129795962944627">
        <ele>126.55</ele>
        <time>2018-07-06T13:52:21Z</time>
      </trkpt>
      <trkpt lat="48.163849012926221" lon="-4.129940969869494">
        <ele>126.06999999999999</ele>
        <time>2018-07-06T13:52:22Z</time>
      </trkpt>
      <trkpt lat="48.163779024034739" lon="-4.13008295930922">
        <ele>125.59</ele>
        <time>2018-07-06T13:52:23Z</time>
      </trkpt>
      <trkpt lat="48.163724960759282" lon="-4.130249004811049">
        <ele>125.59</ele>
        <time>2018-07-06T13:52:24Z</time>
      </trkpt>
      <trkpt lat="48.163149040192366" lon="-4.131964026018977">
        <ele>123.19</ele>
        <time>2018-07-06T13:52:34Z</time>
      </trkpt>
      <trkpt lat="48.162420988082886" lon="-4.133673012256622">
        <ele>121.73999999999999</ele>
        <time>2018-07-06T13:52:45Z</time>
      </trkpt>
      <trkpt lat="48.162223007529974" lon="-4.134120019152761">
        <ele>120.3</ele>
        <time>2018-07-06T13:52:48Z</time>
      </trkpt>
      <trkpt lat="48.162132985889912" lon="-4.134236024692655">
        <ele>119.81999999999999</ele>
        <time>2018-07-06T13:52:49Z</time>
      </trkpt>
      <trkpt lat="48.162031983956695" lon="-4.134325962513685">
        <ele>119.34</ele>
        <time>2018-07-06T13:52:50Z</time>
      </trkpt>
      <trkpt lat="48.16191497258842" lon="-4.134393017739058">
        <ele>118.86</ele>
        <time>2018-07-06T13:52:51Z</time>
      </trkpt>
      <trkpt lat="48.161797039210796" lon="-4.134460994973779">
        <ele>118.38</ele>
        <time>2018-07-06T13:52:52Z</time>
      </trkpt>
      <trkpt lat="48.160827001556754" lon="-4.13525803014636">
        <ele>116.45999999999999</ele>
        <time>2018-07-06T13:53:01Z</time>
      </trkpt>
      <trkpt lat="48.160631032660604" lon="-4.135493980720639">
        <ele>116.45999999999999</ele>
        <time>2018-07-06T13:53:03Z</time>
      </trkpt>
      <trkpt lat="48.160562971606851" lon="-4.135642005130649">
        <ele>116.45999999999999</ele>
        <time>2018-07-06T13:53:04Z</time>
      </trkpt>
      <trkpt lat="48.16049600020051" lon="-4.135789023712277">
        <ele>116.45999999999999</ele>
        <time>2018-07-06T13:53:05Z</time>
      </trkpt>
      <trkpt lat="48.159990990534425" lon="-4.13697799667716">
        <ele>113.56999999999999</ele>
        <time>2018-07-06T13:53:14Z</time>
      </trkpt>
      <trkpt lat="48.159562004730105" lon="-4.138002013787627">
        <ele>111.17</ele>
        <time>2018-07-06T13:53:25Z</time>
      </trkpt>
      <trkpt lat="48.159097982570529" lon="-4.138874989002943">
        <ele>108.77</ele>
        <time>2018-07-06T13:53:34Z</time>
      </trkpt>
      <trkpt lat="48.158873012289405" lon="-4.139075987040997">
        <ele>107.31999999999999</ele>
        <time>2018-07-06T13:53:38Z</time>
      </trkpt>
      <trkpt lat="48.158802017569542" lon="-4.139112029224634">
        <ele>107.31999999999999</ele>
        <time>2018-07-06T13:53:39Z</time>
      </trkpt>
      <trkpt lat="48.158575035631657" lon="-4.139183023944497">
        <ele>105.88</ele>
        <time>2018-07-06T13:53:42Z</time>
      </trkpt>
      <trkpt lat="48.158500017598271" lon="-4.139192998409271">
        <ele>105.88</ele>
        <time>2018-07-06T13:53:43Z</time>
      </trkpt>
      <trkpt lat="48.157977992668748" lon="-4.139223005622625">
        <ele>104.92</ele>
        <time>2018-07-06T13:53:50Z</time>
      </trkpt>
      <trkpt lat="48.157799039036036" lon="-4.139216970652342">
        <ele>104.92</ele>
        <time>2018-07-06T13:53:53Z</time>
      </trkpt>
      <trkpt lat="48.157755034044385" lon="-4.139212025329471">
        <ele>104.92</ele>
        <time>2018-07-06T13:53:54Z</time>
      </trkpt>
      <trkpt lat="48.157709017395973" lon="-4.139208002015948">
        <ele>104.92</ele>
        <time>2018-07-06T13:53:55Z</time>
      </trkpt>
      <trkpt lat="48.157520005479455" lon="-4.139214036986232">
        <ele>104.92</ele>
        <time>2018-07-06T13:53:58Z</time>
      </trkpt>
      <trkpt lat="48.156533958390355" lon="-4.139270028099418">
        <ele>103.48</ele>
        <time>2018-07-06T13:54:10Z</time>
      </trkpt>
      <trkpt lat="48.156468998640776" lon="-4.139280002564192">
        <ele>103</ele>
        <time>2018-07-06T13:54:11Z</time>
      </trkpt>
      <trkpt lat="48.156341006979346" lon="-4.139321995899081">
        <ele>102.04000000000001</ele>
        <time>2018-07-06T13:54:13Z</time>
      </trkpt>
      <trkpt lat="48.156231958419085" lon="-4.139441018924117">
        <ele>101.08</ele>
        <time>2018-07-06T13:54:15Z</time>
      </trkpt>
      <trkpt lat="48.155713034793735" lon="-4.140096986666322">
        <ele>100.11</ele>
        <time>2018-07-06T13:54:23Z</time>
      </trkpt>
      <trkpt lat="48.155352026224136" lon="-4.140452966094017">
        <ele>99.629999999999995</ele>
        <time>2018-07-06T13:54:28Z</time>
      </trkpt>
      <trkpt lat="48.154405960813165" lon="-4.141121003776789">
        <ele>97.230000000000004</ele>
        <time>2018-07-06T13:54:37Z</time>
      </trkpt>
      <trkpt lat="48.152980031445622" lon="-4.141702959313989">
        <ele>96.269999999999996</ele>
        <time>2018-07-06T13:54:48Z</time>
      </trkpt>
      <trkpt lat="48.152844998985529" lon="-4.141774037852883">
        <ele>96.75</ele>
        <time>2018-07-06T13:54:49Z</time>
      </trkpt>
      <trkpt lat="48.152710972353816" lon="-4.141845032572746">
        <ele>96.269999999999996</ele>
        <time>2018-07-06T13:54:50Z</time>
      </trkpt>
      <trkpt lat="48.152590021491051" lon="-4.141955003142357">
        <ele>96.269999999999996</ele>
        <time>2018-07-06T13:54:51Z</time>
      </trkpt>
      <trkpt lat="48.152475021779537" lon="-4.142081988975406">
        <ele>96.269999999999996</ele>
        <time>2018-07-06T13:54:52Z</time>
      </trkpt>
      <trkpt lat="48.152359016239643" lon="-4.142210986465216">
        <ele>96.269999999999996</ele>
        <time>2018-07-06T13:54:53Z</time>
      </trkpt>
      <trkpt lat="48.152238987386227" lon="-4.142345013096929">
        <ele>96.269999999999996</ele>
        <time>2018-07-06T13:54:54Z</time>
      </trkpt>
      <trkpt lat="48.150777015835047" lon="-4.144194982945919">
        <ele>93.870000000000005</ele>
        <time>2018-07-06T13:55:07Z</time>
      </trkpt>
      <trkpt lat="48.150220038369298" lon="-4.144997969269753">
        <ele>93.870000000000005</ele>
        <time>2018-07-06T13:55:13Z</time>
      </trkpt>
      <trkpt lat="48.150201011449099" lon="-4.145236015319824">
        <ele>93.870000000000005</ele>
        <time>2018-07-06T13:55:14Z</time>
      </trkpt>
      <trkpt lat="48.150136973708868" lon="-4.145322013646364">
        <ele>93.870000000000005</ele>
        <time>2018-07-06T13:55:15Z</time>
      </trkpt>
      <trkpt lat="48.149556024000049" lon="-4.146616011857987">
        <ele>94.829999999999998</ele>
        <time>2018-07-06T13:55:21Z</time>
      </trkpt>
      <trkpt lat="48.148432010784745" lon="-4.149366030469537">
        <ele>99.150000000000006</ele>
        <time>2018-07-06T13:55:30Z</time>
      </trkpt>
      <trkpt lat="48.147350996732712" lon="-4.151897029951215">
        <ele>105.40000000000001</ele>
        <time>2018-07-06T13:55:39Z</time>
      </trkpt>
      <trkpt lat="48.146317005157471" lon="-4.154415037482977">
        <ele>113.09</ele>
        <time>2018-07-06T13:55:48Z</time>
      </trkpt>
      <trkpt lat="48.144349018111825" lon="-4.158887034282088">
        <ele>109.25</ele>
        <time>2018-07-06T13:56:04Z</time>
      </trkpt>
      <trkpt lat="48.14281303435564" lon="-4.161217035725713">
        <ele>109.73</ele>
        <time>2018-07-06T13:56:14Z</time>
      </trkpt>
      <trkpt lat="48.141341004520655" lon="-4.163478976115584">
        <ele>114.53</ele>
        <time>2018-07-06T13:56:24Z</time>
      </trkpt>
      <trkpt lat="48.141211001202464" lon="-4.163733031600714">
        <ele>115.5</ele>
        <time>2018-07-06T13:56:25Z</time>
      </trkpt>
      <trkpt lat="48.141118967905641" lon="-4.164022039622068">
        <ele>115.98</ele>
        <time>2018-07-06T13:56:26Z</time>
      </trkpt>
      <trkpt lat="48.141040010377765" lon="-4.164313981309533">
        <ele>116.94</ele>
        <time>2018-07-06T13:56:27Z</time>
      </trkpt>
      <trkpt lat="48.14096599817276" lon="-4.164613969624043">
        <ele>116.94</ele>
        <time>2018-07-06T13:56:28Z</time>
      </trkpt>
      <trkpt lat="48.140891985967755" lon="-4.164918987080455">
        <ele>117.42</ele>
        <time>2018-07-06T13:56:29Z</time>
      </trkpt>
      <trkpt lat="48.140591997653246" lon="-4.167517963796854">
        <ele>118.86</ele>
        <time>2018-07-06T13:56:37Z</time>
      </trkpt>
      <trkpt lat="48.140096962451935" lon="-4.172892021015286">
        <ele>123.19</ele>
        <time>2018-07-06T13:56:53Z</time>
      </trkpt>
      <trkpt lat="48.139609973877668" lon="-4.175792997702956">
        <ele>124.63</ele>
        <time>2018-07-06T13:57:02Z</time>
      </trkpt>
      <trkpt lat="48.138877982273698" lon="-4.178173961117864">
        <ele>124.63</ele>
        <time>2018-07-06T13:57:11Z</time>
      </trkpt>
      <trkpt lat="48.138011964038014" lon="-4.180851979181171">
        <ele>125.11</ele>
        <time>2018-07-06T13:57:22Z</time>
      </trkpt>
      <trkpt lat="48.137080986052752" lon="-4.18276104144752">
        <ele>126.06999999999999</ele>
        <time>2018-07-06T13:57:29Z</time>
      </trkpt>
      <trkpt lat="48.135823030024767" lon="-4.184949975460768">
        <ele>126.06999999999999</ele>
        <time>2018-07-06T13:57:38Z</time>
      </trkpt>
      <trkpt lat="48.13413399271667" lon="-4.187825974076986">
        <ele>123.19</ele>
        <time>2018-07-06T13:57:50Z</time>
      </trkpt>
      <trkpt lat="48.132774028927088" lon="-4.190424028784037">
        <ele>119.81999999999999</ele>
        <time>2018-07-06T13:58:00Z</time>
      </trkpt>
      <trkpt lat="48.132085958495736" lon="-4.192896019667387">
        <ele>115.98</ele>
        <time>2018-07-06T13:58:09Z</time>
      </trkpt>
      <trkpt lat="48.131410041823983" lon="-4.195858016610146">
        <ele>111.65000000000001</ele>
        <time>2018-07-06T13:58:20Z</time>
      </trkpt>
      <trkpt lat="48.130795983597636" lon="-4.198560006916523">
        <ele>108.29000000000001</ele>
        <time>2018-07-06T13:58:28Z</time>
      </trkpt>
      <trkpt lat="48.129738019779325" lon="-4.203186985105276">
        <ele>99.150000000000006</ele>
        <time>2018-07-06T13:58:42Z</time>
      </trkpt>
      <trkpt lat="48.129040980711579" lon="-4.206895977258682">
        <ele>90.019999999999996</ele>
        <time>2018-07-06T13:58:54Z</time>
      </trkpt>
      <trkpt lat="48.128129029646516" lon="-4.211648013442755">
        <ele>76.079999999999998</ele>
        <time>2018-07-06T13:59:09Z</time>
      </trkpt>
      <trkpt lat="48.127527041360736" lon="-4.213531007990241">
        <ele>78</ele>
        <time>2018-07-06T13:59:16Z</time>
      </trkpt>
      <trkpt lat="48.126802006736398" lon="-4.215663028880954">
        <ele>85.689999999999998</ele>
        <time>2018-07-06T13:59:27Z</time>
      </trkpt>
      <trkpt lat="48.126452984288335" lon="-4.216598030179739">
        <ele>91.459999999999994</ele>
        <time>2018-07-06T13:59:34Z</time>
      </trkpt>
      <trkpt lat="48.126414008438587" lon="-4.216700037941337">
        <ele>92.420000000000002</ele>
        <time>2018-07-06T13:59:35Z</time>
      </trkpt>
      <trkpt lat="48.126075966283679" lon="-4.217624980956316">
        <ele>96.75</ele>
        <time>2018-07-06T13:59:44Z</time>
      </trkpt>
      <trkpt lat="48.126039002090693" lon="-4.217735035344958">
        <ele>96.75</ele>
        <time>2018-07-06T13:59:45Z</time>
      </trkpt>
      <trkpt lat="48.126001032069325" lon="-4.21784601174295">
        <ele>97.230000000000004</ele>
        <time>2018-07-06T13:59:46Z</time>
      </trkpt>
      <trkpt lat="48.125773966312408" lon="-4.218472978100181">
        <ele>99.150000000000006</ele>
        <time>2018-07-06T13:59:52Z</time>
      </trkpt>
      <trkpt lat="48.125725015997887" lon="-4.218556964769959">
        <ele>99.150000000000006</ele>
        <time>2018-07-06T13:59:53Z</time>
      </trkpt>
      <trkpt lat="48.125674976035953" lon="-4.218642963096499">
        <ele>99.150000000000006</ele>
        <time>2018-07-06T13:59:54Z</time>
      </trkpt>
      <trkpt lat="48.125605992972851" lon="-4.218699038028717">
        <ele>99.629999999999995</ele>
        <time>2018-07-06T13:59:55Z</time>
      </trkpt>
      <trkpt lat="48.125533992424607" lon="-4.218758968636394">
        <ele>99.629999999999995</ele>
        <time>2018-07-06T13:59:56Z</time>
      </trkpt>
      <trkpt lat="48.125201985239983" lon="-4.218997014686465">
        <ele>101.08</ele>
        <time>2018-07-06T14:00:01Z</time>
      </trkpt>
      <trkpt lat="48.125125961378217" lon="-4.219035990536213">
        <ele>101.08</ele>
        <time>2018-07-06T14:00:02Z</time>
      </trkpt>
      <trkpt lat="48.125048009678721" lon="-4.21907396055758">
        <ele>100.59999999999999</ele>
        <time>2018-07-06T14:00:03Z</time>
      </trkpt>
      <trkpt lat="48.124971985816956" lon="-4.219112014397979">
        <ele>101.08</ele>
        <time>2018-07-06T14:00:04Z</time>
      </trkpt>
      <trkpt lat="48.124899985268712" lon="-4.219154007732868">
        <ele>101.56</ele>
        <time>2018-07-06T14:00:05Z</time>
      </trkpt>
      <trkpt lat="48.124835025519133" lon="-4.219203041866422">
        <ele>102.04000000000001</ele>
        <time>2018-07-06T14:00:06Z</time>
      </trkpt>
      <trkpt lat="48.124405033886433" lon="-4.219691958278418">
        <ele>101.08</ele>
        <time>2018-07-06T14:00:13Z</time>
      </trkpt>
      <trkpt lat="48.124291962012649" lon="-4.219882981851697">
        <ele>100.59999999999999</ele>
        <time>2018-07-06T14:00:15Z</time>
      </trkpt>
      <trkpt lat="48.124231025576591" lon="-4.219983983784914">
        <ele>100.11</ele>
        <time>2018-07-06T14:00:16Z</time>
      </trkpt>
      <trkpt lat="48.123890971764922" lon="-4.220520006492734">
        <ele>97.709999999999994</ele>
        <time>2018-07-06T14:00:21Z</time>
      </trkpt>
      <trkpt lat="48.123812014237046" lon="-4.22064196318388">
        <ele>97.709999999999994</ele>
        <time>2018-07-06T14:00:22Z</time>
      </trkpt>
      <trkpt lat="48.123008022084832" lon="-4.221959011629224">
        <ele>95.790000000000006</ele>
        <time>2018-07-06T14:00:32Z</time>
      </trkpt>
      <trkpt lat="48.122111996635795" lon="-4.223446967080236">
        <ele>92.420000000000002</ele>
        <time>2018-07-06T14:00:42Z</time>
      </trkpt>
      <trkpt lat="48.121281014755368" lon="-4.225202975794673">
        <ele>90.5</ele>
        <time>2018-07-06T14:00:51Z</time>
      </trkpt>
      <trkpt lat="48.120966022834182" lon="-4.22695797868073">
        <ele>89.540000000000006</ele>
        <time>2018-07-06T14:00:57Z</time>
      </trkpt>
      <trkpt lat="48.120733005926013" lon="-4.229338020086289">
        <ele>87.140000000000001</ele>
        <time>2018-07-06T14:01:04Z</time>
      </trkpt>
      <trkpt lat="48.120118025690317" lon="-4.233243986964226">
        <ele>84.25</ele>
        <time>2018-07-06T14:01:17Z</time>
      </trkpt>
      <trkpt lat="48.119911998510361" lon="-4.234127020463347">
        <ele>83.769999999999996</ele>
        <time>2018-07-06T14:01:20Z</time>
      </trkpt>
      <trkpt lat="48.119794987142086" lon="-4.234389960765839">
        <ele>83.290000000000006</ele>
        <time>2018-07-06T14:01:21Z</time>
      </trkpt>
      <trkpt lat="48.11967495828867" lon="-4.23464996740222">
        <ele>82.810000000000002</ele>
        <time>2018-07-06T14:01:22Z</time>
      </trkpt>
      <trkpt lat="48.119340017437935" lon="-4.235408026725054">
        <ele>81.370000000000005</ele>
        <time>2018-07-06T14:01:25Z</time>
      </trkpt>
      <trkpt lat="48.119258964434266" lon="-4.235693011432886">
        <ele>81.370000000000005</ele>
        <time>2018-07-06T14:01:26Z</time>
      </trkpt>
      <trkpt lat="48.119176989421248" lon="-4.23598101362586">
        <ele>81.370000000000005</ele>
        <time>2018-07-06T14:01:27Z</time>
      </trkpt>
      <trkpt lat="48.118423959240317" lon="-4.238382009789348">
        <ele>80.890000000000001</ele>
        <time>2018-07-06T14:01:36Z</time>
      </trkpt>
      <trkpt lat="48.118307031691074" lon="-4.238629024475813">
        <ele>80.890000000000001</ele>
        <time>2018-07-06T14:01:37Z</time>
      </trkpt>
      <trkpt lat="48.118174010887742" lon="-4.238837985321879">
        <ele>80.409999999999997</ele>
        <time>2018-07-06T14:01:38Z</time>
      </trkpt>
      <trkpt lat="48.118011988699436" lon="-4.239026997238398">
        <ele>79.930000000000007</ele>
        <time>2018-07-06T14:01:39Z</time>
      </trkpt>
      <trkpt lat="48.117834962904453" lon="-4.239176027476788">
        <ele>79.450000000000003</ele>
        <time>2018-07-06T14:01:40Z</time>
      </trkpt>
      <trkpt lat="48.117656009271741" lon="-4.239310976117849">
        <ele>78.969999999999999</ele>
        <time>2018-07-06T14:01:41Z</time>
      </trkpt>
      <trkpt lat="48.117452999576926" lon="-4.239366967231035">
        <ele>78.480000000000004</ele>
        <time>2018-07-06T14:01:42Z</time>
      </trkpt>
      <trkpt lat="48.117253007367253" lon="-4.239414995536208">
        <ele>77.519999999999996</ele>
        <time>2018-07-06T14:01:43Z</time>
      </trkpt>
      <trkpt lat="48.117045974358916" lon="-4.239423964172602">
        <ele>76.560000000000002</ele>
        <time>2018-07-06T14:01:44Z</time>
      </trkpt>
      <trkpt lat="48.116840030997992" lon="-4.239432010799646">
        <ele>75.599999999999994</ele>
        <time>2018-07-06T14:01:45Z</time>
      </trkpt>
      <trkpt lat="48.114570965990424" lon="-4.23952697776258">
        <ele>59.740000000000002</ele>
        <time>2018-07-06T14:01:56Z</time>
      </trkpt>
      <trkpt lat="48.113158028572798" lon="-4.239851022139192">
        <ele>48.68</ele>
        <time>2018-07-06T14:02:03Z</time>
      </trkpt>
      <trkpt lat="48.112077014520764" lon="-4.240932958200574">
        <ele>39.549999999999997</ele>
        <time>2018-07-06T14:02:09Z</time>
      </trkpt>
      <trkpt lat="48.110603978857398" lon="-4.242671029642224">
        <ele>34.259999999999998</ele>
        <time>2018-07-06T14:02:18Z</time>
      </trkpt>
      <trkpt lat="48.108745962381363" lon="-4.244632981717587">
        <ele>55.409999999999997</ele>
        <time>2018-07-06T14:02:29Z</time>
      </trkpt>
      <trkpt lat="48.107177037745714" lon="-4.245272018015385">
        <ele>68.390000000000001</ele>
        <time>2018-07-06T14:02:37Z</time>
      </trkpt>
      <trkpt lat="48.105824030935764" lon="-4.245778033509851">
        <ele>76.079999999999998</ele>
        <time>2018-07-06T14:02:44Z</time>
      </trkpt>
      <trkpt lat="48.10564499348402" lon="-4.245898984372616">
        <ele>77.040000000000006</ele>
        <time>2018-07-06T14:02:45Z</time>
      </trkpt>
      <trkpt lat="48.105474002659321" lon="-4.246051032096148">
        <ele>77.519999999999996</ele>
        <time>2018-07-06T14:02:46Z</time>
      </trkpt>
      <trkpt lat="48.105325978249311" lon="-4.246251024305821">
        <ele>78.480000000000004</ele>
        <time>2018-07-06T14:02:47Z</time>
      </trkpt>
      <trkpt lat="48.105179965496063" lon="-4.246449004858732">
        <ele>78.969999999999999</ele>
        <time>2018-07-06T14:02:48Z</time>
      </trkpt>
      <trkpt lat="48.105051973834634" lon="-4.246664000675082">
        <ele>79.450000000000003</ele>
        <time>2018-07-06T14:02:49Z</time>
      </trkpt>
      <trkpt lat="48.104929011315107" lon="-4.246877990663052">
        <ele>79.930000000000007</ele>
        <time>2018-07-06T14:02:50Z</time>
      </trkpt>
      <trkpt lat="48.103936007246375" lon="-4.248644979670644">
        <ele>82.329999999999998</ele>
        <time>2018-07-06T14:02:59Z</time>
      </trkpt>
      <trkpt lat="48.103355979546905" lon="-4.249685006216168">
        <ele>81.849999999999994</ele>
        <time>2018-07-06T14:03:06Z</time>
      </trkpt>
      <trkpt lat="48.102513011544943" lon="-4.251158041879535">
        <ele>82.329999999999998</ele>
        <time>2018-07-06T14:03:13Z</time>
      </trkpt>
      <trkpt lat="48.102388959378004" lon="-4.251383012160659">
        <ele>81.849999999999994</ele>
        <time>2018-07-06T14:03:14Z</time>
      </trkpt>
      <trkpt lat="48.101222030818462" lon="-4.253075988963246">
        <ele>77.519999999999996</ele>
        <time>2018-07-06T14:03:22Z</time>
      </trkpt>
      <trkpt lat="48.09950097464025" lon="-4.254463026300073">
        <ele>84.25</ele>
        <time>2018-07-06T14:03:31Z</time>
      </trkpt>
      <trkpt lat="48.098029028624296" lon="-4.255473967641592">
        <ele>95.310000000000002</ele>
        <time>2018-07-06T14:03:39Z</time>
      </trkpt>
      <trkpt lat="48.096633022651076" lon="-4.255843022838235">
        <ele>100.59999999999999</ele>
        <time>2018-07-06T14:03:46Z</time>
      </trkpt>
      <trkpt lat="48.095140038058162" lon="-4.256095988675952">
        <ele>106.36</ele>
        <time>2018-07-06T14:03:54Z</time>
      </trkpt>
      <trkpt lat="48.094266979023814" lon="-4.256188021972776">
        <ele>108.29000000000001</ele>
        <time>2018-07-06T14:04:00Z</time>
      </trkpt>
      <trkpt lat="48.094138987362385" lon="-4.256153991445899">
        <ele>108.29000000000001</ele>
        <time>2018-07-06T14:04:01Z</time>
      </trkpt>
      <trkpt lat="48.094022981822491" lon="-4.256116021424532">
        <ele>108.77</ele>
        <time>2018-07-06T14:04:02Z</time>
      </trkpt>
      <trkpt lat="48.093919968232512" lon="-4.256059024482966">
        <ele>108.77</ele>
        <time>2018-07-06T14:04:03Z</time>
      </trkpt>
      <trkpt lat="48.093835981562734" lon="-4.256013007834554">
        <ele>109.25</ele>
        <time>2018-07-06T14:04:04Z</time>
      </trkpt>
      <trkpt lat="48.093777978792787" lon="-4.255979983136058">
        <ele>109.25</ele>
        <time>2018-07-06T14:04:05Z</time>
      </trkpt>
      <trkpt lat="48.0937410145998" lon="-4.25596003420651">
        <ele>109.25</ele>
        <time>2018-07-06T14:04:06Z</time>
      </trkpt>
      <trkpt lat="48.093717964366078" lon="-4.255946958437562">
        <ele>109.25</ele>
        <time>2018-07-06T14:04:07Z</time>
      </trkpt>
      <trkpt lat="48.093622997403145" lon="-4.256010996177793">
        <ele>109.25</ele>
        <time>2018-07-06T14:04:08Z</time>
      </trkpt>
      <trkpt lat="48.093598019331694" lon="-4.256077967584133">
        <ele>109.25</ele>
        <time>2018-07-06T14:04:16Z</time>
      </trkpt>
      <trkpt lat="48.093571029603481" lon="-4.256148040294647">
        <ele>109.25</ele>
        <time>2018-07-06T14:04:17Z</time>
      </trkpt>
      <trkpt lat="48.093535993248224" lon="-4.256239989772439">
        <ele>109.73</ele>
        <time>2018-07-06T14:04:18Z</time>
      </trkpt>
      <trkpt lat="48.093167021870613" lon="-4.257341036573052">
        <ele>107.31999999999999</ele>
        <time>2018-07-06T14:04:26Z</time>
      </trkpt>
      <trkpt lat="48.092745998874307" lon="-4.259050022810698">
        <ele>104.92</ele>
        <time>2018-07-06T14:04:34Z</time>
      </trkpt>
      <trkpt lat="48.092534020543098" lon="-4.260563962161541">
        <ele>102.52</ele>
        <time>2018-07-06T14:04:41Z</time>
      </trkpt>
      <trkpt lat="48.092202013358474" lon="-4.262764966115356">
        <ele>97.709999999999994</ele>
        <time>2018-07-06T14:04:52Z</time>
      </trkpt>
      <trkpt lat="48.091813009232283" lon="-4.264794979244471">
        <ele>94.349999999999994</ele>
        <time>2018-07-06T14:05:04Z</time>
      </trkpt>
      <trkpt lat="48.091758023947477" lon="-4.264917019754648">
        <ele>94.349999999999994</ele>
        <time>2018-07-06T14:05:05Z</time>
      </trkpt>
      <trkpt lat="48.091705972328782" lon="-4.265034031122923">
        <ele>93.870000000000005</ele>
        <time>2018-07-06T14:05:06Z</time>
      </trkpt>
      <trkpt lat="48.091729022562504" lon="-4.265249026939273">
        <ele>93.870000000000005</ele>
        <time>2018-07-06T14:05:07Z</time>
      </trkpt>
      <trkpt lat="48.091643024235964" lon="-4.265398979187012">
        <ele>93.390000000000001</ele>
        <time>2018-07-06T14:05:08Z</time>
      </trkpt>
      <trkpt lat="48.091650987043977" lon="-4.265510961413384">
        <ele>93.390000000000001</ele>
        <time>2018-07-06T14:05:09Z</time>
      </trkpt>
      <trkpt lat="48.091664984822273" lon="-4.265721011906862">
        <ele>92.900000000000006</ele>
        <time>2018-07-06T14:05:10Z</time>
      </trkpt>
      <trkpt lat="48.091646041721106" lon="-4.265880016610026">
        <ele>92.420000000000002</ele>
        <time>2018-07-06T14:05:11Z</time>
      </trkpt>
      <trkpt lat="48.091286038979888" lon="-4.267988987267017">
        <ele>89.540000000000006</ele>
        <time>2018-07-06T14:05:23Z</time>
      </trkpt>
      <trkpt lat="48.091083029285073" lon="-4.269086010754108">
        <ele>87.140000000000001</ele>
        <time>2018-07-06T14:05:32Z</time>
      </trkpt>
      <trkpt lat="48.090849006548524" lon="-4.270505988970399">
        <ele>83.769999999999996</ele>
        <time>2018-07-06T14:05:42Z</time>
      </trkpt>
      <trkpt lat="48.090702993795276" lon="-4.271608041599393">
        <ele>82.810000000000002</ele>
        <time>2018-07-06T14:05:49Z</time>
      </trkpt>
      <trkpt lat="48.090723026543856" lon="-4.271767968311906">
        <ele>82.810000000000002</ele>
        <time>2018-07-06T14:05:50Z</time>
      </trkpt>
      <trkpt lat="48.090741969645023" lon="-4.271922027692199">
        <ele>82.810000000000002</ele>
        <time>2018-07-06T14:05:51Z</time>
      </trkpt>
      <trkpt lat="48.090793015435338" lon="-4.272068962454796">
        <ele>82.810000000000002</ele>
        <time>2018-07-06T14:05:52Z</time>
      </trkpt>
      <trkpt lat="48.090840959921479" lon="-4.272206006571651">
        <ele>82.810000000000002</ele>
        <time>2018-07-06T14:05:53Z</time>
      </trkpt>
      <trkpt lat="48.090887982398272" lon="-4.272341039031744">
        <ele>83.290000000000006</ele>
        <time>2018-07-06T14:05:54Z</time>
      </trkpt>
      <trkpt lat="48.090940034016967" lon="-4.272460984066129">
        <ele>83.290000000000006</ele>
        <time>2018-07-06T14:05:55Z</time>
      </trkpt>
      <trkpt lat="48.091005999594927" lon="-4.272572966292501">
        <ele>83.290000000000006</ele>
        <time>2018-07-06T14:05:56Z</time>
      </trkpt>
      <trkpt lat="48.091138014569879" lon="-4.272800032049418">
        <ele>83.769999999999996</ele>
        <time>2018-07-06T14:05:58Z</time>
      </trkpt>
      <trkpt lat="48.09126902371645" lon="-4.273023996502161">
        <ele>84.730000000000004</ele>
        <time>2018-07-06T14:06:00Z</time>
      </trkpt>
      <trkpt lat="48.091337000951171" lon="-4.273140002042055">
        <ele>84.730000000000004</ele>
        <time>2018-07-06T14:06:01Z</time>
      </trkpt>
      <trkpt lat="48.09157001785934" lon="-4.27362497895956">
        <ele>85.209999999999994</ele>
        <time>2018-07-06T14:06:05Z</time>
      </trkpt>
      <trkpt lat="48.091605976223946" lon="-4.273768980056047">
        <ele>85.689999999999998</ele>
        <time>2018-07-06T14:06:06Z</time>
      </trkpt>
      <trkpt lat="48.091647969558835" lon="-4.274087995290756">
        <ele>85.209999999999994</ele>
        <time>2018-07-06T14:06:08Z</time>
      </trkpt>
      <trkpt lat="48.091853996738791" lon="-4.276063023135066">
        <ele>83.769999999999996</ele>
        <time>2018-07-06T14:06:19Z</time>
      </trkpt>
      <trkpt lat="48.092128001153469" lon="-4.278279030695558">
        <ele>82.810000000000002</ele>
        <time>2018-07-06T14:06:29Z</time>
      </trkpt>
      <trkpt lat="48.092204025015235" lon="-4.278507018461824">
        <ele>82.810000000000002</ele>
        <time>2018-07-06T14:06:30Z</time>
      </trkpt>
      <trkpt lat="48.092297986149788" lon="-4.278745986521244">
        <ele>82.329999999999998</ele>
        <time>2018-07-06T14:06:31Z</time>
      </trkpt>
      <trkpt lat="48.092396976426244" lon="-4.278995012864471">
        <ele>82.329999999999998</ele>
        <time>2018-07-06T14:06:32Z</time>
      </trkpt>
      <trkpt lat="48.092502001672983" lon="-4.279260970652103">
        <ele>81.849999999999994</ele>
        <time>2018-07-06T14:06:33Z</time>
      </trkpt>
      <trkpt lat="48.093496011570096" lon="-4.280939027667046">
        <ele>77.519999999999996</ele>
        <time>2018-07-06T14:06:40Z</time>
      </trkpt>
      <trkpt lat="48.0941710062325" lon="-4.282365962862968">
        <ele>69.349999999999994</ele>
        <time>2018-07-06T14:06:47Z</time>
      </trkpt>
      <trkpt lat="48.094448028132319" lon="-4.283141037449241">
        <ele>65.030000000000001</ele>
        <time>2018-07-06T14:06:51Z</time>
      </trkpt>
      <trkpt lat="48.094497984275222" lon="-4.28335796110332">
        <ele>64.069999999999993</ele>
        <time>2018-07-06T14:06:52Z</time>
      </trkpt>
      <trkpt lat="48.094503013417125" lon="-4.283597012981772">
        <ele>63.100000000000001</ele>
        <time>2018-07-06T14:06:53Z</time>
      </trkpt>
      <trkpt lat="48.094511982053518" lon="-4.284096993505955">
        <ele>60.700000000000003</ele>
        <time>2018-07-06T14:06:55Z</time>
      </trkpt>
      <trkpt lat="48.094517011195421" lon="-4.284355994313955">
        <ele>59.740000000000002</ele>
        <time>2018-07-06T14:06:56Z</time>
      </trkpt>
      <trkpt lat="48.094546012580395" lon="-4.284604014828801">
        <ele>58.780000000000001</ele>
        <time>2018-07-06T14:06:57Z</time>
      </trkpt>
      <trkpt lat="48.094584988430142" lon="-4.284843988716602">
        <ele>57.82</ele>
        <time>2018-07-06T14:06:58Z</time>
      </trkpt>
      <trkpt lat="48.094622036442161" lon="-4.285073988139629">
        <ele>56.859999999999999</ele>
        <time>2018-07-06T14:06:59Z</time>
      </trkpt>
      <trkpt lat="48.094733012840152" lon="-4.285945035517216">
        <ele>52.530000000000001</ele>
        <time>2018-07-06T14:07:03Z</time>
      </trkpt>
      <trkpt lat="48.094733012840152" lon="-4.286160031333566">
        <ele>51.57</ele>
        <time>2018-07-06T14:07:04Z</time>
      </trkpt>
      <trkpt lat="48.094713985919952" lon="-4.28636496886611">
        <ele>50.609999999999999</ele>
        <time>2018-07-06T14:07:05Z</time>
      </trkpt>
      <trkpt lat="48.094667969271541" lon="-4.286564961075783">
        <ele>49.649999999999999</ele>
        <time>2018-07-06T14:07:06Z</time>
      </trkpt>
      <trkpt lat="48.094622036442161" lon="-4.286768976598978">
        <ele>49.159999999999997</ele>
        <time>2018-07-06T14:07:07Z</time>
      </trkpt>
      <trkpt lat="48.094570990651846" lon="-4.286968968808651">
        <ele>48.200000000000003</ele>
        <time>2018-07-06T14:07:08Z</time>
      </trkpt>
      <trkpt lat="48.094491027295589" lon="-4.287152029573917">
        <ele>47.240000000000002</ele>
        <time>2018-07-06T14:07:09Z</time>
      </trkpt>
      <trkpt lat="48.09440896846354" lon="-4.287337018176913">
        <ele>46.280000000000001</ele>
        <time>2018-07-06T14:07:10Z</time>
      </trkpt>
      <trkpt lat="48.094320958480239" lon="-4.287505997344852">
        <ele>45.799999999999997</ele>
        <time>2018-07-06T14:07:11Z</time>
      </trkpt>
      <trkpt lat="48.094202019274235" lon="-4.287628037855029">
        <ele>45.32</ele>
        <time>2018-07-06T14:07:12Z</time>
      </trkpt>
      <trkpt lat="48.094084002077579" lon="-4.287749994546175">
        <ele>44.359999999999999</ele>
        <time>2018-07-06T14:07:13Z</time>
      </trkpt>
      <trkpt lat="48.093963973224163" lon="-4.287873962894082">
        <ele>43.880000000000003</ele>
        <time>2018-07-06T14:07:14Z</time>
      </trkpt>
      <trkpt lat="48.093474972993135" lon="-4.288307977840304">
        <ele>40.990000000000002</ele>
        <time>2018-07-06T14:07:18Z</time>
      </trkpt>
      <trkpt lat="48.093345975503325" lon="-4.288391964510083">
        <ele>40.030000000000001</ele>
        <time>2018-07-06T14:07:19Z</time>
      </trkpt>
      <trkpt lat="48.09247300028801" lon="-4.289009962230921">
        <ele>35.710000000000001</ele>
        <time>2018-07-06T14:07:26Z</time>
      </trkpt>
      <trkpt lat="48.092379039153457" lon="-4.289138037711382">
        <ele>35.229999999999997</ele>
        <time>2018-07-06T14:07:27Z</time>
      </trkpt>
      <trkpt lat="48.092282982543111" lon="-4.289292013272643">
        <ele>34.259999999999998</ele>
        <time>2018-07-06T14:07:28Z</time>
      </trkpt>
      <trkpt lat="48.092222968116403" lon="-4.289388991892338">
        <ele>33.780000000000001</ele>
        <time>2018-07-06T14:07:29Z</time>
      </trkpt>
      <trkpt lat="48.09213001281023" lon="-4.289626032114029">
        <ele>32.82</ele>
        <time>2018-07-06T14:07:30Z</time>
      </trkpt>
      <trkpt lat="48.092030016705394" lon="-4.289882015436888">
        <ele>31.859999999999999</ele>
        <time>2018-07-06T14:07:31Z</time>
      </trkpt>
      <trkpt lat="48.091816026717424" lon="-4.290557010099292">
        <ele>28.02</ele>
        <time>2018-07-06T14:07:35Z</time>
      </trkpt>
      <trkpt lat="48.091758023947477" lon="-4.290738981217146">
        <ele>27.530000000000001</ele>
        <time>2018-07-06T14:07:36Z</time>
      </trkpt>
      <trkpt lat="48.091737991198897" lon="-4.290930004790425">
        <ele>26.57</ele>
        <time>2018-07-06T14:07:37Z</time>
      </trkpt>
      <trkpt lat="48.091706978157163" lon="-4.291344992816448">
        <ele>25.609999999999999</ele>
        <time>2018-07-06T14:07:39Z</time>
      </trkpt>
      <trkpt lat="48.091723993420601" lon="-4.291965002194047">
        <ele>23.690000000000001</ele>
        <time>2018-07-06T14:07:42Z</time>
      </trkpt>
      <trkpt lat="48.091745031997561" lon="-4.292167006060481">
        <ele>23.210000000000001</ele>
        <time>2018-07-06T14:07:43Z</time>
      </trkpt>
      <trkpt lat="48.092226991429925" lon="-4.294238006696105">
        <ele>20.32</ele>
        <time>2018-07-06T14:07:54Z</time>
      </trkpt>
      <trkpt lat="48.092298991978168" lon="-4.294617958366871">
        <ele>19.359999999999999</ele>
        <time>2018-07-06T14:07:56Z</time>
      </trkpt>
      <trkpt lat="48.092330005019903" lon="-4.294816022738814">
        <ele>18.879999999999999</ele>
        <time>2018-07-06T14:07:57Z</time>
      </trkpt>
      <trkpt lat="48.092330005019903" lon="-4.295020960271359">
        <ele>18.399999999999999</ele>
        <time>2018-07-06T14:07:58Z</time>
      </trkpt>
      <trkpt lat="48.092330005019903" lon="-4.295230004936457">
        <ele>17.920000000000002</ele>
        <time>2018-07-06T14:07:59Z</time>
      </trkpt>
      <trkpt lat="48.092330005019903" lon="-4.295435026288033">
        <ele>16.48</ele>
        <time>2018-07-06T14:08:00Z</time>
      </trkpt>
      <trkpt lat="48.092266973108053" lon="-4.295808020979166">
        <ele>14.08</ele>
        <time>2018-07-06T14:08:02Z</time>
      </trkpt>
      <trkpt lat="48.092042002826929" lon="-4.296511011198163">
        <ele>10.23</ele>
        <time>2018-07-06T14:08:06Z</time>
      </trkpt>
      <trkpt lat="48.091978970915079" lon="-4.296647971495986">
        <ele>9.75</ele>
        <time>2018-07-06T14:08:07Z</time>
      </trkpt>
      <trkpt lat="48.091921973973513" lon="-4.296770012006164">
        <ele>9.27</ele>
        <time>2018-07-06T14:08:08Z</time>
      </trkpt>
      <trkpt lat="48.091852990910411" lon="-4.296863973140717">
        <ele>8.789999999999999</ele>
        <time>2018-07-06T14:08:09Z</time>
      </trkpt>
      <trkpt lat="48.091787025332451" lon="-4.296952988952398">
        <ele>8.789999999999999</ele>
        <time>2018-07-06T14:08:10Z</time>
      </trkpt>
      <trkpt lat="48.091720975935459" lon="-4.297043010592461">
        <ele>8.310000000000001</ele>
        <time>2018-07-06T14:08:11Z</time>
      </trkpt>
      <trkpt lat="48.090837020426989" lon="-4.298069039359689">
        <ele>12.15</ele>
        <time>2018-07-06T14:08:23Z</time>
      </trkpt>
      <trkpt lat="48.090609032660723" lon="-4.298355029895902">
        <ele>13.6</ele>
        <time>2018-07-06T14:08:26Z</time>
      </trkpt>
      <trkpt lat="48.09054197743535" lon="-4.298469023779035">
        <ele>14.08</ele>
        <time>2018-07-06T14:08:27Z</time>
      </trkpt>
      <trkpt lat="48.09047601185739" lon="-4.298584023490548">
        <ele>14.56</ele>
        <time>2018-07-06T14:08:28Z</time>
      </trkpt>
      <trkpt lat="48.090376015752554" lon="-4.298819974064827">
        <ele>15.52</ele>
        <time>2018-07-06T14:08:30Z</time>
      </trkpt>
      <trkpt lat="48.090338967740536" lon="-4.298938997089863">
        <ele>16</ele>
        <time>2018-07-06T14:08:31Z</time>
      </trkpt>
      <trkpt lat="48.09028398245573" lon="-4.299133038148284">
        <ele>16.960000000000001</ele>
        <time>2018-07-06T14:08:33Z</time>
      </trkpt>
      <trkpt lat="48.090267973020673" lon="-4.299228005111218">
        <ele>17.920000000000002</ele>
        <time>2018-07-06T14:08:34Z</time>
      </trkpt>
      <trkpt lat="48.090140987187624" lon="-4.300439022481442">
        <ele>24.170000000000002</ele>
        <time>2018-07-06T14:08:43Z</time>
      </trkpt>
      <trkpt lat="48.090102011337876" lon="-4.30106196552515">
        <ele>28.02</ele>
        <time>2018-07-06T14:08:47Z</time>
      </trkpt>
      <trkpt lat="48.090076027438045" lon="-4.301213007420301">
        <ele>28.98</ele>
        <time>2018-07-06T14:08:48Z</time>
      </trkpt>
      <trkpt lat="48.090036967769265" lon="-4.30135902017355">
        <ele>29.940000000000001</ele>
        <time>2018-07-06T14:08:49Z</time>
      </trkpt>
      <trkpt lat="48.089997991919518" lon="-4.301507966592908">
        <ele>30.420000000000002</ele>
        <time>2018-07-06T14:08:50Z</time>
      </trkpt>
      <trkpt lat="48.089949041604996" lon="-4.301648028194904">
        <ele>31.379999999999999</ele>
        <time>2018-07-06T14:08:51Z</time>
      </trkpt>
      <trkpt lat="48.08989598415792" lon="-4.301792029291391">
        <ele>32.340000000000003</ele>
        <time>2018-07-06T14:08:52Z</time>
      </trkpt>
      <trkpt lat="48.089111018925905" lon="-4.30352901108563">
        <ele>43.880000000000003</ele>
        <time>2018-07-06T14:09:04Z</time>
      </trkpt>
      <trkpt lat="48.088287999853492" lon="-4.304501982405782">
        <ele>51.57</ele>
        <time>2018-07-06T14:09:13Z</time>
      </trkpt>
      <trkpt lat="48.088114997372031" lon="-4.304751008749008">
        <ele>52.530000000000001</ele>
        <time>2018-07-06T14:09:15Z</time>
      </trkpt>
      <trkpt lat="48.088041990995407" lon="-4.304896015673876">
        <ele>53.490000000000002</ele>
        <time>2018-07-06T14:09:16Z</time>
      </trkpt>
      <trkpt lat="48.087984994053841" lon="-4.305056026205421">
        <ele>53.969999999999999</ele>
        <time>2018-07-06T14:09:17Z</time>
      </trkpt>
      <trkpt lat="48.087866976857185" lon="-4.305395996198058">
        <ele>55.890000000000001</ele>
        <time>2018-07-06T14:09:19Z</time>
      </trkpt>
      <trkpt lat="48.087780978530645" lon="-4.305853983387351">
        <ele>58.299999999999997</ele>
        <time>2018-07-06T14:09:22Z</time>
      </trkpt>
      <trkpt lat="48.087790030986071" lon="-4.305984992533922">
        <ele>59.740000000000002</ele>
        <time>2018-07-06T14:09:23Z</time>
      </trkpt>
      <trkpt lat="48.087808974087238" lon="-4.306097980588675">
        <ele>60.219999999999999</ele>
        <time>2018-07-06T14:09:24Z</time>
      </trkpt>
      <trkpt lat="48.087823977693915" lon="-4.306190013885498">
        <ele>61.18</ele>
        <time>2018-07-06T14:09:25Z</time>
      </trkpt>
      <trkpt lat="48.087756000459194" lon="-4.306298978626728">
        <ele>62.140000000000001</ele>
        <time>2018-07-06T14:09:26Z</time>
      </trkpt>
      <trkpt lat="48.087701015174389" lon="-4.30640802718699">
        <ele>63.100000000000001</ele>
        <time>2018-07-06T14:09:27Z</time>
      </trkpt>
      <trkpt lat="48.08766002766788" lon="-4.306531995534897">
        <ele>64.069999999999993</ele>
        <time>2018-07-06T14:09:28Z</time>
      </trkpt>
      <trkpt lat="48.087614011019468" lon="-4.306669039651752">
        <ele>65.510000000000005</ele>
        <time>2018-07-06T14:09:29Z</time>
      </trkpt>
      <trkpt lat="48.087564976885915" lon="-4.30681798607111">
        <ele>66.469999999999999</ele>
        <time>2018-07-06T14:09:30Z</time>
      </trkpt>
      <trkpt lat="48.087174966931343" lon="-4.307906040921807">
        <ele>75.599999999999994</ele>
        <time>2018-07-06T14:09:37Z</time>
      </trkpt>
      <trkpt lat="48.087119981646538" lon="-4.308066973462701">
        <ele>76.560000000000002</ele>
        <time>2018-07-06T14:09:38Z</time>
      </trkpt>
      <trkpt lat="48.087066002190113" lon="-4.308228995651007">
        <ele>77.519999999999996</ele>
        <time>2018-07-06T14:09:39Z</time>
      </trkpt>
      <trkpt lat="48.087032977491617" lon="-4.308394035324454">
        <ele>78.480000000000004</ele>
        <time>2018-07-06T14:09:40Z</time>
      </trkpt>
      <trkpt lat="48.087007999420166" lon="-4.308565026149154">
        <ele>79.450000000000003</ele>
        <time>2018-07-06T14:09:41Z</time>
      </trkpt>
      <trkpt lat="48.086814964190125" lon="-4.309559036046267">
        <ele>80.409999999999997</ele>
        <time>2018-07-06T14:09:47Z</time>
      </trkpt>
      <trkpt lat="48.086705999448895" lon="-4.309818036854267">
        <ele>79.930000000000007</ele>
        <time>2018-07-06T14:09:49Z</time>
      </trkpt>
      <trkpt lat="48.085847022011876" lon="-4.311239020898938">
        <ele>78.969999999999999</ele>
        <time>2018-07-06T14:10:00Z</time>
      </trkpt>
      <trkpt lat="48.085759012028575" lon="-4.311359971761704">
        <ele>78.480000000000004</ele>
        <time>2018-07-06T14:10:01Z</time>
      </trkpt>
      <trkpt lat="48.085669996216893" lon="-4.311483018100262">
        <ele>77.040000000000006</ele>
        <time>2018-07-06T14:10:02Z</time>
      </trkpt>
      <trkpt lat="48.084733989089727" lon="-4.312755977734923">
        <ele>66.950000000000003</ele>
        <time>2018-07-06T14:10:13Z</time>
      </trkpt>
      <trkpt lat="48.084691995754838" lon="-4.312969967722893">
        <ele>66.469999999999999</ele>
        <time>2018-07-06T14:10:14Z</time>
      </trkpt>
      <trkpt lat="48.084570039063692" lon="-4.312968961894512">
        <ele>65.510000000000005</ele>
        <time>2018-07-06T14:10:15Z</time>
      </trkpt>
      <trkpt lat="48.083860008046031" lon="-4.313962971791625">
        <ele>60.219999999999999</ele>
        <time>2018-07-06T14:10:23Z</time>
      </trkpt>
      <trkpt lat="48.082865998148918" lon="-4.31530499830842">
        <ele>56.369999999999997</ele>
        <time>2018-07-06T14:10:35Z</time>
      </trkpt>
      <trkpt lat="48.08276298455894" lon="-4.315523011609912">
        <ele>55.890000000000001</ele>
        <time>2018-07-06T14:10:37Z</time>
      </trkpt>
      <trkpt lat="48.08271998539567" lon="-4.31562501937151">
        <ele>55.890000000000001</ele>
        <time>2018-07-06T14:10:38Z</time>
      </trkpt>
      <trkpt lat="48.082705987617373" lon="-4.315737001597881">
        <ele>56.369999999999997</ele>
        <time>2018-07-06T14:10:39Z</time>
      </trkpt>
      <trkpt lat="48.082696013152599" lon="-4.315861975774169">
        <ele>56.369999999999997</ele>
        <time>2018-07-06T14:10:40Z</time>
      </trkpt>
      <trkpt lat="48.082696013152599" lon="-4.315993990749121">
        <ele>56.859999999999999</ele>
        <time>2018-07-06T14:10:41Z</time>
      </trkpt>
      <trkpt lat="48.082677992060781" lon="-4.316172022372484">
        <ele>57.340000000000003</ele>
        <time>2018-07-06T14:10:42Z</time>
      </trkpt>
      <trkpt lat="48.082617977634072" lon="-4.316261960193515">
        <ele>57.82</ele>
        <time>2018-07-06T14:10:43Z</time>
      </trkpt>
      <trkpt lat="48.082513958215714" lon="-4.316339995712042">
        <ele>58.780000000000001</ele>
        <time>2018-07-06T14:10:44Z</time>
      </trkpt>
      <trkpt lat="48.082438018172979" lon="-4.316339995712042">
        <ele>58.780000000000001</ele>
        <time>2018-07-06T14:10:45Z</time>
      </trkpt>
      <trkpt lat="48.082324024289846" lon="-4.316319962963462">
        <ele>58.299999999999997</ele>
        <time>2018-07-06T14:10:46Z</time>
      </trkpt>
      <trkpt lat="48.08222402818501" lon="-4.316345024853945">
        <ele>58.299999999999997</ele>
        <time>2018-07-06T14:10:47Z</time>
      </trkpt>
      <trkpt lat="48.082123026251793" lon="-4.316370002925396">
        <ele>57.82</ele>
        <time>2018-07-06T14:10:48Z</time>
      </trkpt>
      <trkpt lat="48.082019006833434" lon="-4.31646203622222">
        <ele>57.340000000000003</ele>
        <time>2018-07-06T14:10:49Z</time>
      </trkpt>
      <trkpt lat="48.081939965486526" lon="-4.316578041762114">
        <ele>56.859999999999999</ele>
        <time>2018-07-06T14:10:50Z</time>
      </trkpt>
      <trkpt lat="48.081858996301889" lon="-4.316696980968118">
        <ele>56.369999999999997</ele>
        <time>2018-07-06T14:10:51Z</time>
      </trkpt>
      <trkpt lat="48.081775009632111" lon="-4.316821033135057">
        <ele>55.890000000000001</ele>
        <time>2018-07-06T14:10:52Z</time>
      </trkpt>
      <trkpt lat="48.080747975036502" lon="-4.318235982209444">
        <ele>49.649999999999999</ele>
        <time>2018-07-06T14:11:03Z</time>
      </trkpt>
      <trkpt lat="48.080428037792444" lon="-4.318815004080534">
        <ele>45.799999999999997</ele>
        <time>2018-07-06T14:11:07Z</time>
      </trkpt>
      <trkpt lat="48.080375986173749" lon="-4.318979037925601">
        <ele>44.359999999999999</ele>
        <time>2018-07-06T14:11:08Z</time>
      </trkpt>
      <trkpt lat="48.080328041687608" lon="-4.319147011265159">
        <ele>42.920000000000002</ele>
        <time>2018-07-06T14:11:09Z</time>
      </trkpt>
      <trkpt lat="48.080294011160731" lon="-4.319328982383013">
        <ele>40.990000000000002</ele>
        <time>2018-07-06T14:11:10Z</time>
      </trkpt>
      <trkpt lat="48.080257968977094" lon="-4.319517994299531">
        <ele>39.549999999999997</ele>
        <time>2018-07-06T14:11:11Z</time>
      </trkpt>
      <trkpt lat="48.080104999244213" lon="-4.320273958146572">
        <ele>32.82</ele>
        <time>2018-07-06T14:11:15Z</time>
      </trkpt>
      <trkpt lat="48.080045990645885" lon="-4.320446960628033">
        <ele>31.379999999999999</ele>
        <time>2018-07-06T14:11:16Z</time>
      </trkpt>
      <trkpt lat="48.0799709726125" lon="-4.320618035271764">
        <ele>30.420000000000002</ele>
        <time>2018-07-06T14:11:17Z</time>
      </trkpt>
      <trkpt lat="48.079888997599483" lon="-4.320779973641038">
        <ele>28.98</ele>
        <time>2018-07-06T14:11:18Z</time>
      </trkpt>
      <trkpt lat="48.07979503646493" lon="-4.320937972515822">
        <ele>27.530000000000001</ele>
        <time>2018-07-06T14:11:19Z</time>
      </trkpt>
      <trkpt lat="48.079292960464954" lon="-4.321708017960191">
        <ele>22.25</ele>
        <time>2018-07-06T14:11:26Z</time>
      </trkpt>
      <trkpt lat="48.079261025413871" lon="-4.321755040436983">
        <ele>21.77</ele>
        <time>2018-07-06T14:11:27Z</time>
      </trkpt>
      <trkpt lat="48.07923998683691" lon="-4.321785969659686">
        <ele>21.289999999999999</ele>
        <time>2018-07-06T14:11:28Z</time>
      </trkpt>
      <trkpt lat="48.079229006543756" lon="-4.321801979094744">
        <ele>20.32</ele>
        <time>2018-07-06T14:11:29Z</time>
      </trkpt>
      <trkpt lat="48.079219032078981" lon="-4.32181597687304">
        <ele>19.84</ele>
        <time>2018-07-06T14:11:30Z</time>
      </trkpt>
      <trkpt lat="48.079219032078981" lon="-4.32181597687304">
        <ele>19.359999999999999</ele>
        <time>2018-07-06T14:11:45Z</time>
      </trkpt>
      <trkpt lat="48.079106966033578" lon="-4.321981016546488">
        <ele>19.84</ele>
        <time>2018-07-06T14:12:08Z</time>
      </trkpt>
      <trkpt lat="48.079056004062295" lon="-4.322101967409253">
        <ele>20.809999999999999</ele>
        <time>2018-07-06T14:12:20Z</time>
      </trkpt>
      <trkpt lat="48.07902499102056" lon="-4.322191989049316">
        <ele>18.879999999999999</ele>
        <time>2018-07-06T14:12:33Z</time>
      </trkpt>
      <trkpt lat="48.078995989635587" lon="-4.322272958233953">
        <ele>18.399999999999999</ele>
        <time>2018-07-06T14:12:42Z</time>
      </trkpt>
      <trkpt lat="48.079000012949109" lon="-4.322429029271007">
        <ele>17.920000000000002</ele>
        <time>2018-07-06T14:12:44Z</time>
      </trkpt>
      <trkpt lat="48.07904502376914" lon="-4.32250102981925">
        <ele>17.920000000000002</ele>
        <time>2018-07-06T14:12:45Z</time>
      </trkpt>
      <trkpt lat="48.079101014882326" lon="-4.3225899618119">
        <ele>17.920000000000002</ele>
        <time>2018-07-06T14:12:46Z</time>
      </trkpt>
      <trkpt lat="48.079717000946403" lon="-4.323571985587478">
        <ele>16</ele>
        <time>2018-07-06T14:12:54Z</time>
      </trkpt>
      <trkpt lat="48.080428037792444" lon="-4.324703961610794">
        <ele>14.56</ele>
        <time>2018-07-06T14:13:03Z</time>
      </trkpt>
      <trkpt lat="48.080489980056882" lon="-4.324857015162706">
        <ele>14.56</ele>
        <time>2018-07-06T14:13:04Z</time>
      </trkpt>
      <trkpt lat="48.08054898865521" lon="-4.325014008209109">
        <ele>14.08</ele>
        <time>2018-07-06T14:13:05Z</time>
      </trkpt>
      <trkpt lat="48.080640016123652" lon="-4.325516000390053">
        <ele>13.119999999999999</ele>
        <time>2018-07-06T14:13:08Z</time>
      </trkpt>
      <trkpt lat="48.080653008073568" lon="-4.32585496455431">
        <ele>12.630000000000001</ele>
        <time>2018-07-06T14:13:10Z</time>
      </trkpt>
      <trkpt lat="48.08072098530829" lon="-4.326296020299196">
        <ele>12.630000000000001</ele>
        <time>2018-07-06T14:13:14Z</time>
      </trkpt>
      <trkpt lat="48.080756021663547" lon="-4.326356034725905">
        <ele>12.630000000000001</ele>
        <time>2018-07-06T14:13:15Z</time>
      </trkpt>
      <trkpt lat="48.080797009170055" lon="-4.326427029445767">
        <ele>12.630000000000001</ele>
        <time>2018-07-06T14:13:16Z</time>
      </trkpt>
      <trkpt lat="48.080842019990087" lon="-4.326491989195347">
        <ele>12.630000000000001</ele>
        <time>2018-07-06T14:13:17Z</time>
      </trkpt>
      <trkpt lat="48.080884013324976" lon="-4.326607994735241">
        <ele>12.630000000000001</ele>
        <time>2018-07-06T14:13:18Z</time>
      </trkpt>
      <trkpt lat="48.080901028588414" lon="-4.326707990840077">
        <ele>12.630000000000001</ele>
        <time>2018-07-06T14:13:19Z</time>
      </trkpt>
      <trkpt lat="48.080894993618131" lon="-4.326843023300171">
        <ele>12.630000000000001</ele>
        <time>2018-07-06T14:13:20Z</time>
      </trkpt>
      <trkpt lat="48.080860963091254" lon="-4.326940001919866">
        <ele>12.630000000000001</ele>
        <time>2018-07-06T14:13:21Z</time>
      </trkpt>
      <trkpt lat="48.080826010555029" lon="-4.327038992196322">
        <ele>12.630000000000001</ele>
        <time>2018-07-06T14:13:22Z</time>
      </trkpt>
      <trkpt lat="48.080746969208121" lon="-4.327095989137888">
        <ele>12.15</ele>
        <time>2018-07-06T14:13:23Z</time>
      </trkpt>
      <trkpt lat="48.080666000023484" lon="-4.327104035764933">
        <ele>12.15</ele>
        <time>2018-07-06T14:13:24Z</time>
      </trkpt>
      <trkpt lat="48.080567009747028" lon="-4.327128008008003">
        <ele>12.15</ele>
        <time>2018-07-06T14:13:25Z</time>
      </trkpt>
      <trkpt lat="48.08039995841682" lon="-4.327239990234375">
        <ele>11.67</ele>
        <time>2018-07-06T14:13:27Z</time>
      </trkpt>
      <trkpt lat="48.080327035859227" lon="-4.327329006046057">
        <ele>11.19</ele>
        <time>2018-07-06T14:13:28Z</time>
      </trkpt>
      <trkpt lat="48.080262998118997" lon="-4.327407963573933">
        <ele>11.19</ele>
        <time>2018-07-06T14:13:29Z</time>
      </trkpt>
      <trkpt lat="48.080198960378766" lon="-4.327498991042376">
        <ele>10.710000000000001</ele>
        <time>2018-07-06T14:13:30Z</time>
      </trkpt>
      <trkpt lat="48.080159984529018" lon="-4.327609967440367">
        <ele>10.710000000000001</ele>
        <time>2018-07-06T14:13:31Z</time>
      </trkpt>
      <trkpt lat="48.08012000285089" lon="-4.327725972980261">
        <ele>10.710000000000001</ele>
        <time>2018-07-06T14:13:32Z</time>
      </trkpt>
      <trkpt lat="48.079987987875938" lon="-4.328099973499775">
        <ele>10.710000000000001</ele>
        <time>2018-07-06T14:13:38Z</time>
      </trkpt>
      <trkpt lat="48.079867959022522" lon="-4.32841002009809">
        <ele>10.710000000000001</ele>
        <time>2018-07-06T14:13:45Z</time>
      </trkpt>
      <trkpt lat="48.079848010092974" lon="-4.328462993726134">
        <ele>11.19</ele>
        <time>2018-07-06T14:13:46Z</time>
      </trkpt>
      <trkpt lat="48.079653969034553" lon="-4.328963980078697">
        <ele>11.19</ele>
        <time>2018-07-06T14:13:54Z</time>
      </trkpt>
      <trkpt lat="48.079649023711681" lon="-4.328977977856994">
        <ele>11.19</ele>
        <time>2018-07-06T14:13:55Z</time>
      </trkpt>
      <trkpt lat="48.079649023711681" lon="-4.328977977856994">
        <ele>10.710000000000001</ele>
        <time>2018-07-06T14:13:56Z</time>
      </trkpt>
      <trkpt lat="48.079336965456605" lon="-4.329866962507367">
        <ele>10.23</ele>
        <time>2018-07-06T14:14:04Z</time>
      </trkpt>
      <trkpt lat="48.079311987385154" lon="-4.329942986369133">
        <ele>10.23</ele>
        <time>2018-07-06T14:14:05Z</time>
      </trkpt>
      <trkpt lat="48.079369990155101" lon="-4.330094028264284">
        <ele>10.23</ele>
        <time>2018-07-06T14:14:06Z</time>
      </trkpt>
      <trkpt lat="48.079369990155101" lon="-4.330134009942412">
        <ele>10.23</ele>
        <time>2018-07-06T14:14:07Z</time>
      </trkpt>
      <trkpt lat="48.079341994598508" lon="-4.330293014645577">
        <ele>10.23</ele>
        <time>2018-07-06T14:14:08Z</time>
      </trkpt>
      <trkpt lat="48.079283991828561" lon="-4.330351017415524">
        <ele>10.23</ele>
        <time>2018-07-06T14:14:09Z</time>
      </trkpt>
      <trkpt lat="48.079176032915711" lon="-4.330395022407174">
        <ele>10.23</ele>
        <time>2018-07-06T14:14:10Z</time>
      </trkpt>
      <trkpt lat="48.079134039580822" lon="-4.330522008240223">
        <ele>9.75</ele>
        <time>2018-07-06T14:14:11Z</time>
      </trkpt>
      <trkpt lat="48.079086011275649" lon="-4.330657040700316">
        <ele>9.75</ele>
        <time>2018-07-06T14:14:12Z</time>
      </trkpt>
      <trkpt lat="48.078945027664304" lon="-4.3312450312078">
        <ele>9.75</ele>
        <time>2018-07-06T14:14:16Z</time>
      </trkpt>
      <trkpt lat="48.078933963552117" lon="-4.3313969951123">
        <ele>9.75</ele>
        <time>2018-07-06T14:14:17Z</time>
      </trkpt>
      <trkpt lat="48.078923989087343" lon="-4.331551976501942">
        <ele>9.75</ele>
        <time>2018-07-06T14:14:18Z</time>
      </trkpt>
      <trkpt lat="48.079005964100361" lon="-4.333130037412047">
        <ele>12.15</ele>
        <time>2018-07-06T14:14:28Z</time>
      </trkpt>
      <trkpt lat="48.079041000455618" lon="-4.333778964355588">
        <ele>13.119999999999999</ele>
        <time>2018-07-06T14:14:32Z</time>
      </trkpt>
      <trkpt lat="48.079048963263631" lon="-4.333942998200655">
        <ele>13.119999999999999</ele>
        <time>2018-07-06T14:14:33Z</time>
      </trkpt>
      <trkpt lat="48.079081987962127" lon="-4.335362976416946">
        <ele>14.08</ele>
        <time>2018-07-06T14:14:42Z</time>
      </trkpt>
      <trkpt lat="48.079063966870308" lon="-4.335518041625619">
        <ele>14.08</ele>
        <time>2018-07-06T14:14:43Z</time>
      </trkpt>
      <trkpt lat="48.079048041254282" lon="-4.33565097860992">
        <ele>14.08</ele>
        <time>2018-07-06T14:14:44Z</time>
      </trkpt>
      <trkpt lat="48.078977968543768" lon="-4.33578098192811">
        <ele>14.08</ele>
        <time>2018-07-06T14:14:45Z</time>
      </trkpt>
      <trkpt lat="48.07891502045095" lon="-4.335896987468004">
        <ele>14.08</ele>
        <time>2018-07-06T14:14:46Z</time>
      </trkpt>
      <trkpt lat="48.078850982710719" lon="-4.336017016321421">
        <ele>14.08</ele>
        <time>2018-07-06T14:14:47Z</time>
      </trkpt>
      <trkpt lat="48.07878602296114" lon="-4.336137967184186">
        <ele>14.08</ele>
        <time>2018-07-06T14:14:48Z</time>
      </trkpt>
      <trkpt lat="48.078709999099374" lon="-4.336241986602545">
        <ele>14.08</ele>
        <time>2018-07-06T14:14:49Z</time>
      </trkpt>
      <trkpt lat="48.07861695997417" lon="-4.336323961615562">
        <ele>14.56</ele>
        <time>2018-07-06T14:14:50Z</time>
      </trkpt>
      <trkpt lat="48.078526016324759" lon="-4.33640300296247">
        <ele>15.039999999999999</ele>
        <time>2018-07-06T14:14:51Z</time>
      </trkpt>
      <trkpt lat="48.078232984989882" lon="-4.336533006280661">
        <ele>16.48</ele>
        <time>2018-07-06T14:14:54Z</time>
      </trkpt>
      <trkpt lat="48.078127959743142" lon="-4.336548009887338">
        <ele>16.960000000000001</ele>
        <time>2018-07-06T14:14:55Z</time>
      </trkpt>
      <trkpt lat="48.077309969812632" lon="-4.33657399378717">
        <ele>20.32</ele>
        <time>2018-07-06T14:15:02Z</time>
      </trkpt>
      <trkpt lat="48.077129004523158" lon="-4.33657399378717">
        <ele>21.289999999999999</ele>
        <time>2018-07-06T14:15:04Z</time>
      </trkpt>
      <trkpt lat="48.07646800763905" lon="-4.33657399378717">
        <ele>22.25</ele>
        <time>2018-07-06T14:15:09Z</time>
      </trkpt>
      <trkpt lat="48.075537029653788" lon="-4.336814973503351">
        <ele>25.609999999999999</ele>
        <time>2018-07-06T14:15:15Z</time>
      </trkpt>
      <trkpt lat="48.075383976101875" lon="-4.336940031498671">
        <ele>26.09</ele>
        <time>2018-07-06T14:15:16Z</time>
      </trkpt>
      <trkpt lat="48.075236035510898" lon="-4.337103981524706">
        <ele>26.57</ele>
        <time>2018-07-06T14:15:17Z</time>
      </trkpt>
      <trkpt lat="48.075084993615746" lon="-4.337272038683295">
        <ele>27.050000000000001</ele>
        <time>2018-07-06T14:15:18Z</time>
      </trkpt>
      <trkpt lat="48.074950966984034" lon="-4.337465995922685">
        <ele>27.530000000000001</ele>
        <time>2018-07-06T14:15:19Z</time>
      </trkpt>
      <trkpt lat="48.074820963665843" lon="-4.337667999789119">
        <ele>28.02</ele>
        <time>2018-07-06T14:15:20Z</time>
      </trkpt>
      <trkpt lat="48.074733959510922" lon="-4.337927000597119">
        <ele>28.5</ele>
        <time>2018-07-06T14:15:21Z</time>
      </trkpt>
      <trkpt lat="48.074646033346653" lon="-4.338193964213133">
        <ele>29.460000000000001</ele>
        <time>2018-07-06T14:15:22Z</time>
      </trkpt>
      <trkpt lat="48.073990987613797" lon="-4.340391028672457">
        <ele>32.340000000000003</ele>
        <time>2018-07-06T14:15:30Z</time>
      </trkpt>
      <trkpt lat="48.07382301427424" lon="-4.340896960347891">
        <ele>32.340000000000003</ele>
        <time>2018-07-06T14:15:32Z</time>
      </trkpt>
      <trkpt lat="48.073610030114651" lon="-4.341384032741189">
        <ele>33.299999999999997</ele>
        <time>2018-07-06T14:15:34Z</time>
      </trkpt>
      <trkpt lat="48.073256984353065" lon="-4.342082999646664">
        <ele>35.229999999999997</ele>
        <time>2018-07-06T14:15:37Z</time>
      </trkpt>
      <trkpt lat="48.072855994105339" lon="-4.342746008187532">
        <ele>37.149999999999999</ele>
        <time>2018-07-06T14:15:40Z</time>
      </trkpt>
      <trkpt lat="48.072744011878967" lon="-4.342971984297037">
        <ele>38.109999999999999</ele>
        <time>2018-07-06T14:15:41Z</time>
      </trkpt>
      <trkpt lat="48.072675028815866" lon="-4.343249006196857">
        <ele>39.07</ele>
        <time>2018-07-06T14:15:42Z</time>
      </trkpt>
      <trkpt lat="48.072604034096003" lon="-4.343531979247928">
        <ele>40.030000000000001</ele>
        <time>2018-07-06T14:15:43Z</time>
      </trkpt>
      <trkpt lat="48.07253303937614" lon="-4.343815036118031">
        <ele>40.990000000000002</ele>
        <time>2018-07-06T14:15:44Z</time>
      </trkpt>
      <trkpt lat="48.072389960289001" lon="-4.344386011362076">
        <ele>43.399999999999999</ele>
        <time>2018-07-06T14:15:46Z</time>
      </trkpt>
      <trkpt lat="48.072289964184165" lon="-4.34465398080647">
        <ele>44.359999999999999</ele>
        <time>2018-07-06T14:15:47Z</time>
      </trkpt>
      <trkpt lat="48.071520002558827" lon="-4.346421975642443">
        <ele>52.530000000000001</ele>
        <time>2018-07-06T14:15:54Z</time>
      </trkpt>
      <trkpt lat="48.070679968222976" lon="-4.347708011046052">
        <ele>51.57</ele>
        <time>2018-07-06T14:16:00Z</time>
      </trkpt>
      <trkpt lat="48.070592964068055" lon="-4.347971035167575">
        <ele>52.049999999999997</ele>
        <time>2018-07-06T14:16:01Z</time>
      </trkpt>
      <trkpt lat="48.070514006540179" lon="-4.34824001044035">
        <ele>52.049999999999997</ele>
        <time>2018-07-06T14:16:02Z</time>
      </trkpt>
      <trkpt lat="48.070463966578245" lon="-4.348506974056363">
        <ele>52.530000000000001</ele>
        <time>2018-07-06T14:16:03Z</time>
      </trkpt>
      <trkpt lat="48.070427002385259" lon="-4.348793970420957">
        <ele>52.530000000000001</ele>
        <time>2018-07-06T14:16:04Z</time>
      </trkpt>
      <trkpt lat="48.070389032363892" lon="-4.349091025069356">
        <ele>52.049999999999997</ele>
        <time>2018-07-06T14:16:05Z</time>
      </trkpt>
      <trkpt lat="48.070337986573577" lon="-4.349395958706737">
        <ele>51.57</ele>
        <time>2018-07-06T14:16:06Z</time>
      </trkpt>
      <trkpt lat="48.070251988247037" lon="-4.349638028070331">
        <ele>51.090000000000003</ele>
        <time>2018-07-06T14:16:07Z</time>
      </trkpt>
      <trkpt lat="48.070131037384272" lon="-4.349825028330088">
        <ele>50.609999999999999</ele>
        <time>2018-07-06T14:16:08Z</time>
      </trkpt>
      <trkpt lat="48.070016037672758" lon="-4.350002976134419">
        <ele>50.130000000000003</ele>
        <time>2018-07-06T14:16:09Z</time>
      </trkpt>
      <trkpt lat="48.069887040182948" lon="-4.350163992494345">
        <ele>49.649999999999999</ele>
        <time>2018-07-06T14:16:10Z</time>
      </trkpt>
      <trkpt lat="48.06974396109581" lon="-4.350320985540748">
        <ele>49.159999999999997</ele>
        <time>2018-07-06T14:16:11Z</time>
      </trkpt>
      <trkpt lat="48.069596020504832" lon="-4.350483007729054">
        <ele>48.68</ele>
        <time>2018-07-06T14:16:12Z</time>
      </trkpt>
      <trkpt lat="48.068274026736617" lon="-4.351930981501937">
        <ele>43.880000000000003</ele>
        <time>2018-07-06T14:16:20Z</time>
      </trkpt>
      <trkpt lat="48.067503981292248" lon="-4.35279699973762">
        <ele>44.359999999999999</ele>
        <time>2018-07-06T14:16:25Z</time>
      </trkpt>
      <trkpt lat="48.067382024601102" lon="-4.352970002219081">
        <ele>44.359999999999999</ele>
        <time>2018-07-06T14:16:26Z</time>
      </trkpt>
      <trkpt lat="48.067284040153027" lon="-4.353178041055799">
        <ele>44.840000000000003</ele>
        <time>2018-07-06T14:16:27Z</time>
      </trkpt>
      <trkpt lat="48.067202987149358" lon="-4.35337501578033">
        <ele>44.840000000000003</ele>
        <time>2018-07-06T14:16:28Z</time>
      </trkpt>
      <trkpt lat="48.067160993814468" lon="-4.35365698300302">
        <ele>44.840000000000003</ele>
        <time>2018-07-06T14:16:29Z</time>
      </trkpt>
      <trkpt lat="48.067122017964721" lon="-4.353920007124543">
        <ele>44.840000000000003</ele>
        <time>2018-07-06T14:16:30Z</time>
      </trkpt>
      <trkpt lat="48.067082036286592" lon="-4.354187976568937">
        <ele>44.359999999999999</ele>
        <time>2018-07-06T14:16:31Z</time>
      </trkpt>
      <trkpt lat="48.066945997998118" lon="-4.356173984706402">
        <ele>44.359999999999999</ele>
        <time>2018-07-06T14:16:38Z</time>
      </trkpt>
      <trkpt lat="48.06694800965488" lon="-4.356462992727757">
        <ele>44.840000000000003</ele>
        <time>2018-07-06T14:16:39Z</time>
      </trkpt>
      <trkpt lat="48.066988997161388" lon="-4.356744959950447">
        <ele>45.32</ele>
        <time>2018-07-06T14:16:40Z</time>
      </trkpt>
      <trkpt lat="48.067068960517645" lon="-4.357525985687971">
        <ele>46.759999999999998</ele>
        <time>2018-07-06T14:16:43Z</time>
      </trkpt>
      <trkpt lat="48.067062003538013" lon="-4.35778196901083">
        <ele>47.240000000000002</ele>
        <time>2018-07-06T14:16:44Z</time>
      </trkpt>
      <trkpt lat="48.067054962739348" lon="-4.358049016445875">
        <ele>47.719999999999999</ele>
        <time>2018-07-06T14:16:45Z</time>
      </trkpt>
      <trkpt lat="48.06664701551199" lon="-4.360092021524906">
        <ele>52.049999999999997</ele>
        <time>2018-07-06T14:16:53Z</time>
      </trkpt>
      <trkpt lat="48.066170001402497" lon="-4.361122995615006">
        <ele>54.93</ele>
        <time>2018-07-06T14:16:59Z</time>
      </trkpt>
      <trkpt lat="48.066096995025873" lon="-4.36126196756959">
        <ele>55.409999999999997</ele>
        <time>2018-07-06T14:17:00Z</time>
      </trkpt>
      <trkpt lat="48.066023988649249" lon="-4.361401023343206">
        <ele>55.890000000000001</ele>
        <time>2018-07-06T14:17:01Z</time>
      </trkpt>
      <trkpt lat="48.065803963690996" lon="-4.361821040511131">
        <ele>57.340000000000003</ele>
        <time>2018-07-06T14:17:04Z</time>
      </trkpt>
      <trkpt lat="48.065730035305023" lon="-4.361960012465715">
        <ele>57.82</ele>
        <time>2018-07-06T14:17:05Z</time>
      </trkpt>
      <trkpt lat="48.065655017271638" lon="-4.362104013562203">
        <ele>57.82</ele>
        <time>2018-07-06T14:17:06Z</time>
      </trkpt>
      <trkpt lat="48.065577987581491" lon="-4.362250026315451">
        <ele>58.299999999999997</ele>
        <time>2018-07-06T14:17:07Z</time>
      </trkpt>
      <trkpt lat="48.065476985648274" lon="-4.362355973571539">
        <ele>58.780000000000001</ele>
        <time>2018-07-06T14:17:08Z</time>
      </trkpt>
      <trkpt lat="48.06535704061389" lon="-4.36244297772646">
        <ele>59.259999999999998</ele>
        <time>2018-07-06T14:17:09Z</time>
      </trkpt>
      <trkpt lat="48.065228965133429" lon="-4.362482959404588">
        <ele>59.259999999999998</ele>
        <time>2018-07-06T14:17:10Z</time>
      </trkpt>
      <trkpt lat="48.065093010663986" lon="-4.362480025738478">
        <ele>59.259999999999998</ele>
        <time>2018-07-06T14:17:11Z</time>
      </trkpt>
      <trkpt lat="48.064957978203893" lon="-4.362408025190234">
        <ele>59.259999999999998</ele>
        <time>2018-07-06T14:17:12Z</time>
      </trkpt>
      <trkpt lat="48.064812971279025" lon="-4.362332001328468">
        <ele>59.259999999999998</ele>
        <time>2018-07-06T14:17:13Z</time>
      </trkpt>
      <trkpt lat="48.064664024859667" lon="-4.362252959981561">
        <ele>58.780000000000001</ele>
        <time>2018-07-06T14:17:14Z</time>
      </trkpt>
      <trkpt lat="48.064507031813264" lon="-4.362168973311782">
        <ele>58.299999999999997</ele>
        <time>2018-07-06T14:17:15Z</time>
      </trkpt>
      <trkpt lat="48.064330006018281" lon="-4.362108958885074">
        <ele>58.299999999999997</ele>
        <time>2018-07-06T14:17:16Z</time>
      </trkpt>
      <trkpt lat="48.064149040728807" lon="-4.362108958885074">
        <ele>58.299999999999997</ele>
        <time>2018-07-06T14:17:17Z</time>
      </trkpt>
      <trkpt lat="48.063962962478399" lon="-4.362138966098428">
        <ele>58.780000000000001</ele>
        <time>2018-07-06T14:17:18Z</time>
      </trkpt>
      <trkpt lat="48.063777973875403" lon="-4.362204009667039">
        <ele>58.780000000000001</ele>
        <time>2018-07-06T14:17:19Z</time>
      </trkpt>
      <trkpt lat="48.063604971393943" lon="-4.362316997721791">
        <ele>59.259999999999998</ele>
        <time>2018-07-06T14:17:20Z</time>
      </trkpt>
      <trkpt lat="48.063441021367908" lon="-4.362481031566858">
        <ele>60.219999999999999</ele>
        <time>2018-07-06T14:17:21Z</time>
      </trkpt>
      <trkpt lat="48.06327698752284" lon="-4.362644981592894">
        <ele>60.700000000000003</ele>
        <time>2018-07-06T14:17:22Z</time>
      </trkpt>
      <trkpt lat="48.063147990033031" lon="-4.362845979630947">
        <ele>61.659999999999997</ele>
        <time>2018-07-06T14:17:23Z</time>
      </trkpt>
      <trkpt lat="48.063033996149898" lon="-4.36308603733778">
        <ele>63.100000000000001</ele>
        <time>2018-07-06T14:17:24Z</time>
      </trkpt>
      <trkpt lat="48.062920002266765" lon="-4.363328022882342">
        <ele>63.579999999999998</ele>
        <time>2018-07-06T14:17:25Z</time>
      </trkpt>
      <trkpt lat="48.0626539606601" lon="-4.363807970657945">
        <ele>65.030000000000001</ele>
        <time>2018-07-06T14:17:27Z</time>
      </trkpt>
      <trkpt lat="48.061868995428085" lon="-4.365124013274908">
        <ele>68.870000000000005</ele>
        <time>2018-07-06T14:17:33Z</time>
      </trkpt>
      <trkpt lat="48.061776962131262" lon="-4.36536599881947">
        <ele>69.349999999999994</ele>
        <time>2018-07-06T14:17:34Z</time>
      </trkpt>
      <trkpt lat="48.061602031812072" lon="-4.365895986557007">
        <ele>70.310000000000002</ele>
        <time>2018-07-06T14:17:36Z</time>
      </trkpt>
      <trkpt lat="48.060909016057849" lon="-4.368767039850354">
        <ele>76.079999999999998</ele>
        <time>2018-07-06T14:17:45Z</time>
      </trkpt>
      <trkpt lat="48.060110975056887" lon="-4.371623005717993">
        <ele>79.930000000000007</ele>
        <time>2018-07-06T14:17:54Z</time>
      </trkpt>
      <trkpt lat="48.05925602093339" lon="-4.374257018789649">
        <ele>75.599999999999994</ele>
        <time>2018-07-06T14:18:03Z</time>
      </trkpt>
      <trkpt lat="48.058337029069662" lon="-4.377078032121062">
        <ele>72.719999999999999</ele>
        <time>2018-07-06T14:18:12Z</time>
      </trkpt>
      <trkpt lat="48.057441003620625" lon="-4.379829978570342">
        <ele>71.269999999999996</ele>
        <time>2018-07-06T14:18:22Z</time>
      </trkpt>
      <trkpt lat="48.056976981461048" lon="-4.381231013685465">
        <ele>71.760000000000005</ele>
        <time>2018-07-06T14:18:28Z</time>
      </trkpt>
      <trkpt lat="48.056311961263418" lon="-4.382727015763521">
        <ele>73.680000000000007</ele>
        <time>2018-07-06T14:18:36Z</time>
      </trkpt>
      <trkpt lat="48.056127978488803" lon="-4.383072014898062">
        <ele>74.159999999999997</ele>
        <time>2018-07-06T14:18:39Z</time>
      </trkpt>
      <trkpt lat="48.056064024567604" lon="-4.383192965760827">
        <ele>74.159999999999997</ele>
        <time>2018-07-06T14:18:40Z</time>
      </trkpt>
      <trkpt lat="48.055612994357944" lon="-4.384124027565122">
        <ele>73.680000000000007</ele>
        <time>2018-07-06T14:18:46Z</time>
      </trkpt>
      <trkpt lat="48.055537976324558" lon="-4.384330976754427">
        <ele>73.680000000000007</ele>
        <time>2018-07-06T14:18:47Z</time>
      </trkpt>
      <trkpt lat="48.055410990491509" lon="-4.384760968387127">
        <ele>73.200000000000003</ele>
        <time>2018-07-06T14:18:49Z</time>
      </trkpt>
      <trkpt lat="48.054663995280862" lon="-4.387187026441097">
        <ele>68.390000000000001</ele>
        <time>2018-07-06T14:18:59Z</time>
      </trkpt>
      <trkpt lat="48.054614039137959" lon="-4.387458013370633">
        <ele>67.909999999999997</ele>
        <time>2018-07-06T14:19:00Z</time>
      </trkpt>
      <trkpt lat="48.054585037752986" lon="-4.387732017785311">
        <ele>67.430000000000007</ele>
        <time>2018-07-06T14:19:01Z</time>
      </trkpt>
      <trkpt lat="48.054556036368012" lon="-4.388554031029344">
        <ele>67.430000000000007</ele>
        <time>2018-07-06T14:19:04Z</time>
      </trkpt>
      <trkpt lat="48.054398959502578" lon="-4.39131704159081">
        <ele>65.510000000000005</ele>
        <time>2018-07-06T14:19:13Z</time>
      </trkpt>
      <trkpt lat="48.054007021710277" lon="-4.394320026040077">
        <ele>65.510000000000005</ele>
        <time>2018-07-06T14:19:23Z</time>
      </trkpt>
      <trkpt lat="48.053536964580417" lon="-4.396919002756476">
        <ele>71.269999999999996</ele>
        <time>2018-07-06T14:19:32Z</time>
      </trkpt>
      <trkpt lat="48.053378965705633" lon="-4.397442033514381">
        <ele>72.719999999999999</ele>
        <time>2018-07-06T14:19:34Z</time>
      </trkpt>
      <trkpt lat="48.05330503731966" lon="-4.397686030715704">
        <ele>73.200000000000003</ele>
        <time>2018-07-06T14:19:35Z</time>
      </trkpt>
      <trkpt lat="48.052471037954092" lon="-4.399605989456177">
        <ele>69.829999999999998</ele>
        <time>2018-07-06T14:19:44Z</time>
      </trkpt>
      <trkpt lat="48.052085973322392" lon="-4.400641992688179">
        <ele>65.510000000000005</ele>
        <time>2018-07-06T14:19:49Z</time>
      </trkpt>
      <trkpt lat="48.05203702300787" lon="-4.400863023474813">
        <ele>64.549999999999997</ele>
        <time>2018-07-06T14:19:50Z</time>
      </trkpt>
      <trkpt lat="48.051988994702697" lon="-4.401082964614034">
        <ele>64.069999999999993</ele>
        <time>2018-07-06T14:19:51Z</time>
      </trkpt>
      <trkpt lat="48.051882963627577" lon="-4.402115028351545">
        <ele>59.740000000000002</ele>
        <time>2018-07-06T14:19:57Z</time>
      </trkpt>
      <trkpt lat="48.051851028576493" lon="-4.402421973645687">
        <ele>58.780000000000001</ele>
        <time>2018-07-06T14:20:01Z</time>
      </trkpt>
      <trkpt lat="48.051840970292687" lon="-4.402517024427652">
        <ele>58.780000000000001</ele>
        <time>2018-07-06T14:20:02Z</time>
      </trkpt>
      <trkpt lat="48.051828984171152" lon="-4.402635041624308">
        <ele>58.780000000000001</ele>
        <time>2018-07-06T14:20:03Z</time>
      </trkpt>
      <trkpt lat="48.051814986392856" lon="-4.402765966951847">
        <ele>58.780000000000001</ele>
        <time>2018-07-06T14:20:04Z</time>
      </trkpt>
      <trkpt lat="48.051799982786179" lon="-4.402910973876715">
        <ele>58.780000000000001</ele>
        <time>2018-07-06T14:20:05Z</time>
      </trkpt>
      <trkpt lat="48.051783973351121" lon="-4.403069978579879">
        <ele>58.780000000000001</ele>
        <time>2018-07-06T14:20:06Z</time>
      </trkpt>
      <trkpt lat="48.051769975572824" lon="-4.403227977454662">
        <ele>59.259999999999998</ele>
        <time>2018-07-06T14:20:07Z</time>
      </trkpt>
      <trkpt lat="48.051761006936431" lon="-4.403367033228278">
        <ele>59.259999999999998</ele>
        <time>2018-07-06T14:20:08Z</time>
      </trkpt>
      <trkpt lat="48.051752960309386" lon="-4.403488989919424">
        <ele>59.259999999999998</ele>
        <time>2018-07-06T14:20:09Z</time>
      </trkpt>
      <trkpt lat="48.051723958924413" lon="-4.404716016724706">
        <ele>60.700000000000003</ele>
        <time>2018-07-06T14:20:17Z</time>
      </trkpt>
      <trkpt lat="48.05180199444294" lon="-4.406935041770339">
        <ele>64.069999999999993</ele>
        <time>2018-07-06T14:20:26Z</time>
      </trkpt>
      <trkpt lat="48.051945995539427" lon="-4.410561975091696">
        <ele>69.829999999999998</ele>
        <time>2018-07-06T14:20:39Z</time>
      </trkpt>
      <trkpt lat="48.05191095918417" lon="-4.413258014246821">
        <ele>65.989999999999995</ele>
        <time>2018-07-06T14:20:47Z</time>
      </trkpt>
      <trkpt lat="48.051842981949449" lon="-4.415463041514158">
        <ele>64.549999999999997</ele>
        <time>2018-07-06T14:20:54Z</time>
      </trkpt>
      <trkpt lat="48.051474010571837" lon="-4.418384972959757">
        <ele>60.219999999999999</ele>
        <time>2018-07-06T14:21:04Z</time>
      </trkpt>
      <trkpt lat="48.051189025864005" lon="-4.42064699716866">
        <ele>62.619999999999997</ele>
        <time>2018-07-06T14:21:13Z</time>
      </trkpt>
      <trkpt lat="48.051006970927119" lon="-4.421994974836707">
        <ele>66.469999999999999</ele>
        <time>2018-07-06T14:21:21Z</time>
      </trkpt>
      <trkpt lat="48.050752999261022" lon="-4.423944018781185">
        <ele>69.349999999999994</ele>
        <time>2018-07-06T14:21:33Z</time>
      </trkpt>
      <trkpt lat="48.050726009532809" lon="-4.424407035112381">
        <ele>69.829999999999998</ele>
        <time>2018-07-06T14:21:36Z</time>
      </trkpt>
      <trkpt lat="48.050693990662694" lon="-4.425081023946405">
        <ele>71.269999999999996</ele>
        <time>2018-07-06T14:21:41Z</time>
      </trkpt>
      <trkpt lat="48.050670018419623" lon="-4.425585027784109">
        <ele>71.269999999999996</ele>
        <time>2018-07-06T14:21:45Z</time>
      </trkpt>
      <trkpt lat="48.050645040348172" lon="-4.426120966672897">
        <ele>70.310000000000002</ele>
        <time>2018-07-06T14:21:49Z</time>
      </trkpt>
      <trkpt lat="48.050637999549508" lon="-4.427309017628431">
        <ele>68.390000000000001</ele>
        <time>2018-07-06T14:21:59Z</time>
      </trkpt>
      <trkpt lat="48.050637999549508" lon="-4.427380012348294">
        <ele>67.430000000000007</ele>
        <time>2018-07-06T14:22:00Z</time>
      </trkpt>
      <trkpt lat="48.050637999549508" lon="-4.427510015666485">
        <ele>65.989999999999995</ele>
        <time>2018-07-06T14:22:02Z</time>
      </trkpt>
      <trkpt lat="48.050637999549508" lon="-4.427569024264813">
        <ele>66.469999999999999</ele>
        <time>2018-07-06T14:22:03Z</time>
      </trkpt>
      <trkpt lat="48.050637999549508" lon="-4.427666002884507">
        <ele>66.950000000000003</ele>
        <time>2018-07-06T14:22:07Z</time>
      </trkpt>
      <trkpt lat="48.050637999549508" lon="-4.427666002884507">
        <ele>67.430000000000007</ele>
        <time>2018-07-06T14:22:20Z</time>
      </trkpt>
      <trkpt lat="48.050637999549508" lon="-4.427700033411384">
        <ele>67.909999999999997</ele>
        <time>2018-07-06T14:22:24Z</time>
      </trkpt>
      <trkpt lat="48.050637999549508" lon="-4.427746972069144">
        <ele>67.909999999999997</ele>
        <time>2018-07-06T14:22:25Z</time>
      </trkpt>
      <trkpt lat="48.050637999549508" lon="-4.427814027294517">
        <ele>67.909999999999997</ele>
        <time>2018-07-06T14:22:26Z</time>
      </trkpt>
      <trkpt lat="48.050637999549508" lon="-4.427896002307534">
        <ele>67.909999999999997</ele>
        <time>2018-07-06T14:22:27Z</time>
      </trkpt>
      <trkpt lat="48.050637999549508" lon="-4.427989963442087">
        <ele>67.909999999999997</ele>
        <time>2018-07-06T14:22:28Z</time>
      </trkpt>
      <trkpt lat="48.050645040348172" lon="-4.428388020023704">
        <ele>68.390000000000001</ele>
        <time>2018-07-06T14:22:36Z</time>
      </trkpt>
      <trkpt lat="48.050645040348172" lon="-4.428388020023704">
        <ele>68.390000000000001</ele>
        <time>2018-07-06T14:23:10Z</time>
      </trkpt>
      <trkpt lat="48.050645040348172" lon="-4.428388020023704">
        <ele>68.390000000000001</ele>
        <time>2018-07-06T14:23:46Z</time>
      </trkpt>
      <trkpt lat="48.050646968185902" lon="-4.428462032228708">
        <ele>69.349999999999994</ele>
        <time>2018-07-06T14:23:47Z</time>
      </trkpt>
      <trkpt lat="48.050647974014282" lon="-4.428538978099823">
        <ele>69.349999999999994</ele>
        <time>2018-07-06T14:23:48Z</time>
      </trkpt>
      <trkpt lat="48.050649985671043" lon="-4.428645009174943">
        <ele>69.349999999999994</ele>
        <time>2018-07-06T14:23:49Z</time>
      </trkpt>
      <trkpt lat="48.050651997327805" lon="-4.428765038028359">
        <ele>69.349999999999994</ele>
        <time>2018-07-06T14:23:50Z</time>
      </trkpt>
      <trkpt lat="48.050673035904765" lon="-4.429901959374547">
        <ele>68.870000000000005</ele>
        <time>2018-07-06T14:23:59Z</time>
      </trkpt>
      <trkpt lat="48.050702037289739" lon="-4.431555038318038">
        <ele>70.310000000000002</ele>
        <time>2018-07-06T14:24:09Z</time>
      </trkpt>
      <trkpt lat="48.050758028402925" lon="-4.43308599293232">
        <ele>70.310000000000002</ele>
        <time>2018-07-06T14:24:18Z</time>
      </trkpt>
      <trkpt lat="48.050774037837982" lon="-4.433190012350678">
        <ele>70.310000000000002</ele>
        <time>2018-07-06T14:24:19Z</time>
      </trkpt>
      <trkpt lat="48.050788035616279" lon="-4.43327802233398">
        <ele>69.829999999999998</ele>
        <time>2018-07-06T14:24:20Z</time>
      </trkpt>
      <trkpt lat="48.050801027566195" lon="-4.433362009003758">
        <ele>69.829999999999998</ele>
        <time>2018-07-06T14:24:21Z</time>
      </trkpt>
      <trkpt lat="48.050848972052336" lon="-4.433435015380383">
        <ele>69.349999999999994</ele>
        <time>2018-07-06T14:24:22Z</time>
      </trkpt>
      <trkpt lat="48.050892977043986" lon="-4.433490000665188">
        <ele>69.349999999999994</ele>
        <time>2018-07-06T14:24:23Z</time>
      </trkpt>
      <trkpt lat="48.05089901201427" lon="-4.433610029518604">
        <ele>69.349999999999994</ele>
        <time>2018-07-06T14:24:24Z</time>
      </trkpt>
      <trkpt lat="48.050831034779549" lon="-4.433692004531622">
        <ele>69.349999999999994</ele>
        <time>2018-07-06T14:24:25Z</time>
      </trkpt>
      <trkpt lat="48.050812007859349" lon="-4.433784959837794">
        <ele>68.870000000000005</ele>
        <time>2018-07-06T14:24:26Z</time>
      </trkpt>
      <trkpt lat="48.050789041444659" lon="-4.433901971206069">
        <ele>68.390000000000001</ele>
        <time>2018-07-06T14:24:27Z</time>
      </trkpt>
      <trkpt lat="48.050790969282389" lon="-4.434027029201388">
        <ele>67.909999999999997</ele>
        <time>2018-07-06T14:24:28Z</time>
      </trkpt>
      <trkpt lat="48.05079298093915" lon="-4.434158960357308">
        <ele>66.950000000000003</ele>
        <time>2018-07-06T14:24:29Z</time>
      </trkpt>
      <trkpt lat="48.050824999809265" lon="-4.43529998883605">
        <ele>66.469999999999999</ele>
        <time>2018-07-06T14:24:37Z</time>
      </trkpt>
      <trkpt lat="48.05087897926569" lon="-4.436819041147828">
        <ele>69.349999999999994</ele>
        <time>2018-07-06T14:24:48Z</time>
      </trkpt>
      <trkpt lat="48.05094301700592" lon="-4.438731037080288">
        <ele>73.200000000000003</ele>
        <time>2018-07-06T14:24:58Z</time>
      </trkpt>
      <trkpt lat="48.05092298425734" lon="-4.441244015470147">
        <ele>73.680000000000007</ele>
        <time>2018-07-06T14:25:08Z</time>
      </trkpt>
      <trkpt lat="48.050849977880716" lon="-4.444787967950106">
        <ele>70.310000000000002</ele>
        <time>2018-07-06T14:25:19Z</time>
      </trkpt>
      <trkpt lat="48.050766997039318" lon="-4.449459034949541">
        <ele>69.829999999999998</ele>
        <time>2018-07-06T14:25:33Z</time>
      </trkpt>
      <trkpt lat="48.050976963713765" lon="-4.451818959787488">
        <ele>65.510000000000005</ele>
        <time>2018-07-06T14:25:41Z</time>
      </trkpt>
      <trkpt lat="48.051569983363152" lon="-4.456390030682087">
        <ele>56.369999999999997</ele>
        <time>2018-07-06T14:25:55Z</time>
      </trkpt>
      <trkpt lat="48.052079016342759" lon="-4.460327010601759">
        <ele>49.159999999999997</ele>
        <time>2018-07-06T14:26:07Z</time>
      </trkpt>
      <trkpt lat="48.052247995510697" lon="-4.462609989568591">
        <ele>45.32</ele>
        <time>2018-07-06T14:26:15Z</time>
      </trkpt>
      <trkpt lat="48.052212037146091" lon="-4.462893968448043">
        <ele>44.840000000000003</ele>
        <time>2018-07-06T14:26:16Z</time>
      </trkpt>
      <trkpt lat="48.052042974159122" lon="-4.463752023875713">
        <ele>42.920000000000002</ele>
        <time>2018-07-06T14:26:19Z</time>
      </trkpt>
      <trkpt lat="48.051967034116387" lon="-4.464042037725449">
        <ele>42.439999999999998</ele>
        <time>2018-07-06T14:26:20Z</time>
      </trkpt>
      <trkpt lat="48.051847005262971" lon="-4.464297015219927">
        <ele>41.950000000000003</ele>
        <time>2018-07-06T14:26:21Z</time>
      </trkpt>
      <trkpt lat="48.051706021651626" lon="-4.464546041563153">
        <ele>41.469999999999999</ele>
        <time>2018-07-06T14:26:22Z</time>
      </trkpt>
      <trkpt lat="48.051565960049629" lon="-4.464795989915729">
        <ele>40.990000000000002</ele>
        <time>2018-07-06T14:26:23Z</time>
      </trkpt>
      <trkpt lat="48.051389018073678" lon="-4.46497100405395">
        <ele>40.509999999999998</ele>
        <time>2018-07-06T14:26:24Z</time>
      </trkpt>
      <trkpt lat="48.051202017813921" lon="-4.465151969343424">
        <ele>40.030000000000001</ele>
        <time>2018-07-06T14:26:25Z</time>
      </trkpt>
      <trkpt lat="48.051013005897403" lon="-4.46533503010869">
        <ele>39.549999999999997</ele>
        <time>2018-07-06T14:26:26Z</time>
      </trkpt>
      <trkpt lat="48.050404982641339" lon="-4.465725962072611">
        <ele>37.630000000000003</ele>
        <time>2018-07-06T14:26:29Z</time>
      </trkpt>
      <trkpt lat="48.050203984603286" lon="-4.465739037841559">
        <ele>37.149999999999999</ele>
        <time>2018-07-06T14:26:30Z</time>
      </trkpt>
      <trkpt lat="48.050015978515148" lon="-4.465749012306333">
        <ele>36.189999999999998</ele>
        <time>2018-07-06T14:26:31Z</time>
      </trkpt>
      <trkpt lat="48.049796959385276" lon="-4.465683968737721">
        <ele>35.710000000000001</ele>
        <time>2018-07-06T14:26:32Z</time>
      </trkpt>
      <trkpt lat="48.049576012417674" lon="-4.465616997331381">
        <ele>34.740000000000002</ele>
        <time>2018-07-06T14:26:33Z</time>
      </trkpt>
      <trkpt lat="48.047631997615099" lon="-4.465221958234906">
        <ele>28.5</ele>
        <time>2018-07-06T14:26:41Z</time>
      </trkpt>
      <trkpt lat="48.047167975455523" lon="-4.465340981259942">
        <ele>28.02</ele>
        <time>2018-07-06T14:26:43Z</time>
      </trkpt>
      <trkpt lat="48.046955997124314" lon="-4.465462015941739">
        <ele>27.530000000000001</ele>
        <time>2018-07-06T14:26:44Z</time>
      </trkpt>
      <trkpt lat="48.045408027246594" lon="-4.466364998370409">
        <ele>23.690000000000001</ele>
        <time>2018-07-06T14:26:52Z</time>
      </trkpt>
      <trkpt lat="48.043859973549843" lon="-4.467347022145987">
        <ele>19.359999999999999</ele>
        <time>2018-07-06T14:27:01Z</time>
      </trkpt>
      <trkpt lat="48.043704992160201" lon="-4.467478031292558">
        <ele>18.879999999999999</ele>
        <time>2018-07-06T14:27:02Z</time>
      </trkpt>
      <trkpt lat="48.043560991063714" lon="-4.467644998803735">
        <ele>18.879999999999999</ele>
        <time>2018-07-06T14:27:03Z</time>
      </trkpt>
      <trkpt lat="48.043427970260382" lon="-4.467830993235111">
        <ele>18.399999999999999</ele>
        <time>2018-07-06T14:27:04Z</time>
      </trkpt>
      <trkpt lat="48.043304001912475" lon="-4.468052024021745">
        <ele>18.399999999999999</ele>
        <time>2018-07-06T14:27:05Z</time>
      </trkpt>
      <trkpt lat="48.043179027736187" lon="-4.468272970989347">
        <ele>17.920000000000002</ele>
        <time>2018-07-06T14:27:06Z</time>
      </trkpt>
      <trkpt lat="48.042473020032048" lon="-4.470073990523815">
        <ele>22.25</ele>
        <time>2018-07-06T14:27:13Z</time>
      </trkpt>
      <trkpt lat="48.042246038094163" lon="-4.472050024196506">
        <ele>24.649999999999999</ele>
        <time>2018-07-06T14:27:20Z</time>
      </trkpt>
      <trkpt lat="48.042103964835405" lon="-4.474639026448131">
        <ele>28.02</ele>
        <time>2018-07-06T14:27:30Z</time>
      </trkpt>
      <trkpt lat="48.042243020609021" lon="-4.476758977398276">
        <ele>30.420000000000002</ele>
        <time>2018-07-06T14:27:38Z</time>
      </trkpt>
      <trkpt lat="48.042797986418009" lon="-4.478777004405856">
        <ele>33.299999999999997</ele>
        <time>2018-07-06T14:27:45Z</time>
      </trkpt>
      <trkpt lat="48.043481027707458" lon="-4.481693990528584">
        <ele>33.299999999999997</ele>
        <time>2018-07-06T14:27:55Z</time>
      </trkpt>
      <trkpt lat="48.043846981599927" lon="-4.483609003946185">
        <ele>34.740000000000002</ele>
        <time>2018-07-06T14:28:04Z</time>
      </trkpt>
      <trkpt lat="48.043793002143502" lon="-4.485055971890688">
        <ele>37.149999999999999</ele>
        <time>2018-07-06T14:28:14Z</time>
      </trkpt>
      <trkpt lat="48.043727958574891" lon="-4.485526029020548">
        <ele>38.109999999999999</ele>
        <time>2018-07-06T14:28:17Z</time>
      </trkpt>
      <trkpt lat="48.043590998277068" lon="-4.486276041716337">
        <ele>38.109999999999999</ele>
        <time>2018-07-06T14:28:22Z</time>
      </trkpt>
      <trkpt lat="48.043565014377236" lon="-4.486423982307315">
        <ele>38.109999999999999</ele>
        <time>2018-07-06T14:28:23Z</time>
      </trkpt>
      <trkpt lat="48.043308025225997" lon="-4.488206980749965">
        <ele>40.509999999999998</ele>
        <time>2018-07-06T14:28:36Z</time>
      </trkpt>
      <trkpt lat="48.043202999979258" lon="-4.489898029714823">
        <ele>40.990000000000002</ele>
        <time>2018-07-06T14:28:48Z</time>
      </trkpt>
      <trkpt lat="48.042893037199974" lon="-4.491206025704742">
        <ele>37.630000000000003</ele>
        <time>2018-07-06T14:28:58Z</time>
      </trkpt>
      <trkpt lat="48.042497998103499" lon="-4.492497006431222">
        <ele>35.710000000000001</ele>
        <time>2018-07-06T14:29:09Z</time>
      </trkpt>
      <trkpt lat="48.042199015617371" lon="-4.49352496303618">
        <ele>34.259999999999998</ele>
        <time>2018-07-06T14:29:18Z</time>
      </trkpt>
      <trkpt lat="48.041850998997688" lon="-4.494689041748643">
        <ele>31.379999999999999</ele>
        <time>2018-07-06T14:29:27Z</time>
      </trkpt>
      <trkpt lat="48.041427964344621" lon="-4.496095022186637">
        <ele>26.57</ele>
        <time>2018-07-06T14:29:38Z</time>
      </trkpt>
      <trkpt lat="48.041149014607072" lon="-4.497201014310122">
        <ele>27.050000000000001</ele>
        <time>2018-07-06T14:29:45Z</time>
      </trkpt>
      <trkpt lat="48.041133005172014" lon="-4.49739396572113">
        <ele>27.050000000000001</ele>
        <time>2018-07-06T14:29:46Z</time>
      </trkpt>
      <trkpt lat="48.041139040142298" lon="-4.497591024264693">
        <ele>27.050000000000001</ele>
        <time>2018-07-06T14:29:47Z</time>
      </trkpt>
      <trkpt lat="48.04116896353662" lon="-4.49779998511076">
        <ele>27.530000000000001</ele>
        <time>2018-07-06T14:29:48Z</time>
      </trkpt>
      <trkpt lat="48.041212968528271" lon="-4.498025961220264">
        <ele>27.530000000000001</ele>
        <time>2018-07-06T14:29:49Z</time>
      </trkpt>
      <trkpt lat="48.041259991005063" lon="-4.498264007270336">
        <ele>27.530000000000001</ele>
        <time>2018-07-06T14:29:50Z</time>
      </trkpt>
      <trkpt lat="48.041700040921569" lon="-4.500996004790068">
        <ele>29.460000000000001</ele>
        <time>2018-07-06T14:30:00Z</time>
      </trkpt>
      <trkpt lat="48.041813028976321" lon="-4.50325601734221">
        <ele>29.460000000000001</ele>
        <time>2018-07-06T14:30:08Z</time>
      </trkpt>
      <trkpt lat="48.041839012876153" lon="-4.505724990740418">
        <ele>24.649999999999999</ele>
        <time>2018-07-06T14:30:16Z</time>
      </trkpt>
      <trkpt lat="48.042302029207349" lon="-4.50766297057271">
        <ele>17.440000000000001</ele>
        <time>2018-07-06T14:30:22Z</time>
      </trkpt>
      <trkpt lat="48.042447036132216" lon="-4.508294966071844">
        <ele>14.56</ele>
        <time>2018-07-06T14:30:24Z</time>
      </trkpt>
      <trkpt lat="48.042462039738894" lon="-4.508623033761978">
        <ele>14.08</ele>
        <time>2018-07-06T14:30:25Z</time>
      </trkpt>
      <trkpt lat="48.042462039738894" lon="-4.508965015411377">
        <ele>13.119999999999999</ele>
        <time>2018-07-06T14:30:26Z</time>
      </trkpt>
      <trkpt lat="48.042443012818694" lon="-4.510882962495089">
        <ele>12.630000000000001</ele>
        <time>2018-07-06T14:30:32Z</time>
      </trkpt>
      <trkpt lat="48.042410993948579" lon="-4.511112039908767">
        <ele>13.119999999999999</ele>
        <time>2018-07-06T14:30:33Z</time>
      </trkpt>
      <trkpt lat="48.042366988956928" lon="-4.511332986876369">
        <ele>13.119999999999999</ele>
        <time>2018-07-06T14:30:34Z</time>
      </trkpt>
      <trkpt lat="48.042295994237065" lon="-4.511544965207577">
        <ele>13.119999999999999</ele>
        <time>2018-07-06T14:30:35Z</time>
      </trkpt>
      <trkpt lat="48.042203038930893" lon="-4.511753004044294">
        <ele>13.119999999999999</ele>
        <time>2018-07-06T14:30:36Z</time>
      </trkpt>
      <trkpt lat="48.04209197871387" lon="-4.511961964890361">
        <ele>13.119999999999999</ele>
        <time>2018-07-06T14:30:37Z</time>
      </trkpt>
      <trkpt lat="48.041977984830737" lon="-4.512177966535091">
        <ele>13.6</ele>
        <time>2018-07-06T14:30:38Z</time>
      </trkpt>
      <trkpt lat="48.041866002604365" lon="-4.512391034513712">
        <ele>13.6</ele>
        <time>2018-07-06T14:30:39Z</time>
      </trkpt>
      <trkpt lat="48.041810011491179" lon="-4.512656992301345">
        <ele>14.08</ele>
        <time>2018-07-06T14:30:40Z</time>
      </trkpt>
      <trkpt lat="48.041754020377994" lon="-4.512934014201164">
        <ele>14.56</ele>
        <time>2018-07-06T14:30:41Z</time>
      </trkpt>
      <trkpt lat="48.041705992072821" lon="-4.513223022222519">
        <ele>15.039999999999999</ele>
        <time>2018-07-06T14:30:42Z</time>
      </trkpt>
      <trkpt lat="48.041676990687847" lon="-4.515344984829426">
        <ele>22.25</ele>
        <time>2018-07-06T14:30:49Z</time>
      </trkpt>
      <trkpt lat="48.042125003412366" lon="-4.518384011462331">
        <ele>14.56</ele>
        <time>2018-07-06T14:31:00Z</time>
      </trkpt>
      <trkpt lat="48.042470002546906" lon="-4.520398015156388">
        <ele>12.630000000000001</ele>
        <time>2018-07-06T14:31:09Z</time>
      </trkpt>
      <trkpt lat="48.042589025571942" lon="-4.521224973723292">
        <ele>11.67</ele>
        <time>2018-07-06T14:31:13Z</time>
      </trkpt>
      <trkpt lat="48.042580978944898" lon="-4.521429995074868">
        <ele>11.67</ele>
        <time>2018-07-06T14:31:14Z</time>
      </trkpt>
      <trkpt lat="48.042572010308504" lon="-4.521641973406076">
        <ele>11.19</ele>
        <time>2018-07-06T14:31:15Z</time>
      </trkpt>
      <trkpt lat="48.042532028630376" lon="-4.521830985322595">
        <ele>11.19</ele>
        <time>2018-07-06T14:31:16Z</time>
      </trkpt>
      <trkpt lat="48.042471008375287" lon="-4.522024020552635">
        <ele>10.710000000000001</ele>
        <time>2018-07-06T14:31:17Z</time>
      </trkpt>
      <trkpt lat="48.042393978685141" lon="-4.522205991670489">
        <ele>10.710000000000001</ele>
        <time>2018-07-06T14:31:18Z</time>
      </trkpt>
      <trkpt lat="48.042298005893826" lon="-4.522383017465472">
        <ele>10.23</ele>
        <time>2018-07-06T14:31:19Z</time>
      </trkpt>
      <trkpt lat="48.041263008490205" lon="-4.524240028113127">
        <ele>12.15</ele>
        <time>2018-07-06T14:31:29Z</time>
      </trkpt>
      <trkpt lat="48.040745006874204" lon="-4.524996997788549">
        <ele>15.039999999999999</ele>
        <time>2018-07-06T14:31:35Z</time>
      </trkpt>
      <trkpt lat="48.040693961083889" lon="-4.525070004165173">
        <ele>15.52</ele>
        <time>2018-07-06T14:31:36Z</time>
      </trkpt>
      <trkpt lat="48.040655991062522" lon="-4.525122977793217">
        <ele>16</ele>
        <time>2018-07-06T14:31:37Z</time>
      </trkpt>
      <trkpt lat="48.040707958862185" lon="-4.52530100941658">
        <ele>16.48</ele>
        <time>2018-07-06T14:31:38Z</time>
      </trkpt>
      <trkpt lat="48.040762022137642" lon="-4.525345014408231">
        <ele>16.960000000000001</ele>
        <time>2018-07-06T14:31:39Z</time>
      </trkpt>
      <trkpt lat="48.040837040171027" lon="-4.52540603466332">
        <ele>17.440000000000001</ele>
        <time>2018-07-06T14:31:40Z</time>
      </trkpt>
      <trkpt lat="48.040928989648819" lon="-4.525481974706054">
        <ele>17.920000000000002</ele>
        <time>2018-07-06T14:31:41Z</time>
      </trkpt>
      <trkpt lat="48.041989970952272" lon="-4.526259982958436">
        <ele>28.02</ele>
        <time>2018-07-06T14:31:49Z</time>
      </trkpt>
      <trkpt lat="48.042127015069127" lon="-4.526407001540065">
        <ele>29.460000000000001</ele>
        <time>2018-07-06T14:31:50Z</time>
      </trkpt>
      <trkpt lat="48.042266992852092" lon="-4.526556031778455">
        <ele>31.379999999999999</ele>
        <time>2018-07-06T14:31:51Z</time>
      </trkpt>
      <trkpt lat="48.042379980906844" lon="-4.526747977361083">
        <ele>33.299999999999997</ele>
        <time>2018-07-06T14:31:52Z</time>
      </trkpt>
      <trkpt lat="48.042491041123867" lon="-4.52695400454104">
        <ele>34.740000000000002</ele>
        <time>2018-07-06T14:31:53Z</time>
      </trkpt>
      <trkpt lat="48.042599000036716" lon="-4.527163971215487">
        <ele>36.189999999999998</ele>
        <time>2018-07-06T14:31:54Z</time>
      </trkpt>
      <trkpt lat="48.042679969221354" lon="-4.52740796841681">
        <ele>37.630000000000003</ele>
        <time>2018-07-06T14:31:55Z</time>
      </trkpt>
      <trkpt lat="48.042763033881783" lon="-4.527654983103275">
        <ele>39.549999999999997</ele>
        <time>2018-07-06T14:31:56Z</time>
      </trkpt>
      <trkpt lat="48.043244993314147" lon="-4.528896007686853">
        <ele>46.759999999999998</ele>
        <time>2018-07-06T14:32:01Z</time>
      </trkpt>
      <trkpt lat="48.043393017724156" lon="-4.529119972139597">
        <ele>47.719999999999999</ele>
        <time>2018-07-06T14:32:02Z</time>
      </trkpt>
      <trkpt lat="48.04355202242732" lon="-4.529331028461456">
        <ele>49.159999999999997</ele>
        <time>2018-07-06T14:32:03Z</time>
      </trkpt>
      <trkpt lat="48.045247010886669" lon="-4.531289041042328">
        <ele>59.740000000000002</ele>
        <time>2018-07-06T14:32:13Z</time>
      </trkpt>
      <trkpt lat="48.046137001365423" lon="-4.532959973439574">
        <ele>68.390000000000001</ele>
        <time>2018-07-06T14:32:20Z</time>
      </trkpt>
      <trkpt lat="48.046926995739341" lon="-4.534812960773706">
        <ele>75.599999999999994</ele>
        <time>2018-07-06T14:32:27Z</time>
      </trkpt>
      <trkpt lat="48.047078959643841" lon="-4.535042960196734">
        <ele>76.079999999999998</ele>
        <time>2018-07-06T14:32:28Z</time>
      </trkpt>
      <trkpt lat="48.047231007367373" lon="-4.535272037610412">
        <ele>77.040000000000006</ele>
        <time>2018-07-06T14:32:29Z</time>
      </trkpt>
      <trkpt lat="48.048212025314569" lon="-4.536983035504818">
        <ele>78</ele>
        <time>2018-07-06T14:32:36Z</time>
      </trkpt>
      <trkpt lat="48.049604007974267" lon="-4.54059898853302">
        <ele>77.519999999999996</ele>
        <time>2018-07-06T14:32:48Z</time>
      </trkpt>
      <trkpt lat="48.051281981170177" lon="-4.545008037239313">
        <ele>78</ele>
        <time>2018-07-06T14:33:03Z</time>
      </trkpt>
      <trkpt lat="48.05152396671474" lon="-4.547321023419499">
        <ele>81.370000000000005</ele>
        <time>2018-07-06T14:33:10Z</time>
      </trkpt>
      <trkpt lat="48.05180300027132" lon="-4.551337966695428">
        <ele>81.370000000000005</ele>
        <time>2018-07-06T14:33:22Z</time>
      </trkpt>
      <trkpt lat="48.051789002493024" lon="-4.552913010120392">
        <ele>79.930000000000007</ele>
        <time>2018-07-06T14:33:29Z</time>
      </trkpt>
      <trkpt lat="48.05171700194478" lon="-4.553497983142734">
        <ele>79.930000000000007</ele>
        <time>2018-07-06T14:33:33Z</time>
      </trkpt>
      <trkpt lat="48.051706021651626" lon="-4.553592028096318">
        <ele>80.409999999999997</ele>
        <time>2018-07-06T14:33:34Z</time>
      </trkpt>
      <trkpt lat="48.051767963916063" lon="-4.553782967850566">
        <ele>80.409999999999997</ele>
        <time>2018-07-06T14:33:35Z</time>
      </trkpt>
      <trkpt lat="48.051828984171152" lon="-4.553826972842217">
        <ele>80.409999999999997</ele>
        <time>2018-07-06T14:33:36Z</time>
      </trkpt>
      <trkpt lat="48.051899978891015" lon="-4.553878018632531">
        <ele>80.890000000000001</ele>
        <time>2018-07-06T14:33:37Z</time>
      </trkpt>
      <trkpt lat="48.051979020237923" lon="-4.553935015574098">
        <ele>80.890000000000001</ele>
        <time>2018-07-06T14:33:38Z</time>
      </trkpt>
      <trkpt lat="48.052074993029237" lon="-4.55400500446558">
        <ele>81.370000000000005</ele>
        <time>2018-07-06T14:33:39Z</time>
      </trkpt>
      <trkpt lat="48.052138024941087" lon="-4.554097037762404">
        <ele>81.370000000000005</ele>
        <time>2018-07-06T14:33:40Z</time>
      </trkpt>
      <trkpt lat="48.052211031317711" lon="-4.554203990846872">
        <ele>81.849999999999994</ele>
        <time>2018-07-06T14:33:41Z</time>
      </trkpt>
      <trkpt lat="48.052286971360445" lon="-4.554315973073244">
        <ele>82.329999999999998</ele>
        <time>2018-07-06T14:33:42Z</time>
      </trkpt>
      <trkpt lat="48.052857024595141" lon="-4.555591028183699">
        <ele>83.769999999999996</ele>
        <time>2018-07-06T14:33:52Z</time>
      </trkpt>
      <trkpt lat="48.053076965734363" lon="-4.55619896762073">
        <ele>83.769999999999996</ele>
        <time>2018-07-06T14:33:57Z</time>
      </trkpt>
      <trkpt lat="48.053615000098944" lon="-4.557590028271079">
        <ele>79.930000000000007</ele>
        <time>2018-07-06T14:34:06Z</time>
      </trkpt>
      <trkpt lat="48.054571039974689" lon="-4.559830008074641">
        <ele>73.200000000000003</ele>
        <time>2018-07-06T14:34:17Z</time>
      </trkpt>
      <trkpt lat="48.054878991097212" lon="-4.560676999390125">
        <ele>69.829999999999998</ele>
        <time>2018-07-06T14:34:21Z</time>
      </trkpt>
      <trkpt lat="48.054931964725256" lon="-4.560910016298294">
        <ele>69.349999999999994</ele>
        <time>2018-07-06T14:34:22Z</time>
      </trkpt>
      <trkpt lat="48.05498200468719" lon="-4.561149990186095">
        <ele>68.870000000000005</ele>
        <time>2018-07-06T14:34:23Z</time>
      </trkpt>
      <trkpt lat="48.05545499548316" lon="-4.564201002940536">
        <ele>62.619999999999997</ele>
        <time>2018-07-06T14:34:35Z</time>
      </trkpt>
      <trkpt lat="48.055507969111204" lon="-4.564738031476736">
        <ele>60.700000000000003</ele>
        <time>2018-07-06T14:34:37Z</time>
      </trkpt>
      <trkpt lat="48.055530013516545" lon="-4.56500600092113">
        <ele>59.740000000000002</ele>
        <time>2018-07-06T14:34:38Z</time>
      </trkpt>
      <trkpt lat="48.055495982989669" lon="-4.566580960527062">
        <ele>57.340000000000003</ele>
        <time>2018-07-06T14:34:44Z</time>
      </trkpt>
      <trkpt lat="48.055453989654779" lon="-4.566834010183811">
        <ele>56.859999999999999</ele>
        <time>2018-07-06T14:34:45Z</time>
      </trkpt>
      <trkpt lat="48.055385006591678" lon="-4.567077001556754">
        <ele>56.859999999999999</ele>
        <time>2018-07-06T14:34:46Z</time>
      </trkpt>
      <trkpt lat="48.054878991097212" lon="-4.56895999610424">
        <ele>56.369999999999997</ele>
        <time>2018-07-06T14:34:54Z</time>
      </trkpt>
      <trkpt lat="48.054858036339283" lon="-4.569198964163661">
        <ele>55.890000000000001</ele>
        <time>2018-07-06T14:34:55Z</time>
      </trkpt>
      <trkpt lat="48.054682016372681" lon="-4.570431020110846">
        <ele>53.490000000000002</ele>
        <time>2018-07-06T14:35:00Z</time>
      </trkpt>
      <trkpt lat="48.054357971996069" lon="-4.571824008598924">
        <ele>54.450000000000003</ele>
        <time>2018-07-06T14:35:06Z</time>
      </trkpt>
      <trkpt lat="48.054353026673198" lon="-4.572046967223287">
        <ele>55.409999999999997</ele>
        <time>2018-07-06T14:35:07Z</time>
      </trkpt>
      <trkpt lat="48.054357971996069" lon="-4.572286019101739">
        <ele>56.369999999999997</ele>
        <time>2018-07-06T14:35:08Z</time>
      </trkpt>
      <trkpt lat="48.054314972832799" lon="-4.57347197458148">
        <ele>59.259999999999998</ele>
        <time>2018-07-06T14:35:13Z</time>
      </trkpt>
      <trkpt lat="48.054285971447825" lon="-4.573702979832888">
        <ele>59.259999999999998</ele>
        <time>2018-07-06T14:35:14Z</time>
      </trkpt>
      <trkpt lat="48.054232997819781" lon="-4.573905989527702">
        <ele>59.259999999999998</ele>
        <time>2018-07-06T14:35:15Z</time>
      </trkpt>
      <trkpt lat="48.054127972573042" lon="-4.574344027787447">
        <ele>59.259999999999998</ele>
        <time>2018-07-06T14:35:17Z</time>
      </trkpt>
      <trkpt lat="48.054097965359688" lon="-4.574581990018487">
        <ele>58.780000000000001</ele>
        <time>2018-07-06T14:35:18Z</time>
      </trkpt>
      <trkpt lat="48.054068963974714" lon="-4.574829004704952">
        <ele>58.780000000000001</ele>
        <time>2018-07-06T14:35:19Z</time>
      </trkpt>
      <trkpt lat="48.053996963426471" lon="-4.57673697732389">
        <ele>55.409999999999997</ele>
        <time>2018-07-06T14:35:26Z</time>
      </trkpt>
      <trkpt lat="48.054019007831812" lon="-4.576988015323877">
        <ele>54.450000000000003</ele>
        <time>2018-07-06T14:35:27Z</time>
      </trkpt>
      <trkpt lat="48.054136019200087" lon="-4.57789896056056">
        <ele>51.57</ele>
        <time>2018-07-06T14:35:31Z</time>
      </trkpt>
      <trkpt lat="48.054154962301254" lon="-4.578108005225658">
        <ele>51.090000000000003</ele>
        <time>2018-07-06T14:35:32Z</time>
      </trkpt>
      <trkpt lat="48.05414498783648" lon="-4.578318977728486">
        <ele>50.609999999999999</ele>
        <time>2018-07-06T14:35:33Z</time>
      </trkpt>
      <trkpt lat="48.054134007543325" lon="-4.57854000851512">
        <ele>50.130000000000003</ele>
        <time>2018-07-06T14:35:34Z</time>
      </trkpt>
      <trkpt lat="48.054099977016449" lon="-4.578761039301753">
        <ele>49.649999999999999</ele>
        <time>2018-07-06T14:35:35Z</time>
      </trkpt>
      <trkpt lat="48.053957987576723" lon="-4.579681036993861">
        <ele>50.130000000000003</ele>
        <time>2018-07-06T14:35:39Z</time>
      </trkpt>
      <trkpt lat="48.053924962878227" lon="-4.579899972304702">
        <ele>50.609999999999999</ele>
        <time>2018-07-06T14:35:40Z</time>
      </trkpt>
      <trkpt lat="48.053914988413453" lon="-4.580119997262955">
        <ele>51.090000000000003</ele>
        <time>2018-07-06T14:35:41Z</time>
      </trkpt>
      <trkpt lat="48.053909037262201" lon="-4.580332981422544">
        <ele>52.049999999999997</ele>
        <time>2018-07-06T14:35:42Z</time>
      </trkpt>
      <trkpt lat="48.053903002291918" lon="-4.580546971410513">
        <ele>52.530000000000001</ele>
        <time>2018-07-06T14:35:43Z</time>
      </trkpt>
      <trkpt lat="48.054074998944998" lon="-4.582272972911596">
        <ele>58.780000000000001</ele>
        <time>2018-07-06T14:35:50Z</time>
      </trkpt>
      <trkpt lat="48.054296029731631" lon="-4.584083966910839">
        <ele>68.390000000000001</ele>
        <time>2018-07-06T14:35:58Z</time>
      </trkpt>
      <trkpt lat="48.054326036944985" lon="-4.584432989358902">
        <ele>69.829999999999998</ele>
        <time>2018-07-06T14:36:00Z</time>
      </trkpt>
      <trkpt lat="48.054317990317941" lon="-4.584615966305137">
        <ele>70.790000000000006</ele>
        <time>2018-07-06T14:36:01Z</time>
      </trkpt>
      <trkpt lat="48.054307010024786" lon="-4.584839008748531">
        <ele>71.269999999999996</ele>
        <time>2018-07-06T14:36:02Z</time>
      </trkpt>
      <trkpt lat="48.054249007254839" lon="-4.585230024531484">
        <ele>72.719999999999999</ele>
        <time>2018-07-06T14:36:05Z</time>
      </trkpt>
      <trkpt lat="48.053869977593422" lon="-4.587789019569755">
        <ele>77.040000000000006</ele>
        <time>2018-07-06T14:36:14Z</time>
      </trkpt>
      <trkpt lat="48.05375799536705" lon="-4.588470971211791">
        <ele>78</ele>
        <time>2018-07-06T14:36:17Z</time>
      </trkpt>
      <trkpt lat="48.053721031174064" lon="-4.588673980906606">
        <ele>78</ele>
        <time>2018-07-06T14:36:18Z</time>
      </trkpt>
      <trkpt lat="48.053636960685253" lon="-4.58885301835835">
        <ele>78</ele>
        <time>2018-07-06T14:36:19Z</time>
      </trkpt>
      <trkpt lat="48.053550040349364" lon="-4.589038006961346">
        <ele>78</ele>
        <time>2018-07-06T14:36:20Z</time>
      </trkpt>
      <trkpt lat="48.053461024537683" lon="-4.589228024706245">
        <ele>78</ele>
        <time>2018-07-06T14:36:21Z</time>
      </trkpt>
      <trkpt lat="48.052888959646225" lon="-4.590601986274123">
        <ele>74.640000000000001</ele>
        <time>2018-07-06T14:36:29Z</time>
      </trkpt>
      <trkpt lat="48.052442036569118" lon="-4.592062029987574">
        <ele>70.310000000000002</ele>
        <time>2018-07-06T14:36:38Z</time>
      </trkpt>
      <trkpt lat="48.051755977794528" lon="-4.593650987371802">
        <ele>65.510000000000005</ele>
        <time>2018-07-06T14:36:48Z</time>
      </trkpt>
      <trkpt lat="48.051214003935456" lon="-4.594868961721659">
        <ele>62.619999999999997</ele>
        <time>2018-07-06T14:36:55Z</time>
      </trkpt>
      <trkpt lat="48.051105039194226" lon="-4.595008017495275">
        <ele>62.140000000000001</ele>
        <time>2018-07-06T14:36:56Z</time>
      </trkpt>
      <trkpt lat="48.050963971763849" lon="-4.595112036913633">
        <ele>61.659999999999997</ele>
        <time>2018-07-06T14:36:57Z</time>
      </trkpt>
      <trkpt lat="48.050808990374207" lon="-4.595225024968386">
        <ele>61.18</ele>
        <time>2018-07-06T14:36:58Z</time>
      </trkpt>
      <trkpt lat="48.050644034519792" lon="-4.595264000818133">
        <ele>61.18</ele>
        <time>2018-07-06T14:36:59Z</time>
      </trkpt>
      <trkpt lat="48.050466002896428" lon="-4.595305994153023">
        <ele>60.700000000000003</ele>
        <time>2018-07-06T14:37:00Z</time>
      </trkpt>
      <trkpt lat="48.050275985151529" lon="-4.595342958346009">
        <ele>60.219999999999999</ele>
        <time>2018-07-06T14:37:01Z</time>
      </trkpt>
      <trkpt lat="48.049551034346223" lon="-4.595525013282895">
        <ele>57.340000000000003</ele>
        <time>2018-07-06T14:37:05Z</time>
      </trkpt>
      <trkpt lat="48.049411978572607" lon="-4.595615034922957">
        <ele>56.859999999999999</ele>
        <time>2018-07-06T14:37:06Z</time>
      </trkpt>
      <trkpt lat="48.0492880102247" lon="-4.595733974128962">
        <ele>56.369999999999997</ele>
        <time>2018-07-06T14:37:07Z</time>
      </trkpt>
      <trkpt lat="48.049182984977961" lon="-4.59588099271059">
        <ele>55.890000000000001</ele>
        <time>2018-07-06T14:37:08Z</time>
      </trkpt>
      <trkpt lat="48.049096986651421" lon="-4.596053995192051">
        <ele>55.409999999999997</ele>
        <time>2018-07-06T14:37:09Z</time>
      </trkpt>
      <trkpt lat="48.049033032730222" lon="-4.596238983795047">
        <ele>55.409999999999997</ele>
        <time>2018-07-06T14:37:10Z</time>
      </trkpt>
      <trkpt lat="48.048976035788655" lon="-4.59643897600472">
        <ele>54.93</ele>
        <time>2018-07-06T14:37:11Z</time>
      </trkpt>
      <trkpt lat="48.048937981948256" lon="-4.596648020669818">
        <ele>54.93</ele>
        <time>2018-07-06T14:37:12Z</time>
      </trkpt>
      <trkpt lat="48.048928007483482" lon="-4.596877014264464">
        <ele>54.93</ele>
        <time>2018-07-06T14:37:13Z</time>
      </trkpt>
      <trkpt lat="48.048917027190328" lon="-4.597115982323885">
        <ele>54.93</ele>
        <time>2018-07-06T14:37:14Z</time>
      </trkpt>
      <trkpt lat="48.048905963078141" lon="-4.597358973696828">
        <ele>54.93</ele>
        <time>2018-07-06T14:37:15Z</time>
      </trkpt>
      <trkpt lat="48.048886014148593" lon="-4.598346026614308">
        <ele>53.009999999999998</ele>
        <time>2018-07-06T14:37:19Z</time>
      </trkpt>
      <trkpt lat="48.049028003588319" lon="-4.600805025547743">
        <ele>46.280000000000001</ele>
        <time>2018-07-06T14:37:29Z</time>
      </trkpt>
      <trkpt lat="48.049048036336899" lon="-4.602041020989418">
        <ele>41.469999999999999</ele>
        <time>2018-07-06T14:37:34Z</time>
      </trkpt>
      <trkpt lat="48.049213998019695" lon="-4.603799963369966">
        <ele>35.229999999999997</ele>
        <time>2018-07-06T14:37:41Z</time>
      </trkpt>
      <trkpt lat="48.049208968877792" lon="-4.604037003591657">
        <ele>35.710000000000001</ele>
        <time>2018-07-06T14:37:42Z</time>
      </trkpt>
      <trkpt lat="48.049203017726541" lon="-4.604274965822697">
        <ele>36.189999999999998</ele>
        <time>2018-07-06T14:37:43Z</time>
      </trkpt>
      <trkpt lat="48.049179967492819" lon="-4.604505971074104">
        <ele>36.670000000000002</ele>
        <time>2018-07-06T14:37:44Z</time>
      </trkpt>
      <trkpt lat="48.049140991643071" lon="-4.604739993810654">
        <ele>37.149999999999999</ele>
        <time>2018-07-06T14:37:45Z</time>
      </trkpt>
      <trkpt lat="48.049100004136562" lon="-4.604978961870074">
        <ele>38.109999999999999</ele>
        <time>2018-07-06T14:37:46Z</time>
      </trkpt>
      <trkpt lat="48.048957008868456" lon="-4.605913041159511">
        <ele>42.439999999999998</ele>
        <time>2018-07-06T14:37:50Z</time>
      </trkpt>
      <trkpt lat="48.048986010253429" lon="-4.607912041246891">
        <ele>45.799999999999997</ele>
        <time>2018-07-06T14:37:58Z</time>
      </trkpt>
      <trkpt lat="48.048986010253429" lon="-4.608181016519666">
        <ele>45.799999999999997</ele>
        <time>2018-07-06T14:37:59Z</time>
      </trkpt>
      <trkpt lat="48.048753999173641" lon="-4.61104997433722">
        <ele>45.32</ele>
        <time>2018-07-06T14:38:09Z</time>
      </trkpt>
      <trkpt lat="48.048641011118889" lon="-4.611914986744523">
        <ele>42.920000000000002</ele>
        <time>2018-07-06T14:38:12Z</time>
      </trkpt>
      <trkpt lat="48.048570016399026" lon="-4.612954007461667">
        <ele>40.509999999999998</ele>
        <time>2018-07-06T14:38:16Z</time>
      </trkpt>
      <trkpt lat="48.048590971156955" lon="-4.613201022148132">
        <ele>40.030000000000001</ele>
        <time>2018-07-06T14:38:17Z</time>
      </trkpt>
      <trkpt lat="48.048632964491844" lon="-4.613674012944102">
        <ele>38.590000000000003</ele>
        <time>2018-07-06T14:38:19Z</time>
      </trkpt>
      <trkpt lat="48.048634976148605" lon="-4.613911975175142">
        <ele>38.109999999999999</ele>
        <time>2018-07-06T14:38:20Z</time>
      </trkpt>
      <trkpt lat="48.048620978370309" lon="-4.614164019003511">
        <ele>37.149999999999999</ele>
        <time>2018-07-06T14:38:21Z</time>
      </trkpt>
      <trkpt lat="48.048413023352623" lon="-4.615984987467527">
        <ele>29.460000000000001</ele>
        <time>2018-07-06T14:38:28Z</time>
      </trkpt>
      <trkpt lat="48.048358960077167" lon="-4.6162040065974">
        <ele>28.5</ele>
        <time>2018-07-06T14:38:29Z</time>
      </trkpt>
      <trkpt lat="48.048284025862813" lon="-4.616405004635453">
        <ele>27.530000000000001</ele>
        <time>2018-07-06T14:38:30Z</time>
      </trkpt>
      <trkpt lat="48.048186963424087" lon="-4.616582030430436">
        <ele>27.050000000000001</ele>
        <time>2018-07-06T14:38:31Z</time>
      </trkpt>
      <trkpt lat="48.048091996461153" lon="-4.616754027083516">
        <ele>26.09</ele>
        <time>2018-07-06T14:38:32Z</time>
      </trkpt>
      <trkpt lat="48.047924023121595" lon="-4.617098020389676">
        <ele>25.129999999999999</ele>
        <time>2018-07-06T14:38:34Z</time>
      </trkpt>
      <trkpt lat="48.047855962067842" lon="-4.617271022871137">
        <ele>24.170000000000002</ele>
        <time>2018-07-06T14:38:35Z</time>
      </trkpt>
      <trkpt lat="48.047783961519599" lon="-4.617455005645752">
        <ele>23.690000000000001</ele>
        <time>2018-07-06T14:38:36Z</time>
      </trkpt>
      <trkpt lat="48.047745991498232" lon="-4.61762398481369">
        <ele>23.210000000000001</ele>
        <time>2018-07-06T14:38:37Z</time>
      </trkpt>
      <trkpt lat="48.047702992334962" lon="-4.617811990901828">
        <ele>23.210000000000001</ele>
        <time>2018-07-06T14:38:38Z</time>
      </trkpt>
      <trkpt lat="48.047382971271873" lon="-4.619485018774867">
        <ele>23.690000000000001</ele>
        <time>2018-07-06T14:38:46Z</time>
      </trkpt>
      <trkpt lat="48.04735497571528" lon="-4.619709989055991">
        <ele>23.690000000000001</ele>
        <time>2018-07-06T14:38:47Z</time>
      </trkpt>
      <trkpt lat="48.04737601429224" lon="-4.621799010783434">
        <ele>28.98</ele>
        <time>2018-07-06T14:38:57Z</time>
      </trkpt>
      <trkpt lat="48.047370985150337" lon="-4.622002020478249">
        <ele>28.98</ele>
        <time>2018-07-06T14:38:58Z</time>
      </trkpt>
      <trkpt lat="48.047346007078886" lon="-4.622212992981076">
        <ele>29.940000000000001</ele>
        <time>2018-07-06T14:38:59Z</time>
      </trkpt>
      <trkpt lat="48.047320023179054" lon="-4.62243402376771">
        <ele>30.420000000000002</ele>
        <time>2018-07-06T14:39:00Z</time>
      </trkpt>
      <trkpt lat="48.047051969915628" lon="-4.624216016381979">
        <ele>37.149999999999999</ele>
        <time>2018-07-06T14:39:07Z</time>
      </trkpt>
      <trkpt lat="48.046892965212464" lon="-4.62604695931077">
        <ele>42.439999999999998</ele>
        <time>2018-07-06T14:39:13Z</time>
      </trkpt>
      <trkpt lat="48.04683999158442" lon="-4.626380978152156">
        <ele>43.399999999999999</ele>
        <time>2018-07-06T14:39:14Z</time>
      </trkpt>
      <trkpt lat="48.046243032440543" lon="-4.629281032830477">
        <ele>52.530000000000001</ele>
        <time>2018-07-06T14:39:24Z</time>
      </trkpt>
      <trkpt lat="48.046170026063919" lon="-4.631526963785291">
        <ele>49.159999999999997</ele>
        <time>2018-07-06T14:39:32Z</time>
      </trkpt>
      <trkpt lat="48.046487029641867" lon="-4.633171996101737">
        <ele>47.719999999999999</ele>
        <time>2018-07-06T14:39:38Z</time>
      </trkpt>
      <trkpt lat="48.046711999922991" lon="-4.634220991283655">
        <ele>47.240000000000002</ele>
        <time>2018-07-06T14:39:42Z</time>
      </trkpt>
      <trkpt lat="48.046727003529668" lon="-4.634443027898669">
        <ele>47.240000000000002</ele>
        <time>2018-07-06T14:39:43Z</time>
      </trkpt>
      <trkpt lat="48.046691967174411" lon="-4.634661041200161">
        <ele>46.759999999999998</ele>
        <time>2018-07-06T14:39:44Z</time>
      </trkpt>
      <trkpt lat="48.04664402268827" lon="-4.634867990389466">
        <ele>46.759999999999998</ele>
        <time>2018-07-06T14:39:45Z</time>
      </trkpt>
      <trkpt lat="48.046552995219827" lon="-4.635063037276268">
        <ele>47.240000000000002</ele>
        <time>2018-07-06T14:39:46Z</time>
      </trkpt>
      <trkpt lat="48.046459034085274" lon="-4.635267974808812">
        <ele>47.240000000000002</ele>
        <time>2018-07-06T14:39:47Z</time>
      </trkpt>
      <trkpt lat="48.046089978888631" lon="-4.636189984157682">
        <ele>48.68</ele>
        <time>2018-07-06T14:39:51Z</time>
      </trkpt>
      <trkpt lat="48.046030970290303" lon="-4.636441022157669">
        <ele>48.68</ele>
        <time>2018-07-06T14:39:52Z</time>
      </trkpt>
      <trkpt lat="48.045982019975781" lon="-4.636698011308909">
        <ele>49.159999999999997</ele>
        <time>2018-07-06T14:39:53Z</time>
      </trkpt>
      <trkpt lat="48.045919993892312" lon="-4.637966025620699">
        <ele>48.200000000000003</ele>
        <time>2018-07-06T14:39:59Z</time>
      </trkpt>
      <trkpt lat="48.046120991930366" lon="-4.639487005770207">
        <ele>42.439999999999998</ele>
        <time>2018-07-06T14:40:08Z</time>
      </trkpt>
      <trkpt lat="48.046218976378441" lon="-4.640125036239624">
        <ele>41.469999999999999</ele>
        <time>2018-07-06T14:40:11Z</time>
      </trkpt>
      <trkpt lat="48.046228028833866" lon="-4.640366015955806">
        <ele>41.469999999999999</ele>
        <time>2018-07-06T14:40:12Z</time>
      </trkpt>
      <trkpt lat="48.046231968328357" lon="-4.64087001979351">
        <ele>40.990000000000002</ele>
        <time>2018-07-06T14:40:14Z</time>
      </trkpt>
      <trkpt lat="48.046224005520344" lon="-4.641102030873299">
        <ele>40.990000000000002</ele>
        <time>2018-07-06T14:40:15Z</time>
      </trkpt>
      <trkpt lat="48.046135995537043" lon="-4.641908034682274">
        <ele>40.990000000000002</ele>
        <time>2018-07-06T14:40:19Z</time>
      </trkpt>
      <trkpt lat="48.045905996114016" lon="-4.643396995961666">
        <ele>35.229999999999997</ele>
        <time>2018-07-06T14:40:26Z</time>
      </trkpt>
      <trkpt lat="48.045924017205834" lon="-4.643859006464481">
        <ele>33.299999999999997</ele>
        <time>2018-07-06T14:40:28Z</time>
      </trkpt>
      <trkpt lat="48.04595603607595" lon="-4.644068973138928">
        <ele>32.340000000000003</ele>
        <time>2018-07-06T14:40:29Z</time>
      </trkpt>
      <trkpt lat="48.045995011925697" lon="-4.64426301419735">
        <ele>31.859999999999999</ele>
        <time>2018-07-06T14:40:30Z</time>
      </trkpt>
      <trkpt lat="48.046082016080618" lon="-4.644442973658443">
        <ele>31.379999999999999</ele>
        <time>2018-07-06T14:40:31Z</time>
      </trkpt>
      <trkpt lat="48.046169020235538" lon="-4.644624022766948">
        <ele>31.859999999999999</ele>
        <time>2018-07-06T14:40:32Z</time>
      </trkpt>
      <trkpt lat="48.046254012733698" lon="-4.644800964742899">
        <ele>32.340000000000003</ele>
        <time>2018-07-06T14:40:33Z</time>
      </trkpt>
      <trkpt lat="48.046358032152057" lon="-4.644942032173276">
        <ele>33.299999999999997</ele>
        <time>2018-07-06T14:40:34Z</time>
      </trkpt>
      <trkpt lat="48.046457022428513" lon="-4.645073041319847">
        <ele>34.259999999999998</ele>
        <time>2018-07-06T14:40:35Z</time>
      </trkpt>
      <trkpt lat="48.047003019601107" lon="-4.645906034857035">
        <ele>40.509999999999998</ele>
        <time>2018-07-06T14:40:43Z</time>
      </trkpt>
      <trkpt lat="48.0471829790622" lon="-4.646205017343164">
        <ele>42.439999999999998</ele>
        <time>2018-07-06T14:40:46Z</time>
      </trkpt>
      <trkpt lat="48.047240981832147" lon="-4.646300990134478">
        <ele>42.920000000000002</ele>
        <time>2018-07-06T14:40:47Z</time>
      </trkpt>
      <trkpt lat="48.04767700843513" lon="-4.647025018930435">
        <ele>48.200000000000003</ele>
        <time>2018-07-06T14:40:55Z</time>
      </trkpt>
      <trkpt lat="48.047723025083542" lon="-4.647100958973169">
        <ele>48.68</ele>
        <time>2018-07-06T14:40:56Z</time>
      </trkpt>
      <trkpt lat="48.047768035903573" lon="-4.647175977006555">
        <ele>49.159999999999997</ele>
        <time>2018-07-06T14:40:57Z</time>
      </trkpt>
      <trkpt lat="48.04780500009656" lon="-4.647238003090024">
        <ele>50.130000000000003</ele>
        <time>2018-07-06T14:40:58Z</time>
      </trkpt>
      <trkpt lat="48.047823021188378" lon="-4.647356020286679">
        <ele>50.609999999999999</ele>
        <time>2018-07-06T14:40:59Z</time>
      </trkpt>
      <trkpt lat="48.047839030623436" lon="-4.647463979199529">
        <ele>51.090000000000003</ele>
        <time>2018-07-06T14:41:00Z</time>
      </trkpt>
      <trkpt lat="48.04787096567452" lon="-4.647684004157782">
        <ele>52.049999999999997</ele>
        <time>2018-07-06T14:41:02Z</time>
      </trkpt>
      <trkpt lat="48.047887980937958" lon="-4.647796992212534">
        <ele>52.049999999999997</ele>
        <time>2018-07-06T14:41:03Z</time>
      </trkpt>
      <trkpt lat="48.04801999591291" lon="-4.649038016796112">
        <ele>53.009999999999998</ele>
        <time>2018-07-06T14:41:13Z</time>
      </trkpt>
      <trkpt lat="48.048023013398051" lon="-4.649151004850864">
        <ele>53.009999999999998</ele>
        <time>2018-07-06T14:41:14Z</time>
      </trkpt>
      <trkpt lat="48.048026030883193" lon="-4.65070903301239">
        <ele>53.490000000000002</ele>
        <time>2018-07-06T14:41:26Z</time>
      </trkpt>
      <trkpt lat="48.048001974821091" lon="-4.651147993281484">
        <ele>53.009999999999998</ele>
        <time>2018-07-06T14:41:29Z</time>
      </trkpt>
      <trkpt lat="48.047994012013078" lon="-4.651291994377971">
        <ele>53.009999999999998</ele>
        <time>2018-07-06T14:41:30Z</time>
      </trkpt>
      <trkpt lat="48.047955958172679" lon="-4.651994984596968">
        <ele>52.049999999999997</ele>
        <time>2018-07-06T14:41:35Z</time>
      </trkpt>
      <trkpt lat="48.047832995653152" lon="-4.652885980904102">
        <ele>52.049999999999997</ele>
        <time>2018-07-06T14:41:41Z</time>
      </trkpt>
      <trkpt lat="48.04776200093329" lon="-4.653311027213931">
        <ele>52.530000000000001</ele>
        <time>2018-07-06T14:41:44Z</time>
      </trkpt>
      <trkpt lat="48.047768035903573" lon="-4.653497021645308">
        <ele>52.530000000000001</ele>
        <time>2018-07-06T14:41:45Z</time>
      </trkpt>
      <trkpt lat="48.047772981226444" lon="-4.653643034398556">
        <ele>52.530000000000001</ele>
        <time>2018-07-06T14:41:46Z</time>
      </trkpt>
      <trkpt lat="48.04778203368187" lon="-4.65391100384295">
        <ele>53.490000000000002</ele>
        <time>2018-07-06T14:41:49Z</time>
      </trkpt>
      <trkpt lat="48.047783961519599" lon="-4.653969006612897">
        <ele>53.969999999999999</ele>
        <time>2018-07-06T14:41:50Z</time>
      </trkpt>
      <trkpt lat="48.047740962356329" lon="-4.654004964977503">
        <ele>54.450000000000003</ele>
        <time>2018-07-06T14:41:51Z</time>
      </trkpt>
      <trkpt lat="48.047694023698568" lon="-4.654037989675999">
        <ele>54.450000000000003</ele>
        <time>2018-07-06T14:41:52Z</time>
      </trkpt>
      <trkpt lat="48.047637026757002" lon="-4.654076965525746">
        <ele>54.93</ele>
        <time>2018-07-06T14:41:53Z</time>
      </trkpt>
      <trkpt lat="48.047573994845152" lon="-4.654120970517397">
        <ele>55.409999999999997</ele>
        <time>2018-07-06T14:41:54Z</time>
      </trkpt>
      <trkpt lat="48.047500988468528" lon="-4.65417000465095">
        <ele>55.409999999999997</ele>
        <time>2018-07-06T14:41:55Z</time>
      </trkpt>
      <trkpt lat="48.04675399325788" lon="-4.654855979606509">
        <ele>51.090000000000003</ele>
        <time>2018-07-06T14:42:03Z</time>
      </trkpt>
      <trkpt lat="48.04651896469295" lon="-4.655088996514678">
        <ele>49.649999999999999</ele>
        <time>2018-07-06T14:42:05Z</time>
      </trkpt>
      <trkpt lat="48.046375969424844" lon="-4.655193015933037">
        <ele>49.159999999999997</ele>
        <time>2018-07-06T14:42:06Z</time>
      </trkpt>
      <trkpt lat="48.046226017177105" lon="-4.655301980674267">
        <ele>48.68</ele>
        <time>2018-07-06T14:42:07Z</time>
      </trkpt>
      <trkpt lat="48.046063994988799" lon="-4.655384961515665">
        <ele>47.719999999999999</ele>
        <time>2018-07-06T14:42:08Z</time>
      </trkpt>
      <trkpt lat="48.045881018042564" lon="-4.655422009527683">
        <ele>46.759999999999998</ele>
        <time>2018-07-06T14:42:09Z</time>
      </trkpt>
      <trkpt lat="48.045687982812524" lon="-4.655461991205812">
        <ele>45.32</ele>
        <time>2018-07-06T14:42:10Z</time>
      </trkpt>
      <trkpt lat="48.043916970491409" lon="-4.655764997005463">
        <ele>35.229999999999997</ele>
        <time>2018-07-06T14:42:18Z</time>
      </trkpt>
      <trkpt lat="48.042923966422677" lon="-4.656011005863547">
        <ele>29.940000000000001</ele>
        <time>2018-07-06T14:42:23Z</time>
      </trkpt>
      <trkpt lat="48.042753981426358" lon="-4.656086023896933">
        <ele>28.98</ele>
        <time>2018-07-06T14:42:24Z</time>
      </trkpt>
      <trkpt lat="48.042601011693478" lon="-4.656218960881233">
        <ele>28.02</ele>
        <time>2018-07-06T14:42:25Z</time>
      </trkpt>
      <trkpt lat="48.042448963969946" lon="-4.656350975856185">
        <ele>27.050000000000001</ele>
        <time>2018-07-06T14:42:26Z</time>
      </trkpt>
      <trkpt lat="48.042322983965278" lon="-4.6565349586308">
        <ele>26.57</ele>
        <time>2018-07-06T14:42:27Z</time>
      </trkpt>
      <trkpt lat="48.042195998132229" lon="-4.65672598220408">
        <ele>26.09</ele>
        <time>2018-07-06T14:42:28Z</time>
      </trkpt>
      <trkpt lat="48.042096002027392" lon="-4.656942989677191">
        <ele>26.09</ele>
        <time>2018-07-06T14:42:29Z</time>
      </trkpt>
      <trkpt lat="48.042000029236078" lon="-4.657158991321921">
        <ele>25.609999999999999</ele>
        <time>2018-07-06T14:42:30Z</time>
      </trkpt>
      <trkpt lat="48.041906990110874" lon="-4.65737096965313">
        <ele>25.129999999999999</ele>
        <time>2018-07-06T14:42:31Z</time>
      </trkpt>
      <trkpt lat="48.041814034804702" lon="-4.657580014318228">
        <ele>25.129999999999999</ele>
        <time>2018-07-06T14:42:32Z</time>
      </trkpt>
      <trkpt lat="48.041700962930918" lon="-4.657751005142927">
        <ele>24.170000000000002</ele>
        <time>2018-07-06T14:42:33Z</time>
      </trkpt>
      <trkpt lat="48.041566014289856" lon="-4.657901041209698">
        <ele>23.210000000000001</ele>
        <time>2018-07-06T14:42:34Z</time>
      </trkpt>
      <trkpt lat="48.041411032900214" lon="-4.658073959872127">
        <ele>22.73</ele>
        <time>2018-07-06T14:42:35Z</time>
      </trkpt>
      <trkpt lat="48.041279017925262" lon="-4.658191977068782">
        <ele>22.73</ele>
        <time>2018-07-06T14:42:36Z</time>
      </trkpt>
      <trkpt lat="48.041139962151647" lon="-4.65831502340734">
        <ele>22.25</ele>
        <time>2018-07-06T14:42:37Z</time>
      </trkpt>
      <trkpt lat="48.041009958833456" lon="-4.658431028947234">
        <ele>22.25</ele>
        <time>2018-07-06T14:42:38Z</time>
      </trkpt>
      <trkpt lat="48.040787000209093" lon="-4.658664967864752">
        <ele>22.25</ele>
        <time>2018-07-06T14:42:40Z</time>
      </trkpt>
      <trkpt lat="48.040699996054173" lon="-4.658816009759903">
        <ele>22.25</ele>
        <time>2018-07-06T14:42:41Z</time>
      </trkpt>
      <trkpt lat="48.040650961920619" lon="-4.658990018069744">
        <ele>22.25</ele>
        <time>2018-07-06T14:42:42Z</time>
      </trkpt>
      <trkpt lat="48.040613997727633" lon="-4.659182969480753">
        <ele>22.73</ele>
        <time>2018-07-06T14:42:43Z</time>
      </trkpt>
      <trkpt lat="48.040595976635814" lon="-4.659396959468722">
        <ele>23.210000000000001</ele>
        <time>2018-07-06T14:42:44Z</time>
      </trkpt>
      <trkpt lat="48.040577033534646" lon="-4.659613966941834">
        <ele>24.170000000000002</ele>
        <time>2018-07-06T14:42:45Z</time>
      </trkpt>
      <trkpt lat="48.040559012442827" lon="-4.659829968586564">
        <ele>24.170000000000002</ele>
        <time>2018-07-06T14:42:46Z</time>
      </trkpt>
      <trkpt lat="48.0405000038445" lon="-4.660016968846321">
        <ele>24.649999999999999</ele>
        <time>2018-07-06T14:42:47Z</time>
      </trkpt>
      <trkpt lat="48.040418028831482" lon="-4.660201035439968">
        <ele>25.129999999999999</ele>
        <time>2018-07-06T14:42:48Z</time>
      </trkpt>
      <trkpt lat="48.040333036333323" lon="-4.660389963537455">
        <ele>25.609999999999999</ele>
        <time>2018-07-06T14:42:49Z</time>
      </trkpt>
      <trkpt lat="48.040247960016131" lon="-4.660581992939115">
        <ele>26.57</ele>
        <time>2018-07-06T14:42:50Z</time>
      </trkpt>
      <trkpt lat="48.04000698029995" lon="-4.661151962354779">
        <ele>28.5</ele>
        <time>2018-07-06T14:42:53Z</time>
      </trkpt>
      <trkpt lat="48.039974039420485" lon="-4.661338040605187">
        <ele>29.460000000000001</ele>
        <time>2018-07-06T14:42:54Z</time>
      </trkpt>
      <trkpt lat="48.03994202055037" lon="-4.661512970924377">
        <ele>30.420000000000002</ele>
        <time>2018-07-06T14:42:55Z</time>
      </trkpt>
      <trkpt lat="48.039908995851874" lon="-4.661700977012515">
        <ele>31.379999999999999</ele>
        <time>2018-07-06T14:42:56Z</time>
      </trkpt>
      <trkpt lat="48.039902038872242" lon="-4.661857970058918">
        <ele>32.340000000000003</ele>
        <time>2018-07-06T14:42:57Z</time>
      </trkpt>
      <trkpt lat="48.039893992245197" lon="-4.662028960883617">
        <ele>33.299999999999997</ele>
        <time>2018-07-06T14:42:58Z</time>
      </trkpt>
      <trkpt lat="48.039801036939025" lon="-4.662982989102602">
        <ele>36.670000000000002</ele>
        <time>2018-07-06T14:43:04Z</time>
      </trkpt>
      <trkpt lat="48.03976901806891" lon="-4.663134030997753">
        <ele>37.149999999999999</ele>
        <time>2018-07-06T14:43:05Z</time>
      </trkpt>
      <trkpt lat="48.039736999198794" lon="-4.663289012387395">
        <ele>37.630000000000003</ele>
        <time>2018-07-06T14:43:06Z</time>
      </trkpt>
      <trkpt lat="48.039656030014157" lon="-4.663379034027457">
        <ele>37.630000000000003</ele>
        <time>2018-07-06T14:43:07Z</time>
      </trkpt>
      <trkpt lat="48.039569025859237" lon="-4.663474000990391">
        <ele>38.109999999999999</ele>
        <time>2018-07-06T14:43:08Z</time>
      </trkpt>
      <trkpt lat="48.039472969248891" lon="-4.66353502124548">
        <ele>39.07</ele>
        <time>2018-07-06T14:43:09Z</time>
      </trkpt>
      <trkpt lat="48.039364004507661" lon="-4.663556981831789">
        <ele>39.549999999999997</ele>
        <time>2018-07-06T14:43:10Z</time>
      </trkpt>
      <trkpt lat="48.03925596177578" lon="-4.663580032065511">
        <ele>40.030000000000001</ele>
        <time>2018-07-06T14:43:11Z</time>
      </trkpt>
      <trkpt lat="48.039149008691311" lon="-4.66360199265182">
        <ele>40.509999999999998</ele>
        <time>2018-07-06T14:43:12Z</time>
      </trkpt>
      <trkpt lat="48.039042977616191" lon="-4.663624037057161">
        <ele>40.990000000000002</ele>
        <time>2018-07-06T14:43:13Z</time>
      </trkpt>
      <trkpt lat="48.038734020665288" lon="-4.663659995421767">
        <ele>42.439999999999998</ele>
        <time>2018-07-06T14:43:16Z</time>
      </trkpt>
      <trkpt lat="48.038634024560452" lon="-4.66366401873529">
        <ele>42.920000000000002</ele>
        <time>2018-07-06T14:43:17Z</time>
      </trkpt>
      <trkpt lat="48.038538973778486" lon="-4.66366795822978">
        <ele>43.399999999999999</ele>
        <time>2018-07-06T14:43:18Z</time>
      </trkpt>
      <trkpt lat="48.038350967690349" lon="-4.663676004856825">
        <ele>44.840000000000003</ele>
        <time>2018-07-06T14:43:20Z</time>
      </trkpt>
      <trkpt lat="48.038256000727415" lon="-4.663685979321599">
        <ele>45.32</ele>
        <time>2018-07-06T14:43:21Z</time>
      </trkpt>
      <trkpt lat="48.03815902210772" lon="-4.663695031777024">
        <ele>46.280000000000001</ele>
        <time>2018-07-06T14:43:22Z</time>
      </trkpt>
      <trkpt lat="48.038070006296039" lon="-4.663727972656488">
        <ele>46.759999999999998</ele>
        <time>2018-07-06T14:43:23Z</time>
      </trkpt>
      <trkpt lat="48.037976967170835" lon="-4.663765020668507">
        <ele>47.719999999999999</ele>
        <time>2018-07-06T14:43:24Z</time>
      </trkpt>
      <trkpt lat="48.037704974412918" lon="-4.66390198096633">
        <ele>51.090000000000003</ele>
        <time>2018-07-06T14:43:27Z</time>
      </trkpt>
      <trkpt lat="48.037630040198565" lon="-4.663975993171334">
        <ele>52.049999999999997</ele>
        <time>2018-07-06T14:43:28Z</time>
      </trkpt>
      <trkpt lat="48.037505988031626" lon="-4.664189983159304">
        <ele>54.93</ele>
        <time>2018-07-06T14:43:30Z</time>
      </trkpt>
      <trkpt lat="48.037469023838639" lon="-4.664323003962636">
        <ele>56.369999999999997</ele>
        <time>2018-07-06T14:43:31Z</time>
      </trkpt>
      <trkpt lat="48.0371930077672" lon="-4.665313996374607">
        <ele>62.140000000000001</ele>
        <time>2018-07-06T14:43:39Z</time>
      </trkpt>
      <trkpt lat="48.037174986675382" lon="-4.665377028286457">
        <ele>62.619999999999997</ele>
        <time>2018-07-06T14:43:40Z</time>
      </trkpt>
      <trkpt lat="48.037163000553846" lon="-4.665418015792966">
        <ele>62.619999999999997</ele>
        <time>2018-07-06T14:43:41Z</time>
      </trkpt>
      <trkpt lat="48.037141039967537" lon="-4.665498984977603">
        <ele>62.619999999999997</ele>
        <time>2018-07-06T14:43:42Z</time>
      </trkpt>
      <trkpt lat="48.037132993340492" lon="-4.665550030767918">
        <ele>64.069999999999993</ele>
        <time>2018-07-06T14:43:46Z</time>
      </trkpt>
      <trkpt lat="48.037120001390576" lon="-4.665630999952555">
        <ele>64.069999999999993</ele>
        <time>2018-07-06T14:43:47Z</time>
      </trkpt>
      <trkpt lat="48.037084965035319" lon="-4.665853036567569">
        <ele>64.069999999999993</ele>
        <time>2018-07-06T14:43:49Z</time>
      </trkpt>
      <trkpt lat="48.03706401027739" lon="-4.665982034057379">
        <ele>64.549999999999997</ele>
        <time>2018-07-06T14:43:50Z</time>
      </trkpt>
      <trkpt lat="48.036991003900766" lon="-4.666443038731813">
        <ele>65.030000000000001</ele>
        <time>2018-07-06T14:43:53Z</time>
      </trkpt>
      <trkpt lat="48.036797968670726" lon="-4.667193973436952">
        <ele>66.950000000000003</ele>
        <time>2018-07-06T14:44:01Z</time>
      </trkpt>
      <trkpt lat="48.03682797588408" lon="-4.667251976206899">
        <ele>67.430000000000007</ele>
        <time>2018-07-06T14:44:05Z</time>
      </trkpt>
      <trkpt lat="48.036845996975899" lon="-4.667286006733775">
        <ele>67.430000000000007</ele>
        <time>2018-07-06T14:44:06Z</time>
      </trkpt>
      <trkpt lat="48.036876004189253" lon="-4.667344009503722">
        <ele>67.430000000000007</ele>
        <time>2018-07-06T14:44:07Z</time>
      </trkpt>
      <trkpt lat="48.036915985867381" lon="-4.667421961203218">
        <ele>67.430000000000007</ele>
        <time>2018-07-06T14:44:08Z</time>
      </trkpt>
      <trkpt lat="48.036960996687412" lon="-4.667508965358138">
        <ele>67.430000000000007</ele>
        <time>2018-07-06T14:44:09Z</time>
      </trkpt>
      <trkpt lat="48.037539012730122" lon="-4.668658040463924">
        <ele>71.269999999999996</ele>
        <time>2018-07-06T14:44:19Z</time>
      </trkpt>
      <trkpt lat="48.037564996629953" lon="-4.668806986883283">
        <ele>72.239999999999995</ele>
        <time>2018-07-06T14:44:20Z</time>
      </trkpt>
      <trkpt lat="48.037590980529785" lon="-4.668960040435195">
        <ele>72.719999999999999</ele>
        <time>2018-07-06T14:44:21Z</time>
      </trkpt>
      <trkpt lat="48.037617970257998" lon="-4.669116027653217">
        <ele>73.680000000000007</ele>
        <time>2018-07-06T14:44:22Z</time>
      </trkpt>
      <trkpt lat="48.037640014663339" lon="-4.669281989336014">
        <ele>74.159999999999997</ele>
        <time>2018-07-06T14:44:23Z</time>
      </trkpt>
      <trkpt lat="48.037786027416587" lon="-4.670974966138601">
        <ele>76.079999999999998</ele>
        <time>2018-07-06T14:44:34Z</time>
      </trkpt>
      <trkpt lat="48.037917958572507" lon="-4.672707002609968">
        <ele>75.120000000000005</ele>
        <time>2018-07-06T14:44:45Z</time>
      </trkpt>
      <trkpt lat="48.037899015471339" lon="-4.672870030626655">
        <ele>74.640000000000001</ele>
        <time>2018-07-06T14:44:46Z</time>
      </trkpt>
      <trkpt lat="48.037567008286715" lon="-4.675186034291983">
        <ele>75.599999999999994</ele>
        <time>2018-07-06T14:44:58Z</time>
      </trkpt>
      <trkpt lat="48.037426024675369" lon="-4.676433010026813">
        <ele>77.040000000000006</ele>
        <time>2018-07-06T14:45:04Z</time>
      </trkpt>
      <trkpt lat="48.037434993311763" lon="-4.676635013893247">
        <ele>77.040000000000006</ele>
        <time>2018-07-06T14:45:05Z</time>
      </trkpt>
      <trkpt lat="48.03744999691844" lon="-4.676829976961017">
        <ele>77.519999999999996</ele>
        <time>2018-07-06T14:45:06Z</time>
      </trkpt>
      <trkpt lat="48.037487966939807" lon="-4.677019994705916">
        <ele>78</ele>
        <time>2018-07-06T14:45:07Z</time>
      </trkpt>
      <trkpt lat="48.037527026608586" lon="-4.677212024107575">
        <ele>78.480000000000004</ele>
        <time>2018-07-06T14:45:08Z</time>
      </trkpt>
      <trkpt lat="48.037564996629953" lon="-4.677404975518584">
        <ele>78.969999999999999</ele>
        <time>2018-07-06T14:45:09Z</time>
      </trkpt>
      <trkpt lat="48.038204032927752" lon="-4.679723996669054">
        <ele>76.560000000000002</ele>
        <time>2018-07-06T14:45:21Z</time>
      </trkpt>
      <trkpt lat="48.03895496763289" lon="-4.681650996208191">
        <ele>74.640000000000001</ele>
        <time>2018-07-06T14:45:31Z</time>
      </trkpt>
      <trkpt lat="48.039871025830507" lon="-4.683398958295584">
        <ele>74.640000000000001</ele>
        <time>2018-07-06T14:45:41Z</time>
      </trkpt>
      <trkpt lat="48.040512995794415" lon="-4.6848089620471">
        <ele>73.680000000000007</ele>
        <time>2018-07-06T14:45:50Z</time>
      </trkpt>
      <trkpt lat="48.040624978020787" lon="-4.685121020302177">
        <ele>73.680000000000007</ele>
        <time>2018-07-06T14:45:52Z</time>
      </trkpt>
      <trkpt lat="48.040667977184057" lon="-4.685293016955257">
        <ele>74.159999999999997</ele>
        <time>2018-07-06T14:45:53Z</time>
      </trkpt>
      <trkpt lat="48.040697984397411" lon="-4.685470964759588">
        <ele>73.680000000000007</ele>
        <time>2018-07-06T14:45:54Z</time>
      </trkpt>
      <trkpt lat="48.040722962468863" lon="-4.685654025524855">
        <ele>73.680000000000007</ele>
        <time>2018-07-06T14:45:55Z</time>
      </trkpt>
      <trkpt lat="48.040747018530965" lon="-4.685835996642709">
        <ele>74.159999999999997</ele>
        <time>2018-07-06T14:45:56Z</time>
      </trkpt>
      <trkpt lat="48.04075799882412" lon="-4.686019979417324">
        <ele>74.159999999999997</ele>
        <time>2018-07-06T14:45:57Z</time>
      </trkpt>
      <trkpt lat="48.040763027966022" lon="-4.686207985505462">
        <ele>74.159999999999997</ele>
        <time>2018-07-06T14:45:58Z</time>
      </trkpt>
      <trkpt lat="48.04047997109592" lon="-4.687635004520416">
        <ele>75.599999999999994</ele>
        <time>2018-07-06T14:46:06Z</time>
      </trkpt>
      <trkpt lat="48.039978984743357" lon="-4.689627969637513">
        <ele>78.480000000000004</ele>
        <time>2018-07-06T14:46:17Z</time>
      </trkpt>
      <trkpt lat="48.039480010047555" lon="-4.692406989634037">
        <ele>75.599999999999994</ele>
        <time>2018-07-06T14:46:32Z</time>
      </trkpt>
      <trkpt lat="48.039354030042887" lon="-4.693305026739836">
        <ele>75.120000000000005</ele>
        <time>2018-07-06T14:46:37Z</time>
      </trkpt>
      <trkpt lat="48.039366016164422" lon="-4.693490015342832">
        <ele>75.599999999999994</ele>
        <time>2018-07-06T14:46:38Z</time>
      </trkpt>
      <trkpt lat="48.039386970922351" lon="-4.693681038916111">
        <ele>76.079999999999998</ele>
        <time>2018-07-06T14:46:39Z</time>
      </trkpt>
      <trkpt lat="48.039408009499311" lon="-4.6938749961555">
        <ele>76.560000000000002</ele>
        <time>2018-07-06T14:46:40Z</time>
      </trkpt>
      <trkpt lat="48.03942795842886" lon="-4.694058978930116">
        <ele>77.040000000000006</ele>
        <time>2018-07-06T14:46:41Z</time>
      </trkpt>
      <trkpt lat="48.03966298699379" lon="-4.695682972669601">
        <ele>78</ele>
        <time>2018-07-06T14:46:51Z</time>
      </trkpt>
      <trkpt lat="48.039839006960392" lon="-4.697372009977698">
        <ele>77.519999999999996</ele>
        <time>2018-07-06T14:47:02Z</time>
      </trkpt>
      <trkpt lat="48.03985602222383" lon="-4.697903003543615">
        <ele>78.480000000000004</ele>
        <time>2018-07-06T14:47:05Z</time>
      </trkpt>
      <trkpt lat="48.039882006123662" lon="-4.70034004189074">
        <ele>79.930000000000007</ele>
        <time>2018-07-06T14:47:18Z</time>
      </trkpt>
      <trkpt lat="48.039822997525334" lon="-4.702324960380793">
        <ele>79.450000000000003</ele>
        <time>2018-07-06T14:47:29Z</time>
      </trkpt>
      <trkpt lat="48.039697017520666" lon="-4.704240979626775">
        <ele>79.930000000000007</ele>
        <time>2018-07-06T14:47:41Z</time>
      </trkpt>
      <trkpt lat="48.039480010047555" lon="-4.705809988081455">
        <ele>76.560000000000002</ele>
        <time>2018-07-06T14:47:51Z</time>
      </trkpt>
      <trkpt lat="48.039309019222856" lon="-4.706511972472072">
        <ele>75.599999999999994</ele>
        <time>2018-07-06T14:47:56Z</time>
      </trkpt>
      <trkpt lat="48.039261996746063" lon="-4.706644993275404">
        <ele>75.599999999999994</ele>
        <time>2018-07-06T14:47:57Z</time>
      </trkpt>
      <trkpt lat="48.039203993976116" lon="-4.706770973280072">
        <ele>75.599999999999994</ele>
        <time>2018-07-06T14:47:58Z</time>
      </trkpt>
      <trkpt lat="48.038458004593849" lon="-4.708125991746783">
        <ele>75.599999999999994</ele>
        <time>2018-07-06T14:48:09Z</time>
      </trkpt>
      <trkpt lat="48.03803002461791" lon="-4.70897801220417">
        <ele>77.040000000000006</ele>
        <time>2018-07-06T14:48:16Z</time>
      </trkpt>
      <trkpt lat="48.037992976605892" lon="-4.709126958623529">
        <ele>76.560000000000002</ele>
        <time>2018-07-06T14:48:17Z</time>
      </trkpt>
      <trkpt lat="48.037960035726428" lon="-4.709280012175441">
        <ele>76.560000000000002</ele>
        <time>2018-07-06T14:48:18Z</time>
      </trkpt>
      <trkpt lat="48.037575976923108" lon="-4.711473975330591">
        <ele>65.030000000000001</ele>
        <time>2018-07-06T14:48:31Z</time>
      </trkpt>
      <trkpt lat="48.037388976663351" lon="-4.713397035375238">
        <ele>58.780000000000001</ele>
        <time>2018-07-06T14:48:42Z</time>
      </trkpt>
      <trkpt lat="48.037362992763519" lon="-4.714358020573854">
        <ele>62.140000000000001</ele>
        <time>2018-07-06T14:48:47Z</time>
      </trkpt>
      <trkpt lat="48.037462988868356" lon="-4.715776992961764">
        <ele>69.349999999999994</ele>
        <time>2018-07-06T14:48:55Z</time>
      </trkpt>
      <trkpt lat="48.037456031888723" lon="-4.715847987681627">
        <ele>70.310000000000002</ele>
        <time>2018-07-06T14:48:56Z</time>
      </trkpt>
      <trkpt lat="48.037452008575201" lon="-4.715891992673278">
        <ele>70.790000000000006</ele>
        <time>2018-07-06T14:48:57Z</time>
      </trkpt>
      <trkpt lat="48.037448991090059" lon="-4.71591898240149">
        <ele>71.269999999999996</ele>
        <time>2018-07-06T14:48:58Z</time>
      </trkpt>
      <trkpt lat="48.037446979433298" lon="-4.715941026806831">
        <ele>71.760000000000005</ele>
        <time>2018-07-06T14:48:59Z</time>
      </trkpt>
      <trkpt lat="48.037444967776537" lon="-4.715962987393141">
        <ele>72.239999999999995</ele>
        <time>2018-07-06T14:49:00Z</time>
      </trkpt>
      <trkpt lat="48.037434993311763" lon="-4.716064995154738">
        <ele>73.680000000000007</ele>
        <time>2018-07-06T14:49:09Z</time>
      </trkpt>
      <trkpt lat="48.037434993311763" lon="-4.716064995154738">
        <ele>73.680000000000007</ele>
        <time>2018-07-06T14:49:35Z</time>
      </trkpt>
      <trkpt lat="48.037434993311763" lon="-4.716064995154738">
        <ele>73.680000000000007</ele>
        <time>2018-07-06T14:49:57Z</time>
      </trkpt>
      <trkpt lat="48.037422001361847" lon="-4.716202039271593">
        <ele>72.719999999999999</ele>
        <time>2018-07-06T14:50:09Z</time>
      </trkpt>
      <trkpt lat="48.037392999976873" lon="-4.716600012034178">
        <ele>70.790000000000006</ele>
        <time>2018-07-06T14:50:24Z</time>
      </trkpt>
      <trkpt lat="48.037396017462015" lon="-4.717031009495258">
        <ele>69.829999999999998</ele>
        <time>2018-07-06T14:50:28Z</time>
      </trkpt>
      <trkpt lat="48.037376990541816" lon="-4.717147015035152">
        <ele>69.349999999999994</ele>
        <time>2018-07-06T14:50:29Z</time>
      </trkpt>
      <trkpt lat="48.03729803301394" lon="-4.717622017487884">
        <ele>69.349999999999994</ele>
        <time>2018-07-06T14:50:36Z</time>
      </trkpt>
      <trkpt lat="48.037290992215276" lon="-4.717661999166012">
        <ele>69.349999999999994</ele>
        <time>2018-07-06T14:50:37Z</time>
      </trkpt>
      <trkpt lat="48.037247993052006" lon="-4.717666022479534">
        <ele>68.870000000000005</ele>
        <time>2018-07-06T14:50:38Z</time>
      </trkpt>
      <trkpt lat="48.037216980010271" lon="-4.717669039964676">
        <ele>68.390000000000001</ele>
        <time>2018-07-06T14:50:39Z</time>
      </trkpt>
      <trkpt lat="48.037183033302426" lon="-4.717670967802405">
        <ele>68.390000000000001</ele>
        <time>2018-07-06T14:50:40Z</time>
      </trkpt>
      <trkpt lat="48.037141039967537" lon="-4.717674991115928">
        <ele>68.390000000000001</ele>
        <time>2018-07-06T14:50:41Z</time>
      </trkpt>
      <trkpt lat="48.036972982808948" lon="-4.717688988894224">
        <ele>67.430000000000007</ele>
        <time>2018-07-06T14:50:49Z</time>
      </trkpt>
      <trkpt lat="48.036758992820978" lon="-4.717694018036127">
        <ele>66.469999999999999</ele>
        <time>2018-07-06T14:51:01Z</time>
      </trkpt>
      <trkpt lat="48.036613985896111" lon="-4.717597039416432">
        <ele>65.989999999999995</ele>
        <time>2018-07-06T14:51:04Z</time>
      </trkpt>
      <trkpt lat="48.036582972854376" lon="-4.717577006667852">
        <ele>65.510000000000005</ele>
        <time>2018-07-06T14:51:05Z</time>
      </trkpt>
      <trkpt lat="48.036559000611305" lon="-4.717487990856171">
        <ele>65.510000000000005</ele>
        <time>2018-07-06T14:51:06Z</time>
      </trkpt>
      <trkpt lat="48.036546008661389" lon="-4.717439040541649">
        <ele>65.510000000000005</ele>
        <time>2018-07-06T14:51:07Z</time>
      </trkpt>
      <trkpt lat="48.036537040024996" lon="-4.717408027499914">
        <ele>65.510000000000005</ele>
        <time>2018-07-06T14:51:08Z</time>
      </trkpt>
      <trkpt lat="48.036532010883093" lon="-4.717387994751334">
        <ele>65.030000000000001</ele>
        <time>2018-07-06T14:51:09Z</time>
      </trkpt>
      <trkpt lat="48.036522036418319" lon="-4.717353964224458">
        <ele>65.030000000000001</ele>
        <time>2018-07-06T14:51:15Z</time>
      </trkpt>
      <trkpt lat="48.036519018933177" lon="-4.717340972274542">
        <ele>64.549999999999997</ele>
        <time>2018-07-06T14:51:16Z</time>
      </trkpt>
      <trkpt lat="48.036520024761558" lon="-4.717328986153007">
        <ele>64.549999999999997</ele>
        <time>2018-07-06T14:51:17Z</time>
      </trkpt>
      <trkpt lat="48.036643993109465" lon="-4.716576961800456">
        <ele>63.579999999999998</ele>
        <time>2018-07-06T14:51:26Z</time>
      </trkpt>
      <trkpt lat="48.036863012239337" lon="-4.71621997654438">
        <ele>63.579999999999998</ele>
        <time>2018-07-06T14:51:34Z</time>
      </trkpt>
      <trkpt lat="48.036954961717129" lon="-4.716255012899637">
        <ele>63.579999999999998</ele>
        <time>2018-07-06T14:51:36Z</time>
      </trkpt>
      <trkpt lat="48.037010030820966" lon="-4.716276973485947">
        <ele>64.069999999999993</ele>
        <time>2018-07-06T14:51:37Z</time>
      </trkpt>
      <trkpt lat="48.037376990541816" lon="-4.716418040916324">
        <ele>66.950000000000003</ele>
        <time>2018-07-06T14:51:46Z</time>
      </trkpt>
      <trkpt lat="48.03740699775517" lon="-4.716428015381098">
        <ele>67.430000000000007</ele>
        <time>2018-07-06T14:51:57Z</time>
      </trkpt>
      <trkpt lat="48.037595003843307" lon="-4.716613003984094">
        <ele>69.349999999999994</ele>
        <time>2018-07-06T14:52:03Z</time>
      </trkpt>
      <trkpt lat="48.037633979693055" lon="-4.716658014804125">
        <ele>69.349999999999994</ele>
        <time>2018-07-06T14:52:04Z</time>
      </trkpt>
      <trkpt lat="48.037724001333117" lon="-4.716759016737342">
        <ele>70.310000000000002</ele>
        <time>2018-07-06T14:52:06Z</time>
      </trkpt>
      <trkpt lat="48.037767000496387" lon="-4.716811990365386">
        <ele>71.269999999999996</ele>
        <time>2018-07-06T14:52:07Z</time>
      </trkpt>
      <trkpt lat="48.037803964689374" lon="-4.716886002570391">
        <ele>71.760000000000005</ele>
        <time>2018-07-06T14:52:08Z</time>
      </trkpt>
      <trkpt lat="48.037842018529773" lon="-4.716961020603776">
        <ele>72.239999999999995</ele>
        <time>2018-07-06T14:52:09Z</time>
      </trkpt>
      <trkpt lat="48.037864984944463" lon="-4.717044001445174">
        <ele>72.719999999999999</ele>
        <time>2018-07-06T14:52:10Z</time>
      </trkpt>
      <trkpt lat="48.037933968007565" lon="-4.717337032780051">
        <ele>73.680000000000007</ele>
        <time>2018-07-06T14:52:13Z</time>
      </trkpt>
      <trkpt lat="48.038119040429592" lon="-4.718117974698544">
        <ele>74.640000000000001</ele>
        <time>2018-07-06T14:52:21Z</time>
      </trkpt>
      <trkpt lat="48.038117028772831" lon="-4.718230962753296">
        <ele>74.640000000000001</ele>
        <time>2018-07-06T14:52:22Z</time>
      </trkpt>
      <trkpt lat="48.038103030994534" lon="-4.718333976343274">
        <ele>74.640000000000001</ele>
        <time>2018-07-06T14:52:23Z</time>
      </trkpt>
      <trkpt lat="48.038090039044619" lon="-4.718426009640098">
        <ele>74.640000000000001</ele>
        <time>2018-07-06T14:52:24Z</time>
      </trkpt>
      <trkpt lat="48.038077969104052" lon="-4.718505972996354">
        <ele>74.640000000000001</ele>
        <time>2018-07-06T14:52:25Z</time>
      </trkpt>
      <trkpt lat="48.038063971325755" lon="-4.718606974929571">
        <ele>74.159999999999997</ele>
        <time>2018-07-06T14:52:26Z</time>
      </trkpt>
      <trkpt lat="48.03800898604095" lon="-4.718743013218045">
        <ele>73.680000000000007</ele>
        <time>2018-07-06T14:52:35Z</time>
      </trkpt>
      <trkpt lat="48.03800898604095" lon="-4.718743013218045">
        <ele>73.200000000000003</ele>
        <time>2018-07-06T14:52:46Z</time>
      </trkpt>
      <trkpt lat="48.03800898604095" lon="-4.718743013218045">
        <ele>73.200000000000003</ele>
        <time>2018-07-06T14:53:00Z</time>
      </trkpt>
      <trkpt lat="48.03800898604095" lon="-4.718743013218045">
        <ele>72.239999999999995</ele>
        <time>2018-07-06T14:53:08Z</time>
      </trkpt>
    </trkseg>
  </trk>

  <trk>
    <name>Track vom: 2018-07-06 17:06</name>
    <extensions>
      <gpxx:TrackExtension>
        <gpxx:DisplayColor>DarkGray</gpxx:DisplayColor>
      </gpxx:TrackExtension>
    </extensions>
    <trkseg>
      <trkpt lat="48.03800898604095" lon="-4.718743013218045">
        <ele>71.760000000000005</ele>
        <time>2018-07-06T15:06:05Z</time>
      </trkpt>
      <trkpt lat="48.03800898604095" lon="-4.718743013218045">
        <ele>72.239999999999995</ele>
        <time>2018-07-06T15:06:55Z</time>
      </trkpt>
      <trkpt lat="48.03800898604095" lon="-4.718743013218045">
        <ele>71.760000000000005</ele>
        <time>2018-07-06T15:07:50Z</time>
      </trkpt>
      <trkpt lat="48.038014015182853" lon="-4.718730021268129">
        <ele>71.269999999999996</ele>
        <time>2018-07-06T15:08:35Z</time>
      </trkpt>
      <trkpt lat="48.038053996860981" lon="-4.718630025163293">
        <ele>71.269999999999996</ele>
        <time>2018-07-06T15:08:36Z</time>
      </trkpt>
      <trkpt lat="48.038071012124419" lon="-4.718551989644766">
        <ele>71.269999999999996</ele>
        <time>2018-07-06T15:08:37Z</time>
      </trkpt>
      <trkpt lat="48.038085009902716" lon="-4.718460040166974">
        <ele>70.790000000000006</ele>
        <time>2018-07-06T15:08:38Z</time>
      </trkpt>
      <trkpt lat="48.038098001852632" lon="-4.718365995213389">
        <ele>70.790000000000006</ele>
        <time>2018-07-06T15:08:39Z</time>
      </trkpt>
      <trkpt lat="48.038111999630928" lon="-4.718268010765314">
        <ele>70.790000000000006</ele>
        <time>2018-07-06T15:08:40Z</time>
      </trkpt>
      <trkpt lat="48.038125997409225" lon="-4.718171032145619">
        <ele>70.790000000000006</ele>
        <time>2018-07-06T15:08:41Z</time>
      </trkpt>
      <trkpt lat="48.038106970489025" lon="-4.718069024384022">
        <ele>70.790000000000006</ele>
        <time>2018-07-06T15:08:42Z</time>
      </trkpt>
      <trkpt lat="48.038086015731096" lon="-4.717976991087198">
        <ele>70.310000000000002</ele>
        <time>2018-07-06T15:08:43Z</time>
      </trkpt>
      <trkpt lat="48.037996999919415" lon="-4.717599973082542">
        <ele>70.310000000000002</ele>
        <time>2018-07-06T15:08:47Z</time>
      </trkpt>
      <trkpt lat="48.037773035466671" lon="-4.716823976486921">
        <ele>69.349999999999994</ele>
        <time>2018-07-06T15:08:54Z</time>
      </trkpt>
      <trkpt lat="48.037717966362834" lon="-4.716752981767058">
        <ele>68.870000000000005</ele>
        <time>2018-07-06T15:08:55Z</time>
      </trkpt>
      <trkpt lat="48.037572959437966" lon="-4.716589031741023">
        <ele>67.909999999999997</ele>
        <time>2018-07-06T15:08:58Z</time>
      </trkpt>
      <trkpt lat="48.037534989416599" lon="-4.716546032577753">
        <ele>67.430000000000007</ele>
        <time>2018-07-06T15:08:59Z</time>
      </trkpt>
      <trkpt lat="48.037499031051993" lon="-4.716504961252213">
        <ele>66.950000000000003</ele>
        <time>2018-07-06T15:09:00Z</time>
      </trkpt>
      <trkpt lat="48.037465000525117" lon="-4.716465985402465">
        <ele>66.950000000000003</ele>
        <time>2018-07-06T15:09:01Z</time>
      </trkpt>
      <trkpt lat="48.037441028282046" lon="-4.716438995674253">
        <ele>66.469999999999999</ele>
        <time>2018-07-06T15:09:02Z</time>
      </trkpt>
      <trkpt lat="48.037440022453666" lon="-4.716428015381098">
        <ele>65.989999999999995</ele>
        <time>2018-07-06T15:09:03Z</time>
      </trkpt>
      <trkpt lat="48.037441028282046" lon="-4.716438995674253">
        <ele>64.549999999999997</ele>
        <time>2018-07-06T15:09:08Z</time>
      </trkpt>
      <trkpt lat="48.037376990541816" lon="-4.716418040916324">
        <ele>64.549999999999997</ele>
        <time>2018-07-06T15:09:09Z</time>
      </trkpt>
      <trkpt lat="48.037330973893404" lon="-4.716400019824505">
        <ele>64.549999999999997</ele>
        <time>2018-07-06T15:09:10Z</time>
      </trkpt>
      <trkpt lat="48.036894025281072" lon="-4.716231962665916">
        <ele>63.100000000000001</ele>
        <time>2018-07-06T15:09:17Z</time>
      </trkpt>
      <trkpt lat="48.036819007247686" lon="-4.716202961280942">
        <ele>62.140000000000001</ele>
        <time>2018-07-06T15:09:20Z</time>
      </trkpt>
      <trkpt lat="48.036821018904448" lon="-4.716184018179774">
        <ele>61.659999999999997</ele>
        <time>2018-07-06T15:09:21Z</time>
      </trkpt>
      <trkpt lat="48.03682797588408" lon="-4.71613297238946">
        <ele>61.18</ele>
        <time>2018-07-06T15:09:22Z</time>
      </trkpt>
      <trkpt lat="48.036836022511125" lon="-4.716063989326358">
        <ele>60.700000000000003</ele>
        <time>2018-07-06T15:09:23Z</time>
      </trkpt>
      <trkpt lat="48.036844991147518" lon="-4.715992994606495">
        <ele>60.700000000000003</ele>
        <time>2018-07-06T15:09:24Z</time>
      </trkpt>
      <trkpt lat="48.036853037774563" lon="-4.715929040685296">
        <ele>60.700000000000003</ele>
        <time>2018-07-06T15:09:25Z</time>
      </trkpt>
      <trkpt lat="48.036859994754195" lon="-4.715872965753079">
        <ele>60.700000000000003</ele>
        <time>2018-07-06T15:09:26Z</time>
      </trkpt>
      <trkpt lat="48.036856977269053" lon="-4.71583298407495">
        <ele>60.219999999999999</ele>
        <time>2018-07-06T15:09:27Z</time>
      </trkpt>
      <trkpt lat="48.036853037774563" lon="-4.715803982689977">
        <ele>60.219999999999999</ele>
        <time>2018-07-06T15:09:28Z</time>
      </trkpt>
      <trkpt lat="48.036853037774563" lon="-4.715803982689977">
        <ele>60.219999999999999</ele>
        <time>2018-07-06T15:09:43Z</time>
      </trkpt>
      <trkpt lat="48.036819007247686" lon="-4.715601978823543">
        <ele>60.700000000000003</ele>
        <time>2018-07-06T15:09:47Z</time>
      </trkpt>
      <trkpt lat="48.036823030561209" lon="-4.715580018237233">
        <ele>61.18</ele>
        <time>2018-07-06T15:09:48Z</time>
      </trkpt>
      <trkpt lat="48.036929983645678" lon="-4.715018011629582">
        <ele>59.740000000000002</ele>
        <time>2018-07-06T15:09:54Z</time>
      </trkpt>
      <trkpt lat="48.036942975595593" lon="-4.714947016909719">
        <ele>59.740000000000002</ele>
        <time>2018-07-06T15:09:55Z</time>
      </trkpt>
      <trkpt lat="48.03695403970778" lon="-4.714888008311391">
        <ele>59.740000000000002</ele>
        <time>2018-07-06T15:09:56Z</time>
      </trkpt>
      <trkpt lat="48.036888996139169" lon="-4.714645016938448">
        <ele>58.780000000000001</ele>
        <time>2018-07-06T15:09:59Z</time>
      </trkpt>
      <trkpt lat="48.036917997524142" lon="-4.714574022218585">
        <ele>58.780000000000001</ele>
        <time>2018-07-06T15:10:00Z</time>
      </trkpt>
      <trkpt lat="48.036948004737496" lon="-4.714501015841961">
        <ele>58.299999999999997</ele>
        <time>2018-07-06T15:10:01Z</time>
      </trkpt>
      <trkpt lat="48.036976000294089" lon="-4.714433960616589">
        <ele>58.299999999999997</ele>
        <time>2018-07-06T15:10:02Z</time>
      </trkpt>
      <trkpt lat="48.037000978365541" lon="-4.714372018352151">
        <ele>57.82</ele>
        <time>2018-07-06T15:10:03Z</time>
      </trkpt>
      <trkpt lat="48.037034003064036" lon="-4.714293982833624">
        <ele>57.82</ele>
        <time>2018-07-06T15:10:04Z</time>
      </trkpt>
      <trkpt lat="48.037069961428642" lon="-4.714272022247315">
        <ele>57.340000000000003</ele>
        <time>2018-07-06T15:10:05Z</time>
      </trkpt>
      <trkpt lat="48.03712997585535" lon="-4.714235980063677">
        <ele>57.340000000000003</ele>
        <time>2018-07-06T15:10:06Z</time>
      </trkpt>
      <trkpt lat="48.0371930077672" lon="-4.71419801004231">
        <ele>57.340000000000003</ele>
        <time>2018-07-06T15:10:07Z</time>
      </trkpt>
      <trkpt lat="48.037253022193909" lon="-4.714161967858672">
        <ele>56.859999999999999</ele>
        <time>2018-07-06T15:10:08Z</time>
      </trkpt>
      <trkpt lat="48.037354024127126" lon="-4.714102037250996">
        <ele>56.859999999999999</ele>
        <time>2018-07-06T15:10:10Z</time>
      </trkpt>
      <trkpt lat="48.037357963621616" lon="-4.714037999510765">
        <ele>56.369999999999997</ele>
        <time>2018-07-06T15:10:11Z</time>
      </trkpt>
      <trkpt lat="48.037360981106758" lon="-4.713975973427296">
        <ele>56.369999999999997</ele>
        <time>2018-07-06T15:10:12Z</time>
      </trkpt>
      <trkpt lat="48.03736500442028" lon="-4.713907996192575">
        <ele>56.369999999999997</ele>
        <time>2018-07-06T15:10:13Z</time>
      </trkpt>
      <trkpt lat="48.037368021905422" lon="-4.713829960674048">
        <ele>55.890000000000001</ele>
        <time>2018-07-06T15:10:14Z</time>
      </trkpt>
      <trkpt lat="48.037372967228293" lon="-4.713740022853017">
        <ele>55.409999999999997</ele>
        <time>2018-07-06T15:10:15Z</time>
      </trkpt>
      <trkpt lat="48.03738696500659" lon="-4.71344699151814">
        <ele>54.450000000000003</ele>
        <time>2018-07-06T15:10:23Z</time>
      </trkpt>
      <trkpt lat="48.037392999976873" lon="-4.713320005685091">
        <ele>53.969999999999999</ele>
        <time>2018-07-06T15:11:03Z</time>
      </trkpt>
      <trkpt lat="48.037435999140143" lon="-4.712416017428041">
        <ele>53.490000000000002</ele>
        <time>2018-07-06T15:11:10Z</time>
      </trkpt>
      <trkpt lat="48.037698017433286" lon="-4.71071801148355">
        <ele>58.780000000000001</ele>
        <time>2018-07-06T15:11:20Z</time>
      </trkpt>
      <trkpt lat="48.037887029349804" lon="-4.709672033786774">
        <ele>65.030000000000001</ele>
        <time>2018-07-06T15:11:26Z</time>
      </trkpt>
      <trkpt lat="48.037918964400887" lon="-4.709500959143043">
        <ele>65.989999999999995</ele>
        <time>2018-07-06T15:11:27Z</time>
      </trkpt>
      <trkpt lat="48.038060031831264" lon="-4.708856977522373">
        <ele>69.349999999999994</ele>
        <time>2018-07-06T15:11:31Z</time>
      </trkpt>
      <trkpt lat="48.038128009065986" lon="-4.708726974204183">
        <ele>70.310000000000002</ele>
        <time>2018-07-06T15:11:32Z</time>
      </trkpt>
      <trkpt lat="48.03820101544261" lon="-4.708593031391501">
        <ele>71.269999999999996</ele>
        <time>2018-07-06T15:11:33Z</time>
      </trkpt>
      <trkpt lat="48.038982963189483" lon="-4.707171963527799">
        <ele>71.269999999999996</ele>
        <time>2018-07-06T15:11:43Z</time>
      </trkpt>
      <trkpt lat="48.039321005344391" lon="-4.706480037420988">
        <ele>71.760000000000005</ele>
        <time>2018-07-06T15:11:48Z</time>
      </trkpt>
      <trkpt lat="48.039371967315674" lon="-4.70633402466774">
        <ele>71.760000000000005</ele>
        <time>2018-07-06T15:11:49Z</time>
      </trkpt>
      <trkpt lat="48.039403986185789" lon="-4.706181976944208">
        <ele>71.760000000000005</ele>
        <time>2018-07-06T15:11:50Z</time>
      </trkpt>
      <trkpt lat="48.039675978943706" lon="-4.70453099347651">
        <ele>72.719999999999999</ele>
        <time>2018-07-06T15:12:01Z</time>
      </trkpt>
      <trkpt lat="48.039685031399131" lon="-4.704398978501558">
        <ele>72.719999999999999</ele>
        <time>2018-07-06T15:12:02Z</time>
      </trkpt>
      <trkpt lat="48.039783015847206" lon="-4.702917980030179">
        <ele>74.159999999999997</ele>
        <time>2018-07-06T15:12:13Z</time>
      </trkpt>
      <trkpt lat="48.03981201723218" lon="-4.702493017539382">
        <ele>74.159999999999997</ele>
        <time>2018-07-06T15:12:16Z</time>
      </trkpt>
      <trkpt lat="48.039822997525334" lon="-4.702320015057921">
        <ele>74.159999999999997</ele>
        <time>2018-07-06T15:12:17Z</time>
      </trkpt>
      <trkpt lat="48.039840012788773" lon="-4.702048022300005">
        <ele>74.159999999999997</ele>
        <time>2018-07-06T15:12:19Z</time>
      </trkpt>
      <trkpt lat="48.03987798281014" lon="-4.700164021924138">
        <ele>72.239999999999995</ele>
        <time>2018-07-06T15:12:31Z</time>
      </trkpt>
      <trkpt lat="48.039848981425166" lon="-4.698359984904528">
        <ele>72.719999999999999</ele>
        <time>2018-07-06T15:12:42Z</time>
      </trkpt>
      <trkpt lat="48.039846969768405" lon="-4.698188994079828">
        <ele>72.239999999999995</ele>
        <time>2018-07-06T15:12:43Z</time>
      </trkpt>
      <trkpt lat="48.039858033880591" lon="-4.69767602160573">
        <ele>71.269999999999996</ele>
        <time>2018-07-06T15:12:46Z</time>
      </trkpt>
      <trkpt lat="48.039815034717321" lon="-4.696974959224463">
        <ele>70.790000000000006</ele>
        <time>2018-07-06T15:12:51Z</time>
      </trkpt>
      <trkpt lat="48.039810005575418" lon="-4.696889966726303">
        <ele>70.790000000000006</ele>
        <time>2018-07-06T15:12:52Z</time>
      </trkpt>
      <trkpt lat="48.039805982261896" lon="-4.696828024461865">
        <ele>70.790000000000006</ele>
        <time>2018-07-06T15:12:53Z</time>
      </trkpt>
      <trkpt lat="48.039873037487268" lon="-4.696756023913622">
        <ele>70.790000000000006</ele>
        <time>2018-07-06T15:12:54Z</time>
      </trkpt>
      <trkpt lat="48.039932968094945" lon="-4.696749988943338">
        <ele>71.269999999999996</ele>
        <time>2018-07-06T15:12:55Z</time>
      </trkpt>
      <trkpt lat="48.040005974471569" lon="-4.696744037792087">
        <ele>71.269999999999996</ele>
        <time>2018-07-06T15:12:56Z</time>
      </trkpt>
      <trkpt lat="48.04009297862649" lon="-4.696735991165042">
        <ele>71.269999999999996</ele>
        <time>2018-07-06T15:12:57Z</time>
      </trkpt>
      <trkpt lat="48.040968971326947" lon="-4.696658039465547">
        <ele>67.909999999999997</ele>
        <time>2018-07-06T15:13:04Z</time>
      </trkpt>
      <trkpt lat="48.042183006182313" lon="-4.696999015286565">
        <ele>63.100000000000001</ele>
        <time>2018-07-06T15:13:12Z</time>
      </trkpt>
      <trkpt lat="48.042318960651755" lon="-4.696957021951675">
        <ele>62.619999999999997</ele>
        <time>2018-07-06T15:13:13Z</time>
      </trkpt>
      <trkpt lat="48.042436977848411" lon="-4.696920979768038">
        <ele>61.659999999999997</ele>
        <time>2018-07-06T15:13:14Z</time>
      </trkpt>
      <trkpt lat="48.042516019195318" lon="-4.696845961734653">
        <ele>60.219999999999999</ele>
        <time>2018-07-06T15:13:15Z</time>
      </trkpt>
      <trkpt lat="48.042563963681459" lon="-4.696742026135325">
        <ele>59.259999999999998</ele>
        <time>2018-07-06T15:13:16Z</time>
      </trkpt>
      <trkpt lat="48.042591037228703" lon="-4.696633983403444">
        <ele>58.299999999999997</ele>
        <time>2018-07-06T15:13:17Z</time>
      </trkpt>
      <trkpt lat="48.042606962844729" lon="-4.696456035599113">
        <ele>57.340000000000003</ele>
        <time>2018-07-06T15:13:18Z</time>
      </trkpt>
      <trkpt lat="48.042622972279787" lon="-4.696287978440523">
        <ele>56.369999999999997</ele>
        <time>2018-07-06T15:13:19Z</time>
      </trkpt>
      <trkpt lat="48.042637975886464" lon="-4.696118999272585">
        <ele>54.93</ele>
        <time>2018-07-06T15:13:20Z</time>
      </trkpt>
      <trkpt lat="48.04265096783638" lon="-4.695970974862576">
        <ele>53.969999999999999</ele>
        <time>2018-07-06T15:13:21Z</time>
      </trkpt>
      <trkpt lat="48.042689021676779" lon="-4.695897968485951">
        <ele>53.009999999999998</ele>
        <time>2018-07-06T15:13:22Z</time>
      </trkpt>
      <trkpt lat="48.042746018618345" lon="-4.695851029828191">
        <ele>52.049999999999997</ele>
        <time>2018-07-06T15:13:23Z</time>
      </trkpt>
      <trkpt lat="48.042787006124854" lon="-4.695821022614837">
        <ele>51.090000000000003</ele>
        <time>2018-07-06T15:13:24Z</time>
      </trkpt>
      <trkpt lat="48.042851965874434" lon="-4.695869972929359">
        <ele>50.609999999999999</ele>
        <time>2018-07-06T15:13:25Z</time>
      </trkpt>
      <trkpt lat="48.042907034978271" lon="-4.695956977084279">
        <ele>49.649999999999999</ele>
        <time>2018-07-06T15:13:26Z</time>
      </trkpt>
      <trkpt lat="48.042968977242708" lon="-4.696082035079598">
        <ele>48.68</ele>
        <time>2018-07-06T15:13:27Z</time>
      </trkpt>
      <trkpt lat="48.043033014982939" lon="-4.696226036176086">
        <ele>47.719999999999999</ele>
        <time>2018-07-06T15:13:28Z</time>
      </trkpt>
      <trkpt lat="48.043462000787258" lon="-4.69778498634696">
        <ele>40.990000000000002</ele>
        <time>2018-07-06T15:13:36Z</time>
      </trkpt>
      <trkpt lat="48.043696023523808" lon="-4.698931965976954">
        <ele>34.740000000000002</ele>
        <time>2018-07-06T15:13:44Z</time>
      </trkpt>
      <trkpt lat="48.043696023523808" lon="-4.698931965976954">
        <ele>33.780000000000001</ele>
        <time>2018-07-06T15:13:54Z</time>
      </trkpt>
      <trkpt lat="48.043728964403272" lon="-4.699141010642052">
        <ele>33.299999999999997</ele>
        <time>2018-07-06T15:14:27Z</time>
      </trkpt>
      <trkpt lat="48.043904984369874" lon="-4.700250020250678">
        <ele>31.379999999999999</ele>
        <time>2018-07-06T15:14:33Z</time>
      </trkpt>
      <trkpt lat="48.044194998219609" lon="-4.701792038977146">
        <ele>28.02</ele>
        <time>2018-07-06T15:14:40Z</time>
      </trkpt>
      <trkpt lat="48.044803021475673" lon="-4.703834960237145">
        <ele>19.84</ele>
        <time>2018-07-06T15:14:51Z</time>
      </trkpt>
      <trkpt lat="48.044977029785514" lon="-4.704259000718594">
        <ele>17.440000000000001</ele>
        <time>2018-07-06T15:14:54Z</time>
      </trkpt>
      <trkpt lat="48.045035032555461" lon="-4.704375006258488">
        <ele>16.48</ele>
        <time>2018-07-06T15:14:55Z</time>
      </trkpt>
      <trkpt lat="48.045110972598195" lon="-4.704462010413408">
        <ele>15.52</ele>
        <time>2018-07-06T15:14:56Z</time>
      </trkpt>
      <trkpt lat="48.045189008116722" lon="-4.704548008739948">
        <ele>15.039999999999999</ele>
        <time>2018-07-06T15:14:57Z</time>
      </trkpt>
      <trkpt lat="48.045275006443262" lon="-4.704611962661147">
        <ele>14.08</ele>
        <time>2018-07-06T15:14:58Z</time>
      </trkpt>
      <trkpt lat="48.045376008376479" lon="-4.704650016501546">
        <ele>13.119999999999999</ele>
        <time>2018-07-06T15:14:59Z</time>
      </trkpt>
      <trkpt lat="48.045481033623219" lon="-4.704689998179674">
        <ele>12.630000000000001</ele>
        <time>2018-07-06T15:15:00Z</time>
      </trkpt>
      <trkpt lat="48.045584969222546" lon="-4.704729979857802">
        <ele>12.630000000000001</ele>
        <time>2018-07-06T15:15:01Z</time>
      </trkpt>
      <trkpt lat="48.046661959961057" lon="-4.704687986522913">
        <ele>9.75</ele>
        <time>2018-07-06T15:15:11Z</time>
      </trkpt>
      <trkpt lat="48.047102009877563" lon="-4.704553037881851">
        <ele>10.23</ele>
        <time>2018-07-06T15:15:16Z</time>
      </trkpt>
      <trkpt lat="48.047165041789412" lon="-4.704496962949634">
        <ele>10.23</ele>
        <time>2018-07-06T15:15:17Z</time>
      </trkpt>
      <trkpt lat="48.04724701680243" lon="-4.704423034563661">
        <ele>10.23</ele>
        <time>2018-07-06T15:15:18Z</time>
      </trkpt>
      <trkpt lat="48.047294961288571" lon="-4.704326977953315">
        <ele>10.23</ele>
        <time>2018-07-06T15:15:19Z</time>
      </trkpt>
      <trkpt lat="48.047343995422125" lon="-4.704188005998731">
        <ele>10.710000000000001</ele>
        <time>2018-07-06T15:15:20Z</time>
      </trkpt>
      <trkpt lat="48.047374002635479" lon="-4.704006034880877">
        <ele>10.23</ele>
        <time>2018-07-06T15:15:21Z</time>
      </trkpt>
      <trkpt lat="48.047408033162355" lon="-4.703804031014442">
        <ele>10.710000000000001</ele>
        <time>2018-07-06T15:15:22Z</time>
      </trkpt>
      <trkpt lat="48.047444997355342" lon="-4.703358029946685">
        <ele>10.23</ele>
        <time>2018-07-06T15:15:24Z</time>
      </trkpt>
      <trkpt lat="48.04748103953898" lon="-4.701562961563468">
        <ele>9.75</ele>
        <time>2018-07-06T15:15:32Z</time>
      </trkpt>
      <trkpt lat="48.047266965731978" lon="-4.699876019731164">
        <ele>10.710000000000001</ele>
        <time>2018-07-06T15:15:42Z</time>
      </trkpt>
      <trkpt lat="48.047072002664208" lon="-4.69879399985075">
        <ele>8.789999999999999</ele>
        <time>2018-07-06T15:15:48Z</time>
      </trkpt>
      <trkpt lat="48.04705398157239" lon="-4.698595013469458">
        <ele>8.789999999999999</ele>
        <time>2018-07-06T15:15:49Z</time>
      </trkpt>
      <trkpt lat="48.047035960480571" lon="-4.698384962975979">
        <ele>8.789999999999999</ele>
        <time>2018-07-06T15:15:50Z</time>
      </trkpt>
      <trkpt lat="48.047063034027815" lon="-4.698148006573319">
        <ele>9.27</ele>
        <time>2018-07-06T15:15:51Z</time>
      </trkpt>
      <trkpt lat="48.04709798656404" lon="-4.697909038513899">
        <ele>9.27</ele>
        <time>2018-07-06T15:15:52Z</time>
      </trkpt>
      <trkpt lat="48.04713997989893" lon="-4.697667974978685">
        <ele>9.75</ele>
        <time>2018-07-06T15:15:53Z</time>
      </trkpt>
      <trkpt lat="48.047188008204103" lon="-4.697438981384039">
        <ele>10.23</ele>
        <time>2018-07-06T15:15:54Z</time>
      </trkpt>
      <trkpt lat="48.047307031229138" lon="-4.696874041110277">
        <ele>12.15</ele>
        <time>2018-07-06T15:15:57Z</time>
      </trkpt>
      <trkpt lat="48.047361010685563" lon="-4.696733979508281">
        <ele>12.630000000000001</ele>
        <time>2018-07-06T15:15:58Z</time>
      </trkpt>
      <trkpt lat="48.047413984313607" lon="-4.696611016988754">
        <ele>13.6</ele>
        <time>2018-07-06T15:15:59Z</time>
      </trkpt>
      <trkpt lat="48.047554967924953" lon="-4.696198962628841">
        <ele>15.039999999999999</ele>
        <time>2018-07-06T15:16:03Z</time>
      </trkpt>
      <trkpt lat="48.047580029815435" lon="-4.696096032857895">
        <ele>15.52</ele>
        <time>2018-07-06T15:16:04Z</time>
      </trkpt>
      <trkpt lat="48.047608025372028" lon="-4.695984972640872">
        <ele>15.52</ele>
        <time>2018-07-06T15:16:05Z</time>
      </trkpt>
      <trkpt lat="48.047592015936971" lon="-4.695869972929359">
        <ele>15.039999999999999</ele>
        <time>2018-07-06T15:16:06Z</time>
      </trkpt>
      <trkpt lat="48.047564020380378" lon="-4.695727983489633">
        <ele>14.08</ele>
        <time>2018-07-06T15:16:07Z</time>
      </trkpt>
      <trkpt lat="48.047525966539979" lon="-4.695539977401495">
        <ele>13.6</ele>
        <time>2018-07-06T15:16:08Z</time>
      </trkpt>
      <trkpt lat="48.047309964895248" lon="-4.694889038801193">
        <ele>12.15</ele>
        <time>2018-07-06T15:16:13Z</time>
      </trkpt>
      <trkpt lat="48.047266965731978" lon="-4.694760963320732">
        <ele>12.15</ele>
        <time>2018-07-06T15:16:14Z</time>
      </trkpt>
      <trkpt lat="48.047240981832147" lon="-4.694614028558135">
        <ele>12.630000000000001</ele>
        <time>2018-07-06T15:16:15Z</time>
      </trkpt>
      <trkpt lat="48.047231007367373" lon="-4.694461980834603">
        <ele>12.630000000000001</ele>
        <time>2018-07-06T15:16:16Z</time>
      </trkpt>
      <trkpt lat="48.047220027074218" lon="-4.694306999444962">
        <ele>13.119999999999999</ele>
        <time>2018-07-06T15:16:17Z</time>
      </trkpt>
      <trkpt lat="48.0471829790622" lon="-4.693281976506114">
        <ele>16.48</ele>
        <time>2018-07-06T15:16:23Z</time>
      </trkpt>
      <trkpt lat="48.047206029295921" lon="-4.693087013438344">
        <ele>17.440000000000001</ele>
        <time>2018-07-06T15:16:24Z</time>
      </trkpt>
      <trkpt lat="48.047238970175385" lon="-4.692878974601626">
        <ele>18.879999999999999</ele>
        <time>2018-07-06T15:16:25Z</time>
      </trkpt>
      <trkpt lat="48.047300996258855" lon="-4.692677976563573">
        <ele>19.84</ele>
        <time>2018-07-06T15:16:26Z</time>
      </trkpt>
      <trkpt lat="48.047362016513944" lon="-4.692475972697139">
        <ele>20.809999999999999</ele>
        <time>2018-07-06T15:16:27Z</time>
      </trkpt>
      <trkpt lat="48.04748397320509" lon="-4.692113036289811">
        <ele>22.73</ele>
        <time>2018-07-06T15:16:29Z</time>
      </trkpt>
      <trkpt lat="48.047559997066855" lon="-4.691983032971621">
        <ele>23.210000000000001</ele>
        <time>2018-07-06T15:16:30Z</time>
      </trkpt>
      <trkpt lat="48.047992000356317" lon="-4.691153978928924">
        <ele>28.02</ele>
        <time>2018-07-06T15:16:37Z</time>
      </trkpt>
      <trkpt lat="48.048231974244118" lon="-4.690584009513259">
        <ele>28.98</ele>
        <time>2018-07-06T15:16:42Z</time>
      </trkpt>
      <trkpt lat="48.048373041674495" lon="-4.689971040934324">
        <ele>26.57</ele>
        <time>2018-07-06T15:16:47Z</time>
      </trkpt>
      <trkpt lat="48.048383016139269" lon="-4.68983399681747">
        <ele>26.09</ele>
        <time>2018-07-06T15:16:48Z</time>
      </trkpt>
      <trkpt lat="48.048377986997366" lon="-4.689679015427828">
        <ele>25.129999999999999</ele>
        <time>2018-07-06T15:16:49Z</time>
      </trkpt>
      <trkpt lat="48.04836499504745" lon="-4.689180040732026">
        <ele>23.210000000000001</ele>
        <time>2018-07-06T15:16:52Z</time>
      </trkpt>
      <trkpt lat="48.048373963683844" lon="-4.689007960259914">
        <ele>23.690000000000001</ele>
        <time>2018-07-06T15:16:53Z</time>
      </trkpt>
      <trkpt lat="48.048521988093853" lon="-4.687196966260672">
        <ele>32.82</ele>
        <time>2018-07-06T15:17:03Z</time>
      </trkpt>
      <trkpt lat="48.048540009185672" lon="-4.685800038278103">
        <ele>40.030000000000001</ele>
        <time>2018-07-06T15:17:10Z</time>
      </trkpt>
      <trkpt lat="48.048562975600362" lon="-4.685594011098146">
        <ele>40.990000000000002</ele>
        <time>2018-07-06T15:17:11Z</time>
      </trkpt>
      <trkpt lat="48.048588037490845" lon="-4.685380021110177">
        <ele>40.990000000000002</ele>
        <time>2018-07-06T15:17:12Z</time>
      </trkpt>
      <trkpt lat="48.048638999462128" lon="-4.684942988678813">
        <ele>40.990000000000002</ele>
        <time>2018-07-06T15:17:14Z</time>
      </trkpt>
      <trkpt lat="48.048661965876818" lon="-4.684715000912547">
        <ele>40.509999999999998</ele>
        <time>2018-07-06T15:17:15Z</time>
      </trkpt>
      <trkpt lat="48.048621984198689" lon="-4.684511991217732">
        <ele>40.509999999999998</ele>
        <time>2018-07-06T15:17:16Z</time>
      </trkpt>
      <trkpt lat="48.048580996692181" lon="-4.684302024543285">
        <ele>40.509999999999998</ele>
        <time>2018-07-06T15:17:17Z</time>
      </trkpt>
      <trkpt lat="48.048543026670814" lon="-4.684102032333612">
        <ele>40.990000000000002</ele>
        <time>2018-07-06T15:17:18Z</time>
      </trkpt>
      <trkpt lat="48.048502961173654" lon="-4.683766001835465">
        <ele>42.439999999999998</ele>
        <time>2018-07-06T15:17:20Z</time>
      </trkpt>
      <trkpt lat="48.048491980880499" lon="-4.683587970212102">
        <ele>43.399999999999999</ele>
        <time>2018-07-06T15:17:21Z</time>
      </trkpt>
      <trkpt lat="48.048499021679163" lon="-4.683470036834478">
        <ele>44.359999999999999</ele>
        <time>2018-07-06T15:17:22Z</time>
      </trkpt>
      <trkpt lat="48.048507990315557" lon="-4.683321006596088">
        <ele>45.32</ele>
        <time>2018-07-06T15:17:23Z</time>
      </trkpt>
      <trkpt lat="48.048517964780331" lon="-4.683163007721305">
        <ele>46.280000000000001</ele>
        <time>2018-07-06T15:17:24Z</time>
      </trkpt>
      <trkpt lat="48.048537997528911" lon="-4.682833012193441">
        <ele>47.240000000000002</ele>
        <time>2018-07-06T15:17:26Z</time>
      </trkpt>
      <trkpt lat="48.048547971993685" lon="-4.682675013318658">
        <ele>48.200000000000003</ele>
        <time>2018-07-06T15:17:27Z</time>
      </trkpt>
      <trkpt lat="48.048634976148605" lon="-4.68094197101891">
        <ele>49.159999999999997</ele>
        <time>2018-07-06T15:17:37Z</time>
      </trkpt>
      <trkpt lat="48.048730026930571" lon="-4.680108977481723">
        <ele>46.280000000000001</ele>
        <time>2018-07-06T15:17:42Z</time>
      </trkpt>
      <trkpt lat="48.048738995566964" lon="-4.679557029157877">
        <ele>43.880000000000003</ele>
        <time>2018-07-06T15:17:45Z</time>
      </trkpt>
      <trkpt lat="48.04872902110219" lon="-4.679146986454725">
        <ele>42.439999999999998</ele>
        <time>2018-07-06T15:17:47Z</time>
      </trkpt>
      <trkpt lat="48.048743018880486" lon="-4.678935008123517">
        <ele>42.439999999999998</ele>
        <time>2018-07-06T15:17:48Z</time>
      </trkpt>
      <trkpt lat="48.049109978601336" lon="-4.677232978865504">
        <ele>49.649999999999999</ele>
        <time>2018-07-06T15:17:56Z</time>
      </trkpt>
      <trkpt lat="48.04937400855124" lon="-4.676308035850525">
        <ele>49.649999999999999</ele>
        <time>2018-07-06T15:18:02Z</time>
      </trkpt>
      <trkpt lat="48.049488002434373" lon="-4.676059009507299">
        <ele>49.649999999999999</ele>
        <time>2018-07-06T15:18:04Z</time>
      </trkpt>
      <trkpt lat="48.049551034346223" lon="-4.675950966775417">
        <ele>49.159999999999997</ele>
        <time>2018-07-06T15:18:05Z</time>
      </trkpt>
      <trkpt lat="48.050113962963223" lon="-4.674971960484982">
        <ele>49.159999999999997</ele>
        <time>2018-07-06T15:18:15Z</time>
      </trkpt>
      <trkpt lat="48.050252012908459" lon="-4.674565019086003">
        <ele>49.159999999999997</ele>
        <time>2018-07-06T15:18:18Z</time>
      </trkpt>
      <trkpt lat="48.050315966829658" lon="-4.674264024943113">
        <ele>49.649999999999999</ele>
        <time>2018-07-06T15:18:20Z</time>
      </trkpt>
      <trkpt lat="48.050323007628322" lon="-4.674099991098046">
        <ele>49.649999999999999</ele>
        <time>2018-07-06T15:18:21Z</time>
      </trkpt>
      <trkpt lat="48.050329964607954" lon="-4.673930006101728">
        <ele>49.649999999999999</ele>
        <time>2018-07-06T15:18:22Z</time>
      </trkpt>
      <trkpt lat="48.050337005406618" lon="-4.673760021105409">
        <ele>49.649999999999999</ele>
        <time>2018-07-06T15:18:23Z</time>
      </trkpt>
      <trkpt lat="48.050314038991928" lon="-4.673595987260342">
        <ele>49.649999999999999</ele>
        <time>2018-07-06T15:18:24Z</time>
      </trkpt>
      <trkpt lat="48.050291994586587" lon="-4.673436982557178">
        <ele>49.649999999999999</ele>
        <time>2018-07-06T15:18:25Z</time>
      </trkpt>
      <trkpt lat="48.050207002088428" lon="-4.67283901758492">
        <ele>48.68</ele>
        <time>2018-07-06T15:18:30Z</time>
      </trkpt>
      <trkpt lat="48.050194010138512" lon="-4.672745978459716">
        <ele>48.200000000000003</ele>
        <time>2018-07-06T15:18:31Z</time>
      </trkpt>
      <trkpt lat="48.050180012360215" lon="-4.672645982354879">
        <ele>48.200000000000003</ele>
        <time>2018-07-06T15:18:32Z</time>
      </trkpt>
      <trkpt lat="48.050165008753538" lon="-4.672545986250043">
        <ele>48.200000000000003</ele>
        <time>2018-07-06T15:18:33Z</time>
      </trkpt>
      <trkpt lat="48.050152016803622" lon="-4.67245202511549">
        <ele>48.200000000000003</ele>
        <time>2018-07-06T15:18:34Z</time>
      </trkpt>
      <trkpt lat="48.050140030682087" lon="-4.672365020960569">
        <ele>48.200000000000003</ele>
        <time>2018-07-06T15:18:35Z</time>
      </trkpt>
      <trkpt lat="48.05012603290379" lon="-4.672271981835365">
        <ele>48.200000000000003</ele>
        <time>2018-07-06T15:18:36Z</time>
      </trkpt>
      <trkpt lat="48.050110023468733" lon="-4.672158993780613">
        <ele>48.200000000000003</ele>
        <time>2018-07-06T15:18:37Z</time>
      </trkpt>
      <trkpt lat="48.049944983795285" lon="-4.67099298723042">
        <ele>50.130000000000003</ele>
        <time>2018-07-06T15:18:44Z</time>
      </trkpt>
      <trkpt lat="48.049852028489113" lon="-4.669923037290573">
        <ele>53.009999999999998</ele>
        <time>2018-07-06T15:18:50Z</time>
      </trkpt>
      <trkpt lat="48.049797965213656" lon="-4.669766966253519">
        <ele>52.530000000000001</ele>
        <time>2018-07-06T15:18:51Z</time>
      </trkpt>
      <trkpt lat="48.049742979928851" lon="-4.669607961550355">
        <ele>52.049999999999997</ele>
        <time>2018-07-06T15:18:52Z</time>
      </trkpt>
      <trkpt lat="48.049686988815665" lon="-4.6694450173527">
        <ele>52.049999999999997</ele>
        <time>2018-07-06T15:18:53Z</time>
      </trkpt>
      <trkpt lat="48.049620017409325" lon="-4.669275032356381">
        <ele>52.049999999999997</ele>
        <time>2018-07-06T15:18:54Z</time>
      </trkpt>
      <trkpt lat="48.049382977187634" lon="-4.668787037953734">
        <ele>51.57</ele>
        <time>2018-07-06T15:18:57Z</time>
      </trkpt>
      <trkpt lat="48.048918033018708" lon="-4.667250970378518">
        <ele>49.159999999999997</ele>
        <time>2018-07-06T15:19:05Z</time>
      </trkpt>
      <trkpt lat="48.048734972253442" lon="-4.666370032355189">
        <ele>49.159999999999997</ele>
        <time>2018-07-06T15:19:10Z</time>
      </trkpt>
      <trkpt lat="48.048688033595681" lon="-4.666003994643688">
        <ele>49.159999999999997</ele>
        <time>2018-07-06T15:19:12Z</time>
      </trkpt>
      <trkpt lat="48.048693984746933" lon="-4.665819006040692">
        <ele>49.159999999999997</ele>
        <time>2018-07-06T15:19:13Z</time>
      </trkpt>
      <trkpt lat="48.048700019717216" lon="-4.665623959153891">
        <ele>49.159999999999997</ele>
        <time>2018-07-06T15:19:14Z</time>
      </trkpt>
      <trkpt lat="48.048706976696849" lon="-4.665425978600979">
        <ele>49.649999999999999</ele>
        <time>2018-07-06T15:19:15Z</time>
      </trkpt>
      <trkpt lat="48.048713011667132" lon="-4.665227998048067">
        <ele>49.649999999999999</ele>
        <time>2018-07-06T15:19:16Z</time>
      </trkpt>
      <trkpt lat="48.048719968646765" lon="-4.665024988353252">
        <ele>49.649999999999999</ele>
        <time>2018-07-06T15:19:17Z</time>
      </trkpt>
      <trkpt lat="48.048726003617048" lon="-4.664819967001677">
        <ele>50.130000000000003</ele>
        <time>2018-07-06T15:19:18Z</time>
      </trkpt>
      <trkpt lat="48.048804039135575" lon="-4.663206031545997">
        <ele>50.609999999999999</ele>
        <time>2018-07-06T15:19:26Z</time>
      </trkpt>
      <trkpt lat="48.048831028863788" lon="-4.663015007972717">
        <ele>50.130000000000003</ele>
        <time>2018-07-06T15:19:27Z</time>
      </trkpt>
      <trkpt lat="48.048976035788655" lon="-4.661545995622873">
        <ele>48.200000000000003</ele>
        <time>2018-07-06T15:19:35Z</time>
      </trkpt>
      <trkpt lat="48.049107966944575" lon="-4.659613966941834">
        <ele>40.509999999999998</ele>
        <time>2018-07-06T15:19:45Z</time>
      </trkpt>
      <trkpt lat="48.049102015793324" lon="-4.65902597643435">
        <ele>38.109999999999999</ele>
        <time>2018-07-06T15:19:48Z</time>
      </trkpt>
      <trkpt lat="48.049069996923208" lon="-4.658850040286779">
        <ele>36.670000000000002</ele>
        <time>2018-07-06T15:19:49Z</time>
      </trkpt>
      <trkpt lat="48.049038983881474" lon="-4.658677037805319">
        <ele>35.710000000000001</ele>
        <time>2018-07-06T15:19:50Z</time>
      </trkpt>
      <trkpt lat="48.049006965011358" lon="-4.658504035323858">
        <ele>34.740000000000002</ele>
        <time>2018-07-06T15:19:51Z</time>
      </trkpt>
      <trkpt lat="48.048943011090159" lon="-4.658352993428707">
        <ele>34.259999999999998</ele>
        <time>2018-07-06T15:19:52Z</time>
      </trkpt>
      <trkpt lat="48.048873022198677" lon="-4.658191977068782">
        <ele>33.299999999999997</ele>
        <time>2018-07-06T15:19:53Z</time>
      </trkpt>
      <trkpt lat="48.048799009993672" lon="-4.658018974587321">
        <ele>33.299999999999997</ele>
        <time>2018-07-06T15:19:54Z</time>
      </trkpt>
      <trkpt lat="48.048722986131907" lon="-4.657840020954609">
        <ele>33.299999999999997</ele>
        <time>2018-07-06T15:19:55Z</time>
      </trkpt>
      <trkpt lat="48.048646040260792" lon="-4.657660983502865">
        <ele>33.780000000000001</ele>
        <time>2018-07-06T15:19:56Z</time>
      </trkpt>
      <trkpt lat="48.048591976985335" lon="-4.657459985464811">
        <ele>34.740000000000002</ele>
        <time>2018-07-06T15:19:57Z</time>
      </trkpt>
      <trkpt lat="48.048243038356304" lon="-4.655963983386755">
        <ele>43.880000000000003</ele>
        <time>2018-07-06T15:20:05Z</time>
      </trkpt>
      <trkpt lat="48.047902984544635" lon="-4.654817003756762">
        <ele>46.759999999999998</ele>
        <time>2018-07-06T15:20:11Z</time>
      </trkpt>
      <trkpt lat="48.047866020351648" lon="-4.654630003497005">
        <ele>47.719999999999999</ele>
        <time>2018-07-06T15:20:12Z</time>
      </trkpt>
      <trkpt lat="48.047795025631785" lon="-4.654089035466313">
        <ele>48.200000000000003</ele>
        <time>2018-07-06T15:20:17Z</time>
      </trkpt>
      <trkpt lat="48.047798965126276" lon="-4.653088990598917">
        <ele>47.719999999999999</ele>
        <time>2018-07-06T15:20:26Z</time>
      </trkpt>
      <trkpt lat="48.047817992046475" lon="-4.652977008372545">
        <ele>47.240000000000002</ele>
        <time>2018-07-06T15:20:27Z</time>
      </trkpt>
      <trkpt lat="48.047836013138294" lon="-4.652867037802935">
        <ele>47.240000000000002</ele>
        <time>2018-07-06T15:20:28Z</time>
      </trkpt>
      <trkpt lat="48.04795696400106" lon="-4.651982998475432">
        <ele>44.359999999999999</ele>
        <time>2018-07-06T15:20:36Z</time>
      </trkpt>
      <trkpt lat="48.048026030883193" lon="-4.650697968900204">
        <ele>47.719999999999999</ele>
        <time>2018-07-06T15:20:48Z</time>
      </trkpt>
      <trkpt lat="48.048027958720922" lon="-4.649340016767383">
        <ele>50.130000000000003</ele>
        <time>2018-07-06T15:21:01Z</time>
      </trkpt>
      <trkpt lat="48.04802100174129" lon="-4.649048997089267">
        <ele>50.130000000000003</ele>
        <time>2018-07-06T15:21:04Z</time>
      </trkpt>
      <trkpt lat="48.048014966771007" lon="-4.64896802790463">
        <ele>50.609999999999999</ele>
        <time>2018-07-06T15:21:05Z</time>
      </trkpt>
      <trkpt lat="48.048007003962994" lon="-4.648895021528006">
        <ele>50.609999999999999</ele>
        <time>2018-07-06T15:21:06Z</time>
      </trkpt>
      <trkpt lat="48.047999041154981" lon="-4.648824026808143">
        <ele>51.090000000000003</ele>
        <time>2018-07-06T15:21:07Z</time>
      </trkpt>
      <trkpt lat="48.047990994527936" lon="-4.648752026259899">
        <ele>51.090000000000003</ele>
        <time>2018-07-06T15:21:08Z</time>
      </trkpt>
      <trkpt lat="48.047984037548304" lon="-4.648680025711656">
        <ele>51.090000000000003</ele>
        <time>2018-07-06T15:21:09Z</time>
      </trkpt>
      <trkpt lat="48.047975990921259" lon="-4.648609030991793">
        <ele>51.090000000000003</ele>
        <time>2018-07-06T15:21:10Z</time>
      </trkpt>
      <trkpt lat="48.047969033941627" lon="-4.648538958281279">
        <ele>51.57</ele>
        <time>2018-07-06T15:21:11Z</time>
      </trkpt>
      <trkpt lat="48.047953024506569" lon="-4.648397974669933">
        <ele>51.57</ele>
        <time>2018-07-06T15:21:13Z</time>
      </trkpt>
      <trkpt lat="48.047945983707905" lon="-4.648327985778451">
        <ele>51.57</ele>
        <time>2018-07-06T15:21:14Z</time>
      </trkpt>
      <trkpt lat="48.047907007858157" lon="-4.647963037714362">
        <ele>53.009999999999998</ele>
        <time>2018-07-06T15:21:19Z</time>
      </trkpt>
      <trkpt lat="48.047898961231112" lon="-4.647886008024216">
        <ele>53.490000000000002</ele>
        <time>2018-07-06T15:21:20Z</time>
      </trkpt>
      <trkpt lat="48.047841964289546" lon="-4.647482000291348">
        <ele>53.490000000000002</ele>
        <time>2018-07-06T15:21:25Z</time>
      </trkpt>
      <trkpt lat="48.047818997874856" lon="-4.647328024730086">
        <ele>53.969999999999999</ele>
        <time>2018-07-06T15:21:27Z</time>
      </trkpt>
      <trkpt lat="48.04780500009656" lon="-4.647238003090024">
        <ele>53.490000000000002</ele>
        <time>2018-07-06T15:21:28Z</time>
      </trkpt>
      <trkpt lat="48.047780022025108" lon="-4.647197015583515">
        <ele>53.490000000000002</ele>
        <time>2018-07-06T15:21:29Z</time>
      </trkpt>
      <trkpt lat="48.047740962356329" lon="-4.647130966186523">
        <ele>53.490000000000002</ele>
        <time>2018-07-06T15:21:30Z</time>
      </trkpt>
      <trkpt lat="48.047700980678201" lon="-4.647065000608563">
        <ele>53.490000000000002</ele>
        <time>2018-07-06T15:21:31Z</time>
      </trkpt>
      <trkpt lat="48.047660999000072" lon="-4.646999035030603">
        <ele>53.009999999999998</ele>
        <time>2018-07-06T15:21:32Z</time>
      </trkpt>
      <trkpt lat="48.047131011262536" lon="-4.646119019016624">
        <ele>46.759999999999998</ele>
        <time>2018-07-06T15:21:42Z</time>
      </trkpt>
      <trkpt lat="48.046351997181773" lon="-4.644933985546231">
        <ele>36.670000000000002</ele>
        <time>2018-07-06T15:21:53Z</time>
      </trkpt>
      <trkpt lat="48.046265998855233" lon="-4.644819991663098">
        <ele>35.710000000000001</ele>
        <time>2018-07-06T15:21:54Z</time>
      </trkpt>
      <trkpt lat="48.046196009963751" lon="-4.644679008051753">
        <ele>34.259999999999998</ele>
        <time>2018-07-06T15:21:55Z</time>
      </trkpt>
      <trkpt lat="48.046120991930366" lon="-4.644523020833731">
        <ele>33.299999999999997</ele>
        <time>2018-07-06T15:21:56Z</time>
      </trkpt>
      <trkpt lat="48.045981014147401" lon="-4.644234012812376">
        <ele>30.899999999999999</ele>
        <time>2018-07-06T15:21:58Z</time>
      </trkpt>
      <trkpt lat="48.045944971963763" lon="-4.643994038924575">
        <ele>30.420000000000002</ele>
        <time>2018-07-06T15:21:59Z</time>
      </trkpt>
      <trkpt lat="48.045913958922029" lon="-4.643793040886521">
        <ele>29.460000000000001</ele>
        <time>2018-07-06T15:22:00Z</time>
      </trkpt>
      <trkpt lat="48.045899039134383" lon="-4.643581984564662">
        <ele>28.98</ele>
        <time>2018-07-06T15:22:01Z</time>
      </trkpt>
      <trkpt lat="48.045907001942396" lon="-4.643356008455157">
        <ele>28.5</ele>
        <time>2018-07-06T15:22:02Z</time>
      </trkpt>
      <trkpt lat="48.045914964750409" lon="-4.643129026517272">
        <ele>28.5</ele>
        <time>2018-07-06T15:22:03Z</time>
      </trkpt>
      <trkpt lat="48.045951006934047" lon="-4.642895003780723">
        <ele>28.5</ele>
        <time>2018-07-06T15:22:04Z</time>
      </trkpt>
      <trkpt lat="48.045994006097317" lon="-4.642666010186076">
        <ele>29.460000000000001</ele>
        <time>2018-07-06T15:22:05Z</time>
      </trkpt>
      <trkpt lat="48.046178994700313" lon="-4.641596982255578">
        <ele>32.340000000000003</ele>
        <time>2018-07-06T15:22:10Z</time>
      </trkpt>
      <trkpt lat="48.046192992478609" lon="-4.639933006837964">
        <ele>34.740000000000002</ele>
        <time>2018-07-06T15:22:18Z</time>
      </trkpt>
      <trkpt lat="48.045976990833879" lon="-4.638809999451041">
        <ele>35.710000000000001</ele>
        <time>2018-07-06T15:22:24Z</time>
      </trkpt>
      <trkpt lat="48.045962993055582" lon="-4.638603972271085">
        <ele>36.189999999999998</ele>
        <time>2018-07-06T15:22:25Z</time>
      </trkpt>
      <trkpt lat="48.045948995277286" lon="-4.638396017253399">
        <ele>36.670000000000002</ele>
        <time>2018-07-06T15:22:26Z</time>
      </trkpt>
      <trkpt lat="48.0460000410676" lon="-4.636602038517594">
        <ele>43.880000000000003</ele>
        <time>2018-07-06T15:22:34Z</time>
      </trkpt>
      <trkpt lat="48.04604597389698" lon="-4.636374972760677">
        <ele>44.359999999999999</ele>
        <time>2018-07-06T15:22:35Z</time>
      </trkpt>
      <trkpt lat="48.046100037172437" lon="-4.636147990822792">
        <ele>44.359999999999999</ele>
        <time>2018-07-06T15:22:36Z</time>
      </trkpt>
      <trkpt lat="48.04617396555841" lon="-4.635918997228146">
        <ele>44.359999999999999</ele>
        <time>2018-07-06T15:22:37Z</time>
      </trkpt>
      <trkpt lat="48.046268010511994" lon="-4.635700983926654">
        <ele>43.880000000000003</ele>
        <time>2018-07-06T15:22:38Z</time>
      </trkpt>
      <trkpt lat="48.046364989131689" lon="-4.635478025302291">
        <ele>43.399999999999999</ele>
        <time>2018-07-06T15:22:39Z</time>
      </trkpt>
      <trkpt lat="48.04664796218276" lon="-4.634859021753073">
        <ele>42.439999999999998</ele>
        <time>2018-07-06T15:22:42Z</time>
      </trkpt>
      <trkpt lat="48.046691967174411" lon="-4.634664980694652">
        <ele>41.950000000000003</ele>
        <time>2018-07-06T15:22:43Z</time>
      </trkpt>
      <trkpt lat="48.046720968559384" lon="-4.634475968778133">
        <ele>41.469999999999999</ele>
        <time>2018-07-06T15:22:44Z</time>
      </trkpt>
      <trkpt lat="48.046719040721655" lon="-4.634286034852266">
        <ele>41.469999999999999</ele>
        <time>2018-07-06T15:22:45Z</time>
      </trkpt>
      <trkpt lat="48.046696996316314" lon="-4.634085036814213">
        <ele>41.469999999999999</ele>
        <time>2018-07-06T15:22:46Z</time>
      </trkpt>
      <trkpt lat="48.046657014638186" lon="-4.633884038776159">
        <ele>40.990000000000002</ele>
        <time>2018-07-06T15:22:47Z</time>
      </trkpt>
      <trkpt lat="48.046605968847871" lon="-4.633674994111061">
        <ele>40.990000000000002</ele>
        <time>2018-07-06T15:22:48Z</time>
      </trkpt>
      <trkpt lat="48.046554001048207" lon="-4.63345798663795">
        <ele>40.990000000000002</ele>
        <time>2018-07-06T15:22:49Z</time>
      </trkpt>
      <trkpt lat="48.046503039076924" lon="-4.633239973336458">
        <ele>40.990000000000002</ele>
        <time>2018-07-06T15:22:50Z</time>
      </trkpt>
      <trkpt lat="48.046181006357074" lon="-4.631724022328854">
        <ele>40.990000000000002</ele>
        <time>2018-07-06T15:22:57Z</time>
      </trkpt>
      <trkpt lat="48.046169020235538" lon="-4.631509026512504">
        <ele>41.469999999999999</ele>
        <time>2018-07-06T15:22:58Z</time>
      </trkpt>
      <trkpt lat="48.046235991641879" lon="-4.629319002851844">
        <ele>45.799999999999997</ele>
        <time>2018-07-06T15:23:08Z</time>
      </trkpt>
      <trkpt lat="48.046674029901624" lon="-4.627096960321069">
        <ele>44.359999999999999</ele>
        <time>2018-07-06T15:23:18Z</time>
      </trkpt>
      <trkpt lat="48.047006959095597" lon="-4.62494800798595">
        <ele>38.590000000000003</ele>
        <time>2018-07-06T15:23:28Z</time>
      </trkpt>
      <trkpt lat="48.047187002375722" lon="-4.623052021488547">
        <ele>30.899999999999999</ele>
        <time>2018-07-06T15:23:37Z</time>
      </trkpt>
      <trkpt lat="48.047351958230138" lon="-4.622165970504284">
        <ele>28.98</ele>
        <time>2018-07-06T15:23:42Z</time>
      </trkpt>
      <trkpt lat="48.047370985150337" lon="-4.622001014649868">
        <ele>28.5</ele>
        <time>2018-07-06T15:23:43Z</time>
      </trkpt>
      <trkpt lat="48.047362016513944" lon="-4.620125982910395">
        <ele>19.84</ele>
        <time>2018-07-06T15:23:53Z</time>
      </trkpt>
      <trkpt lat="48.047363022342324" lon="-4.61964201182127">
        <ele>18.399999999999999</ele>
        <time>2018-07-06T15:23:55Z</time>
      </trkpt>
      <trkpt lat="48.047394035384059" lon="-4.619401032105088">
        <ele>18.399999999999999</ele>
        <time>2018-07-06T15:23:56Z</time>
      </trkpt>
      <trkpt lat="48.047423958778381" lon="-4.6191690210253">
        <ele>18.399999999999999</ele>
        <time>2018-07-06T15:23:57Z</time>
      </trkpt>
      <trkpt lat="48.047452960163355" lon="-4.618945978581905">
        <ele>18.399999999999999</ele>
        <time>2018-07-06T15:23:58Z</time>
      </trkpt>
      <trkpt lat="48.047494031488895" lon="-4.618732994422317">
        <ele>18.879999999999999</ele>
        <time>2018-07-06T15:23:59Z</time>
      </trkpt>
      <trkpt lat="48.047749008983374" lon="-4.617609987035394">
        <ele>17.920000000000002</ele>
        <time>2018-07-06T15:24:05Z</time>
      </trkpt>
      <trkpt lat="48.047801982611418" lon="-4.61740898899734">
        <ele>17.920000000000002</ele>
        <time>2018-07-06T15:24:06Z</time>
      </trkpt>
      <trkpt lat="48.047882029786706" lon="-4.617204973474145">
        <ele>17.920000000000002</ele>
        <time>2018-07-06T15:24:07Z</time>
      </trkpt>
      <trkpt lat="48.04797699674964" lon="-4.616961982101202">
        <ele>17.920000000000002</ele>
        <time>2018-07-06T15:24:08Z</time>
      </trkpt>
      <trkpt lat="48.048081016167998" lon="-4.616772970184684">
        <ele>18.399999999999999</ele>
        <time>2018-07-06T15:24:09Z</time>
      </trkpt>
      <trkpt lat="48.048292994499207" lon="-4.616388995200396">
        <ele>19.84</ele>
        <time>2018-07-06T15:24:11Z</time>
      </trkpt>
      <trkpt lat="48.048366000875831" lon="-4.616180034354329">
        <ele>20.32</ele>
        <time>2018-07-06T15:24:12Z</time>
      </trkpt>
      <trkpt lat="48.048416040837765" lon="-4.615960009396076">
        <ele>20.809999999999999</ele>
        <time>2018-07-06T15:24:13Z</time>
      </trkpt>
      <trkpt lat="48.048445964232087" lon="-4.615726992487907">
        <ele>21.289999999999999</ele>
        <time>2018-07-06T15:24:14Z</time>
      </trkpt>
      <trkpt lat="48.048476977273822" lon="-4.615486012771726">
        <ele>22.25</ele>
        <time>2018-07-06T15:24:15Z</time>
      </trkpt>
      <trkpt lat="48.048630030825734" lon="-4.613638976588845">
        <ele>29.460000000000001</ele>
        <time>2018-07-06T15:24:22Z</time>
      </trkpt>
      <trkpt lat="48.048606980592012" lon="-4.613378969952464">
        <ele>29.940000000000001</ele>
        <time>2018-07-06T15:24:23Z</time>
      </trkpt>
      <trkpt lat="48.048570016399026" lon="-4.612658964470029">
        <ele>32.340000000000003</ele>
        <time>2018-07-06T15:24:26Z</time>
      </trkpt>
      <trkpt lat="48.048591976985335" lon="-4.61242301389575">
        <ele>32.82</ele>
        <time>2018-07-06T15:24:27Z</time>
      </trkpt>
      <trkpt lat="48.048865981400013" lon="-4.610096029937267">
        <ele>39.549999999999997</ele>
        <time>2018-07-06T15:24:37Z</time>
      </trkpt>
      <trkpt lat="48.048986010253429" lon="-4.608132988214493">
        <ele>41.469999999999999</ele>
        <time>2018-07-06T15:24:45Z</time>
      </trkpt>
      <trkpt lat="48.048986010253429" lon="-4.607909023761749">
        <ele>41.469999999999999</ele>
        <time>2018-07-06T15:24:46Z</time>
      </trkpt>
      <trkpt lat="48.048986010253429" lon="-4.60769503377378">
        <ele>41.469999999999999</ele>
        <time>2018-07-06T15:24:47Z</time>
      </trkpt>
      <trkpt lat="48.048962960019708" lon="-4.607489006593823">
        <ele>41.469999999999999</ele>
        <time>2018-07-06T15:24:48Z</time>
      </trkpt>
      <trkpt lat="48.048940999433398" lon="-4.607292031869292">
        <ele>40.990000000000002</ele>
        <time>2018-07-06T15:24:49Z</time>
      </trkpt>
      <trkpt lat="48.048919960856438" lon="-4.607097990810871">
        <ele>40.990000000000002</ele>
        <time>2018-07-06T15:24:50Z</time>
      </trkpt>
      <trkpt lat="48.048900011926889" lon="-4.606905961409211">
        <ele>40.509999999999998</ele>
        <time>2018-07-06T15:24:51Z</time>
      </trkpt>
      <trkpt lat="48.048911998048425" lon="-4.60670898668468">
        <ele>40.509999999999998</ele>
        <time>2018-07-06T15:24:52Z</time>
      </trkpt>
      <trkpt lat="48.048922978341579" lon="-4.606504971161485">
        <ele>40.030000000000001</ele>
        <time>2018-07-06T15:24:53Z</time>
      </trkpt>
      <trkpt lat="48.049191031605005" lon="-4.604440005496144">
        <ele>35.710000000000001</ele>
        <time>2018-07-06T15:25:03Z</time>
      </trkpt>
      <trkpt lat="48.049203017726541" lon="-4.604254011064768">
        <ele>35.229999999999997</ele>
        <time>2018-07-06T15:25:04Z</time>
      </trkpt>
      <trkpt lat="48.049207963049412" lon="-4.604058964177966">
        <ele>34.259999999999998</ele>
        <time>2018-07-06T15:25:05Z</time>
      </trkpt>
      <trkpt lat="48.049212992191315" lon="-4.603859977796674">
        <ele>33.780000000000001</ele>
        <time>2018-07-06T15:25:06Z</time>
      </trkpt>
      <trkpt lat="48.049218021333218" lon="-4.603652022778988">
        <ele>32.82</ele>
        <time>2018-07-06T15:25:07Z</time>
      </trkpt>
      <trkpt lat="48.049212992191315" lon="-4.603434009477496">
        <ele>32.340000000000003</ele>
        <time>2018-07-06T15:25:08Z</time>
      </trkpt>
      <trkpt lat="48.049028003588319" lon="-4.601541962474585">
        <ele>35.229999999999997</ele>
        <time>2018-07-06T15:25:16Z</time>
      </trkpt>
      <trkpt lat="48.049028003588319" lon="-4.601322021335363">
        <ele>36.189999999999998</ele>
        <time>2018-07-06T15:25:17Z</time>
      </trkpt>
      <trkpt lat="48.049028003588319" lon="-4.600890018045902">
        <ele>37.630000000000003</ele>
        <time>2018-07-06T15:25:19Z</time>
      </trkpt>
      <trkpt lat="48.049010988324881" lon="-4.600547030568123">
        <ele>39.07</ele>
        <time>2018-07-06T15:25:21Z</time>
      </trkpt>
      <trkpt lat="48.049003025516868" lon="-4.600430019199848">
        <ele>40.030000000000001</ele>
        <time>2018-07-06T15:25:22Z</time>
      </trkpt>
      <trkpt lat="48.048995984718204" lon="-4.600337985903025">
        <ele>40.990000000000002</ele>
        <time>2018-07-06T15:25:23Z</time>
      </trkpt>
      <trkpt lat="48.048990033566952" lon="-4.600252993404865">
        <ele>41.469999999999999</ele>
        <time>2018-07-06T15:25:24Z</time>
      </trkpt>
      <trkpt lat="48.048985004425049" lon="-4.600176969543099">
        <ele>42.439999999999998</ele>
        <time>2018-07-06T15:25:25Z</time>
      </trkpt>
      <trkpt lat="48.048979975283146" lon="-4.600115027278662">
        <ele>42.920000000000002</ele>
        <time>2018-07-06T15:25:26Z</time>
      </trkpt>
      <trkpt lat="48.048976035788655" lon="-4.600060964003205">
        <ele>43.880000000000003</ele>
        <time>2018-07-06T15:25:27Z</time>
      </trkpt>
      <trkpt lat="48.048973018303514" lon="-4.600008996203542">
        <ele>44.359999999999999</ele>
        <time>2018-07-06T15:25:28Z</time>
      </trkpt>
      <trkpt lat="48.048968994989991" lon="-4.599963985383511">
        <ele>44.840000000000003</ele>
        <time>2018-07-06T15:25:29Z</time>
      </trkpt>
      <trkpt lat="48.04896698333323" lon="-4.599927021190524">
        <ele>45.799999999999997</ele>
        <time>2018-07-06T15:25:30Z</time>
      </trkpt>
      <trkpt lat="48.048963965848088" lon="-4.599891984835267">
        <ele>45.799999999999997</ele>
        <time>2018-07-06T15:25:31Z</time>
      </trkpt>
      <trkpt lat="48.048961032181978" lon="-4.599855020642281">
        <ele>46.280000000000001</ele>
        <time>2018-07-06T15:25:32Z</time>
      </trkpt>
      <trkpt lat="48.048958014696836" lon="-4.599802969023585">
        <ele>46.759999999999998</ele>
        <time>2018-07-06T15:25:42Z</time>
      </trkpt>
      <trkpt lat="48.048958014696836" lon="-4.599802969023585">
        <ele>46.759999999999998</ele>
        <time>2018-07-06T15:26:34Z</time>
      </trkpt>
      <trkpt lat="48.048940999433398" lon="-4.5995759870857">
        <ele>46.280000000000001</ele>
        <time>2018-07-06T15:26:47Z</time>
      </trkpt>
      <trkpt lat="48.048902023583651" lon="-4.599028984084725">
        <ele>43.880000000000003</ele>
        <time>2018-07-06T15:26:55Z</time>
      </trkpt>
      <trkpt lat="48.048898000270128" lon="-4.598914990201592">
        <ele>43.399999999999999</ele>
        <time>2018-07-06T15:26:56Z</time>
      </trkpt>
      <trkpt lat="48.048884002491832" lon="-4.597816038876772">
        <ele>43.880000000000003</ele>
        <time>2018-07-06T15:27:02Z</time>
      </trkpt>
      <trkpt lat="48.048953991383314" lon="-4.596516005694866">
        <ele>45.799999999999997</ele>
        <time>2018-07-06T15:27:08Z</time>
      </trkpt>
      <trkpt lat="48.048996990546584" lon="-4.596364963799715">
        <ele>46.280000000000001</ele>
        <time>2018-07-06T15:27:09Z</time>
      </trkpt>
      <trkpt lat="48.049039989709854" lon="-4.596215011551976">
        <ele>46.759999999999998</ele>
        <time>2018-07-06T15:27:10Z</time>
      </trkpt>
      <trkpt lat="48.049092041328549" lon="-4.596062963828445">
        <ele>46.759999999999998</ele>
        <time>2018-07-06T15:27:11Z</time>
      </trkpt>
      <trkpt lat="48.049163036048412" lon="-4.595921980217099">
        <ele>47.240000000000002</ele>
        <time>2018-07-06T15:27:12Z</time>
      </trkpt>
      <trkpt lat="48.049246016889811" lon="-4.595788037404418">
        <ele>47.719999999999999</ele>
        <time>2018-07-06T15:27:13Z</time>
      </trkpt>
      <trkpt lat="48.049339978024364" lon="-4.595667002722621">
        <ele>48.200000000000003</ele>
        <time>2018-07-06T15:27:14Z</time>
      </trkpt>
      <trkpt lat="48.04946000687778" lon="-4.595584021881223">
        <ele>48.200000000000003</ele>
        <time>2018-07-06T15:27:15Z</time>
      </trkpt>
      <trkpt lat="48.049581963568926" lon="-4.595504980534315">
        <ele>48.68</ele>
        <time>2018-07-06T15:27:16Z</time>
      </trkpt>
      <trkpt lat="48.049710961058736" lon="-4.59544999524951">
        <ele>48.68</ele>
        <time>2018-07-06T15:27:17Z</time>
      </trkpt>
      <trkpt lat="48.049844987690449" lon="-4.595424011349678">
        <ele>49.159999999999997</ele>
        <time>2018-07-06T15:27:18Z</time>
      </trkpt>
      <trkpt lat="48.049977002665401" lon="-4.595399033278227">
        <ele>50.130000000000003</ele>
        <time>2018-07-06T15:27:19Z</time>
      </trkpt>
      <trkpt lat="48.050929019227624" lon="-4.595137014985085">
        <ele>53.009999999999998</ele>
        <time>2018-07-06T15:27:27Z</time>
      </trkpt>
      <trkpt lat="48.051043013110757" lon="-4.595053028315306">
        <ele>53.490000000000002</ele>
        <time>2018-07-06T15:27:28Z</time>
      </trkpt>
      <trkpt lat="48.051146026700735" lon="-4.594968035817146">
        <ele>53.969999999999999</ele>
        <time>2018-07-06T15:27:29Z</time>
      </trkpt>
      <trkpt lat="48.051236970350146" lon="-4.594835015013814">
        <ele>54.450000000000003</ele>
        <time>2018-07-06T15:27:30Z</time>
      </trkpt>
      <trkpt lat="48.051327997818589" lon="-4.594703000038862">
        <ele>54.93</ele>
        <time>2018-07-06T15:27:31Z</time>
      </trkpt>
      <trkpt lat="48.051402010023594" lon="-4.594561010599136">
        <ele>55.409999999999997</ele>
        <time>2018-07-06T15:27:32Z</time>
      </trkpt>
      <trkpt lat="48.051468981429935" lon="-4.59439798258245">
        <ele>55.890000000000001</ele>
        <time>2018-07-06T15:27:33Z</time>
      </trkpt>
      <trkpt lat="48.051536036655307" lon="-4.594233026728034">
        <ele>56.369999999999997</ele>
        <time>2018-07-06T15:27:34Z</time>
      </trkpt>
      <trkpt lat="48.051600996404886" lon="-4.594064969569445">
        <ele>57.340000000000003</ele>
        <time>2018-07-06T15:27:35Z</time>
      </trkpt>
      <trkpt lat="48.052279008552432" lon="-4.592466037720442">
        <ele>64.549999999999997</ele>
        <time>2018-07-06T15:27:45Z</time>
      </trkpt>
      <trkpt lat="48.052868004888296" lon="-4.590670969337225">
        <ele>73.200000000000003</ele>
        <time>2018-07-06T15:27:55Z</time>
      </trkpt>
      <trkpt lat="48.053110996261239" lon="-4.589917017146945">
        <ele>75.599999999999994</ele>
        <time>2018-07-06T15:27:59Z</time>
      </trkpt>
      <trkpt lat="48.053702004253864" lon="-4.588713962584734">
        <ele>78</ele>
        <time>2018-07-06T15:28:06Z</time>
      </trkpt>
      <trkpt lat="48.053750032559037" lon="-4.588523022830486">
        <ele>78</ele>
        <time>2018-07-06T15:28:07Z</time>
      </trkpt>
      <trkpt lat="48.053783979266882" lon="-4.588314983993769">
        <ele>78</ele>
        <time>2018-07-06T15:28:08Z</time>
      </trkpt>
      <trkpt lat="48.05382002145052" lon="-4.588095964863896">
        <ele>77.519999999999996</ele>
        <time>2018-07-06T15:28:09Z</time>
      </trkpt>
      <trkpt lat="48.053855979815125" lon="-4.587874012067914">
        <ele>77.519999999999996</ele>
        <time>2018-07-06T15:28:10Z</time>
      </trkpt>
      <trkpt lat="48.054210031405091" lon="-4.585497993975878">
        <ele>73.680000000000007</ele>
        <time>2018-07-06T15:28:21Z</time>
      </trkpt>
      <trkpt lat="48.054326036944985" lon="-4.584433995187283">
        <ele>71.760000000000005</ele>
        <time>2018-07-06T15:28:26Z</time>
      </trkpt>
      <trkpt lat="48.054309021681547" lon="-4.584209024906158">
        <ele>70.790000000000006</ele>
        <time>2018-07-06T15:28:27Z</time>
      </trkpt>
      <trkpt lat="48.054284965619445" lon="-4.583982964977622">
        <ele>69.829999999999998</ele>
        <time>2018-07-06T15:28:28Z</time>
      </trkpt>
      <trkpt lat="48.053927980363369" lon="-4.580952990800142">
        <ele>58.299999999999997</ele>
        <time>2018-07-06T15:28:41Z</time>
      </trkpt>
      <trkpt lat="48.053917000070214" lon="-4.580054031684995">
        <ele>54.93</ele>
        <time>2018-07-06T15:28:45Z</time>
      </trkpt>
      <trkpt lat="48.053936026990414" lon="-4.579826965928078">
        <ele>53.969999999999999</ele>
        <time>2018-07-06T15:28:46Z</time>
      </trkpt>
      <trkpt lat="48.054141970351338" lon="-4.578382009640336">
        <ele>47.719999999999999</ele>
        <time>2018-07-06T15:28:53Z</time>
      </trkpt>
      <trkpt lat="48.054150016978383" lon="-4.578208001330495">
        <ele>46.759999999999998</ele>
        <time>2018-07-06T15:28:54Z</time>
      </trkpt>
      <trkpt lat="48.054154962301254" lon="-4.578045979142189">
        <ele>46.280000000000001</ele>
        <time>2018-07-06T15:28:55Z</time>
      </trkpt>
      <trkpt lat="48.05403602309525" lon="-4.577150959521532">
        <ele>44.840000000000003</ele>
        <time>2018-07-06T15:29:00Z</time>
      </trkpt>
      <trkpt lat="48.05401599034667" lon="-4.576950967311859">
        <ele>44.840000000000003</ele>
        <time>2018-07-06T15:29:01Z</time>
      </trkpt>
      <trkpt lat="48.053977014496922" lon="-4.576514018699527">
        <ele>45.32</ele>
        <time>2018-07-06T15:29:03Z</time>
      </trkpt>
      <trkpt lat="48.053969973698258" lon="-4.576267004013062">
        <ele>45.799999999999997</ele>
        <time>2018-07-06T15:29:04Z</time>
      </trkpt>
      <trkpt lat="48.054145993664861" lon="-4.574240008369088">
        <ele>50.609999999999999</ele>
        <time>2018-07-06T15:29:13Z</time>
      </trkpt>
      <trkpt lat="48.054191004484892" lon="-4.574067005887628">
        <ele>51.090000000000003</ele>
        <time>2018-07-06T15:29:14Z</time>
      </trkpt>
      <trkpt lat="48.054332993924618" lon="-4.573334008455277">
        <ele>52.049999999999997</ele>
        <time>2018-07-06T15:29:18Z</time>
      </trkpt>
      <trkpt lat="48.05435897782445" lon="-4.573130998760462">
        <ele>52.530000000000001</ele>
        <time>2018-07-06T15:29:19Z</time>
      </trkpt>
      <trkpt lat="48.054369036108255" lon="-4.572926983237267">
        <ele>52.530000000000001</ele>
        <time>2018-07-06T15:29:20Z</time>
      </trkpt>
      <trkpt lat="48.054352020844817" lon="-4.571963986381888">
        <ele>52.049999999999997</ele>
        <time>2018-07-06T15:29:25Z</time>
      </trkpt>
      <trkpt lat="48.054363001137972" lon="-4.571786038577557">
        <ele>51.57</ele>
        <time>2018-07-06T15:29:26Z</time>
      </trkpt>
      <trkpt lat="48.054386973381042" lon="-4.571605995297432">
        <ele>50.609999999999999</ele>
        <time>2018-07-06T15:29:27Z</time>
      </trkpt>
      <trkpt lat="48.054787963628769" lon="-4.569901032373309">
        <ele>49.159999999999997</ele>
        <time>2018-07-06T15:29:36Z</time>
      </trkpt>
      <trkpt lat="48.05513103492558" lon="-4.567965986207128">
        <ele>51.57</ele>
        <time>2018-07-06T15:29:46Z</time>
      </trkpt>
      <trkpt lat="48.055530013516545" lon="-4.56633604131639">
        <ele>51.57</ele>
        <time>2018-07-06T15:29:54Z</time>
      </trkpt>
      <trkpt lat="48.055530013516545" lon="-4.566110987216234">
        <ele>52.049999999999997</ele>
        <time>2018-07-06T15:29:55Z</time>
      </trkpt>
      <trkpt lat="48.055362962186337" lon="-4.563569007441402">
        <ele>53.969999999999999</ele>
        <time>2018-07-06T15:30:06Z</time>
      </trkpt>
      <trkpt lat="48.055037995800376" lon="-4.561504041776061">
        <ele>59.740000000000002</ele>
        <time>2018-07-06T15:30:15Z</time>
      </trkpt>
      <trkpt lat="48.054930036887527" lon="-4.56090004183352">
        <ele>61.659999999999997</ele>
        <time>2018-07-06T15:30:18Z</time>
      </trkpt>
      <trkpt lat="48.054886031895876" lon="-4.560707006603479">
        <ele>62.140000000000001</ele>
        <time>2018-07-06T15:30:19Z</time>
      </trkpt>
      <trkpt lat="48.054772038012743" lon="-4.560352033004165">
        <ele>63.100000000000001</ele>
        <time>2018-07-06T15:30:21Z</time>
      </trkpt>
      <trkpt lat="48.053825972601771" lon="-4.558090008795261">
        <ele>68.870000000000005</ele>
        <time>2018-07-06T15:30:33Z</time>
      </trkpt>
      <trkpt lat="48.053147038444877" lon="-4.55639099702239">
        <ele>74.159999999999997</ele>
        <time>2018-07-06T15:30:42Z</time>
      </trkpt>
      <trkpt lat="48.052888037636876" lon="-4.555679038167">
        <ele>76.079999999999998</ele>
        <time>2018-07-06T15:30:47Z</time>
      </trkpt>
      <trkpt lat="48.052835986018181" lon="-4.555532019585371">
        <ele>76.079999999999998</ele>
        <time>2018-07-06T15:30:48Z</time>
      </trkpt>
      <trkpt lat="48.052664995193481" lon="-4.555055005475879">
        <ele>76.560000000000002</ele>
        <time>2018-07-06T15:30:51Z</time>
      </trkpt>
      <trkpt lat="48.052612021565437" lon="-4.554905975237489">
        <ele>76.560000000000002</ele>
        <time>2018-07-06T15:30:52Z</time>
      </trkpt>
      <trkpt lat="48.052543960511684" lon="-4.554761974141002">
        <ele>76.079999999999998</ele>
        <time>2018-07-06T15:30:53Z</time>
      </trkpt>
      <trkpt lat="48.052071975544095" lon="-4.554001986980438">
        <ele>73.680000000000007</ele>
        <time>2018-07-06T15:31:00Z</time>
      </trkpt>
      <trkpt lat="48.052001986652613" lon="-4.553952030837536">
        <ele>73.680000000000007</ele>
        <time>2018-07-06T15:31:01Z</time>
      </trkpt>
      <trkpt lat="48.051939038559794" lon="-4.553906014189124">
        <ele>73.200000000000003</ele>
        <time>2018-07-06T15:31:02Z</time>
      </trkpt>
      <trkpt lat="48.051789002493024" lon="-4.553797971457243">
        <ele>72.719999999999999</ele>
        <time>2018-07-06T15:31:08Z</time>
      </trkpt>
      <trkpt lat="48.051767041906714" lon="-4.553781962022185">
        <ele>72.719999999999999</ele>
        <time>2018-07-06T15:31:09Z</time>
      </trkpt>
      <trkpt lat="48.05173703469336" lon="-4.553760001435876">
        <ele>72.719999999999999</ele>
        <time>2018-07-06T15:31:10Z</time>
      </trkpt>
      <trkpt lat="48.051689006388187" lon="-4.553724965080619">
        <ele>72.239999999999995</ele>
        <time>2018-07-06T15:31:11Z</time>
      </trkpt>
      <trkpt lat="48.051699986681342" lon="-4.553635027259588">
        <ele>72.239999999999995</ele>
        <time>2018-07-06T15:31:12Z</time>
      </trkpt>
      <trkpt lat="48.051712978631258" lon="-4.553528996184468">
        <ele>72.239999999999995</ele>
        <time>2018-07-06T15:31:13Z</time>
      </trkpt>
      <trkpt lat="48.051728988066316" lon="-4.553406033664942">
        <ele>72.239999999999995</ele>
        <time>2018-07-06T15:31:14Z</time>
      </trkpt>
      <trkpt lat="48.051744997501373" lon="-4.553268989548087">
        <ele>72.719999999999999</ele>
        <time>2018-07-06T15:31:15Z</time>
      </trkpt>
      <trkpt lat="48.051838958635926" lon="-4.551844988018274">
        <ele>75.120000000000005</ele>
        <time>2018-07-06T15:31:23Z</time>
      </trkpt>
      <trkpt lat="48.051663022488356" lon="-4.549350030720234">
        <ele>77.519999999999996</ele>
        <time>2018-07-06T15:31:33Z</time>
      </trkpt>
      <trkpt lat="48.051386000588536" lon="-4.545578006654978">
        <ele>75.599999999999994</ele>
        <time>2018-07-06T15:31:48Z</time>
      </trkpt>
      <trkpt lat="48.050955003127456" lon="-4.543909002095461">
        <ele>71.760000000000005</ele>
        <time>2018-07-06T15:31:55Z</time>
      </trkpt>
      <trkpt lat="48.050103988498449" lon="-4.541767006739974">
        <ele>69.349999999999994</ele>
        <time>2018-07-06T15:32:05Z</time>
      </trkpt>
      <trkpt lat="48.049728982150555" lon="-4.540910962969065">
        <ele>69.349999999999994</ele>
        <time>2018-07-06T15:32:11Z</time>
      </trkpt>
      <trkpt lat="48.049708027392626" lon="-4.540863018482924">
        <ele>69.349999999999994</ele>
        <time>2018-07-06T15:32:12Z</time>
      </trkpt>
      <trkpt lat="48.049696963280439" lon="-4.540838040411472">
        <ele>69.349999999999994</ele>
        <time>2018-07-06T15:32:13Z</time>
      </trkpt>
      <trkpt lat="48.049668967723846" lon="-4.540765034034848">
        <ele>69.349999999999994</ele>
        <time>2018-07-06T15:32:17Z</time>
      </trkpt>
      <trkpt lat="48.049659999087453" lon="-4.540742989629507">
        <ele>69.349999999999994</ele>
        <time>2018-07-06T15:32:18Z</time>
      </trkpt>
      <trkpt lat="48.049652958288789" lon="-4.540723962709308">
        <ele>69.349999999999994</ele>
        <time>2018-07-06T15:32:19Z</time>
      </trkpt>
      <trkpt lat="48.049646001309156" lon="-4.540707031264901">
        <ele>69.349999999999994</ele>
        <time>2018-07-06T15:32:20Z</time>
      </trkpt>
      <trkpt lat="48.049646001309156" lon="-4.540707031264901">
        <ele>70.310000000000002</ele>
        <time>2018-07-06T15:32:31Z</time>
      </trkpt>
      <trkpt lat="48.049621023237705" lon="-4.54064198769629">
        <ele>70.790000000000006</ele>
        <time>2018-07-06T15:32:46Z</time>
      </trkpt>
      <trkpt lat="48.049621023237705" lon="-4.54064198769629">
        <ele>70.790000000000006</ele>
        <time>2018-07-06T15:33:25Z</time>
      </trkpt>
      <trkpt lat="48.049621023237705" lon="-4.54064198769629">
        <ele>70.790000000000006</ele>
        <time>2018-07-06T15:34:16Z</time>
      </trkpt>
      <trkpt lat="48.049595039337873" lon="-4.540575016289949">
        <ele>70.790000000000006</ele>
        <time>2018-07-06T15:34:21Z</time>
      </trkpt>
      <trkpt lat="48.049562014639378" lon="-4.540491029620171">
        <ele>70.310000000000002</ele>
        <time>2018-07-06T15:34:22Z</time>
      </trkpt>
      <trkpt lat="48.04952303878963" lon="-4.540389021858573">
        <ele>70.310000000000002</ele>
        <time>2018-07-06T15:34:23Z</time>
      </trkpt>
      <trkpt lat="48.049115007743239" lon="-4.539337009191513">
        <ele>69.349999999999994</ele>
        <time>2018-07-06T15:34:29Z</time>
      </trkpt>
      <trkpt lat="48.048488041386008" lon="-4.537700023502111">
        <ele>68.870000000000005</ele>
        <time>2018-07-06T15:34:35Z</time>
      </trkpt>
      <trkpt lat="48.04761003702879" lon="-4.535845024511218">
        <ele>68.390000000000001</ele>
        <time>2018-07-06T15:34:42Z</time>
      </trkpt>
      <trkpt lat="48.046630024909973" lon="-4.534113993868232">
        <ele>66.950000000000003</ele>
        <time>2018-07-06T15:34:49Z</time>
      </trkpt>
      <trkpt lat="48.045367961749434" lon="-4.531436981633306">
        <ele>55.890000000000001</ele>
        <time>2018-07-06T15:34:59Z</time>
      </trkpt>
      <trkpt lat="48.04393901489675" lon="-4.529762025922537">
        <ele>45.799999999999997</ele>
        <time>2018-07-06T15:35:07Z</time>
      </trkpt>
      <trkpt lat="48.043282041326165" lon="-4.528959039598703">
        <ele>41.469999999999999</ele>
        <time>2018-07-06T15:35:11Z</time>
      </trkpt>
      <trkpt lat="48.043160000815988" lon="-4.528711019083858">
        <ele>40.509999999999998</ele>
        <time>2018-07-06T15:35:12Z</time>
      </trkpt>
      <trkpt lat="48.043038966134191" lon="-4.528451012447476">
        <ele>39.07</ele>
        <time>2018-07-06T15:35:13Z</time>
      </trkpt>
      <trkpt lat="48.042934024706483" lon="-4.528168039396405">
        <ele>38.109999999999999</ele>
        <time>2018-07-06T15:35:14Z</time>
      </trkpt>
      <trkpt lat="48.042836962267756" lon="-4.527876013889909">
        <ele>36.670000000000002</ele>
        <time>2018-07-06T15:35:15Z</time>
      </trkpt>
      <trkpt lat="48.042545020580292" lon="-4.527054000645876">
        <ele>32.340000000000003</ele>
        <time>2018-07-06T15:35:18Z</time>
      </trkpt>
      <trkpt lat="48.042423985898495" lon="-4.526830036193132">
        <ele>30.420000000000002</ele>
        <time>2018-07-06T15:35:19Z</time>
      </trkpt>
      <trkpt lat="48.042290965095162" lon="-4.526582015678287">
        <ele>28.98</ele>
        <time>2018-07-06T15:35:20Z</time>
      </trkpt>
      <trkpt lat="48.042163979262114" lon="-4.526445977389813">
        <ele>27.050000000000001</ele>
        <time>2018-07-06T15:35:21Z</time>
      </trkpt>
      <trkpt lat="48.042011009529233" lon="-4.526283033192158">
        <ele>25.129999999999999</ele>
        <time>2018-07-06T15:35:22Z</time>
      </trkpt>
      <trkpt lat="48.041830966249108" lon="-4.526148000732064">
        <ele>23.210000000000001</ele>
        <time>2018-07-06T15:35:23Z</time>
      </trkpt>
      <trkpt lat="48.040805021300912" lon="-4.525380972772837">
        <ele>10.710000000000001</ele>
        <time>2018-07-06T15:35:30Z</time>
      </trkpt>
      <trkpt lat="48.040701001882553" lon="-4.525294974446297">
        <ele>8.310000000000001</ele>
        <time>2018-07-06T15:35:33Z</time>
      </trkpt>
      <trkpt lat="48.040666971355677" lon="-4.525266978889704">
        <ele>6.87</ele>
        <time>2018-07-06T15:35:39Z</time>
      </trkpt>
      <trkpt lat="48.04062900133431" lon="-4.525161031633616">
        <ele>5.91</ele>
        <time>2018-07-06T15:35:40Z</time>
      </trkpt>
      <trkpt lat="48.040667977184057" lon="-4.525105962529779">
        <ele>5.42</ele>
        <time>2018-07-06T15:35:41Z</time>
      </trkpt>
      <trkpt lat="48.040725979954004" lon="-4.525024993345141">
        <ele>4.94</ele>
        <time>2018-07-06T15:35:42Z</time>
      </trkpt>
      <trkpt lat="48.040799992159009" lon="-4.524919968098402">
        <ele>4.94</ele>
        <time>2018-07-06T15:35:43Z</time>
      </trkpt>
      <trkpt lat="48.040894037112594" lon="-4.524788036942482">
        <ele>4.46</ele>
        <time>2018-07-06T15:35:44Z</time>
      </trkpt>
      <trkpt lat="48.041539024561644" lon="-4.523784974589944">
        <ele>4.94</ele>
        <time>2018-07-06T15:35:49Z</time>
      </trkpt>
      <trkpt lat="48.042416023090482" lon="-4.522165004163981">
        <ele>4.46</ele>
        <time>2018-07-06T15:35:56Z</time>
      </trkpt>
      <trkpt lat="48.042490035295486" lon="-4.521964006125927">
        <ele>3.98</ele>
        <time>2018-07-06T15:35:57Z</time>
      </trkpt>
      <trkpt lat="48.042550971731544" lon="-4.521770970895886">
        <ele>3.98</ele>
        <time>2018-07-06T15:35:58Z</time>
      </trkpt>
      <trkpt lat="48.042575027793646" lon="-4.521581958979368">
        <ele>3.98</ele>
        <time>2018-07-06T15:35:59Z</time>
      </trkpt>
      <trkpt lat="48.042582990601659" lon="-4.521388001739979">
        <ele>3.98</ele>
        <time>2018-07-06T15:36:00Z</time>
      </trkpt>
      <trkpt lat="48.042591037228703" lon="-4.521174011752009">
        <ele>3.98</ele>
        <time>2018-07-06T15:36:01Z</time>
      </trkpt>
      <trkpt lat="48.042559018358588" lon="-4.520969996228814">
        <ele>4.46</ele>
        <time>2018-07-06T15:36:02Z</time>
      </trkpt>
      <trkpt lat="48.042523982003331" lon="-4.520742008462548">
        <ele>4.94</ele>
        <time>2018-07-06T15:36:03Z</time>
      </trkpt>
      <trkpt lat="48.042060965672135" lon="-4.517985032871366">
        <ele>9.27</ele>
        <time>2018-07-06T15:36:14Z</time>
      </trkpt>
      <trkpt lat="48.041628040373325" lon="-4.51473000459373">
        <ele>17.440000000000001</ele>
        <time>2018-07-06T15:36:25Z</time>
      </trkpt>
      <trkpt lat="48.041788972914219" lon="-4.512761011719704">
        <ele>13.119999999999999</ele>
        <time>2018-07-06T15:36:32Z</time>
      </trkpt>
      <trkpt lat="48.041834989562631" lon="-4.512529000639916">
        <ele>12.15</ele>
        <time>2018-07-06T15:36:33Z</time>
      </trkpt>
      <trkpt lat="48.041899027302861" lon="-4.512326996773481">
        <ele>11.19</ele>
        <time>2018-07-06T15:36:34Z</time>
      </trkpt>
      <trkpt lat="48.041999023407698" lon="-4.512138990685344">
        <ele>10.23</ele>
        <time>2018-07-06T15:36:35Z</time>
      </trkpt>
      <trkpt lat="48.042106982320547" lon="-4.511933969333768">
        <ele>9.75</ele>
        <time>2018-07-06T15:36:36Z</time>
      </trkpt>
      <trkpt lat="48.042313009500504" lon="-4.511500038206577">
        <ele>9.27</ele>
        <time>2018-07-06T15:36:38Z</time>
      </trkpt>
      <trkpt lat="48.042379980906844" lon="-4.511265009641647">
        <ele>8.789999999999999</ele>
        <time>2018-07-06T15:36:39Z</time>
      </trkpt>
      <trkpt lat="48.042429015040398" lon="-4.511023024097085">
        <ele>8.789999999999999</ele>
        <time>2018-07-06T15:36:40Z</time>
      </trkpt>
      <trkpt lat="48.042445024475455" lon="-4.510757988318801">
        <ele>8.310000000000001</ele>
        <time>2018-07-06T15:36:41Z</time>
      </trkpt>
      <trkpt lat="48.042450975626707" lon="-4.51047602109611">
        <ele>7.83</ele>
        <time>2018-07-06T15:36:42Z</time>
      </trkpt>
      <trkpt lat="48.042457010596991" lon="-4.510180978104472">
        <ele>7.83</ele>
        <time>2018-07-06T15:36:43Z</time>
      </trkpt>
      <trkpt lat="48.042438989505172" lon="-4.508182983845472">
        <ele>5.91</ele>
        <time>2018-07-06T15:36:50Z</time>
      </trkpt>
      <trkpt lat="48.04237000644207" lon="-4.507921971380711">
        <ele>6.39</ele>
        <time>2018-07-06T15:36:51Z</time>
      </trkpt>
      <trkpt lat="48.042298005893826" lon="-4.507648972794414">
        <ele>6.87</ele>
        <time>2018-07-06T15:36:52Z</time>
      </trkpt>
      <trkpt lat="48.041824009269476" lon="-4.505607979372144">
        <ele>14.08</ele>
        <time>2018-07-06T15:36:59Z</time>
      </trkpt>
      <trkpt lat="48.041754020377994" lon="-4.504293026402593">
        <ele>19.359999999999999</ele>
        <time>2018-07-06T15:37:03Z</time>
      </trkpt>
      <trkpt lat="48.041754020377994" lon="-4.503922965377569">
        <ele>20.809999999999999</ele>
        <time>2018-07-06T15:37:04Z</time>
      </trkpt>
      <trkpt lat="48.041860973462462" lon="-4.50267699547112">
        <ele>22.73</ele>
        <time>2018-07-06T15:37:08Z</time>
      </trkpt>
      <trkpt lat="48.041829038411379" lon="-4.502057991921902">
        <ele>22.25</ele>
        <time>2018-07-06T15:37:10Z</time>
      </trkpt>
      <trkpt lat="48.041803976520896" lon="-4.501756997779012">
        <ele>21.77</ele>
        <time>2018-07-06T15:37:11Z</time>
      </trkpt>
      <trkpt lat="48.041326040402055" lon="-4.498598026111722">
        <ele>20.809999999999999</ele>
        <time>2018-07-06T15:37:22Z</time>
      </trkpt>
      <trkpt lat="48.041153037920594" lon="-4.497715998440981">
        <ele>18.879999999999999</ele>
        <time>2018-07-06T15:37:26Z</time>
      </trkpt>
      <trkpt lat="48.041131999343634" lon="-4.497523969039321">
        <ele>18.399999999999999</ele>
        <time>2018-07-06T15:37:27Z</time>
      </trkpt>
      <trkpt lat="48.041136022657156" lon="-4.49734803289175">
        <ele>17.920000000000002</ele>
        <time>2018-07-06T15:37:28Z</time>
      </trkpt>
      <trkpt lat="48.041150020435452" lon="-4.4971779640764">
        <ele>17.920000000000002</ele>
        <time>2018-07-06T15:37:29Z</time>
      </trkpt>
      <trkpt lat="48.041185978800058" lon="-4.497007979080081">
        <ele>17.920000000000002</ele>
        <time>2018-07-06T15:37:30Z</time>
      </trkpt>
      <trkpt lat="48.041226966306567" lon="-4.496838999912143">
        <ele>17.440000000000001</ele>
        <time>2018-07-06T15:37:31Z</time>
      </trkpt>
      <trkpt lat="48.041266025975347" lon="-4.496676977723837">
        <ele>17.440000000000001</ele>
        <time>2018-07-06T15:37:32Z</time>
      </trkpt>
      <trkpt lat="48.041303995996714" lon="-4.496517973020673">
        <ele>17.440000000000001</ele>
        <time>2018-07-06T15:37:33Z</time>
      </trkpt>
      <trkpt lat="48.04153298959136" lon="-4.495732001960278">
        <ele>18.879999999999999</ele>
        <time>2018-07-06T15:37:40Z</time>
      </trkpt>
      <trkpt lat="48.041633991524577" lon="-4.495389014482498">
        <ele>19.359999999999999</ele>
        <time>2018-07-06T15:37:44Z</time>
      </trkpt>
      <trkpt lat="48.041662992909551" lon="-4.495291030034423">
        <ele>19.359999999999999</ele>
        <time>2018-07-06T15:37:45Z</time>
      </trkpt>
      <trkpt lat="48.041988965123892" lon="-4.494229964911938">
        <ele>25.129999999999999</ele>
        <time>2018-07-06T15:37:54Z</time>
      </trkpt>
      <trkpt lat="48.042045040056109" lon="-4.494042964652181">
        <ele>26.57</ele>
        <time>2018-07-06T15:37:56Z</time>
      </trkpt>
      <trkpt lat="48.042165990918875" lon="-4.493641974404454">
        <ele>28.98</ele>
        <time>2018-07-06T15:38:00Z</time>
      </trkpt>
      <trkpt lat="48.042193986475468" lon="-4.493541978299618">
        <ele>29.460000000000001</ele>
        <time>2018-07-06T15:38:01Z</time>
      </trkpt>
      <trkpt lat="48.042611991986632" lon="-4.492118982598186">
        <ele>35.229999999999997</ele>
        <time>2018-07-06T15:38:13Z</time>
      </trkpt>
      <trkpt lat="48.042964031919837" lon="-4.490927997976542">
        <ele>37.630000000000003</ele>
        <time>2018-07-06T15:38:22Z</time>
      </trkpt>
      <trkpt lat="48.042997978627682" lon="-4.490791037678719">
        <ele>37.630000000000003</ele>
        <time>2018-07-06T15:38:23Z</time>
      </trkpt>
      <trkpt lat="48.043227978050709" lon="-4.489674987271428">
        <ele>40.509999999999998</ele>
        <time>2018-07-06T15:38:33Z</time>
      </trkpt>
      <trkpt lat="48.043237030506134" lon="-4.489591000601649">
        <ele>40.509999999999998</ele>
        <time>2018-07-06T15:38:34Z</time>
      </trkpt>
      <trkpt lat="48.043245999142528" lon="-4.489511959254742">
        <ele>40.990000000000002</ele>
        <time>2018-07-06T15:38:35Z</time>
      </trkpt>
      <trkpt lat="48.043253961950541" lon="-4.489439036697149">
        <ele>40.990000000000002</ele>
        <time>2018-07-06T15:38:36Z</time>
      </trkpt>
      <trkpt lat="48.04331598803401" lon="-4.489413974806666">
        <ele>41.469999999999999</ele>
        <time>2018-07-06T15:38:37Z</time>
      </trkpt>
      <trkpt lat="48.043364016339183" lon="-4.489411041140556">
        <ele>41.469999999999999</ele>
        <time>2018-07-06T15:38:38Z</time>
      </trkpt>
      <trkpt lat="48.043411038815975" lon="-4.489408023655415">
        <ele>41.950000000000003</ele>
        <time>2018-07-06T15:38:39Z</time>
      </trkpt>
      <trkpt lat="48.043459989130497" lon="-4.489406011998653">
        <ele>41.950000000000003</ele>
        <time>2018-07-06T15:38:40Z</time>
      </trkpt>
      <trkpt lat="48.043502988293767" lon="-4.489402994513512">
        <ele>41.950000000000003</ele>
        <time>2018-07-06T15:38:41Z</time>
      </trkpt>
      <trkpt lat="48.04353098385036" lon="-4.489401988685131">
        <ele>42.439999999999998</ele>
        <time>2018-07-06T15:38:42Z</time>
      </trkpt>
      <trkpt lat="48.043545987457037" lon="-4.489400982856751">
        <ele>42.439999999999998</ele>
        <time>2018-07-06T15:38:43Z</time>
      </trkpt>
      <trkpt lat="48.043556967750192" lon="-4.48939997702837">
        <ele>42.920000000000002</ele>
        <time>2018-07-06T15:38:45Z</time>
      </trkpt>
      <trkpt lat="48.043506005778909" lon="-4.489735001698136">
        <ele>44.359999999999999</ele>
        <time>2018-07-06T15:38:48Z</time>
      </trkpt>
      <trkpt lat="48.043452026322484" lon="-4.489831980317831">
        <ele>44.840000000000003</ele>
        <time>2018-07-06T15:38:50Z</time>
      </trkpt>
      <trkpt lat="48.043403998017311" lon="-4.490423994138837">
        <ele>46.280000000000001</ele>
        <time>2018-07-06T15:39:03Z</time>
      </trkpt>
      <trkpt lat="48.043473986908793" lon="-4.490501023828983">
        <ele>46.280000000000001</ele>
        <time>2018-07-06T15:39:06Z</time>
      </trkpt>
      <trkpt lat="48.043559985235333" lon="-4.49051602743566">
        <ele>46.759999999999998</ele>
        <time>2018-07-06T15:39:08Z</time>
      </trkpt>
      <trkpt lat="48.043665010482073" lon="-4.490545028820634">
        <ele>47.240000000000002</ele>
        <time>2018-07-06T15:39:10Z</time>
      </trkpt>
      <trkpt lat="48.04396097548306" lon="-4.490605965256691">
        <ele>48.68</ele>
        <time>2018-07-06T15:39:15Z</time>
      </trkpt>
      <trkpt lat="48.044319972395897" lon="-4.490594984963536">
        <ele>47.240000000000002</ele>
        <time>2018-07-06T15:39:19Z</time>
      </trkpt>
      <trkpt lat="48.0443250015378" lon="-4.490541005507112">
        <ele>46.759999999999998</ele>
        <time>2018-07-06T15:39:20Z</time>
      </trkpt>
      <trkpt lat="48.044331958517432" lon="-4.49047202244401">
        <ele>46.759999999999998</ele>
        <time>2018-07-06T15:39:21Z</time>
      </trkpt>
      <trkpt lat="48.044338999316096" lon="-4.490392981097102">
        <ele>46.759999999999998</ele>
        <time>2018-07-06T15:39:22Z</time>
      </trkpt>
      <trkpt lat="48.044346962124109" lon="-4.490307988598943">
        <ele>46.759999999999998</ele>
        <time>2018-07-06T15:39:23Z</time>
      </trkpt>
      <trkpt lat="48.044362971559167" lon="-4.490139009431005">
        <ele>45.799999999999997</ele>
        <time>2018-07-06T15:39:25Z</time>
      </trkpt>
      <trkpt lat="48.04436900652945" lon="-4.490073965862393">
        <ele>45.32</ele>
        <time>2018-07-06T15:39:26Z</time>
      </trkpt>
      <trkpt lat="48.044373029842973" lon="-4.490033984184265">
        <ele>44.840000000000003</ele>
        <time>2018-07-06T15:39:27Z</time>
      </trkpt>
      <trkpt lat="48.04393901489675" lon="-4.489867016673088">
        <ele>40.990000000000002</ele>
        <time>2018-07-06T15:39:33Z</time>
      </trkpt>
      <trkpt lat="48.043827032670379" lon="-4.489738019183278">
        <ele>40.030000000000001</ele>
        <time>2018-07-06T15:39:37Z</time>
      </trkpt>
      <trkpt lat="48.043803982436657" lon="-4.489385979250073">
        <ele>39.549999999999997</ele>
        <time>2018-07-06T15:39:39Z</time>
      </trkpt>
      <trkpt lat="48.043825021013618" lon="-4.489384973421693">
        <ele>39.07</ele>
        <time>2018-07-06T15:39:40Z</time>
      </trkpt>
      <trkpt lat="48.043844969943166" lon="-4.489383967593312">
        <ele>39.07</ele>
        <time>2018-07-06T15:39:41Z</time>
      </trkpt>
      <trkpt lat="48.043863996863365" lon="-4.489382961764932">
        <ele>38.590000000000003</ele>
        <time>2018-07-06T15:39:42Z</time>
      </trkpt>
      <trkpt lat="48.043885035440326" lon="-4.489382039755583">
        <ele>38.109999999999999</ele>
        <time>2018-07-06T15:39:43Z</time>
      </trkpt>
      <trkpt lat="48.043906996026635" lon="-4.489380028098822">
        <ele>37.630000000000003</ele>
        <time>2018-07-06T15:39:44Z</time>
      </trkpt>
      <trkpt lat="48.043923005461693" lon="-4.489380028098822">
        <ele>37.149999999999999</ele>
        <time>2018-07-06T15:39:45Z</time>
      </trkpt>
      <trkpt lat="48.043923005461693" lon="-4.489380028098822">
        <ele>36.670000000000002</ele>
        <time>2018-07-06T15:40:01Z</time>
      </trkpt>
      <trkpt lat="48.043985031545162" lon="-4.489633999764919">
        <ele>28.02</ele>
        <time>2018-07-06T15:43:40Z</time>
      </trkpt>
      <trkpt lat="48.043952006846666" lon="-4.489560993388295">
        <ele>32.82</ele>
        <time>2018-07-06T15:44:08Z</time>
      </trkpt>
      <trkpt lat="48.043983019888401" lon="-4.489558981731534">
        <ele>43.880000000000003</ele>
        <time>2018-07-06T15:44:29Z</time>
      </trkpt>
      <trkpt lat="48.043987965211272" lon="-4.489554036408663">
        <ele>44.840000000000003</ele>
        <time>2018-07-06T15:44:33Z</time>
      </trkpt>
      <trkpt lat="48.043999029323459" lon="-4.489374998956919">
        <ele>44.840000000000003</ele>
        <time>2018-07-06T15:44:35Z</time>
      </trkpt>
      <trkpt lat="48.043988971039653" lon="-4.489673981443048">
        <ele>43.880000000000003</ele>
        <time>2018-07-06T15:44:37Z</time>
      </trkpt>
      <trkpt lat="48.043756037950516" lon="-4.489785963669419">
        <ele>38.109999999999999</ele>
        <time>2018-07-06T15:44:43Z</time>
      </trkpt>
      <trkpt lat="48.043655036017299" lon="-4.489755034446716">
        <ele>35.229999999999997</ele>
        <time>2018-07-06T15:44:45Z</time>
      </trkpt>
      <trkpt lat="48.043547999113798" lon="-4.489400982856751">
        <ele>27.530000000000001</ele>
        <time>2018-07-06T15:44:51Z</time>
      </trkpt>
      <trkpt lat="48.043529978021979" lon="-4.489401988685131">
        <ele>27.050000000000001</ele>
        <time>2018-07-06T15:44:52Z</time>
      </trkpt>
      <trkpt lat="48.043511034920812" lon="-4.489402994513512">
        <ele>26.09</ele>
        <time>2018-07-06T15:44:53Z</time>
      </trkpt>
      <trkpt lat="48.043483961373568" lon="-4.489404000341892">
        <ele>25.129999999999999</ele>
        <time>2018-07-06T15:44:54Z</time>
      </trkpt>
      <trkpt lat="48.043457977473736" lon="-4.489406011998653">
        <ele>24.649999999999999</ele>
        <time>2018-07-06T15:44:55Z</time>
      </trkpt>
      <trkpt lat="48.043435011059046" lon="-4.489407017827034">
        <ele>23.690000000000001</ele>
        <time>2018-07-06T15:44:56Z</time>
      </trkpt>
      <trkpt lat="48.043435011059046" lon="-4.489407017827034">
        <ele>18.879999999999999</ele>
        <time>2018-07-06T15:45:08Z</time>
      </trkpt>
      <trkpt lat="48.043378014117479" lon="-4.489410035312176">
        <ele>19.84</ele>
        <time>2018-07-06T15:45:18Z</time>
      </trkpt>
      <trkpt lat="48.043259996920824" lon="-4.48933401145041">
        <ele>20.809999999999999</ele>
        <time>2018-07-06T15:45:19Z</time>
      </trkpt>
      <trkpt lat="48.043263014405966" lon="-4.489262010902166">
        <ele>20.809999999999999</ele>
        <time>2018-07-06T15:45:20Z</time>
      </trkpt>
      <trkpt lat="48.043267037719488" lon="-4.489161008968949">
        <ele>20.809999999999999</ele>
        <time>2018-07-06T15:45:21Z</time>
      </trkpt>
      <trkpt lat="48.043271983042359" lon="-4.489046009257436">
        <ele>21.289999999999999</ele>
        <time>2018-07-06T15:45:22Z</time>
      </trkpt>
      <trkpt lat="48.043277012184262" lon="-4.4889269862324">
        <ele>22.25</ele>
        <time>2018-07-06T15:45:23Z</time>
      </trkpt>
      <trkpt lat="48.043377008289099" lon="-4.487567022442818">
        <ele>27.050000000000001</ele>
        <time>2018-07-06T15:45:34Z</time>
      </trkpt>
      <trkpt lat="48.043397963047028" lon="-4.487435007467866">
        <ele>27.530000000000001</ele>
        <time>2018-07-06T15:45:35Z</time>
      </trkpt>
      <trkpt lat="48.043442973867059" lon="-4.487158991396427">
        <ele>28.5</ele>
        <time>2018-07-06T15:45:37Z</time>
      </trkpt>
      <trkpt lat="48.0434650182724" lon="-4.487019013613462">
        <ele>28.98</ele>
        <time>2018-07-06T15:45:38Z</time>
      </trkpt>
      <trkpt lat="48.043585969135165" lon="-4.48630403727293">
        <ele>29.940000000000001</ele>
        <time>2018-07-06T15:45:43Z</time>
      </trkpt>
      <trkpt lat="48.043775986880064" lon="-4.485192010179162">
        <ele>31.859999999999999</ele>
        <time>2018-07-06T15:45:50Z</time>
      </trkpt>
      <trkpt lat="48.043798031285405" lon="-4.485022025182843">
        <ele>31.859999999999999</ele>
        <time>2018-07-06T15:45:51Z</time>
      </trkpt>
      <trkpt lat="48.043842036277056" lon="-4.484669985249639">
        <ele>31.379999999999999</ele>
        <time>2018-07-06T15:45:53Z</time>
      </trkpt>
      <trkpt lat="48.043863996863365" lon="-4.484492959454656">
        <ele>31.379999999999999</ele>
        <time>2018-07-06T15:45:54Z</time>
      </trkpt>
      <trkpt lat="48.043879000470042" lon="-4.484306965023279">
        <ele>31.379999999999999</ele>
        <time>2018-07-06T15:45:55Z</time>
      </trkpt>
      <trkpt lat="48.043879000470042" lon="-4.484118958935142">
        <ele>31.379999999999999</ele>
        <time>2018-07-06T15:45:56Z</time>
      </trkpt>
      <trkpt lat="48.043879000470042" lon="-4.483926007524133">
        <ele>31.379999999999999</ele>
        <time>2018-07-06T15:45:57Z</time>
      </trkpt>
      <trkpt lat="48.043598039075732" lon="-4.482239987701178">
        <ele>28.98</ele>
        <time>2018-07-06T15:46:05Z</time>
      </trkpt>
      <trkpt lat="48.04312395863235" lon="-4.479961032047868">
        <ele>26.09</ele>
        <time>2018-07-06T15:46:13Z</time>
      </trkpt>
      <trkpt lat="48.042332958430052" lon="-4.477188969030976">
        <ele>23.690000000000001</ele>
        <time>2018-07-06T15:46:22Z</time>
      </trkpt>
      <trkpt lat="48.042230028659105" lon="-4.476644983515143">
        <ele>23.210000000000001</ele>
        <time>2018-07-06T15:46:24Z</time>
      </trkpt>
      <trkpt lat="48.042160961776972" lon="-4.476075014099479">
        <ele>23.210000000000001</ele>
        <time>2018-07-06T15:46:26Z</time>
      </trkpt>
      <trkpt lat="48.042088961228728" lon="-4.474921999499202">
        <ele>22.73</ele>
        <time>2018-07-06T15:46:30Z</time>
      </trkpt>
      <trkpt lat="48.042265987023711" lon="-4.471701001748443">
        <ele>21.289999999999999</ele>
        <time>2018-07-06T15:46:41Z</time>
      </trkpt>
      <trkpt lat="48.042580978944898" lon="-4.469694038853049">
        <ele>20.32</ele>
        <time>2018-07-06T15:46:48Z</time>
      </trkpt>
      <trkpt lat="48.043334009125829" lon="-4.467997960746288">
        <ele>18.399999999999999</ele>
        <time>2018-07-06T15:46:54Z</time>
      </trkpt>
      <trkpt lat="48.043484967201948" lon="-4.467751029878855">
        <ele>17.920000000000002</ele>
        <time>2018-07-06T15:46:55Z</time>
      </trkpt>
      <trkpt lat="48.043642966076732" lon="-4.467529999092221">
        <ele>17.920000000000002</ele>
        <time>2018-07-06T15:46:56Z</time>
      </trkpt>
      <trkpt lat="48.043840024620295" lon="-4.467364959418774">
        <ele>17.440000000000001</ele>
        <time>2018-07-06T15:46:57Z</time>
      </trkpt>
      <trkpt lat="48.044049991294742" lon="-4.467187011614442">
        <ele>16.960000000000001</ele>
        <time>2018-07-06T15:46:58Z</time>
      </trkpt>
      <trkpt lat="48.044257024303079" lon="-4.467062959447503">
        <ele>16.960000000000001</ele>
        <time>2018-07-06T15:46:59Z</time>
      </trkpt>
      <trkpt lat="48.044469002634287" lon="-4.466935973614454">
        <ele>16.960000000000001</ele>
        <time>2018-07-06T15:47:00Z</time>
      </trkpt>
      <trkpt lat="48.046597000211477" lon="-4.465667959302664">
        <ele>21.77</ele>
        <time>2018-07-06T15:47:10Z</time>
      </trkpt>
      <trkpt lat="48.047234024852514" lon="-4.465312985703349">
        <ele>24.170000000000002</ele>
        <time>2018-07-06T15:47:13Z</time>
      </trkpt>
      <trkpt lat="48.047464024275541" lon="-4.465260012075305">
        <ele>25.129999999999999</ele>
        <time>2018-07-06T15:47:14Z</time>
      </trkpt>
      <trkpt lat="48.047694023698568" lon="-4.465207038447261">
        <ele>26.09</ele>
        <time>2018-07-06T15:47:15Z</time>
      </trkpt>
      <trkpt lat="48.049118025228381" lon="-4.465479031205177">
        <ele>31.379999999999999</ele>
        <time>2018-07-06T15:47:21Z</time>
      </trkpt>
      <trkpt lat="48.05012796074152" lon="-4.465742977336049">
        <ele>34.740000000000002</ele>
        <time>2018-07-06T15:47:26Z</time>
      </trkpt>
      <trkpt lat="48.050313033163548" lon="-4.465733002871275">
        <ele>35.229999999999997</ele>
        <time>2018-07-06T15:47:27Z</time>
      </trkpt>
      <trkpt lat="48.05049299262464" lon="-4.465677011758089">
        <ele>35.710000000000001</ele>
        <time>2018-07-06T15:47:28Z</time>
      </trkpt>
      <trkpt lat="48.05066498927772" lon="-4.465579027310014">
        <ele>36.189999999999998</ele>
        <time>2018-07-06T15:47:29Z</time>
      </trkpt>
      <trkpt lat="48.050846960395575" lon="-4.465476013720036">
        <ele>36.670000000000002</ele>
        <time>2018-07-06T15:47:30Z</time>
      </trkpt>
      <trkpt lat="48.051020968705416" lon="-4.465326983481646">
        <ele>37.149999999999999</ele>
        <time>2018-07-06T15:47:31Z</time>
      </trkpt>
      <trkpt lat="48.05152103304863" lon="-4.464843012392521">
        <ele>37.630000000000003</ele>
        <time>2018-07-06T15:47:34Z</time>
      </trkpt>
      <trkpt lat="48.051658999174833" lon="-4.464631034061313">
        <ele>38.109999999999999</ele>
        <time>2018-07-06T15:47:35Z</time>
      </trkpt>
      <trkpt lat="48.051785985007882" lon="-4.464403968304396">
        <ele>38.590000000000003</ele>
        <time>2018-07-06T15:47:36Z</time>
      </trkpt>
      <trkpt lat="48.051915988326073" lon="-4.464173968881369">
        <ele>39.07</ele>
        <time>2018-07-06T15:47:37Z</time>
      </trkpt>
      <trkpt lat="48.052002992480993" lon="-4.463902981951833">
        <ele>39.549999999999997</ele>
        <time>2018-07-06T15:47:38Z</time>
      </trkpt>
      <trkpt lat="48.052075998857617" lon="-4.463625960052013">
        <ele>40.030000000000001</ele>
        <time>2018-07-06T15:47:39Z</time>
      </trkpt>
      <trkpt lat="48.052150011062622" lon="-4.463346004486084">
        <ele>40.990000000000002</ele>
        <time>2018-07-06T15:47:40Z</time>
      </trkpt>
      <trkpt lat="48.052192004397511" lon="-4.463052973151207">
        <ele>41.469999999999999</ele>
        <time>2018-07-06T15:47:41Z</time>
      </trkpt>
      <trkpt lat="48.052228968590498" lon="-4.462759019806981">
        <ele>41.950000000000003</ele>
        <time>2018-07-06T15:47:42Z</time>
      </trkpt>
      <trkpt lat="48.052240032702684" lon="-4.461577003821731">
        <ele>45.32</ele>
        <time>2018-07-06T15:47:46Z</time>
      </trkpt>
      <trkpt lat="48.051816998049617" lon="-4.45826699025929">
        <ele>52.049999999999997</ele>
        <time>2018-07-06T15:47:57Z</time>
      </trkpt>
      <trkpt lat="48.051475016400218" lon="-4.45566700771451">
        <ele>54.450000000000003</ele>
        <time>2018-07-06T15:48:05Z</time>
      </trkpt>
      <trkpt lat="48.050872022286057" lon="-4.450965011492372">
        <ele>64.069999999999993</ele>
        <time>2018-07-06T15:48:20Z</time>
      </trkpt>
      <trkpt lat="48.050769008696079" lon="-4.448750009760261">
        <ele>69.829999999999998</ele>
        <time>2018-07-06T15:48:28Z</time>
      </trkpt>
      <trkpt lat="48.050846960395575" lon="-4.444936998188496">
        <ele>70.310000000000002</ele>
        <time>2018-07-06T15:48:41Z</time>
      </trkpt>
      <trkpt lat="48.050913009792566" lon="-4.441734021529555">
        <ele>72.239999999999995</ele>
        <time>2018-07-06T15:48:52Z</time>
      </trkpt>
      <trkpt lat="48.05094201117754" lon="-4.438688037917018">
        <ele>74.159999999999997</ele>
        <time>2018-07-06T15:49:04Z</time>
      </trkpt>
      <trkpt lat="48.050891971215606" lon="-4.437197986990213">
        <ele>74.159999999999997</ele>
        <time>2018-07-06T15:49:11Z</time>
      </trkpt>
      <trkpt lat="48.050831034779549" lon="-4.435429992154241">
        <ele>72.239999999999995</ele>
        <time>2018-07-06T15:49:22Z</time>
      </trkpt>
      <trkpt lat="48.050741013139486" lon="-4.433498969301581">
        <ele>71.269999999999996</ele>
        <time>2018-07-06T15:49:34Z</time>
      </trkpt>
      <trkpt lat="48.050772026181221" lon="-4.433176014572382">
        <ele>71.269999999999996</ele>
        <time>2018-07-06T15:49:36Z</time>
      </trkpt>
      <trkpt lat="48.050736989825964" lon="-4.432838978245854">
        <ele>71.760000000000005</ele>
        <time>2018-07-06T15:49:38Z</time>
      </trkpt>
      <trkpt lat="48.050688039511442" lon="-4.430859005078673">
        <ele>72.719999999999999</ele>
        <time>2018-07-06T15:49:50Z</time>
      </trkpt>
      <trkpt lat="48.05066498927772" lon="-4.429487977176905">
        <ele>72.239999999999995</ele>
        <time>2018-07-06T15:49:59Z</time>
      </trkpt>
      <trkpt lat="48.050637999549508" lon="-4.427644964307547">
        <ele>69.349999999999994</ele>
        <time>2018-07-06T15:50:12Z</time>
      </trkpt>
      <trkpt lat="48.050637999549508" lon="-4.427196029573679">
        <ele>69.829999999999998</ele>
        <time>2018-07-06T15:50:15Z</time>
      </trkpt>
      <trkpt lat="48.050637999549508" lon="-4.427040964365006">
        <ele>69.829999999999998</ele>
        <time>2018-07-06T15:50:16Z</time>
      </trkpt>
      <trkpt lat="48.050688961520791" lon="-4.425200968980789">
        <ele>69.829999999999998</ele>
        <time>2018-07-06T15:50:27Z</time>
      </trkpt>
      <trkpt lat="48.050845032557845" lon="-4.423216972500086">
        <ele>69.349999999999994</ele>
        <time>2018-07-06T15:50:38Z</time>
      </trkpt>
      <trkpt lat="48.051146026700735" lon="-4.420984033495188">
        <ele>65.510000000000005</ele>
        <time>2018-07-06T15:50:49Z</time>
      </trkpt>
      <trkpt lat="48.051405027508736" lon="-4.418931975960732">
        <ele>61.18</ele>
        <time>2018-07-06T15:50:58Z</time>
      </trkpt>
      <trkpt lat="48.051658999174833" lon="-4.416921995580196">
        <ele>59.740000000000002</ele>
        <time>2018-07-06T15:51:08Z</time>
      </trkpt>
      <trkpt lat="48.051863014698029" lon="-4.415272017940879">
        <ele>63.579999999999998</ele>
        <time>2018-07-06T15:51:17Z</time>
      </trkpt>
      <trkpt lat="48.05190903134644" lon="-4.413348035886884">
        <ele>65.989999999999995</ele>
        <time>2018-07-06T15:51:23Z</time>
      </trkpt>
      <trkpt lat="48.051916994154453" lon="-4.409888992086053">
        <ele>70.790000000000006</ele>
        <time>2018-07-06T15:51:33Z</time>
      </trkpt>
      <trkpt lat="48.051819009706378" lon="-4.407158000394702">
        <ele>66.469999999999999</ele>
        <time>2018-07-06T15:51:42Z</time>
      </trkpt>
      <trkpt lat="48.0517159961164" lon="-4.404044039547443">
        <ele>64.549999999999997</ele>
        <time>2018-07-06T15:51:54Z</time>
      </trkpt>
      <trkpt lat="48.051775004714727" lon="-4.403156982734799">
        <ele>62.619999999999997</ele>
        <time>2018-07-06T15:51:59Z</time>
      </trkpt>
      <trkpt lat="48.051789002493024" lon="-4.403017004951835">
        <ele>62.619999999999997</ele>
        <time>2018-07-06T15:52:00Z</time>
      </trkpt>
      <trkpt lat="48.051800988614559" lon="-4.402908040210605">
        <ele>62.140000000000001</ele>
        <time>2018-07-06T15:52:01Z</time>
      </trkpt>
      <trkpt lat="48.051561014726758" lon="-4.402838973328471">
        <ele>61.659999999999997</ele>
        <time>2018-07-06T15:52:02Z</time>
      </trkpt>
      <trkpt lat="48.051534024998546" lon="-4.40270503051579">
        <ele>61.659999999999997</ele>
        <time>2018-07-06T15:52:03Z</time>
      </trkpt>
      <trkpt lat="48.051503011956811" lon="-4.402547031641007">
        <ele>61.18</ele>
        <time>2018-07-06T15:52:04Z</time>
      </trkpt>
      <trkpt lat="48.051465963944793" lon="-4.40236397087574">
        <ele>61.18</ele>
        <time>2018-07-06T15:52:05Z</time>
      </trkpt>
      <trkpt lat="48.051425982266665" lon="-4.402160961180925">
        <ele>60.700000000000003</ele>
        <time>2018-07-06T15:52:06Z</time>
      </trkpt>
      <trkpt lat="48.051048964262009" lon="-4.40036497078836">
        <ele>59.740000000000002</ele>
        <time>2018-07-06T15:52:13Z</time>
      </trkpt>
      <trkpt lat="48.050385033711791" lon="-4.396977005526424">
        <ele>62.619999999999997</ele>
        <time>2018-07-06T15:52:24Z</time>
      </trkpt>
      <trkpt lat="48.049610964953899" lon="-4.393384018912911">
        <ele>66.469999999999999</ele>
        <time>2018-07-06T15:52:36Z</time>
      </trkpt>
      <trkpt lat="48.048568004742265" lon="-4.389967974275351">
        <ele>72.239999999999995</ele>
        <time>2018-07-06T15:52:48Z</time>
      </trkpt>
      <trkpt lat="48.047606013715267" lon="-4.386888965964317">
        <ele>77.519999999999996</ele>
        <time>2018-07-06T15:52:59Z</time>
      </trkpt>
      <trkpt lat="48.046598006039858" lon="-4.385263966396451">
        <ele>75.599999999999994</ele>
        <time>2018-07-06T15:53:06Z</time>
      </trkpt>
      <trkpt lat="48.045565020292997" lon="-4.383514998480678">
        <ele>74.640000000000001</ele>
        <time>2018-07-06T15:53:14Z</time>
      </trkpt>
      <trkpt lat="48.044758010655642" lon="-4.380566999316216">
        <ele>81.370000000000005</ele>
        <time>2018-07-06T15:53:25Z</time>
      </trkpt>
      <trkpt lat="48.044330030679703" lon="-4.378446964547038">
        <ele>77.040000000000006</ele>
        <time>2018-07-06T15:53:33Z</time>
      </trkpt>
      <trkpt lat="48.044170020148158" lon="-4.375603990629315">
        <ele>77.040000000000006</ele>
        <time>2018-07-06T15:53:43Z</time>
      </trkpt>
      <trkpt lat="48.044179994612932" lon="-4.375307019799948">
        <ele>77.519999999999996</ele>
        <time>2018-07-06T15:53:44Z</time>
      </trkpt>
      <trkpt lat="48.044119980186224" lon="-4.3728849850595">
        <ele>80.409999999999997</ele>
        <time>2018-07-06T15:53:52Z</time>
      </trkpt>
      <trkpt lat="48.043682025745511" lon="-4.369657030329108">
        <ele>82.810000000000002</ele>
        <time>2018-07-06T15:54:02Z</time>
      </trkpt>
      <trkpt lat="48.043378014117479" lon="-4.366852026432753">
        <ele>81.849999999999994</ele>
        <time>2018-07-06T15:54:10Z</time>
      </trkpt>
      <trkpt lat="48.043004013597965" lon="-4.363701017573476">
        <ele>79.450000000000003</ele>
        <time>2018-07-06T15:54:19Z</time>
      </trkpt>
      <trkpt lat="48.04256203584373" lon="-4.361287029460073">
        <ele>76.079999999999998</ele>
        <time>2018-07-06T15:54:27Z</time>
      </trkpt>
      <trkpt lat="48.042105976492167" lon="-4.358414970338345">
        <ele>73.200000000000003</ele>
        <time>2018-07-06T15:54:37Z</time>
      </trkpt>
      <trkpt lat="48.041530977934599" lon="-4.355340991169214">
        <ele>76.079999999999998</ele>
        <time>2018-07-06T15:54:46Z</time>
      </trkpt>
      <trkpt lat="48.04103896021843" lon="-4.352344963699579">
        <ele>80.409999999999997</ele>
        <time>2018-07-06T15:54:55Z</time>
      </trkpt>
      <trkpt lat="48.040884984657168" lon="-4.349533002823591">
        <ele>83.769999999999996</ele>
        <time>2018-07-06T15:55:03Z</time>
      </trkpt>
      <trkpt lat="48.040642999112606" lon="-4.34579299762845">
        <ele>82.329999999999998</ele>
        <time>2018-07-06T15:55:14Z</time>
      </trkpt>
      <trkpt lat="48.040280984714627" lon="-4.343678997829557">
        <ele>81.849999999999994</ele>
        <time>2018-07-06T15:55:22Z</time>
      </trkpt>
      <trkpt lat="48.039897009730339" lon="-4.341712016612291">
        <ele>83.769999999999996</ele>
        <time>2018-07-06T15:55:31Z</time>
      </trkpt>
      <trkpt lat="48.039801958948374" lon="-4.339744029566646">
        <ele>85.209999999999994</ele>
        <time>2018-07-06T15:55:40Z</time>
      </trkpt>
      <trkpt lat="48.039696011692286" lon="-4.337034998461604">
        <ele>86.180000000000007</ele>
        <time>2018-07-06T15:55:51Z</time>
      </trkpt>
      <trkpt lat="48.039628034457564" lon="-4.336794018745422">
        <ele>86.659999999999997</ele>
        <time>2018-07-06T15:55:52Z</time>
      </trkpt>
      <trkpt lat="48.039553016424179" lon="-4.336544992402196">
        <ele>86.659999999999997</ele>
        <time>2018-07-06T15:55:53Z</time>
      </trkpt>
      <trkpt lat="48.039454026147723" lon="-4.336306024342775">
        <ele>86.180000000000007</ele>
        <time>2018-07-06T15:55:54Z</time>
      </trkpt>
      <trkpt lat="48.039355035871267" lon="-4.336067978292704">
        <ele>86.180000000000007</ele>
        <time>2018-07-06T15:55:55Z</time>
      </trkpt>
      <trkpt lat="48.03925302810967" lon="-4.335848959162831">
        <ele>85.689999999999998</ele>
        <time>2018-07-06T15:55:56Z</time>
      </trkpt>
      <trkpt lat="48.039065022021532" lon="-4.335416033864021">
        <ele>84.730000000000004</ele>
        <time>2018-07-06T15:55:58Z</time>
      </trkpt>
      <trkpt lat="48.039024034515023" lon="-4.335171030834317">
        <ele>84.25</ele>
        <time>2018-07-06T15:55:59Z</time>
      </trkpt>
      <trkpt lat="48.038982041180134" lon="-4.334917981177568">
        <ele>84.25</ele>
        <time>2018-07-06T15:56:00Z</time>
      </trkpt>
      <trkpt lat="48.038707030937076" lon="-4.332224037498236">
        <ele>78</ele>
        <time>2018-07-06T15:56:10Z</time>
      </trkpt>
      <trkpt lat="48.038642993196845" lon="-4.330260995775461">
        <ele>73.680000000000007</ele>
        <time>2018-07-06T15:56:19Z</time>
      </trkpt>
      <trkpt lat="48.038627989590168" lon="-4.330099979415536">
        <ele>72.719999999999999</ele>
        <time>2018-07-06T15:56:20Z</time>
      </trkpt>
      <trkpt lat="48.038521036505699" lon="-4.329765038564801">
        <ele>72.239999999999995</ele>
        <time>2018-07-06T15:56:22Z</time>
      </trkpt>
      <trkpt lat="48.038497986271977" lon="-4.329175958409905">
        <ele>71.760000000000005</ele>
        <time>2018-07-06T15:56:25Z</time>
      </trkpt>
      <trkpt lat="48.038450963795185" lon="-4.328957023099065">
        <ele>72.239999999999995</ele>
        <time>2018-07-06T15:56:26Z</time>
      </trkpt>
      <trkpt lat="48.038406958803535" lon="-4.328720988705754">
        <ele>72.239999999999995</ele>
        <time>2018-07-06T15:56:27Z</time>
      </trkpt>
      <trkpt lat="48.037725007161498" lon="-4.326546974480152">
        <ele>73.680000000000007</ele>
        <time>2018-07-06T15:56:36Z</time>
      </trkpt>
      <trkpt lat="48.037213962525129" lon="-4.324882999062538">
        <ele>75.120000000000005</ele>
        <time>2018-07-06T15:56:43Z</time>
      </trkpt>
      <trkpt lat="48.036553971469402" lon="-4.322647964581847">
        <ele>77.040000000000006</ele>
        <time>2018-07-06T15:56:50Z</time>
      </trkpt>
      <trkpt lat="48.035798007622361" lon="-4.320140015333891">
        <ele>74.159999999999997</ele>
        <time>2018-07-06T15:56:58Z</time>
      </trkpt>
      <trkpt lat="48.034450029954314" lon="-4.317132001742721">
        <ele>79.450000000000003</ele>
        <time>2018-07-06T15:57:09Z</time>
      </trkpt>
      <trkpt lat="48.033544030040503" lon="-4.314962010830641">
        <ele>81.370000000000005</ele>
        <time>2018-07-06T15:57:17Z</time>
      </trkpt>
      <trkpt lat="48.032757975161076" lon="-4.313007015734911">
        <ele>82.329999999999998</ele>
        <time>2018-07-06T15:57:25Z</time>
      </trkpt>
      <trkpt lat="48.032323960214853" lon="-4.311920972540975">
        <ele>84.730000000000004</ele>
        <time>2018-07-06T15:57:30Z</time>
      </trkpt>
      <trkpt lat="48.032237961888313" lon="-4.311703965067864">
        <ele>85.689999999999998</ele>
        <time>2018-07-06T15:57:31Z</time>
      </trkpt>
      <trkpt lat="48.031445033848286" lon="-4.309718040749431">
        <ele>91.459999999999994</ele>
        <time>2018-07-06T15:57:39Z</time>
      </trkpt>
      <trkpt lat="48.030160004273057" lon="-4.306703992187977">
        <ele>99.629999999999995</ele>
        <time>2018-07-06T15:57:50Z</time>
      </trkpt>
      <trkpt lat="48.029449973255396" lon="-4.304866008460522">
        <ele>99.629999999999995</ele>
        <time>2018-07-06T15:57:58Z</time>
      </trkpt>
      <trkpt lat="48.029065998271108" lon="-4.30325098335743">
        <ele>100.11</ele>
        <time>2018-07-06T15:58:05Z</time>
      </trkpt>
      <trkpt lat="48.028903976082802" lon="-4.30062803439796">
        <ele>107.31999999999999</ele>
        <time>2018-07-06T15:58:14Z</time>
      </trkpt>
      <trkpt lat="48.028520001098514" lon="-4.296613018959761">
        <ele>123.19</ele>
        <time>2018-07-06T15:58:27Z</time>
      </trkpt>
      <trkpt lat="48.028024965897202" lon="-4.29358497262001">
        <ele>130.40000000000001</ele>
        <time>2018-07-06T15:58:37Z</time>
      </trkpt>
      <trkpt lat="48.027488021180034" lon="-4.290765970945358">
        <ele>130.40000000000001</ele>
        <time>2018-07-06T15:58:48Z</time>
      </trkpt>
      <trkpt lat="48.027434963732958" lon="-4.290254004299641">
        <ele>130.40000000000001</ele>
        <time>2018-07-06T15:58:50Z</time>
      </trkpt>
      <trkpt lat="48.027410991489887" lon="-4.287686040624976">
        <ele>126.55</ele>
        <time>2018-07-06T15:58:59Z</time>
      </trkpt>
      <trkpt lat="48.027661023661494" lon="-4.28505202755332">
        <ele>123.67</ele>
        <time>2018-07-06T15:59:09Z</time>
      </trkpt>
      <trkpt lat="48.028242979198694" lon="-4.281602958217263">
        <ele>130.88</ele>
        <time>2018-07-06T15:59:22Z</time>
      </trkpt>
      <trkpt lat="48.028713036328554" lon="-4.279087968170643">
        <ele>140.00999999999999</ele>
        <time>2018-07-06T15:59:32Z</time>
      </trkpt>
      <trkpt lat="48.029150990769267" lon="-4.276483040302992">
        <ele>144.34</ele>
        <time>2018-07-06T15:59:43Z</time>
      </trkpt>
      <trkpt lat="48.02941401489079" lon="-4.2739890050143">
        <ele>148.18000000000001</ele>
        <time>2018-07-06T15:59:52Z</time>
      </trkpt>
      <trkpt lat="48.029740992933512" lon="-4.271147958934307">
        <ele>151.06</ele>
        <time>2018-07-06T16:00:04Z</time>
      </trkpt>
      <trkpt lat="48.03036100231111" lon="-4.26898199133575">
        <ele>145.30000000000001</ele>
        <time>2018-07-06T16:00:14Z</time>
      </trkpt>
      <trkpt lat="48.030969025567174" lon="-4.267395967617631">
        <ele>147.22</ele>
        <time>2018-07-06T16:00:23Z</time>
      </trkpt>
      <trkpt lat="48.031749967485666" lon="-4.265787983313203">
        <ele>147.69999999999999</ele>
        <time>2018-07-06T16:00:34Z</time>
      </trkpt>
      <trkpt lat="48.032398978248239" lon="-4.264340009540319">
        <ele>147.22</ele>
        <time>2018-07-06T16:00:42Z</time>
      </trkpt>
      <trkpt lat="48.033080007880926" lon="-4.26232198253274">
        <ele>150.58000000000001</ele>
        <time>2018-07-06T16:00:53Z</time>
      </trkpt>
      <trkpt lat="48.0337980017066" lon="-4.25982903689146">
        <ele>150.09999999999999</ele>
        <time>2018-07-06T16:01:05Z</time>
      </trkpt>
      <trkpt lat="48.034294964745641" lon="-4.257690981030464">
        <ele>154.43000000000001</ele>
        <time>2018-07-06T16:01:13Z</time>
      </trkpt>
      <trkpt lat="48.034898964688182" lon="-4.25520901568234">
        <ele>158.75</ele>
        <time>2018-07-06T16:01:22Z</time>
      </trkpt>
      <trkpt lat="48.035361981019378" lon="-4.253399027511478">
        <ele>161.63999999999999</ele>
        <time>2018-07-06T16:01:30Z</time>
      </trkpt>
      <trkpt lat="48.035872019827366" lon="-4.252542983740568">
        <ele>159.72</ele>
        <time>2018-07-06T16:01:37Z</time>
      </trkpt>
      <trkpt lat="48.036474008113146" lon="-4.252068987116218">
        <ele>157.31</ele>
        <time>2018-07-06T16:01:42Z</time>
      </trkpt>
      <trkpt lat="48.036618009209633" lon="-4.252006961032748">
        <ele>156.83000000000001</ele>
        <time>2018-07-06T16:01:43Z</time>
      </trkpt>
      <trkpt lat="48.036755975335836" lon="-4.251948036253452">
        <ele>156.34999999999999</ele>
        <time>2018-07-06T16:01:44Z</time>
      </trkpt>
      <trkpt lat="48.037356035783887" lon="-4.251690963283181">
        <ele>152.99000000000001</ele>
        <time>2018-07-06T16:01:49Z</time>
      </trkpt>
      <trkpt lat="48.037437004968524" lon="-4.251656010746956">
        <ele>152.50999999999999</ele>
        <time>2018-07-06T16:01:50Z</time>
      </trkpt>
      <trkpt lat="48.037501964718103" lon="-4.251615023240447">
        <ele>152.03</ele>
        <time>2018-07-06T16:01:51Z</time>
      </trkpt>
      <trkpt lat="48.037607995793223" lon="-4.251535981893539">
        <ele>150.58000000000001</ele>
        <time>2018-07-06T16:01:54Z</time>
      </trkpt>
      <trkpt lat="48.037591986358166" lon="-4.251344036310911">
        <ele>150.58000000000001</ele>
        <time>2018-07-06T16:01:55Z</time>
      </trkpt>
      <trkpt lat="48.037597015500069" lon="-4.251322997733951">
        <ele>150.09999999999999</ele>
        <time>2018-07-06T16:01:56Z</time>
      </trkpt>
      <trkpt lat="48.037633979693055" lon="-4.251194000244141">
        <ele>150.09999999999999</ele>
        <time>2018-07-06T16:01:57Z</time>
      </trkpt>
      <trkpt lat="48.037586035206914" lon="-4.251091992482543">
        <ele>150.09999999999999</ele>
        <time>2018-07-06T16:01:58Z</time>
      </trkpt>
      <trkpt lat="48.037519985809922" lon="-4.25095503218472">
        <ele>150.09999999999999</ele>
        <time>2018-07-06T16:01:59Z</time>
      </trkpt>
      <trkpt lat="48.037447985261679" lon="-4.25080499611795">
        <ele>150.09999999999999</ele>
        <time>2018-07-06T16:02:00Z</time>
      </trkpt>
      <trkpt lat="48.036689003929496" lon="-4.24921796657145">
        <ele>149.62</ele>
        <time>2018-07-06T16:02:08Z</time>
      </trkpt>
      <trkpt lat="48.035648977383971" lon="-4.246910009533167">
        <ele>154.91</ele>
        <time>2018-07-06T16:02:18Z</time>
      </trkpt>
      <trkpt lat="48.03495797328651" lon="-4.244807995855808">
        <ele>152.03</ele>
        <time>2018-07-06T16:02:28Z</time>
      </trkpt>
      <trkpt lat="48.03420502692461" lon="-4.242431977763772">
        <ele>147.22</ele>
        <time>2018-07-06T16:02:38Z</time>
      </trkpt>
      <trkpt lat="48.033919036388397" lon="-4.241712978109717">
        <ele>146.74000000000001</ele>
        <time>2018-07-06T16:02:41Z</time>
      </trkpt>
      <trkpt lat="48.033807976171374" lon="-4.241489013656974">
        <ele>146.25999999999999</ele>
        <time>2018-07-06T16:02:42Z</time>
      </trkpt>
      <trkpt lat="48.033686019480228" lon="-4.241259014233947">
        <ele>146.25999999999999</ele>
        <time>2018-07-06T16:02:43Z</time>
      </trkpt>
      <trkpt lat="48.033546963706613" lon="-4.241096992045641">
        <ele>146.25999999999999</ele>
        <time>2018-07-06T16:02:44Z</time>
      </trkpt>
      <trkpt lat="48.033400028944016" lon="-4.240928012877703">
        <ele>146.25999999999999</ele>
        <time>2018-07-06T16:02:45Z</time>
      </trkpt>
      <trkpt lat="48.033245969563723" lon="-4.240759033709765">
        <ele>146.25999999999999</ele>
        <time>2018-07-06T16:02:46Z</time>
      </trkpt>
      <trkpt lat="48.033080007880926" lon="-4.240616038441658">
        <ele>146.25999999999999</ele>
        <time>2018-07-06T16:02:47Z</time>
      </trkpt>
      <trkpt lat="48.03164997138083" lon="-4.239101009443402">
        <ele>145.30000000000001</ele>
        <time>2018-07-06T16:02:56Z</time>
      </trkpt>
      <trkpt lat="48.030492011457682" lon="-4.237147020176053">
        <ele>148.66</ele>
        <time>2018-07-06T16:03:05Z</time>
      </trkpt>
      <trkpt lat="48.029878959059715" lon="-4.235253967344761">
        <ele>145.30000000000001</ele>
        <time>2018-07-06T16:03:12Z</time>
      </trkpt>
      <trkpt lat="48.029081001877785" lon="-4.232465978711844">
        <ele>135.68000000000001</ele>
        <time>2018-07-06T16:03:22Z</time>
      </trkpt>
      <trkpt lat="48.028181958943605" lon="-4.230434959754348">
        <ele>130.88</ele>
        <time>2018-07-06T16:03:30Z</time>
      </trkpt>
      <trkpt lat="48.026442965492606" lon="-4.228152986615896">
        <ele>135.19999999999999</ele>
        <time>2018-07-06T16:03:42Z</time>
      </trkpt>
      <trkpt lat="48.024744037538767" lon="-4.226092966273427">
        <ele>142.88999999999999</ele>
        <time>2018-07-06T16:03:54Z</time>
      </trkpt>
      <trkpt lat="48.022986017167568" lon="-4.224481964483857">
        <ele>147.69999999999999</ele>
        <time>2018-07-06T16:04:05Z</time>
      </trkpt>
      <trkpt lat="48.021110985428095" lon="-4.223293997347355">
        <ele>150.58000000000001</ele>
        <time>2018-07-06T16:04:15Z</time>
      </trkpt>
      <trkpt lat="48.019872978329659" lon="-4.221836971119046">
        <ele>152.03</ele>
        <time>2018-07-06T16:04:23Z</time>
      </trkpt>
      <trkpt lat="48.018262982368469" lon="-4.219291973859072">
        <ele>150.09999999999999</ele>
        <time>2018-07-06T16:04:35Z</time>
      </trkpt>
      <trkpt lat="48.017159001901746" lon="-4.217199012637138">
        <ele>148.18000000000001</ele>
        <time>2018-07-06T16:04:43Z</time>
      </trkpt>
      <trkpt lat="48.015860980376601" lon="-4.214510014280677">
        <ele>145.78</ele>
        <time>2018-07-06T16:04:53Z</time>
      </trkpt>
      <trkpt lat="48.015048019587994" lon="-4.212389979511499">
        <ele>147.69999999999999</ele>
        <time>2018-07-06T16:05:01Z</time>
      </trkpt>
      <trkpt lat="48.014236986637115" lon="-4.209501994773746">
        <ele>152.03</ele>
        <time>2018-07-06T16:05:11Z</time>
      </trkpt>
      <trkpt lat="48.013584958389401" lon="-4.205987965688109">
        <ele>153.47</ele>
        <time>2018-07-06T16:05:22Z</time>
      </trkpt>
      <trkpt lat="48.012917004525661" lon="-4.202617015689611">
        <ele>154.43000000000001</ele>
        <time>2018-07-06T16:05:33Z</time>
      </trkpt>
      <trkpt lat="48.012362038716674" lon="-4.200010998174548">
        <ele>152.99000000000001</ele>
        <time>2018-07-06T16:05:43Z</time>
      </trkpt>
      <trkpt lat="48.012044029310346" lon="-4.198439978063107">
        <ele>152.03</ele>
        <time>2018-07-06T16:05:51Z</time>
      </trkpt>
      <trkpt lat="48.011833978816867" lon="-4.197729025036097">
        <ele>150.58000000000001</ele>
        <time>2018-07-06T16:05:57Z</time>
      </trkpt>
      <trkpt lat="48.011807994917035" lon="-4.197665993124247">
        <ele>150.58000000000001</ele>
        <time>2018-07-06T16:05:58Z</time>
      </trkpt>
      <trkpt lat="48.011777987703681" lon="-4.197592986747623">
        <ele>150.58000000000001</ele>
        <time>2018-07-06T16:05:59Z</time>
      </trkpt>
      <trkpt lat="48.011641027405858" lon="-4.197462983429432">
        <ele>150.09999999999999</ele>
        <time>2018-07-06T16:06:01Z</time>
      </trkpt>
      <trkpt lat="48.011574978008866" lon="-4.19734999537468">
        <ele>150.09999999999999</ele>
        <time>2018-07-06T16:06:02Z</time>
      </trkpt>
      <trkpt lat="48.011545976623893" lon="-4.197184033691883">
        <ele>150.09999999999999</ele>
        <time>2018-07-06T16:06:03Z</time>
      </trkpt>
      <trkpt lat="48.011556034907699" lon="-4.197032991796732">
        <ele>150.58000000000001</ele>
        <time>2018-07-06T16:06:04Z</time>
      </trkpt>
      <trkpt lat="48.011562991887331" lon="-4.196927966549993">
        <ele>151.06</ele>
        <time>2018-07-06T16:06:05Z</time>
      </trkpt>
      <trkpt lat="48.011637004092336" lon="-4.196708025410771">
        <ele>151.06</ele>
        <time>2018-07-06T16:06:06Z</time>
      </trkpt>
      <trkpt lat="48.011605991050601" lon="-4.196541979908943">
        <ele>151.06</ele>
        <time>2018-07-06T16:06:07Z</time>
      </trkpt>
      <trkpt lat="48.011545976623893" lon="-4.19638398103416">
        <ele>151.06</ele>
        <time>2018-07-06T16:06:08Z</time>
      </trkpt>
      <trkpt lat="48.01147498190403" lon="-4.196197986602783">
        <ele>151.06</ele>
        <time>2018-07-06T16:06:09Z</time>
      </trkpt>
      <trkpt lat="48.011393006891012" lon="-4.195985002443194">
        <ele>150.58000000000001</ele>
        <time>2018-07-06T16:06:10Z</time>
      </trkpt>
      <trkpt lat="48.011038033291698" lon="-4.194157999008894">
        <ele>150.58000000000001</ele>
        <time>2018-07-06T16:06:16Z</time>
      </trkpt>
      <trkpt lat="48.010464962571859" lon="-4.190575992688537">
        <ele>155.38999999999999</ele>
        <time>2018-07-06T16:06:26Z</time>
      </trkpt>
      <trkpt lat="48.01003597676754" lon="-4.186729034408927">
        <ele>154.43000000000001</ele>
        <time>2018-07-06T16:06:37Z</time>
      </trkpt>
      <trkpt lat="48.009582012891769" lon="-4.183436958119273">
        <ele>148.18000000000001</ele>
        <time>2018-07-06T16:06:46Z</time>
      </trkpt>
      <trkpt lat="48.008754970505834" lon="-4.180478984490037">
        <ele>136.16</ele>
        <time>2018-07-06T16:06:55Z</time>
      </trkpt>
      <trkpt lat="48.007530961185694" lon="-4.177508018910885">
        <ele>125.11</ele>
        <time>2018-07-06T16:07:06Z</time>
      </trkpt>
      <trkpt lat="48.006665026769042" lon="-4.175507007166743">
        <ele>118.38</ele>
        <time>2018-07-06T16:07:14Z</time>
      </trkpt>
      <trkpt lat="48.006569975987077" lon="-4.175251023843885">
        <ele>117.42</ele>
        <time>2018-07-06T16:07:15Z</time>
      </trkpt>
      <trkpt lat="48.006521025672555" lon="-4.175019012764096">
        <ele>116.94</ele>
        <time>2018-07-06T16:07:16Z</time>
      </trkpt>
      <trkpt lat="48.006435027346015" lon="-4.174374025315046">
        <ele>115.5</ele>
        <time>2018-07-06T16:07:18Z</time>
      </trkpt>
      <trkpt lat="48.006408037617803" lon="-4.174068002030253">
        <ele>114.53</ele>
        <time>2018-07-06T16:07:19Z</time>
      </trkpt>
      <trkpt lat="48.006394039839506" lon="-4.17375803925097">
        <ele>114.05</ele>
        <time>2018-07-06T16:07:20Z</time>
      </trkpt>
      <trkpt lat="48.006398985162377" lon="-4.173452015966177">
        <ele>113.56999999999999</ele>
        <time>2018-07-06T16:07:21Z</time>
      </trkpt>
      <trkpt lat="48.006405020132661" lon="-4.173150015994906">
        <ele>113.09</ele>
        <time>2018-07-06T16:07:22Z</time>
      </trkpt>
      <trkpt lat="48.006429998204112" lon="-4.171639010310173">
        <ele>110.69</ele>
        <time>2018-07-06T16:07:27Z</time>
      </trkpt>
      <trkpt lat="48.006435027346015" lon="-4.171371962875128">
        <ele>110.20999999999999</ele>
        <time>2018-07-06T16:07:28Z</time>
      </trkpt>
      <trkpt lat="48.00616797991097" lon="-4.1693149600178">
        <ele>105.40000000000001</ele>
        <time>2018-07-06T16:07:35Z</time>
      </trkpt>
      <trkpt lat="48.006105031818151" lon="-4.169061994180083">
        <ele>104.92</ele>
        <time>2018-07-06T16:07:36Z</time>
      </trkpt>
      <trkpt lat="48.006023978814483" lon="-4.168799975886941">
        <ele>104.44</ele>
        <time>2018-07-06T16:07:37Z</time>
      </trkpt>
      <trkpt lat="48.005940997973084" lon="-4.168555978685617">
        <ele>103.48</ele>
        <time>2018-07-06T16:07:38Z</time>
      </trkpt>
      <trkpt lat="48.005830021575093" lon="-4.168321033939719">
        <ele>103</ele>
        <time>2018-07-06T16:07:39Z</time>
      </trkpt>
      <trkpt lat="48.005707981064916" lon="-4.168114000931382">
        <ele>102.04000000000001</ele>
        <time>2018-07-06T16:07:40Z</time>
      </trkpt>
      <trkpt lat="48.005571020767093" lon="-4.167907973751426">
        <ele>101.08</ele>
        <time>2018-07-06T16:07:41Z</time>
      </trkpt>
      <trkpt lat="48.005434982478619" lon="-4.167704964056611">
        <ele>100.11</ele>
        <time>2018-07-06T16:07:42Z</time>
      </trkpt>
      <trkpt lat="48.004769962280989" lon="-4.166612969711423">
        <ele>96.75</ele>
        <time>2018-07-06T16:07:47Z</time>
      </trkpt>
      <trkpt lat="48.004443990066648" lon="-4.165495997294784">
        <ele>93.390000000000001</ele>
        <time>2018-07-06T16:07:51Z</time>
      </trkpt>
      <trkpt lat="48.004386993125081" lon="-4.16520799510181">
        <ele>92.420000000000002</ele>
        <time>2018-07-06T16:07:52Z</time>
      </trkpt>
      <trkpt lat="48.004037970677018" lon="-4.162552021443844">
        <ele>85.689999999999998</ele>
        <time>2018-07-06T16:08:01Z</time>
      </trkpt>
      <trkpt lat="48.004007963463664" lon="-4.162274999544025">
        <ele>85.209999999999994</ele>
        <time>2018-07-06T16:08:02Z</time>
      </trkpt>
      <trkpt lat="48.003977034240961" lon="-4.162010969594121">
        <ele>84.25</ele>
        <time>2018-07-06T16:08:03Z</time>
      </trkpt>
      <trkpt lat="48.003684002906084" lon="-4.159697983413935">
        <ele>80.890000000000001</ele>
        <time>2018-07-06T16:08:12Z</time>
      </trkpt>
      <trkpt lat="48.003635974600911" lon="-4.159458009526134">
        <ele>80.890000000000001</ele>
        <time>2018-07-06T16:08:13Z</time>
      </trkpt>
      <trkpt lat="48.003546036779881" lon="-4.159234967082739">
        <ele>80.409999999999997</ele>
        <time>2018-07-06T16:08:14Z</time>
      </trkpt>
      <trkpt lat="48.003445034846663" lon="-4.159026006236672">
        <ele>79.930000000000007</ele>
        <time>2018-07-06T16:08:15Z</time>
      </trkpt>
      <trkpt lat="48.00333296880126" lon="-4.158826014027">
        <ele>79.930000000000007</ele>
        <time>2018-07-06T16:08:16Z</time>
      </trkpt>
      <trkpt lat="48.003193996846676" lon="-4.15867798961699">
        <ele>79.450000000000003</ele>
        <time>2018-07-06T16:08:17Z</time>
      </trkpt>
      <trkpt lat="48.003058964386582" lon="-4.158533988520503">
        <ele>78.969999999999999</ele>
        <time>2018-07-06T16:08:18Z</time>
      </trkpt>
      <trkpt lat="48.002910017967224" lon="-4.158413959667087">
        <ele>78.480000000000004</ele>
        <time>2018-07-06T16:08:19Z</time>
      </trkpt>
      <trkpt lat="48.002767022699118" lon="-4.158303989097476">
        <ele>78.480000000000004</ele>
        <time>2018-07-06T16:08:20Z</time>
      </trkpt>
      <trkpt lat="48.002224965021014" lon="-4.157767966389656">
        <ele>79.450000000000003</ele>
        <time>2018-07-06T16:08:25Z</time>
      </trkpt>
      <trkpt lat="48.002074006944895" lon="-4.157589012756944">
        <ele>79.930000000000007</ele>
        <time>2018-07-06T16:08:27Z</time>
      </trkpt>
      <trkpt lat="48.002008041366935" lon="-4.157510977238417">
        <ele>79.930000000000007</ele>
        <time>2018-07-06T16:08:28Z</time>
      </trkpt>
      <trkpt lat="48.001864962279797" lon="-4.157574009150267">
        <ele>79.930000000000007</ele>
        <time>2018-07-06T16:08:29Z</time>
      </trkpt>
      <trkpt lat="48.001674022525549" lon="-4.157578032463789">
        <ele>80.890000000000001</ele>
        <time>2018-07-06T16:08:31Z</time>
      </trkpt>
      <trkpt lat="48.001587018370628" lon="-4.15753897279501">
        <ele>81.849999999999994</ele>
        <time>2018-07-06T16:08:32Z</time>
      </trkpt>
      <trkpt lat="48.001481993123889" lon="-4.157416010275483">
        <ele>82.810000000000002</ele>
        <time>2018-07-06T16:08:33Z</time>
      </trkpt>
      <trkpt lat="48.001432958990335" lon="-4.157296987250447">
        <ele>83.290000000000006</ele>
        <time>2018-07-06T16:08:34Z</time>
      </trkpt>
      <trkpt lat="48.001403035596013" lon="-4.157119039446116">
        <ele>84.25</ele>
        <time>2018-07-06T16:08:35Z</time>
      </trkpt>
      <trkpt lat="48.001430025324225" lon="-4.156919969245791">
        <ele>84.730000000000004</ele>
        <time>2018-07-06T16:08:36Z</time>
      </trkpt>
      <trkpt lat="48.001481993123889" lon="-4.156816033646464">
        <ele>85.689999999999998</ele>
        <time>2018-07-06T16:08:37Z</time>
      </trkpt>
      <trkpt lat="48.001533960923553" lon="-4.156711008399725">
        <ele>86.180000000000007</ele>
        <time>2018-07-06T16:08:38Z</time>
      </trkpt>
      <trkpt lat="48.001646026968956" lon="-4.156648982316256">
        <ele>86.659999999999997</ele>
        <time>2018-07-06T16:08:39Z</time>
      </trkpt>
      <trkpt lat="48.001734958961606" lon="-4.156609000638127">
        <ele>87.140000000000001</ele>
        <time>2018-07-06T16:08:40Z</time>
      </trkpt>
      <trkpt lat="48.001775024458766" lon="-4.156481008976698">
        <ele>88.099999999999994</ele>
        <time>2018-07-06T16:08:41Z</time>
      </trkpt>
      <trkpt lat="48.001811988651752" lon="-4.156360980123282">
        <ele>88.579999999999998</ele>
        <time>2018-07-06T16:08:42Z</time>
      </trkpt>
      <trkpt lat="48.00180695950985" lon="-4.156242040917277">
        <ele>89.540000000000006</ele>
        <time>2018-07-06T16:08:43Z</time>
      </trkpt>
      <trkpt lat="48.00178399309516" lon="-4.156106002628803">
        <ele>90.019999999999996</ele>
        <time>2018-07-06T16:08:44Z</time>
      </trkpt>
      <trkpt lat="48.001720039173961" lon="-4.155981028452516">
        <ele>90.5</ele>
        <time>2018-07-06T16:08:45Z</time>
      </trkpt>
      <trkpt lat="48.00163596868515" lon="-4.155849013477564">
        <ele>90.980000000000004</ele>
        <time>2018-07-06T16:08:46Z</time>
      </trkpt>
      <trkpt lat="48.001093994826078" lon="-4.15500202216208">
        <ele>93.390000000000001</ele>
        <time>2018-07-06T16:08:51Z</time>
      </trkpt>
      <trkpt lat="48.001004979014397" lon="-4.154763976112008">
        <ele>94.349999999999994</ele>
        <time>2018-07-06T16:08:52Z</time>
      </trkpt>
      <trkpt lat="48.000932978466153" lon="-4.154516039416194">
        <ele>95.310000000000002</ele>
        <time>2018-07-06T16:08:53Z</time>
      </trkpt>
      <trkpt lat="48.00090498290956" lon="-4.154261983931065">
        <ele>95.790000000000006</ele>
        <time>2018-07-06T16:08:54Z</time>
      </trkpt>
      <trkpt lat="48.000891990959644" lon="-4.154017986729741">
        <ele>96.75</ele>
        <time>2018-07-06T16:08:55Z</time>
      </trkpt>
      <trkpt lat="48.000884028151631" lon="-4.153792010620236">
        <ele>97.230000000000004</ele>
        <time>2018-07-06T16:08:56Z</time>
      </trkpt>
      <trkpt lat="48.000868018716574" lon="-4.153382973745465">
        <ele>98.670000000000002</ele>
        <time>2018-07-06T16:08:58Z</time>
      </trkpt>
      <trkpt lat="48.000770034268498" lon="-4.152230964973569">
        <ele>102.52</ele>
        <time>2018-07-06T16:09:06Z</time>
      </trkpt>
      <trkpt lat="48.000717982649803" lon="-4.152127029374242">
        <ele>102.04000000000001</ele>
        <time>2018-07-06T16:09:07Z</time>
      </trkpt>
      <trkpt lat="48.000684035941958" lon="-4.15205997414887">
        <ele>101.56</ele>
        <time>2018-07-06T16:09:08Z</time>
      </trkpt>
      <trkpt lat="48.000613963231444" lon="-4.152000965550542">
        <ele>100.59999999999999</ele>
        <time>2018-07-06T16:09:09Z</time>
      </trkpt>
      <trkpt lat="48.000555960461497" lon="-4.151885965839028">
        <ele>100.59999999999999</ele>
        <time>2018-07-06T16:09:10Z</time>
      </trkpt>
      <trkpt lat="48.000555960461497" lon="-4.151800973340869">
        <ele>100.59999999999999</ele>
        <time>2018-07-06T16:09:11Z</time>
      </trkpt>
      <trkpt lat="48.000572975724936" lon="-4.151697959750891">
        <ele>100.11</ele>
        <time>2018-07-06T16:09:12Z</time>
      </trkpt>
      <trkpt lat="48.000606000423431" lon="-4.151621013879776">
        <ele>100.11</ele>
        <time>2018-07-06T16:09:13Z</time>
      </trkpt>
      <trkpt lat="48.00062402151525" lon="-4.151526968926191">
        <ele>100.11</ele>
        <time>2018-07-06T16:09:14Z</time>
      </trkpt>
      <trkpt lat="48.000630978494883" lon="-4.151411969214678">
        <ele>100.11</ele>
        <time>2018-07-06T16:09:15Z</time>
      </trkpt>
      <trkpt lat="48.000641036778688" lon="-4.15124399587512">
        <ele>100.59999999999999</ele>
        <time>2018-07-06T16:09:16Z</time>
      </trkpt>
      <trkpt lat="48.000627039000392" lon="-4.151141988113523">
        <ele>101.08</ele>
        <time>2018-07-06T16:09:17Z</time>
      </trkpt>
      <trkpt lat="48.000607006251812" lon="-4.150993041694164">
        <ele>101.56</ele>
        <time>2018-07-06T16:09:18Z</time>
      </trkpt>
      <trkpt lat="48.000427968800068" lon="-4.149684961885214">
        <ele>103.95999999999999</ele>
        <time>2018-07-06T16:09:26Z</time>
      </trkpt>
      <trkpt lat="48.000385975465178" lon="-4.14954598993063">
        <ele>103.95999999999999</ele>
        <time>2018-07-06T16:09:27Z</time>
      </trkpt>
      <trkpt lat="48.000340964645147" lon="-4.149398971349001">
        <ele>103.95999999999999</ele>
        <time>2018-07-06T16:09:28Z</time>
      </trkpt>
      <trkpt lat="48.0002829618752" lon="-4.149296041578054">
        <ele>103.95999999999999</ele>
        <time>2018-07-06T16:09:29Z</time>
      </trkpt>
      <trkpt lat="48.000218002125621" lon="-4.149181041866541">
        <ele>103.48</ele>
        <time>2018-07-06T16:09:30Z</time>
      </trkpt>
      <trkpt lat="48.000152036547661" lon="-4.149065036326647">
        <ele>103.48</ele>
        <time>2018-07-06T16:09:31Z</time>
      </trkpt>
      <trkpt lat="48.000081041827798" lon="-4.148938972502947">
        <ele>103</ele>
        <time>2018-07-06T16:09:32Z</time>
      </trkpt>
      <trkpt lat="47.999846013262868" lon="-4.148610988631845">
        <ele>101.56</ele>
        <time>2018-07-06T16:09:35Z</time>
      </trkpt>
      <trkpt lat="47.99961400218308" lon="-4.148319968953729">
        <ele>100.59999999999999</ele>
        <time>2018-07-06T16:09:38Z</time>
      </trkpt>
      <trkpt lat="47.999519035220146" lon="-4.148288033902645">
        <ele>100.59999999999999</ele>
        <time>2018-07-06T16:09:39Z</time>
      </trkpt>
      <trkpt lat="47.999317031353712" lon="-4.148241011425853">
        <ele>100.11</ele>
        <time>2018-07-06T16:09:41Z</time>
      </trkpt>
      <trkpt lat="47.999256011098623" lon="-4.14810799062252">
        <ele>99.629999999999995</ele>
        <time>2018-07-06T16:09:42Z</time>
      </trkpt>
      <trkpt lat="47.999122990295291" lon="-4.147993996739388">
        <ele>99.150000000000006</ele>
        <time>2018-07-06T16:09:43Z</time>
      </trkpt>
      <trkpt lat="47.999016959220171" lon="-4.148009000346065">
        <ele>99.150000000000006</ele>
        <time>2018-07-06T16:09:44Z</time>
      </trkpt>
      <trkpt lat="47.998899025842547" lon="-4.148026015609503">
        <ele>98.189999999999998</ele>
        <time>2018-07-06T16:09:45Z</time>
      </trkpt>
      <trkpt lat="47.998365014791489" lon="-4.148005982860923">
        <ele>95.310000000000002</ele>
        <time>2018-07-06T16:09:49Z</time>
      </trkpt>
      <trkpt lat="47.99821799620986" lon="-4.147952003404498">
        <ele>94.349999999999994</ele>
        <time>2018-07-06T16:09:50Z</time>
      </trkpt>
      <trkpt lat="47.998065026476979" lon="-4.147888971492648">
        <ele>93.390000000000001</ele>
        <time>2018-07-06T16:09:51Z</time>
      </trkpt>
      <trkpt lat="47.997906021773815" lon="-4.147825017571449">
        <ele>92.420000000000002</ele>
        <time>2018-07-06T16:09:52Z</time>
      </trkpt>
      <trkpt lat="47.997759003192186" lon="-4.147724015638232">
        <ele>91.459999999999994</ele>
        <time>2018-07-06T16:09:53Z</time>
      </trkpt>
      <trkpt lat="47.997611984610558" lon="-4.147612033411861">
        <ele>90.5</ele>
        <time>2018-07-06T16:09:54Z</time>
      </trkpt>
      <trkpt lat="47.996691986918449" lon="-4.146842993795872">
        <ele>84.730000000000004</ele>
        <time>2018-07-06T16:10:01Z</time>
      </trkpt>
      <trkpt lat="47.996311029419303" lon="-4.146491959691048">
        <ele>82.329999999999998</ele>
        <time>2018-07-06T16:10:04Z</time>
      </trkpt>
      <trkpt lat="47.996042976155877" lon="-4.146245028823614">
        <ele>80.409999999999997</ele>
        <time>2018-07-06T16:10:06Z</time>
      </trkpt>
      <trkpt lat="47.995766960084438" lon="-4.145937999710441">
        <ele>78.969999999999999</ele>
        <time>2018-07-06T16:10:08Z</time>
      </trkpt>
      <trkpt lat="47.99480102956295" lon="-4.144363040104508">
        <ele>70.790000000000006</ele>
        <time>2018-07-06T16:10:16Z</time>
      </trkpt>
      <trkpt lat="47.994357040151954" lon="-4.14361503906548">
        <ele>67.430000000000007</ele>
        <time>2018-07-06T16:10:20Z</time>
      </trkpt>
      <trkpt lat="47.994250003248453" lon="-4.143432984128594">
        <ele>66.469999999999999</ele>
        <time>2018-07-06T16:10:21Z</time>
      </trkpt>
      <trkpt lat="47.993034962564707" lon="-4.141294006258249">
        <ele>61.18</ele>
        <time>2018-07-06T16:10:32Z</time>
      </trkpt>
      <trkpt lat="47.99256700091064" lon="-4.139740001410246">
        <ele>63.579999999999998</ele>
        <time>2018-07-06T16:10:40Z</time>
      </trkpt>
      <trkpt lat="47.992487037554383" lon="-4.139350997284055">
        <ele>64.069999999999993</ele>
        <time>2018-07-06T16:10:42Z</time>
      </trkpt>
      <trkpt lat="47.992196017876267" lon="-4.138518003746867">
        <ele>63.100000000000001</ele>
        <time>2018-07-06T16:10:48Z</time>
      </trkpt>
      <trkpt lat="47.992112031206489" lon="-4.138291021808982">
        <ele>63.579999999999998</ele>
        <time>2018-07-06T16:10:51Z</time>
      </trkpt>
      <trkpt lat="47.992100967094302" lon="-4.138262020424008">
        <ele>64.069999999999993</ele>
        <time>2018-07-06T16:10:52Z</time>
      </trkpt>
      <trkpt lat="47.991598974913359" lon="-4.13719198666513">
        <ele>64.069999999999993</ele>
        <time>2018-07-06T16:11:01Z</time>
      </trkpt>
      <trkpt lat="47.991228997707367" lon="-4.136328985914588">
        <ele>62.619999999999997</ele>
        <time>2018-07-06T16:11:08Z</time>
      </trkpt>
      <trkpt lat="47.991211982443929" lon="-4.136177022010088">
        <ele>62.619999999999997</ele>
        <time>2018-07-06T16:11:09Z</time>
      </trkpt>
      <trkpt lat="47.991201002150774" lon="-4.136028997600079">
        <ele>62.619999999999997</ele>
        <time>2018-07-06T16:11:10Z</time>
      </trkpt>
      <trkpt lat="47.991190021857619" lon="-4.135879967361689">
        <ele>63.100000000000001</ele>
        <time>2018-07-06T16:11:11Z</time>
      </trkpt>
      <trkpt lat="47.991179041564465" lon="-4.135729009285569">
        <ele>63.100000000000001</ele>
        <time>2018-07-06T16:11:12Z</time>
      </trkpt>
      <trkpt lat="47.99119203351438" lon="-4.135582996532321">
        <ele>63.579999999999998</ele>
        <time>2018-07-06T16:11:13Z</time>
      </trkpt>
      <trkpt lat="47.991204019635916" lon="-4.135434972122312">
        <ele>64.069999999999993</ele>
        <time>2018-07-06T16:11:14Z</time>
      </trkpt>
      <trkpt lat="47.991284988820553" lon="-4.134517991915345">
        <ele>66.469999999999999</ele>
        <time>2018-07-06T16:11:20Z</time>
      </trkpt>
      <trkpt lat="47.991253975778818" lon="-4.134359993040562">
        <ele>66.469999999999999</ele>
        <time>2018-07-06T16:11:21Z</time>
      </trkpt>
      <trkpt lat="47.991219023242593" lon="-4.134200988337398">
        <ele>66.469999999999999</ele>
        <time>2018-07-06T16:11:22Z</time>
      </trkpt>
      <trkpt lat="47.991179041564465" lon="-4.134013988077641">
        <ele>66.469999999999999</ele>
        <time>2018-07-06T16:11:23Z</time>
      </trkpt>
      <trkpt lat="47.991130007430911" lon="-4.133894965052605">
        <ele>66.950000000000003</ele>
        <time>2018-07-06T16:11:24Z</time>
      </trkpt>
      <trkpt lat="47.991068987175822" lon="-4.133749036118388">
        <ele>66.950000000000003</ele>
        <time>2018-07-06T16:11:25Z</time>
      </trkpt>
      <trkpt lat="47.991003021597862" lon="-4.133610986173153">
        <ele>66.950000000000003</ele>
        <time>2018-07-06T16:11:26Z</time>
      </trkpt>
      <trkpt lat="47.990923980250955" lon="-4.133494980633259">
        <ele>67.430000000000007</ele>
        <time>2018-07-06T16:11:27Z</time>
      </trkpt>
      <trkpt lat="47.990851979702711" lon="-4.133389033377171">
        <ele>67.430000000000007</ele>
        <time>2018-07-06T16:11:28Z</time>
      </trkpt>
      <trkpt lat="47.990463981404901" lon="-4.132814034819603">
        <ele>68.390000000000001</ele>
        <time>2018-07-06T16:11:36Z</time>
      </trkpt>
      <trkpt lat="47.990420982241631" lon="-4.132751002907753">
        <ele>68.870000000000005</ele>
        <time>2018-07-06T16:11:44Z</time>
      </trkpt>
      <trkpt lat="47.990214033052325" lon="-4.132445985451341">
        <ele>70.790000000000006</ele>
        <time>2018-07-06T16:12:01Z</time>
      </trkpt>
      <trkpt lat="47.990131974220276" lon="-4.132324028760195">
        <ele>70.790000000000006</ele>
        <time>2018-07-06T16:12:03Z</time>
      </trkpt>
      <trkpt lat="47.990041030570865" lon="-4.132190002128482">
        <ele>70.790000000000006</ele>
        <time>2018-07-06T16:12:05Z</time>
      </trkpt>
      <trkpt lat="47.989979004487395" lon="-4.132049018517137">
        <ele>70.790000000000006</ele>
        <time>2018-07-06T16:12:07Z</time>
      </trkpt>
      <trkpt lat="47.989919995889068" lon="-4.131966959685087">
        <ele>70.790000000000006</ele>
        <time>2018-07-06T16:12:08Z</time>
      </trkpt>
      <trkpt lat="47.989800972864032" lon="-4.13186201825738">
        <ele>70.790000000000006</ele>
        <time>2018-07-06T16:12:10Z</time>
      </trkpt>
      <trkpt lat="47.989750010892749" lon="-4.131783982738853">
        <ele>70.790000000000006</ele>
        <time>2018-07-06T16:12:11Z</time>
      </trkpt>
      <trkpt lat="47.989696031436324" lon="-4.131704019382596">
        <ele>70.790000000000006</ele>
        <time>2018-07-06T16:12:12Z</time>
      </trkpt>
      <trkpt lat="47.989528980106115" lon="-4.131471002474427">
        <ele>71.760000000000005</ele>
        <time>2018-07-06T16:12:15Z</time>
      </trkpt>
      <trkpt lat="47.989483969286084" lon="-4.131409982219338">
        <ele>72.239999999999995</ele>
        <time>2018-07-06T16:12:16Z</time>
      </trkpt>
      <trkpt lat="47.989445999264717" lon="-4.131358014419675">
        <ele>72.719999999999999</ele>
        <time>2018-07-06T16:12:17Z</time>
      </trkpt>
      <trkpt lat="47.98932496458292" lon="-4.131190041080117">
        <ele>74.159999999999997</ele>
        <time>2018-07-06T16:12:21Z</time>
      </trkpt>
      <trkpt lat="47.989289006218314" lon="-4.131136983633041">
        <ele>75.120000000000005</ele>
        <time>2018-07-06T16:12:22Z</time>
      </trkpt>
      <trkpt lat="47.989251036196947" lon="-4.131078980863094">
        <ele>75.599999999999994</ele>
        <time>2018-07-06T16:12:23Z</time>
      </trkpt>
      <trkpt lat="47.98910896293819" lon="-4.130867002531886">
        <ele>76.560000000000002</ele>
        <time>2018-07-06T16:12:26Z</time>
      </trkpt>
      <trkpt lat="47.989050038158894" lon="-4.130784021690488">
        <ele>76.560000000000002</ele>
        <time>2018-07-06T16:12:27Z</time>
      </trkpt>
      <trkpt lat="47.988989017903805" lon="-4.130706992000341">
        <ele>76.560000000000002</ele>
        <time>2018-07-06T16:12:28Z</time>
      </trkpt>
      <trkpt lat="47.988933026790619" lon="-4.130637003108859">
        <ele>76.560000000000002</ele>
        <time>2018-07-06T16:12:29Z</time>
      </trkpt>
      <trkpt lat="47.988879969343543" lon="-4.130570031702519">
        <ele>76.560000000000002</ele>
        <time>2018-07-06T16:12:30Z</time>
      </trkpt>
      <trkpt lat="47.98882800154388" lon="-4.130503982305527">
        <ele>76.560000000000002</ele>
        <time>2018-07-06T16:12:31Z</time>
      </trkpt>
      <trkpt lat="47.98857000656426" lon="-4.130217991769314">
        <ele>75.120000000000005</ele>
        <time>2018-07-06T16:12:39Z</time>
      </trkpt>
      <trkpt lat="47.988505968824029" lon="-4.130164012312889">
        <ele>75.120000000000005</ele>
        <time>2018-07-06T16:12:49Z</time>
      </trkpt>
      <trkpt lat="47.988290973007679" lon="-4.130006013438106">
        <ele>74.640000000000001</ele>
        <time>2018-07-06T16:12:53Z</time>
      </trkpt>
      <trkpt lat="47.98824897967279" lon="-4.129982041195035">
        <ele>74.640000000000001</ele>
        <time>2018-07-06T16:12:54Z</time>
      </trkpt>
      <trkpt lat="47.988218972459435" lon="-4.129964020103216">
        <ele>74.640000000000001</ele>
        <time>2018-07-06T16:12:55Z</time>
      </trkpt>
      <trkpt lat="47.988160969689488" lon="-4.12992998957634">
        <ele>73.200000000000003</ele>
        <time>2018-07-06T16:13:07Z</time>
      </trkpt>
      <trkpt lat="47.988089974969625" lon="-4.129891013726592">
        <ele>72.719999999999999</ele>
        <time>2018-07-06T16:13:10Z</time>
      </trkpt>
      <trkpt lat="47.987832985818386" lon="-4.129723962396383">
        <ele>71.760000000000005</ele>
        <time>2018-07-06T16:13:14Z</time>
      </trkpt>
      <trkpt lat="47.987767020240426" lon="-4.129657996818423">
        <ele>71.760000000000005</ele>
        <time>2018-07-06T16:13:15Z</time>
      </trkpt>
      <trkpt lat="47.987719997763634" lon="-4.129578033462167">
        <ele>71.269999999999996</ele>
        <time>2018-07-06T16:13:16Z</time>
      </trkpt>
      <trkpt lat="47.987686973065138" lon="-4.12950100377202">
        <ele>71.269999999999996</ele>
        <time>2018-07-06T16:13:17Z</time>
      </trkpt>
      <trkpt lat="47.987656965851784" lon="-4.129432020708919">
        <ele>71.269999999999996</ele>
        <time>2018-07-06T16:13:18Z</time>
      </trkpt>
      <trkpt lat="47.987555963918567" lon="-4.129202021285892">
        <ele>69.829999999999998</ele>
        <time>2018-07-06T16:13:26Z</time>
      </trkpt>
      <trkpt lat="47.987535009160638" lon="-4.129151981323957">
        <ele>69.829999999999998</ele>
        <time>2018-07-06T16:13:35Z</time>
      </trkpt>
      <trkpt lat="47.9875179938972" lon="-4.129104036837816">
        <ele>70.310000000000002</ele>
        <time>2018-07-06T16:13:36Z</time>
      </trkpt>
      <trkpt lat="47.987308027222753" lon="-4.128562984988093">
        <ele>69.829999999999998</ele>
        <time>2018-07-06T16:13:44Z</time>
      </trkpt>
      <trkpt lat="47.987273996695876" lon="-4.128500958904624">
        <ele>69.349999999999994</ele>
        <time>2018-07-06T16:13:45Z</time>
      </trkpt>
      <trkpt lat="47.987212976440787" lon="-4.128388976678252">
        <ele>68.870000000000005</ele>
        <time>2018-07-06T16:13:47Z</time>
      </trkpt>
      <trkpt lat="47.987181963399053" lon="-4.128331979736686">
        <ele>68.390000000000001</ele>
        <time>2018-07-06T16:13:48Z</time>
      </trkpt>
      <trkpt lat="47.98715497367084" lon="-4.128281017765403">
        <ele>67.430000000000007</ele>
        <time>2018-07-06T16:13:49Z</time>
      </trkpt>
      <trkpt lat="47.98713100142777" lon="-4.128267019987106">
        <ele>66.950000000000003</ele>
        <time>2018-07-06T16:13:50Z</time>
      </trkpt>
      <trkpt lat="47.987094959244132" lon="-4.128279006108642">
        <ele>66.469999999999999</ele>
        <time>2018-07-06T16:13:51Z</time>
      </trkpt>
      <trkpt lat="47.987056989222765" lon="-4.128312030807138">
        <ele>65.989999999999995</ele>
        <time>2018-07-06T16:13:52Z</time>
      </trkpt>
      <trkpt lat="47.987012984231114" lon="-4.128363998606801">
        <ele>65.510000000000005</ele>
        <time>2018-07-06T16:13:53Z</time>
      </trkpt>
      <trkpt lat="47.986965961754322" lon="-4.128420995548368">
        <ele>65.030000000000001</ele>
        <time>2018-07-06T16:13:54Z</time>
      </trkpt>
      <trkpt lat="47.986366990953684" lon="-4.129133960232139">
        <ele>59.740000000000002</ele>
        <time>2018-07-06T16:14:01Z</time>
      </trkpt>
      <trkpt lat="47.985558975487947" lon="-4.1299510281533">
        <ele>55.409999999999997</ele>
        <time>2018-07-06T16:14:07Z</time>
      </trkpt>
      <trkpt lat="47.985078021883965" lon="-4.130266020074487">
        <ele>53.969999999999999</ele>
        <time>2018-07-06T16:14:10Z</time>
      </trkpt>
      <trkpt lat="47.984709972515702" lon="-4.130374984815717">
        <ele>53.009999999999998</ele>
        <time>2018-07-06T16:14:12Z</time>
      </trkpt>
      <trkpt lat="47.984521966427565" lon="-4.13040298037231">
        <ele>52.049999999999997</ele>
        <time>2018-07-06T16:14:13Z</time>
      </trkpt>
      <trkpt lat="47.984341001138091" lon="-4.130364004522562">
        <ele>51.57</ele>
        <time>2018-07-06T16:14:14Z</time>
      </trkpt>
      <trkpt lat="47.984161963686347" lon="-4.130324022844434">
        <ele>50.609999999999999</ele>
        <time>2018-07-06T16:14:15Z</time>
      </trkpt>
      <trkpt lat="47.983984015882015" lon="-4.130285969004035">
        <ele>49.649999999999999</ele>
        <time>2018-07-06T16:14:16Z</time>
      </trkpt>
      <trkpt lat="47.983805984258652" lon="-4.130216985940933">
        <ele>48.68</ele>
        <time>2018-07-06T16:14:17Z</time>
      </trkpt>
      <trkpt lat="47.983652008697391" lon="-4.130100980401039">
        <ele>47.719999999999999</ele>
        <time>2018-07-06T16:14:18Z</time>
      </trkpt>
      <trkpt lat="47.98349903896451" lon="-4.129986986517906">
        <ele>46.759999999999998</ele>
        <time>2018-07-06T16:14:19Z</time>
      </trkpt>
      <trkpt lat="47.983351014554501" lon="-4.12984499707818">
        <ele>45.32</ele>
        <time>2018-07-06T16:14:20Z</time>
      </trkpt>
      <trkpt lat="47.983214976266026" lon="-4.129691021516919">
        <ele>44.359999999999999</ele>
        <time>2018-07-06T16:14:21Z</time>
      </trkpt>
      <trkpt lat="47.983080027624965" lon="-4.129538973793387">
        <ele>42.920000000000002</ele>
        <time>2018-07-06T16:14:22Z</time>
      </trkpt>
      <trkpt lat="47.98145703971386" lon="-4.127453975379467">
        <ele>28.02</ele>
        <time>2018-07-06T16:14:34Z</time>
      </trkpt>
      <trkpt lat="47.980148959904909" lon="-4.125477019697428">
        <ele>13.119999999999999</ele>
        <time>2018-07-06T16:14:44Z</time>
      </trkpt>
      <trkpt lat="47.979863975197077" lon="-4.124603038653731">
        <ele>10.23</ele>
        <time>2018-07-06T16:14:48Z</time>
      </trkpt>
      <trkpt lat="47.979785017669201" lon="-4.123165039345622">
        <ele>9.27</ele>
        <time>2018-07-06T16:14:55Z</time>
      </trkpt>
      <trkpt lat="47.979785017669201" lon="-4.123060014098883">
        <ele>8.789999999999999</ele>
        <time>2018-07-06T16:14:56Z</time>
      </trkpt>
      <trkpt lat="47.979750987142324" lon="-4.122892962768674">
        <ele>8.789999999999999</ele>
        <time>2018-07-06T16:15:02Z</time>
      </trkpt>
      <trkpt lat="47.979742018505931" lon="-4.122865973040462">
        <ele>8.789999999999999</ele>
        <time>2018-07-06T16:15:26Z</time>
      </trkpt>
      <trkpt lat="47.979730032384396" lon="-4.122833032160997">
        <ele>9.27</ele>
        <time>2018-07-06T16:15:27Z</time>
      </trkpt>
      <trkpt lat="47.979699019342661" lon="-4.122748039662838">
        <ele>8.789999999999999</ele>
        <time>2018-07-06T16:15:28Z</time>
      </trkpt>
      <trkpt lat="47.979542026296258" lon="-4.122576965019107">
        <ele>7.83</ele>
        <time>2018-07-06T16:15:32Z</time>
      </trkpt>
      <trkpt lat="47.979492992162704" lon="-4.122498007491231">
        <ele>7.83</ele>
        <time>2018-07-06T16:15:33Z</time>
      </trkpt>
      <trkpt lat="47.979458039626479" lon="-4.122391976416111">
        <ele>8.310000000000001</ele>
        <time>2018-07-06T16:15:34Z</time>
      </trkpt>
      <trkpt lat="47.979448987171054" lon="-4.122267002239823">
        <ele>8.789999999999999</ele>
        <time>2018-07-06T16:15:35Z</time>
      </trkpt>
      <trkpt lat="47.979458039626479" lon="-4.122115038335323">
        <ele>8.789999999999999</ele>
        <time>2018-07-06T16:15:36Z</time>
      </trkpt>
      <trkpt lat="47.979496009647846" lon="-4.121989980340004">
        <ele>9.27</ele>
        <time>2018-07-06T16:15:37Z</time>
      </trkpt>
      <trkpt lat="47.979527022689581" lon="-4.121889984235168">
        <ele>9.75</ele>
        <time>2018-07-06T16:15:38Z</time>
      </trkpt>
      <trkpt lat="47.979606986045837" lon="-4.12176501005888">
        <ele>9.75</ele>
        <time>2018-07-06T16:15:39Z</time>
      </trkpt>
      <trkpt lat="47.97967697493732" lon="-4.121654033660889">
        <ele>9.75</ele>
        <time>2018-07-06T16:15:40Z</time>
      </trkpt>
      <trkpt lat="47.979759033769369" lon="-4.1215930134058">
        <ele>9.27</ele>
        <time>2018-07-06T16:15:41Z</time>
      </trkpt>
      <trkpt lat="47.980148959904909" lon="-4.121181964874268">
        <ele>8.310000000000001</ele>
        <time>2018-07-06T16:15:45Z</time>
      </trkpt>
      <trkpt lat="47.981391996145248" lon="-4.120327010750771">
        <ele>5.91</ele>
        <time>2018-07-06T16:15:54Z</time>
      </trkpt>
      <trkpt lat="47.982895961031318" lon="-4.11929402500391">
        <ele>5.42</ele>
        <time>2018-07-06T16:16:03Z</time>
      </trkpt>
      <trkpt lat="47.983197038993239" lon="-4.11899202503264">
        <ele>5.42</ele>
        <time>2018-07-06T16:16:05Z</time>
      </trkpt>
      <trkpt lat="47.983325030654669" lon="-4.11880100145936">
        <ele>5.42</ele>
        <time>2018-07-06T16:16:06Z</time>
      </trkpt>
      <trkpt lat="47.983432989567518" lon="-4.118577037006617">
        <ele>4.94</ele>
        <time>2018-07-06T16:16:07Z</time>
      </trkpt>
      <trkpt lat="47.983517982065678" lon="-4.11837100982666">
        <ele>5.42</ele>
        <time>2018-07-06T16:16:08Z</time>
      </trkpt>
      <trkpt lat="47.983601968735456" lon="-4.118105974048376">
        <ele>5.42</ele>
        <time>2018-07-06T16:16:09Z</time>
      </trkpt>
      <trkpt lat="47.983661983162165" lon="-4.117849990725517">
        <ele>5.91</ele>
        <time>2018-07-06T16:16:10Z</time>
      </trkpt>
      <trkpt lat="47.983698025345802" lon="-4.117582021281123">
        <ele>6.39</ele>
        <time>2018-07-06T16:16:11Z</time>
      </trkpt>
      <trkpt lat="47.983732977882028" lon="-4.117320002987981">
        <ele>6.87</ele>
        <time>2018-07-06T16:16:12Z</time>
      </trkpt>
      <trkpt lat="47.984098009765148" lon="-4.114800989627838">
        <ele>9.27</ele>
        <time>2018-07-06T16:16:22Z</time>
      </trkpt>
      <trkpt lat="47.984347036108375" lon="-4.113592989742756">
        <ele>8.789999999999999</ele>
        <time>2018-07-06T16:16:29Z</time>
      </trkpt>
      <trkpt lat="47.984336977824569" lon="-4.113463992252946">
        <ele>9.27</ele>
        <time>2018-07-06T16:16:30Z</time>
      </trkpt>
      <trkpt lat="47.984319962561131" lon="-4.113327031955123">
        <ele>9.27</ele>
        <time>2018-07-06T16:16:31Z</time>
      </trkpt>
      <trkpt lat="47.984298001974821" lon="-4.113189987838268">
        <ele>9.27</ele>
        <time>2018-07-06T16:16:32Z</time>
      </trkpt>
      <trkpt lat="47.984276041388512" lon="-4.113046992570162">
        <ele>8.789999999999999</ele>
        <time>2018-07-06T16:16:33Z</time>
      </trkpt>
      <trkpt lat="47.984218038618565" lon="-4.112917995080352">
        <ele>8.789999999999999</ele>
        <time>2018-07-06T16:16:34Z</time>
      </trkpt>
      <trkpt lat="47.984142014756799" lon="-4.1127859801054">
        <ele>8.789999999999999</ele>
        <time>2018-07-06T16:16:35Z</time>
      </trkpt>
      <trkpt lat="47.983365012332797" lon="-4.11147597245872">
        <ele>8.789999999999999</ele>
        <time>2018-07-06T16:16:43Z</time>
      </trkpt>
      <trkpt lat="47.982457000762224" lon="-4.110438041388989">
        <ele>8.789999999999999</ele>
        <time>2018-07-06T16:16:49Z</time>
      </trkpt>
      <trkpt lat="47.980938032269478" lon="-4.10900498740375">
        <ele>10.23</ele>
        <time>2018-07-06T16:16:58Z</time>
      </trkpt>
      <trkpt lat="47.98064399510622" lon="-4.108684966340661">
        <ele>11.19</ele>
        <time>2018-07-06T16:17:00Z</time>
      </trkpt>
      <trkpt lat="47.980393962934613" lon="-4.108295040205121">
        <ele>12.630000000000001</ele>
        <time>2018-07-06T16:17:02Z</time>
      </trkpt>
      <trkpt lat="47.98027996905148" lon="-4.108079038560391">
        <ele>12.630000000000001</ele>
        <time>2018-07-06T16:17:03Z</time>
      </trkpt>
      <trkpt lat="47.980196988210082" lon="-4.10784300416708">
        <ele>13.119999999999999</ele>
        <time>2018-07-06T16:17:04Z</time>
      </trkpt>
      <trkpt lat="47.979963971301913" lon="-4.107115035876632">
        <ele>14.08</ele>
        <time>2018-07-06T16:17:07Z</time>
      </trkpt>
      <trkpt lat="47.979928012937307" lon="-4.106855029240251">
        <ele>14.56</ele>
        <time>2018-07-06T16:17:08Z</time>
      </trkpt>
      <trkpt lat="47.979875961318612" lon="-4.106322024017572">
        <ele>15.039999999999999</ele>
        <time>2018-07-06T16:17:10Z</time>
      </trkpt>
      <trkpt lat="47.979860035702586" lon="-4.106057994067669">
        <ele>15.039999999999999</ele>
        <time>2018-07-06T16:17:11Z</time>
      </trkpt>
      <trkpt lat="47.980056004598737" lon="-4.103643000125885">
        <ele>15.52</ele>
        <time>2018-07-06T16:17:20Z</time>
      </trkpt>
      <trkpt lat="47.980268988758326" lon="-4.101032959297299">
        <ele>18.399999999999999</ele>
        <time>2018-07-06T16:17:30Z</time>
      </trkpt>
      <trkpt lat="47.980241999030113" lon="-4.099867036566138">
        <ele>19.84</ele>
        <time>2018-07-06T16:17:36Z</time>
      </trkpt>
      <trkpt lat="47.980176033452153" lon="-4.099438972771168">
        <ele>17.920000000000002</ele>
        <time>2018-07-06T16:17:43Z</time>
      </trkpt>
      <trkpt lat="47.980082994326949" lon="-4.098928011953831">
        <ele>18.399999999999999</ele>
        <time>2018-07-06T16:17:52Z</time>
      </trkpt>
      <trkpt lat="47.980008982121944" lon="-4.098548982292414">
        <ele>18.399999999999999</ele>
        <time>2018-07-06T16:17:58Z</time>
      </trkpt>
      <trkpt lat="47.979996996000409" lon="-4.098492991179228">
        <ele>17.920000000000002</ele>
        <time>2018-07-06T16:17:59Z</time>
      </trkpt>
      <trkpt lat="47.9798489715904" lon="-4.097750019282103">
        <ele>16.960000000000001</ele>
        <time>2018-07-06T16:18:11Z</time>
      </trkpt>
      <trkpt lat="47.979704970493913" lon="-4.097192035987973">
        <ele>16</ele>
        <time>2018-07-06T16:18:20Z</time>
      </trkpt>
      <trkpt lat="47.979690972715616" lon="-4.097135039046407">
        <ele>16</ele>
        <time>2018-07-06T16:18:21Z</time>
      </trkpt>
      <trkpt lat="47.979675969108939" lon="-4.097077958285809">
        <ele>15.52</ele>
        <time>2018-07-06T16:18:22Z</time>
      </trkpt>
      <trkpt lat="47.979661971330643" lon="-4.097023978829384">
        <ele>15.52</ele>
        <time>2018-07-06T16:18:23Z</time>
      </trkpt>
      <trkpt lat="47.979649985209107" lon="-4.096977040171623">
        <ele>15.039999999999999</ele>
        <time>2018-07-06T16:18:24Z</time>
      </trkpt>
      <trkpt lat="47.979637999087572" lon="-4.096931023523212">
        <ele>14.56</ele>
        <time>2018-07-06T16:18:25Z</time>
      </trkpt>
      <trkpt lat="47.979626012966037" lon="-4.096884001046419">
        <ele>14.08</ele>
        <time>2018-07-06T16:18:26Z</time>
      </trkpt>
      <trkpt lat="47.979493997991085" lon="-4.096368011087179">
        <ele>11.67</ele>
        <time>2018-07-06T16:18:34Z</time>
      </trkpt>
      <trkpt lat="47.979385033249855" lon="-4.09596199169755">
        <ele>10.23</ele>
        <time>2018-07-06T16:18:39Z</time>
      </trkpt>
      <trkpt lat="47.979368017986417" lon="-4.095900971442461">
        <ele>10.23</ele>
        <time>2018-07-06T16:18:40Z</time>
      </trkpt>
      <trkpt lat="47.979247989133" lon="-4.095485983416438">
        <ele>10.23</ele>
        <time>2018-07-06T16:18:47Z</time>
      </trkpt>
      <trkpt lat="47.979228040203452" lon="-4.095437033101916">
        <ele>11.19</ele>
        <time>2018-07-06T16:18:48Z</time>
      </trkpt>
      <trkpt lat="47.979171965271235" lon="-4.095295965671539">
        <ele>12.630000000000001</ele>
        <time>2018-07-06T16:18:51Z</time>
      </trkpt>
      <trkpt lat="47.979141036048532" lon="-4.095218013972044">
        <ele>13.119999999999999</ele>
        <time>2018-07-06T16:18:52Z</time>
      </trkpt>
      <trkpt lat="47.979020001366735" lon="-4.095082981511951">
        <ele>14.08</ele>
        <time>2018-07-06T16:18:54Z</time>
      </trkpt>
      <trkpt lat="47.978948000818491" lon="-4.094978962093592">
        <ele>14.08</ele>
        <time>2018-07-06T16:18:55Z</time>
      </trkpt>
      <trkpt lat="47.978883041068912" lon="-4.094815012067556">
        <ele>14.08</ele>
        <time>2018-07-06T16:18:56Z</time>
      </trkpt>
      <trkpt lat="47.978883041068912" lon="-4.094664976000786">
        <ele>14.56</ele>
        <time>2018-07-06T16:18:57Z</time>
      </trkpt>
      <trkpt lat="47.978911958634853" lon="-4.094477975741029">
        <ele>15.039999999999999</ele>
        <time>2018-07-06T16:18:58Z</time>
      </trkpt>
      <trkpt lat="47.978948000818491" lon="-4.094380997121334">
        <ele>15.039999999999999</ele>
        <time>2018-07-06T16:18:59Z</time>
      </trkpt>
      <trkpt lat="47.979068029671907" lon="-4.094233978539705">
        <ele>15.52</ele>
        <time>2018-07-06T16:19:00Z</time>
      </trkpt>
      <trkpt lat="47.979156039655209" lon="-4.094104981049895">
        <ele>16</ele>
        <time>2018-07-06T16:19:01Z</time>
      </trkpt>
      <trkpt lat="47.979213036596775" lon="-4.093948993831873">
        <ele>16</ele>
        <time>2018-07-06T16:19:02Z</time>
      </trkpt>
      <trkpt lat="47.979271961376071" lon="-4.093787977471948">
        <ele>16</ele>
        <time>2018-07-06T16:19:03Z</time>
      </trkpt>
      <trkpt lat="47.979301968589425" lon="-4.093593014404178">
        <ele>16.48</ele>
        <time>2018-07-06T16:19:04Z</time>
      </trkpt>
      <trkpt lat="47.979443036019802" lon="-4.09168797545135">
        <ele>19.359999999999999</ele>
        <time>2018-07-06T16:19:13Z</time>
      </trkpt>
      <trkpt lat="47.979627018794417" lon="-4.089714037254453">
        <ele>22.73</ele>
        <time>2018-07-06T16:19:21Z</time>
      </trkpt>
      <trkpt lat="47.979921977967024" lon="-4.086568979546428">
        <ele>28.5</ele>
        <time>2018-07-06T16:19:33Z</time>
      </trkpt>
      <trkpt lat="47.979993978515267" lon="-4.083914011716843">
        <ele>37.149999999999999</ele>
        <time>2018-07-06T16:19:43Z</time>
      </trkpt>
      <trkpt lat="47.980014011263847" lon="-4.081730023026466">
        <ele>46.759999999999998</ele>
        <time>2018-07-06T16:19:52Z</time>
      </trkpt>
      <trkpt lat="47.97997897490859" lon="-4.080889988690615">
        <ele>50.609999999999999</ele>
        <time>2018-07-06T16:19:56Z</time>
      </trkpt>
      <trkpt lat="47.979942010715604" lon="-4.080785969272256">
        <ele>51.57</ele>
        <time>2018-07-06T16:19:57Z</time>
      </trkpt>
      <trkpt lat="47.979894988238811" lon="-4.080684967339039">
        <ele>52.049999999999997</ele>
        <time>2018-07-06T16:19:58Z</time>
      </trkpt>
      <trkpt lat="47.97982701100409" lon="-4.080540966242552">
        <ele>52.049999999999997</ele>
        <time>2018-07-06T16:19:59Z</time>
      </trkpt>
      <trkpt lat="47.979757022112608" lon="-4.080494027584791">
        <ele>51.57</ele>
        <time>2018-07-06T16:20:00Z</time>
      </trkpt>
      <trkpt lat="47.979544037953019" lon="-4.080308033153415">
        <ele>51.57</ele>
        <time>2018-07-06T16:20:02Z</time>
      </trkpt>
      <trkpt lat="47.979476982727647" lon="-4.08014701679349">
        <ele>51.57</ele>
        <time>2018-07-06T16:20:03Z</time>
      </trkpt>
      <trkpt lat="47.979450998827815" lon="-4.079956999048591">
        <ele>51.57</ele>
        <time>2018-07-06T16:20:04Z</time>
      </trkpt>
      <trkpt lat="47.979447981342673" lon="-4.079780979081988">
        <ele>52.049999999999997</ele>
        <time>2018-07-06T16:20:05Z</time>
      </trkpt>
      <trkpt lat="47.979469019919634" lon="-4.079607976600528">
        <ele>52.530000000000001</ele>
        <time>2018-07-06T16:20:06Z</time>
      </trkpt>
      <trkpt lat="47.979470025748014" lon="-4.079406978562474">
        <ele>53.009999999999998</ele>
        <time>2018-07-06T16:20:07Z</time>
      </trkpt>
      <trkpt lat="47.979438006877899" lon="-4.079221989959478">
        <ele>53.490000000000002</ele>
        <time>2018-07-06T16:20:08Z</time>
      </trkpt>
      <trkpt lat="47.979402970522642" lon="-4.079020991921425">
        <ele>53.969999999999999</ele>
        <time>2018-07-06T16:20:09Z</time>
      </trkpt>
      <trkpt lat="47.979129971936345" lon="-4.077241010963917">
        <ele>57.340000000000003</ele>
        <time>2018-07-06T16:20:16Z</time>
      </trkpt>
      <trkpt lat="47.979066018015146" lon="-4.074810007587075">
        <ele>61.659999999999997</ele>
        <time>2018-07-06T16:20:23Z</time>
      </trkpt>
      <trkpt lat="47.97937598079443" lon="-4.071008982136846">
        <ele>65.510000000000005</ele>
        <time>2018-07-06T16:20:33Z</time>
      </trkpt>
      <trkpt lat="47.979298029094934" lon="-4.068531040102243">
        <ele>64.549999999999997</ele>
        <time>2018-07-06T16:20:39Z</time>
      </trkpt>
      <trkpt lat="47.978888992220163" lon="-4.063753020018339">
        <ele>57.82</ele>
        <time>2018-07-06T16:20:50Z</time>
      </trkpt>
      <trkpt lat="47.978561008349061" lon="-4.058248959481716">
        <ele>52.049999999999997</ele>
        <time>2018-07-06T16:21:03Z</time>
      </trkpt>
      <trkpt lat="47.978593027219176" lon="-4.054822018370032">
        <ele>49.649999999999999</ele>
        <time>2018-07-06T16:21:11Z</time>
      </trkpt>
      <trkpt lat="47.978575006127357" lon="-4.048785036429763">
        <ele>49.159999999999997</ele>
        <time>2018-07-06T16:21:25Z</time>
      </trkpt>
      <trkpt lat="47.978097992017865" lon="-4.044695002958179">
        <ele>56.369999999999997</ele>
        <time>2018-07-06T16:21:35Z</time>
      </trkpt>
      <trkpt lat="47.978057004511356" lon="-4.041455984115601">
        <ele>62.140000000000001</ele>
        <time>2018-07-06T16:21:43Z</time>
      </trkpt>
      <trkpt lat="47.97814903780818" lon="-4.035688983276486">
        <ele>67.909999999999997</ele>
        <time>2018-07-06T16:21:57Z</time>
      </trkpt>
      <trkpt lat="47.977997995913029" lon="-4.029088988900185">
        <ele>77.040000000000006</ele>
        <time>2018-07-06T16:22:13Z</time>
      </trkpt>
      <trkpt lat="47.978025991469622" lon="-4.023038009181619">
        <ele>89.540000000000006</ele>
        <time>2018-07-06T16:22:27Z</time>
      </trkpt>
      <trkpt lat="47.978123975917697" lon="-4.020954016596079">
        <ele>93.390000000000001</ele>
        <time>2018-07-06T16:22:33Z</time>
      </trkpt>
      <trkpt lat="47.978340983390808" lon="-4.017848018556833">
        <ele>94.829999999999998</ele>
        <time>2018-07-06T16:22:44Z</time>
      </trkpt>
      <trkpt lat="47.978397980332375" lon="-4.016630966216326">
        <ele>94.349999999999994</ele>
        <time>2018-07-06T16:22:50Z</time>
      </trkpt>
      <trkpt lat="47.978374008089304" lon="-4.016497023403645">
        <ele>93.870000000000005</ele>
        <time>2018-07-06T16:22:51Z</time>
      </trkpt>
      <trkpt lat="47.978330003097653" lon="-4.016393003985286">
        <ele>93.870000000000005</ele>
        <time>2018-07-06T16:22:52Z</time>
      </trkpt>
      <trkpt lat="47.978275017812848" lon="-4.016285967081785">
        <ele>93.390000000000001</ele>
        <time>2018-07-06T16:22:53Z</time>
      </trkpt>
      <trkpt lat="47.978206034749746" lon="-4.01618798263371">
        <ele>92.900000000000006</ele>
        <time>2018-07-06T16:22:54Z</time>
      </trkpt>
      <trkpt lat="47.978140991181135" lon="-4.016094021499157">
        <ele>92.420000000000002</ele>
        <time>2018-07-06T16:22:55Z</time>
      </trkpt>
      <trkpt lat="47.978102015331388" lon="-4.015940967947245">
        <ele>92.420000000000002</ele>
        <time>2018-07-06T16:22:56Z</time>
      </trkpt>
      <trkpt lat="47.978073013946414" lon="-4.015805013477802">
        <ele>91.939999999999998</ele>
        <time>2018-07-06T16:22:57Z</time>
      </trkpt>
      <trkpt lat="47.978085000067949" lon="-4.015648020431399">
        <ele>91.939999999999998</ele>
        <time>2018-07-06T16:22:58Z</time>
      </trkpt>
      <trkpt lat="47.978103021159768" lon="-4.015502007678151">
        <ele>91.459999999999994</ele>
        <time>2018-07-06T16:22:59Z</time>
      </trkpt>
      <trkpt lat="47.978148031979799" lon="-4.015368986874819">
        <ele>90.980000000000004</ele>
        <time>2018-07-06T16:23:00Z</time>
      </trkpt>
      <trkpt lat="47.978211985900998" lon="-4.015249963849783">
        <ele>90.5</ele>
        <time>2018-07-06T16:23:01Z</time>
      </trkpt>
      <trkpt lat="47.978282980620861" lon="-4.015117026865482">
        <ele>90.5</ele>
        <time>2018-07-06T16:23:02Z</time>
      </trkpt>
      <trkpt lat="47.978336038067937" lon="-4.015009989961982">
        <ele>90.5</ele>
        <time>2018-07-06T16:23:03Z</time>
      </trkpt>
      <trkpt lat="47.978394962847233" lon="-4.014892978593707">
        <ele>90.019999999999996</ele>
        <time>2018-07-06T16:23:04Z</time>
      </trkpt>
      <trkpt lat="47.978422036394477" lon="-4.014739003032446">
        <ele>90.5</ele>
        <time>2018-07-06T16:23:05Z</time>
      </trkpt>
      <trkpt lat="47.978428993374109" lon="-4.014579998329282">
        <ele>90.5</ele>
        <time>2018-07-06T16:23:06Z</time>
      </trkpt>
      <trkpt lat="47.978413989767432" lon="-4.014414958655834">
        <ele>90.980000000000004</ele>
        <time>2018-07-06T16:23:07Z</time>
      </trkpt>
      <trkpt lat="47.978397980332375" lon="-4.014242962002754">
        <ele>90.980000000000004</ele>
        <time>2018-07-06T16:23:08Z</time>
      </trkpt>
      <trkpt lat="47.978381970897317" lon="-4.014066020026803">
        <ele>90.980000000000004</ele>
        <time>2018-07-06T16:23:09Z</time>
      </trkpt>
      <trkpt lat="47.978365961462259" lon="-4.013882959261537">
        <ele>90.980000000000004</ele>
        <time>2018-07-06T16:23:10Z</time>
      </trkpt>
      <trkpt lat="47.978347018361092" lon="-4.013679027557373">
        <ele>90.980000000000004</ele>
        <time>2018-07-06T16:23:11Z</time>
      </trkpt>
      <trkpt lat="47.977991038933396" lon="-4.01165303774178">
        <ele>91.939999999999998</ele>
        <time>2018-07-06T16:23:20Z</time>
      </trkpt>
      <trkpt lat="47.977852988988161" lon="-4.010174972936511">
        <ele>94.349999999999994</ele>
        <time>2018-07-06T16:23:28Z</time>
      </trkpt>
      <trkpt lat="47.977789035066962" lon="-4.009443987160921">
        <ele>96.75</ele>
        <time>2018-07-06T16:23:32Z</time>
      </trkpt>
      <trkpt lat="47.977735977619886" lon="-4.009249024093151">
        <ele>96.75</ele>
        <time>2018-07-06T16:23:33Z</time>
      </trkpt>
      <trkpt lat="47.977157039567828" lon="-4.007152961567044">
        <ele>96.269999999999996</ele>
        <time>2018-07-06T16:23:43Z</time>
      </trkpt>
      <trkpt lat="47.976559996604919" lon="-4.004868976771832">
        <ele>90.980000000000004</ele>
        <time>2018-07-06T16:23:54Z</time>
      </trkpt>
      <trkpt lat="47.97589497640729" lon="-4.001639010384679">
        <ele>95.310000000000002</ele>
        <time>2018-07-06T16:24:08Z</time>
      </trkpt>
      <trkpt lat="47.975558023899794" lon="-4.000369990244508">
        <ele>95.790000000000006</ele>
        <time>2018-07-06T16:24:15Z</time>
      </trkpt>
      <trkpt lat="47.975517958402634" lon="-4.000276029109955">
        <ele>96.269999999999996</ele>
        <time>2018-07-06T16:24:16Z</time>
      </trkpt>
      <trkpt lat="47.975343028083444" lon="-4.000332020223141">
        <ele>96.269999999999996</ele>
        <time>2018-07-06T16:24:17Z</time>
      </trkpt>
      <trkpt lat="47.975300028920174" lon="-4.000289021059871">
        <ele>96.269999999999996</ele>
        <time>2018-07-06T16:24:18Z</time>
      </trkpt>
      <trkpt lat="47.975235991179943" lon="-4.000225989148021">
        <ele>96.269999999999996</ele>
        <time>2018-07-06T16:24:19Z</time>
      </trkpt>
      <trkpt lat="47.975176982581615" lon="-4.000045023858547">
        <ele>96.269999999999996</ele>
        <time>2018-07-06T16:24:20Z</time>
      </trkpt>
      <trkpt lat="47.97518796287477" lon="-3.999887024983764">
        <ele>95.790000000000006</ele>
        <time>2018-07-06T16:24:21Z</time>
      </trkpt>
      <trkpt lat="47.975192992016673" lon="-3.999860035255551">
        <ele>95.790000000000006</ele>
        <time>2018-07-06T16:24:22Z</time>
      </trkpt>
      <trkpt lat="47.97535602003336" lon="-3.999629030004144">
        <ele>95.310000000000002</ele>
        <time>2018-07-06T16:24:23Z</time>
      </trkpt>
      <trkpt lat="47.975342022255063" lon="-3.999462984502316">
        <ele>94.349999999999994</ele>
        <time>2018-07-06T16:24:24Z</time>
      </trkpt>
      <trkpt lat="47.975327018648386" lon="-3.999271038919687">
        <ele>93.870000000000005</ele>
        <time>2018-07-06T16:24:25Z</time>
      </trkpt>
      <trkpt lat="47.975302040576935" lon="-3.99906400591135">
        <ele>93.390000000000001</ele>
        <time>2018-07-06T16:24:26Z</time>
      </trkpt>
      <trkpt lat="47.975269015878439" lon="-3.998849010095">
        <ele>92.420000000000002</ele>
        <time>2018-07-06T16:24:27Z</time>
      </trkpt>
      <trkpt lat="47.975236997008324" lon="-3.998637031763792">
        <ele>91.939999999999998</ele>
        <time>2018-07-06T16:24:28Z</time>
      </trkpt>
      <trkpt lat="47.975181005895138" lon="-3.998263031244278">
        <ele>90.5</ele>
        <time>2018-07-06T16:24:30Z</time>
      </trkpt>
      <trkpt lat="47.975106993690133" lon="-3.997886013239622">
        <ele>89.540000000000006</ele>
        <time>2018-07-06T16:24:32Z</time>
      </trkpt>
      <trkpt lat="47.974712960422039" lon="-3.996310969814658">
        <ele>87.140000000000001</ele>
        <time>2018-07-06T16:24:39Z</time>
      </trkpt>
      <trkpt lat="47.974204011261463" lon="-3.994256984442473">
        <ele>85.209999999999994</ele>
        <time>2018-07-06T16:24:46Z</time>
      </trkpt>
      <trkpt lat="47.973372023552656" lon="-3.990854015573859">
        <ele>87.140000000000001</ele>
        <time>2018-07-06T16:24:58Z</time>
      </trkpt>
      <trkpt lat="47.972631985321641" lon="-3.988071978092194">
        <ele>91.459999999999994</ele>
        <time>2018-07-06T16:25:08Z</time>
      </trkpt>
      <trkpt lat="47.97157796099782" lon="-3.984129969030619">
        <ele>90.5</ele>
        <time>2018-07-06T16:25:23Z</time>
      </trkpt>
      <trkpt lat="47.971193986013532" lon="-3.981623025611043">
        <ele>93.870000000000005</ele>
        <time>2018-07-06T16:25:32Z</time>
      </trkpt>
      <trkpt lat="47.971137994900346" lon="-3.97875901311636">
        <ele>90.980000000000004</ele>
        <time>2018-07-06T16:25:42Z</time>
      </trkpt>
      <trkpt lat="47.970837000757456" lon="-3.976582987233996">
        <ele>90.5</ele>
        <time>2018-07-06T16:25:50Z</time>
      </trkpt>
      <trkpt lat="47.970524020493031" lon="-3.974659005180001">
        <ele>91.459999999999994</ele>
        <time>2018-07-06T16:25:59Z</time>
      </trkpt>
      <trkpt lat="47.970223026350141" lon="-3.971964977681637">
        <ele>94.829999999999998</ele>
        <time>2018-07-06T16:26:10Z</time>
      </trkpt>
      <trkpt lat="47.970199976116419" lon="-3.969197021797299">
        <ele>100.11</ele>
        <time>2018-07-06T16:26:18Z</time>
      </trkpt>
      <trkpt lat="47.970119006931782" lon="-3.967005992308259">
        <ele>101.08</ele>
        <time>2018-07-06T16:26:25Z</time>
      </trkpt>
      <trkpt lat="47.969778031110764" lon="-3.964311964809895">
        <ele>102.04000000000001</ele>
        <time>2018-07-06T16:26:35Z</time>
      </trkpt>
      <trkpt lat="47.969741988927126" lon="-3.962307013571262">
        <ele>101.56</ele>
        <time>2018-07-06T16:26:43Z</time>
      </trkpt>
      <trkpt lat="47.969769984483719" lon="-3.959537968039513">
        <ele>104.44</ele>
        <time>2018-07-06T16:26:53Z</time>
      </trkpt>
      <trkpt lat="47.969617014750838" lon="-3.956423001363874">
        <ele>111.65000000000001</ele>
        <time>2018-07-06T16:27:04Z</time>
      </trkpt>
      <trkpt lat="47.969011003151536" lon="-3.952867984771729">
        <ele>119.34</ele>
        <time>2018-07-06T16:27:17Z</time>
      </trkpt>
      <trkpt lat="47.968904972076416" lon="-3.95263597369194">
        <ele>120.3</ele>
        <time>2018-07-06T16:27:18Z</time>
      </trkpt>
      <trkpt lat="47.9680319968611" lon="-3.950746022164822">
        <ele>123.67</ele>
        <time>2018-07-06T16:27:26Z</time>
      </trkpt>
      <trkpt lat="47.967955972999334" lon="-3.950484003871679">
        <ele>124.15000000000001</ele>
        <time>2018-07-06T16:27:27Z</time>
      </trkpt>
      <trkpt lat="47.967887995764613" lon="-3.950215028598905">
        <ele>124.15000000000001</ele>
        <time>2018-07-06T16:27:28Z</time>
      </trkpt>
      <trkpt lat="47.967843990772963" lon="-3.949941024184227">
        <ele>124.63</ele>
        <time>2018-07-06T16:27:29Z</time>
      </trkpt>
      <trkpt lat="47.967823036015034" lon="-3.949660984799266">
        <ele>125.11</ele>
        <time>2018-07-06T16:27:30Z</time>
      </trkpt>
      <trkpt lat="47.967808032408357" lon="-3.949380023404956">
        <ele>125.59</ele>
        <time>2018-07-06T16:27:31Z</time>
      </trkpt>
      <trkpt lat="47.967800991609693" lon="-3.949099984019995">
        <ele>126.06999999999999</ele>
        <time>2018-07-06T16:27:32Z</time>
      </trkpt>
      <trkpt lat="47.967668976634741" lon="-3.946849023923278">
        <ele>129.43000000000001</ele>
        <time>2018-07-06T16:27:40Z</time>
      </trkpt>
      <trkpt lat="47.967268992215395" lon="-3.944191038608551">
        <ele>123.67</ele>
        <time>2018-07-06T16:27:50Z</time>
      </trkpt>
      <trkpt lat="47.967081991955638" lon="-3.942696964368224">
        <ele>121.26000000000001</ele>
        <time>2018-07-06T16:27:57Z</time>
      </trkpt>
      <trkpt lat="47.967095989733934" lon="-3.94253502599895">
        <ele>121.26000000000001</ele>
        <time>2018-07-06T16:27:58Z</time>
      </trkpt>
      <trkpt lat="47.96710797585547" lon="-3.942396976053715">
        <ele>121.26000000000001</ele>
        <time>2018-07-06T16:27:59Z</time>
      </trkpt>
      <trkpt lat="47.967119039967656" lon="-3.942273007705808">
        <ele>121.26000000000001</ele>
        <time>2018-07-06T16:28:00Z</time>
      </trkpt>
      <trkpt lat="47.967332024127245" lon="-3.941128039732575">
        <ele>124.15000000000001</ele>
        <time>2018-07-06T16:28:11Z</time>
      </trkpt>
      <trkpt lat="47.967394972220063" lon="-3.940922012552619">
        <ele>125.59</ele>
        <time>2018-07-06T16:28:14Z</time>
      </trkpt>
      <trkpt lat="47.967403018847108" lon="-3.940895022824407">
        <ele>126.06999999999999</ele>
        <time>2018-07-06T16:28:15Z</time>
      </trkpt>
      <trkpt lat="47.967446018010378" lon="-3.940658988431096">
        <ele>126.55</ele>
        <time>2018-07-06T16:28:16Z</time>
      </trkpt>
      <trkpt lat="47.967448029667139" lon="-3.940584976226091">
        <ele>126.55</ele>
        <time>2018-07-06T16:28:17Z</time>
      </trkpt>
      <trkpt lat="47.96745196916163" lon="-3.940447010099888">
        <ele>126.55</ele>
        <time>2018-07-06T16:28:18Z</time>
      </trkpt>
      <trkpt lat="47.967455992475152" lon="-3.940296974033117">
        <ele>126.55</ele>
        <time>2018-07-06T16:28:19Z</time>
      </trkpt>
      <trkpt lat="47.967461021617055" lon="-3.940145010128617">
        <ele>126.55</ele>
        <time>2018-07-06T16:28:20Z</time>
      </trkpt>
      <trkpt lat="47.967620026320219" lon="-3.938726037740707">
        <ele>123.19</ele>
        <time>2018-07-06T16:28:31Z</time>
      </trkpt>
      <trkpt lat="47.967699989676476" lon="-3.938017012551427">
        <ele>121.73999999999999</ele>
        <time>2018-07-06T16:28:36Z</time>
      </trkpt>
      <trkpt lat="47.967694960534573" lon="-3.937867982313037">
        <ele>121.26000000000001</ele>
        <time>2018-07-06T16:28:37Z</time>
      </trkpt>
      <trkpt lat="47.967584989964962" lon="-3.93583201803267">
        <ele>124.63</ele>
        <time>2018-07-06T16:28:50Z</time>
      </trkpt>
      <trkpt lat="47.967487005516887" lon="-3.93443500623107">
        <ele>125.11</ele>
        <time>2018-07-06T16:29:01Z</time>
      </trkpt>
      <trkpt lat="47.967463033273816" lon="-3.934062011539936">
        <ele>124.15000000000001</ele>
        <time>2018-07-06T16:29:05Z</time>
      </trkpt>
      <trkpt lat="47.967455992475152" lon="-3.933955980464816">
        <ele>123.67</ele>
        <time>2018-07-06T16:29:06Z</time>
      </trkpt>
      <trkpt lat="47.96740997582674" lon="-3.933058027178049">
        <ele>119.81999999999999</ele>
        <time>2018-07-06T16:29:12Z</time>
      </trkpt>
      <trkpt lat="47.967312997207046" lon="-3.931243009865284">
        <ele>115.01000000000001</ele>
        <time>2018-07-06T16:29:21Z</time>
      </trkpt>
      <trkpt lat="47.9671910405159" lon="-3.9291509706527">
        <ele>117.90000000000001</ele>
        <time>2018-07-06T16:29:31Z</time>
      </trkpt>
      <trkpt lat="47.967139994725585" lon="-3.928725002333522">
        <ele>118.86</ele>
        <time>2018-07-06T16:29:33Z</time>
      </trkpt>
      <trkpt lat="47.967081991955638" lon="-3.928507994860411">
        <ele>119.81999999999999</ele>
        <time>2018-07-06T16:29:34Z</time>
      </trkpt>
      <trkpt lat="47.967017032206059" lon="-3.928285958245397">
        <ele>120.3</ele>
        <time>2018-07-06T16:29:35Z</time>
      </trkpt>
      <trkpt lat="47.96618496067822" lon="-3.92609803006053">
        <ele>126.06999999999999</ele>
        <time>2018-07-06T16:29:44Z</time>
      </trkpt>
      <trkpt lat="47.965641980990767" lon="-3.92420900054276">
        <ele>126.06999999999999</ele>
        <time>2018-07-06T16:29:51Z</time>
      </trkpt>
      <trkpt lat="47.96562697738409" lon="-3.923635007813573">
        <ele>125.11</ele>
        <time>2018-07-06T16:29:53Z</time>
      </trkpt>
      <trkpt lat="47.965635024011135" lon="-3.923343988135457">
        <ele>124.63</ele>
        <time>2018-07-06T16:29:54Z</time>
      </trkpt>
      <trkpt lat="47.965853959321976" lon="-3.921080036088824">
        <ele>121.73999999999999</ele>
        <time>2018-07-06T16:30:01Z</time>
      </trkpt>
      <trkpt lat="47.966121006757021" lon="-3.918155003339052">
        <ele>119.34</ele>
        <time>2018-07-06T16:30:09Z</time>
      </trkpt>
      <trkpt lat="47.966519985347986" lon="-3.914794027805328">
        <ele>116.45999999999999</ele>
        <time>2018-07-06T16:30:19Z</time>
      </trkpt>
      <trkpt lat="47.966598020866513" lon="-3.914481969550252">
        <ele>116.45999999999999</ele>
        <time>2018-07-06T16:30:20Z</time>
      </trkpt>
      <trkpt lat="47.966690976172686" lon="-3.914192039519548">
        <ele>116.45999999999999</ele>
        <time>2018-07-06T16:30:21Z</time>
      </trkpt>
      <trkpt lat="47.966796001419425" lon="-3.913913005962968">
        <ele>116.45999999999999</ele>
        <time>2018-07-06T16:30:22Z</time>
      </trkpt>
      <trkpt lat="47.967767966911197" lon="-3.91133900731802">
        <ele>116.45999999999999</ele>
        <time>2018-07-06T16:30:32Z</time>
      </trkpt>
      <trkpt lat="47.967940969392657" lon="-3.910811031237245">
        <ele>115.5</ele>
        <time>2018-07-06T16:30:34Z</time>
      </trkpt>
      <trkpt lat="47.968007018789649" lon="-3.910524034872651">
        <ele>114.53</ele>
        <time>2018-07-06T16:30:35Z</time>
      </trkpt>
      <trkpt lat="47.968339025974274" lon="-3.908195039257407">
        <ele>110.69</ele>
        <time>2018-07-06T16:30:43Z</time>
      </trkpt>
      <trkpt lat="47.968661980703473" lon="-3.905910970643163">
        <ele>110.20999999999999</ele>
        <time>2018-07-06T16:30:51Z</time>
      </trkpt>
      <trkpt lat="47.968925004824996" lon="-3.903812980279326">
        <ele>106.36</ele>
        <time>2018-07-06T16:30:58Z</time>
      </trkpt>
      <trkpt lat="47.969247037544847" lon="-3.900136006996036">
        <ele>99.629999999999995</ele>
        <time>2018-07-06T16:31:10Z</time>
      </trkpt>
      <trkpt lat="47.969205966219306" lon="-3.898668000474572">
        <ele>98.670000000000002</ele>
        <time>2018-07-06T16:31:15Z</time>
      </trkpt>
      <trkpt lat="47.969161039218307" lon="-3.898377986624837">
        <ele>98.670000000000002</ele>
        <time>2018-07-06T16:31:16Z</time>
      </trkpt>
      <trkpt lat="47.969088032841682" lon="-3.898093001917005">
        <ele>98.670000000000002</ele>
        <time>2018-07-06T16:31:17Z</time>
      </trkpt>
      <trkpt lat="47.969014020636678" lon="-3.897807011380792">
        <ele>98.670000000000002</ele>
        <time>2018-07-06T16:31:18Z</time>
      </trkpt>
      <trkpt lat="47.968941014260054" lon="-3.897532001137734">
        <ele>99.150000000000006</ele>
        <time>2018-07-06T16:31:19Z</time>
      </trkpt>
      <trkpt lat="47.968836994841695" lon="-3.897269982844591">
        <ele>99.150000000000006</ele>
        <time>2018-07-06T16:31:20Z</time>
      </trkpt>
      <trkpt lat="47.968035014346242" lon="-3.894872004166246">
        <ele>99.629999999999995</ele>
        <time>2018-07-06T16:31:29Z</time>
      </trkpt>
      <trkpt lat="47.967713987454772" lon="-3.892321977764368">
        <ele>104.92</ele>
        <time>2018-07-06T16:31:38Z</time>
      </trkpt>
      <trkpt lat="47.967677023261786" lon="-3.890282995998859">
        <ele>111.65000000000001</ele>
        <time>2018-07-06T16:31:45Z</time>
      </trkpt>
      <trkpt lat="47.967785988003016" lon="-3.887832965701819">
        <ele>115.98</ele>
        <time>2018-07-06T16:31:52Z</time>
      </trkpt>
      <trkpt lat="47.968040965497494" lon="-3.885413026437163">
        <ele>117.90000000000001</ele>
        <time>2018-07-06T16:31:58Z</time>
      </trkpt>
      <trkpt lat="47.968206005170941" lon="-3.882905999198556">
        <ele>120.78</ele>
        <time>2018-07-06T16:32:06Z</time>
      </trkpt>
      <trkpt lat="47.968149008229375" lon="-3.879288034513593">
        <ele>121.26000000000001</ele>
        <time>2018-07-06T16:32:18Z</time>
      </trkpt>
      <trkpt lat="47.96766403131187" lon="-3.875090964138508">
        <ele>123.67</ele>
        <time>2018-07-06T16:32:32Z</time>
      </trkpt>
      <trkpt lat="47.967018960043788" lon="-3.871154990047216">
        <ele>130.88</ele>
        <time>2018-07-06T16:32:45Z</time>
      </trkpt>
      <trkpt lat="47.966562984511256" lon="-3.868130967020989">
        <ele>133.75999999999999</ele>
        <time>2018-07-06T16:32:55Z</time>
      </trkpt>
      <trkpt lat="47.966184038668871" lon="-3.865406010299921">
        <ele>137.13</ele>
        <time>2018-07-06T16:33:04Z</time>
      </trkpt>
      <trkpt lat="47.965810960158706" lon="-3.862046962603927">
        <ele>130.88</ele>
        <time>2018-07-06T16:33:15Z</time>
      </trkpt>
      <trkpt lat="47.965436037629843" lon="-3.857463989406824">
        <ele>130.40000000000001</ele>
        <time>2018-07-06T16:33:30Z</time>
      </trkpt>
      <trkpt lat="47.964763976633549" lon="-3.854550020769239">
        <ele>130.40000000000001</ele>
        <time>2018-07-06T16:33:40Z</time>
      </trkpt>
      <trkpt lat="47.964424006640911" lon="-3.852304005995393">
        <ele>129.91999999999999</ele>
        <time>2018-07-06T16:33:48Z</time>
      </trkpt>
      <trkpt lat="47.964142039418221" lon="-3.85083700530231">
        <ele>128.47</ele>
        <time>2018-07-06T16:33:56Z</time>
      </trkpt>
      <trkpt lat="47.964099040254951" lon="-3.850686969235539">
        <ele>128.47</ele>
        <time>2018-07-06T16:33:57Z</time>
      </trkpt>
      <trkpt lat="47.964203981682658" lon="-3.850451018661261">
        <ele>128.47</ele>
        <time>2018-07-06T16:33:58Z</time>
      </trkpt>
      <trkpt lat="47.964181015267968" lon="-3.850253038108349">
        <ele>127.98999999999999</ele>
        <time>2018-07-06T16:33:59Z</time>
      </trkpt>
      <trkpt lat="47.964152013882995" lon="-3.850052040070295">
        <ele>127.51000000000001</ele>
        <time>2018-07-06T16:34:00Z</time>
      </trkpt>
      <trkpt lat="47.964119995012879" lon="-3.84982799179852">
        <ele>127.51000000000001</ele>
        <time>2018-07-06T16:34:01Z</time>
      </trkpt>
      <trkpt lat="47.963867029175162" lon="-3.847447028383613">
        <ele>124.15000000000001</ele>
        <time>2018-07-06T16:34:13Z</time>
      </trkpt>
      <trkpt lat="47.963638035580516" lon="-3.845404023304582">
        <ele>123.19</ele>
        <time>2018-07-06T16:34:24Z</time>
      </trkpt>
      <trkpt lat="47.963571986183524" lon="-3.844843022525311">
        <ele>122.22</ele>
        <time>2018-07-06T16:34:27Z</time>
      </trkpt>
      <trkpt lat="47.963538039475679" lon="-3.844689968973398">
        <ele>121.73999999999999</ele>
        <time>2018-07-06T16:34:28Z</time>
      </trkpt>
      <trkpt lat="47.963495962321758" lon="-3.844564994797111">
        <ele>121.73999999999999</ele>
        <time>2018-07-06T16:34:29Z</time>
      </trkpt>
      <trkpt lat="47.963435025885701" lon="-3.844381012022495">
        <ele>121.73999999999999</ele>
        <time>2018-07-06T16:34:31Z</time>
      </trkpt>
      <trkpt lat="47.963361013680696" lon="-3.844272969290614">
        <ele>121.26000000000001</ele>
        <time>2018-07-06T16:34:32Z</time>
      </trkpt>
      <trkpt lat="47.963314997032285" lon="-3.844309011474252">
        <ele>121.26000000000001</ele>
        <time>2018-07-06T16:34:33Z</time>
      </trkpt>
      <trkpt lat="47.963256994262338" lon="-3.844354022294283">
        <ele>120.78</ele>
        <time>2018-07-06T16:34:34Z</time>
      </trkpt>
      <trkpt lat="47.963178036734462" lon="-3.844397021457553">
        <ele>120.78</ele>
        <time>2018-07-06T16:34:35Z</time>
      </trkpt>
      <trkpt lat="47.963101007044315" lon="-3.844387969002128">
        <ele>120.78</ele>
        <time>2018-07-06T16:34:36Z</time>
      </trkpt>
      <trkpt lat="47.963026994839311" lon="-3.844377994537354">
        <ele>120.3</ele>
        <time>2018-07-06T16:34:37Z</time>
      </trkpt>
      <trkpt lat="47.962965974584222" lon="-3.844287972897291">
        <ele>119.81999999999999</ele>
        <time>2018-07-06T16:34:38Z</time>
      </trkpt>
      <trkpt lat="47.962934961542487" lon="-3.844198035076261">
        <ele>119.81999999999999</ele>
        <time>2018-07-06T16:34:39Z</time>
      </trkpt>
      <trkpt lat="47.962924987077713" lon="-3.844096027314663">
        <ele>119.34</ele>
        <time>2018-07-06T16:34:40Z</time>
      </trkpt>
      <trkpt lat="47.962935967370868" lon="-3.843994019553065">
        <ele>119.34</ele>
        <time>2018-07-06T16:34:41Z</time>
      </trkpt>
      <trkpt lat="47.962974021211267" lon="-3.843907015398145">
        <ele>119.34</ele>
        <time>2018-07-06T16:34:42Z</time>
      </trkpt>
      <trkpt lat="47.96298298984766" lon="-3.843884970992804">
        <ele>119.34</ele>
        <time>2018-07-06T16:34:43Z</time>
      </trkpt>
      <trkpt lat="47.963090026751161" lon="-3.843687996268272">
        <ele>119.34</ele>
        <time>2018-07-06T16:34:44Z</time>
      </trkpt>
      <trkpt lat="47.963063959032297" lon="-3.843585988506675">
        <ele>119.81999999999999</ele>
        <time>2018-07-06T16:34:45Z</time>
      </trkpt>
      <trkpt lat="47.963028000667691" lon="-3.843469982966781">
        <ele>120.3</ele>
        <time>2018-07-06T16:34:46Z</time>
      </trkpt>
      <trkpt lat="47.96298298984766" lon="-3.843356994912028">
        <ele>120.3</ele>
        <time>2018-07-06T16:34:47Z</time>
      </trkpt>
      <trkpt lat="47.962935967370868" lon="-3.843236966058612">
        <ele>120.78</ele>
        <time>2018-07-06T16:34:48Z</time>
      </trkpt>
      <trkpt lat="47.962887017056346" lon="-3.843114003539085">
        <ele>121.26000000000001</ele>
        <time>2018-07-06T16:34:49Z</time>
      </trkpt>
      <trkpt lat="47.962837982922792" lon="-3.842989029362798">
        <ele>121.26000000000001</ele>
        <time>2018-07-06T16:34:50Z</time>
      </trkpt>
      <trkpt lat="47.962787020951509" lon="-3.842861037701368">
        <ele>121.73999999999999</ele>
        <time>2018-07-06T16:34:51Z</time>
      </trkpt>
      <trkpt lat="47.962736980989575" lon="-3.842732962220907">
        <ele>122.22</ele>
        <time>2018-07-06T16:34:52Z</time>
      </trkpt>
      <trkpt lat="47.962194001302123" lon="-3.841353971511126">
        <ele>122.70999999999999</ele>
        <time>2018-07-06T16:35:01Z</time>
      </trkpt>
      <trkpt lat="47.9619500041008" lon="-3.84065399877727">
        <ele>124.15000000000001</ele>
        <time>2018-07-06T16:35:08Z</time>
      </trkpt>
      <trkpt lat="47.96192703768611" lon="-3.840586021542549">
        <ele>124.15000000000001</ele>
        <time>2018-07-06T16:35:09Z</time>
      </trkpt>
      <trkpt lat="47.961910022422671" lon="-3.840536987408996">
        <ele>124.63</ele>
        <time>2018-07-06T16:35:10Z</time>
      </trkpt>
      <trkpt lat="47.961845984682441" lon="-3.840407989919186">
        <ele>125.11</ele>
        <time>2018-07-06T16:35:11Z</time>
      </trkpt>
      <trkpt lat="47.961781024932861" lon="-3.840362979099155">
        <ele>125.11</ele>
        <time>2018-07-06T16:35:12Z</time>
      </trkpt>
      <trkpt lat="47.961712963879108" lon="-3.840315034613013">
        <ele>124.63</ele>
        <time>2018-07-06T16:35:13Z</time>
      </trkpt>
      <trkpt lat="47.960882987827063" lon="-3.83979401551187">
        <ele>126.06999999999999</ele>
        <time>2018-07-06T16:35:22Z</time>
      </trkpt>
      <trkpt lat="47.960429023951292" lon="-3.839477011933923">
        <ele>126.55</ele>
        <time>2018-07-06T16:35:26Z</time>
      </trkpt>
      <trkpt lat="47.960321987047791" lon="-3.839378021657467">
        <ele>126.55</ele>
        <time>2018-07-06T16:35:27Z</time>
      </trkpt>
      <trkpt lat="47.96025300398469" lon="-3.839238965883851">
        <ele>126.55</ele>
        <time>2018-07-06T16:35:28Z</time>
      </trkpt>
      <trkpt lat="47.96018703840673" lon="-3.839085996150971">
        <ele>127.03</ele>
        <time>2018-07-06T16:35:29Z</time>
      </trkpt>
      <trkpt lat="47.960129035636783" lon="-3.838921962305903">
        <ele>127.03</ele>
        <time>2018-07-06T16:35:30Z</time>
      </trkpt>
      <trkpt lat="47.960084024816751" lon="-3.838746026158333">
        <ele>127.03</ele>
        <time>2018-07-06T16:35:31Z</time>
      </trkpt>
      <trkpt lat="47.960048988461494" lon="-3.83856900036335">
        <ele>127.03</ele>
        <time>2018-07-06T16:35:32Z</time>
      </trkpt>
      <trkpt lat="47.96003800816834" lon="-3.838400021195412">
        <ele>127.03</ele>
        <time>2018-07-06T16:35:33Z</time>
      </trkpt>
      <trkpt lat="47.960005989298224" lon="-3.837525034323335">
        <ele>126.06999999999999</ele>
        <time>2018-07-06T16:35:40Z</time>
      </trkpt>
      <trkpt lat="47.960000960156322" lon="-3.837397964671254">
        <ele>125.59</ele>
        <time>2018-07-06T16:35:41Z</time>
      </trkpt>
      <trkpt lat="47.959930971264839" lon="-3.836147971451283">
        <ele>125.11</ele>
        <time>2018-07-06T16:35:49Z</time>
      </trkpt>
      <trkpt lat="47.959769032895565" lon="-3.83463503792882">
        <ele>123.19</ele>
        <time>2018-07-06T16:35:59Z</time>
      </trkpt>
      <trkpt lat="47.959708012640476" lon="-3.834218960255384">
        <ele>122.70999999999999</ele>
        <time>2018-07-06T16:36:02Z</time>
      </trkpt>
      <trkpt lat="47.959487987682223" lon="-3.832657998427749">
        <ele>120.78</ele>
        <time>2018-07-06T16:36:14Z</time>
      </trkpt>
      <trkpt lat="47.959384974092245" lon="-3.831730959936976">
        <ele>117.90000000000001</ele>
        <time>2018-07-06T16:36:21Z</time>
      </trkpt>
      <trkpt lat="47.95926502905786" lon="-3.83016899228096">
        <ele>113.56999999999999</ele>
        <time>2018-07-06T16:36:33Z</time>
      </trkpt>
      <trkpt lat="47.959259999915957" lon="-3.830065978690982">
        <ele>113.09</ele>
        <time>2018-07-06T16:36:34Z</time>
      </trkpt>
      <trkpt lat="47.959254970774055" lon="-3.829967994242907">
        <ele>112.61</ele>
        <time>2018-07-06T16:36:35Z</time>
      </trkpt>
      <trkpt lat="47.959238039329648" lon="-3.829840002581477">
        <ele>112.61</ele>
        <time>2018-07-06T16:36:36Z</time>
      </trkpt>
      <trkpt lat="47.959195040166378" lon="-3.829797003418207">
        <ele>112.13</ele>
        <time>2018-07-06T16:36:37Z</time>
      </trkpt>
      <trkpt lat="47.959152963012457" lon="-3.829754004254937">
        <ele>111.65000000000001</ele>
        <time>2018-07-06T16:36:38Z</time>
      </trkpt>
      <trkpt lat="47.959109963849187" lon="-3.829712010920048">
        <ele>111.65000000000001</ele>
        <time>2018-07-06T16:36:39Z</time>
      </trkpt>
      <trkpt lat="47.959065958857536" lon="-3.829668005928397">
        <ele>111.17</ele>
        <time>2018-07-06T16:36:40Z</time>
      </trkpt>
      <trkpt lat="47.958916006609797" lon="-3.829527022317052">
        <ele>111.17</ele>
        <time>2018-07-06T16:36:43Z</time>
      </trkpt>
      <trkpt lat="47.958322986960411" lon="-3.828995022922754">
        <ele>115.5</ele>
        <time>2018-07-06T16:36:54Z</time>
      </trkpt>
      <trkpt lat="47.958288034424186" lon="-3.828911036252976">
        <ele>116.45999999999999</ele>
        <time>2018-07-06T16:36:55Z</time>
      </trkpt>
      <trkpt lat="47.958257021382451" lon="-3.828837024047971">
        <ele>116.94</ele>
        <time>2018-07-06T16:36:56Z</time>
      </trkpt>
      <trkpt lat="47.958229025825858" lon="-3.828763011842966">
        <ele>117.42</ele>
        <time>2018-07-06T16:36:57Z</time>
      </trkpt>
      <trkpt lat="47.958202958106995" lon="-3.82868598215282">
        <ele>117.90000000000001</ele>
        <time>2018-07-06T16:36:58Z</time>
      </trkpt>
      <trkpt lat="47.958174962550402" lon="-3.82859998382628">
        <ele>118.38</ele>
        <time>2018-07-06T16:36:59Z</time>
      </trkpt>
      <trkpt lat="47.958139004185796" lon="-3.828510968014598">
        <ele>118.38</ele>
        <time>2018-07-06T16:37:00Z</time>
      </trkpt>
      <trkpt lat="47.957891989499331" lon="-3.828032026067376">
        <ele>118.86</ele>
        <time>2018-07-06T16:37:05Z</time>
      </trkpt>
      <trkpt lat="47.957840021699667" lon="-3.827931024134159">
        <ele>118.38</ele>
        <time>2018-07-06T16:37:06Z</time>
      </trkpt>
      <trkpt lat="47.957795010879636" lon="-3.827821975573897">
        <ele>118.38</ele>
        <time>2018-07-06T16:37:07Z</time>
      </trkpt>
      <trkpt lat="47.957758968695998" lon="-3.827705970034003">
        <ele>118.38</ele>
        <time>2018-07-06T16:37:08Z</time>
      </trkpt>
      <trkpt lat="47.957720998674631" lon="-3.827583007514477">
        <ele>118.38</ele>
        <time>2018-07-06T16:37:09Z</time>
      </trkpt>
      <trkpt lat="47.957507008686662" lon="-3.826676001772285">
        <ele>115.5</ele>
        <time>2018-07-06T16:37:16Z</time>
      </trkpt>
      <trkpt lat="47.957496028393507" lon="-3.826551027595997">
        <ele>115.5</ele>
        <time>2018-07-06T16:37:17Z</time>
      </trkpt>
      <trkpt lat="47.957497034221888" lon="-3.826419012621045">
        <ele>115.5</ele>
        <time>2018-07-06T16:37:18Z</time>
      </trkpt>
      <trkpt lat="47.957695014774799" lon="-3.824823014438152">
        <ele>114.53</ele>
        <time>2018-07-06T16:37:30Z</time>
      </trkpt>
      <trkpt lat="47.958057029172778" lon="-3.823260040953755">
        <ele>122.22</ele>
        <time>2018-07-06T16:37:42Z</time>
      </trkpt>
      <trkpt lat="47.958528008311987" lon="-3.821822041645646">
        <ele>122.70999999999999</ele>
        <time>2018-07-06T16:37:53Z</time>
      </trkpt>
      <trkpt lat="47.95853597112" lon="-3.821664964780211">
        <ele>122.70999999999999</ele>
        <time>2018-07-06T16:37:54Z</time>
      </trkpt>
      <trkpt lat="47.958528008311987" lon="-3.821508977562189">
        <ele>122.22</ele>
        <time>2018-07-06T16:37:55Z</time>
      </trkpt>
      <trkpt lat="47.958518033847213" lon="-3.821347039192915">
        <ele>122.22</ele>
        <time>2018-07-06T16:37:56Z</time>
      </trkpt>
      <trkpt lat="47.958473023027182" lon="-3.821198008954525">
        <ele>121.73999999999999</ele>
        <time>2018-07-06T16:37:57Z</time>
      </trkpt>
      <trkpt lat="47.95842700637877" lon="-3.821045039221644">
        <ele>121.26000000000001</ele>
        <time>2018-07-06T16:37:58Z</time>
      </trkpt>
      <trkpt lat="47.958378978073597" lon="-3.820883017033339">
        <ele>120.78</ele>
        <time>2018-07-06T16:37:59Z</time>
      </trkpt>
      <trkpt lat="47.958285016939044" lon="-3.820437015965581">
        <ele>119.81999999999999</ele>
        <time>2018-07-06T16:38:02Z</time>
      </trkpt>
      <trkpt lat="47.958271019160748" lon="-3.820316987112165">
        <ele>119.34</ele>
        <time>2018-07-06T16:38:03Z</time>
      </trkpt>
      <trkpt lat="47.958155013620853" lon="-3.820173991844058">
        <ele>119.34</ele>
        <time>2018-07-06T16:38:04Z</time>
      </trkpt>
      <trkpt lat="47.958145039156079" lon="-3.820148007944226">
        <ele>119.34</ele>
        <time>2018-07-06T16:38:05Z</time>
      </trkpt>
      <trkpt lat="47.958104973658919" lon="-3.82004801183939">
        <ele>119.34</ele>
        <time>2018-07-06T16:38:06Z</time>
      </trkpt>
      <trkpt lat="47.958032973110676" lon="-3.819951033219695">
        <ele>118.86</ele>
        <time>2018-07-06T16:38:07Z</time>
      </trkpt>
      <trkpt lat="47.957942029461265" lon="-3.819931000471115">
        <ele>118.86</ele>
        <time>2018-07-06T16:38:08Z</time>
      </trkpt>
      <trkpt lat="47.957845972850919" lon="-3.81987601518631">
        <ele>118.38</ele>
        <time>2018-07-06T16:38:09Z</time>
      </trkpt>
      <trkpt lat="47.957769026979804" lon="-3.819774007424712">
        <ele>117.90000000000001</ele>
        <time>2018-07-06T16:38:10Z</time>
      </trkpt>
      <trkpt lat="47.957689985632896" lon="-3.819667976349592">
        <ele>117.42</ele>
        <time>2018-07-06T16:38:11Z</time>
      </trkpt>
      <trkpt lat="47.956713996827602" lon="-3.817985979840159">
        <ele>114.05</ele>
        <time>2018-07-06T16:38:24Z</time>
      </trkpt>
      <trkpt lat="47.956179985776544" lon="-3.816879987716675">
        <ele>114.05</ele>
        <time>2018-07-06T16:38:31Z</time>
      </trkpt>
      <trkpt lat="47.956117959693074" lon="-3.816689969971776">
        <ele>113.56999999999999</ele>
        <time>2018-07-06T16:38:32Z</time>
      </trkpt>
      <trkpt lat="47.956055011600256" lon="-3.816494001075625">
        <ele>113.56999999999999</ele>
        <time>2018-07-06T16:38:33Z</time>
      </trkpt>
      <trkpt lat="47.955816965550184" lon="-3.815436037257314">
        <ele>112.13</ele>
        <time>2018-07-06T16:38:38Z</time>
      </trkpt>
      <trkpt lat="47.955766003578901" lon="-3.815210983157158">
        <ele>113.09</ele>
        <time>2018-07-06T16:38:39Z</time>
      </trkpt>
      <trkpt lat="47.95526803471148" lon="-3.81340904161334">
        <ele>114.53</ele>
        <time>2018-07-06T16:38:46Z</time>
      </trkpt>
      <trkpt lat="47.95505203306675" lon="-3.811962995678186">
        <ele>115.5</ele>
        <time>2018-07-06T16:38:52Z</time>
      </trkpt>
      <trkpt lat="47.955023031681776" lon="-3.811724027618766">
        <ele>115.01000000000001</ele>
        <time>2018-07-06T16:38:53Z</time>
      </trkpt>
      <trkpt lat="47.954446021467447" lon="-3.80949703976512">
        <ele>112.13</ele>
        <time>2018-07-06T16:39:02Z</time>
      </trkpt>
      <trkpt lat="47.953799022361636" lon="-3.807149017229676">
        <ele>105.40000000000001</ele>
        <time>2018-07-06T16:39:11Z</time>
      </trkpt>
      <trkpt lat="47.953760968521237" lon="-3.806843999773264">
        <ele>104.92</ele>
        <time>2018-07-06T16:39:12Z</time>
      </trkpt>
      <trkpt lat="47.953740013763309" lon="-3.80655599758029">
        <ele>104.44</ele>
        <time>2018-07-06T16:39:13Z</time>
      </trkpt>
      <trkpt lat="47.953759040683508" lon="-3.806260032579303">
        <ele>103.95999999999999</ele>
        <time>2018-07-06T16:39:14Z</time>
      </trkpt>
      <trkpt lat="47.953778989613056" lon="-3.805960966274142">
        <ele>103.95999999999999</ele>
        <time>2018-07-06T16:39:15Z</time>
      </trkpt>
      <trkpt lat="47.953868005424738" lon="-3.803239027038217">
        <ele>107.31999999999999</ele>
        <time>2018-07-06T16:39:24Z</time>
      </trkpt>
      <trkpt lat="47.953822994604707" lon="-3.800242999568582">
        <ele>105.40000000000001</ele>
        <time>2018-07-06T16:39:34Z</time>
      </trkpt>
      <trkpt lat="47.953859958797693" lon="-3.798005031421781">
        <ele>103.95999999999999</ele>
        <time>2018-07-06T16:39:42Z</time>
      </trkpt>
      <trkpt lat="47.953327959403396" lon="-3.794952007010579">
        <ele>107.81</ele>
        <time>2018-07-06T16:39:53Z</time>
      </trkpt>
      <trkpt lat="47.952828984707594" lon="-3.79252502694726">
        <ele>109.25</ele>
        <time>2018-07-06T16:40:01Z</time>
      </trkpt>
      <trkpt lat="47.952054999768734" lon="-3.788816034793854">
        <ele>105.88</ele>
        <time>2018-07-06T16:40:13Z</time>
      </trkpt>
      <trkpt lat="47.951279003173113" lon="-3.784942002967">
        <ele>105.40000000000001</ele>
        <time>2018-07-06T16:40:28Z</time>
      </trkpt>
      <trkpt lat="47.950636027380824" lon="-3.781823012977839">
        <ele>103.48</ele>
        <time>2018-07-06T16:40:40Z</time>
      </trkpt>
      <trkpt lat="47.950035966932774" lon="-3.779277009889484">
        <ele>104.92</ele>
        <time>2018-07-06T16:40:48Z</time>
      </trkpt>
      <trkpt lat="47.949919961392879" lon="-3.778985990211368">
        <ele>105.40000000000001</ele>
        <time>2018-07-06T16:40:49Z</time>
      </trkpt>
      <trkpt lat="47.949803033843637" lon="-3.778687007725239">
        <ele>105.88</ele>
        <time>2018-07-06T16:40:50Z</time>
      </trkpt>
      <trkpt lat="47.948224972933531" lon="-3.775750994682312">
        <ele>112.13</ele>
        <time>2018-07-06T16:41:01Z</time>
      </trkpt>
      <trkpt lat="47.947086039930582" lon="-3.773647975176573">
        <ele>118.86</ele>
        <time>2018-07-06T16:41:10Z</time>
      </trkpt>
      <trkpt lat="47.946833996102214" lon="-3.773222006857395">
        <ele>120.78</ele>
        <time>2018-07-06T16:41:12Z</time>
      </trkpt>
      <trkpt lat="47.946704998612404" lon="-3.773015979677439">
        <ele>121.73999999999999</ele>
        <time>2018-07-06T16:41:13Z</time>
      </trkpt>
      <trkpt lat="47.946555968374014" lon="-3.772836020216346">
        <ele>122.70999999999999</ele>
        <time>2018-07-06T16:41:14Z</time>
      </trkpt>
      <trkpt lat="47.9447400290519" lon="-3.770830985158682">
        <ele>128.47</ele>
        <time>2018-07-06T16:41:26Z</time>
      </trkpt>
      <trkpt lat="47.943692961707711" lon="-3.769177990034223">
        <ele>127.03</ele>
        <time>2018-07-06T16:41:34Z</time>
      </trkpt>
      <trkpt lat="47.943238997831941" lon="-3.767329026013613">
        <ele>123.67</ele>
        <time>2018-07-06T16:41:41Z</time>
      </trkpt>
      <trkpt lat="47.942911013960838" lon="-3.764913026243448">
        <ele>120.78</ele>
        <time>2018-07-06T16:41:50Z</time>
      </trkpt>
      <trkpt lat="47.942885030061007" lon="-3.764627035707235">
        <ele>120.3</ele>
        <time>2018-07-06T16:41:51Z</time>
      </trkpt>
      <trkpt lat="47.94248403981328" lon="-3.761757994070649">
        <ele>111.17</ele>
        <time>2018-07-06T16:42:00Z</time>
      </trkpt>
      <trkpt lat="47.941922033205628" lon="-3.758367011323571">
        <ele>102.04000000000001</ele>
        <time>2018-07-06T16:42:10Z</time>
      </trkpt>
      <trkpt lat="47.941800998523831" lon="-3.758053025230765">
        <ele>101.08</ele>
        <time>2018-07-06T16:42:11Z</time>
      </trkpt>
      <trkpt lat="47.940812017768621" lon="-3.755331002175808">
        <ele>101.56</ele>
        <time>2018-07-06T16:42:19Z</time>
      </trkpt>
      <trkpt lat="47.939898977056146" lon="-3.751800963655114">
        <ele>96.75</ele>
        <time>2018-07-06T16:42:29Z</time>
      </trkpt>
      <trkpt lat="47.939036982133985" lon="-3.748477036133409">
        <ele>98.670000000000002</ele>
        <time>2018-07-06T16:42:40Z</time>
      </trkpt>
      <trkpt lat="47.938286969438195" lon="-3.745328960940242">
        <ele>94.349999999999994</ele>
        <time>2018-07-06T16:42:50Z</time>
      </trkpt>
      <trkpt lat="47.937487000599504" lon="-3.742920001968741">
        <ele>85.209999999999994</ele>
        <time>2018-07-06T16:42:58Z</time>
      </trkpt>
      <trkpt lat="47.937019960954785" lon="-3.741384018212557">
        <ele>81.370000000000005</ele>
        <time>2018-07-06T16:43:03Z</time>
      </trkpt>
      <trkpt lat="47.936965981498361" lon="-3.74104798771441">
        <ele>80.890000000000001</ele>
        <time>2018-07-06T16:43:04Z</time>
      </trkpt>
      <trkpt lat="47.936933962628245" lon="-3.740708017721772">
        <ele>80.890000000000001</ele>
        <time>2018-07-06T16:43:05Z</time>
      </trkpt>
      <trkpt lat="47.936933962628245" lon="-3.740361006930471">
        <ele>80.409999999999997</ele>
        <time>2018-07-06T16:43:06Z</time>
      </trkpt>
      <trkpt lat="47.936933962628245" lon="-3.740013996139169">
        <ele>80.409999999999997</ele>
        <time>2018-07-06T16:43:07Z</time>
      </trkpt>
      <trkpt lat="47.936951983720064" lon="-3.739675031974912">
        <ele>80.409999999999997</ele>
        <time>2018-07-06T16:43:08Z</time>
      </trkpt>
      <trkpt lat="47.936984002590179" lon="-3.739359034225345">
        <ele>80.890000000000001</ele>
        <time>2018-07-06T16:43:09Z</time>
      </trkpt>
      <trkpt lat="47.937221964821219" lon="-3.736842032521963">
        <ele>80.890000000000001</ele>
        <time>2018-07-06T16:43:17Z</time>
      </trkpt>
      <trkpt lat="47.937297988682985" lon="-3.73574098572135">
        <ele>81.370000000000005</ele>
        <time>2018-07-06T16:43:20Z</time>
      </trkpt>
      <trkpt lat="47.937283990904689" lon="-3.735034978017211">
        <ele>81.370000000000005</ele>
        <time>2018-07-06T16:43:22Z</time>
      </trkpt>
      <trkpt lat="47.937103025615215" lon="-3.733809962868691">
        <ele>80.409999999999997</ele>
        <time>2018-07-06T16:43:26Z</time>
      </trkpt>
      <trkpt lat="47.936370028182864" lon="-3.73159496113658">
        <ele>76.079999999999998</ele>
        <time>2018-07-06T16:43:34Z</time>
      </trkpt>
      <trkpt lat="47.9356739949435" lon="-3.72856599278748">
        <ele>66.469999999999999</ele>
        <time>2018-07-06T16:43:44Z</time>
      </trkpt>
      <trkpt lat="47.935578022152185" lon="-3.727950006723404">
        <ele>66.469999999999999</ele>
        <time>2018-07-06T16:43:46Z</time>
      </trkpt>
      <trkpt lat="47.93556503020227" lon="-3.727637026458979">
        <ele>66.469999999999999</ele>
        <time>2018-07-06T16:43:47Z</time>
      </trkpt>
      <trkpt lat="47.935576010495424" lon="-3.727323040366173">
        <ele>66.469999999999999</ele>
        <time>2018-07-06T16:43:48Z</time>
      </trkpt>
      <trkpt lat="47.935597971081734" lon="-3.727009976282716">
        <ele>67.430000000000007</ele>
        <time>2018-07-06T16:43:49Z</time>
      </trkpt>
      <trkpt lat="47.93563200160861" lon="-3.726701019331813">
        <ele>67.909999999999997</ele>
        <time>2018-07-06T16:43:50Z</time>
      </trkpt>
      <trkpt lat="47.935690004378557" lon="-3.726412011310458">
        <ele>68.870000000000005</ele>
        <time>2018-07-06T16:43:51Z</time>
      </trkpt>
      <trkpt lat="47.935765022411942" lon="-3.726133983582258">
        <ele>69.829999999999998</ele>
        <time>2018-07-06T16:43:52Z</time>
      </trkpt>
      <trkpt lat="47.935854960232973" lon="-3.725873976945877">
        <ele>70.790000000000006</ele>
        <time>2018-07-06T16:43:53Z</time>
      </trkpt>
      <trkpt lat="47.935957973822951" lon="-3.725617993623018">
        <ele>71.760000000000005</ele>
        <time>2018-07-06T16:43:54Z</time>
      </trkpt>
      <trkpt lat="47.936062999069691" lon="-3.725358992815018">
        <ele>72.719999999999999</ele>
        <time>2018-07-06T16:43:55Z</time>
      </trkpt>
      <trkpt lat="47.93616802431643" lon="-3.725100997835398">
        <ele>73.680000000000007</ele>
        <time>2018-07-06T16:43:56Z</time>
      </trkpt>
      <trkpt lat="47.937021972611547" lon="-3.723181961104274">
        <ele>81.849999999999994</ele>
        <time>2018-07-06T16:44:04Z</time>
      </trkpt>
      <trkpt lat="47.937113000079989" lon="-3.722943998873234">
        <ele>81.849999999999994</ele>
        <time>2018-07-06T16:44:05Z</time>
      </trkpt>
      <trkpt lat="47.937201010063291" lon="-3.722701007500291">
        <ele>82.329999999999998</ele>
        <time>2018-07-06T16:44:06Z</time>
      </trkpt>
      <trkpt lat="47.937261024489999" lon="-3.722436977550387">
        <ele>83.290000000000006</ele>
        <time>2018-07-06T16:44:07Z</time>
      </trkpt>
      <trkpt lat="47.937318021431565" lon="-3.72216397896409">
        <ele>83.769999999999996</ele>
        <time>2018-07-06T16:44:08Z</time>
      </trkpt>
      <trkpt lat="47.937330007553101" lon="-3.721877988427877">
        <ele>84.25</ele>
        <time>2018-07-06T16:44:09Z</time>
      </trkpt>
      <trkpt lat="47.937340987846255" lon="-3.721588980406523">
        <ele>85.209999999999994</ele>
        <time>2018-07-06T16:44:10Z</time>
      </trkpt>
      <trkpt lat="47.937317015603185" lon="-3.721310030668974">
        <ele>86.180000000000007</ele>
        <time>2018-07-06T16:44:11Z</time>
      </trkpt>
      <trkpt lat="47.937292037531734" lon="-3.721029991284013">
        <ele>87.140000000000001</ele>
        <time>2018-07-06T16:44:12Z</time>
      </trkpt>
      <trkpt lat="47.937247026711702" lon="-3.720760010182858">
        <ele>88.099999999999994</ele>
        <time>2018-07-06T16:44:13Z</time>
      </trkpt>
      <trkpt lat="47.937173014506698" lon="-3.720497991889715">
        <ele>89.060000000000002</ele>
        <time>2018-07-06T16:44:14Z</time>
      </trkpt>
      <trkpt lat="47.937089027836919" lon="-3.720246031880379">
        <ele>90.5</ele>
        <time>2018-07-06T16:44:15Z</time>
      </trkpt>
      <trkpt lat="47.936981990933418" lon="-3.720005974173546">
        <ele>91.459999999999994</ele>
        <time>2018-07-06T16:44:16Z</time>
      </trkpt>
      <trkpt lat="47.936851987615228" lon="-3.71979801915586">
        <ele>92.420000000000002</ele>
        <time>2018-07-06T16:44:17Z</time>
      </trkpt>
      <trkpt lat="47.936716033145785" lon="-3.719602972269058">
        <ele>93.390000000000001</ele>
        <time>2018-07-06T16:44:18Z</time>
      </trkpt>
      <trkpt lat="47.935468973591924" lon="-3.71790898963809">
        <ele>94.829999999999998</ele>
        <time>2018-07-06T16:44:27Z</time>
      </trkpt>
      <trkpt lat="47.93372000567615" lon="-3.715578988194466">
        <ele>88.579999999999998</ele>
        <time>2018-07-06T16:44:37Z</time>
      </trkpt>
      <trkpt lat="47.93326998129487" lon="-3.714883960783482">
        <ele>88.099999999999994</ele>
        <time>2018-07-06T16:44:40Z</time>
      </trkpt>
      <trkpt lat="47.933148024603724" lon="-3.714635018259287">
        <ele>87.620000000000005</ele>
        <time>2018-07-06T16:44:41Z</time>
      </trkpt>
      <trkpt lat="47.933060014620423" lon="-3.714352967217565">
        <ele>87.620000000000005</ele>
        <time>2018-07-06T16:44:42Z</time>
      </trkpt>
      <trkpt lat="47.932970998808742" lon="-3.714070999994874">
        <ele>87.620000000000005</ele>
        <time>2018-07-06T16:44:43Z</time>
      </trkpt>
      <trkpt lat="47.932917019352317" lon="-3.713772017508745">
        <ele>87.620000000000005</ele>
        <time>2018-07-06T16:44:44Z</time>
      </trkpt>
      <trkpt lat="47.932877959683537" lon="-3.713458031415939">
        <ele>87.140000000000001</ele>
        <time>2018-07-06T16:44:45Z</time>
      </trkpt>
      <trkpt lat="47.93283998966217" lon="-3.713143039494753">
        <ele>87.140000000000001</ele>
        <time>2018-07-06T16:44:46Z</time>
      </trkpt>
      <trkpt lat="47.932677967473865" lon="-3.711571013554931">
        <ele>84.730000000000004</ele>
        <time>2018-07-06T16:44:52Z</time>
      </trkpt>
      <trkpt lat="47.932508988305926" lon="-3.709632027894259">
        <ele>79.450000000000003</ele>
        <time>2018-07-06T16:45:03Z</time>
      </trkpt>
      <trkpt lat="47.932507982477546" lon="-3.708826024085283">
        <ele>77.040000000000006</ele>
        <time>2018-07-06T16:45:08Z</time>
      </trkpt>
      <trkpt lat="47.932512005791068" lon="-3.708689985796809">
        <ele>76.560000000000002</ele>
        <time>2018-07-06T16:45:09Z</time>
      </trkpt>
      <trkpt lat="47.932385019958019" lon="-3.708529975265265">
        <ele>76.079999999999998</ele>
        <time>2018-07-06T16:45:10Z</time>
      </trkpt>
      <trkpt lat="47.932319976389408" lon="-3.70832696557045">
        <ele>75.120000000000005</ele>
        <time>2018-07-06T16:45:12Z</time>
      </trkpt>
      <trkpt lat="47.93234696611762" lon="-3.708177013322711">
        <ele>75.120000000000005</ele>
        <time>2018-07-06T16:45:13Z</time>
      </trkpt>
      <trkpt lat="47.932362975552678" lon="-3.708122028037906">
        <ele>75.599999999999994</ele>
        <time>2018-07-06T16:45:14Z</time>
      </trkpt>
      <trkpt lat="47.932501025497913" lon="-3.707959000021219">
        <ele>75.599999999999994</ele>
        <time>2018-07-06T16:45:15Z</time>
      </trkpt>
      <trkpt lat="47.932518040761352" lon="-3.707809969782829">
        <ele>75.599999999999994</ele>
        <time>2018-07-06T16:45:16Z</time>
      </trkpt>
      <trkpt lat="47.932536983862519" lon="-3.707646019756794">
        <ele>76.079999999999998</ele>
        <time>2018-07-06T16:45:17Z</time>
      </trkpt>
      <trkpt lat="47.932780981063843" lon="-3.705894034355879">
        <ele>78.969999999999999</ele>
        <time>2018-07-06T16:45:26Z</time>
      </trkpt>
      <trkpt lat="47.933091027662158" lon="-3.703816998749971">
        <ele>82.810000000000002</ele>
        <time>2018-07-06T16:45:37Z</time>
      </trkpt>
      <trkpt lat="47.933067977428436" lon="-3.703670985996723">
        <ele>83.290000000000006</ele>
        <time>2018-07-06T16:45:38Z</time>
      </trkpt>
      <trkpt lat="47.933019027113914" lon="-3.703352976590395">
        <ele>84.25</ele>
        <time>2018-07-06T16:45:40Z</time>
      </trkpt>
      <trkpt lat="47.932982984930277" lon="-3.703196989372373">
        <ele>84.25</ele>
        <time>2018-07-06T16:45:41Z</time>
      </trkpt>
      <trkpt lat="47.932932022958994" lon="-3.703036978840828">
        <ele>84.25</ele>
        <time>2018-07-06T16:45:42Z</time>
      </trkpt>
      <trkpt lat="47.93288198299706" lon="-3.702876968309283">
        <ele>84.730000000000004</ele>
        <time>2018-07-06T16:45:43Z</time>
      </trkpt>
      <trkpt lat="47.932793973013759" lon="-3.702754005789757">
        <ele>84.730000000000004</ele>
        <time>2018-07-06T16:45:44Z</time>
      </trkpt>
      <trkpt lat="47.932708980515599" lon="-3.702642023563385">
        <ele>85.209999999999994</ele>
        <time>2018-07-06T16:45:45Z</time>
      </trkpt>
      <trkpt lat="47.932631028816104" lon="-3.702538004145026">
        <ele>85.209999999999994</ele>
        <time>2018-07-06T16:45:46Z</time>
      </trkpt>
      <trkpt lat="47.932339003309608" lon="-3.702147994190455">
        <ele>86.180000000000007</ele>
        <time>2018-07-06T16:45:50Z</time>
      </trkpt>
      <trkpt lat="47.932293992489576" lon="-3.702014973387122">
        <ele>86.659999999999997</ele>
        <time>2018-07-06T16:45:51Z</time>
      </trkpt>
      <trkpt lat="47.932256022468209" lon="-3.701870972290635">
        <ele>87.140000000000001</ele>
        <time>2018-07-06T16:45:52Z</time>
      </trkpt>
      <trkpt lat="47.932256022468209" lon="-3.701718002557755">
        <ele>87.620000000000005</ele>
        <time>2018-07-06T16:45:53Z</time>
      </trkpt>
      <trkpt lat="47.932256022468209" lon="-3.701560003682971">
        <ele>87.620000000000005</ele>
        <time>2018-07-06T16:45:54Z</time>
      </trkpt>
      <trkpt lat="47.932256022468209" lon="-3.701395969837904">
        <ele>88.099999999999994</ele>
        <time>2018-07-06T16:45:55Z</time>
      </trkpt>
      <trkpt lat="47.932264991104603" lon="-3.701226990669966">
        <ele>88.099999999999994</ele>
        <time>2018-07-06T16:45:56Z</time>
      </trkpt>
      <trkpt lat="47.932342020794749" lon="-3.700223006308079">
        <ele>89.060000000000002</ele>
        <time>2018-07-06T16:46:02Z</time>
      </trkpt>
      <trkpt lat="47.93234403245151" lon="-3.700083028525114">
        <ele>89.060000000000002</ele>
        <time>2018-07-06T16:46:03Z</time>
      </trkpt>
      <trkpt lat="47.93234596028924" lon="-3.699940033257008">
        <ele>89.060000000000002</ele>
        <time>2018-07-06T16:46:04Z</time>
      </trkpt>
      <trkpt lat="47.932347971946001" lon="-3.699798965826631">
        <ele>89.060000000000002</ele>
        <time>2018-07-06T16:46:05Z</time>
      </trkpt>
      <trkpt lat="47.932349983602762" lon="-3.699656976386905">
        <ele>89.060000000000002</ele>
        <time>2018-07-06T16:46:06Z</time>
      </trkpt>
      <trkpt lat="47.932358030229807" lon="-3.699117014184594">
        <ele>89.060000000000002</ele>
        <time>2018-07-06T16:46:10Z</time>
      </trkpt>
      <trkpt lat="47.932362975552678" lon="-3.698788024485111">
        <ele>88.579999999999998</ele>
        <time>2018-07-06T16:46:13Z</time>
      </trkpt>
      <trkpt lat="47.932374961674213" lon="-3.698680987581611">
        <ele>88.579999999999998</ele>
        <time>2018-07-06T16:46:15Z</time>
      </trkpt>
      <trkpt lat="47.932385019958019" lon="-3.698594989255071">
        <ele>88.579999999999998</ele>
        <time>2018-07-06T16:46:16Z</time>
      </trkpt>
      <trkpt lat="47.932385019958019" lon="-3.698526006191969">
        <ele>88.099999999999994</ele>
        <time>2018-07-06T16:46:17Z</time>
      </trkpt>
      <trkpt lat="47.932385019958019" lon="-3.698445037007332">
        <ele>88.099999999999994</ele>
        <time>2018-07-06T16:46:18Z</time>
      </trkpt>
      <trkpt lat="47.932385019958019" lon="-3.698365995660424">
        <ele>87.620000000000005</ele>
        <time>2018-07-06T16:46:19Z</time>
      </trkpt>
      <trkpt lat="47.932385019958019" lon="-3.698295000940561">
        <ele>87.620000000000005</ele>
        <time>2018-07-06T16:46:20Z</time>
      </trkpt>
      <trkpt lat="47.932385019958019" lon="-3.698219982907176">
        <ele>86.659999999999997</ele>
        <time>2018-07-06T16:46:21Z</time>
      </trkpt>
      <trkpt lat="47.932380996644497" lon="-3.698125015944243">
        <ele>86.180000000000007</ele>
        <time>2018-07-06T16:46:22Z</time>
      </trkpt>
      <trkpt lat="47.932360041886568" lon="-3.697876995429397">
        <ele>85.209999999999994</ele>
        <time>2018-07-06T16:46:25Z</time>
      </trkpt>
      <trkpt lat="47.932350989431143" lon="-3.697123965248466">
        <ele>81.370000000000005</ele>
        <time>2018-07-06T16:46:33Z</time>
      </trkpt>
      <trkpt lat="47.932353001087904" lon="-3.697019023820758">
        <ele>81.370000000000005</ele>
        <time>2018-07-06T16:46:34Z</time>
      </trkpt>
      <trkpt lat="47.932354006916285" lon="-3.69691701605916">
        <ele>80.890000000000001</ele>
        <time>2018-07-06T16:46:35Z</time>
      </trkpt>
      <trkpt lat="47.932356018573046" lon="-3.696818025782704">
        <ele>80.890000000000001</ele>
        <time>2018-07-06T16:46:36Z</time>
      </trkpt>
      <trkpt lat="47.932358030229807" lon="-3.696720041334629">
        <ele>80.890000000000001</ele>
        <time>2018-07-06T16:46:37Z</time>
      </trkpt>
      <trkpt lat="47.932361969724298" lon="-3.696520971134305">
        <ele>81.849999999999994</ele>
        <time>2018-07-06T16:46:39Z</time>
      </trkpt>
      <trkpt lat="47.932360963895917" lon="-3.696312010288239">
        <ele>82.329999999999998</ele>
        <time>2018-07-06T16:46:41Z</time>
      </trkpt>
      <trkpt lat="47.932333974167705" lon="-3.696215031668544">
        <ele>82.810000000000002</ele>
        <time>2018-07-06T16:46:42Z</time>
      </trkpt>
      <trkpt lat="47.931990986689925" lon="-3.695124965161085">
        <ele>87.620000000000005</ele>
        <time>2018-07-06T16:46:52Z</time>
      </trkpt>
      <trkpt lat="47.931566024199128" lon="-3.693917971104384">
        <ele>90.019999999999996</ele>
        <time>2018-07-06T16:47:00Z</time>
      </trkpt>
      <trkpt lat="47.930878037586808" lon="-3.692200016230345">
        <ele>94.349999999999994</ele>
        <time>2018-07-06T16:47:10Z</time>
      </trkpt>
      <trkpt lat="47.930273031815886" lon="-3.690889002755284">
        <ele>92.900000000000006</ele>
        <time>2018-07-06T16:47:20Z</time>
      </trkpt>
      <trkpt lat="47.930202037096024" lon="-3.690735027194023">
        <ele>92.900000000000006</ele>
        <time>2018-07-06T16:47:22Z</time>
      </trkpt>
      <trkpt lat="47.930131964385509" lon="-3.690720023587346">
        <ele>92.900000000000006</ele>
        <time>2018-07-06T16:47:23Z</time>
      </trkpt>
      <trkpt lat="47.93008703738451" lon="-3.690697979182005">
        <ele>92.420000000000002</ele>
        <time>2018-07-06T16:47:24Z</time>
      </trkpt>
      <trkpt lat="47.93006700463593" lon="-3.690505027770996">
        <ele>92.420000000000002</ele>
        <time>2018-07-06T16:47:25Z</time>
      </trkpt>
      <trkpt lat="47.930058035999537" lon="-3.690483989194036">
        <ele>91.939999999999998</ele>
        <time>2018-07-06T16:47:26Z</time>
      </trkpt>
      <trkpt lat="47.930020987987518" lon="-3.690398996695876">
        <ele>91.939999999999998</ele>
        <time>2018-07-06T16:47:27Z</time>
      </trkpt>
      <trkpt lat="47.929976982995868" lon="-3.690297994762659">
        <ele>91.939999999999998</ele>
        <time>2018-07-06T16:47:28Z</time>
      </trkpt>
      <trkpt lat="47.929927026852965" lon="-3.690182995051146">
        <ele>91.939999999999998</ele>
        <time>2018-07-06T16:47:29Z</time>
      </trkpt>
      <trkpt lat="47.929542968049645" lon="-3.689386965706945">
        <ele>91.939999999999998</ele>
        <time>2018-07-06T16:47:35Z</time>
      </trkpt>
      <trkpt lat="47.928660018369555" lon="-3.688512984663248">
        <ele>91.459999999999994</ele>
        <time>2018-07-06T16:47:43Z</time>
      </trkpt>
      <trkpt lat="47.927600964903831" lon="-3.687579995021224">
        <ele>89.540000000000006</ele>
        <time>2018-07-06T16:47:53Z</time>
      </trkpt>
      <trkpt lat="47.927526030689478" lon="-3.687511011958122">
        <ele>88.579999999999998</ele>
        <time>2018-07-06T16:47:54Z</time>
      </trkpt>
      <trkpt lat="47.927234005182981" lon="-3.687240025028586">
        <ele>84.25</ele>
        <time>2018-07-06T16:48:01Z</time>
      </trkpt>
      <trkpt lat="47.927192011848092" lon="-3.687200965359807">
        <ele>83.290000000000006</ele>
        <time>2018-07-06T16:48:02Z</time>
      </trkpt>
      <trkpt lat="47.926663029938936" lon="-3.686691010370851">
        <ele>81.370000000000005</ele>
        <time>2018-07-06T16:48:10Z</time>
      </trkpt>
      <trkpt lat="47.926449961960316" lon="-3.686439972370863">
        <ele>79.930000000000007</ele>
        <time>2018-07-06T16:48:12Z</time>
      </trkpt>
      <trkpt lat="47.925775973126292" lon="-3.685022005811334">
        <ele>77.040000000000006</ele>
        <time>2018-07-06T16:48:20Z</time>
      </trkpt>
      <trkpt lat="47.925614034757018" lon="-3.684437032788992">
        <ele>77.519999999999996</ele>
        <time>2018-07-06T16:48:23Z</time>
      </trkpt>
      <trkpt lat="47.925378000363708" lon="-3.682524031028152">
        <ele>78</ele>
        <time>2018-07-06T16:48:30Z</time>
      </trkpt>
      <trkpt lat="47.925016991794109" lon="-3.680204004049301">
        <ele>81.849999999999994</ele>
        <time>2018-07-06T16:48:37Z</time>
      </trkpt>
      <trkpt lat="47.924018958583474" lon="-3.677071016281843">
        <ele>87.620000000000005</ele>
        <time>2018-07-06T16:48:47Z</time>
      </trkpt>
      <trkpt lat="47.923150006681681" lon="-3.673864016309381">
        <ele>91.939999999999998</ele>
        <time>2018-07-06T16:48:57Z</time>
      </trkpt>
      <trkpt lat="47.922550030052662" lon="-3.669225974008441">
        <ele>97.230000000000004</ele>
        <time>2018-07-06T16:49:11Z</time>
      </trkpt>
      <trkpt lat="47.922209976240993" lon="-3.665953008458018">
        <ele>101.56</ele>
        <time>2018-07-06T16:49:21Z</time>
      </trkpt>
      <trkpt lat="47.921584015712142" lon="-3.663827022537589">
        <ele>101.56</ele>
        <time>2018-07-06T16:49:28Z</time>
      </trkpt>
      <trkpt lat="47.921047993004322" lon="-3.662040000781417">
        <ele>101.08</ele>
        <time>2018-07-06T16:49:34Z</time>
      </trkpt>
      <trkpt lat="47.92082997970283" lon="-3.659755010157824">
        <ele>97.709999999999994</ele>
        <time>2018-07-06T16:49:41Z</time>
      </trkpt>
      <trkpt lat="47.921078000217676" lon="-3.656519008800387">
        <ele>98.670000000000002</ele>
        <time>2018-07-06T16:49:51Z</time>
      </trkpt>
      <trkpt lat="47.921341024339199" lon="-3.65289400331676">
        <ele>99.629999999999995</ele>
        <time>2018-07-06T16:50:03Z</time>
      </trkpt>
      <trkpt lat="47.921717958524823" lon="-3.649555994197726">
        <ele>99.150000000000006</ele>
        <time>2018-07-06T16:50:14Z</time>
      </trkpt>
      <trkpt lat="47.921986011788249" lon="-3.646520990878344">
        <ele>97.230000000000004</ele>
        <time>2018-07-06T16:50:24Z</time>
      </trkpt>
      <trkpt lat="47.921890038996935" lon="-3.644348988309503">
        <ele>97.230000000000004</ele>
        <time>2018-07-06T16:50:32Z</time>
      </trkpt>
      <trkpt lat="47.921350998803973" lon="-3.639828041195869">
        <ele>97.709999999999994</ele>
        <time>2018-07-06T16:50:49Z</time>
      </trkpt>
      <trkpt lat="47.920961994677782" lon="-3.636619029566646">
        <ele>93.870000000000005</ele>
        <time>2018-07-06T16:51:01Z</time>
      </trkpt>
      <trkpt lat="47.920481963083148" lon="-3.632888998836279">
        <ele>92.420000000000002</ele>
        <time>2018-07-06T16:51:15Z</time>
      </trkpt>
      <trkpt lat="47.92011902667582" lon="-3.629319984465838">
        <ele>94.349999999999994</ele>
        <time>2018-07-06T16:51:27Z</time>
      </trkpt>
      <trkpt lat="47.919704960659146" lon="-3.626112984493375">
        <ele>90.980000000000004</ele>
        <time>2018-07-06T16:51:38Z</time>
      </trkpt>
      <trkpt lat="47.91893701069057" lon="-3.622661987319589">
        <ele>89.540000000000006</ele>
        <time>2018-07-06T16:51:50Z</time>
      </trkpt>
      <trkpt lat="47.91820895858109" lon="-3.619318027049303">
        <ele>88.579999999999998</ele>
        <time>2018-07-06T16:52:02Z</time>
      </trkpt>
      <trkpt lat="47.917337995022535" lon="-3.615334024652839">
        <ele>87.620000000000005</ele>
        <time>2018-07-06T16:52:18Z</time>
      </trkpt>
      <trkpt lat="47.91633602231741" lon="-3.611152963712812">
        <ele>88.579999999999998</ele>
        <time>2018-07-06T16:52:35Z</time>
      </trkpt>
      <trkpt lat="47.915444020181894" lon="-3.609086992219091">
        <ele>88.579999999999998</ele>
        <time>2018-07-06T16:52:44Z</time>
      </trkpt>
      <trkpt lat="47.913767974823713" lon="-3.605951992794871">
        <ele>84.730000000000004</ele>
        <time>2018-07-06T16:52:57Z</time>
      </trkpt>
      <trkpt lat="47.912390995770693" lon="-3.603669013828039">
        <ele>83.769999999999996</ele>
        <time>2018-07-06T16:53:07Z</time>
      </trkpt>
      <trkpt lat="47.910706987604499" lon="-3.600994013249874">
        <ele>89.540000000000006</ele>
        <time>2018-07-06T16:53:19Z</time>
      </trkpt>
      <trkpt lat="47.908747969195247" lon="-3.597381999716163">
        <ele>88.099999999999994</ele>
        <time>2018-07-06T16:53:34Z</time>
      </trkpt>
      <trkpt lat="47.907123975455761" lon="-3.595481989905238">
        <ele>80.409999999999997</ele>
        <time>2018-07-06T16:53:44Z</time>
      </trkpt>
      <trkpt lat="47.906117979437113" lon="-3.594467025250197">
        <ele>76.560000000000002</ele>
        <time>2018-07-06T16:53:50Z</time>
      </trkpt>
      <trkpt lat="47.905974984169006" lon="-3.594278013333678">
        <ele>76.079999999999998</ele>
        <time>2018-07-06T16:53:51Z</time>
      </trkpt>
      <trkpt lat="47.905835006386042" lon="-3.594094030559063">
        <ele>75.599999999999994</ele>
        <time>2018-07-06T16:53:52Z</time>
      </trkpt>
      <trkpt lat="47.905731992796063" lon="-3.593876017257571">
        <ele>75.599999999999994</ele>
        <time>2018-07-06T16:53:53Z</time>
      </trkpt>
      <trkpt lat="47.905634008347988" lon="-3.593656998127699">
        <ele>75.120000000000005</ele>
        <time>2018-07-06T16:53:54Z</time>
      </trkpt>
      <trkpt lat="47.905539041385055" lon="-3.593442002311349">
        <ele>75.120000000000005</ele>
        <time>2018-07-06T16:53:55Z</time>
      </trkpt>
      <trkpt lat="47.904543019831181" lon="-3.591361027210951">
        <ele>81.849999999999994</ele>
        <time>2018-07-06T16:54:05Z</time>
      </trkpt>
      <trkpt lat="47.903857966884971" lon="-3.59022201038897">
        <ele>85.209999999999994</ele>
        <time>2018-07-06T16:54:12Z</time>
      </trkpt>
      <trkpt lat="47.902980968356133" lon="-3.588669011369348">
        <ele>84.730000000000004</ele>
        <time>2018-07-06T16:54:23Z</time>
      </trkpt>
      <trkpt lat="47.902000034227967" lon="-3.586727008223534">
        <ele>84.730000000000004</ele>
        <time>2018-07-06T16:54:36Z</time>
      </trkpt>
      <trkpt lat="47.901003006845713" lon="-3.584346966817975">
        <ele>79.930000000000007</ele>
        <time>2018-07-06T16:54:51Z</time>
      </trkpt>
      <trkpt lat="47.900441000238061" lon="-3.582946015521884">
        <ele>76.560000000000002</ele>
        <time>2018-07-06T16:55:01Z</time>
      </trkpt>
      <trkpt lat="47.899628039449453" lon="-3.581003006547689">
        <ele>73.200000000000003</ele>
        <time>2018-07-06T16:55:13Z</time>
      </trkpt>
      <trkpt lat="47.898816000670195" lon="-3.579357974231243">
        <ele>73.200000000000003</ele>
        <time>2018-07-06T16:55:23Z</time>
      </trkpt>
      <trkpt lat="47.897894997149706" lon="-3.577615041285753">
        <ele>75.120000000000005</ele>
        <time>2018-07-06T16:55:35Z</time>
      </trkpt>
      <trkpt lat="47.896991008892655" lon="-3.575899014249444">
        <ele>79.450000000000003</ele>
        <time>2018-07-06T16:55:47Z</time>
      </trkpt>
      <trkpt lat="47.896493962034583" lon="-3.575039030984044">
        <ele>79.450000000000003</ele>
        <time>2018-07-06T16:55:53Z</time>
      </trkpt>
      <trkpt lat="47.896429002285004" lon="-3.574931994080544">
        <ele>79.450000000000003</ele>
        <time>2018-07-06T16:55:54Z</time>
      </trkpt>
      <trkpt lat="47.89624996483326" lon="-3.574955966323614">
        <ele>79.450000000000003</ele>
        <time>2018-07-06T16:55:55Z</time>
      </trkpt>
      <trkpt lat="47.896193973720074" lon="-3.574921013787389">
        <ele>79.450000000000003</ele>
        <time>2018-07-06T16:55:56Z</time>
      </trkpt>
      <trkpt lat="47.896037986502051" lon="-3.574890000745654">
        <ele>78.969999999999999</ele>
        <time>2018-07-06T16:55:57Z</time>
      </trkpt>
      <trkpt lat="47.89594997651875" lon="-3.574982034042478">
        <ele>78.480000000000004</ele>
        <time>2018-07-06T16:55:58Z</time>
      </trkpt>
      <trkpt lat="47.895849980413914" lon="-3.575086975470185">
        <ele>78.480000000000004</ele>
        <time>2018-07-06T16:55:59Z</time>
      </trkpt>
      <trkpt lat="47.895741015672684" lon="-3.575201975181699">
        <ele>77.519999999999996</ele>
        <time>2018-07-06T16:56:00Z</time>
      </trkpt>
      <trkpt lat="47.895624004304409" lon="-3.575324015691876">
        <ele>77.040000000000006</ele>
        <time>2018-07-06T16:56:01Z</time>
      </trkpt>
      <trkpt lat="47.894606022164226" lon="-3.576361024752259">
        <ele>72.719999999999999</ele>
        <time>2018-07-06T16:56:08Z</time>
      </trkpt>
      <trkpt lat="47.894246019423008" lon="-3.576648021116853">
        <ele>71.760000000000005</ele>
        <time>2018-07-06T16:56:10Z</time>
      </trkpt>
      <trkpt lat="47.894050972536206" lon="-3.576754974201322">
        <ele>71.760000000000005</ele>
        <time>2018-07-06T16:56:11Z</time>
      </trkpt>
      <trkpt lat="47.893439009785652" lon="-3.576951026916504">
        <ele>70.790000000000006</ele>
        <time>2018-07-06T16:56:14Z</time>
      </trkpt>
      <trkpt lat="47.893228959292173" lon="-3.576959995552898">
        <ele>71.269999999999996</ele>
        <time>2018-07-06T16:56:15Z</time>
      </trkpt>
      <trkpt lat="47.893019998446107" lon="-3.57696795836091">
        <ele>71.269999999999996</ele>
        <time>2018-07-06T16:56:16Z</time>
      </trkpt>
      <trkpt lat="47.890735007822514" lon="-3.576435036957264">
        <ele>73.680000000000007</ele>
        <time>2018-07-06T16:56:27Z</time>
      </trkpt>
      <trkpt lat="47.890562005341053" lon="-3.576303021982312">
        <ele>73.680000000000007</ele>
        <time>2018-07-06T16:56:28Z</time>
      </trkpt>
      <trkpt lat="47.888912027701735" lon="-3.575029978528619">
        <ele>72.719999999999999</ele>
        <time>2018-07-06T16:56:38Z</time>
      </trkpt>
      <trkpt lat="47.88872997276485" lon="-3.574977004900575">
        <ele>72.239999999999995</ele>
        <time>2018-07-06T16:56:39Z</time>
      </trkpt>
      <trkpt lat="47.888551019132137" lon="-3.574934005737305">
        <ele>71.760000000000005</ele>
        <time>2018-07-06T16:56:40Z</time>
      </trkpt>
      <trkpt lat="47.887153001502156" lon="-3.575135003775358">
        <ele>68.390000000000001</ele>
        <time>2018-07-06T16:56:48Z</time>
      </trkpt>
      <trkpt lat="47.8856569994241" lon="-3.575299037620425">
        <ele>67.430000000000007</ele>
        <time>2018-07-06T16:56:56Z</time>
      </trkpt>
      <trkpt lat="47.884078016504645" lon="-3.575002988800407">
        <ele>65.510000000000005</ele>
        <time>2018-07-06T16:57:04Z</time>
      </trkpt>
      <trkpt lat="47.882183035835624" lon="-3.575046993792057">
        <ele>60.219999999999999</ele>
        <time>2018-07-06T16:57:14Z</time>
      </trkpt>
      <trkpt lat="47.880679992958903" lon="-3.575414959341288">
        <ele>59.740000000000002</ele>
        <time>2018-07-06T16:57:23Z</time>
      </trkpt>
      <trkpt lat="47.879100004211068" lon="-3.576323976740241">
        <ele>60.700000000000003</ele>
        <time>2018-07-06T16:57:33Z</time>
      </trkpt>
      <trkpt lat="47.877554967999458" lon="-3.577033001929522">
        <ele>57.340000000000003</ele>
        <time>2018-07-06T16:57:42Z</time>
      </trkpt>
      <trkpt lat="47.875878000631928" lon="-3.577359979972243">
        <ele>54.93</ele>
        <time>2018-07-06T16:57:50Z</time>
      </trkpt>
      <trkpt lat="47.874712999910116" lon="-3.577485037967563">
        <ele>54.93</ele>
        <time>2018-07-06T16:57:55Z</time>
      </trkpt>
      <trkpt lat="47.873284975066781" lon="-3.577148001641035">
        <ele>58.780000000000001</ele>
        <time>2018-07-06T16:58:02Z</time>
      </trkpt>
      <trkpt lat="47.870840979740024" lon="-3.576275026425719">
        <ele>62.140000000000001</ele>
        <time>2018-07-06T16:58:15Z</time>
      </trkpt>
      <trkpt lat="47.869728030636907" lon="-3.575769010931253">
        <ele>63.579999999999998</ele>
        <time>2018-07-06T16:58:23Z</time>
      </trkpt>
      <trkpt lat="47.868934012949467" lon="-3.575457036495209">
        <ele>65.030000000000001</ele>
        <time>2018-07-06T16:58:31Z</time>
      </trkpt>
      <trkpt lat="47.868857989087701" lon="-3.57546198181808">
        <ele>65.510000000000005</ele>
        <time>2018-07-06T16:58:32Z</time>
      </trkpt>
      <trkpt lat="47.868784982711077" lon="-3.575467010959983">
        <ele>65.989999999999995</ele>
        <time>2018-07-06T16:58:33Z</time>
      </trkpt>
      <trkpt lat="47.868657996878028" lon="-3.575529037043452">
        <ele>66.950000000000003</ele>
        <time>2018-07-06T16:58:35Z</time>
      </trkpt>
      <trkpt lat="47.868581973016262" lon="-3.575552003458142">
        <ele>66.950000000000003</ele>
        <time>2018-07-06T16:58:36Z</time>
      </trkpt>
      <trkpt lat="47.868519024923444" lon="-3.575520990416408">
        <ele>67.430000000000007</ele>
        <time>2018-07-06T16:58:37Z</time>
      </trkpt>
      <trkpt lat="47.868449036031961" lon="-3.575459970161319">
        <ele>67.909999999999997</ele>
        <time>2018-07-06T16:58:38Z</time>
      </trkpt>
      <trkpt lat="47.868412993848324" lon="-3.57537598349154">
        <ele>68.390000000000001</ele>
        <time>2018-07-06T16:58:39Z</time>
      </trkpt>
      <trkpt lat="47.868397990241647" lon="-3.575284034013748">
        <ele>68.390000000000001</ele>
        <time>2018-07-06T16:58:40Z</time>
      </trkpt>
      <trkpt lat="47.868397990241647" lon="-3.575183032080531">
        <ele>68.390000000000001</ele>
        <time>2018-07-06T16:58:41Z</time>
      </trkpt>
      <trkpt lat="47.868421040475368" lon="-3.575092004612088">
        <ele>68.870000000000005</ele>
        <time>2018-07-06T16:58:42Z</time>
      </trkpt>
      <trkpt lat="47.868462027981877" lon="-3.575024027377367">
        <ele>68.870000000000005</ele>
        <time>2018-07-06T16:58:43Z</time>
      </trkpt>
      <trkpt lat="47.868527993559837" lon="-3.574970969930291">
        <ele>69.349999999999994</ele>
        <time>2018-07-06T16:58:44Z</time>
      </trkpt>
      <trkpt lat="47.868608962744474" lon="-3.574905004352331">
        <ele>68.870000000000005</ele>
        <time>2018-07-06T16:58:45Z</time>
      </trkpt>
      <trkpt lat="47.868664031848311" lon="-3.574814982712269">
        <ele>68.870000000000005</ele>
        <time>2018-07-06T16:58:46Z</time>
      </trkpt>
      <trkpt lat="47.868725974112749" lon="-3.574712974950671">
        <ele>68.870000000000005</ele>
        <time>2018-07-06T16:58:47Z</time>
      </trkpt>
      <trkpt lat="47.868794035166502" lon="-3.57460199855268">
        <ele>68.390000000000001</ele>
        <time>2018-07-06T16:58:48Z</time>
      </trkpt>
      <trkpt lat="47.868847008794546" lon="-3.5744300018996">
        <ele>67.909999999999997</ele>
        <time>2018-07-06T16:58:49Z</time>
      </trkpt>
      <trkpt lat="47.86887601017952" lon="-3.574254987761378">
        <ele>67.430000000000007</ele>
        <time>2018-07-06T16:58:50Z</time>
      </trkpt>
      <trkpt lat="47.868907023221254" lon="-3.574066981673241">
        <ele>67.430000000000007</ele>
        <time>2018-07-06T16:58:51Z</time>
      </trkpt>
      <trkpt lat="47.869034009054303" lon="-3.573478991165757">
        <ele>66.950000000000003</ele>
        <time>2018-07-06T16:58:54Z</time>
      </trkpt>
      <trkpt lat="47.869514040648937" lon="-3.572059012949467">
        <ele>65.989999999999995</ele>
        <time>2018-07-06T16:59:02Z</time>
      </trkpt>
      <trkpt lat="47.869873037561774" lon="-3.571108002215624">
        <ele>65.030000000000001</ele>
        <time>2018-07-06T16:59:08Z</time>
      </trkpt>
      <trkpt lat="47.870243014767766" lon="-3.569843005388975">
        <ele>64.069999999999993</ele>
        <time>2018-07-06T16:59:16Z</time>
      </trkpt>
      <trkpt lat="47.870281990617514" lon="-3.569676959887147">
        <ele>64.069999999999993</ele>
        <time>2018-07-06T16:59:17Z</time>
      </trkpt>
      <trkpt lat="47.870633024722338" lon="-3.568241978064179">
        <ele>61.18</ele>
        <time>2018-07-06T16:59:27Z</time>
      </trkpt>
      <trkpt lat="47.870785994455218" lon="-3.567304965108633">
        <ele>58.780000000000001</ele>
        <time>2018-07-06T16:59:34Z</time>
      </trkpt>
      <trkpt lat="47.870736960321665" lon="-3.567122993990779">
        <ele>58.780000000000001</ele>
        <time>2018-07-06T16:59:35Z</time>
      </trkpt>
      <trkpt lat="47.870707036927342" lon="-3.567049987614155">
        <ele>58.299999999999997</ele>
        <time>2018-07-06T16:59:37Z</time>
      </trkpt>
      <trkpt lat="47.870706031098962" lon="-3.566973963752389">
        <ele>57.82</ele>
        <time>2018-07-06T16:59:38Z</time>
      </trkpt>
      <trkpt lat="47.870730003342032" lon="-3.56688997708261">
        <ele>57.82</ele>
        <time>2018-07-06T16:59:39Z</time>
      </trkpt>
      <trkpt lat="47.870736960321665" lon="-3.56686600483954">
        <ele>57.82</ele>
        <time>2018-07-06T16:59:40Z</time>
      </trkpt>
      <trkpt lat="47.870861012488604" lon="-3.566745975986123">
        <ele>57.340000000000003</ele>
        <time>2018-07-06T16:59:41Z</time>
      </trkpt>
      <trkpt lat="47.870893031358719" lon="-3.566638017073274">
        <ele>57.340000000000003</ele>
        <time>2018-07-06T16:59:42Z</time>
      </trkpt>
      <trkpt lat="47.871008031070232" lon="-3.566253958269954">
        <ele>56.369999999999997</ele>
        <time>2018-07-06T16:59:45Z</time>
      </trkpt>
      <trkpt lat="47.871235013008118" lon="-3.564850995317102">
        <ele>53.009999999999998</ele>
        <time>2018-07-06T16:59:54Z</time>
      </trkpt>
      <trkpt lat="47.871442968025804" lon="-3.562814025208354">
        <ele>46.759999999999998</ele>
        <time>2018-07-06T17:00:07Z</time>
      </trkpt>
      <trkpt lat="47.871599039062858" lon="-3.561765030026436">
        <ele>44.840000000000003</ele>
        <time>2018-07-06T17:00:16Z</time>
      </trkpt>
      <trkpt lat="47.871603984385729" lon="-3.56173200532794">
        <ele>44.840000000000003</ele>
        <time>2018-07-06T17:00:24Z</time>
      </trkpt>
      <trkpt lat="47.871603984385729" lon="-3.56173200532794">
        <ele>44.840000000000003</ele>
        <time>2018-07-06T17:00:51Z</time>
      </trkpt>
      <trkpt lat="47.871654024347663" lon="-3.561356998980045">
        <ele>43.399999999999999</ele>
        <time>2018-07-06T17:00:59Z</time>
      </trkpt>
      <trkpt lat="47.871659975498915" lon="-3.561308970674872">
        <ele>42.439999999999998</ele>
        <time>2018-07-06T17:01:00Z</time>
      </trkpt>
      <trkpt lat="47.871582023799419" lon="-3.561150971800089">
        <ele>41.950000000000003</ele>
        <time>2018-07-06T17:01:01Z</time>
      </trkpt>
      <trkpt lat="47.871524021029472" lon="-3.561146026477218">
        <ele>41.950000000000003</ele>
        <time>2018-07-06T17:01:02Z</time>
      </trkpt>
      <trkpt lat="47.871466018259525" lon="-3.561142003163695">
        <ele>41.469999999999999</ele>
        <time>2018-07-06T17:01:03Z</time>
      </trkpt>
      <trkpt lat="47.870885990560055" lon="-3.560903035104275">
        <ele>38.109999999999999</ele>
        <time>2018-07-06T17:01:12Z</time>
      </trkpt>
      <trkpt lat="47.870029024779797" lon="-3.560683010146022">
        <ele>39.549999999999997</ele>
        <time>2018-07-06T17:01:22Z</time>
      </trkpt>
      <trkpt lat="47.869960963726044" lon="-3.560674963518977">
        <ele>40.030000000000001</ele>
        <time>2018-07-06T17:01:23Z</time>
      </trkpt>
      <trkpt lat="47.869902960956097" lon="-3.560668006539345">
        <ele>40.030000000000001</ele>
        <time>2018-07-06T17:01:24Z</time>
      </trkpt>
      <trkpt lat="47.869856022298336" lon="-3.560662977397442">
        <ele>40.509999999999998</ele>
        <time>2018-07-06T17:01:25Z</time>
      </trkpt>
      <trkpt lat="47.869818974286318" lon="-3.560659037902951">
        <ele>40.990000000000002</ele>
        <time>2018-07-06T17:01:26Z</time>
      </trkpt>
      <trkpt lat="47.86967103369534" lon="-3.560754004865885">
        <ele>40.990000000000002</ele>
        <time>2018-07-06T17:01:27Z</time>
      </trkpt>
      <trkpt lat="47.869663992896676" lon="-3.560813013464212">
        <ele>41.469999999999999</ele>
        <time>2018-07-06T17:01:28Z</time>
      </trkpt>
      <trkpt lat="47.869656030088663" lon="-3.560879984870553">
        <ele>41.469999999999999</ele>
        <time>2018-07-06T17:01:29Z</time>
      </trkpt>
      <trkpt lat="47.869646977633238" lon="-3.560952991247177">
        <ele>41.950000000000003</ele>
        <time>2018-07-06T17:01:30Z</time>
      </trkpt>
      <trkpt lat="47.869635997340083" lon="-3.561036977916956">
        <ele>41.950000000000003</ele>
        <time>2018-07-06T17:01:31Z</time>
      </trkpt>
      <trkpt lat="47.869624011218548" lon="-3.561133034527302">
        <ele>42.439999999999998</ele>
        <time>2018-07-06T17:01:32Z</time>
      </trkpt>
      <trkpt lat="47.869577994570136" lon="-3.561502005904913">
        <ele>43.880000000000003</ele>
        <time>2018-07-06T17:01:36Z</time>
      </trkpt>
      <trkpt lat="47.869560979306698" lon="-3.561565959826112">
        <ele>44.359999999999999</ele>
        <time>2018-07-06T17:01:37Z</time>
      </trkpt>
      <trkpt lat="47.869542958214879" lon="-3.561637960374355">
        <ele>44.840000000000003</ele>
        <time>2018-07-06T17:01:38Z</time>
      </trkpt>
      <trkpt lat="47.869308013468981" lon="-3.562432983890176">
        <ele>45.32</ele>
        <time>2018-07-06T17:01:47Z</time>
      </trkpt>
      <trkpt lat="47.869258979335427" lon="-3.562518982216716">
        <ele>45.32</ele>
        <time>2018-07-06T17:01:48Z</time>
      </trkpt>
      <trkpt lat="47.869094023481011" lon="-3.562802961096168">
        <ele>44.840000000000003</ele>
        <time>2018-07-06T17:01:52Z</time>
      </trkpt>
      <trkpt lat="47.869060998782516" lon="-3.562860041856766">
        <ele>44.840000000000003</ele>
        <time>2018-07-06T17:01:53Z</time>
      </trkpt>
      <trkpt lat="47.869035014882684" lon="-3.562904968857765">
        <ele>44.840000000000003</ele>
        <time>2018-07-06T17:01:54Z</time>
      </trkpt>
      <trkpt lat="47.869014982134104" lon="-3.562940005213022">
        <ele>44.359999999999999</ele>
        <time>2018-07-06T17:01:55Z</time>
      </trkpt>
      <trkpt lat="47.868999978527427" lon="-3.562965989112854">
        <ele>44.359999999999999</ele>
        <time>2018-07-06T17:01:56Z</time>
      </trkpt>
    </trkseg>
  </trk>

  <trk>
    <name>Track vom: 2018-07-06 19:39</name>
    <extensions>
      <gpxx:TrackExtension>
        <gpxx:DisplayColor>DarkGray</gpxx:DisplayColor>
      </gpxx:TrackExtension>
    </extensions>
    <trkseg>
      <trkpt lat="47.868740977719426" lon="-3.562804972752929">
        <ele>52.049999999999997</ele>
        <time>2018-07-06T17:39:03Z</time>
      </trkpt>
      <trkpt lat="47.868741983547807" lon="-3.562803966924548">
        <ele>51.57</ele>
        <time>2018-07-06T17:39:36Z</time>
      </trkpt>
      <trkpt lat="47.868741983547807" lon="-3.562803966924548">
        <ele>51.57</ele>
        <time>2018-07-06T17:40:00Z</time>
      </trkpt>
      <trkpt lat="47.868740977719426" lon="-3.562807990238071">
        <ele>51.57</ele>
        <time>2018-07-06T17:40:14Z</time>
      </trkpt>
      <trkpt lat="47.868740977719426" lon="-3.562807990238071">
        <ele>51.57</ele>
        <time>2018-07-06T17:40:32Z</time>
      </trkpt>
      <trkpt lat="47.868944993242621" lon="-3.563061039894819">
        <ele>49.649999999999999</ele>
        <time>2018-07-06T17:40:35Z</time>
      </trkpt>
      <trkpt lat="47.868988998234272" lon="-3.562986021861434">
        <ele>46.759999999999998</ele>
        <time>2018-07-06T17:40:40Z</time>
      </trkpt>
      <trkpt lat="47.869019005447626" lon="-3.562932964414358">
        <ele>46.759999999999998</ele>
        <time>2018-07-06T17:40:41Z</time>
      </trkpt>
      <trkpt lat="47.869062004610896" lon="-3.562859036028385">
        <ele>46.759999999999998</ele>
        <time>2018-07-06T17:40:42Z</time>
      </trkpt>
      <trkpt lat="47.869111960753798" lon="-3.562773037701845">
        <ele>46.759999999999998</ele>
        <time>2018-07-06T17:40:43Z</time>
      </trkpt>
      <trkpt lat="47.869353024289012" lon="-3.562356038019061">
        <ele>45.799999999999997</ele>
        <time>2018-07-06T17:40:47Z</time>
      </trkpt>
      <trkpt lat="47.869394011795521" lon="-3.562217988073826">
        <ele>45.32</ele>
        <time>2018-07-06T17:40:48Z</time>
      </trkpt>
      <trkpt lat="47.869430975988507" lon="-3.562073986977339">
        <ele>45.32</ele>
        <time>2018-07-06T17:40:49Z</time>
      </trkpt>
      <trkpt lat="47.869503982365131" lon="-3.561789002269507">
        <ele>45.799999999999997</ele>
        <time>2018-07-06T17:40:51Z</time>
      </trkpt>
      <trkpt lat="47.869539018720388" lon="-3.561654975637794">
        <ele>45.799999999999997</ele>
        <time>2018-07-06T17:40:52Z</time>
      </trkpt>
      <trkpt lat="47.869577994570136" lon="-3.561502005904913">
        <ele>45.799999999999997</ele>
        <time>2018-07-06T17:40:53Z</time>
      </trkpt>
      <trkpt lat="47.869592998176813" lon="-3.561383988708258">
        <ele>46.280000000000001</ele>
        <time>2018-07-06T17:40:54Z</time>
      </trkpt>
      <trkpt lat="47.869610013440251" lon="-3.561247028410435">
        <ele>45.799999999999997</ele>
        <time>2018-07-06T17:40:55Z</time>
      </trkpt>
      <trkpt lat="47.86962803453207" lon="-3.561102021485567">
        <ele>45.799999999999997</ele>
        <time>2018-07-06T17:40:56Z</time>
      </trkpt>
      <trkpt lat="47.869686959311366" lon="-3.56061302125454">
        <ele>45.32</ele>
        <time>2018-07-06T17:41:00Z</time>
      </trkpt>
      <trkpt lat="47.869706992059946" lon="-3.560274979099631">
        <ele>44.359999999999999</ele>
        <time>2018-07-06T17:41:03Z</time>
      </trkpt>
      <trkpt lat="47.86997496150434" lon="-3.559148032218218">
        <ele>44.359999999999999</ele>
        <time>2018-07-06T17:41:11Z</time>
      </trkpt>
      <trkpt lat="47.870137989521027" lon="-3.558686021715403">
        <ele>41.950000000000003</ele>
        <time>2018-07-06T17:41:15Z</time>
      </trkpt>
      <trkpt lat="47.870164979249239" lon="-3.558609997853637">
        <ele>41.469999999999999</ele>
        <time>2018-07-06T17:41:16Z</time>
      </trkpt>
      <trkpt lat="47.8701860178262" lon="-3.55855199508369">
        <ele>40.990000000000002</ele>
        <time>2018-07-06T17:41:17Z</time>
      </trkpt>
      <trkpt lat="47.870201021432877" lon="-3.55850899592042">
        <ele>40.030000000000001</ele>
        <time>2018-07-06T17:41:18Z</time>
      </trkpt>
      <trkpt lat="47.870207978412509" lon="-3.558490974828601">
        <ele>39.549999999999997</ele>
        <time>2018-07-06T17:41:22Z</time>
      </trkpt>
      <trkpt lat="47.870216025039554" lon="-3.558362983167172">
        <ele>38.590000000000003</ele>
        <time>2018-07-06T17:41:23Z</time>
      </trkpt>
      <trkpt lat="47.870192974805832" lon="-3.558340016752482">
        <ele>38.109999999999999</ele>
        <time>2018-07-06T17:41:24Z</time>
      </trkpt>
      <trkpt lat="47.870159028097987" lon="-3.558305986225605">
        <ele>37.630000000000003</ele>
        <time>2018-07-06T17:41:25Z</time>
      </trkpt>
      <trkpt lat="47.870084010064602" lon="-3.558315960690379">
        <ele>37.149999999999999</ele>
        <time>2018-07-06T17:41:26Z</time>
      </trkpt>
      <trkpt lat="47.870019972324371" lon="-3.55831403285265">
        <ele>36.670000000000002</ele>
        <time>2018-07-06T17:41:27Z</time>
      </trkpt>
      <trkpt lat="47.869979990646243" lon="-3.558258963748813">
        <ele>36.670000000000002</ele>
        <time>2018-07-06T17:41:28Z</time>
      </trkpt>
      <trkpt lat="47.869934979826212" lon="-3.558138012886047">
        <ele>36.189999999999998</ele>
        <time>2018-07-06T17:41:29Z</time>
      </trkpt>
      <trkpt lat="47.869956018403172" lon="-3.558082021772862">
        <ele>36.189999999999998</ele>
        <time>2018-07-06T17:41:30Z</time>
      </trkpt>
      <trkpt lat="47.870023995637894" lon="-3.557996023446322">
        <ele>35.710000000000001</ele>
        <time>2018-07-06T17:41:31Z</time>
      </trkpt>
      <trkpt lat="47.870109993964434" lon="-3.557999962940812">
        <ele>35.710000000000001</ele>
        <time>2018-07-06T17:41:32Z</time>
      </trkpt>
      <trkpt lat="47.870156010612845" lon="-3.558045979589224">
        <ele>35.710000000000001</ele>
        <time>2018-07-06T17:41:33Z</time>
      </trkpt>
      <trkpt lat="47.870196998119354" lon="-3.558146981522441">
        <ele>35.710000000000001</ele>
        <time>2018-07-06T17:41:34Z</time>
      </trkpt>
      <trkpt lat="47.870200015604496" lon="-3.558154022321105">
        <ele>36.189999999999998</ele>
        <time>2018-07-06T17:41:35Z</time>
      </trkpt>
      <trkpt lat="47.870205966755748" lon="-3.558353008702397">
        <ele>36.189999999999998</ele>
        <time>2018-07-06T17:41:36Z</time>
      </trkpt>
      <trkpt lat="47.870243014767766" lon="-3.558389972895384">
        <ele>36.189999999999998</ele>
        <time>2018-07-06T17:41:37Z</time>
      </trkpt>
      <trkpt lat="47.870336975902319" lon="-3.558432972058654">
        <ele>36.189999999999998</ele>
        <time>2018-07-06T17:41:38Z</time>
      </trkpt>
      <trkpt lat="47.870418028905988" lon="-3.558469014242292">
        <ele>36.670000000000002</ele>
        <time>2018-07-06T17:41:39Z</time>
      </trkpt>
      <trkpt lat="47.871194025501609" lon="-3.55874503031373">
        <ele>35.710000000000001</ele>
        <time>2018-07-06T17:41:47Z</time>
      </trkpt>
      <trkpt lat="47.871500970795751" lon="-3.558786017820239">
        <ele>34.259999999999998</ele>
        <time>2018-07-06T17:41:54Z</time>
      </trkpt>
      <trkpt lat="47.871607001870871" lon="-3.558801021426916">
        <ele>33.780000000000001</ele>
        <time>2018-07-06T17:42:17Z</time>
      </trkpt>
      <trkpt lat="47.871651006862521" lon="-3.558806972578168">
        <ele>33.299999999999997</ele>
        <time>2018-07-06T17:42:18Z</time>
      </trkpt>
      <trkpt lat="47.871752008795738" lon="-3.558633970096707">
        <ele>33.299999999999997</ele>
        <time>2018-07-06T17:42:19Z</time>
      </trkpt>
      <trkpt lat="47.871756032109261" lon="-3.558536991477013">
        <ele>32.82</ele>
        <time>2018-07-06T17:42:20Z</time>
      </trkpt>
      <trkpt lat="47.871759971603751" lon="-3.558420985937119">
        <ele>31.859999999999999</ele>
        <time>2018-07-06T17:42:21Z</time>
      </trkpt>
      <trkpt lat="47.871765000745654" lon="-3.558288970962167">
        <ele>31.859999999999999</ele>
        <time>2018-07-06T17:42:22Z</time>
      </trkpt>
      <trkpt lat="47.871815040707588" lon="-3.556689033284783">
        <ele>25.609999999999999</ele>
        <time>2018-07-06T17:42:32Z</time>
      </trkpt>
      <trkpt lat="47.871829960495234" lon="-3.556118980050087">
        <ele>24.649999999999999</ele>
        <time>2018-07-06T17:42:36Z</time>
      </trkpt>
      <trkpt lat="47.871830966323614" lon="-3.556029964238405">
        <ele>24.649999999999999</ele>
        <time>2018-07-06T17:42:37Z</time>
      </trkpt>
      <trkpt lat="47.871858961880207" lon="-3.555870037525892">
        <ele>24.649999999999999</ele>
        <time>2018-07-06T17:42:38Z</time>
      </trkpt>
      <trkpt lat="47.871890980750322" lon="-3.555746991187334">
        <ele>25.129999999999999</ele>
        <time>2018-07-06T17:42:39Z</time>
      </trkpt>
      <trkpt lat="47.871938003227115" lon="-3.555622017011046">
        <ele>25.609999999999999</ele>
        <time>2018-07-06T17:42:40Z</time>
      </trkpt>
      <trkpt lat="47.872497998178005" lon="-3.554115034639835">
        <ele>26.09</ele>
        <time>2018-07-06T17:42:52Z</time>
      </trkpt>
      <trkpt lat="47.872536974027753" lon="-3.554009003564715">
        <ele>26.09</ele>
        <time>2018-07-06T17:42:53Z</time>
      </trkpt>
      <trkpt lat="47.87257301621139" lon="-3.55391001328826">
        <ele>26.09</ele>
        <time>2018-07-06T17:42:54Z</time>
      </trkpt>
      <trkpt lat="47.872710982337594" lon="-3.553584041073918">
        <ele>25.129999999999999</ele>
        <time>2018-07-06T17:42:58Z</time>
      </trkpt>
      <trkpt lat="47.872726991772652" lon="-3.553518997505307">
        <ele>25.129999999999999</ele>
        <time>2018-07-06T17:42:59Z</time>
      </trkpt>
      <trkpt lat="47.872691033408046" lon="-3.553328979760408">
        <ele>24.649999999999999</ele>
        <time>2018-07-06T17:43:01Z</time>
      </trkpt>
      <trkpt lat="47.872700002044439" lon="-3.553253039717674">
        <ele>24.649999999999999</ele>
        <time>2018-07-06T17:43:02Z</time>
      </trkpt>
      <trkpt lat="47.872707964852452" lon="-3.55318003334105">
        <ele>24.649999999999999</ele>
        <time>2018-07-06T17:43:03Z</time>
      </trkpt>
      <trkpt lat="47.872774014249444" lon="-3.553154971450567">
        <ele>24.649999999999999</ele>
        <time>2018-07-06T17:43:04Z</time>
      </trkpt>
      <trkpt lat="47.872862024232745" lon="-3.553107026964426">
        <ele>24.649999999999999</ele>
        <time>2018-07-06T17:43:05Z</time>
      </trkpt>
      <trkpt lat="47.872901000082493" lon="-3.553021028637886">
        <ele>24.649999999999999</ele>
        <time>2018-07-06T17:43:06Z</time>
      </trkpt>
      <trkpt lat="47.872948022559285" lon="-3.55292103253305">
        <ele>25.129999999999999</ele>
        <time>2018-07-06T17:43:07Z</time>
      </trkpt>
      <trkpt lat="47.872997978702188" lon="-3.552812989801168">
        <ele>25.129999999999999</ele>
        <time>2018-07-06T17:43:08Z</time>
      </trkpt>
      <trkpt lat="47.873251028358936" lon="-3.55219298042357">
        <ele>26.09</ele>
        <time>2018-07-06T17:43:13Z</time>
      </trkpt>
      <trkpt lat="47.873338032513857" lon="-3.551936997100711">
        <ele>26.57</ele>
        <time>2018-07-06T17:43:15Z</time>
      </trkpt>
      <trkpt lat="47.873380025848746" lon="-3.551811017096043">
        <ele>27.530000000000001</ele>
        <time>2018-07-06T17:43:16Z</time>
      </trkpt>
      <trkpt lat="47.87369099445641" lon="-3.550786999985576">
        <ele>31.379999999999999</ele>
        <time>2018-07-06T17:43:24Z</time>
      </trkpt>
      <trkpt lat="47.873714966699481" lon="-3.550698990002275">
        <ele>32.340000000000003</ele>
        <time>2018-07-06T17:43:25Z</time>
      </trkpt>
      <trkpt lat="47.873738016933203" lon="-3.550618020817637">
        <ele>32.82</ele>
        <time>2018-07-06T17:43:26Z</time>
      </trkpt>
      <trkpt lat="47.873758971691132" lon="-3.55053998529911">
        <ele>33.780000000000001</ele>
        <time>2018-07-06T17:43:27Z</time>
      </trkpt>
      <trkpt lat="47.873777998611331" lon="-3.55047301389277">
        <ele>34.259999999999998</ele>
        <time>2018-07-06T17:43:28Z</time>
      </trkpt>
      <trkpt lat="47.873794008046389" lon="-3.550415011122823">
        <ele>34.740000000000002</ele>
        <time>2018-07-06T17:43:29Z</time>
      </trkpt>
      <trkpt lat="47.873810017481446" lon="-3.550359020009637">
        <ele>34.740000000000002</ele>
        <time>2018-07-06T17:43:30Z</time>
      </trkpt>
      <trkpt lat="47.873825021088123" lon="-3.55030202306807">
        <ele>35.229999999999997</ele>
        <time>2018-07-06T17:43:31Z</time>
      </trkpt>
      <trkpt lat="47.873841030523181" lon="-3.550246031954885">
        <ele>35.710000000000001</ele>
        <time>2018-07-06T17:43:32Z</time>
      </trkpt>
      <trkpt lat="47.873857039958239" lon="-3.550189035013318">
        <ele>36.189999999999998</ele>
        <time>2018-07-06T17:43:33Z</time>
      </trkpt>
      <trkpt lat="47.873871959745884" lon="-3.550133965909481">
        <ele>36.189999999999998</ele>
        <time>2018-07-06T17:43:34Z</time>
      </trkpt>
      <trkpt lat="47.873924011364579" lon="-3.549881000071764">
        <ele>37.630000000000003</ele>
        <time>2018-07-06T17:43:38Z</time>
      </trkpt>
      <trkpt lat="47.873928034678102" lon="-3.549779998138547">
        <ele>37.630000000000003</ele>
        <time>2018-07-06T17:43:39Z</time>
      </trkpt>
      <trkpt lat="47.873901966959238" lon="-3.549568019807339">
        <ele>37.630000000000003</ele>
        <time>2018-07-06T17:43:41Z</time>
      </trkpt>
      <trkpt lat="47.873874977231026" lon="-3.549353023990989">
        <ele>37.149999999999999</ele>
        <time>2018-07-06T17:43:43Z</time>
      </trkpt>
      <trkpt lat="47.873770035803318" lon="-3.548493040725589">
        <ele>31.379999999999999</ele>
        <time>2018-07-06T17:43:51Z</time>
      </trkpt>
      <trkpt lat="47.873739022761583" lon="-3.548380974680185">
        <ele>30.420000000000002</ele>
        <time>2018-07-06T17:43:52Z</time>
      </trkpt>
      <trkpt lat="47.873698035255075" lon="-3.548283996060491">
        <ele>28.98</ele>
        <time>2018-07-06T17:43:53Z</time>
      </trkpt>
      <trkpt lat="47.873632991686463" lon="-3.548197997733951">
        <ele>28.5</ele>
        <time>2018-07-06T17:43:54Z</time>
      </trkpt>
      <trkpt lat="47.873573983088136" lon="-3.548119040206075">
        <ele>27.050000000000001</ele>
        <time>2018-07-06T17:43:55Z</time>
      </trkpt>
      <trkpt lat="47.873512040823698" lon="-3.548035975545645">
        <ele>26.09</ele>
        <time>2018-07-06T17:43:56Z</time>
      </trkpt>
      <trkpt lat="47.873385976999998" lon="-3.547868002206087">
        <ele>25.129999999999999</ele>
        <time>2018-07-06T17:43:58Z</time>
      </trkpt>
      <trkpt lat="47.873321017250419" lon="-3.547782003879547">
        <ele>24.170000000000002</ele>
        <time>2018-07-06T17:43:59Z</time>
      </trkpt>
      <trkpt lat="47.87319696508348" lon="-3.547615958377719">
        <ele>23.690000000000001</ele>
        <time>2018-07-06T17:44:01Z</time>
      </trkpt>
      <trkpt lat="47.872622972354293" lon="-3.546967031434178">
        <ele>19.84</ele>
        <time>2018-07-06T17:44:09Z</time>
      </trkpt>
      <trkpt lat="47.872563041746616" lon="-3.546888995915651">
        <ele>17.920000000000002</ele>
        <time>2018-07-06T17:44:10Z</time>
      </trkpt>
      <trkpt lat="47.872515013441443" lon="-3.546828981488943">
        <ele>16.48</ele>
        <time>2018-07-06T17:44:11Z</time>
      </trkpt>
      <trkpt lat="47.872409988194704" lon="-3.546695960685611">
        <ele>10.710000000000001</ele>
        <time>2018-07-06T17:44:15Z</time>
      </trkpt>
      <trkpt lat="47.872291970998049" lon="-3.546529999002814">
        <ele>5.42</ele>
        <time>2018-07-06T17:44:22Z</time>
      </trkpt>
      <trkpt lat="47.871960969641805" lon="-3.546076035127044">
        <ele>2.06</ele>
        <time>2018-07-06T17:44:32Z</time>
      </trkpt>
      <trkpt lat="47.871749997138977" lon="-3.545882999897003">
        <ele>0.62</ele>
        <time>2018-07-06T17:44:37Z</time>
      </trkpt>
      <trkpt lat="47.871713032945991" lon="-3.545848969370127">
        <ele>0.14</ele>
        <time>2018-07-06T17:44:38Z</time>
      </trkpt>
      <trkpt lat="47.871672967448831" lon="-3.545813011005521">
        <ele>0.14</ele>
        <time>2018-07-06T17:44:39Z</time>
      </trkpt>
      <trkpt lat="47.871466018259525" lon="-3.545622993260622">
        <ele>2.06</ele>
        <time>2018-07-06T17:44:49Z</time>
      </trkpt>
      <trkpt lat="47.871382031589746" lon="-3.545583011582494">
        <ele>2.54</ele>
        <time>2018-07-06T17:44:51Z</time>
      </trkpt>
      <trkpt lat="47.871444979682565" lon="-3.545536994934082">
        <ele>2.54</ele>
        <time>2018-07-06T17:44:52Z</time>
      </trkpt>
      <trkpt lat="47.871444979682565" lon="-3.545534983277321">
        <ele>3.02</ele>
        <time>2018-07-06T17:44:53Z</time>
      </trkpt>
      <trkpt lat="47.871452020481229" lon="-3.545503970235586">
        <ele>3.02</ele>
        <time>2018-07-06T17:44:54Z</time>
      </trkpt>
      <trkpt lat="47.871452020481229" lon="-3.545503970235586">
        <ele>3.02</ele>
        <time>2018-07-06T17:44:55Z</time>
      </trkpt>
      <trkpt lat="47.871452020481229" lon="-3.545503970235586">
        <ele>3.02</ele>
        <time>2018-07-06T17:44:56Z</time>
      </trkpt>
      <trkpt lat="47.871535001322627" lon="-3.545100968331099">
        <ele>2.54</ele>
        <time>2018-07-06T17:45:07Z</time>
      </trkpt>
      <trkpt lat="47.871552016586065" lon="-3.544807014986873">
        <ele>3.5</ele>
        <time>2018-07-06T17:45:17Z</time>
      </trkpt>
      <trkpt lat="47.871552016586065" lon="-3.544807014986873">
        <ele>3.5</ele>
        <time>2018-07-06T17:45:18Z</time>
      </trkpt>
      <trkpt lat="47.87158596329391" lon="-3.544807014986873">
        <ele>3.98</ele>
        <time>2018-07-06T17:45:19Z</time>
      </trkpt>
      <trkpt lat="47.871608007699251" lon="-3.544807014986873">
        <ele>3.98</ele>
        <time>2018-07-06T17:45:20Z</time>
      </trkpt>
      <trkpt lat="47.871616976335645" lon="-3.544808020815253">
        <ele>3.5</ele>
        <time>2018-07-06T17:45:21Z</time>
      </trkpt>
      <trkpt lat="47.871638014912605" lon="-3.544893013313413">
        <ele>3.5</ele>
        <time>2018-07-06T17:45:22Z</time>
      </trkpt>
      <trkpt lat="47.871656036004424" lon="-3.544914973899722">
        <ele>3.5</ele>
        <time>2018-07-06T17:45:23Z</time>
      </trkpt>
      <trkpt lat="47.872004974633455" lon="-3.545287968590856">
        <ele>1.58</ele>
        <time>2018-07-06T17:45:36Z</time>
      </trkpt>
      <trkpt lat="47.872484000399709" lon="-3.545370027422905">
        <ele>-0.34</ele>
        <time>2018-07-06T17:45:51Z</time>
      </trkpt>
      <trkpt lat="47.872506966814399" lon="-3.54536198079586">
        <ele>0.14</ele>
        <time>2018-07-06T17:45:52Z</time>
      </trkpt>
      <trkpt lat="47.87252901121974" lon="-3.545355023816228">
        <ele>0.14</ele>
        <time>2018-07-06T17:45:53Z</time>
      </trkpt>
      <trkpt lat="47.872549965977669" lon="-3.545347983017564">
        <ele>0.14</ele>
        <time>2018-07-06T17:45:54Z</time>
      </trkpt>
    </trkseg>
  </trk>

  <trk>
    <name>Track vom: 2018-07-06 20:27</name>
    <extensions>
      <gpxx:TrackExtension>
        <gpxx:DisplayColor>DarkGray</gpxx:DisplayColor>
      </gpxx:TrackExtension>
    </extensions>
    <trkseg>
      <trkpt lat="47.873407015576959" lon="-3.545501958578825">
        <ele>13.119999999999999</ele>
        <time>2018-07-06T18:27:25Z</time>
      </trkpt>
      <trkpt lat="47.873407015576959" lon="-3.545501958578825">
        <ele>13.119999999999999</ele>
        <time>2018-07-06T18:27:36Z</time>
      </trkpt>
      <trkpt lat="47.873118007555604" lon="-3.545271037146449">
        <ele>13.6</ele>
        <time>2018-07-06T18:27:44Z</time>
      </trkpt>
      <trkpt lat="47.873064028099179" lon="-3.545248992741108">
        <ele>13.6</ele>
        <time>2018-07-06T18:27:45Z</time>
      </trkpt>
      <trkpt lat="47.872961014509201" lon="-3.545208005234599">
        <ele>13.6</ele>
        <time>2018-07-06T18:27:47Z</time>
      </trkpt>
      <trkpt lat="47.872913992032409" lon="-3.5451889783144">
        <ele>13.6</ele>
        <time>2018-07-06T18:27:48Z</time>
      </trkpt>
      <trkpt lat="47.872869987040758" lon="-3.545171963050962">
        <ele>13.6</ele>
        <time>2018-07-06T18:27:49Z</time>
      </trkpt>
      <trkpt lat="47.872711988165975" lon="-3.545109014958143">
        <ele>13.119999999999999</ele>
        <time>2018-07-06T18:27:53Z</time>
      </trkpt>
      <trkpt lat="47.872710982337594" lon="-3.545108009129763">
        <ele>12.630000000000001</ele>
        <time>2018-07-06T18:27:54Z</time>
      </trkpt>
      <trkpt lat="47.872651973739266" lon="-3.545199958607554">
        <ele>12.630000000000001</ele>
        <time>2018-07-06T18:27:55Z</time>
      </trkpt>
      <trkpt lat="47.872622972354293" lon="-3.545245975255966">
        <ele>12.15</ele>
        <time>2018-07-06T18:27:56Z</time>
      </trkpt>
      <trkpt lat="47.872591037303209" lon="-3.5452960152179">
        <ele>11.67</ele>
        <time>2018-07-06T18:27:57Z</time>
      </trkpt>
      <trkpt lat="47.872561030089855" lon="-3.545343959704042">
        <ele>11.19</ele>
        <time>2018-07-06T18:27:58Z</time>
      </trkpt>
      <trkpt lat="47.872561030089855" lon="-3.545343959704042">
        <ele>10.710000000000001</ele>
        <time>2018-07-06T18:27:59Z</time>
      </trkpt>
      <trkpt lat="47.872464973479509" lon="-3.545375978574157">
        <ele>10.23</ele>
        <time>2018-07-06T18:28:00Z</time>
      </trkpt>
      <trkpt lat="47.872428009286523" lon="-3.545387964695692">
        <ele>9.75</ele>
        <time>2018-07-06T18:28:01Z</time>
      </trkpt>
      <trkpt lat="47.872390039265156" lon="-3.54540104046464">
        <ele>9.27</ele>
        <time>2018-07-06T18:28:02Z</time>
      </trkpt>
      <trkpt lat="47.872356008738279" lon="-3.54540497995913">
        <ele>8.789999999999999</ele>
        <time>2018-07-06T18:28:03Z</time>
      </trkpt>
      <trkpt lat="47.872321978211403" lon="-3.545392993837595">
        <ele>8.310000000000001</ele>
        <time>2018-07-06T18:28:04Z</time>
      </trkpt>
      <trkpt lat="47.872246960178018" lon="-3.545368015766144">
        <ele>7.35</ele>
        <time>2018-07-06T18:28:06Z</time>
      </trkpt>
      <trkpt lat="47.872201027348638" lon="-3.545353012159467">
        <ele>7.35</ele>
        <time>2018-07-06T18:28:07Z</time>
      </trkpt>
      <trkpt lat="47.871973961591721" lon="-3.545271959155798">
        <ele>5.91</ele>
        <time>2018-07-06T18:28:12Z</time>
      </trkpt>
      <trkpt lat="47.871938003227115" lon="-3.54523197747767">
        <ele>5.42</ele>
        <time>2018-07-06T18:28:13Z</time>
      </trkpt>
      <trkpt lat="47.871819986030459" lon="-3.545101974159479">
        <ele>4.94</ele>
        <time>2018-07-06T18:28:16Z</time>
      </trkpt>
      <trkpt lat="47.871782016009092" lon="-3.54506098665297">
        <ele>4.46</ele>
        <time>2018-07-06T18:28:17Z</time>
      </trkpt>
      <trkpt lat="47.871747985482216" lon="-3.545022010803223">
        <ele>3.98</ele>
        <time>2018-07-06T18:28:18Z</time>
      </trkpt>
      <trkpt lat="47.871708003804088" lon="-3.54497498832643">
        <ele>3.5</ele>
        <time>2018-07-06T18:28:19Z</time>
      </trkpt>
      <trkpt lat="47.871615970507264" lon="-3.544979011639953">
        <ele>3.5</ele>
        <time>2018-07-06T18:28:20Z</time>
      </trkpt>
      <trkpt lat="47.871589986607432" lon="-3.544979011639953">
        <ele>3.5</ele>
        <time>2018-07-06T18:28:21Z</time>
      </trkpt>
      <trkpt lat="47.871555034071207" lon="-3.544979011639953">
        <ele>3.02</ele>
        <time>2018-07-06T18:28:22Z</time>
      </trkpt>
      <trkpt lat="47.87154296413064" lon="-3.545045983046293">
        <ele>3.02</ele>
        <time>2018-07-06T18:28:23Z</time>
      </trkpt>
      <trkpt lat="47.871536007151008" lon="-3.545089988037944">
        <ele>2.54</ele>
        <time>2018-07-06T18:28:24Z</time>
      </trkpt>
      <trkpt lat="47.871528966352344" lon="-3.545137010514736">
        <ele>2.54</ele>
        <time>2018-07-06T18:28:25Z</time>
      </trkpt>
      <trkpt lat="47.87151999771595" lon="-3.545179003849626">
        <ele>2.06</ele>
        <time>2018-07-06T18:28:26Z</time>
      </trkpt>
      <trkpt lat="47.871510023251176" lon="-3.545227032154799">
        <ele>2.06</ele>
        <time>2018-07-06T18:28:27Z</time>
      </trkpt>
      <trkpt lat="47.871498037129641" lon="-3.545285034924746">
        <ele>2.06</ele>
        <time>2018-07-06T18:28:28Z</time>
      </trkpt>
      <trkpt lat="47.871484961360693" lon="-3.545346977189183">
        <ele>1.58</ele>
        <time>2018-07-06T18:28:29Z</time>
      </trkpt>
      <trkpt lat="47.871449002996087" lon="-3.545555016025901">
        <ele>0.62</ele>
        <time>2018-07-06T18:28:33Z</time>
      </trkpt>
      <trkpt lat="47.871470041573048" lon="-3.545626010745764">
        <ele>0.14</ele>
        <time>2018-07-06T18:28:34Z</time>
      </trkpt>
      <trkpt lat="47.871522009372711" lon="-3.545674039050937">
        <ele>0.14</ele>
        <time>2018-07-06T18:28:35Z</time>
      </trkpt>
      <trkpt lat="47.871643966063857" lon="-3.545785015448928">
        <ele>-0.34</ele>
        <time>2018-07-06T18:28:37Z</time>
      </trkpt>
      <trkpt lat="47.872205972671509" lon="-3.546407036483288">
        <ele>1.1</ele>
        <time>2018-07-06T18:28:46Z</time>
      </trkpt>
      <trkpt lat="47.872260035946965" lon="-3.546480964869261">
        <ele>1.1</ele>
        <time>2018-07-06T18:28:47Z</time>
      </trkpt>
      <trkpt lat="47.872338993474841" lon="-3.546599987894297">
        <ele>1.58</ele>
        <time>2018-07-06T18:28:49Z</time>
      </trkpt>
      <trkpt lat="47.872424991801381" lon="-3.546618008986116">
        <ele>2.06</ele>
        <time>2018-07-06T18:28:50Z</time>
      </trkpt>
      <trkpt lat="47.872430020943284" lon="-3.546721022576094">
        <ele>2.06</ele>
        <time>2018-07-06T18:28:51Z</time>
      </trkpt>
      <trkpt lat="47.872487017884851" lon="-3.546793023124337">
        <ele>2.54</ele>
        <time>2018-07-06T18:28:52Z</time>
      </trkpt>
      <trkpt lat="47.872556000947952" lon="-3.546881033107638">
        <ele>2.54</ele>
        <time>2018-07-06T18:28:53Z</time>
      </trkpt>
      <trkpt lat="47.872634958475828" lon="-3.546981029212475">
        <ele>3.02</ele>
        <time>2018-07-06T18:28:54Z</time>
      </trkpt>
      <trkpt lat="47.872725985944271" lon="-3.547069039195776">
        <ele>3.98</ele>
        <time>2018-07-06T18:28:55Z</time>
      </trkpt>
      <trkpt lat="47.872923966497183" lon="-3.547258973121643">
        <ele>6.39</ele>
        <time>2018-07-06T18:28:57Z</time>
      </trkpt>
      <trkpt lat="47.873655036091805" lon="-3.548225993290544">
        <ele>18.399999999999999</ele>
        <time>2018-07-06T18:29:06Z</time>
      </trkpt>
      <trkpt lat="47.873719995841384" lon="-3.548335041850805">
        <ele>20.32</ele>
        <time>2018-07-06T18:29:08Z</time>
      </trkpt>
      <trkpt lat="47.873785039409995" lon="-3.548621032387018">
        <ele>21.289999999999999</ele>
        <time>2018-07-06T18:29:09Z</time>
      </trkpt>
      <trkpt lat="47.873915964737535" lon="-3.549682013690472">
        <ele>27.050000000000001</ele>
        <time>2018-07-06T18:29:16Z</time>
      </trkpt>
      <trkpt lat="47.873929962515831" lon="-3.549795001745224">
        <ele>28.5</ele>
        <time>2018-07-06T18:29:17Z</time>
      </trkpt>
      <trkpt lat="47.873908001929522" lon="-3.549968004226685">
        <ele>30.420000000000002</ele>
        <time>2018-07-06T18:29:19Z</time>
      </trkpt>
      <trkpt lat="47.873890986666083" lon="-3.550064982846379">
        <ele>32.340000000000003</ele>
        <time>2018-07-06T18:29:21Z</time>
      </trkpt>
      <trkpt lat="47.873801970854402" lon="-3.550385003909469">
        <ele>34.740000000000002</ele>
        <time>2018-07-06T18:29:24Z</time>
      </trkpt>
      <trkpt lat="47.873774981126189" lon="-3.550481982529163">
        <ele>35.229999999999997</ele>
        <time>2018-07-06T18:29:25Z</time>
      </trkpt>
      <trkpt lat="47.873745979741216" lon="-3.550588013604283">
        <ele>35.710000000000001</ele>
        <time>2018-07-06T18:29:26Z</time>
      </trkpt>
      <trkpt lat="47.873715972527862" lon="-3.550696978345513">
        <ele>35.710000000000001</ele>
        <time>2018-07-06T18:29:27Z</time>
      </trkpt>
      <trkpt lat="47.873684959486127" lon="-3.550808038562536">
        <ele>36.189999999999998</ele>
        <time>2018-07-06T18:29:28Z</time>
      </trkpt>
      <trkpt lat="47.873655036091805" lon="-3.550920020788908">
        <ele>35.710000000000001</ele>
        <time>2018-07-06T18:29:29Z</time>
      </trkpt>
      <trkpt lat="47.87319403141737" lon="-3.552347961813211">
        <ele>31.379999999999999</ele>
        <time>2018-07-06T18:29:41Z</time>
      </trkpt>
      <trkpt lat="47.873150026425719" lon="-3.552468996495009">
        <ele>30.899999999999999</ele>
        <time>2018-07-06T18:29:42Z</time>
      </trkpt>
      <trkpt lat="47.872923966497183" lon="-3.552973000332713">
        <ele>30.420000000000002</ele>
        <time>2018-07-06T18:29:47Z</time>
      </trkpt>
      <trkpt lat="47.872892031446099" lon="-3.553042989224196">
        <ele>30.420000000000002</ele>
        <time>2018-07-06T18:29:48Z</time>
      </trkpt>
      <trkpt lat="47.872861018404365" lon="-3.553196964785457">
        <ele>30.899999999999999</ele>
        <time>2018-07-06T18:29:49Z</time>
      </trkpt>
      <trkpt lat="47.872861018404365" lon="-3.553271982818842">
        <ele>31.379999999999999</ele>
        <time>2018-07-06T18:29:50Z</time>
      </trkpt>
      <trkpt lat="47.872837968170643" lon="-3.553362004458904">
        <ele>31.859999999999999</ele>
        <time>2018-07-06T18:29:51Z</time>
      </trkpt>
      <trkpt lat="47.87274501286447" lon="-3.553445991128683">
        <ele>32.340000000000003</ele>
        <time>2018-07-06T18:29:52Z</time>
      </trkpt>
      <trkpt lat="47.872710982337594" lon="-3.553584041073918">
        <ele>32.82</ele>
        <time>2018-07-06T18:29:53Z</time>
      </trkpt>
      <trkpt lat="47.872667983174324" lon="-3.553690994158387">
        <ele>33.299999999999997</ele>
        <time>2018-07-06T18:29:54Z</time>
      </trkpt>
      <trkpt lat="47.872626995667815" lon="-3.553752014413476">
        <ele>33.780000000000001</ele>
        <time>2018-07-06T18:29:55Z</time>
      </trkpt>
      <trkpt lat="47.872624984011054" lon="-3.553755031898618">
        <ele>34.259999999999998</ele>
        <time>2018-07-06T18:29:56Z</time>
      </trkpt>
      <trkpt lat="47.872545020654798" lon="-3.553986037150025">
        <ele>35.229999999999997</ele>
        <time>2018-07-06T18:29:57Z</time>
      </trkpt>
      <trkpt lat="47.872493974864483" lon="-3.554127020761371">
        <ele>36.189999999999998</ele>
        <time>2018-07-06T18:29:58Z</time>
      </trkpt>
      <trkpt lat="47.871938003227115" lon="-3.555622017011046">
        <ele>42.920000000000002</ele>
        <time>2018-07-06T18:30:09Z</time>
      </trkpt>
      <trkpt lat="47.871855022385716" lon="-3.555886968970299">
        <ele>43.880000000000003</ele>
        <time>2018-07-06T18:30:11Z</time>
      </trkpt>
      <trkpt lat="47.871830966323614" lon="-3.556029964238405">
        <ele>43.880000000000003</ele>
        <time>2018-07-06T18:30:12Z</time>
      </trkpt>
      <trkpt lat="47.871783021837473" lon="-3.557808017358184">
        <ele>47.240000000000002</ele>
        <time>2018-07-06T18:30:24Z</time>
      </trkpt>
      <trkpt lat="47.871762989088893" lon="-3.55833699926734">
        <ele>49.649999999999999</ele>
        <time>2018-07-06T18:30:32Z</time>
      </trkpt>
      <trkpt lat="47.871739016845822" lon="-3.559010988101363">
        <ele>52.049999999999997</ele>
        <time>2018-07-06T18:30:42Z</time>
      </trkpt>
      <trkpt lat="47.87171202711761" lon="-3.560224017128348">
        <ele>56.859999999999999</ele>
        <time>2018-07-06T18:30:51Z</time>
      </trkpt>
      <trkpt lat="47.871705992147326" lon="-3.560647973790765">
        <ele>61.18</ele>
        <time>2018-07-06T18:30:58Z</time>
      </trkpt>
      <trkpt lat="47.871697023510933" lon="-3.560981992632151">
        <ele>63.579999999999998</ele>
        <time>2018-07-06T18:31:13Z</time>
      </trkpt>
      <trkpt lat="47.871687971055508" lon="-3.561076959595084">
        <ele>64.069999999999993</ele>
        <time>2018-07-06T18:31:20Z</time>
      </trkpt>
      <trkpt lat="47.871672967448831" lon="-3.561158012598753">
        <ele>64.069999999999993</ele>
        <time>2018-07-06T18:31:22Z</time>
      </trkpt>
      <trkpt lat="47.871628040447831" lon="-3.561153989285231">
        <ele>63.579999999999998</ele>
        <time>2018-07-06T18:31:23Z</time>
      </trkpt>
      <trkpt lat="47.871569031849504" lon="-3.561149965971708">
        <ele>63.100000000000001</ele>
        <time>2018-07-06T18:31:24Z</time>
      </trkpt>
      <trkpt lat="47.871495019644499" lon="-3.561144014820457">
        <ele>62.619999999999997</ele>
        <time>2018-07-06T18:31:25Z</time>
      </trkpt>
      <trkpt lat="47.871401980519295" lon="-3.561136974021792">
        <ele>62.140000000000001</ele>
        <time>2018-07-06T18:31:26Z</time>
      </trkpt>
      <trkpt lat="47.870679963380098" lon="-3.560830028727651">
        <ele>57.82</ele>
        <time>2018-07-06T18:31:35Z</time>
      </trkpt>
      <trkpt lat="47.8698889631778" lon="-3.560667000710964">
        <ele>56.859999999999999</ele>
        <time>2018-07-06T18:31:45Z</time>
      </trkpt>
      <trkpt lat="47.869827020913363" lon="-3.5606599599123">
        <ele>56.369999999999997</ele>
        <time>2018-07-06T18:31:46Z</time>
      </trkpt>
      <trkpt lat="47.869772035628557" lon="-3.560653002932668">
        <ele>55.890000000000001</ele>
        <time>2018-07-06T18:31:47Z</time>
      </trkpt>
      <trkpt lat="47.86967296153307" lon="-3.560744030401111">
        <ele>55.890000000000001</ele>
        <time>2018-07-06T18:31:48Z</time>
      </trkpt>
      <trkpt lat="47.869663992896676" lon="-3.560817036777735">
        <ele>55.890000000000001</ele>
        <time>2018-07-06T18:31:49Z</time>
      </trkpt>
      <trkpt lat="47.869653012603521" lon="-3.560903035104275">
        <ele>55.890000000000001</ele>
        <time>2018-07-06T18:31:50Z</time>
      </trkpt>
      <trkpt lat="47.869641026481986" lon="-3.56100001372397">
        <ele>55.890000000000001</ele>
        <time>2018-07-06T18:31:51Z</time>
      </trkpt>
      <trkpt lat="47.86962803453207" lon="-3.561100009828806">
        <ele>55.409999999999997</ele>
        <time>2018-07-06T18:31:52Z</time>
      </trkpt>
      <trkpt lat="47.869615964591503" lon="-3.561201011762023">
        <ele>55.409999999999997</ele>
        <time>2018-07-06T18:31:53Z</time>
      </trkpt>
      <trkpt lat="47.869380014017224" lon="-3.562272973358631">
        <ele>53.969999999999999</ele>
        <time>2018-07-06T18:32:03Z</time>
      </trkpt>
      <trkpt lat="47.869346989318728" lon="-3.562366012483835">
        <ele>53.490000000000002</ele>
        <time>2018-07-06T18:32:04Z</time>
      </trkpt>
      <trkpt lat="47.869073990732431" lon="-3.562839003279805">
        <ele>53.009999999999998</ele>
        <time>2018-07-06T18:32:10Z</time>
      </trkpt>
      <trkpt lat="47.868968965485692" lon="-3.563018962740898">
        <ele>52.049999999999997</ele>
        <time>2018-07-06T18:32:16Z</time>
      </trkpt>
      <trkpt lat="47.868961002677679" lon="-3.563032960519195">
        <ele>51.57</ele>
        <time>2018-07-06T18:32:19Z</time>
      </trkpt>
    </trkseg>
  </trk>

</gpx>